<?xml version="1.0" encoding="UTF-8" standalone="no" ?>
<gpx xmlns="http://www.topografix.com/GPX/1/1" xmlns:xsi="http://www.w3.org/2001/XMLSchema-instance" xsi:schemaLocation="http://www.topografix.com/GPX/1/1 http://www.topografix.com/GPX/1/1/gpx.xsd" version="1.1" creator="VisuGPX - https://www.visugpx.com">
  <metadata>
    <name>Ru &amp; gadoue</name>
  </metadata>
  <trk>
    <name><![CDATA[2023 05 14 ru & gadoue]]></name>
    <trkseg>
      <trkpt lat="45.83328" lon="4.70888">
        <ele>301.19818</ele>
        <time>2023-05-14T11:44:37.222Z</time>
      </trkpt>
      <trkpt lat="45.83329" lon="4.70879">
        <ele>301.1283</ele>
        <time>2023-05-14T11:44:39.000Z</time>
      </trkpt>
      <trkpt lat="45.83329" lon="4.70874">
        <ele>301.21646</ele>
        <time>2023-05-14T11:44:40.000Z</time>
      </trkpt>
      <trkpt lat="45.83329" lon="4.70869">
        <ele>301.27124</ele>
        <time>2023-05-14T11:44:41.000Z</time>
      </trkpt>
      <trkpt lat="45.83329" lon="4.70864">
        <ele>301.36795</ele>
        <time>2023-05-14T11:44:42.000Z</time>
      </trkpt>
      <trkpt lat="45.83329" lon="4.7086">
        <ele>301.48904</ele>
        <time>2023-05-14T11:44:43.000Z</time>
      </trkpt>
      <trkpt lat="45.83329" lon="4.70855">
        <ele>301.82834</ele>
        <time>2023-05-14T11:44:44.000Z</time>
      </trkpt>
      <trkpt lat="45.83329" lon="4.70851">
        <ele>302.18433</ele>
        <time>2023-05-14T11:44:45.000Z</time>
      </trkpt>
      <trkpt lat="45.83329" lon="4.70846">
        <ele>302.50607</ele>
        <time>2023-05-14T11:44:46.000Z</time>
      </trkpt>
      <trkpt lat="45.8333" lon="4.70842">
        <ele>302.70471</ele>
        <time>2023-05-14T11:44:47.000Z</time>
      </trkpt>
      <trkpt lat="45.8333" lon="4.70838">
        <ele>302.82126</ele>
        <time>2023-05-14T11:44:48.000Z</time>
      </trkpt>
      <trkpt lat="45.8333" lon="4.70834">
        <ele>304.72211</ele>
        <time>2023-05-14T11:44:49.000Z</time>
      </trkpt>
      <trkpt lat="45.83331" lon="4.70831">
        <ele>306.56775</ele>
        <time>2023-05-14T11:44:50.000Z</time>
      </trkpt>
      <trkpt lat="45.83331" lon="4.70826">
        <ele>308.1232</ele>
        <time>2023-05-14T11:44:51.000Z</time>
      </trkpt>
      <trkpt lat="45.83331" lon="4.70822">
        <ele>309.43979</ele>
        <time>2023-05-14T11:44:52.000Z</time>
      </trkpt>
      <trkpt lat="45.83332" lon="4.70818">
        <ele>310.49094</ele>
        <time>2023-05-14T11:44:53.000Z</time>
      </trkpt>
      <trkpt lat="45.83332" lon="4.70815">
        <ele>311.43774</ele>
        <time>2023-05-14T11:44:54.000Z</time>
      </trkpt>
      <trkpt lat="45.83332" lon="4.70811">
        <ele>312.26816</ele>
        <time>2023-05-14T11:44:55.000Z</time>
      </trkpt>
      <trkpt lat="45.83333" lon="4.70806">
        <ele>312.95288</ele>
        <time>2023-05-14T11:44:56.000Z</time>
      </trkpt>
      <trkpt lat="45.83332" lon="4.70801">
        <ele>313.65009</ele>
        <time>2023-05-14T11:44:57.000Z</time>
      </trkpt>
      <trkpt lat="45.83332" lon="4.70796">
        <ele>313.75043</ele>
        <time>2023-05-14T11:44:58.000Z</time>
      </trkpt>
      <trkpt lat="45.83333" lon="4.70791">
        <ele>313.87152</ele>
        <time>2023-05-14T11:44:59.000Z</time>
      </trkpt>
      <trkpt lat="45.83333" lon="4.70786">
        <ele>313.96326</ele>
        <time>2023-05-14T11:45:00.000Z</time>
      </trkpt>
      <trkpt lat="45.83334" lon="4.70781">
        <ele>314.07281</ele>
        <time>2023-05-14T11:45:01.000Z</time>
      </trkpt>
      <trkpt lat="45.83334" lon="4.70776">
        <ele>314.25696</ele>
        <time>2023-05-14T11:45:02.000Z</time>
      </trkpt>
      <trkpt lat="45.83334" lon="4.70771">
        <ele>314.37784</ele>
        <time>2023-05-14T11:45:03.000Z</time>
      </trkpt>
      <trkpt lat="45.83334" lon="4.70766">
        <ele>314.42401</ele>
        <time>2023-05-14T11:45:04.000Z</time>
      </trkpt>
      <trkpt lat="45.83334" lon="4.70761">
        <ele>314.43991</ele>
        <time>2023-05-14T11:45:05.000Z</time>
      </trkpt>
      <trkpt lat="45.83334" lon="4.70756">
        <ele>314.44708</ele>
        <time>2023-05-14T11:45:06.000Z</time>
      </trkpt>
      <trkpt lat="45.83334" lon="4.7075">
        <ele>314.50812</ele>
        <time>2023-05-14T11:45:07.000Z</time>
      </trkpt>
      <trkpt lat="45.83334" lon="4.70745">
        <ele>314.60175</ele>
        <time>2023-05-14T11:45:08.000Z</time>
      </trkpt>
      <trkpt lat="45.83335" lon="4.70739">
        <ele>313.62341</ele>
        <time>2023-05-14T11:45:09.000Z</time>
      </trkpt>
      <trkpt lat="45.83335" lon="4.70734">
        <ele>312.44891</ele>
        <time>2023-05-14T11:45:10.000Z</time>
      </trkpt>
      <trkpt lat="45.83335" lon="4.70729">
        <ele>311.28928</ele>
        <time>2023-05-14T11:45:11.000Z</time>
      </trkpt>
      <trkpt lat="45.83335" lon="4.70724">
        <ele>310.16708</ele>
        <time>2023-05-14T11:45:12.000Z</time>
      </trkpt>
      <trkpt lat="45.83335" lon="4.70719">
        <ele>309.11694</ele>
        <time>2023-05-14T11:45:13.000Z</time>
      </trkpt>
      <trkpt lat="45.83336" lon="4.70714">
        <ele>308.05496</ele>
        <time>2023-05-14T11:45:14.000Z</time>
      </trkpt>
      <trkpt lat="45.83336" lon="4.70709">
        <ele>306.9989</ele>
        <time>2023-05-14T11:45:15.000Z</time>
      </trkpt>
      <trkpt lat="45.83336" lon="4.70703">
        <ele>306.04367</ele>
        <time>2023-05-14T11:45:16.000Z</time>
      </trkpt>
      <trkpt lat="45.83337" lon="4.70697">
        <ele>305.00616</ele>
        <time>2023-05-14T11:45:17.000Z</time>
      </trkpt>
      <trkpt lat="45.83337" lon="4.70691">
        <ele>305.16412</ele>
        <time>2023-05-14T11:45:18.000Z</time>
      </trkpt>
      <trkpt lat="45.83338" lon="4.70685">
        <ele>305.07263</ele>
        <time>2023-05-14T11:45:19.000Z</time>
      </trkpt>
      <trkpt lat="45.83339" lon="4.70677">
        <ele>304.96063</ele>
        <time>2023-05-14T11:45:20.000Z</time>
      </trkpt>
      <trkpt lat="45.8334" lon="4.7067">
        <ele>304.84552</ele>
        <time>2023-05-14T11:45:21.000Z</time>
      </trkpt>
      <trkpt lat="45.83341" lon="4.70663">
        <ele>304.63971</ele>
        <time>2023-05-14T11:45:22.000Z</time>
      </trkpt>
      <trkpt lat="45.83341" lon="4.70655">
        <ele>304.47601</ele>
        <time>2023-05-14T11:45:23.000Z</time>
      </trkpt>
      <trkpt lat="45.83342" lon="4.70646">
        <ele>304.31155</ele>
        <time>2023-05-14T11:45:24.000Z</time>
      </trkpt>
      <trkpt lat="45.83342" lon="4.70637">
        <ele>304.13553</ele>
        <time>2023-05-14T11:45:25.000Z</time>
      </trkpt>
      <trkpt lat="45.83344" lon="4.70629">
        <ele>303.92502</ele>
        <time>2023-05-14T11:45:26.000Z</time>
      </trkpt>
      <trkpt lat="45.83345" lon="4.70621">
        <ele>304.0481</ele>
        <time>2023-05-14T11:45:27.000Z</time>
      </trkpt>
      <trkpt lat="45.83344" lon="4.70612">
        <ele>304.18143</ele>
        <time>2023-05-14T11:45:28.000Z</time>
      </trkpt>
      <trkpt lat="45.83344" lon="4.70603">
        <ele>304.31104</ele>
        <time>2023-05-14T11:45:29.000Z</time>
      </trkpt>
      <trkpt lat="45.83342" lon="4.70595">
        <ele>304.48431</ele>
        <time>2023-05-14T11:45:30.000Z</time>
      </trkpt>
      <trkpt lat="45.83342" lon="4.70586">
        <ele>304.66895</ele>
        <time>2023-05-14T11:45:31.000Z</time>
      </trkpt>
      <trkpt lat="45.83341" lon="4.70578">
        <ele>304.81146</ele>
        <time>2023-05-14T11:45:32.000Z</time>
      </trkpt>
      <trkpt lat="45.8334" lon="4.7057">
        <ele>304.9725</ele>
        <time>2023-05-14T11:45:33.000Z</time>
      </trkpt>
      <trkpt lat="45.83339" lon="4.70562">
        <ele>305.13287</ele>
        <time>2023-05-14T11:45:34.000Z</time>
      </trkpt>
      <trkpt lat="45.83338" lon="4.70553">
        <ele>305.29028</ele>
        <time>2023-05-14T11:45:35.000Z</time>
      </trkpt>
      <trkpt lat="45.83338" lon="4.70545">
        <ele>305.41534</ele>
        <time>2023-05-14T11:45:36.000Z</time>
      </trkpt>
      <trkpt lat="45.83338" lon="4.70536">
        <ele>305.55072</ele>
        <time>2023-05-14T11:45:37.000Z</time>
      </trkpt>
      <trkpt lat="45.83337" lon="4.70528">
        <ele>305.66229</ele>
        <time>2023-05-14T11:45:38.000Z</time>
      </trkpt>
      <trkpt lat="45.83337" lon="4.7052">
        <ele>306.00784</ele>
        <time>2023-05-14T11:45:39.000Z</time>
      </trkpt>
      <trkpt lat="45.83336" lon="4.70511">
        <ele>306.36761</ele>
        <time>2023-05-14T11:45:40.000Z</time>
      </trkpt>
      <trkpt lat="45.83335" lon="4.70502">
        <ele>306.69308</ele>
        <time>2023-05-14T11:45:41.000Z</time>
      </trkpt>
      <trkpt lat="45.83336" lon="4.70496">
        <ele>307.00742</ele>
        <time>2023-05-14T11:45:42.000Z</time>
      </trkpt>
      <trkpt lat="45.83334" lon="4.70488">
        <ele>307.32593</ele>
        <time>2023-05-14T11:45:43.000Z</time>
      </trkpt>
      <trkpt lat="45.83333" lon="4.70481">
        <ele>307.63101</ele>
        <time>2023-05-14T11:45:44.000Z</time>
      </trkpt>
      <trkpt lat="45.83332" lon="4.70473">
        <ele>307.9538</ele>
        <time>2023-05-14T11:45:45.000Z</time>
      </trkpt>
      <trkpt lat="45.83331" lon="4.70465">
        <ele>308.26172</ele>
        <time>2023-05-14T11:45:46.000Z</time>
      </trkpt>
      <trkpt lat="45.83329" lon="4.70457">
        <ele>308.19855</ele>
        <time>2023-05-14T11:45:47.000Z</time>
      </trkpt>
      <trkpt lat="45.83329" lon="4.70449">
        <ele>308.11411</ele>
        <time>2023-05-14T11:45:48.000Z</time>
      </trkpt>
      <trkpt lat="45.83329" lon="4.7044">
        <ele>308.01257</ele>
        <time>2023-05-14T11:45:49.000Z</time>
      </trkpt>
      <trkpt lat="45.83327" lon="4.70431">
        <ele>307.91904</ele>
        <time>2023-05-14T11:45:50.000Z</time>
      </trkpt>
      <trkpt lat="45.83326" lon="4.70422">
        <ele>307.8465</ele>
        <time>2023-05-14T11:45:51.000Z</time>
      </trkpt>
      <trkpt lat="45.83326" lon="4.70414">
        <ele>307.7836</ele>
        <time>2023-05-14T11:45:52.000Z</time>
      </trkpt>
      <trkpt lat="45.83325" lon="4.70405">
        <ele>307.70685</ele>
        <time>2023-05-14T11:45:53.000Z</time>
      </trkpt>
      <trkpt lat="45.83324" lon="4.70396">
        <ele>307.62906</ele>
        <time>2023-05-14T11:45:54.000Z</time>
      </trkpt>
      <trkpt lat="45.83324" lon="4.70388">
        <ele>307.55835</ele>
        <time>2023-05-14T11:45:55.000Z</time>
      </trkpt>
      <trkpt lat="45.83322" lon="4.70381">
        <ele>307.47482</ele>
        <time>2023-05-14T11:45:56.000Z</time>
      </trkpt>
      <trkpt lat="45.83321" lon="4.70374">
        <ele>307.37808</ele>
        <time>2023-05-14T11:45:57.000Z</time>
      </trkpt>
      <trkpt lat="45.8332" lon="4.70365">
        <ele>307.285</ele>
        <time>2023-05-14T11:45:58.000Z</time>
      </trkpt>
      <trkpt lat="45.83319" lon="4.70357">
        <ele>306.73233</ele>
        <time>2023-05-14T11:45:59.000Z</time>
      </trkpt>
      <trkpt lat="45.83318" lon="4.70349">
        <ele>306.22614</ele>
        <time>2023-05-14T11:46:00.000Z</time>
      </trkpt>
      <trkpt lat="45.83317" lon="4.7034">
        <ele>305.71405</ele>
        <time>2023-05-14T11:46:01.000Z</time>
      </trkpt>
      <trkpt lat="45.83317" lon="4.70332">
        <ele>305.18719</ele>
        <time>2023-05-14T11:46:02.000Z</time>
      </trkpt>
      <trkpt lat="45.83317" lon="4.70322">
        <ele>304.65839</ele>
        <time>2023-05-14T11:46:03.000Z</time>
      </trkpt>
      <trkpt lat="45.83318" lon="4.70314">
        <ele>304.14856</ele>
        <time>2023-05-14T11:46:04.000Z</time>
      </trkpt>
      <trkpt lat="45.83319" lon="4.70305">
        <ele>303.67465</ele>
        <time>2023-05-14T11:46:05.000Z</time>
      </trkpt>
      <trkpt lat="45.83321" lon="4.70297">
        <ele>303.24811</ele>
        <time>2023-05-14T11:46:06.000Z</time>
      </trkpt>
      <trkpt lat="45.83324" lon="4.70289">
        <ele>302.8638</ele>
        <time>2023-05-14T11:46:07.000Z</time>
      </trkpt>
      <trkpt lat="45.83326" lon="4.70281">
        <ele>302.4841</ele>
        <time>2023-05-14T11:46:08.000Z</time>
      </trkpt>
      <trkpt lat="45.83329" lon="4.70274">
        <ele>302.15591</ele>
        <time>2023-05-14T11:46:09.000Z</time>
      </trkpt>
      <trkpt lat="45.83331" lon="4.70266">
        <ele>301.83563</ele>
        <time>2023-05-14T11:46:10.000Z</time>
      </trkpt>
      <trkpt lat="45.83334" lon="4.70259">
        <ele>301.50369</ele>
        <time>2023-05-14T11:46:11.000Z</time>
      </trkpt>
      <trkpt lat="45.83337" lon="4.70251">
        <ele>301.19531</ele>
        <time>2023-05-14T11:46:12.000Z</time>
      </trkpt>
      <trkpt lat="45.8334" lon="4.70243">
        <ele>300.9046</ele>
        <time>2023-05-14T11:46:13.000Z</time>
      </trkpt>
      <trkpt lat="45.83344" lon="4.70236">
        <ele>300.56302</ele>
        <time>2023-05-14T11:46:14.000Z</time>
      </trkpt>
      <trkpt lat="45.83347" lon="4.70229">
        <ele>300.25079</ele>
        <time>2023-05-14T11:46:15.000Z</time>
      </trkpt>
      <trkpt lat="45.8335" lon="4.70221">
        <ele>299.92276</ele>
        <time>2023-05-14T11:46:16.000Z</time>
      </trkpt>
      <trkpt lat="45.83353" lon="4.70213">
        <ele>299.58911</ele>
        <time>2023-05-14T11:46:17.000Z</time>
      </trkpt>
      <trkpt lat="45.83355" lon="4.70206">
        <ele>299.29303</ele>
        <time>2023-05-14T11:46:18.000Z</time>
      </trkpt>
      <trkpt lat="45.83357" lon="4.70197">
        <ele>299.45071</ele>
        <time>2023-05-14T11:46:19.000Z</time>
      </trkpt>
      <trkpt lat="45.8336" lon="4.70189">
        <ele>299.55795</ele>
        <time>2023-05-14T11:46:20.000Z</time>
      </trkpt>
      <trkpt lat="45.83363" lon="4.70181">
        <ele>299.68787</ele>
        <time>2023-05-14T11:46:21.000Z</time>
      </trkpt>
      <trkpt lat="45.83366" lon="4.70173">
        <ele>299.86359</ele>
        <time>2023-05-14T11:46:22.000Z</time>
      </trkpt>
      <trkpt lat="45.83368" lon="4.70166">
        <ele>300.06461</ele>
        <time>2023-05-14T11:46:23.000Z</time>
      </trkpt>
      <trkpt lat="45.83371" lon="4.70158">
        <ele>300.22864</ele>
        <time>2023-05-14T11:46:24.000Z</time>
      </trkpt>
      <trkpt lat="45.83373" lon="4.7015">
        <ele>300.29889</ele>
        <time>2023-05-14T11:46:25.000Z</time>
      </trkpt>
      <trkpt lat="45.83376" lon="4.70142">
        <ele>300.34824</ele>
        <time>2023-05-14T11:46:26.000Z</time>
      </trkpt>
      <trkpt lat="45.83378" lon="4.70134">
        <ele>300.37589</ele>
        <time>2023-05-14T11:46:27.000Z</time>
      </trkpt>
      <trkpt lat="45.8338" lon="4.70125">
        <ele>300.39908</ele>
        <time>2023-05-14T11:46:28.000Z</time>
      </trkpt>
      <trkpt lat="45.83381" lon="4.70117">
        <ele>300.39655</ele>
        <time>2023-05-14T11:46:29.000Z</time>
      </trkpt>
      <trkpt lat="45.83381" lon="4.70108">
        <ele>300.3634</ele>
        <time>2023-05-14T11:46:30.000Z</time>
      </trkpt>
      <trkpt lat="45.83382" lon="4.70099">
        <ele>300.30771</ele>
        <time>2023-05-14T11:46:31.000Z</time>
      </trkpt>
      <trkpt lat="45.83383" lon="4.7009">
        <ele>300.18881</ele>
        <time>2023-05-14T11:46:32.000Z</time>
      </trkpt>
      <trkpt lat="45.83385" lon="4.7008">
        <ele>300.04889</ele>
        <time>2023-05-14T11:46:33.000Z</time>
      </trkpt>
      <trkpt lat="45.83386" lon="4.7007">
        <ele>299.95541</ele>
        <time>2023-05-14T11:46:34.000Z</time>
      </trkpt>
      <trkpt lat="45.83387" lon="4.7006">
        <ele>299.83951</ele>
        <time>2023-05-14T11:46:35.000Z</time>
      </trkpt>
      <trkpt lat="45.83387" lon="4.7005">
        <ele>299.76331</ele>
        <time>2023-05-14T11:46:36.000Z</time>
      </trkpt>
      <trkpt lat="45.83387" lon="4.7004">
        <ele>299.70212</ele>
        <time>2023-05-14T11:46:37.000Z</time>
      </trkpt>
      <trkpt lat="45.83388" lon="4.7003">
        <ele>299.62344</ele>
        <time>2023-05-14T11:46:38.000Z</time>
      </trkpt>
      <trkpt lat="45.8339" lon="4.70019">
        <ele>299.53802</ele>
        <time>2023-05-14T11:46:39.000Z</time>
      </trkpt>
      <trkpt lat="45.8339" lon="4.70008">
        <ele>299.47687</ele>
        <time>2023-05-14T11:46:40.000Z</time>
      </trkpt>
      <trkpt lat="45.83391" lon="4.69998">
        <ele>299.35785</ele>
        <time>2023-05-14T11:46:41.000Z</time>
      </trkpt>
      <trkpt lat="45.83393" lon="4.69988">
        <ele>299.15433</ele>
        <time>2023-05-14T11:46:42.000Z</time>
      </trkpt>
      <trkpt lat="45.83394" lon="4.69977">
        <ele>299.28668</ele>
        <time>2023-05-14T11:46:43.000Z</time>
      </trkpt>
      <trkpt lat="45.83395" lon="4.69966">
        <ele>299.41867</ele>
        <time>2023-05-14T11:46:44.000Z</time>
      </trkpt>
      <trkpt lat="45.83396" lon="4.69956">
        <ele>299.5954</ele>
        <time>2023-05-14T11:46:45.000Z</time>
      </trkpt>
      <trkpt lat="45.83398" lon="4.69946">
        <ele>299.4328</ele>
        <time>2023-05-14T11:46:46.000Z</time>
      </trkpt>
      <trkpt lat="45.83398" lon="4.69935">
        <ele>299.25027</ele>
        <time>2023-05-14T11:46:47.000Z</time>
      </trkpt>
      <trkpt lat="45.83396" lon="4.69925">
        <ele>299.12604</ele>
        <time>2023-05-14T11:46:48.000Z</time>
      </trkpt>
      <trkpt lat="45.83393" lon="4.69916">
        <ele>298.99106</ele>
        <time>2023-05-14T11:46:49.000Z</time>
      </trkpt>
      <trkpt lat="45.8339" lon="4.6991">
        <ele>298.86954</ele>
        <time>2023-05-14T11:46:50.000Z</time>
      </trkpt>
      <trkpt lat="45.83387" lon="4.69903">
        <ele>298.75247</ele>
        <time>2023-05-14T11:46:51.000Z</time>
      </trkpt>
      <trkpt lat="45.83384" lon="4.69897">
        <ele>298.66302</ele>
        <time>2023-05-14T11:46:52.000Z</time>
      </trkpt>
      <trkpt lat="45.83384" lon="4.69889">
        <ele>298.58578</ele>
        <time>2023-05-14T11:46:53.000Z</time>
      </trkpt>
      <trkpt lat="45.83384" lon="4.69882">
        <ele>298.51691</ele>
        <time>2023-05-14T11:46:54.000Z</time>
      </trkpt>
      <trkpt lat="45.83384" lon="4.69876">
        <ele>298.43561</ele>
        <time>2023-05-14T11:46:55.000Z</time>
      </trkpt>
      <trkpt lat="45.83385" lon="4.69871">
        <ele>298.31842</ele>
        <time>2023-05-14T11:46:56.000Z</time>
      </trkpt>
      <trkpt lat="45.83386" lon="4.69868">
        <ele>298.20273</ele>
        <time>2023-05-14T11:46:57.000Z</time>
      </trkpt>
      <trkpt lat="45.83388" lon="4.69868">
        <ele>298.05157</ele>
        <time>2023-05-14T11:46:59.000Z</time>
      </trkpt>
      <trkpt lat="45.83387" lon="4.69871">
        <ele>297.93842</ele>
        <time>2023-05-14T11:47:01.000Z</time>
      </trkpt>
      <trkpt lat="45.83385" lon="4.69871">
        <ele>297.8299</ele>
        <time>2023-05-14T11:47:02.000Z</time>
      </trkpt>
      <trkpt lat="45.83384" lon="4.69867">
        <ele>297.76669</ele>
        <time>2023-05-14T11:47:04.000Z</time>
      </trkpt>
      <trkpt lat="45.83385" lon="4.69864">
        <ele>297.78772</ele>
        <time>2023-05-14T11:47:05.000Z</time>
      </trkpt>
      <trkpt lat="45.83387" lon="4.6986">
        <ele>297.43719</ele>
        <time>2023-05-14T11:47:06.000Z</time>
      </trkpt>
      <trkpt lat="45.83388" lon="4.69854">
        <ele>297.09427</ele>
        <time>2023-05-14T11:47:07.000Z</time>
      </trkpt>
      <trkpt lat="45.83387" lon="4.69848">
        <ele>296.7215</ele>
        <time>2023-05-14T11:47:08.000Z</time>
      </trkpt>
      <trkpt lat="45.83386" lon="4.69841">
        <ele>296.69281</ele>
        <time>2023-05-14T11:47:09.000Z</time>
      </trkpt>
      <trkpt lat="45.83384" lon="4.69834">
        <ele>296.67908</ele>
        <time>2023-05-14T11:47:10.000Z</time>
      </trkpt>
      <trkpt lat="45.83383" lon="4.69827">
        <ele>296.56119</ele>
        <time>2023-05-14T11:47:11.000Z</time>
      </trkpt>
      <trkpt lat="45.83382" lon="4.69819">
        <ele>296.51569</ele>
        <time>2023-05-14T11:47:12.000Z</time>
      </trkpt>
      <trkpt lat="45.8338" lon="4.69812">
        <ele>296.47211</ele>
        <time>2023-05-14T11:47:13.000Z</time>
      </trkpt>
      <trkpt lat="45.83378" lon="4.69805">
        <ele>296.43658</ele>
        <time>2023-05-14T11:47:14.000Z</time>
      </trkpt>
      <trkpt lat="45.83377" lon="4.69798">
        <ele>296.43286</ele>
        <time>2023-05-14T11:47:15.000Z</time>
      </trkpt>
      <trkpt lat="45.83375" lon="4.6979">
        <ele>296.41595</ele>
        <time>2023-05-14T11:47:16.000Z</time>
      </trkpt>
      <trkpt lat="45.83374" lon="4.69784">
        <ele>296.39667</ele>
        <time>2023-05-14T11:47:17.000Z</time>
      </trkpt>
      <trkpt lat="45.83372" lon="4.69777">
        <ele>296.38086</ele>
        <time>2023-05-14T11:47:18.000Z</time>
      </trkpt>
      <trkpt lat="45.83371" lon="4.6977">
        <ele>296.35638</ele>
        <time>2023-05-14T11:47:19.000Z</time>
      </trkpt>
      <trkpt lat="45.8337" lon="4.69763">
        <ele>296.332</ele>
        <time>2023-05-14T11:47:20.000Z</time>
      </trkpt>
      <trkpt lat="45.83368" lon="4.69756">
        <ele>296.3139</ele>
        <time>2023-05-14T11:47:21.000Z</time>
      </trkpt>
      <trkpt lat="45.83367" lon="4.69749">
        <ele>296.25714</ele>
        <time>2023-05-14T11:47:22.000Z</time>
      </trkpt>
      <trkpt lat="45.83365" lon="4.69742">
        <ele>296.2016</ele>
        <time>2023-05-14T11:47:23.000Z</time>
      </trkpt>
      <trkpt lat="45.83364" lon="4.69735">
        <ele>296.15015</ele>
        <time>2023-05-14T11:47:24.000Z</time>
      </trkpt>
      <trkpt lat="45.83363" lon="4.69729">
        <ele>296.07016</ele>
        <time>2023-05-14T11:47:25.000Z</time>
      </trkpt>
      <trkpt lat="45.83361" lon="4.69722">
        <ele>295.99017</ele>
        <time>2023-05-14T11:47:26.000Z</time>
      </trkpt>
      <trkpt lat="45.8336" lon="4.69714">
        <ele>295.92587</ele>
        <time>2023-05-14T11:47:27.000Z</time>
      </trkpt>
      <trkpt lat="45.83359" lon="4.69708">
        <ele>295.86194</ele>
        <time>2023-05-14T11:47:28.000Z</time>
      </trkpt>
      <trkpt lat="45.83358" lon="4.69701">
        <ele>295.793</ele>
        <time>2023-05-14T11:47:29.000Z</time>
      </trkpt>
      <trkpt lat="45.83356" lon="4.69694">
        <ele>295.72162</ele>
        <time>2023-05-14T11:47:30.000Z</time>
      </trkpt>
      <trkpt lat="45.83355" lon="4.69687">
        <ele>295.72083</ele>
        <time>2023-05-14T11:47:31.000Z</time>
      </trkpt>
      <trkpt lat="45.83353" lon="4.6968">
        <ele>295.64221</ele>
        <time>2023-05-14T11:47:32.000Z</time>
      </trkpt>
      <trkpt lat="45.83352" lon="4.69673">
        <ele>295.54877</ele>
        <time>2023-05-14T11:47:33.000Z</time>
      </trkpt>
      <trkpt lat="45.83351" lon="4.69666">
        <ele>295.44785</ele>
        <time>2023-05-14T11:47:34.000Z</time>
      </trkpt>
      <trkpt lat="45.8335" lon="4.69659">
        <ele>295.34674</ele>
        <time>2023-05-14T11:47:35.000Z</time>
      </trkpt>
      <trkpt lat="45.83348" lon="4.69652">
        <ele>295.27643</ele>
        <time>2023-05-14T11:47:36.000Z</time>
      </trkpt>
      <trkpt lat="45.83347" lon="4.69645">
        <ele>295.21341</ele>
        <time>2023-05-14T11:47:37.000Z</time>
      </trkpt>
      <trkpt lat="45.83346" lon="4.69638">
        <ele>295.15796</ele>
        <time>2023-05-14T11:47:38.000Z</time>
      </trkpt>
      <trkpt lat="45.83345" lon="4.69631">
        <ele>295.10532</ele>
        <time>2023-05-14T11:47:39.000Z</time>
      </trkpt>
      <trkpt lat="45.83344" lon="4.69624">
        <ele>295.06097</ele>
        <time>2023-05-14T11:47:40.000Z</time>
      </trkpt>
      <trkpt lat="45.83342" lon="4.69617">
        <ele>295.03455</ele>
        <time>2023-05-14T11:47:41.000Z</time>
      </trkpt>
      <trkpt lat="45.83341" lon="4.69611">
        <ele>295.03137</ele>
        <time>2023-05-14T11:47:42.000Z</time>
      </trkpt>
      <trkpt lat="45.8334" lon="4.69604">
        <ele>294.99426</ele>
        <time>2023-05-14T11:47:43.000Z</time>
      </trkpt>
      <trkpt lat="45.83339" lon="4.69598">
        <ele>294.96582</ele>
        <time>2023-05-14T11:47:44.000Z</time>
      </trkpt>
      <trkpt lat="45.83338" lon="4.69591">
        <ele>294.94623</ele>
        <time>2023-05-14T11:47:45.000Z</time>
      </trkpt>
      <trkpt lat="45.83337" lon="4.69585">
        <ele>294.95734</ele>
        <time>2023-05-14T11:47:46.000Z</time>
      </trkpt>
      <trkpt lat="45.83336" lon="4.69579">
        <ele>294.94882</ele>
        <time>2023-05-14T11:47:47.000Z</time>
      </trkpt>
      <trkpt lat="45.83336" lon="4.69572">
        <ele>294.96179</ele>
        <time>2023-05-14T11:47:48.000Z</time>
      </trkpt>
      <trkpt lat="45.83335" lon="4.69566">
        <ele>294.97894</ele>
        <time>2023-05-14T11:47:49.000Z</time>
      </trkpt>
      <trkpt lat="45.83333" lon="4.69559">
        <ele>294.99246</ele>
        <time>2023-05-14T11:47:50.000Z</time>
      </trkpt>
      <trkpt lat="45.83332" lon="4.69552">
        <ele>294.98932</ele>
        <time>2023-05-14T11:47:51.000Z</time>
      </trkpt>
      <trkpt lat="45.83331" lon="4.69545">
        <ele>294.96564</ele>
        <time>2023-05-14T11:47:52.000Z</time>
      </trkpt>
      <trkpt lat="45.8333" lon="4.69538">
        <ele>294.96014</ele>
        <time>2023-05-14T11:47:53.000Z</time>
      </trkpt>
      <trkpt lat="45.83329" lon="4.69531">
        <ele>294.94345</ele>
        <time>2023-05-14T11:47:54.000Z</time>
      </trkpt>
      <trkpt lat="45.83329" lon="4.69524">
        <ele>294.92734</ele>
        <time>2023-05-14T11:47:55.000Z</time>
      </trkpt>
      <trkpt lat="45.83329" lon="4.69517">
        <ele>294.88828</ele>
        <time>2023-05-14T11:47:56.000Z</time>
      </trkpt>
      <trkpt lat="45.83328" lon="4.69509">
        <ele>294.84644</ele>
        <time>2023-05-14T11:47:57.000Z</time>
      </trkpt>
      <trkpt lat="45.83328" lon="4.69502">
        <ele>294.81464</ele>
        <time>2023-05-14T11:47:58.000Z</time>
      </trkpt>
      <trkpt lat="45.83327" lon="4.69495">
        <ele>294.8129</ele>
        <time>2023-05-14T11:47:59.000Z</time>
      </trkpt>
      <trkpt lat="45.83327" lon="4.69488">
        <ele>294.81036</ele>
        <time>2023-05-14T11:48:00.000Z</time>
      </trkpt>
      <trkpt lat="45.83327" lon="4.69482">
        <ele>294.81082</ele>
        <time>2023-05-14T11:48:01.000Z</time>
      </trkpt>
      <trkpt lat="45.83327" lon="4.69475">
        <ele>294.80493</ele>
        <time>2023-05-14T11:48:02.000Z</time>
      </trkpt>
      <trkpt lat="45.83327" lon="4.69467">
        <ele>294.82062</ele>
        <time>2023-05-14T11:48:03.000Z</time>
      </trkpt>
      <trkpt lat="45.83327" lon="4.6946">
        <ele>294.84119</ele>
        <time>2023-05-14T11:48:04.000Z</time>
      </trkpt>
      <trkpt lat="45.83328" lon="4.69453">
        <ele>294.87527</ele>
        <time>2023-05-14T11:48:05.000Z</time>
      </trkpt>
      <trkpt lat="45.83329" lon="4.69446">
        <ele>294.89526</ele>
        <time>2023-05-14T11:48:06.000Z</time>
      </trkpt>
      <trkpt lat="45.8333" lon="4.69439">
        <ele>294.89728</ele>
        <time>2023-05-14T11:48:07.000Z</time>
      </trkpt>
      <trkpt lat="45.83331" lon="4.69433">
        <ele>294.86139</ele>
        <time>2023-05-14T11:48:08.000Z</time>
      </trkpt>
      <trkpt lat="45.83332" lon="4.69426">
        <ele>294.92313</ele>
        <time>2023-05-14T11:48:09.000Z</time>
      </trkpt>
      <trkpt lat="45.83333" lon="4.69419">
        <ele>294.98074</ele>
        <time>2023-05-14T11:48:10.000Z</time>
      </trkpt>
      <trkpt lat="45.83335" lon="4.69412">
        <ele>295.04184</ele>
        <time>2023-05-14T11:48:11.000Z</time>
      </trkpt>
      <trkpt lat="45.83335" lon="4.69406">
        <ele>295.11896</ele>
        <time>2023-05-14T11:48:12.000Z</time>
      </trkpt>
      <trkpt lat="45.83336" lon="4.69399">
        <ele>295.20245</ele>
        <time>2023-05-14T11:48:13.000Z</time>
      </trkpt>
      <trkpt lat="45.83337" lon="4.69392">
        <ele>295.30621</ele>
        <time>2023-05-14T11:48:14.000Z</time>
      </trkpt>
      <trkpt lat="45.83338" lon="4.69384">
        <ele>295.42233</ele>
        <time>2023-05-14T11:48:15.000Z</time>
      </trkpt>
      <trkpt lat="45.83339" lon="4.69377">
        <ele>295.54523</ele>
        <time>2023-05-14T11:48:16.000Z</time>
      </trkpt>
      <trkpt lat="45.8334" lon="4.69369">
        <ele>295.66745</ele>
        <time>2023-05-14T11:48:17.000Z</time>
      </trkpt>
      <trkpt lat="45.83341" lon="4.69362">
        <ele>295.77051</ele>
        <time>2023-05-14T11:48:18.000Z</time>
      </trkpt>
      <trkpt lat="45.83342" lon="4.69355">
        <ele>295.86249</ele>
        <time>2023-05-14T11:48:19.000Z</time>
      </trkpt>
      <trkpt lat="45.83342" lon="4.69348">
        <ele>295.94421</ele>
        <time>2023-05-14T11:48:20.000Z</time>
      </trkpt>
      <trkpt lat="45.83342" lon="4.6934">
        <ele>296.02972</ele>
        <time>2023-05-14T11:48:21.000Z</time>
      </trkpt>
      <trkpt lat="45.83343" lon="4.69332">
        <ele>296.1001</ele>
        <time>2023-05-14T11:48:22.000Z</time>
      </trkpt>
      <trkpt lat="45.83343" lon="4.69325">
        <ele>296.18259</ele>
        <time>2023-05-14T11:48:23.000Z</time>
      </trkpt>
      <trkpt lat="45.83344" lon="4.69318">
        <ele>296.22244</ele>
        <time>2023-05-14T11:48:24.000Z</time>
      </trkpt>
      <trkpt lat="45.83345" lon="4.69311">
        <ele>296.27274</ele>
        <time>2023-05-14T11:48:25.000Z</time>
      </trkpt>
      <trkpt lat="45.83345" lon="4.69304">
        <ele>296.32755</ele>
        <time>2023-05-14T11:48:26.000Z</time>
      </trkpt>
      <trkpt lat="45.83344" lon="4.69297">
        <ele>296.42108</ele>
        <time>2023-05-14T11:48:27.000Z</time>
      </trkpt>
      <trkpt lat="45.83345" lon="4.69291">
        <ele>296.51529</ele>
        <time>2023-05-14T11:48:28.000Z</time>
      </trkpt>
      <trkpt lat="45.83345" lon="4.69285">
        <ele>296.59033</ele>
        <time>2023-05-14T11:48:29.000Z</time>
      </trkpt>
      <trkpt lat="45.83346" lon="4.69278">
        <ele>296.62997</ele>
        <time>2023-05-14T11:48:30.000Z</time>
      </trkpt>
      <trkpt lat="45.83346" lon="4.69271">
        <ele>296.7392</ele>
        <time>2023-05-14T11:48:31.000Z</time>
      </trkpt>
      <trkpt lat="45.83347" lon="4.69264">
        <ele>296.84003</ele>
        <time>2023-05-14T11:48:32.000Z</time>
      </trkpt>
      <trkpt lat="45.83347" lon="4.69258">
        <ele>296.93604</ele>
        <time>2023-05-14T11:48:33.000Z</time>
      </trkpt>
      <trkpt lat="45.83348" lon="4.69251">
        <ele>297.03326</ele>
        <time>2023-05-14T11:48:34.000Z</time>
      </trkpt>
      <trkpt lat="45.8335" lon="4.69245">
        <ele>297.26093</ele>
        <time>2023-05-14T11:48:35.000Z</time>
      </trkpt>
      <trkpt lat="45.8335" lon="4.69237">
        <ele>297.46207</ele>
        <time>2023-05-14T11:48:36.000Z</time>
      </trkpt>
      <trkpt lat="45.8335" lon="4.69231">
        <ele>297.63663</ele>
        <time>2023-05-14T11:48:37.000Z</time>
      </trkpt>
      <trkpt lat="45.83351" lon="4.69224">
        <ele>297.84317</ele>
        <time>2023-05-14T11:48:38.000Z</time>
      </trkpt>
      <trkpt lat="45.83352" lon="4.69217">
        <ele>298.03052</ele>
        <time>2023-05-14T11:48:39.000Z</time>
      </trkpt>
      <trkpt lat="45.83353" lon="4.69209">
        <ele>298.20212</ele>
        <time>2023-05-14T11:48:40.000Z</time>
      </trkpt>
      <trkpt lat="45.83354" lon="4.69202">
        <ele>298.37784</ele>
        <time>2023-05-14T11:48:41.000Z</time>
      </trkpt>
      <trkpt lat="45.83354" lon="4.69193">
        <ele>298.59149</ele>
        <time>2023-05-14T11:48:42.000Z</time>
      </trkpt>
      <trkpt lat="45.83355" lon="4.69185">
        <ele>298.82394</ele>
        <time>2023-05-14T11:48:43.000Z</time>
      </trkpt>
      <trkpt lat="45.83356" lon="4.69177">
        <ele>299.06088</ele>
        <time>2023-05-14T11:48:44.000Z</time>
      </trkpt>
      <trkpt lat="45.83356" lon="4.69168">
        <ele>299.26385</ele>
        <time>2023-05-14T11:48:45.000Z</time>
      </trkpt>
      <trkpt lat="45.83356" lon="4.69159">
        <ele>299.45184</ele>
        <time>2023-05-14T11:48:46.000Z</time>
      </trkpt>
      <trkpt lat="45.83357" lon="4.6915">
        <ele>299.63843</ele>
        <time>2023-05-14T11:48:47.000Z</time>
      </trkpt>
      <trkpt lat="45.83358" lon="4.69142">
        <ele>299.87885</ele>
        <time>2023-05-14T11:48:48.000Z</time>
      </trkpt>
      <trkpt lat="45.83358" lon="4.69133">
        <ele>300.03665</ele>
        <time>2023-05-14T11:48:49.000Z</time>
      </trkpt>
      <trkpt lat="45.83358" lon="4.69124">
        <ele>300.25293</ele>
        <time>2023-05-14T11:48:50.000Z</time>
      </trkpt>
      <trkpt lat="45.8336" lon="4.69116">
        <ele>300.39453</ele>
        <time>2023-05-14T11:48:51.000Z</time>
      </trkpt>
      <trkpt lat="45.83361" lon="4.69106">
        <ele>300.54181</ele>
        <time>2023-05-14T11:48:52.000Z</time>
      </trkpt>
      <trkpt lat="45.83362" lon="4.69097">
        <ele>300.65918</ele>
        <time>2023-05-14T11:48:53.000Z</time>
      </trkpt>
      <trkpt lat="45.83363" lon="4.69088">
        <ele>300.76447</ele>
        <time>2023-05-14T11:48:54.000Z</time>
      </trkpt>
      <trkpt lat="45.83365" lon="4.69079">
        <ele>300.70905</ele>
        <time>2023-05-14T11:48:55.000Z</time>
      </trkpt>
      <trkpt lat="45.83367" lon="4.6907">
        <ele>300.6857</ele>
        <time>2023-05-14T11:48:56.000Z</time>
      </trkpt>
      <trkpt lat="45.8337" lon="4.69063">
        <ele>300.69217</ele>
        <time>2023-05-14T11:48:57.000Z</time>
      </trkpt>
      <trkpt lat="45.83373" lon="4.69054">
        <ele>300.7077</ele>
        <time>2023-05-14T11:48:58.000Z</time>
      </trkpt>
      <trkpt lat="45.83377" lon="4.69045">
        <ele>300.75827</ele>
        <time>2023-05-14T11:48:59.000Z</time>
      </trkpt>
      <trkpt lat="45.83382" lon="4.69037">
        <ele>300.7019</ele>
        <time>2023-05-14T11:49:00.000Z</time>
      </trkpt>
      <trkpt lat="45.83386" lon="4.69028">
        <ele>300.25848</ele>
        <time>2023-05-14T11:49:01.000Z</time>
      </trkpt>
      <trkpt lat="45.83391" lon="4.69018">
        <ele>299.7464</ele>
        <time>2023-05-14T11:49:02.000Z</time>
      </trkpt>
      <trkpt lat="45.83394" lon="4.69007">
        <ele>299.14334</ele>
        <time>2023-05-14T11:49:03.000Z</time>
      </trkpt>
      <trkpt lat="45.83397" lon="4.68994">
        <ele>298.55005</ele>
        <time>2023-05-14T11:49:04.000Z</time>
      </trkpt>
      <trkpt lat="45.834" lon="4.68982">
        <ele>297.94354</ele>
        <time>2023-05-14T11:49:05.000Z</time>
      </trkpt>
      <trkpt lat="45.83403" lon="4.6897">
        <ele>297.64288</ele>
        <time>2023-05-14T11:49:06.000Z</time>
      </trkpt>
      <trkpt lat="45.83407" lon="4.68957">
        <ele>297.31277</ele>
        <time>2023-05-14T11:49:07.000Z</time>
      </trkpt>
      <trkpt lat="45.8341" lon="4.68945">
        <ele>296.95157</ele>
        <time>2023-05-14T11:49:08.000Z</time>
      </trkpt>
      <trkpt lat="45.83413" lon="4.68936">
        <ele>296.62616</ele>
        <time>2023-05-14T11:49:09.000Z</time>
      </trkpt>
      <trkpt lat="45.83416" lon="4.68927">
        <ele>296.31073</ele>
        <time>2023-05-14T11:49:10.000Z</time>
      </trkpt>
      <trkpt lat="45.83416" lon="4.68918">
        <ele>295.47961</ele>
        <time>2023-05-14T11:49:11.000Z</time>
      </trkpt>
      <trkpt lat="45.83414" lon="4.68907">
        <ele>294.57947</ele>
        <time>2023-05-14T11:49:12.000Z</time>
      </trkpt>
      <trkpt lat="45.83412" lon="4.68898">
        <ele>293.70743</ele>
        <time>2023-05-14T11:49:13.000Z</time>
      </trkpt>
      <trkpt lat="45.83409" lon="4.68889">
        <ele>292.80438</ele>
        <time>2023-05-14T11:49:14.000Z</time>
      </trkpt>
      <trkpt lat="45.83407" lon="4.68878">
        <ele>291.91226</ele>
        <time>2023-05-14T11:49:15.000Z</time>
      </trkpt>
      <trkpt lat="45.83406" lon="4.68867">
        <ele>290.97308</ele>
        <time>2023-05-14T11:49:16.000Z</time>
      </trkpt>
      <trkpt lat="45.83404" lon="4.68857">
        <ele>289.99893</ele>
        <time>2023-05-14T11:49:17.000Z</time>
      </trkpt>
      <trkpt lat="45.83402" lon="4.68846">
        <ele>288.98801</ele>
        <time>2023-05-14T11:49:18.000Z</time>
      </trkpt>
      <trkpt lat="45.83398" lon="4.68838">
        <ele>287.94839</ele>
        <time>2023-05-14T11:49:19.000Z</time>
      </trkpt>
      <trkpt lat="45.83396" lon="4.6883">
        <ele>287.03687</ele>
        <time>2023-05-14T11:49:20.000Z</time>
      </trkpt>
      <trkpt lat="45.83394" lon="4.68822">
        <ele>286.5065</ele>
        <time>2023-05-14T11:49:21.000Z</time>
      </trkpt>
      <trkpt lat="45.83392" lon="4.68813">
        <ele>286.00659</ele>
        <time>2023-05-14T11:49:22.000Z</time>
      </trkpt>
      <trkpt lat="45.8339" lon="4.68805">
        <ele>285.58139</ele>
        <time>2023-05-14T11:49:23.000Z</time>
      </trkpt>
      <trkpt lat="45.83388" lon="4.68797">
        <ele>285.15985</ele>
        <time>2023-05-14T11:49:24.000Z</time>
      </trkpt>
      <trkpt lat="45.83386" lon="4.6879">
        <ele>284.76837</ele>
        <time>2023-05-14T11:49:25.000Z</time>
      </trkpt>
      <trkpt lat="45.83383" lon="4.68782">
        <ele>284.077</ele>
        <time>2023-05-14T11:49:26.000Z</time>
      </trkpt>
      <trkpt lat="45.83381" lon="4.68776">
        <ele>283.41949</ele>
        <time>2023-05-14T11:49:27.000Z</time>
      </trkpt>
      <trkpt lat="45.83378" lon="4.68769">
        <ele>282.78339</ele>
        <time>2023-05-14T11:49:28.000Z</time>
      </trkpt>
      <trkpt lat="45.83375" lon="4.68762">
        <ele>282.14798</ele>
        <time>2023-05-14T11:49:29.000Z</time>
      </trkpt>
      <trkpt lat="45.83372" lon="4.68757">
        <ele>281.47437</ele>
        <time>2023-05-14T11:49:30.000Z</time>
      </trkpt>
      <trkpt lat="45.83369" lon="4.68751">
        <ele>281.31256</ele>
        <time>2023-05-14T11:49:31.000Z</time>
      </trkpt>
      <trkpt lat="45.83367" lon="4.68745">
        <ele>281.22565</ele>
        <time>2023-05-14T11:49:32.000Z</time>
      </trkpt>
      <trkpt lat="45.83364" lon="4.68739">
        <ele>281.1337</ele>
        <time>2023-05-14T11:49:33.000Z</time>
      </trkpt>
      <trkpt lat="45.83361" lon="4.68733">
        <ele>281.07813</ele>
        <time>2023-05-14T11:49:34.000Z</time>
      </trkpt>
      <trkpt lat="45.83357" lon="4.68727">
        <ele>281.04971</ele>
        <time>2023-05-14T11:49:35.000Z</time>
      </trkpt>
      <trkpt lat="45.83355" lon="4.68721">
        <ele>281.04782</ele>
        <time>2023-05-14T11:49:36.000Z</time>
      </trkpt>
      <trkpt lat="45.83353" lon="4.68715">
        <ele>281.05783</ele>
        <time>2023-05-14T11:49:37.000Z</time>
      </trkpt>
      <trkpt lat="45.8335" lon="4.68709">
        <ele>281.07422</ele>
        <time>2023-05-14T11:49:38.000Z</time>
      </trkpt>
      <trkpt lat="45.83348" lon="4.68704">
        <ele>281.12335</ele>
        <time>2023-05-14T11:49:39.000Z</time>
      </trkpt>
      <trkpt lat="45.83345" lon="4.68699">
        <ele>281.16718</ele>
        <time>2023-05-14T11:49:40.000Z</time>
      </trkpt>
      <trkpt lat="45.83341" lon="4.68696">
        <ele>281.20554</ele>
        <time>2023-05-14T11:49:41.000Z</time>
      </trkpt>
      <trkpt lat="45.83338" lon="4.68692">
        <ele>281.21304</ele>
        <time>2023-05-14T11:49:42.000Z</time>
      </trkpt>
      <trkpt lat="45.83336" lon="4.68688">
        <ele>281.22089</ele>
        <time>2023-05-14T11:49:43.000Z</time>
      </trkpt>
      <trkpt lat="45.83335" lon="4.68683">
        <ele>281.23767</ele>
        <time>2023-05-14T11:49:44.000Z</time>
      </trkpt>
      <trkpt lat="45.83333" lon="4.68678">
        <ele>281.2352</ele>
        <time>2023-05-14T11:49:45.000Z</time>
      </trkpt>
      <trkpt lat="45.83331" lon="4.68673">
        <ele>281.26175</ele>
        <time>2023-05-14T11:49:46.000Z</time>
      </trkpt>
      <trkpt lat="45.8333" lon="4.68668">
        <ele>281.2738</ele>
        <time>2023-05-14T11:49:47.000Z</time>
      </trkpt>
      <trkpt lat="45.83328" lon="4.68663">
        <ele>281.2485</ele>
        <time>2023-05-14T11:49:48.000Z</time>
      </trkpt>
      <trkpt lat="45.83326" lon="4.68658">
        <ele>281.19077</ele>
        <time>2023-05-14T11:49:49.000Z</time>
      </trkpt>
      <trkpt lat="45.83324" lon="4.68653">
        <ele>281.16254</ele>
        <time>2023-05-14T11:49:50.000Z</time>
      </trkpt>
      <trkpt lat="45.83323" lon="4.68648">
        <ele>281.14453</ele>
        <time>2023-05-14T11:49:51.000Z</time>
      </trkpt>
      <trkpt lat="45.83322" lon="4.68644">
        <ele>281.14664</ele>
        <time>2023-05-14T11:49:52.000Z</time>
      </trkpt>
      <trkpt lat="45.83322" lon="4.6864">
        <ele>281.14667</ele>
        <time>2023-05-14T11:49:53.000Z</time>
      </trkpt>
      <trkpt lat="45.83322" lon="4.68637">
        <ele>281.57648</ele>
        <time>2023-05-14T11:49:54.000Z</time>
      </trkpt>
      <trkpt lat="45.83321" lon="4.68633">
        <ele>282.0752</ele>
        <time>2023-05-14T11:49:55.000Z</time>
      </trkpt>
      <trkpt lat="45.8332" lon="4.6863">
        <ele>282.39709</ele>
        <time>2023-05-14T11:49:56.000Z</time>
      </trkpt>
      <trkpt lat="45.83319" lon="4.68627">
        <ele>282.74368</ele>
        <time>2023-05-14T11:49:58.000Z</time>
      </trkpt>
      <trkpt lat="45.83316" lon="4.68625">
        <ele>283.15884</ele>
        <time>2023-05-14T11:50:00.000Z</time>
      </trkpt>
      <trkpt lat="45.83313" lon="4.68622">
        <ele>283.60449</ele>
        <time>2023-05-14T11:50:01.000Z</time>
      </trkpt>
      <trkpt lat="45.8331" lon="4.68617">
        <ele>284.10291</ele>
        <time>2023-05-14T11:50:02.000Z</time>
      </trkpt>
      <trkpt lat="45.83307" lon="4.6861">
        <ele>284.62653</ele>
        <time>2023-05-14T11:50:03.000Z</time>
      </trkpt>
      <trkpt lat="45.83304" lon="4.68605">
        <ele>285.20316</ele>
        <time>2023-05-14T11:50:04.000Z</time>
      </trkpt>
      <trkpt lat="45.83304" lon="4.68598">
        <ele>285.69727</ele>
        <time>2023-05-14T11:50:05.000Z</time>
      </trkpt>
      <trkpt lat="45.83305" lon="4.68592">
        <ele>286.12814</ele>
        <time>2023-05-14T11:50:06.000Z</time>
      </trkpt>
      <trkpt lat="45.83306" lon="4.68586">
        <ele>286.47357</ele>
        <time>2023-05-14T11:50:07.000Z</time>
      </trkpt>
      <trkpt lat="45.83307" lon="4.68579">
        <ele>286.66592</ele>
        <time>2023-05-14T11:50:08.000Z</time>
      </trkpt>
      <trkpt lat="45.83307" lon="4.68573">
        <ele>286.75909</ele>
        <time>2023-05-14T11:50:09.000Z</time>
      </trkpt>
      <trkpt lat="45.83307" lon="4.68567">
        <ele>286.83609</ele>
        <time>2023-05-14T11:50:10.000Z</time>
      </trkpt>
      <trkpt lat="45.83306" lon="4.68562">
        <ele>286.70346</ele>
        <time>2023-05-14T11:50:11.000Z</time>
      </trkpt>
      <trkpt lat="45.83305" lon="4.68557">
        <ele>286.50262</ele>
        <time>2023-05-14T11:50:12.000Z</time>
      </trkpt>
      <trkpt lat="45.83304" lon="4.68552">
        <ele>286.33359</ele>
        <time>2023-05-14T11:50:13.000Z</time>
      </trkpt>
      <trkpt lat="45.83303" lon="4.68547">
        <ele>286.16</ele>
        <time>2023-05-14T11:50:14.000Z</time>
      </trkpt>
      <trkpt lat="45.83301" lon="4.68544">
        <ele>285.99554</ele>
        <time>2023-05-14T11:50:15.000Z</time>
      </trkpt>
      <trkpt lat="45.83299" lon="4.6854">
        <ele>285.39041</ele>
        <time>2023-05-14T11:50:16.000Z</time>
      </trkpt>
      <trkpt lat="45.83297" lon="4.68537">
        <ele>284.72461</ele>
        <time>2023-05-14T11:50:17.000Z</time>
      </trkpt>
      <trkpt lat="45.83295" lon="4.68534">
        <ele>284.25412</ele>
        <time>2023-05-14T11:50:18.000Z</time>
      </trkpt>
      <trkpt lat="45.83293" lon="4.68531">
        <ele>283.7756</ele>
        <time>2023-05-14T11:50:19.000Z</time>
      </trkpt>
      <trkpt lat="45.83291" lon="4.68529">
        <ele>283.23907</ele>
        <time>2023-05-14T11:50:20.000Z</time>
      </trkpt>
      <trkpt lat="45.83289" lon="4.68526">
        <ele>282.66205</ele>
        <time>2023-05-14T11:50:21.000Z</time>
      </trkpt>
      <trkpt lat="45.83286" lon="4.68524">
        <ele>282.05023</ele>
        <time>2023-05-14T11:50:22.000Z</time>
      </trkpt>
      <trkpt lat="45.83284" lon="4.68522">
        <ele>281.42386</ele>
        <time>2023-05-14T11:50:23.000Z</time>
      </trkpt>
      <trkpt lat="45.83282" lon="4.6852">
        <ele>280.81851</ele>
        <time>2023-05-14T11:50:24.000Z</time>
      </trkpt>
      <trkpt lat="45.83279" lon="4.68517">
        <ele>280.30655</ele>
        <time>2023-05-14T11:50:25.000Z</time>
      </trkpt>
      <trkpt lat="45.83277" lon="4.68514">
        <ele>279.87421</ele>
        <time>2023-05-14T11:50:26.000Z</time>
      </trkpt>
      <trkpt lat="45.83274" lon="4.68512">
        <ele>279.50665</ele>
        <time>2023-05-14T11:50:27.000Z</time>
      </trkpt>
      <trkpt lat="45.83272" lon="4.68509">
        <ele>279.28094</ele>
        <time>2023-05-14T11:50:28.000Z</time>
      </trkpt>
      <trkpt lat="45.83269" lon="4.68506">
        <ele>279.1535</ele>
        <time>2023-05-14T11:50:29.000Z</time>
      </trkpt>
      <trkpt lat="45.83267" lon="4.68503">
        <ele>279.0712</ele>
        <time>2023-05-14T11:50:30.000Z</time>
      </trkpt>
      <trkpt lat="45.83265" lon="4.68501">
        <ele>279.21658</ele>
        <time>2023-05-14T11:50:31.000Z</time>
      </trkpt>
      <trkpt lat="45.83262" lon="4.68498">
        <ele>279.4231</ele>
        <time>2023-05-14T11:50:32.000Z</time>
      </trkpt>
      <trkpt lat="45.8326" lon="4.68496">
        <ele>279.60278</ele>
        <time>2023-05-14T11:50:33.000Z</time>
      </trkpt>
      <trkpt lat="45.83257" lon="4.68494">
        <ele>279.7775</ele>
        <time>2023-05-14T11:50:34.000Z</time>
      </trkpt>
      <trkpt lat="45.83254" lon="4.68491">
        <ele>279.99533</ele>
        <time>2023-05-14T11:50:35.000Z</time>
      </trkpt>
      <trkpt lat="45.83252" lon="4.68489">
        <ele>280.19537</ele>
        <time>2023-05-14T11:50:36.000Z</time>
      </trkpt>
      <trkpt lat="45.83249" lon="4.68487">
        <ele>280.37274</ele>
        <time>2023-05-14T11:50:37.000Z</time>
      </trkpt>
      <trkpt lat="45.83246" lon="4.68484">
        <ele>280.55194</ele>
        <time>2023-05-14T11:50:38.000Z</time>
      </trkpt>
      <trkpt lat="45.83243" lon="4.68481">
        <ele>280.76077</ele>
        <time>2023-05-14T11:50:39.000Z</time>
      </trkpt>
      <trkpt lat="45.8324" lon="4.68479">
        <ele>280.95419</ele>
        <time>2023-05-14T11:50:40.000Z</time>
      </trkpt>
      <trkpt lat="45.83238" lon="4.68477">
        <ele>281.14777</ele>
        <time>2023-05-14T11:50:41.000Z</time>
      </trkpt>
      <trkpt lat="45.83235" lon="4.68474">
        <ele>281.3768</ele>
        <time>2023-05-14T11:50:42.000Z</time>
      </trkpt>
      <trkpt lat="45.83233" lon="4.68472">
        <ele>281.58643</ele>
        <time>2023-05-14T11:50:43.000Z</time>
      </trkpt>
      <trkpt lat="45.8323" lon="4.6847">
        <ele>281.78091</ele>
        <time>2023-05-14T11:50:44.000Z</time>
      </trkpt>
      <trkpt lat="45.83227" lon="4.68467">
        <ele>281.96503</ele>
        <time>2023-05-14T11:50:45.000Z</time>
      </trkpt>
      <trkpt lat="45.83225" lon="4.68465">
        <ele>282.14728</ele>
        <time>2023-05-14T11:50:46.000Z</time>
      </trkpt>
      <trkpt lat="45.83222" lon="4.68462">
        <ele>282.78079</ele>
        <time>2023-05-14T11:50:47.000Z</time>
      </trkpt>
      <trkpt lat="45.83219" lon="4.68459">
        <ele>283.25098</ele>
        <time>2023-05-14T11:50:48.000Z</time>
      </trkpt>
      <trkpt lat="45.83217" lon="4.68457">
        <ele>283.76193</ele>
        <time>2023-05-14T11:50:49.000Z</time>
      </trkpt>
      <trkpt lat="45.83214" lon="4.68454">
        <ele>284.27414</ele>
        <time>2023-05-14T11:50:50.000Z</time>
      </trkpt>
      <trkpt lat="45.83212" lon="4.68451">
        <ele>284.78455</ele>
        <time>2023-05-14T11:50:51.000Z</time>
      </trkpt>
      <trkpt lat="45.8321" lon="4.68448">
        <ele>285.28595</ele>
        <time>2023-05-14T11:50:52.000Z</time>
      </trkpt>
      <trkpt lat="45.83208" lon="4.68445">
        <ele>285.7746</ele>
        <time>2023-05-14T11:50:53.000Z</time>
      </trkpt>
      <trkpt lat="45.83206" lon="4.68442">
        <ele>286.27081</ele>
        <time>2023-05-14T11:50:54.000Z</time>
      </trkpt>
      <trkpt lat="45.83204" lon="4.68438">
        <ele>286.74133</ele>
        <time>2023-05-14T11:50:55.000Z</time>
      </trkpt>
      <trkpt lat="45.83202" lon="4.68435">
        <ele>287.29117</ele>
        <time>2023-05-14T11:50:56.000Z</time>
      </trkpt>
      <trkpt lat="45.832" lon="4.68431">
        <ele>287.67661</ele>
        <time>2023-05-14T11:50:57.000Z</time>
      </trkpt>
      <trkpt lat="45.83199" lon="4.68427">
        <ele>288.09644</ele>
        <time>2023-05-14T11:50:58.000Z</time>
      </trkpt>
      <trkpt lat="45.83197" lon="4.68423">
        <ele>288.50967</ele>
        <time>2023-05-14T11:50:59.000Z</time>
      </trkpt>
      <trkpt lat="45.83196" lon="4.68419">
        <ele>288.94336</ele>
        <time>2023-05-14T11:51:00.000Z</time>
      </trkpt>
      <trkpt lat="45.83194" lon="4.68416">
        <ele>289.37747</ele>
        <time>2023-05-14T11:51:01.000Z</time>
      </trkpt>
      <trkpt lat="45.83192" lon="4.68412">
        <ele>289.75983</ele>
        <time>2023-05-14T11:51:02.000Z</time>
      </trkpt>
      <trkpt lat="45.8319" lon="4.68408">
        <ele>290.15121</ele>
        <time>2023-05-14T11:51:03.000Z</time>
      </trkpt>
      <trkpt lat="45.83188" lon="4.68404">
        <ele>290.52969</ele>
        <time>2023-05-14T11:51:04.000Z</time>
      </trkpt>
      <trkpt lat="45.83185" lon="4.68401">
        <ele>290.91327</ele>
        <time>2023-05-14T11:51:05.000Z</time>
      </trkpt>
      <trkpt lat="45.83183" lon="4.68397">
        <ele>291.31143</ele>
        <time>2023-05-14T11:51:06.000Z</time>
      </trkpt>
      <trkpt lat="45.83181" lon="4.68394">
        <ele>291.30209</ele>
        <time>2023-05-14T11:51:07.000Z</time>
      </trkpt>
      <trkpt lat="45.83179" lon="4.6839">
        <ele>291.448</ele>
        <time>2023-05-14T11:51:08.000Z</time>
      </trkpt>
      <trkpt lat="45.83177" lon="4.68386">
        <ele>291.57782</ele>
        <time>2023-05-14T11:51:09.000Z</time>
      </trkpt>
      <trkpt lat="45.83175" lon="4.68382">
        <ele>291.73264</ele>
        <time>2023-05-14T11:51:10.000Z</time>
      </trkpt>
      <trkpt lat="45.83173" lon="4.68379">
        <ele>291.87683</ele>
        <time>2023-05-14T11:51:11.000Z</time>
      </trkpt>
      <trkpt lat="45.83171" lon="4.68375">
        <ele>292.01337</ele>
        <time>2023-05-14T11:51:12.000Z</time>
      </trkpt>
      <trkpt lat="45.83169" lon="4.68371">
        <ele>292.21628</ele>
        <time>2023-05-14T11:51:13.000Z</time>
      </trkpt>
      <trkpt lat="45.83167" lon="4.68367">
        <ele>292.46735</ele>
        <time>2023-05-14T11:51:14.000Z</time>
      </trkpt>
      <trkpt lat="45.83165" lon="4.68363">
        <ele>292.56454</ele>
        <time>2023-05-14T11:51:15.000Z</time>
      </trkpt>
      <trkpt lat="45.83163" lon="4.68359">
        <ele>292.629</ele>
        <time>2023-05-14T11:51:16.000Z</time>
      </trkpt>
      <trkpt lat="45.83162" lon="4.68354">
        <ele>292.86215</ele>
        <time>2023-05-14T11:51:17.000Z</time>
      </trkpt>
      <trkpt lat="45.83161" lon="4.68349">
        <ele>293.06241</ele>
        <time>2023-05-14T11:51:18.000Z</time>
      </trkpt>
      <trkpt lat="45.83159" lon="4.68345">
        <ele>293.30496</ele>
        <time>2023-05-14T11:51:19.000Z</time>
      </trkpt>
      <trkpt lat="45.83157" lon="4.68341">
        <ele>293.5434</ele>
        <time>2023-05-14T11:51:20.000Z</time>
      </trkpt>
      <trkpt lat="45.83155" lon="4.68338">
        <ele>293.78583</ele>
        <time>2023-05-14T11:51:21.000Z</time>
      </trkpt>
      <trkpt lat="45.83153" lon="4.68334">
        <ele>293.91666</ele>
        <time>2023-05-14T11:51:22.000Z</time>
      </trkpt>
      <trkpt lat="45.83151" lon="4.6833">
        <ele>294.08255</ele>
        <time>2023-05-14T11:51:23.000Z</time>
      </trkpt>
      <trkpt lat="45.83149" lon="4.68326">
        <ele>294.246</ele>
        <time>2023-05-14T11:51:24.000Z</time>
      </trkpt>
      <trkpt lat="45.83147" lon="4.68322">
        <ele>294.39667</ele>
        <time>2023-05-14T11:51:25.000Z</time>
      </trkpt>
      <trkpt lat="45.83145" lon="4.68318">
        <ele>294.55164</ele>
        <time>2023-05-14T11:51:26.000Z</time>
      </trkpt>
      <trkpt lat="45.83143" lon="4.68314">
        <ele>294.69446</ele>
        <time>2023-05-14T11:51:27.000Z</time>
      </trkpt>
      <trkpt lat="45.83141" lon="4.6831">
        <ele>294.82922</ele>
        <time>2023-05-14T11:51:28.000Z</time>
      </trkpt>
      <trkpt lat="45.83139" lon="4.68307">
        <ele>294.93423</ele>
        <time>2023-05-14T11:51:29.000Z</time>
      </trkpt>
      <trkpt lat="45.83137" lon="4.68303">
        <ele>295.02615</ele>
        <time>2023-05-14T11:51:30.000Z</time>
      </trkpt>
      <trkpt lat="45.83135" lon="4.68299">
        <ele>295.1832</ele>
        <time>2023-05-14T11:51:31.000Z</time>
      </trkpt>
      <trkpt lat="45.83133" lon="4.68296">
        <ele>295.34943</ele>
        <time>2023-05-14T11:51:32.000Z</time>
      </trkpt>
      <trkpt lat="45.83131" lon="4.68292">
        <ele>295.45172</ele>
        <time>2023-05-14T11:51:33.000Z</time>
      </trkpt>
      <trkpt lat="45.83129" lon="4.68288">
        <ele>295.49652</ele>
        <time>2023-05-14T11:51:34.000Z</time>
      </trkpt>
      <trkpt lat="45.83127" lon="4.68284">
        <ele>295.65546</ele>
        <time>2023-05-14T11:51:35.000Z</time>
      </trkpt>
      <trkpt lat="45.83124" lon="4.6828">
        <ele>295.83466</ele>
        <time>2023-05-14T11:51:36.000Z</time>
      </trkpt>
      <trkpt lat="45.83122" lon="4.68277">
        <ele>296.00827</ele>
        <time>2023-05-14T11:51:37.000Z</time>
      </trkpt>
      <trkpt lat="45.8312" lon="4.68274">
        <ele>296.07574</ele>
        <time>2023-05-14T11:51:38.000Z</time>
      </trkpt>
      <trkpt lat="45.83118" lon="4.68271">
        <ele>296.08612</ele>
        <time>2023-05-14T11:51:39.000Z</time>
      </trkpt>
      <trkpt lat="45.83116" lon="4.68266">
        <ele>296.06927</ele>
        <time>2023-05-14T11:51:40.000Z</time>
      </trkpt>
      <trkpt lat="45.83115" lon="4.68262">
        <ele>296.03503</ele>
        <time>2023-05-14T11:51:41.000Z</time>
      </trkpt>
      <trkpt lat="45.83114" lon="4.68257">
        <ele>296.11545</ele>
        <time>2023-05-14T11:51:42.000Z</time>
      </trkpt>
      <trkpt lat="45.83113" lon="4.68253">
        <ele>296.14389</ele>
        <time>2023-05-14T11:51:43.000Z</time>
      </trkpt>
      <trkpt lat="45.83111" lon="4.68248">
        <ele>296.17572</ele>
        <time>2023-05-14T11:51:44.000Z</time>
      </trkpt>
      <trkpt lat="45.8311" lon="4.68243">
        <ele>296.20978</ele>
        <time>2023-05-14T11:51:45.000Z</time>
      </trkpt>
      <trkpt lat="45.83108" lon="4.68239">
        <ele>296.23001</ele>
        <time>2023-05-14T11:51:46.000Z</time>
      </trkpt>
      <trkpt lat="45.83107" lon="4.68234">
        <ele>296.25708</ele>
        <time>2023-05-14T11:51:47.000Z</time>
      </trkpt>
      <trkpt lat="45.83106" lon="4.6823">
        <ele>296.27875</ele>
        <time>2023-05-14T11:51:48.000Z</time>
      </trkpt>
      <trkpt lat="45.83104" lon="4.68225">
        <ele>296.31549</ele>
        <time>2023-05-14T11:51:49.000Z</time>
      </trkpt>
      <trkpt lat="45.83103" lon="4.6822">
        <ele>296.34314</ele>
        <time>2023-05-14T11:51:50.000Z</time>
      </trkpt>
      <trkpt lat="45.83102" lon="4.68215">
        <ele>296.30536</ele>
        <time>2023-05-14T11:51:51.000Z</time>
      </trkpt>
      <trkpt lat="45.831" lon="4.6821">
        <ele>296.27365</ele>
        <time>2023-05-14T11:51:52.000Z</time>
      </trkpt>
      <trkpt lat="45.83099" lon="4.68205">
        <ele>296.24112</ele>
        <time>2023-05-14T11:51:53.000Z</time>
      </trkpt>
      <trkpt lat="45.83098" lon="4.682">
        <ele>296.2081</ele>
        <time>2023-05-14T11:51:54.000Z</time>
      </trkpt>
      <trkpt lat="45.83098" lon="4.68194">
        <ele>296.18851</ele>
        <time>2023-05-14T11:51:55.000Z</time>
      </trkpt>
      <trkpt lat="45.83096" lon="4.68189">
        <ele>296.1235</ele>
        <time>2023-05-14T11:51:56.000Z</time>
      </trkpt>
      <trkpt lat="45.83095" lon="4.68184">
        <ele>296.05719</ele>
        <time>2023-05-14T11:51:57.000Z</time>
      </trkpt>
      <trkpt lat="45.83094" lon="4.68179">
        <ele>296.08865</ele>
        <time>2023-05-14T11:51:58.000Z</time>
      </trkpt>
      <trkpt lat="45.83093" lon="4.68173">
        <ele>296.19061</ele>
        <time>2023-05-14T11:51:59.000Z</time>
      </trkpt>
      <trkpt lat="45.83092" lon="4.68168">
        <ele>296.29449</ele>
        <time>2023-05-14T11:52:00.000Z</time>
      </trkpt>
      <trkpt lat="45.83091" lon="4.68162">
        <ele>296.40521</ele>
        <time>2023-05-14T11:52:01.000Z</time>
      </trkpt>
      <trkpt lat="45.8309" lon="4.68157">
        <ele>296.51492</ele>
        <time>2023-05-14T11:52:02.000Z</time>
      </trkpt>
      <trkpt lat="45.83089" lon="4.68151">
        <ele>296.64484</ele>
        <time>2023-05-14T11:52:03.000Z</time>
      </trkpt>
      <trkpt lat="45.83088" lon="4.68145">
        <ele>296.76596</ele>
        <time>2023-05-14T11:52:04.000Z</time>
      </trkpt>
      <trkpt lat="45.83087" lon="4.68139">
        <ele>296.88129</ele>
        <time>2023-05-14T11:52:05.000Z</time>
      </trkpt>
      <trkpt lat="45.83087" lon="4.68133">
        <ele>297.00031</ele>
        <time>2023-05-14T11:52:06.000Z</time>
      </trkpt>
      <trkpt lat="45.83086" lon="4.68127">
        <ele>297.11957</ele>
        <time>2023-05-14T11:52:07.000Z</time>
      </trkpt>
      <trkpt lat="45.83085" lon="4.6812">
        <ele>297.23486</ele>
        <time>2023-05-14T11:52:08.000Z</time>
      </trkpt>
      <trkpt lat="45.83084" lon="4.68113">
        <ele>297.34052</ele>
        <time>2023-05-14T11:52:09.000Z</time>
      </trkpt>
      <trkpt lat="45.83083" lon="4.68106">
        <ele>297.43991</ele>
        <time>2023-05-14T11:52:10.000Z</time>
      </trkpt>
      <trkpt lat="45.83082" lon="4.68099">
        <ele>297.22516</ele>
        <time>2023-05-14T11:52:11.000Z</time>
      </trkpt>
      <trkpt lat="45.83081" lon="4.68091">
        <ele>297.0119</ele>
        <time>2023-05-14T11:52:12.000Z</time>
      </trkpt>
      <trkpt lat="45.83081" lon="4.68084">
        <ele>296.82175</ele>
        <time>2023-05-14T11:52:13.000Z</time>
      </trkpt>
      <trkpt lat="45.8308" lon="4.68077">
        <ele>296.63513</ele>
        <time>2023-05-14T11:52:14.000Z</time>
      </trkpt>
      <trkpt lat="45.8308" lon="4.6807">
        <ele>296.42404</ele>
        <time>2023-05-14T11:52:15.000Z</time>
      </trkpt>
      <trkpt lat="45.83079" lon="4.68063">
        <ele>296.20734</ele>
        <time>2023-05-14T11:52:16.000Z</time>
      </trkpt>
      <trkpt lat="45.83079" lon="4.68056">
        <ele>295.97858</ele>
        <time>2023-05-14T11:52:17.000Z</time>
      </trkpt>
      <trkpt lat="45.83079" lon="4.68049">
        <ele>295.7377</ele>
        <time>2023-05-14T11:52:18.000Z</time>
      </trkpt>
      <trkpt lat="45.83078" lon="4.68042">
        <ele>295.40985</ele>
        <time>2023-05-14T11:52:19.000Z</time>
      </trkpt>
      <trkpt lat="45.83078" lon="4.68036">
        <ele>295.08212</ele>
        <time>2023-05-14T11:52:20.000Z</time>
      </trkpt>
      <trkpt lat="45.83077" lon="4.68029">
        <ele>294.94586</ele>
        <time>2023-05-14T11:52:21.000Z</time>
      </trkpt>
      <trkpt lat="45.83077" lon="4.68022">
        <ele>294.78659</ele>
        <time>2023-05-14T11:52:22.000Z</time>
      </trkpt>
      <trkpt lat="45.83076" lon="4.68016">
        <ele>294.62305</ele>
        <time>2023-05-14T11:52:23.000Z</time>
      </trkpt>
      <trkpt lat="45.83075" lon="4.68009">
        <ele>294.47656</ele>
        <time>2023-05-14T11:52:24.000Z</time>
      </trkpt>
      <trkpt lat="45.83074" lon="4.68003">
        <ele>294.32071</ele>
        <time>2023-05-14T11:52:25.000Z</time>
      </trkpt>
      <trkpt lat="45.83074" lon="4.67996">
        <ele>294.13745</ele>
        <time>2023-05-14T11:52:26.000Z</time>
      </trkpt>
      <trkpt lat="45.83073" lon="4.67989">
        <ele>293.94498</ele>
        <time>2023-05-14T11:52:27.000Z</time>
      </trkpt>
      <trkpt lat="45.83072" lon="4.67982">
        <ele>293.75351</ele>
        <time>2023-05-14T11:52:28.000Z</time>
      </trkpt>
      <trkpt lat="45.83071" lon="4.67976">
        <ele>293.54974</ele>
        <time>2023-05-14T11:52:29.000Z</time>
      </trkpt>
      <trkpt lat="45.8307" lon="4.67969">
        <ele>293.37448</ele>
        <time>2023-05-14T11:52:30.000Z</time>
      </trkpt>
      <trkpt lat="45.83068" lon="4.67962">
        <ele>293.51633</ele>
        <time>2023-05-14T11:52:31.000Z</time>
      </trkpt>
      <trkpt lat="45.83066" lon="4.67954">
        <ele>293.64133</ele>
        <time>2023-05-14T11:52:32.000Z</time>
      </trkpt>
      <trkpt lat="45.83065" lon="4.67947">
        <ele>293.73508</ele>
        <time>2023-05-14T11:52:33.000Z</time>
      </trkpt>
      <trkpt lat="45.83064" lon="4.6794">
        <ele>293.80463</ele>
        <time>2023-05-14T11:52:34.000Z</time>
      </trkpt>
      <trkpt lat="45.83062" lon="4.67933">
        <ele>293.89816</ele>
        <time>2023-05-14T11:52:35.000Z</time>
      </trkpt>
      <trkpt lat="45.83061" lon="4.67926">
        <ele>294.04907</ele>
        <time>2023-05-14T11:52:36.000Z</time>
      </trkpt>
      <trkpt lat="45.83058" lon="4.67919">
        <ele>294.1839</ele>
        <time>2023-05-14T11:52:37.000Z</time>
      </trkpt>
      <trkpt lat="45.83057" lon="4.67911">
        <ele>294.33423</ele>
        <time>2023-05-14T11:52:38.000Z</time>
      </trkpt>
      <trkpt lat="45.83054" lon="4.67903">
        <ele>294.52588</ele>
        <time>2023-05-14T11:52:39.000Z</time>
      </trkpt>
      <trkpt lat="45.83052" lon="4.67897">
        <ele>294.61093</ele>
        <time>2023-05-14T11:52:40.000Z</time>
      </trkpt>
      <trkpt lat="45.83051" lon="4.6789">
        <ele>294.5206</ele>
        <time>2023-05-14T11:52:41.000Z</time>
      </trkpt>
      <trkpt lat="45.8305" lon="4.67883">
        <ele>294.47055</ele>
        <time>2023-05-14T11:52:42.000Z</time>
      </trkpt>
      <trkpt lat="45.83049" lon="4.67876">
        <ele>294.40274</ele>
        <time>2023-05-14T11:52:43.000Z</time>
      </trkpt>
      <trkpt lat="45.83048" lon="4.67869">
        <ele>294.32968</ele>
        <time>2023-05-14T11:52:44.000Z</time>
      </trkpt>
      <trkpt lat="45.83046" lon="4.67862">
        <ele>294.2811</ele>
        <time>2023-05-14T11:52:45.000Z</time>
      </trkpt>
      <trkpt lat="45.83045" lon="4.67855">
        <ele>294.23764</ele>
        <time>2023-05-14T11:52:46.000Z</time>
      </trkpt>
      <trkpt lat="45.83043" lon="4.67848">
        <ele>294.18021</ele>
        <time>2023-05-14T11:52:47.000Z</time>
      </trkpt>
      <trkpt lat="45.83042" lon="4.67841">
        <ele>294.11005</ele>
        <time>2023-05-14T11:52:48.000Z</time>
      </trkpt>
      <trkpt lat="45.83041" lon="4.67833">
        <ele>294.03766</ele>
        <time>2023-05-14T11:52:49.000Z</time>
      </trkpt>
      <trkpt lat="45.83039" lon="4.67826">
        <ele>293.95163</ele>
        <time>2023-05-14T11:52:50.000Z</time>
      </trkpt>
      <trkpt lat="45.83037" lon="4.67817">
        <ele>293.86871</ele>
        <time>2023-05-14T11:52:51.000Z</time>
      </trkpt>
      <trkpt lat="45.83033" lon="4.67809">
        <ele>293.79929</ele>
        <time>2023-05-14T11:52:52.000Z</time>
      </trkpt>
      <trkpt lat="45.83032" lon="4.67798">
        <ele>293.70978</ele>
        <time>2023-05-14T11:52:53.000Z</time>
      </trkpt>
      <trkpt lat="45.83029" lon="4.67789">
        <ele>293.65228</ele>
        <time>2023-05-14T11:52:54.000Z</time>
      </trkpt>
      <trkpt lat="45.83029" lon="4.67781">
        <ele>293.58951</ele>
        <time>2023-05-14T11:52:55.000Z</time>
      </trkpt>
      <trkpt lat="45.83027" lon="4.67772">
        <ele>293.44171</ele>
        <time>2023-05-14T11:52:56.000Z</time>
      </trkpt>
      <trkpt lat="45.83025" lon="4.67761">
        <ele>293.3208</ele>
        <time>2023-05-14T11:52:57.000Z</time>
      </trkpt>
      <trkpt lat="45.83022" lon="4.67751">
        <ele>293.17728</ele>
        <time>2023-05-14T11:52:58.000Z</time>
      </trkpt>
      <trkpt lat="45.8302" lon="4.67741">
        <ele>292.96155</ele>
        <time>2023-05-14T11:52:59.000Z</time>
      </trkpt>
      <trkpt lat="45.83019" lon="4.67729">
        <ele>292.80841</ele>
        <time>2023-05-14T11:53:00.000Z</time>
      </trkpt>
      <trkpt lat="45.83017" lon="4.67719">
        <ele>292.62744</ele>
        <time>2023-05-14T11:53:01.000Z</time>
      </trkpt>
      <trkpt lat="45.83016" lon="4.67709">
        <ele>292.52432</ele>
        <time>2023-05-14T11:53:02.000Z</time>
      </trkpt>
      <trkpt lat="45.83015" lon="4.677">
        <ele>292.39325</ele>
        <time>2023-05-14T11:53:03.000Z</time>
      </trkpt>
      <trkpt lat="45.83014" lon="4.67691">
        <ele>292.25388</ele>
        <time>2023-05-14T11:53:04.000Z</time>
      </trkpt>
      <trkpt lat="45.83014" lon="4.67682">
        <ele>292.08926</ele>
        <time>2023-05-14T11:53:05.000Z</time>
      </trkpt>
      <trkpt lat="45.83013" lon="4.67673">
        <ele>291.89978</ele>
        <time>2023-05-14T11:53:06.000Z</time>
      </trkpt>
      <trkpt lat="45.83013" lon="4.67665">
        <ele>291.7851</ele>
        <time>2023-05-14T11:53:07.000Z</time>
      </trkpt>
      <trkpt lat="45.83013" lon="4.67656">
        <ele>291.51163</ele>
        <time>2023-05-14T11:53:08.000Z</time>
      </trkpt>
      <trkpt lat="45.83013" lon="4.67647">
        <ele>291.3067</ele>
        <time>2023-05-14T11:53:09.000Z</time>
      </trkpt>
      <trkpt lat="45.83012" lon="4.67638">
        <ele>291.09216</ele>
        <time>2023-05-14T11:53:10.000Z</time>
      </trkpt>
      <trkpt lat="45.83012" lon="4.67629">
        <ele>290.88947</ele>
        <time>2023-05-14T11:53:11.000Z</time>
      </trkpt>
      <trkpt lat="45.83012" lon="4.67621">
        <ele>290.69305</ele>
        <time>2023-05-14T11:53:12.000Z</time>
      </trkpt>
      <trkpt lat="45.83012" lon="4.67612">
        <ele>290.52844</ele>
        <time>2023-05-14T11:53:13.000Z</time>
      </trkpt>
      <trkpt lat="45.83012" lon="4.67605">
        <ele>290.35876</ele>
        <time>2023-05-14T11:53:14.000Z</time>
      </trkpt>
      <trkpt lat="45.83011" lon="4.67596">
        <ele>290.21295</ele>
        <time>2023-05-14T11:53:15.000Z</time>
      </trkpt>
      <trkpt lat="45.83009" lon="4.67588">
        <ele>290.11453</ele>
        <time>2023-05-14T11:53:16.000Z</time>
      </trkpt>
      <trkpt lat="45.83006" lon="4.67581">
        <ele>290.08661</ele>
        <time>2023-05-14T11:53:17.000Z</time>
      </trkpt>
      <trkpt lat="45.83001" lon="4.67576">
        <ele>290.08401</ele>
        <time>2023-05-14T11:53:18.000Z</time>
      </trkpt>
      <trkpt lat="45.82996" lon="4.67573">
        <ele>290.17267</ele>
        <time>2023-05-14T11:53:19.000Z</time>
      </trkpt>
      <trkpt lat="45.82992" lon="4.67572">
        <ele>290.10202</ele>
        <time>2023-05-14T11:53:20.000Z</time>
      </trkpt>
      <trkpt lat="45.82987" lon="4.67571">
        <ele>290.09097</ele>
        <time>2023-05-14T11:53:21.000Z</time>
      </trkpt>
      <trkpt lat="45.82982" lon="4.6757">
        <ele>289.99393</ele>
        <time>2023-05-14T11:53:22.000Z</time>
      </trkpt>
      <trkpt lat="45.82978" lon="4.67568">
        <ele>289.95151</ele>
        <time>2023-05-14T11:53:23.000Z</time>
      </trkpt>
      <trkpt lat="45.82973" lon="4.67567">
        <ele>289.91107</ele>
        <time>2023-05-14T11:53:24.000Z</time>
      </trkpt>
      <trkpt lat="45.82968" lon="4.67565">
        <ele>289.8942</ele>
        <time>2023-05-14T11:53:25.000Z</time>
      </trkpt>
      <trkpt lat="45.82963" lon="4.67564">
        <ele>289.91003</ele>
        <time>2023-05-14T11:53:26.000Z</time>
      </trkpt>
      <trkpt lat="45.82958" lon="4.67562">
        <ele>289.89389</ele>
        <time>2023-05-14T11:53:27.000Z</time>
      </trkpt>
      <trkpt lat="45.82954" lon="4.6756">
        <ele>290.05862</ele>
        <time>2023-05-14T11:53:28.000Z</time>
      </trkpt>
      <trkpt lat="45.8295" lon="4.67558">
        <ele>290.18735</ele>
        <time>2023-05-14T11:53:29.000Z</time>
      </trkpt>
      <trkpt lat="45.82946" lon="4.67558">
        <ele>290.34744</ele>
        <time>2023-05-14T11:53:30.000Z</time>
      </trkpt>
      <trkpt lat="45.82942" lon="4.67557">
        <ele>290.58487</ele>
        <time>2023-05-14T11:53:31.000Z</time>
      </trkpt>
      <trkpt lat="45.82938" lon="4.67556">
        <ele>290.82098</ele>
        <time>2023-05-14T11:53:32.000Z</time>
      </trkpt>
      <trkpt lat="45.82934" lon="4.67554">
        <ele>291.11063</ele>
        <time>2023-05-14T11:53:33.000Z</time>
      </trkpt>
      <trkpt lat="45.8293" lon="4.67553">
        <ele>291.39474</ele>
        <time>2023-05-14T11:53:34.000Z</time>
      </trkpt>
      <trkpt lat="45.82927" lon="4.67551">
        <ele>291.57874</ele>
        <time>2023-05-14T11:53:35.000Z</time>
      </trkpt>
      <trkpt lat="45.82923" lon="4.67549">
        <ele>291.80292</ele>
        <time>2023-05-14T11:53:36.000Z</time>
      </trkpt>
      <trkpt lat="45.8292" lon="4.67547">
        <ele>291.9537</ele>
        <time>2023-05-14T11:53:37.000Z</time>
      </trkpt>
      <trkpt lat="45.82917" lon="4.67546">
        <ele>292.09573</ele>
        <time>2023-05-14T11:53:38.000Z</time>
      </trkpt>
      <trkpt lat="45.82914" lon="4.67544">
        <ele>292.17245</ele>
        <time>2023-05-14T11:53:39.000Z</time>
      </trkpt>
      <trkpt lat="45.8291" lon="4.67541">
        <ele>292.47919</ele>
        <time>2023-05-14T11:53:40.000Z</time>
      </trkpt>
      <trkpt lat="45.82906" lon="4.67538">
        <ele>292.7319</ele>
        <time>2023-05-14T11:53:41.000Z</time>
      </trkpt>
      <trkpt lat="45.82902" lon="4.67535">
        <ele>293.01068</ele>
        <time>2023-05-14T11:53:42.000Z</time>
      </trkpt>
      <trkpt lat="45.82899" lon="4.67532">
        <ele>293.27313</ele>
        <time>2023-05-14T11:53:43.000Z</time>
      </trkpt>
      <trkpt lat="45.82896" lon="4.67528">
        <ele>293.55847</ele>
        <time>2023-05-14T11:53:44.000Z</time>
      </trkpt>
      <trkpt lat="45.82892" lon="4.67525">
        <ele>293.8688</ele>
        <time>2023-05-14T11:53:45.000Z</time>
      </trkpt>
      <trkpt lat="45.82889" lon="4.67522">
        <ele>294.17828</ele>
        <time>2023-05-14T11:53:46.000Z</time>
      </trkpt>
      <trkpt lat="45.82886" lon="4.67518">
        <ele>294.33762</ele>
        <time>2023-05-14T11:53:47.000Z</time>
      </trkpt>
      <trkpt lat="45.82883" lon="4.67515">
        <ele>294.50604</ele>
        <time>2023-05-14T11:53:48.000Z</time>
      </trkpt>
      <trkpt lat="45.8288" lon="4.67511">
        <ele>294.66776</ele>
        <time>2023-05-14T11:53:49.000Z</time>
      </trkpt>
      <trkpt lat="45.82878" lon="4.67506">
        <ele>294.81583</ele>
        <time>2023-05-14T11:53:50.000Z</time>
      </trkpt>
      <trkpt lat="45.82875" lon="4.67502">
        <ele>294.87897</ele>
        <time>2023-05-14T11:53:51.000Z</time>
      </trkpt>
      <trkpt lat="45.82873" lon="4.67498">
        <ele>294.92719</ele>
        <time>2023-05-14T11:53:52.000Z</time>
      </trkpt>
      <trkpt lat="45.8287" lon="4.67494">
        <ele>294.90836</ele>
        <time>2023-05-14T11:53:53.000Z</time>
      </trkpt>
      <trkpt lat="45.82867" lon="4.6749">
        <ele>294.86765</ele>
        <time>2023-05-14T11:53:54.000Z</time>
      </trkpt>
      <trkpt lat="45.82864" lon="4.67486">
        <ele>294.90875</ele>
        <time>2023-05-14T11:53:55.000Z</time>
      </trkpt>
      <trkpt lat="45.82862" lon="4.67483">
        <ele>294.87494</ele>
        <time>2023-05-14T11:53:56.000Z</time>
      </trkpt>
      <trkpt lat="45.8286" lon="4.67479">
        <ele>294.8241</ele>
        <time>2023-05-14T11:53:57.000Z</time>
      </trkpt>
      <trkpt lat="45.82858" lon="4.67475">
        <ele>294.79111</ele>
        <time>2023-05-14T11:53:58.000Z</time>
      </trkpt>
      <trkpt lat="45.82855" lon="4.67471">
        <ele>294.83014</ele>
        <time>2023-05-14T11:53:59.000Z</time>
      </trkpt>
      <trkpt lat="45.82852" lon="4.67467">
        <ele>294.85135</ele>
        <time>2023-05-14T11:54:00.000Z</time>
      </trkpt>
      <trkpt lat="45.82849" lon="4.67464">
        <ele>294.92523</ele>
        <time>2023-05-14T11:54:01.000Z</time>
      </trkpt>
      <trkpt lat="45.82846" lon="4.6746">
        <ele>294.83582</ele>
        <time>2023-05-14T11:54:02.000Z</time>
      </trkpt>
      <trkpt lat="45.82843" lon="4.67456">
        <ele>294.77637</ele>
        <time>2023-05-14T11:54:03.000Z</time>
      </trkpt>
      <trkpt lat="45.8284" lon="4.67452">
        <ele>294.69586</ele>
        <time>2023-05-14T11:54:04.000Z</time>
      </trkpt>
      <trkpt lat="45.82837" lon="4.67448">
        <ele>294.59906</ele>
        <time>2023-05-14T11:54:05.000Z</time>
      </trkpt>
      <trkpt lat="45.82834" lon="4.67444">
        <ele>294.50623</ele>
        <time>2023-05-14T11:54:06.000Z</time>
      </trkpt>
      <trkpt lat="45.82831" lon="4.6744">
        <ele>294.54825</ele>
        <time>2023-05-14T11:54:07.000Z</time>
      </trkpt>
      <trkpt lat="45.82828" lon="4.67436">
        <ele>294.59491</ele>
        <time>2023-05-14T11:54:08.000Z</time>
      </trkpt>
      <trkpt lat="45.82825" lon="4.67432">
        <ele>294.63647</ele>
        <time>2023-05-14T11:54:09.000Z</time>
      </trkpt>
      <trkpt lat="45.82822" lon="4.67428">
        <ele>294.67068</ele>
        <time>2023-05-14T11:54:10.000Z</time>
      </trkpt>
      <trkpt lat="45.82818" lon="4.67424">
        <ele>294.70496</ele>
        <time>2023-05-14T11:54:11.000Z</time>
      </trkpt>
      <trkpt lat="45.82815" lon="4.6742">
        <ele>294.79819</ele>
        <time>2023-05-14T11:54:12.000Z</time>
      </trkpt>
      <trkpt lat="45.82812" lon="4.67416">
        <ele>294.95139</ele>
        <time>2023-05-14T11:54:13.000Z</time>
      </trkpt>
      <trkpt lat="45.82809" lon="4.67412">
        <ele>295.12726</ele>
        <time>2023-05-14T11:54:14.000Z</time>
      </trkpt>
      <trkpt lat="45.82806" lon="4.67408">
        <ele>295.22446</ele>
        <time>2023-05-14T11:54:15.000Z</time>
      </trkpt>
      <trkpt lat="45.82803" lon="4.67404">
        <ele>295.36996</ele>
        <time>2023-05-14T11:54:16.000Z</time>
      </trkpt>
      <trkpt lat="45.828" lon="4.674">
        <ele>295.52872</ele>
        <time>2023-05-14T11:54:17.000Z</time>
      </trkpt>
      <trkpt lat="45.82797" lon="4.67397">
        <ele>295.65118</ele>
        <time>2023-05-14T11:54:18.000Z</time>
      </trkpt>
      <trkpt lat="45.82794" lon="4.67393">
        <ele>295.71759</ele>
        <time>2023-05-14T11:54:19.000Z</time>
      </trkpt>
      <trkpt lat="45.82791" lon="4.67389">
        <ele>295.78436</ele>
        <time>2023-05-14T11:54:20.000Z</time>
      </trkpt>
      <trkpt lat="45.82788" lon="4.67385">
        <ele>295.80493</ele>
        <time>2023-05-14T11:54:21.000Z</time>
      </trkpt>
      <trkpt lat="45.82785" lon="4.67382">
        <ele>295.96298</ele>
        <time>2023-05-14T11:54:22.000Z</time>
      </trkpt>
      <trkpt lat="45.82782" lon="4.67378">
        <ele>296.10727</ele>
        <time>2023-05-14T11:54:23.000Z</time>
      </trkpt>
      <trkpt lat="45.82779" lon="4.67374">
        <ele>296.2572</ele>
        <time>2023-05-14T11:54:24.000Z</time>
      </trkpt>
      <trkpt lat="45.82776" lon="4.6737">
        <ele>296.38605</ele>
        <time>2023-05-14T11:54:25.000Z</time>
      </trkpt>
      <trkpt lat="45.82773" lon="4.67367">
        <ele>296.4971</ele>
        <time>2023-05-14T11:54:26.000Z</time>
      </trkpt>
      <trkpt lat="45.8277" lon="4.67363">
        <ele>296.60577</ele>
        <time>2023-05-14T11:54:27.000Z</time>
      </trkpt>
      <trkpt lat="45.82767" lon="4.67359">
        <ele>296.68863</ele>
        <time>2023-05-14T11:54:28.000Z</time>
      </trkpt>
      <trkpt lat="45.82764" lon="4.67355">
        <ele>296.76398</ele>
        <time>2023-05-14T11:54:29.000Z</time>
      </trkpt>
      <trkpt lat="45.82761" lon="4.67352">
        <ele>296.84531</ele>
        <time>2023-05-14T11:54:30.000Z</time>
      </trkpt>
      <trkpt lat="45.82758" lon="4.67348">
        <ele>296.90643</ele>
        <time>2023-05-14T11:54:31.000Z</time>
      </trkpt>
      <trkpt lat="45.82755" lon="4.67343">
        <ele>296.91409</ele>
        <time>2023-05-14T11:54:32.000Z</time>
      </trkpt>
      <trkpt lat="45.82752" lon="4.67339">
        <ele>296.86942</ele>
        <time>2023-05-14T11:54:33.000Z</time>
      </trkpt>
      <trkpt lat="45.82749" lon="4.67335">
        <ele>296.81522</ele>
        <time>2023-05-14T11:54:34.000Z</time>
      </trkpt>
      <trkpt lat="45.82746" lon="4.67331">
        <ele>296.84164</ele>
        <time>2023-05-14T11:54:35.000Z</time>
      </trkpt>
      <trkpt lat="45.82743" lon="4.67328">
        <ele>296.89398</ele>
        <time>2023-05-14T11:54:36.000Z</time>
      </trkpt>
      <trkpt lat="45.82739" lon="4.67323">
        <ele>296.97748</ele>
        <time>2023-05-14T11:54:37.000Z</time>
      </trkpt>
      <trkpt lat="45.82736" lon="4.67319">
        <ele>296.98965</ele>
        <time>2023-05-14T11:54:38.000Z</time>
      </trkpt>
      <trkpt lat="45.82733" lon="4.67315">
        <ele>297.01971</ele>
        <time>2023-05-14T11:54:39.000Z</time>
      </trkpt>
      <trkpt lat="45.8273" lon="4.67311">
        <ele>297.0416</ele>
        <time>2023-05-14T11:54:40.000Z</time>
      </trkpt>
      <trkpt lat="45.82726" lon="4.67307">
        <ele>297.0451</ele>
        <time>2023-05-14T11:54:41.000Z</time>
      </trkpt>
      <trkpt lat="45.82723" lon="4.67302">
        <ele>297.01755</ele>
        <time>2023-05-14T11:54:42.000Z</time>
      </trkpt>
      <trkpt lat="45.8272" lon="4.67298">
        <ele>296.98297</ele>
        <time>2023-05-14T11:54:43.000Z</time>
      </trkpt>
      <trkpt lat="45.82716" lon="4.67294">
        <ele>296.99365</ele>
        <time>2023-05-14T11:54:44.000Z</time>
      </trkpt>
      <trkpt lat="45.82713" lon="4.67289">
        <ele>297.00259</ele>
        <time>2023-05-14T11:54:45.000Z</time>
      </trkpt>
      <trkpt lat="45.82709" lon="4.67285">
        <ele>297.03442</ele>
        <time>2023-05-14T11:54:46.000Z</time>
      </trkpt>
      <trkpt lat="45.82705" lon="4.6728">
        <ele>297.06281</ele>
        <time>2023-05-14T11:54:47.000Z</time>
      </trkpt>
      <trkpt lat="45.82702" lon="4.67275">
        <ele>297.10312</ele>
        <time>2023-05-14T11:54:48.000Z</time>
      </trkpt>
      <trkpt lat="45.82698" lon="4.67271">
        <ele>297.15723</ele>
        <time>2023-05-14T11:54:49.000Z</time>
      </trkpt>
      <trkpt lat="45.82695" lon="4.67267">
        <ele>297.1897</ele>
        <time>2023-05-14T11:54:50.000Z</time>
      </trkpt>
      <trkpt lat="45.82691" lon="4.67263">
        <ele>297.2388</ele>
        <time>2023-05-14T11:54:51.000Z</time>
      </trkpt>
      <trkpt lat="45.82688" lon="4.67259">
        <ele>297.28546</ele>
        <time>2023-05-14T11:54:52.000Z</time>
      </trkpt>
      <trkpt lat="45.82685" lon="4.67255">
        <ele>297.33493</ele>
        <time>2023-05-14T11:54:53.000Z</time>
      </trkpt>
      <trkpt lat="45.82682" lon="4.67251">
        <ele>297.3909</ele>
        <time>2023-05-14T11:54:54.000Z</time>
      </trkpt>
      <trkpt lat="45.82678" lon="4.67246">
        <ele>297.44904</ele>
        <time>2023-05-14T11:54:55.000Z</time>
      </trkpt>
      <trkpt lat="45.82675" lon="4.67242">
        <ele>297.46234</ele>
        <time>2023-05-14T11:54:56.000Z</time>
      </trkpt>
      <trkpt lat="45.82672" lon="4.67238">
        <ele>297.46692</ele>
        <time>2023-05-14T11:54:57.000Z</time>
      </trkpt>
      <trkpt lat="45.82668" lon="4.67234">
        <ele>297.56262</ele>
        <time>2023-05-14T11:54:58.000Z</time>
      </trkpt>
      <trkpt lat="45.82665" lon="4.67229">
        <ele>297.66287</ele>
        <time>2023-05-14T11:54:59.000Z</time>
      </trkpt>
      <trkpt lat="45.82662" lon="4.67225">
        <ele>297.7002</ele>
        <time>2023-05-14T11:55:00.000Z</time>
      </trkpt>
      <trkpt lat="45.82659" lon="4.67222">
        <ele>297.77533</ele>
        <time>2023-05-14T11:55:01.000Z</time>
      </trkpt>
      <trkpt lat="45.82656" lon="4.67217">
        <ele>297.86127</ele>
        <time>2023-05-14T11:55:02.000Z</time>
      </trkpt>
      <trkpt lat="45.82653" lon="4.67213">
        <ele>297.96759</ele>
        <time>2023-05-14T11:55:03.000Z</time>
      </trkpt>
      <trkpt lat="45.8265" lon="4.6721">
        <ele>298.03949</ele>
        <time>2023-05-14T11:55:04.000Z</time>
      </trkpt>
      <trkpt lat="45.82647" lon="4.67206">
        <ele>298.09369</ele>
        <time>2023-05-14T11:55:05.000Z</time>
      </trkpt>
      <trkpt lat="45.82644" lon="4.67203">
        <ele>298.16376</ele>
        <time>2023-05-14T11:55:06.000Z</time>
      </trkpt>
      <trkpt lat="45.82641" lon="4.67199">
        <ele>298.24615</ele>
        <time>2023-05-14T11:55:07.000Z</time>
      </trkpt>
      <trkpt lat="45.82639" lon="4.67196">
        <ele>298.3624</ele>
        <time>2023-05-14T11:55:08.000Z</time>
      </trkpt>
      <trkpt lat="45.82636" lon="4.67193">
        <ele>298.48892</ele>
        <time>2023-05-14T11:55:09.000Z</time>
      </trkpt>
      <trkpt lat="45.82633" lon="4.67189">
        <ele>298.54059</ele>
        <time>2023-05-14T11:55:10.000Z</time>
      </trkpt>
      <trkpt lat="45.8263" lon="4.67185">
        <ele>298.60681</ele>
        <time>2023-05-14T11:55:11.000Z</time>
      </trkpt>
      <trkpt lat="45.82628" lon="4.67181">
        <ele>298.65927</ele>
        <time>2023-05-14T11:55:12.000Z</time>
      </trkpt>
      <trkpt lat="45.82626" lon="4.67177">
        <ele>298.7034</ele>
        <time>2023-05-14T11:55:13.000Z</time>
      </trkpt>
      <trkpt lat="45.82623" lon="4.67173">
        <ele>298.77243</ele>
        <time>2023-05-14T11:55:14.000Z</time>
      </trkpt>
      <trkpt lat="45.8262" lon="4.67171">
        <ele>298.83789</ele>
        <time>2023-05-14T11:55:15.000Z</time>
      </trkpt>
      <trkpt lat="45.82617" lon="4.67169">
        <ele>298.90656</ele>
        <time>2023-05-14T11:55:16.000Z</time>
      </trkpt>
      <trkpt lat="45.82614" lon="4.67168">
        <ele>298.9473</ele>
        <time>2023-05-14T11:55:17.000Z</time>
      </trkpt>
      <trkpt lat="45.8261" lon="4.67167">
        <ele>298.99313</ele>
        <time>2023-05-14T11:55:18.000Z</time>
      </trkpt>
      <trkpt lat="45.82607" lon="4.67165">
        <ele>299.02475</ele>
        <time>2023-05-14T11:55:19.000Z</time>
      </trkpt>
      <trkpt lat="45.82604" lon="4.67164">
        <ele>299.07556</ele>
        <time>2023-05-14T11:55:20.000Z</time>
      </trkpt>
      <trkpt lat="45.826" lon="4.67162">
        <ele>299.1319</ele>
        <time>2023-05-14T11:55:21.000Z</time>
      </trkpt>
      <trkpt lat="45.82597" lon="4.67161">
        <ele>299.21539</ele>
        <time>2023-05-14T11:55:22.000Z</time>
      </trkpt>
      <trkpt lat="45.82593" lon="4.67159">
        <ele>299.28387</ele>
        <time>2023-05-14T11:55:23.000Z</time>
      </trkpt>
      <trkpt lat="45.8259" lon="4.67157">
        <ele>299.34543</ele>
        <time>2023-05-14T11:55:24.000Z</time>
      </trkpt>
      <trkpt lat="45.82586" lon="4.67155">
        <ele>299.42819</ele>
        <time>2023-05-14T11:55:25.000Z</time>
      </trkpt>
      <trkpt lat="45.82583" lon="4.67153">
        <ele>299.46829</ele>
        <time>2023-05-14T11:55:26.000Z</time>
      </trkpt>
      <trkpt lat="45.82579" lon="4.67151">
        <ele>299.49109</ele>
        <time>2023-05-14T11:55:27.000Z</time>
      </trkpt>
      <trkpt lat="45.82576" lon="4.6715">
        <ele>299.47116</ele>
        <time>2023-05-14T11:55:28.000Z</time>
      </trkpt>
      <trkpt lat="45.82572" lon="4.67148">
        <ele>299.46515</ele>
        <time>2023-05-14T11:55:29.000Z</time>
      </trkpt>
      <trkpt lat="45.82568" lon="4.67146">
        <ele>299.55493</ele>
        <time>2023-05-14T11:55:30.000Z</time>
      </trkpt>
      <trkpt lat="45.82565" lon="4.67144">
        <ele>299.6626</ele>
        <time>2023-05-14T11:55:31.000Z</time>
      </trkpt>
      <trkpt lat="45.82561" lon="4.67143">
        <ele>299.79178</ele>
        <time>2023-05-14T11:55:32.000Z</time>
      </trkpt>
      <trkpt lat="45.82558" lon="4.67141">
        <ele>299.91238</ele>
        <time>2023-05-14T11:55:33.000Z</time>
      </trkpt>
      <trkpt lat="45.82554" lon="4.6714">
        <ele>299.98907</ele>
        <time>2023-05-14T11:55:34.000Z</time>
      </trkpt>
      <trkpt lat="45.82551" lon="4.67138">
        <ele>300.09387</ele>
        <time>2023-05-14T11:55:35.000Z</time>
      </trkpt>
      <trkpt lat="45.82547" lon="4.67136">
        <ele>300.19073</ele>
        <time>2023-05-14T11:55:36.000Z</time>
      </trkpt>
      <trkpt lat="45.82544" lon="4.67135">
        <ele>300.26416</ele>
        <time>2023-05-14T11:55:37.000Z</time>
      </trkpt>
      <trkpt lat="45.82541" lon="4.67133">
        <ele>300.34476</ele>
        <time>2023-05-14T11:55:38.000Z</time>
      </trkpt>
      <trkpt lat="45.82537" lon="4.67132">
        <ele>300.41632</ele>
        <time>2023-05-14T11:55:39.000Z</time>
      </trkpt>
      <trkpt lat="45.82534" lon="4.67131">
        <ele>300.57434</ele>
        <time>2023-05-14T11:55:40.000Z</time>
      </trkpt>
      <trkpt lat="45.8253" lon="4.6713">
        <ele>300.73459</ele>
        <time>2023-05-14T11:55:41.000Z</time>
      </trkpt>
      <trkpt lat="45.82527" lon="4.67128">
        <ele>300.89084</ele>
        <time>2023-05-14T11:55:42.000Z</time>
      </trkpt>
      <trkpt lat="45.82523" lon="4.67127">
        <ele>301.05353</ele>
        <time>2023-05-14T11:55:43.000Z</time>
      </trkpt>
      <trkpt lat="45.8252" lon="4.67126">
        <ele>301.21472</ele>
        <time>2023-05-14T11:55:44.000Z</time>
      </trkpt>
      <trkpt lat="45.82516" lon="4.67124">
        <ele>301.37656</ele>
        <time>2023-05-14T11:55:45.000Z</time>
      </trkpt>
      <trkpt lat="45.82513" lon="4.67123">
        <ele>301.54953</ele>
        <time>2023-05-14T11:55:46.000Z</time>
      </trkpt>
      <trkpt lat="45.82509" lon="4.67122">
        <ele>301.73541</ele>
        <time>2023-05-14T11:55:47.000Z</time>
      </trkpt>
      <trkpt lat="45.82506" lon="4.67121">
        <ele>301.93182</ele>
        <time>2023-05-14T11:55:48.000Z</time>
      </trkpt>
      <trkpt lat="45.82503" lon="4.67119">
        <ele>302.11047</ele>
        <time>2023-05-14T11:55:49.000Z</time>
      </trkpt>
      <trkpt lat="45.82499" lon="4.67118">
        <ele>302.25705</ele>
        <time>2023-05-14T11:55:50.000Z</time>
      </trkpt>
      <trkpt lat="45.82496" lon="4.67116">
        <ele>302.3609</ele>
        <time>2023-05-14T11:55:51.000Z</time>
      </trkpt>
      <trkpt lat="45.82493" lon="4.67114">
        <ele>302.43268</ele>
        <time>2023-05-14T11:55:52.000Z</time>
      </trkpt>
      <trkpt lat="45.82489" lon="4.67113">
        <ele>302.47821</ele>
        <time>2023-05-14T11:55:53.000Z</time>
      </trkpt>
      <trkpt lat="45.82486" lon="4.67112">
        <ele>302.54581</ele>
        <time>2023-05-14T11:55:54.000Z</time>
      </trkpt>
      <trkpt lat="45.82483" lon="4.67111">
        <ele>302.60049</ele>
        <time>2023-05-14T11:55:55.000Z</time>
      </trkpt>
      <trkpt lat="45.8248" lon="4.6711">
        <ele>302.67523</ele>
        <time>2023-05-14T11:55:56.000Z</time>
      </trkpt>
      <trkpt lat="45.82477" lon="4.67109">
        <ele>302.7673</ele>
        <time>2023-05-14T11:55:57.000Z</time>
      </trkpt>
      <trkpt lat="45.82474" lon="4.67108">
        <ele>302.8764</ele>
        <time>2023-05-14T11:55:58.000Z</time>
      </trkpt>
      <trkpt lat="45.82471" lon="4.67107">
        <ele>302.98245</ele>
        <time>2023-05-14T11:55:59.000Z</time>
      </trkpt>
      <trkpt lat="45.82468" lon="4.67107">
        <ele>303.02948</ele>
        <time>2023-05-14T11:56:00.000Z</time>
      </trkpt>
      <trkpt lat="45.82466" lon="4.67106">
        <ele>303.0546</ele>
        <time>2023-05-14T11:56:01.000Z</time>
      </trkpt>
      <trkpt lat="45.82463" lon="4.67105">
        <ele>303.05304</ele>
        <time>2023-05-14T11:56:02.000Z</time>
      </trkpt>
      <trkpt lat="45.82461" lon="4.67103">
        <ele>303.03989</ele>
        <time>2023-05-14T11:56:03.000Z</time>
      </trkpt>
      <trkpt lat="45.82459" lon="4.67103">
        <ele>303.03107</ele>
        <time>2023-05-14T11:56:05.000Z</time>
      </trkpt>
      <trkpt lat="45.82455" lon="4.67102">
        <ele>303.04681</ele>
        <time>2023-05-14T11:56:07.000Z</time>
      </trkpt>
      <trkpt lat="45.82453" lon="4.67101">
        <ele>303.06607</ele>
        <time>2023-05-14T11:56:08.000Z</time>
      </trkpt>
      <trkpt lat="45.8245" lon="4.67101">
        <ele>303.06482</ele>
        <time>2023-05-14T11:56:09.000Z</time>
      </trkpt>
      <trkpt lat="45.82448" lon="4.67101">
        <ele>303.04083</ele>
        <time>2023-05-14T11:56:10.000Z</time>
      </trkpt>
      <trkpt lat="45.82445" lon="4.67101">
        <ele>302.99576</ele>
        <time>2023-05-14T11:56:12.000Z</time>
      </trkpt>
      <trkpt lat="45.82443" lon="4.67099">
        <ele>302.93158</ele>
        <time>2023-05-14T11:56:23.000Z</time>
      </trkpt>
      <trkpt lat="45.8244" lon="4.67098">
        <ele>302.86774</ele>
        <time>2023-05-14T11:56:25.000Z</time>
      </trkpt>
      <trkpt lat="45.82438" lon="4.67097">
        <ele>302.80807</ele>
        <time>2023-05-14T11:56:26.000Z</time>
      </trkpt>
      <trkpt lat="45.82437" lon="4.67097">
        <ele>302.75833</ele>
        <time>2023-05-14T11:56:27.000Z</time>
      </trkpt>
      <trkpt lat="45.82434" lon="4.67094">
        <ele>302.71225</ele>
        <time>2023-05-14T11:56:29.000Z</time>
      </trkpt>
      <trkpt lat="45.82432" lon="4.67092">
        <ele>302.65216</ele>
        <time>2023-05-14T11:56:31.000Z</time>
      </trkpt>
      <trkpt lat="45.8243" lon="4.6709">
        <ele>302.6033</ele>
        <time>2023-05-14T11:56:34.000Z</time>
      </trkpt>
      <trkpt lat="45.82428" lon="4.67089">
        <ele>302.52017</ele>
        <time>2023-05-14T11:56:35.000Z</time>
      </trkpt>
      <trkpt lat="45.82427" lon="4.67086">
        <ele>302.37805</ele>
        <time>2023-05-14T11:56:36.000Z</time>
      </trkpt>
      <trkpt lat="45.82425" lon="4.67084">
        <ele>302.24689</ele>
        <time>2023-05-14T11:56:37.000Z</time>
      </trkpt>
      <trkpt lat="45.82424" lon="4.6708">
        <ele>302.13773</ele>
        <time>2023-05-14T11:56:38.000Z</time>
      </trkpt>
      <trkpt lat="45.82423" lon="4.67076">
        <ele>302.00323</ele>
        <time>2023-05-14T11:56:39.000Z</time>
      </trkpt>
      <trkpt lat="45.82423" lon="4.67073">
        <ele>301.88049</ele>
        <time>2023-05-14T11:56:40.000Z</time>
      </trkpt>
      <trkpt lat="45.82423" lon="4.67069">
        <ele>301.73547</ele>
        <time>2023-05-14T11:56:41.000Z</time>
      </trkpt>
      <trkpt lat="45.82423" lon="4.67066">
        <ele>301.59381</ele>
        <time>2023-05-14T11:56:42.000Z</time>
      </trkpt>
      <trkpt lat="45.82423" lon="4.67062">
        <ele>301.40546</ele>
        <time>2023-05-14T11:56:43.000Z</time>
      </trkpt>
      <trkpt lat="45.82423" lon="4.67058">
        <ele>301.21622</ele>
        <time>2023-05-14T11:56:44.000Z</time>
      </trkpt>
      <trkpt lat="45.82423" lon="4.67054">
        <ele>301.0874</ele>
        <time>2023-05-14T11:56:45.000Z</time>
      </trkpt>
      <trkpt lat="45.82423" lon="4.6705">
        <ele>300.9874</ele>
        <time>2023-05-14T11:56:46.000Z</time>
      </trkpt>
      <trkpt lat="45.82423" lon="4.67046">
        <ele>300.92685</ele>
        <time>2023-05-14T11:56:47.000Z</time>
      </trkpt>
      <trkpt lat="45.82423" lon="4.67042">
        <ele>300.90112</ele>
        <time>2023-05-14T11:56:48.000Z</time>
      </trkpt>
      <trkpt lat="45.82424" lon="4.67038">
        <ele>300.85968</ele>
        <time>2023-05-14T11:56:49.000Z</time>
      </trkpt>
      <trkpt lat="45.82425" lon="4.67033">
        <ele>300.84976</ele>
        <time>2023-05-14T11:56:50.000Z</time>
      </trkpt>
      <trkpt lat="45.82427" lon="4.67029">
        <ele>300.87314</ele>
        <time>2023-05-14T11:56:51.000Z</time>
      </trkpt>
      <trkpt lat="45.82428" lon="4.67024">
        <ele>300.8786</ele>
        <time>2023-05-14T11:56:52.000Z</time>
      </trkpt>
      <trkpt lat="45.82428" lon="4.67019">
        <ele>300.89139</ele>
        <time>2023-05-14T11:56:53.000Z</time>
      </trkpt>
      <trkpt lat="45.82427" lon="4.67013">
        <ele>300.88397</ele>
        <time>2023-05-14T11:56:54.000Z</time>
      </trkpt>
      <trkpt lat="45.82425" lon="4.67008">
        <ele>300.91971</ele>
        <time>2023-05-14T11:56:55.000Z</time>
      </trkpt>
      <trkpt lat="45.8242" lon="4.67004">
        <ele>300.91403</ele>
        <time>2023-05-14T11:56:56.000Z</time>
      </trkpt>
      <trkpt lat="45.82417" lon="4.66999">
        <ele>300.90192</ele>
        <time>2023-05-14T11:56:57.000Z</time>
      </trkpt>
      <trkpt lat="45.82414" lon="4.66993">
        <ele>300.88702</ele>
        <time>2023-05-14T11:56:58.000Z</time>
      </trkpt>
      <trkpt lat="45.82411" lon="4.66987">
        <ele>300.91486</ele>
        <time>2023-05-14T11:56:59.000Z</time>
      </trkpt>
      <trkpt lat="45.82408" lon="4.66982">
        <ele>300.91852</ele>
        <time>2023-05-14T11:57:00.000Z</time>
      </trkpt>
      <trkpt lat="45.82404" lon="4.66976">
        <ele>300.95114</ele>
        <time>2023-05-14T11:57:01.000Z</time>
      </trkpt>
      <trkpt lat="45.82401" lon="4.6697">
        <ele>300.94305</ele>
        <time>2023-05-14T11:57:02.000Z</time>
      </trkpt>
      <trkpt lat="45.82398" lon="4.66964">
        <ele>300.95648</ele>
        <time>2023-05-14T11:57:03.000Z</time>
      </trkpt>
      <trkpt lat="45.82394" lon="4.66959">
        <ele>300.96826</ele>
        <time>2023-05-14T11:57:04.000Z</time>
      </trkpt>
      <trkpt lat="45.82391" lon="4.66951">
        <ele>300.90656</ele>
        <time>2023-05-14T11:57:05.000Z</time>
      </trkpt>
      <trkpt lat="45.82387" lon="4.66945">
        <ele>300.80493</ele>
        <time>2023-05-14T11:57:06.000Z</time>
      </trkpt>
      <trkpt lat="45.82383" lon="4.66938">
        <ele>300.65408</ele>
        <time>2023-05-14T11:57:07.000Z</time>
      </trkpt>
      <trkpt lat="45.82379" lon="4.6693">
        <ele>300.47498</ele>
        <time>2023-05-14T11:57:08.000Z</time>
      </trkpt>
      <trkpt lat="45.82375" lon="4.66923">
        <ele>300.29379</ele>
        <time>2023-05-14T11:57:09.000Z</time>
      </trkpt>
      <trkpt lat="45.82371" lon="4.66915">
        <ele>300.11237</ele>
        <time>2023-05-14T11:57:10.000Z</time>
      </trkpt>
      <trkpt lat="45.82366" lon="4.66909">
        <ele>299.92981</ele>
        <time>2023-05-14T11:57:11.000Z</time>
      </trkpt>
      <trkpt lat="45.82361" lon="4.66903">
        <ele>299.76147</ele>
        <time>2023-05-14T11:57:12.000Z</time>
      </trkpt>
      <trkpt lat="45.82355" lon="4.66897">
        <ele>299.60001</ele>
        <time>2023-05-14T11:57:13.000Z</time>
      </trkpt>
      <trkpt lat="45.8235" lon="4.66891">
        <ele>299.43063</ele>
        <time>2023-05-14T11:57:14.000Z</time>
      </trkpt>
      <trkpt lat="45.82343" lon="4.66887">
        <ele>299.26974</ele>
        <time>2023-05-14T11:57:15.000Z</time>
      </trkpt>
      <trkpt lat="45.82338" lon="4.66883">
        <ele>299.23169</ele>
        <time>2023-05-14T11:57:16.000Z</time>
      </trkpt>
      <trkpt lat="45.82333" lon="4.66879">
        <ele>299.0542</ele>
        <time>2023-05-14T11:57:17.000Z</time>
      </trkpt>
      <trkpt lat="45.8233" lon="4.66877">
        <ele>298.86154</ele>
        <time>2023-05-14T11:57:18.000Z</time>
      </trkpt>
      <trkpt lat="45.82328" lon="4.66872">
        <ele>298.6358</ele>
        <time>2023-05-14T11:57:19.000Z</time>
      </trkpt>
      <trkpt lat="45.82324" lon="4.6687">
        <ele>298.43329</ele>
        <time>2023-05-14T11:57:20.000Z</time>
      </trkpt>
      <trkpt lat="45.82321" lon="4.6687">
        <ele>298.24597</ele>
        <time>2023-05-14T11:57:21.000Z</time>
      </trkpt>
      <trkpt lat="45.82318" lon="4.66871">
        <ele>298.07965</ele>
        <time>2023-05-14T11:57:22.000Z</time>
      </trkpt>
      <trkpt lat="45.82317" lon="4.66873">
        <ele>297.90778</ele>
        <time>2023-05-14T11:57:23.000Z</time>
      </trkpt>
      <trkpt lat="45.82313" lon="4.66873">
        <ele>297.74243</ele>
        <time>2023-05-14T11:57:25.000Z</time>
      </trkpt>
      <trkpt lat="45.82311" lon="4.66873">
        <ele>297.5976</ele>
        <time>2023-05-14T11:57:26.000Z</time>
      </trkpt>
      <trkpt lat="45.82308" lon="4.66873">
        <ele>297.47989</ele>
        <time>2023-05-14T11:57:27.000Z</time>
      </trkpt>
      <trkpt lat="45.82305" lon="4.66873">
        <ele>297.37839</ele>
        <time>2023-05-14T11:57:28.000Z</time>
      </trkpt>
      <trkpt lat="45.82302" lon="4.66873">
        <ele>297.30475</ele>
        <time>2023-05-14T11:57:29.000Z</time>
      </trkpt>
      <trkpt lat="45.82298" lon="4.66873">
        <ele>297.24951</ele>
        <time>2023-05-14T11:57:30.000Z</time>
      </trkpt>
      <trkpt lat="45.82295" lon="4.66873">
        <ele>297.19733</ele>
        <time>2023-05-14T11:57:31.000Z</time>
      </trkpt>
      <trkpt lat="45.82291" lon="4.66872">
        <ele>297.14697</ele>
        <time>2023-05-14T11:57:32.000Z</time>
      </trkpt>
      <trkpt lat="45.82287" lon="4.66872">
        <ele>297.07526</ele>
        <time>2023-05-14T11:57:33.000Z</time>
      </trkpt>
      <trkpt lat="45.82283" lon="4.66871">
        <ele>296.94009</ele>
        <time>2023-05-14T11:57:34.000Z</time>
      </trkpt>
      <trkpt lat="45.82279" lon="4.66871">
        <ele>296.81485</ele>
        <time>2023-05-14T11:57:35.000Z</time>
      </trkpt>
      <trkpt lat="45.82276" lon="4.6687">
        <ele>296.67941</ele>
        <time>2023-05-14T11:57:36.000Z</time>
      </trkpt>
      <trkpt lat="45.82273" lon="4.6687">
        <ele>296.48822</ele>
        <time>2023-05-14T11:57:37.000Z</time>
      </trkpt>
      <trkpt lat="45.8227" lon="4.6687">
        <ele>296.42523</ele>
        <time>2023-05-14T11:57:38.000Z</time>
      </trkpt>
      <trkpt lat="45.82267" lon="4.6687">
        <ele>296.40677</ele>
        <time>2023-05-14T11:57:39.000Z</time>
      </trkpt>
      <trkpt lat="45.82264" lon="4.6687">
        <ele>296.40509</ele>
        <time>2023-05-14T11:57:40.000Z</time>
      </trkpt>
      <trkpt lat="45.82261" lon="4.6687">
        <ele>296.3576</ele>
        <time>2023-05-14T11:57:41.000Z</time>
      </trkpt>
      <trkpt lat="45.82257" lon="4.66871">
        <ele>296.28885</ele>
        <time>2023-05-14T11:57:42.000Z</time>
      </trkpt>
      <trkpt lat="45.82253" lon="4.66872">
        <ele>296.21039</ele>
        <time>2023-05-14T11:57:43.000Z</time>
      </trkpt>
      <trkpt lat="45.8225" lon="4.66872">
        <ele>296.12506</ele>
        <time>2023-05-14T11:57:44.000Z</time>
      </trkpt>
      <trkpt lat="45.82247" lon="4.66873">
        <ele>296.0394</ele>
        <time>2023-05-14T11:57:45.000Z</time>
      </trkpt>
      <trkpt lat="45.82243" lon="4.66875">
        <ele>295.94092</ele>
        <time>2023-05-14T11:57:46.000Z</time>
      </trkpt>
      <trkpt lat="45.82239" lon="4.66876">
        <ele>295.85553</ele>
        <time>2023-05-14T11:57:47.000Z</time>
      </trkpt>
      <trkpt lat="45.82235" lon="4.66877">
        <ele>295.758</ele>
        <time>2023-05-14T11:57:48.000Z</time>
      </trkpt>
      <trkpt lat="45.8223" lon="4.66879">
        <ele>295.66312</ele>
        <time>2023-05-14T11:57:49.000Z</time>
      </trkpt>
      <trkpt lat="45.82225" lon="4.6688">
        <ele>295.56082</ele>
        <time>2023-05-14T11:57:50.000Z</time>
      </trkpt>
      <trkpt lat="45.8222" lon="4.6688">
        <ele>295.4397</ele>
        <time>2023-05-14T11:57:51.000Z</time>
      </trkpt>
      <trkpt lat="45.82215" lon="4.66882">
        <ele>295.31082</ele>
        <time>2023-05-14T11:57:52.000Z</time>
      </trkpt>
      <trkpt lat="45.82211" lon="4.66883">
        <ele>295.17419</ele>
        <time>2023-05-14T11:57:53.000Z</time>
      </trkpt>
      <trkpt lat="45.82206" lon="4.66884">
        <ele>295.09821</ele>
        <time>2023-05-14T11:57:54.000Z</time>
      </trkpt>
      <trkpt lat="45.82201" lon="4.66884">
        <ele>295.00775</ele>
        <time>2023-05-14T11:57:55.000Z</time>
      </trkpt>
      <trkpt lat="45.82195" lon="4.66885">
        <ele>294.91541</ele>
        <time>2023-05-14T11:57:56.000Z</time>
      </trkpt>
      <trkpt lat="45.8219" lon="4.66886">
        <ele>294.81668</ele>
        <time>2023-05-14T11:57:57.000Z</time>
      </trkpt>
      <trkpt lat="45.82186" lon="4.66887">
        <ele>294.72186</ele>
        <time>2023-05-14T11:57:58.000Z</time>
      </trkpt>
      <trkpt lat="45.8218" lon="4.66888">
        <ele>294.60883</ele>
        <time>2023-05-14T11:57:59.000Z</time>
      </trkpt>
      <trkpt lat="45.82176" lon="4.66888">
        <ele>294.49661</ele>
        <time>2023-05-14T11:58:00.000Z</time>
      </trkpt>
      <trkpt lat="45.8217" lon="4.66889">
        <ele>294.40625</ele>
        <time>2023-05-14T11:58:01.000Z</time>
      </trkpt>
      <trkpt lat="45.82166" lon="4.66888">
        <ele>294.31915</ele>
        <time>2023-05-14T11:58:02.000Z</time>
      </trkpt>
      <trkpt lat="45.82161" lon="4.66888">
        <ele>294.24774</ele>
        <time>2023-05-14T11:58:03.000Z</time>
      </trkpt>
      <trkpt lat="45.82157" lon="4.66887">
        <ele>294.2063</ele>
        <time>2023-05-14T11:58:04.000Z</time>
      </trkpt>
      <trkpt lat="45.82153" lon="4.66886">
        <ele>294.17749</ele>
        <time>2023-05-14T11:58:05.000Z</time>
      </trkpt>
      <trkpt lat="45.8215" lon="4.66884">
        <ele>294.14667</ele>
        <time>2023-05-14T11:58:06.000Z</time>
      </trkpt>
      <trkpt lat="45.82146" lon="4.66883">
        <ele>294.10809</ele>
        <time>2023-05-14T11:58:07.000Z</time>
      </trkpt>
      <trkpt lat="45.82143" lon="4.66887">
        <ele>294.12582</ele>
        <time>2023-05-14T11:58:08.000Z</time>
      </trkpt>
      <trkpt lat="45.82139" lon="4.6689">
        <ele>294.12854</ele>
        <time>2023-05-14T11:58:09.000Z</time>
      </trkpt>
      <trkpt lat="45.82137" lon="4.66892">
        <ele>294.12558</ele>
        <time>2023-05-14T11:58:10.000Z</time>
      </trkpt>
      <trkpt lat="45.82134" lon="4.6689">
        <ele>294.12967</ele>
        <time>2023-05-14T11:58:11.000Z</time>
      </trkpt>
      <trkpt lat="45.82131" lon="4.66889">
        <ele>294.1395</ele>
        <time>2023-05-14T11:58:12.000Z</time>
      </trkpt>
      <trkpt lat="45.82128" lon="4.66888">
        <ele>294.18011</ele>
        <time>2023-05-14T11:58:13.000Z</time>
      </trkpt>
      <trkpt lat="45.82126" lon="4.66887">
        <ele>294.20419</ele>
        <time>2023-05-14T11:58:14.000Z</time>
      </trkpt>
      <trkpt lat="45.82123" lon="4.66887">
        <ele>294.24408</ele>
        <time>2023-05-14T11:58:15.000Z</time>
      </trkpt>
      <trkpt lat="45.8212" lon="4.66885">
        <ele>294.28336</ele>
        <time>2023-05-14T11:58:16.000Z</time>
      </trkpt>
      <trkpt lat="45.82119" lon="4.66882">
        <ele>294.32404</ele>
        <time>2023-05-14T11:58:17.000Z</time>
      </trkpt>
      <trkpt lat="45.82119" lon="4.66878">
        <ele>294.38776</ele>
        <time>2023-05-14T11:58:18.000Z</time>
      </trkpt>
      <trkpt lat="45.82121" lon="4.66875">
        <ele>294.45013</ele>
        <time>2023-05-14T11:58:19.000Z</time>
      </trkpt>
      <trkpt lat="45.82123" lon="4.66872">
        <ele>294.48288</ele>
        <time>2023-05-14T11:58:20.000Z</time>
      </trkpt>
      <trkpt lat="45.82123" lon="4.66869">
        <ele>294.54413</ele>
        <time>2023-05-14T11:58:21.000Z</time>
      </trkpt>
      <trkpt lat="45.82121" lon="4.66866">
        <ele>294.60742</ele>
        <time>2023-05-14T11:58:22.000Z</time>
      </trkpt>
      <trkpt lat="45.82118" lon="4.66864">
        <ele>294.66803</ele>
        <time>2023-05-14T11:58:23.000Z</time>
      </trkpt>
      <trkpt lat="45.82115" lon="4.66862">
        <ele>294.66409</ele>
        <time>2023-05-14T11:58:24.000Z</time>
      </trkpt>
      <trkpt lat="45.82113" lon="4.66859">
        <ele>294.66425</ele>
        <time>2023-05-14T11:58:25.000Z</time>
      </trkpt>
      <trkpt lat="45.8211" lon="4.66856">
        <ele>294.68927</ele>
        <time>2023-05-14T11:58:26.000Z</time>
      </trkpt>
      <trkpt lat="45.82108" lon="4.66854">
        <ele>294.7077</ele>
        <time>2023-05-14T11:58:27.000Z</time>
      </trkpt>
      <trkpt lat="45.82105" lon="4.66851">
        <ele>294.6778</ele>
        <time>2023-05-14T11:58:28.000Z</time>
      </trkpt>
      <trkpt lat="45.82102" lon="4.66847">
        <ele>294.66592</ele>
        <time>2023-05-14T11:58:29.000Z</time>
      </trkpt>
      <trkpt lat="45.821" lon="4.66844">
        <ele>294.6792</ele>
        <time>2023-05-14T11:58:30.000Z</time>
      </trkpt>
      <trkpt lat="45.82098" lon="4.66841">
        <ele>294.69623</ele>
        <time>2023-05-14T11:58:31.000Z</time>
      </trkpt>
      <trkpt lat="45.82095" lon="4.66839">
        <ele>294.71796</ele>
        <time>2023-05-14T11:58:32.000Z</time>
      </trkpt>
      <trkpt lat="45.82091" lon="4.66837">
        <ele>294.68109</ele>
        <time>2023-05-14T11:58:33.000Z</time>
      </trkpt>
      <trkpt lat="45.82088" lon="4.66834">
        <ele>294.67245</ele>
        <time>2023-05-14T11:58:34.000Z</time>
      </trkpt>
      <trkpt lat="45.82085" lon="4.66832">
        <ele>294.64032</ele>
        <time>2023-05-14T11:58:35.000Z</time>
      </trkpt>
      <trkpt lat="45.82083" lon="4.66829">
        <ele>294.63025</ele>
        <time>2023-05-14T11:58:36.000Z</time>
      </trkpt>
      <trkpt lat="45.8208" lon="4.66826">
        <ele>294.63596</ele>
        <time>2023-05-14T11:58:37.000Z</time>
      </trkpt>
      <trkpt lat="45.82078" lon="4.66823">
        <ele>294.61252</ele>
        <time>2023-05-14T11:58:38.000Z</time>
      </trkpt>
      <trkpt lat="45.82075" lon="4.6682">
        <ele>294.61469</ele>
        <time>2023-05-14T11:58:39.000Z</time>
      </trkpt>
      <trkpt lat="45.82073" lon="4.66817">
        <ele>294.64355</ele>
        <time>2023-05-14T11:58:40.000Z</time>
      </trkpt>
      <trkpt lat="45.8207" lon="4.66814">
        <ele>294.68082</ele>
        <time>2023-05-14T11:58:41.000Z</time>
      </trkpt>
      <trkpt lat="45.82067" lon="4.66811">
        <ele>294.73056</ele>
        <time>2023-05-14T11:58:42.000Z</time>
      </trkpt>
      <trkpt lat="45.82065" lon="4.66809">
        <ele>294.75302</ele>
        <time>2023-05-14T11:58:43.000Z</time>
      </trkpt>
      <trkpt lat="45.82062" lon="4.66808">
        <ele>294.81964</ele>
        <time>2023-05-14T11:58:44.000Z</time>
      </trkpt>
      <trkpt lat="45.82058" lon="4.66808">
        <ele>294.84073</ele>
        <time>2023-05-14T11:58:45.000Z</time>
      </trkpt>
      <trkpt lat="45.82055" lon="4.66808">
        <ele>294.81897</ele>
        <time>2023-05-14T11:58:46.000Z</time>
      </trkpt>
      <trkpt lat="45.82052" lon="4.66805">
        <ele>294.78632</ele>
        <time>2023-05-14T11:58:47.000Z</time>
      </trkpt>
      <trkpt lat="45.8205" lon="4.66801">
        <ele>294.74878</ele>
        <time>2023-05-14T11:58:48.000Z</time>
      </trkpt>
      <trkpt lat="45.8205" lon="4.66796">
        <ele>294.70215</ele>
        <time>2023-05-14T11:58:49.000Z</time>
      </trkpt>
      <trkpt lat="45.8205" lon="4.66791">
        <ele>294.66357</ele>
        <time>2023-05-14T11:58:50.000Z</time>
      </trkpt>
      <trkpt lat="45.82049" lon="4.66787">
        <ele>294.63214</ele>
        <time>2023-05-14T11:58:51.000Z</time>
      </trkpt>
      <trkpt lat="45.82047" lon="4.66783">
        <ele>294.60199</ele>
        <time>2023-05-14T11:58:52.000Z</time>
      </trkpt>
      <trkpt lat="45.82044" lon="4.66781">
        <ele>294.621</ele>
        <time>2023-05-14T11:58:53.000Z</time>
      </trkpt>
      <trkpt lat="45.82042" lon="4.66778">
        <ele>294.62674</ele>
        <time>2023-05-14T11:58:54.000Z</time>
      </trkpt>
      <trkpt lat="45.82039" lon="4.66775">
        <ele>294.64523</ele>
        <time>2023-05-14T11:58:55.000Z</time>
      </trkpt>
      <trkpt lat="45.82037" lon="4.66772">
        <ele>294.63333</ele>
        <time>2023-05-14T11:58:56.000Z</time>
      </trkpt>
      <trkpt lat="45.82034" lon="4.66769">
        <ele>294.60754</ele>
        <time>2023-05-14T11:58:57.000Z</time>
      </trkpt>
      <trkpt lat="45.82032" lon="4.66767">
        <ele>294.55743</ele>
        <time>2023-05-14T11:58:58.000Z</time>
      </trkpt>
      <trkpt lat="45.82029" lon="4.66764">
        <ele>294.4754</ele>
        <time>2023-05-14T11:58:59.000Z</time>
      </trkpt>
      <trkpt lat="45.82026" lon="4.66762">
        <ele>294.38916</ele>
        <time>2023-05-14T11:59:00.000Z</time>
      </trkpt>
      <trkpt lat="45.82023" lon="4.6676">
        <ele>294.28015</ele>
        <time>2023-05-14T11:59:01.000Z</time>
      </trkpt>
      <trkpt lat="45.8202" lon="4.66757">
        <ele>294.16727</ele>
        <time>2023-05-14T11:59:02.000Z</time>
      </trkpt>
      <trkpt lat="45.82017" lon="4.66755">
        <ele>294.10236</ele>
        <time>2023-05-14T11:59:03.000Z</time>
      </trkpt>
      <trkpt lat="45.82015" lon="4.66753">
        <ele>294.06171</ele>
        <time>2023-05-14T11:59:04.000Z</time>
      </trkpt>
      <trkpt lat="45.82013" lon="4.6675">
        <ele>294.04144</ele>
        <time>2023-05-14T11:59:05.000Z</time>
      </trkpt>
      <trkpt lat="45.8201" lon="4.66748">
        <ele>294.04944</ele>
        <time>2023-05-14T11:59:06.000Z</time>
      </trkpt>
      <trkpt lat="45.82008" lon="4.66745">
        <ele>294.06448</ele>
        <time>2023-05-14T11:59:07.000Z</time>
      </trkpt>
      <trkpt lat="45.82005" lon="4.66742">
        <ele>294.09982</ele>
        <time>2023-05-14T11:59:08.000Z</time>
      </trkpt>
      <trkpt lat="45.82002" lon="4.6674">
        <ele>294.15805</ele>
        <time>2023-05-14T11:59:09.000Z</time>
      </trkpt>
      <trkpt lat="45.81999" lon="4.66738">
        <ele>294.21832</ele>
        <time>2023-05-14T11:59:10.000Z</time>
      </trkpt>
      <trkpt lat="45.81996" lon="4.66736">
        <ele>294.26193</ele>
        <time>2023-05-14T11:59:11.000Z</time>
      </trkpt>
      <trkpt lat="45.81993" lon="4.66734">
        <ele>294.29053</ele>
        <time>2023-05-14T11:59:12.000Z</time>
      </trkpt>
      <trkpt lat="45.81991" lon="4.66731">
        <ele>294.34137</ele>
        <time>2023-05-14T11:59:13.000Z</time>
      </trkpt>
      <trkpt lat="45.81988" lon="4.66729">
        <ele>294.38165</ele>
        <time>2023-05-14T11:59:14.000Z</time>
      </trkpt>
      <trkpt lat="45.81985" lon="4.66726">
        <ele>294.41272</ele>
        <time>2023-05-14T11:59:15.000Z</time>
      </trkpt>
      <trkpt lat="45.81983" lon="4.66724">
        <ele>294.46027</ele>
        <time>2023-05-14T11:59:16.000Z</time>
      </trkpt>
      <trkpt lat="45.8198" lon="4.66721">
        <ele>294.49921</ele>
        <time>2023-05-14T11:59:17.000Z</time>
      </trkpt>
      <trkpt lat="45.81977" lon="4.66718">
        <ele>294.57355</ele>
        <time>2023-05-14T11:59:18.000Z</time>
      </trkpt>
      <trkpt lat="45.81974" lon="4.66716">
        <ele>294.65628</ele>
        <time>2023-05-14T11:59:19.000Z</time>
      </trkpt>
      <trkpt lat="45.81971" lon="4.66714">
        <ele>294.73627</ele>
        <time>2023-05-14T11:59:20.000Z</time>
      </trkpt>
      <trkpt lat="45.81969" lon="4.66712">
        <ele>294.80603</ele>
        <time>2023-05-14T11:59:21.000Z</time>
      </trkpt>
      <trkpt lat="45.81966" lon="4.6671">
        <ele>294.85315</ele>
        <time>2023-05-14T11:59:22.000Z</time>
      </trkpt>
      <trkpt lat="45.81963" lon="4.66708">
        <ele>294.88327</ele>
        <time>2023-05-14T11:59:23.000Z</time>
      </trkpt>
      <trkpt lat="45.8196" lon="4.66706">
        <ele>294.90375</ele>
        <time>2023-05-14T11:59:24.000Z</time>
      </trkpt>
      <trkpt lat="45.81957" lon="4.66703">
        <ele>294.92868</ele>
        <time>2023-05-14T11:59:25.000Z</time>
      </trkpt>
      <trkpt lat="45.81954" lon="4.66701">
        <ele>294.96814</ele>
        <time>2023-05-14T11:59:26.000Z</time>
      </trkpt>
      <trkpt lat="45.81951" lon="4.66698">
        <ele>295.01776</ele>
        <time>2023-05-14T11:59:27.000Z</time>
      </trkpt>
      <trkpt lat="45.81948" lon="4.66696">
        <ele>295.05441</ele>
        <time>2023-05-14T11:59:28.000Z</time>
      </trkpt>
      <trkpt lat="45.81944" lon="4.66693">
        <ele>295.09296</ele>
        <time>2023-05-14T11:59:29.000Z</time>
      </trkpt>
      <trkpt lat="45.81941" lon="4.66691">
        <ele>295.10413</ele>
        <time>2023-05-14T11:59:30.000Z</time>
      </trkpt>
      <trkpt lat="45.81938" lon="4.66688">
        <ele>295.14108</ele>
        <time>2023-05-14T11:59:31.000Z</time>
      </trkpt>
      <trkpt lat="45.81936" lon="4.66686">
        <ele>295.17441</ele>
        <time>2023-05-14T11:59:32.000Z</time>
      </trkpt>
      <trkpt lat="45.81933" lon="4.66683">
        <ele>295.18887</ele>
        <time>2023-05-14T11:59:33.000Z</time>
      </trkpt>
      <trkpt lat="45.8193" lon="4.66681">
        <ele>295.20425</ele>
        <time>2023-05-14T11:59:34.000Z</time>
      </trkpt>
      <trkpt lat="45.81928" lon="4.66679">
        <ele>295.19852</ele>
        <time>2023-05-14T11:59:35.000Z</time>
      </trkpt>
      <trkpt lat="45.81925" lon="4.66676">
        <ele>295.1763</ele>
        <time>2023-05-14T11:59:36.000Z</time>
      </trkpt>
      <trkpt lat="45.81922" lon="4.66674">
        <ele>295.17056</ele>
        <time>2023-05-14T11:59:37.000Z</time>
      </trkpt>
      <trkpt lat="45.81919" lon="4.66672">
        <ele>295.14679</ele>
        <time>2023-05-14T11:59:38.000Z</time>
      </trkpt>
      <trkpt lat="45.81916" lon="4.66669">
        <ele>295.12924</ele>
        <time>2023-05-14T11:59:39.000Z</time>
      </trkpt>
      <trkpt lat="45.81913" lon="4.66667">
        <ele>295.12689</ele>
        <time>2023-05-14T11:59:40.000Z</time>
      </trkpt>
      <trkpt lat="45.8191" lon="4.66664">
        <ele>295.15094</ele>
        <time>2023-05-14T11:59:41.000Z</time>
      </trkpt>
      <trkpt lat="45.81907" lon="4.66662">
        <ele>295.19318</ele>
        <time>2023-05-14T11:59:42.000Z</time>
      </trkpt>
      <trkpt lat="45.81904" lon="4.6666">
        <ele>295.2355</ele>
        <time>2023-05-14T11:59:43.000Z</time>
      </trkpt>
      <trkpt lat="45.81901" lon="4.66658">
        <ele>295.27582</ele>
        <time>2023-05-14T11:59:44.000Z</time>
      </trkpt>
      <trkpt lat="45.81898" lon="4.66655">
        <ele>295.32645</ele>
        <time>2023-05-14T11:59:45.000Z</time>
      </trkpt>
      <trkpt lat="45.81895" lon="4.66653">
        <ele>295.36438</ele>
        <time>2023-05-14T11:59:46.000Z</time>
      </trkpt>
      <trkpt lat="45.81892" lon="4.6665">
        <ele>295.40591</ele>
        <time>2023-05-14T11:59:47.000Z</time>
      </trkpt>
      <trkpt lat="45.81889" lon="4.66648">
        <ele>295.4516</ele>
        <time>2023-05-14T11:59:48.000Z</time>
      </trkpt>
      <trkpt lat="45.81886" lon="4.66645">
        <ele>295.48712</ele>
        <time>2023-05-14T11:59:49.000Z</time>
      </trkpt>
      <trkpt lat="45.81883" lon="4.66642">
        <ele>295.53021</ele>
        <time>2023-05-14T11:59:50.000Z</time>
      </trkpt>
      <trkpt lat="45.8188" lon="4.6664">
        <ele>295.55112</ele>
        <time>2023-05-14T11:59:51.000Z</time>
      </trkpt>
      <trkpt lat="45.81877" lon="4.66638">
        <ele>295.58649</ele>
        <time>2023-05-14T11:59:52.000Z</time>
      </trkpt>
      <trkpt lat="45.81874" lon="4.66636">
        <ele>295.63397</ele>
        <time>2023-05-14T11:59:53.000Z</time>
      </trkpt>
      <trkpt lat="45.81872" lon="4.66633">
        <ele>295.70657</ele>
        <time>2023-05-14T11:59:54.000Z</time>
      </trkpt>
      <trkpt lat="45.81869" lon="4.66632">
        <ele>295.84708</ele>
        <time>2023-05-14T11:59:55.000Z</time>
      </trkpt>
      <trkpt lat="45.81866" lon="4.6663">
        <ele>296.02957</ele>
        <time>2023-05-14T11:59:56.000Z</time>
      </trkpt>
      <trkpt lat="45.81862" lon="4.66627">
        <ele>296.21396</ele>
        <time>2023-05-14T11:59:57.000Z</time>
      </trkpt>
      <trkpt lat="45.81859" lon="4.66625">
        <ele>296.41312</ele>
        <time>2023-05-14T11:59:58.000Z</time>
      </trkpt>
      <trkpt lat="45.81855" lon="4.66622">
        <ele>296.61319</ele>
        <time>2023-05-14T11:59:59.000Z</time>
      </trkpt>
      <trkpt lat="45.81852" lon="4.66619">
        <ele>296.81918</ele>
        <time>2023-05-14T12:00:00.000Z</time>
      </trkpt>
      <trkpt lat="45.81849" lon="4.66617">
        <ele>297.04282</ele>
        <time>2023-05-14T12:00:01.000Z</time>
      </trkpt>
      <trkpt lat="45.81846" lon="4.66614">
        <ele>297.24832</ele>
        <time>2023-05-14T12:00:02.000Z</time>
      </trkpt>
      <trkpt lat="45.81843" lon="4.66612">
        <ele>297.4325</ele>
        <time>2023-05-14T12:00:03.000Z</time>
      </trkpt>
      <trkpt lat="45.81839" lon="4.66609">
        <ele>297.61304</ele>
        <time>2023-05-14T12:00:04.000Z</time>
      </trkpt>
      <trkpt lat="45.81836" lon="4.66607">
        <ele>297.81146</ele>
        <time>2023-05-14T12:00:05.000Z</time>
      </trkpt>
      <trkpt lat="45.81833" lon="4.66604">
        <ele>298.0289</ele>
        <time>2023-05-14T12:00:06.000Z</time>
      </trkpt>
      <trkpt lat="45.8183" lon="4.66601">
        <ele>298.23538</ele>
        <time>2023-05-14T12:00:07.000Z</time>
      </trkpt>
      <trkpt lat="45.81827" lon="4.66598">
        <ele>298.4538</ele>
        <time>2023-05-14T12:00:08.000Z</time>
      </trkpt>
      <trkpt lat="45.81823" lon="4.66595">
        <ele>298.65628</ele>
        <time>2023-05-14T12:00:09.000Z</time>
      </trkpt>
      <trkpt lat="45.8182" lon="4.66593">
        <ele>298.87109</ele>
        <time>2023-05-14T12:00:10.000Z</time>
      </trkpt>
      <trkpt lat="45.81817" lon="4.66591">
        <ele>299.08929</ele>
        <time>2023-05-14T12:00:11.000Z</time>
      </trkpt>
      <trkpt lat="45.81814" lon="4.66589">
        <ele>299.35162</ele>
        <time>2023-05-14T12:00:12.000Z</time>
      </trkpt>
      <trkpt lat="45.81811" lon="4.66588">
        <ele>299.65814</ele>
        <time>2023-05-14T12:00:13.000Z</time>
      </trkpt>
      <trkpt lat="45.81808" lon="4.66585">
        <ele>299.91437</ele>
        <time>2023-05-14T12:00:14.000Z</time>
      </trkpt>
      <trkpt lat="45.81804" lon="4.66583">
        <ele>300.13208</ele>
        <time>2023-05-14T12:00:15.000Z</time>
      </trkpt>
      <trkpt lat="45.81801" lon="4.6658">
        <ele>300.32767</ele>
        <time>2023-05-14T12:00:16.000Z</time>
      </trkpt>
      <trkpt lat="45.81797" lon="4.66578">
        <ele>300.51028</ele>
        <time>2023-05-14T12:00:17.000Z</time>
      </trkpt>
      <trkpt lat="45.81794" lon="4.66575">
        <ele>300.67093</ele>
        <time>2023-05-14T12:00:18.000Z</time>
      </trkpt>
      <trkpt lat="45.8179" lon="4.66572">
        <ele>300.82544</ele>
        <time>2023-05-14T12:00:19.000Z</time>
      </trkpt>
      <trkpt lat="45.81786" lon="4.6657">
        <ele>300.95291</ele>
        <time>2023-05-14T12:00:20.000Z</time>
      </trkpt>
      <trkpt lat="45.81783" lon="4.66567">
        <ele>301.0676</ele>
        <time>2023-05-14T12:00:21.000Z</time>
      </trkpt>
      <trkpt lat="45.81779" lon="4.66564">
        <ele>301.19513</ele>
        <time>2023-05-14T12:00:22.000Z</time>
      </trkpt>
      <trkpt lat="45.81776" lon="4.66561">
        <ele>301.33795</ele>
        <time>2023-05-14T12:00:23.000Z</time>
      </trkpt>
      <trkpt lat="45.81772" lon="4.66558">
        <ele>301.46222</ele>
        <time>2023-05-14T12:00:24.000Z</time>
      </trkpt>
      <trkpt lat="45.81769" lon="4.66554">
        <ele>301.61273</ele>
        <time>2023-05-14T12:00:25.000Z</time>
      </trkpt>
      <trkpt lat="45.81765" lon="4.66551">
        <ele>301.74173</ele>
        <time>2023-05-14T12:00:26.000Z</time>
      </trkpt>
      <trkpt lat="45.81762" lon="4.66549">
        <ele>301.87421</ele>
        <time>2023-05-14T12:00:27.000Z</time>
      </trkpt>
      <trkpt lat="45.81758" lon="4.66546">
        <ele>301.99008</ele>
        <time>2023-05-14T12:00:28.000Z</time>
      </trkpt>
      <trkpt lat="45.81755" lon="4.66544">
        <ele>302.12109</ele>
        <time>2023-05-14T12:00:29.000Z</time>
      </trkpt>
      <trkpt lat="45.81751" lon="4.66541">
        <ele>302.24796</ele>
        <time>2023-05-14T12:00:30.000Z</time>
      </trkpt>
      <trkpt lat="45.81748" lon="4.66538">
        <ele>302.37833</ele>
        <time>2023-05-14T12:00:31.000Z</time>
      </trkpt>
      <trkpt lat="45.81745" lon="4.66536">
        <ele>302.47006</ele>
        <time>2023-05-14T12:00:32.000Z</time>
      </trkpt>
      <trkpt lat="45.81742" lon="4.66534">
        <ele>302.47391</ele>
        <time>2023-05-14T12:00:33.000Z</time>
      </trkpt>
      <trkpt lat="45.81738" lon="4.66532">
        <ele>302.51144</ele>
        <time>2023-05-14T12:00:34.000Z</time>
      </trkpt>
      <trkpt lat="45.81735" lon="4.66531">
        <ele>302.55676</ele>
        <time>2023-05-14T12:00:35.000Z</time>
      </trkpt>
      <trkpt lat="45.81732" lon="4.6653">
        <ele>302.60001</ele>
        <time>2023-05-14T12:00:36.000Z</time>
      </trkpt>
      <trkpt lat="45.81729" lon="4.6653">
        <ele>302.63223</ele>
        <time>2023-05-14T12:00:37.000Z</time>
      </trkpt>
      <trkpt lat="45.81727" lon="4.6653">
        <ele>302.7142</ele>
        <time>2023-05-14T12:00:38.000Z</time>
      </trkpt>
      <trkpt lat="45.81724" lon="4.6653">
        <ele>302.7645</ele>
        <time>2023-05-14T12:00:39.000Z</time>
      </trkpt>
      <trkpt lat="45.81722" lon="4.66531">
        <ele>302.88165</ele>
        <time>2023-05-14T12:00:40.000Z</time>
      </trkpt>
      <trkpt lat="45.81719" lon="4.66532">
        <ele>302.9809</ele>
        <time>2023-05-14T12:00:41.000Z</time>
      </trkpt>
      <trkpt lat="45.81717" lon="4.6653">
        <ele>303.08331</ele>
        <time>2023-05-14T12:00:42.000Z</time>
      </trkpt>
      <trkpt lat="45.81716" lon="4.66527">
        <ele>303.18158</ele>
        <time>2023-05-14T12:00:43.000Z</time>
      </trkpt>
      <trkpt lat="45.81716" lon="4.66523">
        <ele>303.30649</ele>
        <time>2023-05-14T12:00:44.000Z</time>
      </trkpt>
      <trkpt lat="45.81719" lon="4.66519">
        <ele>303.36935</ele>
        <time>2023-05-14T12:00:45.000Z</time>
      </trkpt>
      <trkpt lat="45.81721" lon="4.66516">
        <ele>303.44073</ele>
        <time>2023-05-14T12:00:46.000Z</time>
      </trkpt>
      <trkpt lat="45.81724" lon="4.66512">
        <ele>303.50262</ele>
        <time>2023-05-14T12:00:47.000Z</time>
      </trkpt>
      <trkpt lat="45.81726" lon="4.66508">
        <ele>303.57318</ele>
        <time>2023-05-14T12:00:48.000Z</time>
      </trkpt>
      <trkpt lat="45.81727" lon="4.66503">
        <ele>303.65091</ele>
        <time>2023-05-14T12:00:49.000Z</time>
      </trkpt>
      <trkpt lat="45.81728" lon="4.66498">
        <ele>303.71518</ele>
        <time>2023-05-14T12:00:50.000Z</time>
      </trkpt>
      <trkpt lat="45.81727" lon="4.66492">
        <ele>303.77408</ele>
        <time>2023-05-14T12:00:51.000Z</time>
      </trkpt>
      <trkpt lat="45.81727" lon="4.66487">
        <ele>303.83527</ele>
        <time>2023-05-14T12:00:52.000Z</time>
      </trkpt>
      <trkpt lat="45.81726" lon="4.66482">
        <ele>303.93463</ele>
        <time>2023-05-14T12:00:53.000Z</time>
      </trkpt>
      <trkpt lat="45.81727" lon="4.66477">
        <ele>304.02997</ele>
        <time>2023-05-14T12:00:54.000Z</time>
      </trkpt>
      <trkpt lat="45.81728" lon="4.66472">
        <ele>304.0849</ele>
        <time>2023-05-14T12:00:55.000Z</time>
      </trkpt>
      <trkpt lat="45.8173" lon="4.66467">
        <ele>304.15872</ele>
        <time>2023-05-14T12:00:56.000Z</time>
      </trkpt>
      <trkpt lat="45.81732" lon="4.66463">
        <ele>304.27423</ele>
        <time>2023-05-14T12:00:57.000Z</time>
      </trkpt>
      <trkpt lat="45.81734" lon="4.66459">
        <ele>304.36591</ele>
        <time>2023-05-14T12:00:58.000Z</time>
      </trkpt>
      <trkpt lat="45.81736" lon="4.66454">
        <ele>304.48416</ele>
        <time>2023-05-14T12:00:59.000Z</time>
      </trkpt>
      <trkpt lat="45.81738" lon="4.6645">
        <ele>304.50696</ele>
        <time>2023-05-14T12:01:00.000Z</time>
      </trkpt>
      <trkpt lat="45.8174" lon="4.66446">
        <ele>304.55032</ele>
        <time>2023-05-14T12:01:01.000Z</time>
      </trkpt>
      <trkpt lat="45.81742" lon="4.66442">
        <ele>304.61163</ele>
        <time>2023-05-14T12:01:02.000Z</time>
      </trkpt>
      <trkpt lat="45.81745" lon="4.66438">
        <ele>304.6886</ele>
        <time>2023-05-14T12:01:03.000Z</time>
      </trkpt>
      <trkpt lat="45.81747" lon="4.66434">
        <ele>304.74628</ele>
        <time>2023-05-14T12:01:04.000Z</time>
      </trkpt>
      <trkpt lat="45.81749" lon="4.6643">
        <ele>304.8356</ele>
        <time>2023-05-14T12:01:05.000Z</time>
      </trkpt>
      <trkpt lat="45.8175" lon="4.66426">
        <ele>304.93243</ele>
        <time>2023-05-14T12:01:06.000Z</time>
      </trkpt>
      <trkpt lat="45.81752" lon="4.66422">
        <ele>305.05228</ele>
        <time>2023-05-14T12:01:07.000Z</time>
      </trkpt>
      <trkpt lat="45.81754" lon="4.66418">
        <ele>305.17383</ele>
        <time>2023-05-14T12:01:08.000Z</time>
      </trkpt>
      <trkpt lat="45.81756" lon="4.66414">
        <ele>305.28751</ele>
        <time>2023-05-14T12:01:09.000Z</time>
      </trkpt>
      <trkpt lat="45.81757" lon="4.6641">
        <ele>305.42596</ele>
        <time>2023-05-14T12:01:10.000Z</time>
      </trkpt>
      <trkpt lat="45.81759" lon="4.66406">
        <ele>305.57446</ele>
        <time>2023-05-14T12:01:11.000Z</time>
      </trkpt>
      <trkpt lat="45.81761" lon="4.66402">
        <ele>305.7287</ele>
        <time>2023-05-14T12:01:12.000Z</time>
      </trkpt>
      <trkpt lat="45.81763" lon="4.66398">
        <ele>305.88361</ele>
        <time>2023-05-14T12:01:13.000Z</time>
      </trkpt>
      <trkpt lat="45.81765" lon="4.66394">
        <ele>306.04089</ele>
        <time>2023-05-14T12:01:14.000Z</time>
      </trkpt>
      <trkpt lat="45.81767" lon="4.6639">
        <ele>306.22864</ele>
        <time>2023-05-14T12:01:15.000Z</time>
      </trkpt>
      <trkpt lat="45.81769" lon="4.66386">
        <ele>306.41641</ele>
        <time>2023-05-14T12:01:16.000Z</time>
      </trkpt>
      <trkpt lat="45.8177" lon="4.66382">
        <ele>306.59052</ele>
        <time>2023-05-14T12:01:17.000Z</time>
      </trkpt>
      <trkpt lat="45.81771" lon="4.66378">
        <ele>306.77695</ele>
        <time>2023-05-14T12:01:18.000Z</time>
      </trkpt>
      <trkpt lat="45.8177" lon="4.66373">
        <ele>306.96976</ele>
        <time>2023-05-14T12:01:19.000Z</time>
      </trkpt>
      <trkpt lat="45.81768" lon="4.66369">
        <ele>307.15979</ele>
        <time>2023-05-14T12:01:20.000Z</time>
      </trkpt>
      <trkpt lat="45.81765" lon="4.66365">
        <ele>307.34198</ele>
        <time>2023-05-14T12:01:21.000Z</time>
      </trkpt>
      <trkpt lat="45.81762" lon="4.66361">
        <ele>307.50766</ele>
        <time>2023-05-14T12:01:22.000Z</time>
      </trkpt>
      <trkpt lat="45.81761" lon="4.66356">
        <ele>307.67151</ele>
        <time>2023-05-14T12:01:23.000Z</time>
      </trkpt>
      <trkpt lat="45.81761" lon="4.66351">
        <ele>307.84561</ele>
        <time>2023-05-14T12:01:24.000Z</time>
      </trkpt>
      <trkpt lat="45.81761" lon="4.66345">
        <ele>308.01102</ele>
        <time>2023-05-14T12:01:25.000Z</time>
      </trkpt>
      <trkpt lat="45.81761" lon="4.6634">
        <ele>308.17755</ele>
        <time>2023-05-14T12:01:26.000Z</time>
      </trkpt>
      <trkpt lat="45.81761" lon="4.66334">
        <ele>308.32007</ele>
        <time>2023-05-14T12:01:27.000Z</time>
      </trkpt>
      <trkpt lat="45.81759" lon="4.66329">
        <ele>308.42279</ele>
        <time>2023-05-14T12:01:28.000Z</time>
      </trkpt>
      <trkpt lat="45.81758" lon="4.66324">
        <ele>308.51031</ele>
        <time>2023-05-14T12:01:29.000Z</time>
      </trkpt>
      <trkpt lat="45.81756" lon="4.6632">
        <ele>308.57803</ele>
        <time>2023-05-14T12:01:30.000Z</time>
      </trkpt>
      <trkpt lat="45.81755" lon="4.66316">
        <ele>308.6203</ele>
        <time>2023-05-14T12:01:31.000Z</time>
      </trkpt>
      <trkpt lat="45.81754" lon="4.66312">
        <ele>308.59402</ele>
        <time>2023-05-14T12:01:32.000Z</time>
      </trkpt>
      <trkpt lat="45.81752" lon="4.66309">
        <ele>308.54797</ele>
        <time>2023-05-14T12:01:33.000Z</time>
      </trkpt>
      <trkpt lat="45.81751" lon="4.66306">
        <ele>308.53949</ele>
        <time>2023-05-14T12:01:34.000Z</time>
      </trkpt>
      <trkpt lat="45.8175" lon="4.66304">
        <ele>308.57202</ele>
        <time>2023-05-14T12:01:35.000Z</time>
      </trkpt>
      <trkpt lat="45.81748" lon="4.66302">
        <ele>308.61896</ele>
        <time>2023-05-14T12:01:36.000Z</time>
      </trkpt>
      <trkpt lat="45.81747" lon="4.66299">
        <ele>308.68658</ele>
        <time>2023-05-14T12:01:37.000Z</time>
      </trkpt>
      <trkpt lat="45.81745" lon="4.66296">
        <ele>308.75568</ele>
        <time>2023-05-14T12:01:38.000Z</time>
      </trkpt>
      <trkpt lat="45.81742" lon="4.66293">
        <ele>308.78641</ele>
        <time>2023-05-14T12:01:39.000Z</time>
      </trkpt>
      <trkpt lat="45.81739" lon="4.66291">
        <ele>308.89203</ele>
        <time>2023-05-14T12:01:40.000Z</time>
      </trkpt>
      <trkpt lat="45.81736" lon="4.66289">
        <ele>308.98218</ele>
        <time>2023-05-14T12:01:41.000Z</time>
      </trkpt>
      <trkpt lat="45.81733" lon="4.66286">
        <ele>309.04407</ele>
        <time>2023-05-14T12:01:42.000Z</time>
      </trkpt>
      <trkpt lat="45.8173" lon="4.66283">
        <ele>309.10196</ele>
        <time>2023-05-14T12:01:43.000Z</time>
      </trkpt>
      <trkpt lat="45.81727" lon="4.6628">
        <ele>309.14252</ele>
        <time>2023-05-14T12:01:44.000Z</time>
      </trkpt>
      <trkpt lat="45.81724" lon="4.66278">
        <ele>309.15509</ele>
        <time>2023-05-14T12:01:45.000Z</time>
      </trkpt>
      <trkpt lat="45.81721" lon="4.66275">
        <ele>309.151</ele>
        <time>2023-05-14T12:01:46.000Z</time>
      </trkpt>
      <trkpt lat="45.81718" lon="4.66272">
        <ele>309.17392</ele>
        <time>2023-05-14T12:01:47.000Z</time>
      </trkpt>
      <trkpt lat="45.81715" lon="4.66269">
        <ele>309.21594</ele>
        <time>2023-05-14T12:01:48.000Z</time>
      </trkpt>
      <trkpt lat="45.81713" lon="4.66267">
        <ele>309.25351</ele>
        <time>2023-05-14T12:01:49.000Z</time>
      </trkpt>
      <trkpt lat="45.81711" lon="4.66264">
        <ele>309.30124</ele>
        <time>2023-05-14T12:01:50.000Z</time>
      </trkpt>
      <trkpt lat="45.81707" lon="4.66261">
        <ele>309.37225</ele>
        <time>2023-05-14T12:01:51.000Z</time>
      </trkpt>
      <trkpt lat="45.81704" lon="4.66258">
        <ele>309.48062</ele>
        <time>2023-05-14T12:01:52.000Z</time>
      </trkpt>
      <trkpt lat="45.81701" lon="4.66254">
        <ele>309.62131</ele>
        <time>2023-05-14T12:01:53.000Z</time>
      </trkpt>
      <trkpt lat="45.81699" lon="4.66249">
        <ele>309.74054</ele>
        <time>2023-05-14T12:01:54.000Z</time>
      </trkpt>
      <trkpt lat="45.81696" lon="4.66245">
        <ele>309.82416</ele>
        <time>2023-05-14T12:01:55.000Z</time>
      </trkpt>
      <trkpt lat="45.81693" lon="4.6624">
        <ele>309.9184</ele>
        <time>2023-05-14T12:01:56.000Z</time>
      </trkpt>
      <trkpt lat="45.8169" lon="4.66236">
        <ele>309.96567</ele>
        <time>2023-05-14T12:01:57.000Z</time>
      </trkpt>
      <trkpt lat="45.81688" lon="4.66231">
        <ele>309.99115</ele>
        <time>2023-05-14T12:01:58.000Z</time>
      </trkpt>
      <trkpt lat="45.81685" lon="4.66226">
        <ele>310.0101</ele>
        <time>2023-05-14T12:01:59.000Z</time>
      </trkpt>
      <trkpt lat="45.81683" lon="4.66221">
        <ele>309.97891</ele>
        <time>2023-05-14T12:02:00.000Z</time>
      </trkpt>
      <trkpt lat="45.8168" lon="4.66217">
        <ele>309.94675</ele>
        <time>2023-05-14T12:02:01.000Z</time>
      </trkpt>
      <trkpt lat="45.81677" lon="4.66212">
        <ele>309.96222</ele>
        <time>2023-05-14T12:02:02.000Z</time>
      </trkpt>
      <trkpt lat="45.81675" lon="4.66208">
        <ele>309.98248</ele>
        <time>2023-05-14T12:02:03.000Z</time>
      </trkpt>
      <trkpt lat="45.81672" lon="4.66203">
        <ele>309.99576</ele>
        <time>2023-05-14T12:02:04.000Z</time>
      </trkpt>
      <trkpt lat="45.8167" lon="4.66198">
        <ele>310.00256</ele>
        <time>2023-05-14T12:02:05.000Z</time>
      </trkpt>
      <trkpt lat="45.81667" lon="4.66192">
        <ele>310.02905</ele>
        <time>2023-05-14T12:02:06.000Z</time>
      </trkpt>
      <trkpt lat="45.81665" lon="4.66187">
        <ele>310.02179</ele>
        <time>2023-05-14T12:02:07.000Z</time>
      </trkpt>
      <trkpt lat="45.81663" lon="4.66183">
        <ele>310.0369</ele>
        <time>2023-05-14T12:02:08.000Z</time>
      </trkpt>
      <trkpt lat="45.8166" lon="4.66178">
        <ele>310.10672</ele>
        <time>2023-05-14T12:02:09.000Z</time>
      </trkpt>
      <trkpt lat="45.81658" lon="4.66173">
        <ele>310.17145</ele>
        <time>2023-05-14T12:02:10.000Z</time>
      </trkpt>
      <trkpt lat="45.81655" lon="4.66169">
        <ele>310.24576</ele>
        <time>2023-05-14T12:02:11.000Z</time>
      </trkpt>
      <trkpt lat="45.81652" lon="4.66164">
        <ele>310.31995</ele>
        <time>2023-05-14T12:02:12.000Z</time>
      </trkpt>
      <trkpt lat="45.8165" lon="4.66159">
        <ele>310.35809</ele>
        <time>2023-05-14T12:02:13.000Z</time>
      </trkpt>
      <trkpt lat="45.81647" lon="4.66154">
        <ele>310.35126</ele>
        <time>2023-05-14T12:02:14.000Z</time>
      </trkpt>
      <trkpt lat="45.81644" lon="4.6615">
        <ele>310.32071</ele>
        <time>2023-05-14T12:02:15.000Z</time>
      </trkpt>
      <trkpt lat="45.81641" lon="4.66145">
        <ele>310.20953</ele>
        <time>2023-05-14T12:02:16.000Z</time>
      </trkpt>
      <trkpt lat="45.81638" lon="4.6614">
        <ele>310.09952</ele>
        <time>2023-05-14T12:02:17.000Z</time>
      </trkpt>
      <trkpt lat="45.81636" lon="4.66136">
        <ele>309.9791</ele>
        <time>2023-05-14T12:02:18.000Z</time>
      </trkpt>
      <trkpt lat="45.81633" lon="4.66131">
        <ele>309.89282</ele>
        <time>2023-05-14T12:02:19.000Z</time>
      </trkpt>
      <trkpt lat="45.81631" lon="4.66126">
        <ele>309.80914</ele>
        <time>2023-05-14T12:02:20.000Z</time>
      </trkpt>
      <trkpt lat="45.81628" lon="4.66121">
        <ele>309.68893</ele>
        <time>2023-05-14T12:02:21.000Z</time>
      </trkpt>
      <trkpt lat="45.81626" lon="4.66117">
        <ele>309.54901</ele>
        <time>2023-05-14T12:02:22.000Z</time>
      </trkpt>
      <trkpt lat="45.81623" lon="4.66112">
        <ele>309.41901</ele>
        <time>2023-05-14T12:02:23.000Z</time>
      </trkpt>
      <trkpt lat="45.8162" lon="4.66109">
        <ele>309.30408</ele>
        <time>2023-05-14T12:02:24.000Z</time>
      </trkpt>
      <trkpt lat="45.81616" lon="4.66106">
        <ele>309.25116</ele>
        <time>2023-05-14T12:02:25.000Z</time>
      </trkpt>
      <trkpt lat="45.81612" lon="4.66104">
        <ele>309.21838</ele>
        <time>2023-05-14T12:02:26.000Z</time>
      </trkpt>
      <trkpt lat="45.8161" lon="4.661">
        <ele>309.17477</ele>
        <time>2023-05-14T12:02:27.000Z</time>
      </trkpt>
      <trkpt lat="45.81608" lon="4.66096">
        <ele>309.17526</ele>
        <time>2023-05-14T12:02:28.000Z</time>
      </trkpt>
      <trkpt lat="45.81605" lon="4.66091">
        <ele>309.15955</ele>
        <time>2023-05-14T12:02:29.000Z</time>
      </trkpt>
      <trkpt lat="45.81603" lon="4.66088">
        <ele>309.14569</ele>
        <time>2023-05-14T12:02:30.000Z</time>
      </trkpt>
      <trkpt lat="45.81601" lon="4.66083">
        <ele>309.34912</ele>
        <time>2023-05-14T12:02:31.000Z</time>
      </trkpt>
      <trkpt lat="45.81599" lon="4.66078">
        <ele>309.67551</ele>
        <time>2023-05-14T12:02:32.000Z</time>
      </trkpt>
      <trkpt lat="45.81597" lon="4.66073">
        <ele>309.99802</ele>
        <time>2023-05-14T12:02:33.000Z</time>
      </trkpt>
      <trkpt lat="45.81595" lon="4.66069">
        <ele>310.33997</ele>
        <time>2023-05-14T12:02:34.000Z</time>
      </trkpt>
      <trkpt lat="45.81594" lon="4.66063">
        <ele>310.6579</ele>
        <time>2023-05-14T12:02:35.000Z</time>
      </trkpt>
      <trkpt lat="45.81592" lon="4.66059">
        <ele>311.00937</ele>
        <time>2023-05-14T12:02:36.000Z</time>
      </trkpt>
      <trkpt lat="45.81591" lon="4.66054">
        <ele>311.39972</ele>
        <time>2023-05-14T12:02:37.000Z</time>
      </trkpt>
      <trkpt lat="45.8159" lon="4.66049">
        <ele>311.82181</ele>
        <time>2023-05-14T12:02:38.000Z</time>
      </trkpt>
      <trkpt lat="45.81588" lon="4.66044">
        <ele>312.22266</ele>
        <time>2023-05-14T12:02:39.000Z</time>
      </trkpt>
      <trkpt lat="45.81587" lon="4.6604">
        <ele>312.63809</ele>
        <time>2023-05-14T12:02:40.000Z</time>
      </trkpt>
      <trkpt lat="45.81586" lon="4.66035">
        <ele>313.09598</ele>
        <time>2023-05-14T12:02:41.000Z</time>
      </trkpt>
      <trkpt lat="45.81584" lon="4.6603">
        <ele>313.5365</ele>
        <time>2023-05-14T12:02:42.000Z</time>
      </trkpt>
      <trkpt lat="45.81583" lon="4.66025">
        <ele>313.98273</ele>
        <time>2023-05-14T12:02:43.000Z</time>
      </trkpt>
      <trkpt lat="45.81582" lon="4.6602">
        <ele>314.42554</ele>
        <time>2023-05-14T12:02:44.000Z</time>
      </trkpt>
      <trkpt lat="45.81581" lon="4.66015">
        <ele>314.19525</ele>
        <time>2023-05-14T12:02:45.000Z</time>
      </trkpt>
      <trkpt lat="45.8158" lon="4.66011">
        <ele>313.99677</ele>
        <time>2023-05-14T12:02:46.000Z</time>
      </trkpt>
      <trkpt lat="45.8158" lon="4.66006">
        <ele>313.93381</ele>
        <time>2023-05-14T12:02:47.000Z</time>
      </trkpt>
      <trkpt lat="45.81579" lon="4.66001">
        <ele>313.89526</ele>
        <time>2023-05-14T12:02:48.000Z</time>
      </trkpt>
      <trkpt lat="45.81578" lon="4.65996">
        <ele>313.8465</ele>
        <time>2023-05-14T12:02:49.000Z</time>
      </trkpt>
      <trkpt lat="45.81577" lon="4.65992">
        <ele>313.8096</ele>
        <time>2023-05-14T12:02:50.000Z</time>
      </trkpt>
      <trkpt lat="45.81576" lon="4.65987">
        <ele>313.53778</ele>
        <time>2023-05-14T12:02:51.000Z</time>
      </trkpt>
      <trkpt lat="45.81575" lon="4.65982">
        <ele>313.07019</ele>
        <time>2023-05-14T12:02:52.000Z</time>
      </trkpt>
      <trkpt lat="45.81574" lon="4.65977">
        <ele>312.5788</ele>
        <time>2023-05-14T12:02:53.000Z</time>
      </trkpt>
      <trkpt lat="45.81573" lon="4.65972">
        <ele>312.73349</ele>
        <time>2023-05-14T12:02:54.000Z</time>
      </trkpt>
      <trkpt lat="45.81573" lon="4.65969">
        <ele>312.97321</ele>
        <time>2023-05-14T12:02:55.000Z</time>
      </trkpt>
      <trkpt lat="45.81572" lon="4.65965">
        <ele>312.73907</ele>
        <time>2023-05-14T12:02:56.000Z</time>
      </trkpt>
      <trkpt lat="45.81571" lon="4.6596">
        <ele>312.45868</ele>
        <time>2023-05-14T12:02:57.000Z</time>
      </trkpt>
      <trkpt lat="45.8157" lon="4.65956">
        <ele>312.26971</ele>
        <time>2023-05-14T12:02:58.000Z</time>
      </trkpt>
      <trkpt lat="45.8157" lon="4.65951">
        <ele>312.16376</ele>
        <time>2023-05-14T12:02:59.000Z</time>
      </trkpt>
      <trkpt lat="45.8157" lon="4.65946">
        <ele>312.09772</ele>
        <time>2023-05-14T12:03:00.000Z</time>
      </trkpt>
      <trkpt lat="45.8157" lon="4.65941">
        <ele>312.06763</ele>
        <time>2023-05-14T12:03:01.000Z</time>
      </trkpt>
      <trkpt lat="45.8157" lon="4.65936">
        <ele>312.00006</ele>
        <time>2023-05-14T12:03:02.000Z</time>
      </trkpt>
      <trkpt lat="45.81569" lon="4.65931">
        <ele>311.82397</ele>
        <time>2023-05-14T12:03:03.000Z</time>
      </trkpt>
      <trkpt lat="45.81569" lon="4.65925">
        <ele>311.75275</ele>
        <time>2023-05-14T12:03:04.000Z</time>
      </trkpt>
      <trkpt lat="45.81569" lon="4.6592">
        <ele>312.23654</ele>
        <time>2023-05-14T12:03:05.000Z</time>
      </trkpt>
      <trkpt lat="45.81569" lon="4.65915">
        <ele>312.5932</ele>
        <time>2023-05-14T12:03:06.000Z</time>
      </trkpt>
      <trkpt lat="45.81568" lon="4.65911">
        <ele>312.92389</ele>
        <time>2023-05-14T12:03:07.000Z</time>
      </trkpt>
      <trkpt lat="45.81568" lon="4.65906">
        <ele>313.10944</ele>
        <time>2023-05-14T12:03:08.000Z</time>
      </trkpt>
      <trkpt lat="45.81568" lon="4.65901">
        <ele>314.03162</ele>
        <time>2023-05-14T12:03:09.000Z</time>
      </trkpt>
      <trkpt lat="45.81567" lon="4.65896">
        <ele>314.89905</ele>
        <time>2023-05-14T12:03:10.000Z</time>
      </trkpt>
      <trkpt lat="45.81567" lon="4.65891">
        <ele>315.71661</ele>
        <time>2023-05-14T12:03:11.000Z</time>
      </trkpt>
      <trkpt lat="45.81566" lon="4.65886">
        <ele>316.63092</ele>
        <time>2023-05-14T12:03:12.000Z</time>
      </trkpt>
      <trkpt lat="45.81566" lon="4.65881">
        <ele>317.52838</ele>
        <time>2023-05-14T12:03:13.000Z</time>
      </trkpt>
      <trkpt lat="45.81565" lon="4.65876">
        <ele>317.7897</ele>
        <time>2023-05-14T12:03:14.000Z</time>
      </trkpt>
      <trkpt lat="45.81565" lon="4.65872">
        <ele>318.04169</ele>
        <time>2023-05-14T12:03:15.000Z</time>
      </trkpt>
      <trkpt lat="45.81565" lon="4.65866">
        <ele>318.72922</ele>
        <time>2023-05-14T12:03:16.000Z</time>
      </trkpt>
      <trkpt lat="45.81565" lon="4.65861">
        <ele>319.46832</ele>
        <time>2023-05-14T12:03:17.000Z</time>
      </trkpt>
      <trkpt lat="45.81564" lon="4.65856">
        <ele>320.12881</ele>
        <time>2023-05-14T12:03:18.000Z</time>
      </trkpt>
      <trkpt lat="45.81564" lon="4.6585">
        <ele>320.73029</ele>
        <time>2023-05-14T12:03:19.000Z</time>
      </trkpt>
      <trkpt lat="45.81564" lon="4.65844">
        <ele>321.28351</ele>
        <time>2023-05-14T12:03:20.000Z</time>
      </trkpt>
      <trkpt lat="45.81563" lon="4.65837">
        <ele>321.77222</ele>
        <time>2023-05-14T12:03:21.000Z</time>
      </trkpt>
      <trkpt lat="45.81561" lon="4.6583">
        <ele>322.3204</ele>
        <time>2023-05-14T12:03:22.000Z</time>
      </trkpt>
      <trkpt lat="45.81561" lon="4.65823">
        <ele>322.95297</ele>
        <time>2023-05-14T12:03:23.000Z</time>
      </trkpt>
      <trkpt lat="45.8156" lon="4.65816">
        <ele>323.48029</ele>
        <time>2023-05-14T12:03:24.000Z</time>
      </trkpt>
      <trkpt lat="45.81559" lon="4.65808">
        <ele>324.07755</ele>
        <time>2023-05-14T12:03:25.000Z</time>
      </trkpt>
      <trkpt lat="45.81557" lon="4.658">
        <ele>324.74893</ele>
        <time>2023-05-14T12:03:26.000Z</time>
      </trkpt>
      <trkpt lat="45.81556" lon="4.65793">
        <ele>325.33215</ele>
        <time>2023-05-14T12:03:27.000Z</time>
      </trkpt>
      <trkpt lat="45.81555" lon="4.65787">
        <ele>325.98056</ele>
        <time>2023-05-14T12:03:28.000Z</time>
      </trkpt>
      <trkpt lat="45.81556" lon="4.65781">
        <ele>325.84555</ele>
        <time>2023-05-14T12:03:29.000Z</time>
      </trkpt>
      <trkpt lat="45.81558" lon="4.65776">
        <ele>325.76987</ele>
        <time>2023-05-14T12:03:30.000Z</time>
      </trkpt>
      <trkpt lat="45.81559" lon="4.65771">
        <ele>325.7468</ele>
        <time>2023-05-14T12:03:31.000Z</time>
      </trkpt>
      <trkpt lat="45.81559" lon="4.65764">
        <ele>325.69653</ele>
        <time>2023-05-14T12:03:32.000Z</time>
      </trkpt>
      <trkpt lat="45.81559" lon="4.65757">
        <ele>325.67908</ele>
        <time>2023-05-14T12:03:33.000Z</time>
      </trkpt>
      <trkpt lat="45.81558" lon="4.65748">
        <ele>325.1727</ele>
        <time>2023-05-14T12:03:34.000Z</time>
      </trkpt>
      <trkpt lat="45.81559" lon="4.65737">
        <ele>324.5943</ele>
        <time>2023-05-14T12:03:35.000Z</time>
      </trkpt>
      <trkpt lat="45.81558" lon="4.65725">
        <ele>324.01663</ele>
        <time>2023-05-14T12:03:36.000Z</time>
      </trkpt>
      <trkpt lat="45.81558" lon="4.65713">
        <ele>323.36694</ele>
        <time>2023-05-14T12:03:37.000Z</time>
      </trkpt>
      <trkpt lat="45.81558" lon="4.657">
        <ele>322.67212</ele>
        <time>2023-05-14T12:03:38.000Z</time>
      </trkpt>
      <trkpt lat="45.81558" lon="4.65689">
        <ele>321.90912</ele>
        <time>2023-05-14T12:03:39.000Z</time>
      </trkpt>
      <trkpt lat="45.81559" lon="4.65679">
        <ele>321.11594</ele>
        <time>2023-05-14T12:03:40.000Z</time>
      </trkpt>
      <trkpt lat="45.81558" lon="4.65664">
        <ele>320.33972</ele>
        <time>2023-05-14T12:03:41.000Z</time>
      </trkpt>
      <trkpt lat="45.81557" lon="4.6565">
        <ele>319.6557</ele>
        <time>2023-05-14T12:03:42.000Z</time>
      </trkpt>
      <trkpt lat="45.81557" lon="4.65637">
        <ele>318.86383</ele>
        <time>2023-05-14T12:03:43.000Z</time>
      </trkpt>
      <trkpt lat="45.81558" lon="4.65623">
        <ele>318.0564</ele>
        <time>2023-05-14T12:03:44.000Z</time>
      </trkpt>
      <trkpt lat="45.81558" lon="4.65609">
        <ele>317.23184</ele>
        <time>2023-05-14T12:03:45.000Z</time>
      </trkpt>
      <trkpt lat="45.81558" lon="4.65595">
        <ele>316.36493</ele>
        <time>2023-05-14T12:03:46.000Z</time>
      </trkpt>
      <trkpt lat="45.81556" lon="4.6558">
        <ele>315.46143</ele>
        <time>2023-05-14T12:03:47.000Z</time>
      </trkpt>
      <trkpt lat="45.81555" lon="4.65565">
        <ele>314.47729</ele>
        <time>2023-05-14T12:03:48.000Z</time>
      </trkpt>
      <trkpt lat="45.81553" lon="4.65551">
        <ele>313.50079</ele>
        <time>2023-05-14T12:03:49.000Z</time>
      </trkpt>
      <trkpt lat="45.81549" lon="4.65535">
        <ele>312.50934</ele>
        <time>2023-05-14T12:03:50.000Z</time>
      </trkpt>
      <trkpt lat="45.81546" lon="4.65519">
        <ele>311.47653</ele>
        <time>2023-05-14T12:03:51.000Z</time>
      </trkpt>
      <trkpt lat="45.81544" lon="4.65502">
        <ele>310.36908</ele>
        <time>2023-05-14T12:03:52.000Z</time>
      </trkpt>
      <trkpt lat="45.81541" lon="4.65486">
        <ele>309.21912</ele>
        <time>2023-05-14T12:03:53.000Z</time>
      </trkpt>
      <trkpt lat="45.81539" lon="4.65471">
        <ele>308.49933</ele>
        <time>2023-05-14T12:03:54.000Z</time>
      </trkpt>
      <trkpt lat="45.81539" lon="4.65456">
        <ele>307.80206</ele>
        <time>2023-05-14T12:03:55.000Z</time>
      </trkpt>
      <trkpt lat="45.8154" lon="4.65443">
        <ele>307.15192</ele>
        <time>2023-05-14T12:03:56.000Z</time>
      </trkpt>
      <trkpt lat="45.81541" lon="4.6543">
        <ele>306.52713</ele>
        <time>2023-05-14T12:03:57.000Z</time>
      </trkpt>
      <trkpt lat="45.81542" lon="4.6542">
        <ele>305.92084</ele>
        <time>2023-05-14T12:03:58.000Z</time>
      </trkpt>
      <trkpt lat="45.81543" lon="4.65411">
        <ele>305.38089</ele>
        <time>2023-05-14T12:03:59.000Z</time>
      </trkpt>
      <trkpt lat="45.81544" lon="4.65404">
        <ele>304.84467</ele>
        <time>2023-05-14T12:04:00.000Z</time>
      </trkpt>
      <trkpt lat="45.81544" lon="4.65398">
        <ele>304.30783</ele>
        <time>2023-05-14T12:04:01.000Z</time>
      </trkpt>
      <trkpt lat="45.81545" lon="4.65394">
        <ele>303.62445</ele>
        <time>2023-05-14T12:04:02.000Z</time>
      </trkpt>
      <trkpt lat="45.81545" lon="4.6539">
        <ele>303.03372</ele>
        <time>2023-05-14T12:04:03.000Z</time>
      </trkpt>
      <trkpt lat="45.81546" lon="4.65387">
        <ele>302.47791</ele>
        <time>2023-05-14T12:04:04.000Z</time>
      </trkpt>
      <trkpt lat="45.81548" lon="4.65381">
        <ele>301.91315</ele>
        <time>2023-05-14T12:04:05.000Z</time>
      </trkpt>
      <trkpt lat="45.8155" lon="4.65379">
        <ele>301.40897</ele>
        <time>2023-05-14T12:04:06.000Z</time>
      </trkpt>
      <trkpt lat="45.81551" lon="4.65375">
        <ele>300.91623</ele>
        <time>2023-05-14T12:04:07.000Z</time>
      </trkpt>
      <trkpt lat="45.8155" lon="4.65372">
        <ele>300.47418</ele>
        <time>2023-05-14T12:04:09.000Z</time>
      </trkpt>
      <trkpt lat="45.81549" lon="4.6537">
        <ele>299.99649</ele>
        <time>2023-05-14T12:04:34.000Z</time>
      </trkpt>
      <trkpt lat="45.81549" lon="4.65367">
        <ele>299.52832</ele>
        <time>2023-05-14T12:04:44.000Z</time>
      </trkpt>
      <trkpt lat="45.81551" lon="4.65365">
        <ele>299.12668</ele>
        <time>2023-05-14T12:04:46.000Z</time>
      </trkpt>
      <trkpt lat="45.81553" lon="4.65363">
        <ele>298.80441</ele>
        <time>2023-05-14T12:04:47.000Z</time>
      </trkpt>
      <trkpt lat="45.81555" lon="4.6536">
        <ele>298.56146</ele>
        <time>2023-05-14T12:04:48.000Z</time>
      </trkpt>
      <trkpt lat="45.81557" lon="4.65357">
        <ele>298.36273</ele>
        <time>2023-05-14T12:04:49.000Z</time>
      </trkpt>
      <trkpt lat="45.81558" lon="4.65355">
        <ele>298.18628</ele>
        <time>2023-05-14T12:04:50.000Z</time>
      </trkpt>
      <trkpt lat="45.8156" lon="4.65354">
        <ele>298.0257</ele>
        <time>2023-05-14T12:04:51.000Z</time>
      </trkpt>
      <trkpt lat="45.81562" lon="4.65357">
        <ele>297.90381</ele>
        <time>2023-05-14T12:04:53.000Z</time>
      </trkpt>
      <trkpt lat="45.81561" lon="4.65359">
        <ele>297.80475</ele>
        <time>2023-05-14T12:04:54.000Z</time>
      </trkpt>
      <trkpt lat="45.81559" lon="4.65362">
        <ele>297.66998</ele>
        <time>2023-05-14T12:04:55.000Z</time>
      </trkpt>
      <trkpt lat="45.81557" lon="4.65365">
        <ele>297.52734</ele>
        <time>2023-05-14T12:04:56.000Z</time>
      </trkpt>
      <trkpt lat="45.81556" lon="4.65367">
        <ele>297.42105</ele>
        <time>2023-05-14T12:04:57.000Z</time>
      </trkpt>
      <trkpt lat="45.81554" lon="4.6537">
        <ele>297.36908</ele>
        <time>2023-05-14T12:04:58.000Z</time>
      </trkpt>
      <trkpt lat="45.81552" lon="4.65374">
        <ele>297.35596</ele>
        <time>2023-05-14T12:04:59.000Z</time>
      </trkpt>
      <trkpt lat="45.8155" lon="4.65377">
        <ele>297.35016</ele>
        <time>2023-05-14T12:05:00.000Z</time>
      </trkpt>
      <trkpt lat="45.81549" lon="4.65381">
        <ele>297.4007</ele>
        <time>2023-05-14T12:05:01.000Z</time>
      </trkpt>
      <trkpt lat="45.81549" lon="4.65386">
        <ele>297.43024</ele>
        <time>2023-05-14T12:05:02.000Z</time>
      </trkpt>
      <trkpt lat="45.81548" lon="4.6539">
        <ele>297.50165</ele>
        <time>2023-05-14T12:05:03.000Z</time>
      </trkpt>
      <trkpt lat="45.81548" lon="4.65393">
        <ele>297.61838</ele>
        <time>2023-05-14T12:05:04.000Z</time>
      </trkpt>
      <trkpt lat="45.81547" lon="4.65396">
        <ele>297.80914</ele>
        <time>2023-05-14T12:05:05.000Z</time>
      </trkpt>
      <trkpt lat="45.81547" lon="4.654">
        <ele>297.99588</ele>
        <time>2023-05-14T12:05:06.000Z</time>
      </trkpt>
      <trkpt lat="45.81547" lon="4.65404">
        <ele>298.14175</ele>
        <time>2023-05-14T12:05:07.000Z</time>
      </trkpt>
      <trkpt lat="45.81547" lon="4.65408">
        <ele>298.28912</ele>
        <time>2023-05-14T12:05:08.000Z</time>
      </trkpt>
      <trkpt lat="45.81547" lon="4.65412">
        <ele>298.43024</ele>
        <time>2023-05-14T12:05:09.000Z</time>
      </trkpt>
      <trkpt lat="45.81547" lon="4.65416">
        <ele>298.57642</ele>
        <time>2023-05-14T12:05:10.000Z</time>
      </trkpt>
      <trkpt lat="45.81546" lon="4.6542">
        <ele>298.75729</ele>
        <time>2023-05-14T12:05:11.000Z</time>
      </trkpt>
      <trkpt lat="45.81546" lon="4.65424">
        <ele>298.92398</ele>
        <time>2023-05-14T12:05:12.000Z</time>
      </trkpt>
      <trkpt lat="45.81545" lon="4.65428">
        <ele>299.06531</ele>
        <time>2023-05-14T12:05:13.000Z</time>
      </trkpt>
      <trkpt lat="45.81545" lon="4.65431">
        <ele>299.13947</ele>
        <time>2023-05-14T12:05:14.000Z</time>
      </trkpt>
      <trkpt lat="45.81543" lon="4.65433">
        <ele>299.22787</ele>
        <time>2023-05-14T12:05:15.000Z</time>
      </trkpt>
      <trkpt lat="45.81541" lon="4.65434">
        <ele>299.36456</ele>
        <time>2023-05-14T12:05:16.000Z</time>
      </trkpt>
      <trkpt lat="45.81539" lon="4.65434">
        <ele>299.44421</ele>
        <time>2023-05-14T12:05:17.000Z</time>
      </trkpt>
      <trkpt lat="45.81536" lon="4.65432">
        <ele>299.50409</ele>
        <time>2023-05-14T12:05:18.000Z</time>
      </trkpt>
      <trkpt lat="45.81534" lon="4.6543">
        <ele>299.59149</ele>
        <time>2023-05-14T12:05:19.000Z</time>
      </trkpt>
      <trkpt lat="45.81532" lon="4.65427">
        <ele>299.69757</ele>
        <time>2023-05-14T12:05:20.000Z</time>
      </trkpt>
      <trkpt lat="45.8153" lon="4.65424">
        <ele>299.7287</ele>
        <time>2023-05-14T12:05:21.000Z</time>
      </trkpt>
      <trkpt lat="45.81528" lon="4.65422">
        <ele>299.77136</ele>
        <time>2023-05-14T12:05:22.000Z</time>
      </trkpt>
      <trkpt lat="45.81526" lon="4.6542">
        <ele>299.79877</ele>
        <time>2023-05-14T12:05:23.000Z</time>
      </trkpt>
      <trkpt lat="45.81524" lon="4.65418">
        <ele>299.81415</ele>
        <time>2023-05-14T12:05:24.000Z</time>
      </trkpt>
      <trkpt lat="45.81522" lon="4.65416">
        <ele>299.85242</ele>
        <time>2023-05-14T12:05:25.000Z</time>
      </trkpt>
      <trkpt lat="45.8152" lon="4.65414">
        <ele>299.92667</ele>
        <time>2023-05-14T12:05:26.000Z</time>
      </trkpt>
      <trkpt lat="45.81518" lon="4.65412">
        <ele>300.01242</ele>
        <time>2023-05-14T12:05:27.000Z</time>
      </trkpt>
      <trkpt lat="45.81516" lon="4.6541">
        <ele>300.04929</ele>
        <time>2023-05-14T12:05:28.000Z</time>
      </trkpt>
      <trkpt lat="45.81514" lon="4.65407">
        <ele>300.0611</ele>
        <time>2023-05-14T12:05:29.000Z</time>
      </trkpt>
      <trkpt lat="45.81511" lon="4.65405">
        <ele>300.09326</ele>
        <time>2023-05-14T12:05:30.000Z</time>
      </trkpt>
      <trkpt lat="45.8151" lon="4.65403">
        <ele>300.07062</ele>
        <time>2023-05-14T12:05:31.000Z</time>
      </trkpt>
      <trkpt lat="45.81507" lon="4.65398">
        <ele>299.97302</ele>
        <time>2023-05-14T12:05:33.000Z</time>
      </trkpt>
      <trkpt lat="45.81505" lon="4.65396">
        <ele>299.87936</ele>
        <time>2023-05-14T12:05:34.000Z</time>
      </trkpt>
      <trkpt lat="45.81503" lon="4.65393">
        <ele>299.80954</ele>
        <time>2023-05-14T12:05:35.000Z</time>
      </trkpt>
      <trkpt lat="45.81501" lon="4.65391">
        <ele>299.75195</ele>
        <time>2023-05-14T12:05:36.000Z</time>
      </trkpt>
      <trkpt lat="45.81499" lon="4.65388">
        <ele>299.70187</ele>
        <time>2023-05-14T12:05:37.000Z</time>
      </trkpt>
      <trkpt lat="45.81497" lon="4.65386">
        <ele>299.70697</ele>
        <time>2023-05-14T12:05:38.000Z</time>
      </trkpt>
      <trkpt lat="45.81495" lon="4.65385">
        <ele>299.75409</ele>
        <time>2023-05-14T12:05:39.000Z</time>
      </trkpt>
      <trkpt lat="45.81491" lon="4.65382">
        <ele>299.78375</ele>
        <time>2023-05-14T12:05:41.000Z</time>
      </trkpt>
      <trkpt lat="45.8149" lon="4.6538">
        <ele>299.77588</ele>
        <time>2023-05-14T12:05:42.000Z</time>
      </trkpt>
      <trkpt lat="45.81487" lon="4.65377">
        <ele>299.87558</ele>
        <time>2023-05-14T12:05:44.000Z</time>
      </trkpt>
      <trkpt lat="45.81486" lon="4.65375">
        <ele>299.9534</ele>
        <time>2023-05-14T12:05:45.000Z</time>
      </trkpt>
      <trkpt lat="45.81484" lon="4.65373">
        <ele>300.05154</ele>
        <time>2023-05-14T12:05:46.000Z</time>
      </trkpt>
      <trkpt lat="45.81482" lon="4.65371">
        <ele>300.1261</ele>
        <time>2023-05-14T12:05:47.000Z</time>
      </trkpt>
      <trkpt lat="45.81481" lon="4.65368">
        <ele>300.20319</ele>
        <time>2023-05-14T12:05:48.000Z</time>
      </trkpt>
      <trkpt lat="45.81479" lon="4.65366">
        <ele>300.27362</ele>
        <time>2023-05-14T12:05:49.000Z</time>
      </trkpt>
      <trkpt lat="45.81477" lon="4.65364">
        <ele>300.33893</ele>
        <time>2023-05-14T12:05:50.000Z</time>
      </trkpt>
      <trkpt lat="45.81475" lon="4.65362">
        <ele>300.46799</ele>
        <time>2023-05-14T12:05:51.000Z</time>
      </trkpt>
      <trkpt lat="45.81473" lon="4.6536">
        <ele>300.66391</ele>
        <time>2023-05-14T12:05:52.000Z</time>
      </trkpt>
      <trkpt lat="45.81471" lon="4.65359">
        <ele>300.86115</ele>
        <time>2023-05-14T12:05:53.000Z</time>
      </trkpt>
      <trkpt lat="45.81468" lon="4.65358">
        <ele>301.07013</ele>
        <time>2023-05-14T12:05:54.000Z</time>
      </trkpt>
      <trkpt lat="45.81466" lon="4.65356">
        <ele>301.41089</ele>
        <time>2023-05-14T12:05:55.000Z</time>
      </trkpt>
      <trkpt lat="45.81464" lon="4.65355">
        <ele>301.76422</ele>
        <time>2023-05-14T12:05:56.000Z</time>
      </trkpt>
      <trkpt lat="45.81462" lon="4.65353">
        <ele>302.17697</ele>
        <time>2023-05-14T12:05:57.000Z</time>
      </trkpt>
      <trkpt lat="45.8146" lon="4.65352">
        <ele>302.60675</ele>
        <time>2023-05-14T12:05:58.000Z</time>
      </trkpt>
      <trkpt lat="45.81458" lon="4.6535">
        <ele>303.03207</ele>
        <time>2023-05-14T12:05:59.000Z</time>
      </trkpt>
      <trkpt lat="45.81455" lon="4.65349">
        <ele>303.42279</ele>
        <time>2023-05-14T12:06:00.000Z</time>
      </trkpt>
      <trkpt lat="45.81453" lon="4.65347">
        <ele>303.81445</ele>
        <time>2023-05-14T12:06:01.000Z</time>
      </trkpt>
      <trkpt lat="45.81451" lon="4.65346">
        <ele>304.11761</ele>
        <time>2023-05-14T12:06:02.000Z</time>
      </trkpt>
      <trkpt lat="45.81449" lon="4.65344">
        <ele>304.4371</ele>
        <time>2023-05-14T12:06:03.000Z</time>
      </trkpt>
      <trkpt lat="45.81446" lon="4.65342">
        <ele>304.66214</ele>
        <time>2023-05-14T12:06:04.000Z</time>
      </trkpt>
      <trkpt lat="45.81444" lon="4.6534">
        <ele>304.89215</ele>
        <time>2023-05-14T12:06:05.000Z</time>
      </trkpt>
      <trkpt lat="45.81441" lon="4.65338">
        <ele>305.12225</ele>
        <time>2023-05-14T12:06:06.000Z</time>
      </trkpt>
      <trkpt lat="45.81438" lon="4.65337">
        <ele>305.35721</ele>
        <time>2023-05-14T12:06:07.000Z</time>
      </trkpt>
      <trkpt lat="45.81436" lon="4.65335">
        <ele>305.5274</ele>
        <time>2023-05-14T12:06:08.000Z</time>
      </trkpt>
      <trkpt lat="45.81433" lon="4.65334">
        <ele>305.71655</ele>
        <time>2023-05-14T12:06:09.000Z</time>
      </trkpt>
      <trkpt lat="45.8143" lon="4.65332">
        <ele>305.90033</ele>
        <time>2023-05-14T12:06:10.000Z</time>
      </trkpt>
      <trkpt lat="45.81428" lon="4.6533">
        <ele>306.10577</ele>
        <time>2023-05-14T12:06:11.000Z</time>
      </trkpt>
      <trkpt lat="45.81425" lon="4.65328">
        <ele>306.25876</ele>
        <time>2023-05-14T12:06:12.000Z</time>
      </trkpt>
      <trkpt lat="45.81423" lon="4.65326">
        <ele>306.37585</ele>
        <time>2023-05-14T12:06:13.000Z</time>
      </trkpt>
      <trkpt lat="45.8142" lon="4.65325">
        <ele>306.47101</ele>
        <time>2023-05-14T12:06:14.000Z</time>
      </trkpt>
      <trkpt lat="45.81418" lon="4.65323">
        <ele>306.50592</ele>
        <time>2023-05-14T12:06:15.000Z</time>
      </trkpt>
      <trkpt lat="45.81415" lon="4.65321">
        <ele>306.49966</ele>
        <time>2023-05-14T12:06:16.000Z</time>
      </trkpt>
      <trkpt lat="45.81413" lon="4.65319">
        <ele>306.42932</ele>
        <time>2023-05-14T12:06:17.000Z</time>
      </trkpt>
      <trkpt lat="45.81411" lon="4.65318">
        <ele>306.35956</ele>
        <time>2023-05-14T12:06:18.000Z</time>
      </trkpt>
      <trkpt lat="45.81408" lon="4.65316">
        <ele>306.27203</ele>
        <time>2023-05-14T12:06:19.000Z</time>
      </trkpt>
      <trkpt lat="45.81406" lon="4.65314">
        <ele>306.19641</ele>
        <time>2023-05-14T12:06:20.000Z</time>
      </trkpt>
      <trkpt lat="45.81403" lon="4.65312">
        <ele>306.08203</ele>
        <time>2023-05-14T12:06:21.000Z</time>
      </trkpt>
      <trkpt lat="45.81401" lon="4.65311">
        <ele>306.05325</ele>
        <time>2023-05-14T12:06:22.000Z</time>
      </trkpt>
      <trkpt lat="45.814" lon="4.6531">
        <ele>306.02991</ele>
        <time>2023-05-14T12:06:23.000Z</time>
      </trkpt>
      <trkpt lat="45.81397" lon="4.65309">
        <ele>306.0351</ele>
        <time>2023-05-14T12:06:24.000Z</time>
      </trkpt>
      <trkpt lat="45.81395" lon="4.65308">
        <ele>306.05469</ele>
        <time>2023-05-14T12:06:25.000Z</time>
      </trkpt>
      <trkpt lat="45.81392" lon="4.65307">
        <ele>306.08234</ele>
        <time>2023-05-14T12:06:26.000Z</time>
      </trkpt>
      <trkpt lat="45.8139" lon="4.65305">
        <ele>306.14786</ele>
        <time>2023-05-14T12:06:27.000Z</time>
      </trkpt>
      <trkpt lat="45.81388" lon="4.65304">
        <ele>306.26837</ele>
        <time>2023-05-14T12:06:28.000Z</time>
      </trkpt>
      <trkpt lat="45.81386" lon="4.65303">
        <ele>306.35626</ele>
        <time>2023-05-14T12:06:29.000Z</time>
      </trkpt>
      <trkpt lat="45.81384" lon="4.65301">
        <ele>306.42981</ele>
        <time>2023-05-14T12:06:30.000Z</time>
      </trkpt>
      <trkpt lat="45.81381" lon="4.653">
        <ele>306.50156</ele>
        <time>2023-05-14T12:06:31.000Z</time>
      </trkpt>
      <trkpt lat="45.81379" lon="4.65299">
        <ele>306.58234</ele>
        <time>2023-05-14T12:06:32.000Z</time>
      </trkpt>
      <trkpt lat="45.81376" lon="4.65298">
        <ele>306.70197</ele>
        <time>2023-05-14T12:06:33.000Z</time>
      </trkpt>
      <trkpt lat="45.81374" lon="4.65297">
        <ele>306.84384</ele>
        <time>2023-05-14T12:06:34.000Z</time>
      </trkpt>
      <trkpt lat="45.81372" lon="4.65296">
        <ele>307.01205</ele>
        <time>2023-05-14T12:06:35.000Z</time>
      </trkpt>
      <trkpt lat="45.81369" lon="4.65294">
        <ele>307.21353</ele>
        <time>2023-05-14T12:06:37.000Z</time>
      </trkpt>
      <trkpt lat="45.81366" lon="4.65293">
        <ele>307.47357</ele>
        <time>2023-05-14T12:06:39.000Z</time>
      </trkpt>
      <trkpt lat="45.81363" lon="4.65291">
        <ele>307.75616</ele>
        <time>2023-05-14T12:06:41.000Z</time>
      </trkpt>
      <trkpt lat="45.81361" lon="4.6529">
        <ele>308.01508</ele>
        <time>2023-05-14T12:06:42.000Z</time>
      </trkpt>
      <trkpt lat="45.81359" lon="4.65288">
        <ele>308.26581</ele>
        <time>2023-05-14T12:06:43.000Z</time>
      </trkpt>
      <trkpt lat="45.81356" lon="4.65286">
        <ele>308.52402</ele>
        <time>2023-05-14T12:06:44.000Z</time>
      </trkpt>
      <trkpt lat="45.81354" lon="4.65284">
        <ele>308.74826</ele>
        <time>2023-05-14T12:06:45.000Z</time>
      </trkpt>
      <trkpt lat="45.81352" lon="4.65282">
        <ele>308.91852</ele>
        <time>2023-05-14T12:06:46.000Z</time>
      </trkpt>
      <trkpt lat="45.81349" lon="4.6528">
        <ele>309.11368</ele>
        <time>2023-05-14T12:06:47.000Z</time>
      </trkpt>
      <trkpt lat="45.81347" lon="4.65278">
        <ele>309.2858</ele>
        <time>2023-05-14T12:06:48.000Z</time>
      </trkpt>
      <trkpt lat="45.81344" lon="4.65275">
        <ele>309.44873</ele>
        <time>2023-05-14T12:06:49.000Z</time>
      </trkpt>
      <trkpt lat="45.81341" lon="4.65273">
        <ele>309.60049</ele>
        <time>2023-05-14T12:06:50.000Z</time>
      </trkpt>
      <trkpt lat="45.81339" lon="4.6527">
        <ele>309.72565</ele>
        <time>2023-05-14T12:06:51.000Z</time>
      </trkpt>
      <trkpt lat="45.81336" lon="4.65268">
        <ele>309.84769</ele>
        <time>2023-05-14T12:06:52.000Z</time>
      </trkpt>
      <trkpt lat="45.81334" lon="4.65266">
        <ele>309.99982</ele>
        <time>2023-05-14T12:06:53.000Z</time>
      </trkpt>
      <trkpt lat="45.81332" lon="4.65263">
        <ele>310.14981</ele>
        <time>2023-05-14T12:06:54.000Z</time>
      </trkpt>
      <trkpt lat="45.81329" lon="4.65261">
        <ele>310.30002</ele>
        <time>2023-05-14T12:06:55.000Z</time>
      </trkpt>
      <trkpt lat="45.81327" lon="4.65258">
        <ele>310.44543</ele>
        <time>2023-05-14T12:06:56.000Z</time>
      </trkpt>
      <trkpt lat="45.81325" lon="4.65256">
        <ele>310.6138</ele>
        <time>2023-05-14T12:06:57.000Z</time>
      </trkpt>
      <trkpt lat="45.81322" lon="4.65254">
        <ele>310.75726</ele>
        <time>2023-05-14T12:06:58.000Z</time>
      </trkpt>
      <trkpt lat="45.8132" lon="4.65252">
        <ele>310.89438</ele>
        <time>2023-05-14T12:06:59.000Z</time>
      </trkpt>
      <trkpt lat="45.81318" lon="4.6525">
        <ele>311.02399</ele>
        <time>2023-05-14T12:07:00.000Z</time>
      </trkpt>
      <trkpt lat="45.81316" lon="4.65247">
        <ele>311.14212</ele>
        <time>2023-05-14T12:07:01.000Z</time>
      </trkpt>
      <trkpt lat="45.81314" lon="4.65245">
        <ele>311.29575</ele>
        <time>2023-05-14T12:07:02.000Z</time>
      </trkpt>
      <trkpt lat="45.81313" lon="4.65241">
        <ele>311.47159</ele>
        <time>2023-05-14T12:07:03.000Z</time>
      </trkpt>
      <trkpt lat="45.81312" lon="4.65238">
        <ele>311.59039</ele>
        <time>2023-05-14T12:07:04.000Z</time>
      </trkpt>
      <trkpt lat="45.8131" lon="4.65234">
        <ele>311.7023</ele>
        <time>2023-05-14T12:07:05.000Z</time>
      </trkpt>
      <trkpt lat="45.81308" lon="4.65231">
        <ele>311.84451</ele>
        <time>2023-05-14T12:07:06.000Z</time>
      </trkpt>
      <trkpt lat="45.81306" lon="4.65228">
        <ele>311.92517</ele>
        <time>2023-05-14T12:07:07.000Z</time>
      </trkpt>
      <trkpt lat="45.81304" lon="4.65224">
        <ele>311.99249</ele>
        <time>2023-05-14T12:07:08.000Z</time>
      </trkpt>
      <trkpt lat="45.81302" lon="4.6522">
        <ele>312.04691</ele>
        <time>2023-05-14T12:07:09.000Z</time>
      </trkpt>
      <trkpt lat="45.813" lon="4.65216">
        <ele>312.09796</ele>
        <time>2023-05-14T12:07:10.000Z</time>
      </trkpt>
      <trkpt lat="45.81298" lon="4.65213">
        <ele>312.14014</ele>
        <time>2023-05-14T12:07:11.000Z</time>
      </trkpt>
      <trkpt lat="45.81295" lon="4.6521">
        <ele>312.15378</ele>
        <time>2023-05-14T12:07:12.000Z</time>
      </trkpt>
      <trkpt lat="45.81293" lon="4.65206">
        <ele>312.16708</ele>
        <time>2023-05-14T12:07:13.000Z</time>
      </trkpt>
      <trkpt lat="45.81291" lon="4.65203">
        <ele>312.13464</ele>
        <time>2023-05-14T12:07:14.000Z</time>
      </trkpt>
      <trkpt lat="45.81289" lon="4.652">
        <ele>312.07541</ele>
        <time>2023-05-14T12:07:15.000Z</time>
      </trkpt>
      <trkpt lat="45.81287" lon="4.65196">
        <ele>311.99493</ele>
        <time>2023-05-14T12:07:16.000Z</time>
      </trkpt>
      <trkpt lat="45.81285" lon="4.65194">
        <ele>311.89255</ele>
        <time>2023-05-14T12:07:17.000Z</time>
      </trkpt>
      <trkpt lat="45.81283" lon="4.65191">
        <ele>311.7467</ele>
        <time>2023-05-14T12:07:18.000Z</time>
      </trkpt>
      <trkpt lat="45.81281" lon="4.65189">
        <ele>311.60611</ele>
        <time>2023-05-14T12:07:19.000Z</time>
      </trkpt>
      <trkpt lat="45.8128" lon="4.65186">
        <ele>311.4408</ele>
        <time>2023-05-14T12:07:20.000Z</time>
      </trkpt>
      <trkpt lat="45.81277" lon="4.65182">
        <ele>311.22272</ele>
        <time>2023-05-14T12:07:21.000Z</time>
      </trkpt>
      <trkpt lat="45.81275" lon="4.65179">
        <ele>310.92792</ele>
        <time>2023-05-14T12:07:22.000Z</time>
      </trkpt>
      <trkpt lat="45.81273" lon="4.65176">
        <ele>310.61127</ele>
        <time>2023-05-14T12:07:23.000Z</time>
      </trkpt>
      <trkpt lat="45.8127" lon="4.65172">
        <ele>310.34723</ele>
        <time>2023-05-14T12:07:24.000Z</time>
      </trkpt>
      <trkpt lat="45.81268" lon="4.65169">
        <ele>310.10327</ele>
        <time>2023-05-14T12:07:25.000Z</time>
      </trkpt>
      <trkpt lat="45.81266" lon="4.65166">
        <ele>309.84708</ele>
        <time>2023-05-14T12:07:26.000Z</time>
      </trkpt>
      <trkpt lat="45.81263" lon="4.65162">
        <ele>309.63647</ele>
        <time>2023-05-14T12:07:27.000Z</time>
      </trkpt>
      <trkpt lat="45.81261" lon="4.65159">
        <ele>309.44302</ele>
        <time>2023-05-14T12:07:28.000Z</time>
      </trkpt>
      <trkpt lat="45.81259" lon="4.65156">
        <ele>309.25153</ele>
        <time>2023-05-14T12:07:29.000Z</time>
      </trkpt>
      <trkpt lat="45.81257" lon="4.65152">
        <ele>309.05716</ele>
        <time>2023-05-14T12:07:30.000Z</time>
      </trkpt>
      <trkpt lat="45.81255" lon="4.65149">
        <ele>308.87317</ele>
        <time>2023-05-14T12:07:31.000Z</time>
      </trkpt>
      <trkpt lat="45.81252" lon="4.65145">
        <ele>308.70236</ele>
        <time>2023-05-14T12:07:32.000Z</time>
      </trkpt>
      <trkpt lat="45.81249" lon="4.65141">
        <ele>308.48569</ele>
        <time>2023-05-14T12:07:33.000Z</time>
      </trkpt>
      <trkpt lat="45.81247" lon="4.65137">
        <ele>308.26224</ele>
        <time>2023-05-14T12:07:34.000Z</time>
      </trkpt>
      <trkpt lat="45.81244" lon="4.65133">
        <ele>308.03751</ele>
        <time>2023-05-14T12:07:35.000Z</time>
      </trkpt>
      <trkpt lat="45.81241" lon="4.65129">
        <ele>307.8208</ele>
        <time>2023-05-14T12:07:36.000Z</time>
      </trkpt>
      <trkpt lat="45.81238" lon="4.65125">
        <ele>307.60388</ele>
        <time>2023-05-14T12:07:37.000Z</time>
      </trkpt>
      <trkpt lat="45.81235" lon="4.65121">
        <ele>307.46243</ele>
        <time>2023-05-14T12:07:38.000Z</time>
      </trkpt>
      <trkpt lat="45.81232" lon="4.65117">
        <ele>307.29248</ele>
        <time>2023-05-14T12:07:39.000Z</time>
      </trkpt>
      <trkpt lat="45.81229" lon="4.65113">
        <ele>307.13251</ele>
        <time>2023-05-14T12:07:40.000Z</time>
      </trkpt>
      <trkpt lat="45.81226" lon="4.65108">
        <ele>307.14429</ele>
        <time>2023-05-14T12:07:41.000Z</time>
      </trkpt>
      <trkpt lat="45.81223" lon="4.65104">
        <ele>307.20505</ele>
        <time>2023-05-14T12:07:42.000Z</time>
      </trkpt>
      <trkpt lat="45.81221" lon="4.651">
        <ele>307.26648</ele>
        <time>2023-05-14T12:07:43.000Z</time>
      </trkpt>
      <trkpt lat="45.81218" lon="4.65097">
        <ele>307.33832</ele>
        <time>2023-05-14T12:07:44.000Z</time>
      </trkpt>
      <trkpt lat="45.81215" lon="4.65093">
        <ele>307.41534</ele>
        <time>2023-05-14T12:07:45.000Z</time>
      </trkpt>
      <trkpt lat="45.81212" lon="4.65089">
        <ele>307.5531</ele>
        <time>2023-05-14T12:07:46.000Z</time>
      </trkpt>
      <trkpt lat="45.81209" lon="4.65085">
        <ele>307.71869</ele>
        <time>2023-05-14T12:07:47.000Z</time>
      </trkpt>
      <trkpt lat="45.81206" lon="4.6508">
        <ele>307.85831</ele>
        <time>2023-05-14T12:07:48.000Z</time>
      </trkpt>
      <trkpt lat="45.81203" lon="4.65076">
        <ele>307.97369</ele>
        <time>2023-05-14T12:07:49.000Z</time>
      </trkpt>
      <trkpt lat="45.812" lon="4.65071">
        <ele>308.06369</ele>
        <time>2023-05-14T12:07:50.000Z</time>
      </trkpt>
      <trkpt lat="45.81197" lon="4.65067">
        <ele>308.12494</ele>
        <time>2023-05-14T12:07:51.000Z</time>
      </trkpt>
      <trkpt lat="45.81194" lon="4.65063">
        <ele>308.20538</ele>
        <time>2023-05-14T12:07:52.000Z</time>
      </trkpt>
      <trkpt lat="45.81191" lon="4.65058">
        <ele>308.34778</ele>
        <time>2023-05-14T12:07:53.000Z</time>
      </trkpt>
      <trkpt lat="45.81188" lon="4.65054">
        <ele>308.57715</ele>
        <time>2023-05-14T12:07:54.000Z</time>
      </trkpt>
      <trkpt lat="45.81186" lon="4.65049">
        <ele>308.76541</ele>
        <time>2023-05-14T12:07:55.000Z</time>
      </trkpt>
      <trkpt lat="45.81184" lon="4.65044">
        <ele>308.9451</ele>
        <time>2023-05-14T12:07:56.000Z</time>
      </trkpt>
      <trkpt lat="45.81182" lon="4.6504">
        <ele>309.15228</ele>
        <time>2023-05-14T12:07:57.000Z</time>
      </trkpt>
      <trkpt lat="45.81179" lon="4.65035">
        <ele>309.34698</ele>
        <time>2023-05-14T12:07:58.000Z</time>
      </trkpt>
      <trkpt lat="45.81176" lon="4.65029">
        <ele>309.53766</ele>
        <time>2023-05-14T12:07:59.000Z</time>
      </trkpt>
      <trkpt lat="45.81173" lon="4.65024">
        <ele>309.70483</ele>
        <time>2023-05-14T12:08:00.000Z</time>
      </trkpt>
      <trkpt lat="45.81171" lon="4.65017">
        <ele>309.72284</ele>
        <time>2023-05-14T12:08:01.000Z</time>
      </trkpt>
      <trkpt lat="45.8117" lon="4.65015">
        <ele>309.76517</ele>
        <time>2023-05-14T12:08:02.000Z</time>
      </trkpt>
      <trkpt lat="45.81166" lon="4.65009">
        <ele>309.78677</ele>
        <time>2023-05-14T12:08:03.000Z</time>
      </trkpt>
      <trkpt lat="45.81163" lon="4.65002">
        <ele>309.70221</ele>
        <time>2023-05-14T12:08:04.000Z</time>
      </trkpt>
      <trkpt lat="45.81162" lon="4.64994">
        <ele>309.59286</ele>
        <time>2023-05-14T12:08:05.000Z</time>
      </trkpt>
      <trkpt lat="45.81162" lon="4.64988">
        <ele>309.40527</ele>
        <time>2023-05-14T12:08:06.000Z</time>
      </trkpt>
      <trkpt lat="45.81162" lon="4.64983">
        <ele>309.25006</ele>
        <time>2023-05-14T12:08:07.000Z</time>
      </trkpt>
      <trkpt lat="45.81161" lon="4.64978">
        <ele>309.06555</ele>
        <time>2023-05-14T12:08:08.000Z</time>
      </trkpt>
      <trkpt lat="45.81161" lon="4.64974">
        <ele>308.86456</ele>
        <time>2023-05-14T12:08:09.000Z</time>
      </trkpt>
      <trkpt lat="45.8116" lon="4.64969">
        <ele>308.7287</ele>
        <time>2023-05-14T12:08:10.000Z</time>
      </trkpt>
      <trkpt lat="45.8116" lon="4.64965">
        <ele>308.5733</ele>
        <time>2023-05-14T12:08:11.000Z</time>
      </trkpt>
      <trkpt lat="45.8116" lon="4.6496">
        <ele>308.41724</ele>
        <time>2023-05-14T12:08:12.000Z</time>
      </trkpt>
      <trkpt lat="45.8116" lon="4.64956">
        <ele>308.23276</ele>
        <time>2023-05-14T12:08:13.000Z</time>
      </trkpt>
      <trkpt lat="45.8116" lon="4.64952">
        <ele>308.01804</ele>
        <time>2023-05-14T12:08:14.000Z</time>
      </trkpt>
      <trkpt lat="45.81161" lon="4.64949">
        <ele>307.84891</ele>
        <time>2023-05-14T12:08:15.000Z</time>
      </trkpt>
      <trkpt lat="45.81161" lon="4.64945">
        <ele>307.62119</ele>
        <time>2023-05-14T12:08:16.000Z</time>
      </trkpt>
      <trkpt lat="45.81161" lon="4.64942">
        <ele>307.36566</ele>
        <time>2023-05-14T12:08:17.000Z</time>
      </trkpt>
      <trkpt lat="45.81162" lon="4.64939">
        <ele>307.05499</ele>
        <time>2023-05-14T12:08:18.000Z</time>
      </trkpt>
      <trkpt lat="45.81162" lon="4.64936">
        <ele>306.76752</ele>
        <time>2023-05-14T12:08:19.000Z</time>
      </trkpt>
      <trkpt lat="45.81162" lon="4.64932">
        <ele>306.57822</ele>
        <time>2023-05-14T12:08:21.000Z</time>
      </trkpt>
      <trkpt lat="45.81163" lon="4.64928">
        <ele>306.37723</ele>
        <time>2023-05-14T12:08:22.000Z</time>
      </trkpt>
      <trkpt lat="45.81164" lon="4.64925">
        <ele>306.15527</ele>
        <time>2023-05-14T12:08:23.000Z</time>
      </trkpt>
      <trkpt lat="45.81164" lon="4.64922">
        <ele>305.92264</ele>
        <time>2023-05-14T12:08:24.000Z</time>
      </trkpt>
      <trkpt lat="45.81165" lon="4.64919">
        <ele>305.77963</ele>
        <time>2023-05-14T12:08:25.000Z</time>
      </trkpt>
      <trkpt lat="45.81166" lon="4.64916">
        <ele>305.67114</ele>
        <time>2023-05-14T12:08:26.000Z</time>
      </trkpt>
      <trkpt lat="45.81167" lon="4.64913">
        <ele>305.55414</ele>
        <time>2023-05-14T12:08:27.000Z</time>
      </trkpt>
      <trkpt lat="45.81169" lon="4.64911">
        <ele>305.39117</ele>
        <time>2023-05-14T12:08:28.000Z</time>
      </trkpt>
      <trkpt lat="45.8117" lon="4.64908">
        <ele>305.2757</ele>
        <time>2023-05-14T12:08:29.000Z</time>
      </trkpt>
      <trkpt lat="45.81171" lon="4.64904">
        <ele>305.19986</ele>
        <time>2023-05-14T12:08:30.000Z</time>
      </trkpt>
      <trkpt lat="45.81172" lon="4.64901">
        <ele>305.07022</ele>
        <time>2023-05-14T12:08:31.000Z</time>
      </trkpt>
      <trkpt lat="45.81172" lon="4.64899">
        <ele>304.98013</ele>
        <time>2023-05-14T12:08:32.000Z</time>
      </trkpt>
      <trkpt lat="45.81173" lon="4.64895">
        <ele>304.83807</ele>
        <time>2023-05-14T12:08:33.000Z</time>
      </trkpt>
      <trkpt lat="45.81175" lon="4.6489">
        <ele>304.71176</ele>
        <time>2023-05-14T12:08:34.000Z</time>
      </trkpt>
      <trkpt lat="45.81176" lon="4.64887">
        <ele>304.55743</ele>
        <time>2023-05-14T12:08:35.000Z</time>
      </trkpt>
      <trkpt lat="45.81178" lon="4.64883">
        <ele>304.43188</ele>
        <time>2023-05-14T12:08:36.000Z</time>
      </trkpt>
      <trkpt lat="45.8118" lon="4.64879">
        <ele>304.36819</ele>
        <time>2023-05-14T12:08:37.000Z</time>
      </trkpt>
      <trkpt lat="45.81182" lon="4.64875">
        <ele>304.31116</ele>
        <time>2023-05-14T12:08:38.000Z</time>
      </trkpt>
      <trkpt lat="45.81184" lon="4.64873">
        <ele>304.95859</ele>
        <time>2023-05-14T12:08:39.000Z</time>
      </trkpt>
      <trkpt lat="45.81185" lon="4.64869">
        <ele>304.8537</ele>
        <time>2023-05-14T12:08:41.000Z</time>
      </trkpt>
      <trkpt lat="45.81186" lon="4.64866">
        <ele>304.64374</ele>
        <time>2023-05-14T12:08:42.000Z</time>
      </trkpt>
      <trkpt lat="45.81187" lon="4.64861">
        <ele>304.46515</ele>
        <time>2023-05-14T12:08:44.000Z</time>
      </trkpt>
      <trkpt lat="45.81189" lon="4.6486">
        <ele>304.29785</ele>
        <time>2023-05-14T12:08:45.000Z</time>
      </trkpt>
      <trkpt lat="45.81189" lon="4.64856">
        <ele>304.1485</ele>
        <time>2023-05-14T12:08:46.000Z</time>
      </trkpt>
      <trkpt lat="45.8119" lon="4.64853">
        <ele>304.00507</ele>
        <time>2023-05-14T12:08:47.000Z</time>
      </trkpt>
      <trkpt lat="45.81192" lon="4.64849">
        <ele>303.83401</ele>
        <time>2023-05-14T12:08:48.000Z</time>
      </trkpt>
      <trkpt lat="45.81191" lon="4.64839">
        <ele>303.69611</ele>
        <time>2023-05-14T12:08:49.000Z</time>
      </trkpt>
      <trkpt lat="45.81194" lon="4.64836">
        <ele>303.55524</ele>
        <time>2023-05-14T12:08:50.000Z</time>
      </trkpt>
      <trkpt lat="45.81196" lon="4.64835">
        <ele>303.42908</ele>
        <time>2023-05-14T12:08:51.000Z</time>
      </trkpt>
      <trkpt lat="45.81198" lon="4.64834">
        <ele>303.30954</ele>
        <time>2023-05-14T12:08:52.000Z</time>
      </trkpt>
      <trkpt lat="45.81201" lon="4.64833">
        <ele>303.22601</ele>
        <time>2023-05-14T12:08:53.000Z</time>
      </trkpt>
      <trkpt lat="45.81203" lon="4.64831">
        <ele>303.15247</ele>
        <time>2023-05-14T12:08:54.000Z</time>
      </trkpt>
      <trkpt lat="45.81206" lon="4.64829">
        <ele>303.09399</ele>
        <time>2023-05-14T12:08:55.000Z</time>
      </trkpt>
      <trkpt lat="45.81208" lon="4.64826">
        <ele>303.02423</ele>
        <time>2023-05-14T12:08:56.000Z</time>
      </trkpt>
      <trkpt lat="45.81211" lon="4.64823">
        <ele>302.9462</ele>
        <time>2023-05-14T12:08:57.000Z</time>
      </trkpt>
      <trkpt lat="45.81213" lon="4.6482">
        <ele>302.85858</ele>
        <time>2023-05-14T12:08:58.000Z</time>
      </trkpt>
      <trkpt lat="45.81214" lon="4.64817">
        <ele>302.76898</ele>
        <time>2023-05-14T12:08:59.000Z</time>
      </trkpt>
      <trkpt lat="45.81215" lon="4.64814">
        <ele>302.69241</ele>
        <time>2023-05-14T12:09:00.000Z</time>
      </trkpt>
      <trkpt lat="45.81216" lon="4.64812">
        <ele>301.93375</ele>
        <time>2023-05-14T12:09:01.000Z</time>
      </trkpt>
      <trkpt lat="45.81217" lon="4.64808">
        <ele>301.9505</ele>
        <time>2023-05-14T12:09:03.000Z</time>
      </trkpt>
      <trkpt lat="45.81219" lon="4.64805">
        <ele>301.99179</ele>
        <time>2023-05-14T12:09:05.000Z</time>
      </trkpt>
      <trkpt lat="45.81223" lon="4.64803">
        <ele>302.05414</ele>
        <time>2023-05-14T12:09:07.000Z</time>
      </trkpt>
      <trkpt lat="45.81224" lon="4.64802">
        <ele>302.10483</ele>
        <time>2023-05-14T12:09:08.000Z</time>
      </trkpt>
      <trkpt lat="45.81228" lon="4.64802">
        <ele>302.24579</ele>
        <time>2023-05-14T12:09:10.000Z</time>
      </trkpt>
      <trkpt lat="45.81231" lon="4.64803">
        <ele>302.39481</ele>
        <time>2023-05-14T12:09:12.000Z</time>
      </trkpt>
      <trkpt lat="45.81232" lon="4.648">
        <ele>302.56317</ele>
        <time>2023-05-14T12:09:14.000Z</time>
      </trkpt>
      <trkpt lat="45.81234" lon="4.64798">
        <ele>302.75208</ele>
        <time>2023-05-14T12:09:16.000Z</time>
      </trkpt>
      <trkpt lat="45.81237" lon="4.648">
        <ele>302.99429</ele>
        <time>2023-05-14T12:09:20.000Z</time>
      </trkpt>
      <trkpt lat="45.81238" lon="4.64801">
        <ele>303.24802</ele>
        <time>2023-05-14T12:09:21.000Z</time>
      </trkpt>
      <trkpt lat="45.8124" lon="4.64802">
        <ele>303.51498</ele>
        <time>2023-05-14T12:09:22.000Z</time>
      </trkpt>
      <trkpt lat="45.81242" lon="4.64803">
        <ele>303.76349</ele>
        <time>2023-05-14T12:09:23.000Z</time>
      </trkpt>
      <trkpt lat="45.81246" lon="4.64804">
        <ele>304.03</ele>
        <time>2023-05-14T12:09:25.000Z</time>
      </trkpt>
      <trkpt lat="45.81249" lon="4.64805">
        <ele>304.26413</ele>
        <time>2023-05-14T12:09:27.000Z</time>
      </trkpt>
      <trkpt lat="45.81251" lon="4.64806">
        <ele>304.49185</ele>
        <time>2023-05-14T12:09:28.000Z</time>
      </trkpt>
      <trkpt lat="45.81254" lon="4.64807">
        <ele>304.75183</ele>
        <time>2023-05-14T12:09:30.000Z</time>
      </trkpt>
      <trkpt lat="45.81257" lon="4.64808">
        <ele>305.01825</ele>
        <time>2023-05-14T12:09:32.000Z</time>
      </trkpt>
      <trkpt lat="45.81259" lon="4.64811">
        <ele>305.25409</ele>
        <time>2023-05-14T12:09:34.000Z</time>
      </trkpt>
      <trkpt lat="45.81262" lon="4.64812">
        <ele>305.46185</ele>
        <time>2023-05-14T12:09:36.000Z</time>
      </trkpt>
      <trkpt lat="45.81265" lon="4.64812">
        <ele>305.74863</ele>
        <time>2023-05-14T12:09:38.000Z</time>
      </trkpt>
      <trkpt lat="45.81267" lon="4.64811">
        <ele>305.92896</ele>
        <time>2023-05-14T12:09:39.000Z</time>
      </trkpt>
      <trkpt lat="45.81269" lon="4.64809">
        <ele>306.08826</ele>
        <time>2023-05-14T12:09:40.000Z</time>
      </trkpt>
      <trkpt lat="45.8127" lon="4.64807">
        <ele>306.46597</ele>
        <time>2023-05-14T12:09:41.000Z</time>
      </trkpt>
      <trkpt lat="45.81272" lon="4.64804">
        <ele>306.79074</ele>
        <time>2023-05-14T12:09:42.000Z</time>
      </trkpt>
      <trkpt lat="45.81274" lon="4.64801">
        <ele>307.08258</ele>
        <time>2023-05-14T12:09:43.000Z</time>
      </trkpt>
      <trkpt lat="45.81275" lon="4.64799">
        <ele>307.3587</ele>
        <time>2023-05-14T12:09:44.000Z</time>
      </trkpt>
      <trkpt lat="45.81276" lon="4.64796">
        <ele>307.57596</ele>
        <time>2023-05-14T12:09:45.000Z</time>
      </trkpt>
      <trkpt lat="45.81278" lon="4.64793">
        <ele>307.82806</ele>
        <time>2023-05-14T12:09:46.000Z</time>
      </trkpt>
      <trkpt lat="45.81279" lon="4.64791">
        <ele>308.02606</ele>
        <time>2023-05-14T12:09:47.000Z</time>
      </trkpt>
      <trkpt lat="45.8128" lon="4.64788">
        <ele>308.27188</ele>
        <time>2023-05-14T12:09:48.000Z</time>
      </trkpt>
      <trkpt lat="45.81282" lon="4.64785">
        <ele>308.41736</ele>
        <time>2023-05-14T12:09:50.000Z</time>
      </trkpt>
      <trkpt lat="45.81283" lon="4.64783">
        <ele>308.54675</ele>
        <time>2023-05-14T12:09:51.000Z</time>
      </trkpt>
      <trkpt lat="45.81285" lon="4.64781">
        <ele>308.64056</ele>
        <time>2023-05-14T12:09:52.000Z</time>
      </trkpt>
      <trkpt lat="45.81286" lon="4.64776">
        <ele>308.66946</ele>
        <time>2023-05-14T12:09:54.000Z</time>
      </trkpt>
      <trkpt lat="45.81288" lon="4.64774">
        <ele>308.69077</ele>
        <time>2023-05-14T12:09:56.000Z</time>
      </trkpt>
      <trkpt lat="45.81291" lon="4.6477">
        <ele>308.64825</ele>
        <time>2023-05-14T12:09:58.000Z</time>
      </trkpt>
      <trkpt lat="45.81292" lon="4.64767">
        <ele>308.61292</ele>
        <time>2023-05-14T12:09:59.000Z</time>
      </trkpt>
      <trkpt lat="45.81293" lon="4.64765">
        <ele>308.59534</ele>
        <time>2023-05-14T12:10:00.000Z</time>
      </trkpt>
      <trkpt lat="45.81294" lon="4.64762">
        <ele>308.58725</ele>
        <time>2023-05-14T12:10:01.000Z</time>
      </trkpt>
      <trkpt lat="45.81295" lon="4.64758">
        <ele>308.52139</ele>
        <time>2023-05-14T12:10:02.000Z</time>
      </trkpt>
      <trkpt lat="45.81296" lon="4.64756">
        <ele>308.53433</ele>
        <time>2023-05-14T12:10:03.000Z</time>
      </trkpt>
      <trkpt lat="45.81297" lon="4.64753">
        <ele>308.52682</ele>
        <time>2023-05-14T12:10:04.000Z</time>
      </trkpt>
      <trkpt lat="45.81298" lon="4.6475">
        <ele>308.29541</ele>
        <time>2023-05-14T12:10:05.000Z</time>
      </trkpt>
      <trkpt lat="45.81299" lon="4.64747">
        <ele>308.15244</ele>
        <time>2023-05-14T12:10:06.000Z</time>
      </trkpt>
      <trkpt lat="45.813" lon="4.64745">
        <ele>307.98993</ele>
        <time>2023-05-14T12:10:07.000Z</time>
      </trkpt>
      <trkpt lat="45.81302" lon="4.64742">
        <ele>307.90576</ele>
        <time>2023-05-14T12:10:08.000Z</time>
      </trkpt>
      <trkpt lat="45.81303" lon="4.64739">
        <ele>307.85953</ele>
        <time>2023-05-14T12:10:09.000Z</time>
      </trkpt>
      <trkpt lat="45.81305" lon="4.64736">
        <ele>307.75226</ele>
        <time>2023-05-14T12:10:10.000Z</time>
      </trkpt>
      <trkpt lat="45.81307" lon="4.64734">
        <ele>307.60333</ele>
        <time>2023-05-14T12:10:11.000Z</time>
      </trkpt>
      <trkpt lat="45.81308" lon="4.64732">
        <ele>307.37274</ele>
        <time>2023-05-14T12:10:12.000Z</time>
      </trkpt>
      <trkpt lat="45.81311" lon="4.64729">
        <ele>307.19348</ele>
        <time>2023-05-14T12:10:13.000Z</time>
      </trkpt>
      <trkpt lat="45.81314" lon="4.64727">
        <ele>307.02399</ele>
        <time>2023-05-14T12:10:14.000Z</time>
      </trkpt>
      <trkpt lat="45.81316" lon="4.64726">
        <ele>306.84824</ele>
        <time>2023-05-14T12:10:15.000Z</time>
      </trkpt>
      <trkpt lat="45.81319" lon="4.64722">
        <ele>306.72745</ele>
        <time>2023-05-14T12:10:17.000Z</time>
      </trkpt>
      <trkpt lat="45.8132" lon="4.64719">
        <ele>306.64923</ele>
        <time>2023-05-14T12:10:18.000Z</time>
      </trkpt>
      <trkpt lat="45.8132" lon="4.64717">
        <ele>306.64844</ele>
        <time>2023-05-14T12:10:19.000Z</time>
      </trkpt>
      <trkpt lat="45.81321" lon="4.64714">
        <ele>306.60834</ele>
        <time>2023-05-14T12:10:20.000Z</time>
      </trkpt>
      <trkpt lat="45.81321" lon="4.64711">
        <ele>306.57028</ele>
        <time>2023-05-14T12:10:21.000Z</time>
      </trkpt>
      <trkpt lat="45.81322" lon="4.64708">
        <ele>306.55426</ele>
        <time>2023-05-14T12:10:22.000Z</time>
      </trkpt>
      <trkpt lat="45.81323" lon="4.64704">
        <ele>306.53821</ele>
        <time>2023-05-14T12:10:23.000Z</time>
      </trkpt>
      <trkpt lat="45.81323" lon="4.64702">
        <ele>306.53848</ele>
        <time>2023-05-14T12:10:24.000Z</time>
      </trkpt>
      <trkpt lat="45.81325" lon="4.64698">
        <ele>306.53156</ele>
        <time>2023-05-14T12:10:26.000Z</time>
      </trkpt>
      <trkpt lat="45.81326" lon="4.64696">
        <ele>306.46573</ele>
        <time>2023-05-14T12:10:27.000Z</time>
      </trkpt>
      <trkpt lat="45.81328" lon="4.64693">
        <ele>306.39691</ele>
        <time>2023-05-14T12:10:28.000Z</time>
      </trkpt>
      <trkpt lat="45.81328" lon="4.6469">
        <ele>306.27478</ele>
        <time>2023-05-14T12:10:29.000Z</time>
      </trkpt>
      <trkpt lat="45.81329" lon="4.64687">
        <ele>306.10394</ele>
        <time>2023-05-14T12:10:30.000Z</time>
      </trkpt>
      <trkpt lat="45.81329" lon="4.64684">
        <ele>305.9256</ele>
        <time>2023-05-14T12:10:31.000Z</time>
      </trkpt>
      <trkpt lat="45.81329" lon="4.6468">
        <ele>305.73907</ele>
        <time>2023-05-14T12:10:32.000Z</time>
      </trkpt>
      <trkpt lat="45.8133" lon="4.64676">
        <ele>305.59116</ele>
        <time>2023-05-14T12:10:33.000Z</time>
      </trkpt>
      <trkpt lat="45.81331" lon="4.64673">
        <ele>305.46475</ele>
        <time>2023-05-14T12:10:34.000Z</time>
      </trkpt>
      <trkpt lat="45.81332" lon="4.6467">
        <ele>305.35834</ele>
        <time>2023-05-14T12:10:35.000Z</time>
      </trkpt>
      <trkpt lat="45.81334" lon="4.64667">
        <ele>305.32648</ele>
        <time>2023-05-14T12:10:36.000Z</time>
      </trkpt>
      <trkpt lat="45.81337" lon="4.64664">
        <ele>305.38168</ele>
        <time>2023-05-14T12:10:37.000Z</time>
      </trkpt>
      <trkpt lat="45.81339" lon="4.64661">
        <ele>305.49518</ele>
        <time>2023-05-14T12:10:38.000Z</time>
      </trkpt>
      <trkpt lat="45.81342" lon="4.64658">
        <ele>305.58588</ele>
        <time>2023-05-14T12:10:39.000Z</time>
      </trkpt>
      <trkpt lat="45.81343" lon="4.64655">
        <ele>305.64478</ele>
        <time>2023-05-14T12:10:40.000Z</time>
      </trkpt>
      <trkpt lat="45.81345" lon="4.64652">
        <ele>305.73444</ele>
        <time>2023-05-14T12:10:41.000Z</time>
      </trkpt>
      <trkpt lat="45.81346" lon="4.64649">
        <ele>305.86261</ele>
        <time>2023-05-14T12:10:42.000Z</time>
      </trkpt>
      <trkpt lat="45.81348" lon="4.64646">
        <ele>305.97342</ele>
        <time>2023-05-14T12:10:43.000Z</time>
      </trkpt>
      <trkpt lat="45.8135" lon="4.64643">
        <ele>306.05881</ele>
        <time>2023-05-14T12:10:44.000Z</time>
      </trkpt>
      <trkpt lat="45.81352" lon="4.6464">
        <ele>306.18781</ele>
        <time>2023-05-14T12:10:45.000Z</time>
      </trkpt>
      <trkpt lat="45.81354" lon="4.64637">
        <ele>306.39609</ele>
        <time>2023-05-14T12:10:46.000Z</time>
      </trkpt>
      <trkpt lat="45.81356" lon="4.64635">
        <ele>306.67383</ele>
        <time>2023-05-14T12:10:47.000Z</time>
      </trkpt>
      <trkpt lat="45.81358" lon="4.64632">
        <ele>306.92029</ele>
        <time>2023-05-14T12:10:48.000Z</time>
      </trkpt>
      <trkpt lat="45.8136" lon="4.6463">
        <ele>307.20129</ele>
        <time>2023-05-14T12:10:49.000Z</time>
      </trkpt>
      <trkpt lat="45.81363" lon="4.64628">
        <ele>307.409</ele>
        <time>2023-05-14T12:10:50.000Z</time>
      </trkpt>
      <trkpt lat="45.81365" lon="4.64626">
        <ele>307.66632</ele>
        <time>2023-05-14T12:10:51.000Z</time>
      </trkpt>
      <trkpt lat="45.81367" lon="4.64624">
        <ele>307.97836</ele>
        <time>2023-05-14T12:10:52.000Z</time>
      </trkpt>
      <trkpt lat="45.81368" lon="4.64621">
        <ele>308.28006</ele>
        <time>2023-05-14T12:10:53.000Z</time>
      </trkpt>
      <trkpt lat="45.81369" lon="4.64619">
        <ele>308.53812</ele>
        <time>2023-05-14T12:10:54.000Z</time>
      </trkpt>
      <trkpt lat="45.81371" lon="4.64618">
        <ele>308.75507</ele>
        <time>2023-05-14T12:10:55.000Z</time>
      </trkpt>
      <trkpt lat="45.81373" lon="4.64617">
        <ele>308.98022</ele>
        <time>2023-05-14T12:10:56.000Z</time>
      </trkpt>
      <trkpt lat="45.81376" lon="4.64614">
        <ele>309.18237</ele>
        <time>2023-05-14T12:10:58.000Z</time>
      </trkpt>
      <trkpt lat="45.81378" lon="4.64613">
        <ele>309.33884</ele>
        <time>2023-05-14T12:10:59.000Z</time>
      </trkpt>
      <trkpt lat="45.81379" lon="4.64612">
        <ele>309.52744</ele>
        <time>2023-05-14T12:11:00.000Z</time>
      </trkpt>
      <trkpt lat="45.81382" lon="4.64611">
        <ele>309.80261</ele>
        <time>2023-05-14T12:11:01.000Z</time>
      </trkpt>
      <trkpt lat="45.81384" lon="4.64611">
        <ele>310.14832</ele>
        <time>2023-05-14T12:11:02.000Z</time>
      </trkpt>
      <trkpt lat="45.81386" lon="4.6461">
        <ele>310.49939</ele>
        <time>2023-05-14T12:11:03.000Z</time>
      </trkpt>
      <trkpt lat="45.81388" lon="4.64609">
        <ele>310.87811</ele>
        <time>2023-05-14T12:11:04.000Z</time>
      </trkpt>
      <trkpt lat="45.81391" lon="4.64608">
        <ele>311.31845</ele>
        <time>2023-05-14T12:11:05.000Z</time>
      </trkpt>
      <trkpt lat="45.81393" lon="4.64607">
        <ele>311.75018</ele>
        <time>2023-05-14T12:11:06.000Z</time>
      </trkpt>
      <trkpt lat="45.81396" lon="4.64606">
        <ele>312.16071</ele>
        <time>2023-05-14T12:11:07.000Z</time>
      </trkpt>
      <trkpt lat="45.81398" lon="4.64606">
        <ele>312.5061</ele>
        <time>2023-05-14T12:11:08.000Z</time>
      </trkpt>
      <trkpt lat="45.814" lon="4.64606">
        <ele>312.85382</ele>
        <time>2023-05-14T12:11:09.000Z</time>
      </trkpt>
      <trkpt lat="45.81402" lon="4.64606">
        <ele>313.2724</ele>
        <time>2023-05-14T12:11:10.000Z</time>
      </trkpt>
      <trkpt lat="45.81405" lon="4.64606">
        <ele>313.7074</ele>
        <time>2023-05-14T12:11:11.000Z</time>
      </trkpt>
      <trkpt lat="45.81407" lon="4.64605">
        <ele>314.08438</ele>
        <time>2023-05-14T12:11:12.000Z</time>
      </trkpt>
      <trkpt lat="45.81409" lon="4.64604">
        <ele>314.41928</ele>
        <time>2023-05-14T12:11:13.000Z</time>
      </trkpt>
      <trkpt lat="45.81411" lon="4.64602">
        <ele>314.88446</ele>
        <time>2023-05-14T12:11:14.000Z</time>
      </trkpt>
      <trkpt lat="45.81414" lon="4.64601">
        <ele>315.35007</ele>
        <time>2023-05-14T12:11:15.000Z</time>
      </trkpt>
      <trkpt lat="45.81415" lon="4.64599">
        <ele>315.93536</ele>
        <time>2023-05-14T12:11:16.000Z</time>
      </trkpt>
      <trkpt lat="45.81417" lon="4.64596">
        <ele>316.4184</ele>
        <time>2023-05-14T12:11:17.000Z</time>
      </trkpt>
      <trkpt lat="45.81417" lon="4.64593">
        <ele>316.78363</ele>
        <time>2023-05-14T12:11:18.000Z</time>
      </trkpt>
      <trkpt lat="45.81416" lon="4.6459">
        <ele>317.29803</ele>
        <time>2023-05-14T12:11:19.000Z</time>
      </trkpt>
      <trkpt lat="45.81415" lon="4.64587">
        <ele>317.8118</ele>
        <time>2023-05-14T12:11:20.000Z</time>
      </trkpt>
      <trkpt lat="45.81413" lon="4.64585">
        <ele>318.25406</ele>
        <time>2023-05-14T12:11:21.000Z</time>
      </trkpt>
      <trkpt lat="45.81411" lon="4.64582">
        <ele>318.63434</ele>
        <time>2023-05-14T12:11:22.000Z</time>
      </trkpt>
      <trkpt lat="45.81409" lon="4.6458">
        <ele>318.98505</ele>
        <time>2023-05-14T12:11:23.000Z</time>
      </trkpt>
      <trkpt lat="45.81408" lon="4.64578">
        <ele>319.30453</ele>
        <time>2023-05-14T12:11:24.000Z</time>
      </trkpt>
      <trkpt lat="45.81406" lon="4.64574">
        <ele>319.37143</ele>
        <time>2023-05-14T12:11:25.000Z</time>
      </trkpt>
      <trkpt lat="45.81406" lon="4.64571">
        <ele>319.45148</ele>
        <time>2023-05-14T12:11:26.000Z</time>
      </trkpt>
      <trkpt lat="45.81405" lon="4.64568">
        <ele>319.70959</ele>
        <time>2023-05-14T12:11:27.000Z</time>
      </trkpt>
      <trkpt lat="45.81404" lon="4.64565">
        <ele>320.16989</ele>
        <time>2023-05-14T12:11:28.000Z</time>
      </trkpt>
      <trkpt lat="45.81403" lon="4.64562">
        <ele>320.64871</ele>
        <time>2023-05-14T12:11:29.000Z</time>
      </trkpt>
      <trkpt lat="45.81402" lon="4.64559">
        <ele>321.07434</ele>
        <time>2023-05-14T12:11:30.000Z</time>
      </trkpt>
      <trkpt lat="45.81401" lon="4.64554">
        <ele>321.67615</ele>
        <time>2023-05-14T12:11:32.000Z</time>
      </trkpt>
      <trkpt lat="45.81402" lon="4.64552">
        <ele>322.40408</ele>
        <time>2023-05-14T12:11:33.000Z</time>
      </trkpt>
      <trkpt lat="45.81402" lon="4.64547">
        <ele>323.19067</ele>
        <time>2023-05-14T12:11:35.000Z</time>
      </trkpt>
      <trkpt lat="45.81402" lon="4.64544">
        <ele>323.88181</ele>
        <time>2023-05-14T12:11:36.000Z</time>
      </trkpt>
      <trkpt lat="45.81403" lon="4.64541">
        <ele>324.62759</ele>
        <time>2023-05-14T12:11:37.000Z</time>
      </trkpt>
      <trkpt lat="45.81403" lon="4.64538">
        <ele>325.31836</ele>
        <time>2023-05-14T12:11:38.000Z</time>
      </trkpt>
      <trkpt lat="45.81404" lon="4.64535">
        <ele>325.78354</ele>
        <time>2023-05-14T12:11:39.000Z</time>
      </trkpt>
      <trkpt lat="45.81404" lon="4.6453">
        <ele>326.24081</ele>
        <time>2023-05-14T12:11:41.000Z</time>
      </trkpt>
      <trkpt lat="45.81405" lon="4.64528">
        <ele>326.44724</ele>
        <time>2023-05-14T12:11:42.000Z</time>
      </trkpt>
      <trkpt lat="45.81406" lon="4.64525">
        <ele>326.5434</ele>
        <time>2023-05-14T12:11:43.000Z</time>
      </trkpt>
      <trkpt lat="45.81407" lon="4.64522">
        <ele>326.61932</ele>
        <time>2023-05-14T12:11:44.000Z</time>
      </trkpt>
      <trkpt lat="45.81407" lon="4.64519">
        <ele>326.71671</ele>
        <time>2023-05-14T12:11:45.000Z</time>
      </trkpt>
      <trkpt lat="45.81408" lon="4.64516">
        <ele>326.80688</ele>
        <time>2023-05-14T12:11:46.000Z</time>
      </trkpt>
      <trkpt lat="45.8141" lon="4.64513">
        <ele>327.08008</ele>
        <time>2023-05-14T12:11:47.000Z</time>
      </trkpt>
      <trkpt lat="45.81411" lon="4.6451">
        <ele>327.57166</ele>
        <time>2023-05-14T12:11:48.000Z</time>
      </trkpt>
      <trkpt lat="45.81412" lon="4.64507">
        <ele>328.02414</ele>
        <time>2023-05-14T12:11:49.000Z</time>
      </trkpt>
      <trkpt lat="45.81413" lon="4.64503">
        <ele>328.19525</ele>
        <time>2023-05-14T12:11:50.000Z</time>
      </trkpt>
      <trkpt lat="45.81414" lon="4.64499">
        <ele>328.27008</ele>
        <time>2023-05-14T12:11:51.000Z</time>
      </trkpt>
      <trkpt lat="45.81415" lon="4.64495">
        <ele>328.31381</ele>
        <time>2023-05-14T12:11:52.000Z</time>
      </trkpt>
      <trkpt lat="45.81416" lon="4.64491">
        <ele>328.34235</ele>
        <time>2023-05-14T12:11:53.000Z</time>
      </trkpt>
      <trkpt lat="45.81417" lon="4.64487">
        <ele>328.31232</ele>
        <time>2023-05-14T12:11:54.000Z</time>
      </trkpt>
      <trkpt lat="45.81418" lon="4.64483">
        <ele>328.20804</ele>
        <time>2023-05-14T12:11:55.000Z</time>
      </trkpt>
      <trkpt lat="45.81419" lon="4.64479">
        <ele>328.04712</ele>
        <time>2023-05-14T12:11:56.000Z</time>
      </trkpt>
      <trkpt lat="45.8142" lon="4.64475">
        <ele>327.81335</ele>
        <time>2023-05-14T12:11:57.000Z</time>
      </trkpt>
      <trkpt lat="45.81421" lon="4.64472">
        <ele>327.38565</ele>
        <time>2023-05-14T12:11:58.000Z</time>
      </trkpt>
      <trkpt lat="45.81422" lon="4.64468">
        <ele>327.04376</ele>
        <time>2023-05-14T12:11:59.000Z</time>
      </trkpt>
      <trkpt lat="45.81423" lon="4.64465">
        <ele>326.84503</ele>
        <time>2023-05-14T12:12:00.000Z</time>
      </trkpt>
      <trkpt lat="45.81424" lon="4.64462">
        <ele>326.74298</ele>
        <time>2023-05-14T12:12:01.000Z</time>
      </trkpt>
      <trkpt lat="45.81425" lon="4.64458">
        <ele>326.75067</ele>
        <time>2023-05-14T12:12:02.000Z</time>
      </trkpt>
      <trkpt lat="45.81426" lon="4.64455">
        <ele>326.77722</ele>
        <time>2023-05-14T12:12:03.000Z</time>
      </trkpt>
      <trkpt lat="45.81427" lon="4.64452">
        <ele>326.62738</ele>
        <time>2023-05-14T12:12:04.000Z</time>
      </trkpt>
      <trkpt lat="45.81428" lon="4.64448">
        <ele>326.40094</ele>
        <time>2023-05-14T12:12:05.000Z</time>
      </trkpt>
      <trkpt lat="45.81429" lon="4.64445">
        <ele>326.22778</ele>
        <time>2023-05-14T12:12:06.000Z</time>
      </trkpt>
      <trkpt lat="45.8143" lon="4.64441">
        <ele>325.93466</ele>
        <time>2023-05-14T12:12:07.000Z</time>
      </trkpt>
      <trkpt lat="45.81431" lon="4.64437">
        <ele>325.66602</ele>
        <time>2023-05-14T12:12:08.000Z</time>
      </trkpt>
      <trkpt lat="45.81433" lon="4.64434">
        <ele>325.4292</ele>
        <time>2023-05-14T12:12:09.000Z</time>
      </trkpt>
      <trkpt lat="45.81434" lon="4.64431">
        <ele>325.25082</ele>
        <time>2023-05-14T12:12:10.000Z</time>
      </trkpt>
      <trkpt lat="45.81436" lon="4.64429">
        <ele>324.93918</ele>
        <time>2023-05-14T12:12:11.000Z</time>
      </trkpt>
      <trkpt lat="45.81437" lon="4.64426">
        <ele>324.69351</ele>
        <time>2023-05-14T12:12:12.000Z</time>
      </trkpt>
      <trkpt lat="45.81438" lon="4.64422">
        <ele>324.34171</ele>
        <time>2023-05-14T12:12:13.000Z</time>
      </trkpt>
      <trkpt lat="45.81439" lon="4.64418">
        <ele>324.06842</ele>
        <time>2023-05-14T12:12:14.000Z</time>
      </trkpt>
      <trkpt lat="45.8144" lon="4.64414">
        <ele>323.80133</ele>
        <time>2023-05-14T12:12:15.000Z</time>
      </trkpt>
      <trkpt lat="45.81441" lon="4.6441">
        <ele>323.49011</ele>
        <time>2023-05-14T12:12:16.000Z</time>
      </trkpt>
      <trkpt lat="45.81442" lon="4.64405">
        <ele>323.22888</ele>
        <time>2023-05-14T12:12:17.000Z</time>
      </trkpt>
      <trkpt lat="45.81442" lon="4.644">
        <ele>323.24017</ele>
        <time>2023-05-14T12:12:18.000Z</time>
      </trkpt>
      <trkpt lat="45.81442" lon="4.64395">
        <ele>323.09766</ele>
        <time>2023-05-14T12:12:19.000Z</time>
      </trkpt>
      <trkpt lat="45.81442" lon="4.6439">
        <ele>323.06387</ele>
        <time>2023-05-14T12:12:20.000Z</time>
      </trkpt>
      <trkpt lat="45.81442" lon="4.64385">
        <ele>322.81091</ele>
        <time>2023-05-14T12:12:21.000Z</time>
      </trkpt>
      <trkpt lat="45.81442" lon="4.6438">
        <ele>322.55222</ele>
        <time>2023-05-14T12:12:22.000Z</time>
      </trkpt>
      <trkpt lat="45.81442" lon="4.64376">
        <ele>322.43753</ele>
        <time>2023-05-14T12:12:23.000Z</time>
      </trkpt>
      <trkpt lat="45.81442" lon="4.64372">
        <ele>322.5672</ele>
        <time>2023-05-14T12:12:24.000Z</time>
      </trkpt>
      <trkpt lat="45.81441" lon="4.64366">
        <ele>322.83945</ele>
        <time>2023-05-14T12:12:26.000Z</time>
      </trkpt>
      <trkpt lat="45.8144" lon="4.64364">
        <ele>322.9964</ele>
        <time>2023-05-14T12:12:27.000Z</time>
      </trkpt>
      <trkpt lat="45.81439" lon="4.6436">
        <ele>323.00903</ele>
        <time>2023-05-14T12:12:29.000Z</time>
      </trkpt>
      <trkpt lat="45.81437" lon="4.64357">
        <ele>323.00986</ele>
        <time>2023-05-14T12:12:31.000Z</time>
      </trkpt>
      <trkpt lat="45.81435" lon="4.64354">
        <ele>323.0881</ele>
        <time>2023-05-14T12:12:33.000Z</time>
      </trkpt>
      <trkpt lat="45.81433" lon="4.6435">
        <ele>323.06927</ele>
        <time>2023-05-14T12:12:35.000Z</time>
      </trkpt>
      <trkpt lat="45.81432" lon="4.64346">
        <ele>323.12805</ele>
        <time>2023-05-14T12:12:37.000Z</time>
      </trkpt>
      <trkpt lat="45.8143" lon="4.64342">
        <ele>323.13968</ele>
        <time>2023-05-14T12:12:39.000Z</time>
      </trkpt>
      <trkpt lat="45.81428" lon="4.6434">
        <ele>322.98859</ele>
        <time>2023-05-14T12:12:41.000Z</time>
      </trkpt>
      <trkpt lat="45.81428" lon="4.64336">
        <ele>322.82816</ele>
        <time>2023-05-14T12:12:43.000Z</time>
      </trkpt>
      <trkpt lat="45.81426" lon="4.64333">
        <ele>322.9097</ele>
        <time>2023-05-14T12:12:45.000Z</time>
      </trkpt>
      <trkpt lat="45.81425" lon="4.64331">
        <ele>322.88837</ele>
        <time>2023-05-14T12:12:46.000Z</time>
      </trkpt>
      <trkpt lat="45.81423" lon="4.64328">
        <ele>322.9649</ele>
        <time>2023-05-14T12:12:47.000Z</time>
      </trkpt>
      <trkpt lat="45.81422" lon="4.64327">
        <ele>323.07297</ele>
        <time>2023-05-14T12:12:48.000Z</time>
      </trkpt>
      <trkpt lat="45.8142" lon="4.64325">
        <ele>323.31293</ele>
        <time>2023-05-14T12:12:49.000Z</time>
      </trkpt>
      <trkpt lat="45.81419" lon="4.64322">
        <ele>323.59384</ele>
        <time>2023-05-14T12:12:50.000Z</time>
      </trkpt>
      <trkpt lat="45.81417" lon="4.6432">
        <ele>323.91953</ele>
        <time>2023-05-14T12:12:51.000Z</time>
      </trkpt>
      <trkpt lat="45.81416" lon="4.64318">
        <ele>324.3941</ele>
        <time>2023-05-14T12:12:52.000Z</time>
      </trkpt>
      <trkpt lat="45.81414" lon="4.64316">
        <ele>324.47369</ele>
        <time>2023-05-14T12:12:54.000Z</time>
      </trkpt>
      <trkpt lat="45.81411" lon="4.64312">
        <ele>324.43192</ele>
        <time>2023-05-14T12:12:56.000Z</time>
      </trkpt>
      <trkpt lat="45.8141" lon="4.64309">
        <ele>324.24664</ele>
        <time>2023-05-14T12:12:57.000Z</time>
      </trkpt>
      <trkpt lat="45.81409" lon="4.64306">
        <ele>323.97415</ele>
        <time>2023-05-14T12:12:58.000Z</time>
      </trkpt>
      <trkpt lat="45.81408" lon="4.64302">
        <ele>323.72473</ele>
        <time>2023-05-14T12:12:59.000Z</time>
      </trkpt>
      <trkpt lat="45.81408" lon="4.64299">
        <ele>323.51047</ele>
        <time>2023-05-14T12:13:00.000Z</time>
      </trkpt>
      <trkpt lat="45.81409" lon="4.64295">
        <ele>323.08765</ele>
        <time>2023-05-14T12:13:02.000Z</time>
      </trkpt>
      <trkpt lat="45.81409" lon="4.64291">
        <ele>322.87445</ele>
        <time>2023-05-14T12:13:04.000Z</time>
      </trkpt>
      <trkpt lat="45.81409" lon="4.64286">
        <ele>322.51959</ele>
        <time>2023-05-14T12:13:06.000Z</time>
      </trkpt>
      <trkpt lat="45.8141" lon="4.64283">
        <ele>322.13455</ele>
        <time>2023-05-14T12:13:07.000Z</time>
      </trkpt>
      <trkpt lat="45.8141" lon="4.6428">
        <ele>322.04852</ele>
        <time>2023-05-14T12:13:08.000Z</time>
      </trkpt>
      <trkpt lat="45.81409" lon="4.64278">
        <ele>321.80267</ele>
        <time>2023-05-14T12:13:09.000Z</time>
      </trkpt>
      <trkpt lat="45.81408" lon="4.64275">
        <ele>321.26633</ele>
        <time>2023-05-14T12:13:11.000Z</time>
      </trkpt>
      <trkpt lat="45.81407" lon="4.64272">
        <ele>321.22955</ele>
        <time>2023-05-14T12:13:15.000Z</time>
      </trkpt>
      <trkpt lat="45.81407" lon="4.64269">
        <ele>321.02481</ele>
        <time>2023-05-14T12:13:25.000Z</time>
      </trkpt>
      <trkpt lat="45.81408" lon="4.64264">
        <ele>320.68451</ele>
        <time>2023-05-14T12:13:27.000Z</time>
      </trkpt>
      <trkpt lat="45.81408" lon="4.64261">
        <ele>320.28717</ele>
        <time>2023-05-14T12:13:28.000Z</time>
      </trkpt>
      <trkpt lat="45.81408" lon="4.64258">
        <ele>320.51288</ele>
        <time>2023-05-14T12:13:29.000Z</time>
      </trkpt>
      <trkpt lat="45.81408" lon="4.64255">
        <ele>320.99188</ele>
        <time>2023-05-14T12:13:30.000Z</time>
      </trkpt>
      <trkpt lat="45.81409" lon="4.64253">
        <ele>321.58893</ele>
        <time>2023-05-14T12:13:31.000Z</time>
      </trkpt>
      <trkpt lat="45.8141" lon="4.6425">
        <ele>322.53284</ele>
        <time>2023-05-14T12:13:32.000Z</time>
      </trkpt>
      <trkpt lat="45.81411" lon="4.64247">
        <ele>323.58942</ele>
        <time>2023-05-14T12:13:33.000Z</time>
      </trkpt>
      <trkpt lat="45.81411" lon="4.64244">
        <ele>324.73633</ele>
        <time>2023-05-14T12:13:34.000Z</time>
      </trkpt>
      <trkpt lat="45.81412" lon="4.64241">
        <ele>326.03842</ele>
        <time>2023-05-14T12:13:35.000Z</time>
      </trkpt>
      <trkpt lat="45.81412" lon="4.64237">
        <ele>327.41803</ele>
        <time>2023-05-14T12:13:36.000Z</time>
      </trkpt>
      <trkpt lat="45.81413" lon="4.64234">
        <ele>328.77258</ele>
        <time>2023-05-14T12:13:37.000Z</time>
      </trkpt>
      <trkpt lat="45.81414" lon="4.64231">
        <ele>330.2251</ele>
        <time>2023-05-14T12:13:38.000Z</time>
      </trkpt>
      <trkpt lat="45.81415" lon="4.64228">
        <ele>331.62817</ele>
        <time>2023-05-14T12:13:39.000Z</time>
      </trkpt>
      <trkpt lat="45.81416" lon="4.64224">
        <ele>333.17059</ele>
        <time>2023-05-14T12:13:40.000Z</time>
      </trkpt>
      <trkpt lat="45.81417" lon="4.64221">
        <ele>335.11484</ele>
        <time>2023-05-14T12:13:41.000Z</time>
      </trkpt>
      <trkpt lat="45.81417" lon="4.64217">
        <ele>337.13666</ele>
        <time>2023-05-14T12:13:42.000Z</time>
      </trkpt>
      <trkpt lat="45.81418" lon="4.64214">
        <ele>338.7464</ele>
        <time>2023-05-14T12:13:43.000Z</time>
      </trkpt>
      <trkpt lat="45.81419" lon="4.64211">
        <ele>340.3981</ele>
        <time>2023-05-14T12:13:44.000Z</time>
      </trkpt>
      <trkpt lat="45.81419" lon="4.64207">
        <ele>341.70755</ele>
        <time>2023-05-14T12:13:45.000Z</time>
      </trkpt>
      <trkpt lat="45.8142" lon="4.64204">
        <ele>343.0889</ele>
        <time>2023-05-14T12:13:46.000Z</time>
      </trkpt>
      <trkpt lat="45.81421" lon="4.64201">
        <ele>344.52362</ele>
        <time>2023-05-14T12:13:47.000Z</time>
      </trkpt>
      <trkpt lat="45.81421" lon="4.64197">
        <ele>345.94901</ele>
        <time>2023-05-14T12:13:48.000Z</time>
      </trkpt>
      <trkpt lat="45.81422" lon="4.64194">
        <ele>346.7381</ele>
        <time>2023-05-14T12:13:49.000Z</time>
      </trkpt>
      <trkpt lat="45.81422" lon="4.64191">
        <ele>347.26785</ele>
        <time>2023-05-14T12:13:50.000Z</time>
      </trkpt>
      <trkpt lat="45.81423" lon="4.64187">
        <ele>347.56122</ele>
        <time>2023-05-14T12:13:51.000Z</time>
      </trkpt>
      <trkpt lat="45.81423" lon="4.64184">
        <ele>347.82172</ele>
        <time>2023-05-14T12:13:52.000Z</time>
      </trkpt>
      <trkpt lat="45.81424" lon="4.64181">
        <ele>348.01764</ele>
        <time>2023-05-14T12:13:53.000Z</time>
      </trkpt>
      <trkpt lat="45.81425" lon="4.64178">
        <ele>348.58954</ele>
        <time>2023-05-14T12:13:54.000Z</time>
      </trkpt>
      <trkpt lat="45.81425" lon="4.64175">
        <ele>349.18558</ele>
        <time>2023-05-14T12:13:55.000Z</time>
      </trkpt>
      <trkpt lat="45.81426" lon="4.64172">
        <ele>349.785</ele>
        <time>2023-05-14T12:13:56.000Z</time>
      </trkpt>
      <trkpt lat="45.81426" lon="4.64169">
        <ele>350.34097</ele>
        <time>2023-05-14T12:13:57.000Z</time>
      </trkpt>
      <trkpt lat="45.81427" lon="4.64166">
        <ele>350.90509</ele>
        <time>2023-05-14T12:13:58.000Z</time>
      </trkpt>
      <trkpt lat="45.81427" lon="4.64163">
        <ele>351.44171</ele>
        <time>2023-05-14T12:13:59.000Z</time>
      </trkpt>
      <trkpt lat="45.81428" lon="4.6416">
        <ele>351.26947</ele>
        <time>2023-05-14T12:14:00.000Z</time>
      </trkpt>
      <trkpt lat="45.81428" lon="4.64156">
        <ele>350.55978</ele>
        <time>2023-05-14T12:14:01.000Z</time>
      </trkpt>
      <trkpt lat="45.81429" lon="4.64153">
        <ele>349.73755</ele>
        <time>2023-05-14T12:14:02.000Z</time>
      </trkpt>
      <trkpt lat="45.81429" lon="4.6415">
        <ele>349.32465</ele>
        <time>2023-05-14T12:14:03.000Z</time>
      </trkpt>
      <trkpt lat="45.81429" lon="4.64147">
        <ele>348.88489</ele>
        <time>2023-05-14T12:14:04.000Z</time>
      </trkpt>
      <trkpt lat="45.8143" lon="4.64144">
        <ele>349.05313</ele>
        <time>2023-05-14T12:14:05.000Z</time>
      </trkpt>
      <trkpt lat="45.8143" lon="4.64141">
        <ele>349.13922</ele>
        <time>2023-05-14T12:14:06.000Z</time>
      </trkpt>
      <trkpt lat="45.8143" lon="4.64137">
        <ele>349.19781</ele>
        <time>2023-05-14T12:14:07.000Z</time>
      </trkpt>
      <trkpt lat="45.8143" lon="4.64134">
        <ele>349.22653</ele>
        <time>2023-05-14T12:14:08.000Z</time>
      </trkpt>
      <trkpt lat="45.81429" lon="4.6413">
        <ele>349.25156</ele>
        <time>2023-05-14T12:14:09.000Z</time>
      </trkpt>
      <trkpt lat="45.81429" lon="4.64127">
        <ele>349.48016</ele>
        <time>2023-05-14T12:14:10.000Z</time>
      </trkpt>
      <trkpt lat="45.81429" lon="4.64123">
        <ele>349.72235</ele>
        <time>2023-05-14T12:14:11.000Z</time>
      </trkpt>
      <trkpt lat="45.81429" lon="4.6412">
        <ele>349.96075</ele>
        <time>2023-05-14T12:14:12.000Z</time>
      </trkpt>
      <trkpt lat="45.81429" lon="4.64117">
        <ele>350.21802</ele>
        <time>2023-05-14T12:14:13.000Z</time>
      </trkpt>
      <trkpt lat="45.81429" lon="4.64114">
        <ele>350.07584</ele>
        <time>2023-05-14T12:14:14.000Z</time>
      </trkpt>
      <trkpt lat="45.81429" lon="4.64111">
        <ele>349.89468</ele>
        <time>2023-05-14T12:14:15.000Z</time>
      </trkpt>
      <trkpt lat="45.81429" lon="4.64107">
        <ele>349.71527</ele>
        <time>2023-05-14T12:14:16.000Z</time>
      </trkpt>
      <trkpt lat="45.81429" lon="4.64104">
        <ele>349.55676</ele>
        <time>2023-05-14T12:14:17.000Z</time>
      </trkpt>
      <trkpt lat="45.81429" lon="4.64101">
        <ele>349.37845</ele>
        <time>2023-05-14T12:14:18.000Z</time>
      </trkpt>
      <trkpt lat="45.81429" lon="4.64098">
        <ele>349.18222</ele>
        <time>2023-05-14T12:14:19.000Z</time>
      </trkpt>
      <trkpt lat="45.81429" lon="4.64095">
        <ele>350.21899</ele>
        <time>2023-05-14T12:14:20.000Z</time>
      </trkpt>
      <trkpt lat="45.81429" lon="4.64091">
        <ele>351.30731</ele>
        <time>2023-05-14T12:14:21.000Z</time>
      </trkpt>
      <trkpt lat="45.81429" lon="4.64088">
        <ele>352.42999</ele>
        <time>2023-05-14T12:14:22.000Z</time>
      </trkpt>
      <trkpt lat="45.81429" lon="4.64084">
        <ele>353.57245</ele>
        <time>2023-05-14T12:14:23.000Z</time>
      </trkpt>
      <trkpt lat="45.81429" lon="4.64081">
        <ele>354.7193</ele>
        <time>2023-05-14T12:14:24.000Z</time>
      </trkpt>
      <trkpt lat="45.81428" lon="4.64077">
        <ele>355.24011</ele>
        <time>2023-05-14T12:14:25.000Z</time>
      </trkpt>
      <trkpt lat="45.81428" lon="4.64073">
        <ele>355.73016</ele>
        <time>2023-05-14T12:14:26.000Z</time>
      </trkpt>
      <trkpt lat="45.81428" lon="4.6407">
        <ele>356.52243</ele>
        <time>2023-05-14T12:14:27.000Z</time>
      </trkpt>
      <trkpt lat="45.81428" lon="4.64066">
        <ele>357.28369</ele>
        <time>2023-05-14T12:14:28.000Z</time>
      </trkpt>
      <trkpt lat="45.81427" lon="4.64064">
        <ele>357.99835</ele>
        <time>2023-05-14T12:14:29.000Z</time>
      </trkpt>
      <trkpt lat="45.81427" lon="4.64061">
        <ele>358.67212</ele>
        <time>2023-05-14T12:14:30.000Z</time>
      </trkpt>
      <trkpt lat="45.81427" lon="4.64058">
        <ele>359.36948</ele>
        <time>2023-05-14T12:14:31.000Z</time>
      </trkpt>
      <trkpt lat="45.81427" lon="4.64054">
        <ele>360.11371</ele>
        <time>2023-05-14T12:14:32.000Z</time>
      </trkpt>
      <trkpt lat="45.81426" lon="4.64051">
        <ele>360.86346</ele>
        <time>2023-05-14T12:14:33.000Z</time>
      </trkpt>
      <trkpt lat="45.81426" lon="4.64048">
        <ele>361.55008</ele>
        <time>2023-05-14T12:14:34.000Z</time>
      </trkpt>
      <trkpt lat="45.81426" lon="4.64045">
        <ele>362.2825</ele>
        <time>2023-05-14T12:14:35.000Z</time>
      </trkpt>
      <trkpt lat="45.81425" lon="4.64043">
        <ele>362.99127</ele>
        <time>2023-05-14T12:14:36.000Z</time>
      </trkpt>
      <trkpt lat="45.81425" lon="4.6404">
        <ele>363.69037</ele>
        <time>2023-05-14T12:14:37.000Z</time>
      </trkpt>
      <trkpt lat="45.81425" lon="4.64038">
        <ele>364.39349</ele>
        <time>2023-05-14T12:14:38.000Z</time>
      </trkpt>
      <trkpt lat="45.81425" lon="4.64034">
        <ele>364.9187</ele>
        <time>2023-05-14T12:14:40.000Z</time>
      </trkpt>
      <trkpt lat="45.81424" lon="4.6403">
        <ele>365.17935</ele>
        <time>2023-05-14T12:14:42.000Z</time>
      </trkpt>
      <trkpt lat="45.81422" lon="4.64028">
        <ele>365.51218</ele>
        <time>2023-05-14T12:14:44.000Z</time>
      </trkpt>
      <trkpt lat="45.8142" lon="4.64027">
        <ele>365.78314</ele>
        <time>2023-05-14T12:14:45.000Z</time>
      </trkpt>
      <trkpt lat="45.81418" lon="4.64026">
        <ele>366.08997</ele>
        <time>2023-05-14T12:14:46.000Z</time>
      </trkpt>
      <trkpt lat="45.81416" lon="4.64024">
        <ele>366.37393</ele>
        <time>2023-05-14T12:14:47.000Z</time>
      </trkpt>
      <trkpt lat="45.81414" lon="4.64024">
        <ele>366.67932</ele>
        <time>2023-05-14T12:14:48.000Z</time>
      </trkpt>
      <trkpt lat="45.81413" lon="4.64023">
        <ele>367.1203</ele>
        <time>2023-05-14T12:14:49.000Z</time>
      </trkpt>
      <trkpt lat="45.81411" lon="4.64021">
        <ele>367.26138</ele>
        <time>2023-05-14T12:14:50.000Z</time>
      </trkpt>
      <trkpt lat="45.81409" lon="4.6402">
        <ele>367.44049</ele>
        <time>2023-05-14T12:14:51.000Z</time>
      </trkpt>
      <trkpt lat="45.81408" lon="4.64019">
        <ele>367.6424</ele>
        <time>2023-05-14T12:14:52.000Z</time>
      </trkpt>
      <trkpt lat="45.81406" lon="4.64017">
        <ele>367.8732</ele>
        <time>2023-05-14T12:14:53.000Z</time>
      </trkpt>
      <trkpt lat="45.81404" lon="4.64014">
        <ele>368.09091</ele>
        <time>2023-05-14T12:14:55.000Z</time>
      </trkpt>
      <trkpt lat="45.81401" lon="4.64011">
        <ele>368.25024</ele>
        <time>2023-05-14T12:14:57.000Z</time>
      </trkpt>
      <trkpt lat="45.81399" lon="4.64009">
        <ele>368.41727</ele>
        <time>2023-05-14T12:14:58.000Z</time>
      </trkpt>
      <trkpt lat="45.81397" lon="4.64008">
        <ele>368.64529</ele>
        <time>2023-05-14T12:14:59.000Z</time>
      </trkpt>
      <trkpt lat="45.81396" lon="4.64006">
        <ele>368.66998</ele>
        <time>2023-05-14T12:15:00.000Z</time>
      </trkpt>
      <trkpt lat="45.81394" lon="4.64005">
        <ele>368.69186</ele>
        <time>2023-05-14T12:15:01.000Z</time>
      </trkpt>
      <trkpt lat="45.81391" lon="4.64003">
        <ele>367.80328</ele>
        <time>2023-05-14T12:15:03.000Z</time>
      </trkpt>
      <trkpt lat="45.8139" lon="4.64001">
        <ele>366.93188</ele>
        <time>2023-05-14T12:15:04.000Z</time>
      </trkpt>
      <trkpt lat="45.81388" lon="4.64">
        <ele>367.00366</ele>
        <time>2023-05-14T12:15:05.000Z</time>
      </trkpt>
      <trkpt lat="45.81387" lon="4.63998">
        <ele>366.68219</ele>
        <time>2023-05-14T12:15:06.000Z</time>
      </trkpt>
      <trkpt lat="45.81386" lon="4.63996">
        <ele>366.40619</ele>
        <time>2023-05-14T12:15:07.000Z</time>
      </trkpt>
      <trkpt lat="45.81385" lon="4.63993">
        <ele>366.1843</ele>
        <time>2023-05-14T12:15:08.000Z</time>
      </trkpt>
      <trkpt lat="45.81384" lon="4.63991">
        <ele>365.94305</ele>
        <time>2023-05-14T12:15:09.000Z</time>
      </trkpt>
      <trkpt lat="45.81385" lon="4.63988">
        <ele>365.73047</ele>
        <time>2023-05-14T12:15:10.000Z</time>
      </trkpt>
      <trkpt lat="45.81386" lon="4.63986">
        <ele>365.51407</ele>
        <time>2023-05-14T12:15:11.000Z</time>
      </trkpt>
      <trkpt lat="45.81387" lon="4.63983">
        <ele>365.26886</ele>
        <time>2023-05-14T12:15:12.000Z</time>
      </trkpt>
      <trkpt lat="45.81389" lon="4.63981">
        <ele>365.00854</ele>
        <time>2023-05-14T12:15:13.000Z</time>
      </trkpt>
      <trkpt lat="45.81391" lon="4.63979">
        <ele>364.76508</ele>
        <time>2023-05-14T12:15:14.000Z</time>
      </trkpt>
      <trkpt lat="45.81392" lon="4.63977">
        <ele>364.49493</ele>
        <time>2023-05-14T12:15:15.000Z</time>
      </trkpt>
      <trkpt lat="45.81394" lon="4.63975">
        <ele>364.21503</ele>
        <time>2023-05-14T12:15:16.000Z</time>
      </trkpt>
      <trkpt lat="45.81395" lon="4.63973">
        <ele>363.92517</ele>
        <time>2023-05-14T12:15:17.000Z</time>
      </trkpt>
      <trkpt lat="45.81396" lon="4.6397">
        <ele>364.20224</ele>
        <time>2023-05-14T12:15:18.000Z</time>
      </trkpt>
      <trkpt lat="45.81398" lon="4.63968">
        <ele>364.46899</ele>
        <time>2023-05-14T12:15:19.000Z</time>
      </trkpt>
      <trkpt lat="45.81399" lon="4.63966">
        <ele>364.7106</ele>
        <time>2023-05-14T12:15:20.000Z</time>
      </trkpt>
      <trkpt lat="45.81401" lon="4.63962">
        <ele>365.14911</ele>
        <time>2023-05-14T12:15:22.000Z</time>
      </trkpt>
      <trkpt lat="45.81401" lon="4.63959">
        <ele>365.57141</ele>
        <time>2023-05-14T12:15:23.000Z</time>
      </trkpt>
      <trkpt lat="45.81402" lon="4.63956">
        <ele>366.91629</ele>
        <time>2023-05-14T12:15:24.000Z</time>
      </trkpt>
      <trkpt lat="45.81403" lon="4.63954">
        <ele>368.2543</ele>
        <time>2023-05-14T12:15:25.000Z</time>
      </trkpt>
      <trkpt lat="45.81405" lon="4.63951">
        <ele>368.85004</ele>
        <time>2023-05-14T12:15:26.000Z</time>
      </trkpt>
      <trkpt lat="45.81406" lon="4.63949">
        <ele>369.57495</ele>
        <time>2023-05-14T12:15:27.000Z</time>
      </trkpt>
      <trkpt lat="45.81407" lon="4.63946">
        <ele>370.27042</ele>
        <time>2023-05-14T12:15:28.000Z</time>
      </trkpt>
      <trkpt lat="45.81408" lon="4.63944">
        <ele>370.94943</ele>
        <time>2023-05-14T12:15:29.000Z</time>
      </trkpt>
      <trkpt lat="45.81409" lon="4.63941">
        <ele>371.61731</ele>
        <time>2023-05-14T12:15:30.000Z</time>
      </trkpt>
      <trkpt lat="45.8141" lon="4.63939">
        <ele>371.76727</ele>
        <time>2023-05-14T12:15:31.000Z</time>
      </trkpt>
      <trkpt lat="45.81411" lon="4.63936">
        <ele>371.92133</ele>
        <time>2023-05-14T12:15:32.000Z</time>
      </trkpt>
      <trkpt lat="45.81413" lon="4.63933">
        <ele>372.07831</ele>
        <time>2023-05-14T12:15:33.000Z</time>
      </trkpt>
      <trkpt lat="45.81414" lon="4.6393">
        <ele>372.21466</ele>
        <time>2023-05-14T12:15:34.000Z</time>
      </trkpt>
      <trkpt lat="45.81415" lon="4.63928">
        <ele>371.73383</ele>
        <time>2023-05-14T12:15:35.000Z</time>
      </trkpt>
      <trkpt lat="45.81416" lon="4.63925">
        <ele>372.45285</ele>
        <time>2023-05-14T12:15:36.000Z</time>
      </trkpt>
      <trkpt lat="45.81416" lon="4.63921">
        <ele>373.1467</ele>
        <time>2023-05-14T12:15:37.000Z</time>
      </trkpt>
      <trkpt lat="45.81417" lon="4.63919">
        <ele>373.84384</ele>
        <time>2023-05-14T12:15:38.000Z</time>
      </trkpt>
      <trkpt lat="45.81417" lon="4.63916">
        <ele>373.97388</ele>
        <time>2023-05-14T12:15:39.000Z</time>
      </trkpt>
      <trkpt lat="45.81418" lon="4.63913">
        <ele>373.8349</ele>
        <time>2023-05-14T12:15:40.000Z</time>
      </trkpt>
      <trkpt lat="45.81419" lon="4.63911">
        <ele>373.61832</ele>
        <time>2023-05-14T12:15:41.000Z</time>
      </trkpt>
      <trkpt lat="45.81419" lon="4.63907">
        <ele>373.30762</ele>
        <time>2023-05-14T12:15:42.000Z</time>
      </trkpt>
      <trkpt lat="45.8142" lon="4.63904">
        <ele>372.99194</ele>
        <time>2023-05-14T12:15:43.000Z</time>
      </trkpt>
      <trkpt lat="45.8142" lon="4.639">
        <ele>372.7164</ele>
        <time>2023-05-14T12:15:44.000Z</time>
      </trkpt>
      <trkpt lat="45.8142" lon="4.63897">
        <ele>372.48166</ele>
        <time>2023-05-14T12:15:45.000Z</time>
      </trkpt>
      <trkpt lat="45.81421" lon="4.63894">
        <ele>372.21359</ele>
        <time>2023-05-14T12:15:46.000Z</time>
      </trkpt>
      <trkpt lat="45.81421" lon="4.63891">
        <ele>371.80112</ele>
        <time>2023-05-14T12:15:47.000Z</time>
      </trkpt>
      <trkpt lat="45.81422" lon="4.63888">
        <ele>371.39398</ele>
        <time>2023-05-14T12:15:48.000Z</time>
      </trkpt>
      <trkpt lat="45.81422" lon="4.63885">
        <ele>370.95367</ele>
        <time>2023-05-14T12:15:49.000Z</time>
      </trkpt>
      <trkpt lat="45.81422" lon="4.63882">
        <ele>370.58304</ele>
        <time>2023-05-14T12:15:50.000Z</time>
      </trkpt>
      <trkpt lat="45.81421" lon="4.63877">
        <ele>370.79498</ele>
        <time>2023-05-14T12:15:52.000Z</time>
      </trkpt>
      <trkpt lat="45.81421" lon="4.63874">
        <ele>371.64435</ele>
        <time>2023-05-14T12:15:54.000Z</time>
      </trkpt>
      <trkpt lat="45.81418" lon="4.63872">
        <ele>372.75555</ele>
        <time>2023-05-14T12:15:56.000Z</time>
      </trkpt>
      <trkpt lat="45.81416" lon="4.63871">
        <ele>372.60046</ele>
        <time>2023-05-14T12:15:57.000Z</time>
      </trkpt>
      <trkpt lat="45.81413" lon="4.6387">
        <ele>373.54117</ele>
        <time>2023-05-14T12:15:59.000Z</time>
      </trkpt>
      <trkpt lat="45.81409" lon="4.6387">
        <ele>373.58231</ele>
        <time>2023-05-14T12:16:01.000Z</time>
      </trkpt>
      <trkpt lat="45.81407" lon="4.6387">
        <ele>373.79791</ele>
        <time>2023-05-14T12:16:02.000Z</time>
      </trkpt>
      <trkpt lat="45.81405" lon="4.63871">
        <ele>374.08066</ele>
        <time>2023-05-14T12:16:03.000Z</time>
      </trkpt>
      <trkpt lat="45.81403" lon="4.6387">
        <ele>374.38687</ele>
        <time>2023-05-14T12:16:04.000Z</time>
      </trkpt>
      <trkpt lat="45.81401" lon="4.6387">
        <ele>374.97543</ele>
        <time>2023-05-14T12:16:05.000Z</time>
      </trkpt>
      <trkpt lat="45.81399" lon="4.63869">
        <ele>375.66144</ele>
        <time>2023-05-14T12:16:06.000Z</time>
      </trkpt>
      <trkpt lat="45.81397" lon="4.63868">
        <ele>376.43945</ele>
        <time>2023-05-14T12:16:07.000Z</time>
      </trkpt>
      <trkpt lat="45.81395" lon="4.63867">
        <ele>377.21811</ele>
        <time>2023-05-14T12:16:08.000Z</time>
      </trkpt>
      <trkpt lat="45.81393" lon="4.63867">
        <ele>377.94083</ele>
        <time>2023-05-14T12:16:09.000Z</time>
      </trkpt>
      <trkpt lat="45.81391" lon="4.63866">
        <ele>378.60422</ele>
        <time>2023-05-14T12:16:10.000Z</time>
      </trkpt>
      <trkpt lat="45.81389" lon="4.63866">
        <ele>379.31375</ele>
        <time>2023-05-14T12:16:11.000Z</time>
      </trkpt>
      <trkpt lat="45.81387" lon="4.63866">
        <ele>380.15298</ele>
        <time>2023-05-14T12:16:12.000Z</time>
      </trkpt>
      <trkpt lat="45.81385" lon="4.63866">
        <ele>381.02893</ele>
        <time>2023-05-14T12:16:13.000Z</time>
      </trkpt>
      <trkpt lat="45.81383" lon="4.63866">
        <ele>381.38263</ele>
        <time>2023-05-14T12:16:14.000Z</time>
      </trkpt>
      <trkpt lat="45.81381" lon="4.63865">
        <ele>381.65701</ele>
        <time>2023-05-14T12:16:15.000Z</time>
      </trkpt>
      <trkpt lat="45.81379" lon="4.63865">
        <ele>381.87576</ele>
        <time>2023-05-14T12:16:16.000Z</time>
      </trkpt>
      <trkpt lat="45.81377" lon="4.63865">
        <ele>381.46851</ele>
        <time>2023-05-14T12:16:17.000Z</time>
      </trkpt>
      <trkpt lat="45.81375" lon="4.63865">
        <ele>380.82932</ele>
        <time>2023-05-14T12:16:18.000Z</time>
      </trkpt>
      <trkpt lat="45.81373" lon="4.63865">
        <ele>381.48242</ele>
        <time>2023-05-14T12:16:19.000Z</time>
      </trkpt>
      <trkpt lat="45.81371" lon="4.63864">
        <ele>381.20203</ele>
        <time>2023-05-14T12:16:20.000Z</time>
      </trkpt>
      <trkpt lat="45.81369" lon="4.63863">
        <ele>380.64548</ele>
        <time>2023-05-14T12:16:21.000Z</time>
      </trkpt>
      <trkpt lat="45.81367" lon="4.63862">
        <ele>379.94708</ele>
        <time>2023-05-14T12:16:22.000Z</time>
      </trkpt>
      <trkpt lat="45.81365" lon="4.6386">
        <ele>379.1944</ele>
        <time>2023-05-14T12:16:24.000Z</time>
      </trkpt>
      <trkpt lat="45.81364" lon="4.63857">
        <ele>378.4614</ele>
        <time>2023-05-14T12:16:25.000Z</time>
      </trkpt>
      <trkpt lat="45.81364" lon="4.63854">
        <ele>377.70148</ele>
        <time>2023-05-14T12:16:26.000Z</time>
      </trkpt>
      <trkpt lat="45.81364" lon="4.63851">
        <ele>376.93475</ele>
        <time>2023-05-14T12:16:27.000Z</time>
      </trkpt>
      <trkpt lat="45.81366" lon="4.63849">
        <ele>376.1629</ele>
        <time>2023-05-14T12:16:28.000Z</time>
      </trkpt>
      <trkpt lat="45.81368" lon="4.63847">
        <ele>375.38965</ele>
        <time>2023-05-14T12:16:29.000Z</time>
      </trkpt>
      <trkpt lat="45.8137" lon="4.63846">
        <ele>374.62509</ele>
        <time>2023-05-14T12:16:30.000Z</time>
      </trkpt>
      <trkpt lat="45.81372" lon="4.63845">
        <ele>373.87781</ele>
        <time>2023-05-14T12:16:31.000Z</time>
      </trkpt>
      <trkpt lat="45.81373" lon="4.63843">
        <ele>373.09296</ele>
        <time>2023-05-14T12:16:32.000Z</time>
      </trkpt>
      <trkpt lat="45.81377" lon="4.63841">
        <ele>372.13239</ele>
        <time>2023-05-14T12:16:34.000Z</time>
      </trkpt>
      <trkpt lat="45.81379" lon="4.63839">
        <ele>371.3403</ele>
        <time>2023-05-14T12:16:35.000Z</time>
      </trkpt>
      <trkpt lat="45.81381" lon="4.63838">
        <ele>370.55295</ele>
        <time>2023-05-14T12:16:36.000Z</time>
      </trkpt>
      <trkpt lat="45.81383" lon="4.63837">
        <ele>370.91586</ele>
        <time>2023-05-14T12:16:37.000Z</time>
      </trkpt>
      <trkpt lat="45.81385" lon="4.63836">
        <ele>371.20038</ele>
        <time>2023-05-14T12:16:38.000Z</time>
      </trkpt>
      <trkpt lat="45.81387" lon="4.63834">
        <ele>371.42685</ele>
        <time>2023-05-14T12:16:39.000Z</time>
      </trkpt>
      <trkpt lat="45.81389" lon="4.63831">
        <ele>371.53619</ele>
        <time>2023-05-14T12:16:40.000Z</time>
      </trkpt>
      <trkpt lat="45.8139" lon="4.63829">
        <ele>371.58826</ele>
        <time>2023-05-14T12:16:41.000Z</time>
      </trkpt>
      <trkpt lat="45.81392" lon="4.63827">
        <ele>372.22714</ele>
        <time>2023-05-14T12:16:42.000Z</time>
      </trkpt>
      <trkpt lat="45.81394" lon="4.63826">
        <ele>372.81537</ele>
        <time>2023-05-14T12:16:43.000Z</time>
      </trkpt>
      <trkpt lat="45.81396" lon="4.63824">
        <ele>373.38577</ele>
        <time>2023-05-14T12:16:44.000Z</time>
      </trkpt>
      <trkpt lat="45.81398" lon="4.63822">
        <ele>374.8772</ele>
        <time>2023-05-14T12:16:45.000Z</time>
      </trkpt>
      <trkpt lat="45.814" lon="4.6382">
        <ele>375.13535</ele>
        <time>2023-05-14T12:16:46.000Z</time>
      </trkpt>
      <trkpt lat="45.81401" lon="4.63818">
        <ele>375.40512</ele>
        <time>2023-05-14T12:16:47.000Z</time>
      </trkpt>
      <trkpt lat="45.81403" lon="4.63817">
        <ele>375.67822</ele>
        <time>2023-05-14T12:16:48.000Z</time>
      </trkpt>
      <trkpt lat="45.81405" lon="4.63815">
        <ele>375.1192</ele>
        <time>2023-05-14T12:16:49.000Z</time>
      </trkpt>
      <trkpt lat="45.81407" lon="4.63814">
        <ele>375.69382</ele>
        <time>2023-05-14T12:16:50.000Z</time>
      </trkpt>
      <trkpt lat="45.81409" lon="4.63812">
        <ele>376.21936</ele>
        <time>2023-05-14T12:16:51.000Z</time>
      </trkpt>
      <trkpt lat="45.81412" lon="4.63811">
        <ele>376.73984</ele>
        <time>2023-05-14T12:16:52.000Z</time>
      </trkpt>
      <trkpt lat="45.81414" lon="4.6381">
        <ele>377.19299</ele>
        <time>2023-05-14T12:16:53.000Z</time>
      </trkpt>
      <trkpt lat="45.81416" lon="4.63809">
        <ele>377.90485</ele>
        <time>2023-05-14T12:16:54.000Z</time>
      </trkpt>
      <trkpt lat="45.81418" lon="4.63807">
        <ele>378.93652</ele>
        <time>2023-05-14T12:16:55.000Z</time>
      </trkpt>
      <trkpt lat="45.81422" lon="4.63805">
        <ele>380.50491</ele>
        <time>2023-05-14T12:16:57.000Z</time>
      </trkpt>
      <trkpt lat="45.81424" lon="4.63804">
        <ele>380.96759</ele>
        <time>2023-05-14T12:16:58.000Z</time>
      </trkpt>
      <trkpt lat="45.81426" lon="4.63803">
        <ele>381.52042</ele>
        <time>2023-05-14T12:16:59.000Z</time>
      </trkpt>
      <trkpt lat="45.81429" lon="4.63801">
        <ele>381.52441</ele>
        <time>2023-05-14T12:17:01.000Z</time>
      </trkpt>
      <trkpt lat="45.81431" lon="4.63799">
        <ele>383.03293</ele>
        <time>2023-05-14T12:17:02.000Z</time>
      </trkpt>
      <trkpt lat="45.81433" lon="4.63798">
        <ele>384.57062</ele>
        <time>2023-05-14T12:17:03.000Z</time>
      </trkpt>
      <trkpt lat="45.81435" lon="4.63797">
        <ele>385.95868</ele>
        <time>2023-05-14T12:17:04.000Z</time>
      </trkpt>
      <trkpt lat="45.81437" lon="4.63796">
        <ele>387.37244</ele>
        <time>2023-05-14T12:17:05.000Z</time>
      </trkpt>
      <trkpt lat="45.81441" lon="4.63794">
        <ele>387.72168</ele>
        <time>2023-05-14T12:17:07.000Z</time>
      </trkpt>
      <trkpt lat="45.81443" lon="4.63794">
        <ele>386.95807</ele>
        <time>2023-05-14T12:17:08.000Z</time>
      </trkpt>
      <trkpt lat="45.81446" lon="4.63793">
        <ele>387.41995</ele>
        <time>2023-05-14T12:17:09.000Z</time>
      </trkpt>
      <trkpt lat="45.81449" lon="4.63792">
        <ele>388.66437</ele>
        <time>2023-05-14T12:17:10.000Z</time>
      </trkpt>
      <trkpt lat="45.81452" lon="4.63792">
        <ele>389.87927</ele>
        <time>2023-05-14T12:17:11.000Z</time>
      </trkpt>
      <trkpt lat="45.81455" lon="4.63792">
        <ele>391.88699</ele>
        <time>2023-05-14T12:17:12.000Z</time>
      </trkpt>
      <trkpt lat="45.81458" lon="4.63792">
        <ele>392.79266</ele>
        <time>2023-05-14T12:17:13.000Z</time>
      </trkpt>
      <trkpt lat="45.81462" lon="4.63791">
        <ele>393.77359</ele>
        <time>2023-05-14T12:17:14.000Z</time>
      </trkpt>
      <trkpt lat="45.81466" lon="4.6379">
        <ele>394.73041</ele>
        <time>2023-05-14T12:17:15.000Z</time>
      </trkpt>
      <trkpt lat="45.81469" lon="4.6379">
        <ele>394.62405</ele>
        <time>2023-05-14T12:17:16.000Z</time>
      </trkpt>
      <trkpt lat="45.81473" lon="4.6379">
        <ele>394.17935</ele>
        <time>2023-05-14T12:17:17.000Z</time>
      </trkpt>
      <trkpt lat="45.81476" lon="4.63789">
        <ele>393.24695</ele>
        <time>2023-05-14T12:17:18.000Z</time>
      </trkpt>
      <trkpt lat="45.8148" lon="4.63789">
        <ele>392.3988</ele>
        <time>2023-05-14T12:17:19.000Z</time>
      </trkpt>
      <trkpt lat="45.81484" lon="4.63788">
        <ele>391.35797</ele>
        <time>2023-05-14T12:17:20.000Z</time>
      </trkpt>
      <trkpt lat="45.81487" lon="4.63788">
        <ele>390.2674</ele>
        <time>2023-05-14T12:17:21.000Z</time>
      </trkpt>
      <trkpt lat="45.81491" lon="4.63787">
        <ele>390.45932</ele>
        <time>2023-05-14T12:17:22.000Z</time>
      </trkpt>
      <trkpt lat="45.81495" lon="4.63785">
        <ele>389.11847</ele>
        <time>2023-05-14T12:17:23.000Z</time>
      </trkpt>
      <trkpt lat="45.81498" lon="4.63784">
        <ele>387.6944</ele>
        <time>2023-05-14T12:17:24.000Z</time>
      </trkpt>
      <trkpt lat="45.81501" lon="4.63783">
        <ele>386.12347</ele>
        <time>2023-05-14T12:17:25.000Z</time>
      </trkpt>
      <trkpt lat="45.81504" lon="4.63782">
        <ele>384.53387</ele>
        <time>2023-05-14T12:17:26.000Z</time>
      </trkpt>
      <trkpt lat="45.81507" lon="4.63781">
        <ele>385.16031</ele>
        <time>2023-05-14T12:17:27.000Z</time>
      </trkpt>
      <trkpt lat="45.81509" lon="4.63781">
        <ele>385.75443</ele>
        <time>2023-05-14T12:17:28.000Z</time>
      </trkpt>
      <trkpt lat="45.81511" lon="4.6378">
        <ele>386.2991</ele>
        <time>2023-05-14T12:17:29.000Z</time>
      </trkpt>
      <trkpt lat="45.81514" lon="4.6378">
        <ele>386.0275</ele>
        <time>2023-05-14T12:17:30.000Z</time>
      </trkpt>
      <trkpt lat="45.81517" lon="4.63779">
        <ele>385.78125</ele>
        <time>2023-05-14T12:17:31.000Z</time>
      </trkpt>
      <trkpt lat="45.8152" lon="4.63779">
        <ele>385.54974</ele>
        <time>2023-05-14T12:17:32.000Z</time>
      </trkpt>
      <trkpt lat="45.81523" lon="4.63778">
        <ele>385.28964</ele>
        <time>2023-05-14T12:17:33.000Z</time>
      </trkpt>
      <trkpt lat="45.81525" lon="4.63777">
        <ele>384.86615</ele>
        <time>2023-05-14T12:17:34.000Z</time>
      </trkpt>
      <trkpt lat="45.81528" lon="4.63776">
        <ele>384.37177</ele>
        <time>2023-05-14T12:17:35.000Z</time>
      </trkpt>
      <trkpt lat="45.81532" lon="4.63775">
        <ele>385.03772</ele>
        <time>2023-05-14T12:17:36.000Z</time>
      </trkpt>
      <trkpt lat="45.81536" lon="4.63775">
        <ele>386.1756</ele>
        <time>2023-05-14T12:17:37.000Z</time>
      </trkpt>
      <trkpt lat="45.8154" lon="4.63774">
        <ele>387.35657</ele>
        <time>2023-05-14T12:17:38.000Z</time>
      </trkpt>
      <trkpt lat="45.81545" lon="4.63774">
        <ele>388.50848</ele>
        <time>2023-05-14T12:17:39.000Z</time>
      </trkpt>
      <trkpt lat="45.81549" lon="4.63774">
        <ele>389.72266</ele>
        <time>2023-05-14T12:17:40.000Z</time>
      </trkpt>
      <trkpt lat="45.81553" lon="4.63773">
        <ele>390.88919</ele>
        <time>2023-05-14T12:17:41.000Z</time>
      </trkpt>
      <trkpt lat="45.81558" lon="4.63773">
        <ele>391.67456</ele>
        <time>2023-05-14T12:17:42.000Z</time>
      </trkpt>
      <trkpt lat="45.81563" lon="4.63772">
        <ele>392.60803</ele>
        <time>2023-05-14T12:17:43.000Z</time>
      </trkpt>
      <trkpt lat="45.81567" lon="4.63772">
        <ele>393.4342</ele>
        <time>2023-05-14T12:17:44.000Z</time>
      </trkpt>
      <trkpt lat="45.81571" lon="4.63772">
        <ele>394.37701</ele>
        <time>2023-05-14T12:17:45.000Z</time>
      </trkpt>
      <trkpt lat="45.81575" lon="4.63771">
        <ele>395.36679</ele>
        <time>2023-05-14T12:17:46.000Z</time>
      </trkpt>
      <trkpt lat="45.81579" lon="4.63771">
        <ele>395.56711</ele>
        <time>2023-05-14T12:17:47.000Z</time>
      </trkpt>
      <trkpt lat="45.81584" lon="4.6377">
        <ele>395.91324</ele>
        <time>2023-05-14T12:17:48.000Z</time>
      </trkpt>
      <trkpt lat="45.81588" lon="4.63769">
        <ele>396.3486</ele>
        <time>2023-05-14T12:17:49.000Z</time>
      </trkpt>
      <trkpt lat="45.81593" lon="4.63768">
        <ele>396.85724</ele>
        <time>2023-05-14T12:17:50.000Z</time>
      </trkpt>
      <trkpt lat="45.81597" lon="4.63768">
        <ele>397.45129</ele>
        <time>2023-05-14T12:17:51.000Z</time>
      </trkpt>
      <trkpt lat="45.81601" lon="4.63767">
        <ele>398.11847</ele>
        <time>2023-05-14T12:17:52.000Z</time>
      </trkpt>
      <trkpt lat="45.81605" lon="4.63766">
        <ele>398.70636</ele>
        <time>2023-05-14T12:17:53.000Z</time>
      </trkpt>
      <trkpt lat="45.81608" lon="4.63765">
        <ele>399.41397</ele>
        <time>2023-05-14T12:17:54.000Z</time>
      </trkpt>
      <trkpt lat="45.81612" lon="4.63763">
        <ele>400.2204</ele>
        <time>2023-05-14T12:17:55.000Z</time>
      </trkpt>
      <trkpt lat="45.81615" lon="4.63762">
        <ele>401.04742</ele>
        <time>2023-05-14T12:17:56.000Z</time>
      </trkpt>
      <trkpt lat="45.81617" lon="4.63761">
        <ele>401.74207</ele>
        <time>2023-05-14T12:17:57.000Z</time>
      </trkpt>
      <trkpt lat="45.81619" lon="4.6376">
        <ele>402.3811</ele>
        <time>2023-05-14T12:17:58.000Z</time>
      </trkpt>
      <trkpt lat="45.81621" lon="4.63759">
        <ele>403.02975</ele>
        <time>2023-05-14T12:17:59.000Z</time>
      </trkpt>
      <trkpt lat="45.81624" lon="4.63758">
        <ele>403.48911</ele>
        <time>2023-05-14T12:18:00.000Z</time>
      </trkpt>
      <trkpt lat="45.81626" lon="4.63758">
        <ele>403.8389</ele>
        <time>2023-05-14T12:18:01.000Z</time>
      </trkpt>
      <trkpt lat="45.81628" lon="4.63757">
        <ele>404.36728</ele>
        <time>2023-05-14T12:18:02.000Z</time>
      </trkpt>
      <trkpt lat="45.8163" lon="4.63756">
        <ele>404.88104</ele>
        <time>2023-05-14T12:18:03.000Z</time>
      </trkpt>
      <trkpt lat="45.81633" lon="4.63754">
        <ele>405.69922</ele>
        <time>2023-05-14T12:18:04.000Z</time>
      </trkpt>
      <trkpt lat="45.81636" lon="4.63752">
        <ele>406.52728</ele>
        <time>2023-05-14T12:18:05.000Z</time>
      </trkpt>
      <trkpt lat="45.81638" lon="4.6375">
        <ele>407.30914</ele>
        <time>2023-05-14T12:18:06.000Z</time>
      </trkpt>
      <trkpt lat="45.81641" lon="4.63747">
        <ele>407.67801</ele>
        <time>2023-05-14T12:18:07.000Z</time>
      </trkpt>
      <trkpt lat="45.81644" lon="4.63744">
        <ele>408.06076</ele>
        <time>2023-05-14T12:18:08.000Z</time>
      </trkpt>
      <trkpt lat="45.81646" lon="4.63742">
        <ele>408.42142</ele>
        <time>2023-05-14T12:18:09.000Z</time>
      </trkpt>
      <trkpt lat="45.81649" lon="4.63739">
        <ele>408.75296</ele>
        <time>2023-05-14T12:18:10.000Z</time>
      </trkpt>
      <trkpt lat="45.81651" lon="4.63736">
        <ele>408.96945</ele>
        <time>2023-05-14T12:18:11.000Z</time>
      </trkpt>
      <trkpt lat="45.81654" lon="4.63734">
        <ele>408.97412</ele>
        <time>2023-05-14T12:18:12.000Z</time>
      </trkpt>
      <trkpt lat="45.81656" lon="4.63732">
        <ele>408.97086</ele>
        <time>2023-05-14T12:18:13.000Z</time>
      </trkpt>
      <trkpt lat="45.81658" lon="4.63729">
        <ele>409.36084</ele>
        <time>2023-05-14T12:18:14.000Z</time>
      </trkpt>
      <trkpt lat="45.81661" lon="4.63727">
        <ele>409.63907</ele>
        <time>2023-05-14T12:18:15.000Z</time>
      </trkpt>
      <trkpt lat="45.81664" lon="4.63725">
        <ele>409.99609</ele>
        <time>2023-05-14T12:18:16.000Z</time>
      </trkpt>
      <trkpt lat="45.81666" lon="4.63723">
        <ele>410.30682</ele>
        <time>2023-05-14T12:18:17.000Z</time>
      </trkpt>
      <trkpt lat="45.81669" lon="4.63721">
        <ele>410.44604</ele>
        <time>2023-05-14T12:18:18.000Z</time>
      </trkpt>
      <trkpt lat="45.81671" lon="4.63718">
        <ele>410.51172</ele>
        <time>2023-05-14T12:18:19.000Z</time>
      </trkpt>
      <trkpt lat="45.81673" lon="4.63715">
        <ele>411.22354</ele>
        <time>2023-05-14T12:18:20.000Z</time>
      </trkpt>
      <trkpt lat="45.81675" lon="4.63712">
        <ele>412.0538</ele>
        <time>2023-05-14T12:18:21.000Z</time>
      </trkpt>
      <trkpt lat="45.81678" lon="4.6371">
        <ele>412.40509</ele>
        <time>2023-05-14T12:18:22.000Z</time>
      </trkpt>
      <trkpt lat="45.81681" lon="4.63707">
        <ele>412.66681</ele>
        <time>2023-05-14T12:18:23.000Z</time>
      </trkpt>
      <trkpt lat="45.81684" lon="4.63703">
        <ele>412.81549</ele>
        <time>2023-05-14T12:18:24.000Z</time>
      </trkpt>
      <trkpt lat="45.81686" lon="4.63701">
        <ele>412.9938</ele>
        <time>2023-05-14T12:18:25.000Z</time>
      </trkpt>
      <trkpt lat="45.81689" lon="4.63698">
        <ele>413.41098</ele>
        <time>2023-05-14T12:18:27.000Z</time>
      </trkpt>
      <trkpt lat="45.8169" lon="4.63696">
        <ele>413.89194</ele>
        <time>2023-05-14T12:18:28.000Z</time>
      </trkpt>
      <trkpt lat="45.81692" lon="4.63694">
        <ele>414.45465</ele>
        <time>2023-05-14T12:18:29.000Z</time>
      </trkpt>
      <trkpt lat="45.81694" lon="4.63692">
        <ele>414.66888</ele>
        <time>2023-05-14T12:18:31.000Z</time>
      </trkpt>
      <trkpt lat="45.81696" lon="4.63693">
        <ele>414.57965</ele>
        <time>2023-05-14T12:18:36.000Z</time>
      </trkpt>
      <trkpt lat="45.81696" lon="4.63693">
        <ele>414.57965</ele>
        <time>2023-05-14T12:18:36.000Z</time>
      </trkpt>
      <trkpt lat="45.81698" lon="4.6369">
        <ele>415.54312</ele>
        <time>2023-05-14T12:22:13.000Z</time>
      </trkpt>
      <trkpt lat="45.81698" lon="4.6369">
        <ele>415.54312</ele>
        <time>2023-05-14T12:22:13.000Z</time>
      </trkpt>
      <trkpt lat="45.817" lon="4.63688">
        <ele>416.64804</ele>
        <time>2023-05-14T12:22:14.000Z</time>
      </trkpt>
      <trkpt lat="45.81702" lon="4.63686">
        <ele>417.85321</ele>
        <time>2023-05-14T12:22:15.000Z</time>
      </trkpt>
      <trkpt lat="45.81703" lon="4.63684">
        <ele>418.67242</ele>
        <time>2023-05-14T12:22:16.000Z</time>
      </trkpt>
      <trkpt lat="45.81706" lon="4.63681">
        <ele>419.57666</ele>
        <time>2023-05-14T12:22:17.000Z</time>
      </trkpt>
      <trkpt lat="45.81708" lon="4.63679">
        <ele>420.3576</ele>
        <time>2023-05-14T12:22:18.000Z</time>
      </trkpt>
      <trkpt lat="45.8171" lon="4.63676">
        <ele>421.09488</ele>
        <time>2023-05-14T12:22:19.000Z</time>
      </trkpt>
      <trkpt lat="45.81712" lon="4.63673">
        <ele>421.98389</ele>
        <time>2023-05-14T12:22:20.000Z</time>
      </trkpt>
      <trkpt lat="45.81715" lon="4.6367">
        <ele>422.79974</ele>
        <time>2023-05-14T12:22:21.000Z</time>
      </trkpt>
      <trkpt lat="45.81717" lon="4.63667">
        <ele>423.18539</ele>
        <time>2023-05-14T12:22:22.000Z</time>
      </trkpt>
      <trkpt lat="45.8172" lon="4.63663">
        <ele>423.60645</ele>
        <time>2023-05-14T12:22:23.000Z</time>
      </trkpt>
      <trkpt lat="45.81723" lon="4.6366">
        <ele>424.14874</ele>
        <time>2023-05-14T12:22:24.000Z</time>
      </trkpt>
      <trkpt lat="45.81725" lon="4.63657">
        <ele>424.70508</ele>
        <time>2023-05-14T12:22:25.000Z</time>
      </trkpt>
      <trkpt lat="45.81728" lon="4.63653">
        <ele>425.27115</ele>
        <time>2023-05-14T12:22:26.000Z</time>
      </trkpt>
      <trkpt lat="45.81731" lon="4.6365">
        <ele>425.76498</ele>
        <time>2023-05-14T12:22:27.000Z</time>
      </trkpt>
      <trkpt lat="45.81734" lon="4.63646">
        <ele>426.03949</ele>
        <time>2023-05-14T12:22:28.000Z</time>
      </trkpt>
      <trkpt lat="45.81737" lon="4.63643">
        <ele>426.25961</ele>
        <time>2023-05-14T12:22:29.000Z</time>
      </trkpt>
      <trkpt lat="45.8174" lon="4.6364">
        <ele>426.41089</ele>
        <time>2023-05-14T12:22:30.000Z</time>
      </trkpt>
      <trkpt lat="45.81744" lon="4.63636">
        <ele>426.83929</ele>
        <time>2023-05-14T12:22:31.000Z</time>
      </trkpt>
      <trkpt lat="45.81746" lon="4.63632">
        <ele>427.50269</ele>
        <time>2023-05-14T12:22:32.000Z</time>
      </trkpt>
      <trkpt lat="45.81749" lon="4.63629">
        <ele>427.11612</ele>
        <time>2023-05-14T12:22:33.000Z</time>
      </trkpt>
      <trkpt lat="45.81752" lon="4.63626">
        <ele>426.79892</ele>
        <time>2023-05-14T12:22:34.000Z</time>
      </trkpt>
      <trkpt lat="45.81754" lon="4.63622">
        <ele>426.45648</ele>
        <time>2023-05-14T12:22:35.000Z</time>
      </trkpt>
      <trkpt lat="45.81757" lon="4.63619">
        <ele>426.1059</ele>
        <time>2023-05-14T12:22:36.000Z</time>
      </trkpt>
      <trkpt lat="45.8176" lon="4.63616">
        <ele>425.70157</ele>
        <time>2023-05-14T12:22:37.000Z</time>
      </trkpt>
      <trkpt lat="45.81762" lon="4.63615">
        <ele>425.25519</ele>
        <time>2023-05-14T12:22:38.000Z</time>
      </trkpt>
      <trkpt lat="45.81764" lon="4.63613">
        <ele>424.8642</ele>
        <time>2023-05-14T12:22:39.000Z</time>
      </trkpt>
      <trkpt lat="45.81765" lon="4.6361">
        <ele>424.44354</ele>
        <time>2023-05-14T12:22:40.000Z</time>
      </trkpt>
      <trkpt lat="45.81767" lon="4.63608">
        <ele>424.12299</ele>
        <time>2023-05-14T12:22:41.000Z</time>
      </trkpt>
      <trkpt lat="45.81769" lon="4.63605">
        <ele>423.8443</ele>
        <time>2023-05-14T12:22:42.000Z</time>
      </trkpt>
      <trkpt lat="45.81772" lon="4.63602">
        <ele>423.57965</ele>
        <time>2023-05-14T12:22:43.000Z</time>
      </trkpt>
      <trkpt lat="45.81774" lon="4.63598">
        <ele>423.21631</ele>
        <time>2023-05-14T12:22:44.000Z</time>
      </trkpt>
      <trkpt lat="45.81778" lon="4.63594">
        <ele>422.88809</ele>
        <time>2023-05-14T12:22:45.000Z</time>
      </trkpt>
      <trkpt lat="45.8178" lon="4.63589">
        <ele>422.54614</ele>
        <time>2023-05-14T12:22:46.000Z</time>
      </trkpt>
      <trkpt lat="45.81783" lon="4.63586">
        <ele>422.26416</ele>
        <time>2023-05-14T12:22:47.000Z</time>
      </trkpt>
      <trkpt lat="45.81785" lon="4.63582">
        <ele>422.00659</ele>
        <time>2023-05-14T12:22:48.000Z</time>
      </trkpt>
      <trkpt lat="45.81787" lon="4.6358">
        <ele>421.77094</ele>
        <time>2023-05-14T12:22:49.000Z</time>
      </trkpt>
      <trkpt lat="45.81789" lon="4.63577">
        <ele>421.54395</ele>
        <time>2023-05-14T12:22:50.000Z</time>
      </trkpt>
      <trkpt lat="45.8179" lon="4.63575">
        <ele>421.3382</ele>
        <time>2023-05-14T12:22:51.000Z</time>
      </trkpt>
      <trkpt lat="45.8179" lon="4.6357">
        <ele>421.04654</ele>
        <time>2023-05-14T12:23:34.000Z</time>
      </trkpt>
      <trkpt lat="45.81789" lon="4.63567">
        <ele>420.74139</ele>
        <time>2023-05-14T12:23:35.000Z</time>
      </trkpt>
      <trkpt lat="45.81788" lon="4.63564">
        <ele>420.36133</ele>
        <time>2023-05-14T12:23:36.000Z</time>
      </trkpt>
      <trkpt lat="45.81787" lon="4.6356">
        <ele>419.99872</ele>
        <time>2023-05-14T12:23:37.000Z</time>
      </trkpt>
      <trkpt lat="45.81786" lon="4.63557">
        <ele>419.61774</ele>
        <time>2023-05-14T12:23:38.000Z</time>
      </trkpt>
      <trkpt lat="45.81784" lon="4.63554">
        <ele>419.31161</ele>
        <time>2023-05-14T12:23:39.000Z</time>
      </trkpt>
      <trkpt lat="45.81783" lon="4.63551">
        <ele>419.04468</ele>
        <time>2023-05-14T12:23:40.000Z</time>
      </trkpt>
      <trkpt lat="45.81782" lon="4.63548">
        <ele>418.73178</ele>
        <time>2023-05-14T12:23:41.000Z</time>
      </trkpt>
      <trkpt lat="45.81781" lon="4.63545">
        <ele>418.46576</ele>
        <time>2023-05-14T12:23:42.000Z</time>
      </trkpt>
      <trkpt lat="45.8178" lon="4.63542">
        <ele>418.20599</ele>
        <time>2023-05-14T12:23:43.000Z</time>
      </trkpt>
      <trkpt lat="45.8178" lon="4.63539">
        <ele>417.93768</ele>
        <time>2023-05-14T12:23:44.000Z</time>
      </trkpt>
      <trkpt lat="45.81779" lon="4.63535">
        <ele>417.66699</ele>
        <time>2023-05-14T12:23:45.000Z</time>
      </trkpt>
      <trkpt lat="45.81778" lon="4.63532">
        <ele>417.30548</ele>
        <time>2023-05-14T12:23:46.000Z</time>
      </trkpt>
      <trkpt lat="45.81777" lon="4.6353">
        <ele>416.96759</ele>
        <time>2023-05-14T12:23:47.000Z</time>
      </trkpt>
      <trkpt lat="45.81776" lon="4.63527">
        <ele>416.63873</ele>
        <time>2023-05-14T12:23:48.000Z</time>
      </trkpt>
      <trkpt lat="45.81775" lon="4.63524">
        <ele>416.30054</ele>
        <time>2023-05-14T12:23:49.000Z</time>
      </trkpt>
      <trkpt lat="45.81773" lon="4.6352">
        <ele>415.94244</ele>
        <time>2023-05-14T12:23:50.000Z</time>
      </trkpt>
      <trkpt lat="45.81772" lon="4.63516">
        <ele>415.59708</ele>
        <time>2023-05-14T12:23:51.000Z</time>
      </trkpt>
      <trkpt lat="45.8177" lon="4.63511">
        <ele>415.26498</ele>
        <time>2023-05-14T12:23:52.000Z</time>
      </trkpt>
      <trkpt lat="45.81769" lon="4.63508">
        <ele>415.01733</ele>
        <time>2023-05-14T12:23:53.000Z</time>
      </trkpt>
      <trkpt lat="45.81768" lon="4.63505">
        <ele>414.93124</ele>
        <time>2023-05-14T12:23:54.000Z</time>
      </trkpt>
      <trkpt lat="45.81767" lon="4.63501">
        <ele>414.85455</ele>
        <time>2023-05-14T12:23:55.000Z</time>
      </trkpt>
      <trkpt lat="45.81766" lon="4.63498">
        <ele>414.80371</ele>
        <time>2023-05-14T12:23:56.000Z</time>
      </trkpt>
      <trkpt lat="45.81764" lon="4.63495">
        <ele>414.76553</ele>
        <time>2023-05-14T12:23:57.000Z</time>
      </trkpt>
      <trkpt lat="45.81763" lon="4.63491">
        <ele>414.74521</ele>
        <time>2023-05-14T12:23:58.000Z</time>
      </trkpt>
      <trkpt lat="45.81762" lon="4.63488">
        <ele>414.72031</ele>
        <time>2023-05-14T12:23:59.000Z</time>
      </trkpt>
      <trkpt lat="45.8176" lon="4.63484">
        <ele>414.7077</ele>
        <time>2023-05-14T12:24:00.000Z</time>
      </trkpt>
      <trkpt lat="45.81759" lon="4.6348">
        <ele>414.67148</ele>
        <time>2023-05-14T12:24:01.000Z</time>
      </trkpt>
      <trkpt lat="45.81758" lon="4.63475">
        <ele>414.62125</ele>
        <time>2023-05-14T12:24:02.000Z</time>
      </trkpt>
      <trkpt lat="45.81756" lon="4.63471">
        <ele>414.56158</ele>
        <time>2023-05-14T12:24:03.000Z</time>
      </trkpt>
      <trkpt lat="45.81755" lon="4.63467">
        <ele>414.53345</ele>
        <time>2023-05-14T12:24:04.000Z</time>
      </trkpt>
      <trkpt lat="45.81753" lon="4.63463">
        <ele>414.50421</ele>
        <time>2023-05-14T12:24:05.000Z</time>
      </trkpt>
      <trkpt lat="45.81751" lon="4.63459">
        <ele>414.52338</ele>
        <time>2023-05-14T12:24:06.000Z</time>
      </trkpt>
      <trkpt lat="45.8175" lon="4.63455">
        <ele>414.54865</ele>
        <time>2023-05-14T12:24:07.000Z</time>
      </trkpt>
      <trkpt lat="45.81749" lon="4.63451">
        <ele>414.60406</ele>
        <time>2023-05-14T12:24:08.000Z</time>
      </trkpt>
      <trkpt lat="45.81747" lon="4.63447">
        <ele>414.66113</ele>
        <time>2023-05-14T12:24:09.000Z</time>
      </trkpt>
      <trkpt lat="45.81745" lon="4.63443">
        <ele>414.72501</ele>
        <time>2023-05-14T12:24:10.000Z</time>
      </trkpt>
      <trkpt lat="45.81744" lon="4.63439">
        <ele>414.77985</ele>
        <time>2023-05-14T12:24:11.000Z</time>
      </trkpt>
      <trkpt lat="45.81742" lon="4.63435">
        <ele>414.84586</ele>
        <time>2023-05-14T12:24:12.000Z</time>
      </trkpt>
      <trkpt lat="45.8174" lon="4.63431">
        <ele>414.8334</ele>
        <time>2023-05-14T12:24:13.000Z</time>
      </trkpt>
      <trkpt lat="45.81738" lon="4.63427">
        <ele>414.79843</ele>
        <time>2023-05-14T12:24:14.000Z</time>
      </trkpt>
      <trkpt lat="45.81736" lon="4.63422">
        <ele>414.7937</ele>
        <time>2023-05-14T12:24:15.000Z</time>
      </trkpt>
      <trkpt lat="45.81734" lon="4.63418">
        <ele>414.78061</ele>
        <time>2023-05-14T12:24:16.000Z</time>
      </trkpt>
      <trkpt lat="45.81732" lon="4.63414">
        <ele>414.74091</ele>
        <time>2023-05-14T12:24:17.000Z</time>
      </trkpt>
      <trkpt lat="45.81731" lon="4.6341">
        <ele>414.69476</ele>
        <time>2023-05-14T12:24:18.000Z</time>
      </trkpt>
      <trkpt lat="45.81729" lon="4.63406">
        <ele>414.63275</ele>
        <time>2023-05-14T12:24:19.000Z</time>
      </trkpt>
      <trkpt lat="45.81727" lon="4.63401">
        <ele>414.56464</ele>
        <time>2023-05-14T12:24:20.000Z</time>
      </trkpt>
      <trkpt lat="45.81724" lon="4.63397">
        <ele>414.48639</ele>
        <time>2023-05-14T12:24:21.000Z</time>
      </trkpt>
      <trkpt lat="45.81722" lon="4.63393">
        <ele>414.40936</ele>
        <time>2023-05-14T12:24:22.000Z</time>
      </trkpt>
      <trkpt lat="45.8172" lon="4.63389">
        <ele>414.33139</ele>
        <time>2023-05-14T12:24:23.000Z</time>
      </trkpt>
      <trkpt lat="45.81717" lon="4.63385">
        <ele>414.20831</ele>
        <time>2023-05-14T12:24:24.000Z</time>
      </trkpt>
      <trkpt lat="45.81715" lon="4.6338">
        <ele>414.06723</ele>
        <time>2023-05-14T12:24:25.000Z</time>
      </trkpt>
      <trkpt lat="45.81713" lon="4.63376">
        <ele>413.8978</ele>
        <time>2023-05-14T12:24:26.000Z</time>
      </trkpt>
      <trkpt lat="45.81711" lon="4.63371">
        <ele>413.73843</ele>
        <time>2023-05-14T12:24:27.000Z</time>
      </trkpt>
      <trkpt lat="45.81709" lon="4.63367">
        <ele>413.57733</ele>
        <time>2023-05-14T12:24:28.000Z</time>
      </trkpt>
      <trkpt lat="45.81707" lon="4.63362">
        <ele>413.4422</ele>
        <time>2023-05-14T12:24:29.000Z</time>
      </trkpt>
      <trkpt lat="45.81705" lon="4.63356">
        <ele>413.33807</ele>
        <time>2023-05-14T12:24:30.000Z</time>
      </trkpt>
      <trkpt lat="45.81704" lon="4.63351">
        <ele>413.22095</ele>
        <time>2023-05-14T12:24:31.000Z</time>
      </trkpt>
      <trkpt lat="45.81702" lon="4.63344">
        <ele>413.10333</ele>
        <time>2023-05-14T12:24:32.000Z</time>
      </trkpt>
      <trkpt lat="45.817" lon="4.63339">
        <ele>412.97592</ele>
        <time>2023-05-14T12:24:33.000Z</time>
      </trkpt>
      <trkpt lat="45.81699" lon="4.63333">
        <ele>412.83929</ele>
        <time>2023-05-14T12:24:34.000Z</time>
      </trkpt>
      <trkpt lat="45.81697" lon="4.63328">
        <ele>412.69989</ele>
        <time>2023-05-14T12:24:35.000Z</time>
      </trkpt>
      <trkpt lat="45.81696" lon="4.63323">
        <ele>412.54938</ele>
        <time>2023-05-14T12:24:36.000Z</time>
      </trkpt>
      <trkpt lat="45.81694" lon="4.63319">
        <ele>412.43561</ele>
        <time>2023-05-14T12:24:37.000Z</time>
      </trkpt>
      <trkpt lat="45.81693" lon="4.63316">
        <ele>412.31827</ele>
        <time>2023-05-14T12:24:38.000Z</time>
      </trkpt>
      <trkpt lat="45.81692" lon="4.63313">
        <ele>412.22906</ele>
        <time>2023-05-14T12:24:39.000Z</time>
      </trkpt>
      <trkpt lat="45.81691" lon="4.6331">
        <ele>412.1442</ele>
        <time>2023-05-14T12:24:40.000Z</time>
      </trkpt>
      <trkpt lat="45.8169" lon="4.63307">
        <ele>412.02875</ele>
        <time>2023-05-14T12:24:41.000Z</time>
      </trkpt>
      <trkpt lat="45.81689" lon="4.63304">
        <ele>411.91153</ele>
        <time>2023-05-14T12:24:42.000Z</time>
      </trkpt>
      <trkpt lat="45.81688" lon="4.63302">
        <ele>411.78766</ele>
        <time>2023-05-14T12:24:43.000Z</time>
      </trkpt>
      <trkpt lat="45.81687" lon="4.63299">
        <ele>411.71143</ele>
        <time>2023-05-14T12:24:44.000Z</time>
      </trkpt>
      <trkpt lat="45.81686" lon="4.63296">
        <ele>411.6752</ele>
        <time>2023-05-14T12:24:45.000Z</time>
      </trkpt>
      <trkpt lat="45.81685" lon="4.63293">
        <ele>411.63812</ele>
        <time>2023-05-14T12:24:46.000Z</time>
      </trkpt>
      <trkpt lat="45.81684" lon="4.63289">
        <ele>411.59116</ele>
        <time>2023-05-14T12:24:47.000Z</time>
      </trkpt>
      <trkpt lat="45.81683" lon="4.63285">
        <ele>411.5329</ele>
        <time>2023-05-14T12:24:48.000Z</time>
      </trkpt>
      <trkpt lat="45.81682" lon="4.63281">
        <ele>411.47989</ele>
        <time>2023-05-14T12:24:49.000Z</time>
      </trkpt>
      <trkpt lat="45.81681" lon="4.63277">
        <ele>411.39893</ele>
        <time>2023-05-14T12:24:50.000Z</time>
      </trkpt>
      <trkpt lat="45.81679" lon="4.63272">
        <ele>411.35043</ele>
        <time>2023-05-14T12:24:51.000Z</time>
      </trkpt>
      <trkpt lat="45.81678" lon="4.63268">
        <ele>411.30191</ele>
        <time>2023-05-14T12:24:52.000Z</time>
      </trkpt>
      <trkpt lat="45.81677" lon="4.63264">
        <ele>411.26724</ele>
        <time>2023-05-14T12:24:53.000Z</time>
      </trkpt>
      <trkpt lat="45.81676" lon="4.6326">
        <ele>411.22916</ele>
        <time>2023-05-14T12:24:54.000Z</time>
      </trkpt>
      <trkpt lat="45.81675" lon="4.63256">
        <ele>411.18277</ele>
        <time>2023-05-14T12:24:55.000Z</time>
      </trkpt>
      <trkpt lat="45.81674" lon="4.63252">
        <ele>411.13507</ele>
        <time>2023-05-14T12:24:56.000Z</time>
      </trkpt>
      <trkpt lat="45.81673" lon="4.63248">
        <ele>411.08481</ele>
        <time>2023-05-14T12:24:57.000Z</time>
      </trkpt>
      <trkpt lat="45.81672" lon="4.63243">
        <ele>411.0769</ele>
        <time>2023-05-14T12:24:58.000Z</time>
      </trkpt>
      <trkpt lat="45.81671" lon="4.63239">
        <ele>411.06747</ele>
        <time>2023-05-14T12:24:59.000Z</time>
      </trkpt>
      <trkpt lat="45.8167" lon="4.63234">
        <ele>411.06403</ele>
        <time>2023-05-14T12:25:00.000Z</time>
      </trkpt>
      <trkpt lat="45.81669" lon="4.6323">
        <ele>411.12939</ele>
        <time>2023-05-14T12:25:01.000Z</time>
      </trkpt>
      <trkpt lat="45.81668" lon="4.63226">
        <ele>411.194</ele>
        <time>2023-05-14T12:25:02.000Z</time>
      </trkpt>
      <trkpt lat="45.81667" lon="4.63222">
        <ele>411.25739</ele>
        <time>2023-05-14T12:25:03.000Z</time>
      </trkpt>
      <trkpt lat="45.81666" lon="4.63218">
        <ele>411.31689</ele>
        <time>2023-05-14T12:25:04.000Z</time>
      </trkpt>
      <trkpt lat="45.81665" lon="4.63214">
        <ele>411.35236</ele>
        <time>2023-05-14T12:25:05.000Z</time>
      </trkpt>
      <trkpt lat="45.81664" lon="4.6321">
        <ele>410.4606</ele>
        <time>2023-05-14T12:25:06.000Z</time>
      </trkpt>
      <trkpt lat="45.81662" lon="4.63206">
        <ele>409.56308</ele>
        <time>2023-05-14T12:25:07.000Z</time>
      </trkpt>
      <trkpt lat="45.81661" lon="4.63202">
        <ele>408.65552</ele>
        <time>2023-05-14T12:25:08.000Z</time>
      </trkpt>
      <trkpt lat="45.8166" lon="4.63198">
        <ele>407.59283</ele>
        <time>2023-05-14T12:25:09.000Z</time>
      </trkpt>
      <trkpt lat="45.81659" lon="4.63194">
        <ele>406.97906</ele>
        <time>2023-05-14T12:25:10.000Z</time>
      </trkpt>
      <trkpt lat="45.81658" lon="4.63191">
        <ele>406.28802</ele>
        <time>2023-05-14T12:25:11.000Z</time>
      </trkpt>
      <trkpt lat="45.81657" lon="4.63187">
        <ele>405.26227</ele>
        <time>2023-05-14T12:25:12.000Z</time>
      </trkpt>
      <trkpt lat="45.81656" lon="4.63185">
        <ele>405.09753</ele>
        <time>2023-05-14T12:25:13.000Z</time>
      </trkpt>
      <trkpt lat="45.81655" lon="4.63182">
        <ele>404.95145</ele>
        <time>2023-05-14T12:25:15.000Z</time>
      </trkpt>
      <trkpt lat="45.81654" lon="4.63178">
        <ele>404.85034</ele>
        <time>2023-05-14T12:25:30.000Z</time>
      </trkpt>
      <trkpt lat="45.81654" lon="4.63173">
        <ele>404.75165</ele>
        <time>2023-05-14T12:25:32.000Z</time>
      </trkpt>
      <trkpt lat="45.81653" lon="4.6317">
        <ele>404.64935</ele>
        <time>2023-05-14T12:25:33.000Z</time>
      </trkpt>
      <trkpt lat="45.81652" lon="4.63167">
        <ele>404.54562</ele>
        <time>2023-05-14T12:25:34.000Z</time>
      </trkpt>
      <trkpt lat="45.81651" lon="4.63162">
        <ele>404.42291</ele>
        <time>2023-05-14T12:25:36.000Z</time>
      </trkpt>
      <trkpt lat="45.8165" lon="4.6316">
        <ele>404.29044</ele>
        <time>2023-05-14T12:25:37.000Z</time>
      </trkpt>
      <trkpt lat="45.81649" lon="4.63157">
        <ele>404.1373</ele>
        <time>2023-05-14T12:25:38.000Z</time>
      </trkpt>
      <trkpt lat="45.8165" lon="4.63154">
        <ele>403.99042</ele>
        <time>2023-05-14T12:25:40.000Z</time>
      </trkpt>
      <trkpt lat="45.81652" lon="4.63157">
        <ele>403.8587</ele>
        <time>2023-05-14T12:25:42.000Z</time>
      </trkpt>
      <trkpt lat="45.81653" lon="4.63161">
        <ele>403.92081</ele>
        <time>2023-05-14T12:25:43.000Z</time>
      </trkpt>
      <trkpt lat="45.81653" lon="4.63165">
        <ele>403.79803</ele>
        <time>2023-05-14T12:25:44.000Z</time>
      </trkpt>
      <trkpt lat="45.81654" lon="4.63169">
        <ele>404.64212</ele>
        <time>2023-05-14T12:25:45.000Z</time>
      </trkpt>
      <trkpt lat="45.81655" lon="4.63173">
        <ele>405.49362</ele>
        <time>2023-05-14T12:25:46.000Z</time>
      </trkpt>
      <trkpt lat="45.81655" lon="4.63177">
        <ele>406.3334</ele>
        <time>2023-05-14T12:25:47.000Z</time>
      </trkpt>
      <trkpt lat="45.81655" lon="4.63181">
        <ele>407.33563</ele>
        <time>2023-05-14T12:25:48.000Z</time>
      </trkpt>
      <trkpt lat="45.81655" lon="4.63184">
        <ele>407.91949</ele>
        <time>2023-05-14T12:25:49.000Z</time>
      </trkpt>
      <trkpt lat="45.81654" lon="4.63187">
        <ele>408.58737</ele>
        <time>2023-05-14T12:25:50.000Z</time>
      </trkpt>
      <trkpt lat="45.81652" lon="4.63189">
        <ele>409.85175</ele>
        <time>2023-05-14T12:25:51.000Z</time>
      </trkpt>
      <trkpt lat="45.81651" lon="4.6319">
        <ele>410.24689</ele>
        <time>2023-05-14T12:25:52.000Z</time>
      </trkpt>
      <trkpt lat="45.81649" lon="4.63192">
        <ele>410.68109</ele>
        <time>2023-05-14T12:25:53.000Z</time>
      </trkpt>
      <trkpt lat="45.81647" lon="4.63193">
        <ele>410.46649</ele>
        <time>2023-05-14T12:25:54.000Z</time>
      </trkpt>
      <trkpt lat="45.81645" lon="4.63194">
        <ele>410.53619</ele>
        <time>2023-05-14T12:25:55.000Z</time>
      </trkpt>
      <trkpt lat="45.81643" lon="4.63196">
        <ele>410.60001</ele>
        <time>2023-05-14T12:25:56.000Z</time>
      </trkpt>
      <trkpt lat="45.81641" lon="4.63197">
        <ele>410.63092</ele>
        <time>2023-05-14T12:25:57.000Z</time>
      </trkpt>
      <trkpt lat="45.81639" lon="4.63199">
        <ele>410.56573</ele>
        <time>2023-05-14T12:25:58.000Z</time>
      </trkpt>
      <trkpt lat="45.81637" lon="4.63201">
        <ele>410.69809</ele>
        <time>2023-05-14T12:25:59.000Z</time>
      </trkpt>
      <trkpt lat="45.81635" lon="4.63203">
        <ele>410.77435</ele>
        <time>2023-05-14T12:26:00.000Z</time>
      </trkpt>
      <trkpt lat="45.81633" lon="4.63205">
        <ele>410.93692</ele>
        <time>2023-05-14T12:26:01.000Z</time>
      </trkpt>
      <trkpt lat="45.81631" lon="4.63207">
        <ele>411.09067</ele>
        <time>2023-05-14T12:26:02.000Z</time>
      </trkpt>
      <trkpt lat="45.81629" lon="4.63209">
        <ele>411.04694</ele>
        <time>2023-05-14T12:26:03.000Z</time>
      </trkpt>
      <trkpt lat="45.81627" lon="4.63211">
        <ele>411.20313</ele>
        <time>2023-05-14T12:26:04.000Z</time>
      </trkpt>
      <trkpt lat="45.81624" lon="4.63213">
        <ele>411.37372</ele>
        <time>2023-05-14T12:26:05.000Z</time>
      </trkpt>
      <trkpt lat="45.81622" lon="4.63216">
        <ele>411.5484</ele>
        <time>2023-05-14T12:26:06.000Z</time>
      </trkpt>
      <trkpt lat="45.8162" lon="4.63219">
        <ele>411.74252</ele>
        <time>2023-05-14T12:26:07.000Z</time>
      </trkpt>
      <trkpt lat="45.81618" lon="4.63221">
        <ele>411.91928</ele>
        <time>2023-05-14T12:26:08.000Z</time>
      </trkpt>
      <trkpt lat="45.81616" lon="4.63223">
        <ele>412.10312</ele>
        <time>2023-05-14T12:26:09.000Z</time>
      </trkpt>
      <trkpt lat="45.81613" lon="4.63225">
        <ele>412.26718</ele>
        <time>2023-05-14T12:26:10.000Z</time>
      </trkpt>
      <trkpt lat="45.81611" lon="4.63227">
        <ele>411.94012</ele>
        <time>2023-05-14T12:26:11.000Z</time>
      </trkpt>
      <trkpt lat="45.81609" lon="4.6323">
        <ele>411.6524</ele>
        <time>2023-05-14T12:26:12.000Z</time>
      </trkpt>
      <trkpt lat="45.81606" lon="4.63232">
        <ele>411.31152</ele>
        <time>2023-05-14T12:26:13.000Z</time>
      </trkpt>
      <trkpt lat="45.81604" lon="4.63234">
        <ele>411.59756</ele>
        <time>2023-05-14T12:26:14.000Z</time>
      </trkpt>
      <trkpt lat="45.81602" lon="4.63236">
        <ele>411.85269</ele>
        <time>2023-05-14T12:26:15.000Z</time>
      </trkpt>
      <trkpt lat="45.816" lon="4.63239">
        <ele>412.10858</ele>
        <time>2023-05-14T12:26:16.000Z</time>
      </trkpt>
      <trkpt lat="45.81599" lon="4.63241">
        <ele>412.383</ele>
        <time>2023-05-14T12:26:17.000Z</time>
      </trkpt>
      <trkpt lat="45.81597" lon="4.63243">
        <ele>412.72787</ele>
        <time>2023-05-14T12:26:18.000Z</time>
      </trkpt>
      <trkpt lat="45.81595" lon="4.63244">
        <ele>412.82813</ele>
        <time>2023-05-14T12:26:19.000Z</time>
      </trkpt>
      <trkpt lat="45.81593" lon="4.63246">
        <ele>412.95206</ele>
        <time>2023-05-14T12:26:20.000Z</time>
      </trkpt>
      <trkpt lat="45.81591" lon="4.63249">
        <ele>413.01529</ele>
        <time>2023-05-14T12:26:21.000Z</time>
      </trkpt>
      <trkpt lat="45.81588" lon="4.63252">
        <ele>413.40973</ele>
        <time>2023-05-14T12:26:22.000Z</time>
      </trkpt>
      <trkpt lat="45.81586" lon="4.63254">
        <ele>413.80914</ele>
        <time>2023-05-14T12:26:23.000Z</time>
      </trkpt>
      <trkpt lat="45.81583" lon="4.63256">
        <ele>414.21771</ele>
        <time>2023-05-14T12:26:24.000Z</time>
      </trkpt>
      <trkpt lat="45.81581" lon="4.63258">
        <ele>414.59351</ele>
        <time>2023-05-14T12:26:25.000Z</time>
      </trkpt>
      <trkpt lat="45.81578" lon="4.6326">
        <ele>414.95758</ele>
        <time>2023-05-14T12:26:26.000Z</time>
      </trkpt>
      <trkpt lat="45.81576" lon="4.63262">
        <ele>415.33212</ele>
        <time>2023-05-14T12:26:27.000Z</time>
      </trkpt>
      <trkpt lat="45.81574" lon="4.63264">
        <ele>415.70264</ele>
        <time>2023-05-14T12:26:28.000Z</time>
      </trkpt>
      <trkpt lat="45.81571" lon="4.63266">
        <ele>416.07617</ele>
        <time>2023-05-14T12:26:29.000Z</time>
      </trkpt>
      <trkpt lat="45.81568" lon="4.63268">
        <ele>416.46649</ele>
        <time>2023-05-14T12:26:30.000Z</time>
      </trkpt>
      <trkpt lat="45.81566" lon="4.6327">
        <ele>417.09634</ele>
        <time>2023-05-14T12:26:31.000Z</time>
      </trkpt>
      <trkpt lat="45.81564" lon="4.63273">
        <ele>417.6832</ele>
        <time>2023-05-14T12:26:32.000Z</time>
      </trkpt>
      <trkpt lat="45.81562" lon="4.63275">
        <ele>418.2442</ele>
        <time>2023-05-14T12:26:33.000Z</time>
      </trkpt>
      <trkpt lat="45.8156" lon="4.63278">
        <ele>418.76401</ele>
        <time>2023-05-14T12:26:34.000Z</time>
      </trkpt>
      <trkpt lat="45.81558" lon="4.63281">
        <ele>419.09653</ele>
        <time>2023-05-14T12:26:35.000Z</time>
      </trkpt>
      <trkpt lat="45.81556" lon="4.63285">
        <ele>419.42645</ele>
        <time>2023-05-14T12:26:36.000Z</time>
      </trkpt>
      <trkpt lat="45.81554" lon="4.63288">
        <ele>419.73404</ele>
        <time>2023-05-14T12:26:37.000Z</time>
      </trkpt>
      <trkpt lat="45.81553" lon="4.6329">
        <ele>420.06757</ele>
        <time>2023-05-14T12:26:38.000Z</time>
      </trkpt>
      <trkpt lat="45.81551" lon="4.63292">
        <ele>420.45679</ele>
        <time>2023-05-14T12:26:39.000Z</time>
      </trkpt>
      <trkpt lat="45.81549" lon="4.63293">
        <ele>420.92007</ele>
        <time>2023-05-14T12:26:40.000Z</time>
      </trkpt>
      <trkpt lat="45.81547" lon="4.63296">
        <ele>421.37384</ele>
        <time>2023-05-14T12:26:41.000Z</time>
      </trkpt>
      <trkpt lat="45.81545" lon="4.63299">
        <ele>421.51987</ele>
        <time>2023-05-14T12:26:42.000Z</time>
      </trkpt>
      <trkpt lat="45.81544" lon="4.63302">
        <ele>421.68036</ele>
        <time>2023-05-14T12:26:43.000Z</time>
      </trkpt>
      <trkpt lat="45.81543" lon="4.63304">
        <ele>421.84723</ele>
        <time>2023-05-14T12:26:44.000Z</time>
      </trkpt>
      <trkpt lat="45.81541" lon="4.63306">
        <ele>422.02261</ele>
        <time>2023-05-14T12:26:45.000Z</time>
      </trkpt>
      <trkpt lat="45.81538" lon="4.63307">
        <ele>422.13678</ele>
        <time>2023-05-14T12:26:46.000Z</time>
      </trkpt>
      <trkpt lat="45.81536" lon="4.63307">
        <ele>422.2641</ele>
        <time>2023-05-14T12:26:48.000Z</time>
      </trkpt>
      <trkpt lat="45.81532" lon="4.63306">
        <ele>422.36777</ele>
        <time>2023-05-14T12:26:50.000Z</time>
      </trkpt>
      <trkpt lat="45.81529" lon="4.63305">
        <ele>422.41193</ele>
        <time>2023-05-14T12:26:52.000Z</time>
      </trkpt>
      <trkpt lat="45.81526" lon="4.63305">
        <ele>422.45596</ele>
        <time>2023-05-14T12:26:53.000Z</time>
      </trkpt>
      <trkpt lat="45.81523" lon="4.63304">
        <ele>422.47974</ele>
        <time>2023-05-14T12:26:54.000Z</time>
      </trkpt>
      <trkpt lat="45.8152" lon="4.63304">
        <ele>422.48785</ele>
        <time>2023-05-14T12:26:55.000Z</time>
      </trkpt>
      <trkpt lat="45.81517" lon="4.63304">
        <ele>422.54987</ele>
        <time>2023-05-14T12:26:56.000Z</time>
      </trkpt>
      <trkpt lat="45.81515" lon="4.63304">
        <ele>422.62671</ele>
        <time>2023-05-14T12:26:57.000Z</time>
      </trkpt>
      <trkpt lat="45.81512" lon="4.63304">
        <ele>422.68311</ele>
        <time>2023-05-14T12:26:58.000Z</time>
      </trkpt>
      <trkpt lat="45.81509" lon="4.63305">
        <ele>422.73105</ele>
        <time>2023-05-14T12:26:59.000Z</time>
      </trkpt>
      <trkpt lat="45.81506" lon="4.63304">
        <ele>422.78906</ele>
        <time>2023-05-14T12:27:00.000Z</time>
      </trkpt>
      <trkpt lat="45.81504" lon="4.63304">
        <ele>422.86816</ele>
        <time>2023-05-14T12:27:01.000Z</time>
      </trkpt>
      <trkpt lat="45.81501" lon="4.63302">
        <ele>422.90341</ele>
        <time>2023-05-14T12:27:02.000Z</time>
      </trkpt>
      <trkpt lat="45.81499" lon="4.63299">
        <ele>422.85333</ele>
        <time>2023-05-14T12:27:03.000Z</time>
      </trkpt>
      <trkpt lat="45.81498" lon="4.63297">
        <ele>422.75992</ele>
        <time>2023-05-14T12:27:04.000Z</time>
      </trkpt>
      <trkpt lat="45.81496" lon="4.63294">
        <ele>422.77216</ele>
        <time>2023-05-14T12:27:05.000Z</time>
      </trkpt>
      <trkpt lat="45.81494" lon="4.63292">
        <ele>422.70428</ele>
        <time>2023-05-14T12:27:06.000Z</time>
      </trkpt>
      <trkpt lat="45.81492" lon="4.6329">
        <ele>422.63144</ele>
        <time>2023-05-14T12:27:07.000Z</time>
      </trkpt>
      <trkpt lat="45.81491" lon="4.63288">
        <ele>422.60156</ele>
        <time>2023-05-14T12:27:08.000Z</time>
      </trkpt>
      <trkpt lat="45.81489" lon="4.63286">
        <ele>422.62469</ele>
        <time>2023-05-14T12:27:09.000Z</time>
      </trkpt>
      <trkpt lat="45.81487" lon="4.63283">
        <ele>422.59644</ele>
        <time>2023-05-14T12:27:10.000Z</time>
      </trkpt>
      <trkpt lat="45.81485" lon="4.63281">
        <ele>422.61914</ele>
        <time>2023-05-14T12:27:11.000Z</time>
      </trkpt>
      <trkpt lat="45.81482" lon="4.6328">
        <ele>422.70117</ele>
        <time>2023-05-14T12:27:12.000Z</time>
      </trkpt>
      <trkpt lat="45.8148" lon="4.63279">
        <ele>422.75659</ele>
        <time>2023-05-14T12:27:13.000Z</time>
      </trkpt>
      <trkpt lat="45.81477" lon="4.63279">
        <ele>422.84027</ele>
        <time>2023-05-14T12:27:14.000Z</time>
      </trkpt>
      <trkpt lat="45.81473" lon="4.63279">
        <ele>422.98178</ele>
        <time>2023-05-14T12:27:15.000Z</time>
      </trkpt>
      <trkpt lat="45.8147" lon="4.63281">
        <ele>423.09366</ele>
        <time>2023-05-14T12:27:16.000Z</time>
      </trkpt>
      <trkpt lat="45.81467" lon="4.63282">
        <ele>423.20401</ele>
        <time>2023-05-14T12:27:17.000Z</time>
      </trkpt>
      <trkpt lat="45.81464" lon="4.63283">
        <ele>423.28436</ele>
        <time>2023-05-14T12:27:18.000Z</time>
      </trkpt>
      <trkpt lat="45.81461" lon="4.63283">
        <ele>423.41592</ele>
        <time>2023-05-14T12:27:19.000Z</time>
      </trkpt>
      <trkpt lat="45.81458" lon="4.63282">
        <ele>423.59268</ele>
        <time>2023-05-14T12:27:20.000Z</time>
      </trkpt>
      <trkpt lat="45.81455" lon="4.63281">
        <ele>423.78949</ele>
        <time>2023-05-14T12:27:21.000Z</time>
      </trkpt>
      <trkpt lat="45.81452" lon="4.6328">
        <ele>423.99545</ele>
        <time>2023-05-14T12:27:22.000Z</time>
      </trkpt>
      <trkpt lat="45.81449" lon="4.63279">
        <ele>424.29321</ele>
        <time>2023-05-14T12:27:23.000Z</time>
      </trkpt>
      <trkpt lat="45.81446" lon="4.63277">
        <ele>424.66113</ele>
        <time>2023-05-14T12:27:24.000Z</time>
      </trkpt>
      <trkpt lat="45.81443" lon="4.63276">
        <ele>424.97794</ele>
        <time>2023-05-14T12:27:25.000Z</time>
      </trkpt>
      <trkpt lat="45.8144" lon="4.63275">
        <ele>425.392</ele>
        <time>2023-05-14T12:27:26.000Z</time>
      </trkpt>
      <trkpt lat="45.81437" lon="4.63274">
        <ele>425.86856</ele>
        <time>2023-05-14T12:27:27.000Z</time>
      </trkpt>
      <trkpt lat="45.81434" lon="4.63272">
        <ele>426.30991</ele>
        <time>2023-05-14T12:27:28.000Z</time>
      </trkpt>
      <trkpt lat="45.81431" lon="4.63271">
        <ele>426.84149</ele>
        <time>2023-05-14T12:27:29.000Z</time>
      </trkpt>
      <trkpt lat="45.81428" lon="4.63269">
        <ele>427.30182</ele>
        <time>2023-05-14T12:27:30.000Z</time>
      </trkpt>
      <trkpt lat="45.81425" lon="4.63268">
        <ele>427.78311</ele>
        <time>2023-05-14T12:27:31.000Z</time>
      </trkpt>
      <trkpt lat="45.81423" lon="4.63267">
        <ele>428.17099</ele>
        <time>2023-05-14T12:27:32.000Z</time>
      </trkpt>
      <trkpt lat="45.81421" lon="4.63267">
        <ele>428.55014</ele>
        <time>2023-05-14T12:27:33.000Z</time>
      </trkpt>
      <trkpt lat="45.81419" lon="4.63266">
        <ele>428.91632</ele>
        <time>2023-05-14T12:27:34.000Z</time>
      </trkpt>
      <trkpt lat="45.81416" lon="4.63266">
        <ele>429.51083</ele>
        <time>2023-05-14T12:27:35.000Z</time>
      </trkpt>
      <trkpt lat="45.81414" lon="4.63265">
        <ele>430.07925</ele>
        <time>2023-05-14T12:27:36.000Z</time>
      </trkpt>
      <trkpt lat="45.81411" lon="4.63263">
        <ele>430.67032</ele>
        <time>2023-05-14T12:27:37.000Z</time>
      </trkpt>
      <trkpt lat="45.81409" lon="4.63262">
        <ele>431.25845</ele>
        <time>2023-05-14T12:27:38.000Z</time>
      </trkpt>
      <trkpt lat="45.81407" lon="4.63261">
        <ele>431.82047</ele>
        <time>2023-05-14T12:27:39.000Z</time>
      </trkpt>
      <trkpt lat="45.81404" lon="4.6326">
        <ele>432.34723</ele>
        <time>2023-05-14T12:27:40.000Z</time>
      </trkpt>
      <trkpt lat="45.81402" lon="4.63259">
        <ele>432.71344</ele>
        <time>2023-05-14T12:27:41.000Z</time>
      </trkpt>
      <trkpt lat="45.81399" lon="4.63258">
        <ele>433.02792</ele>
        <time>2023-05-14T12:27:42.000Z</time>
      </trkpt>
      <trkpt lat="45.81397" lon="4.63257">
        <ele>433.31015</ele>
        <time>2023-05-14T12:27:43.000Z</time>
      </trkpt>
      <trkpt lat="45.81395" lon="4.63257">
        <ele>433.58209</ele>
        <time>2023-05-14T12:27:44.000Z</time>
      </trkpt>
      <trkpt lat="45.81392" lon="4.63257">
        <ele>433.79669</ele>
        <time>2023-05-14T12:27:45.000Z</time>
      </trkpt>
      <trkpt lat="45.8139" lon="4.63258">
        <ele>433.96591</ele>
        <time>2023-05-14T12:27:46.000Z</time>
      </trkpt>
      <trkpt lat="45.81388" lon="4.63259">
        <ele>434.05573</ele>
        <time>2023-05-14T12:27:47.000Z</time>
      </trkpt>
      <trkpt lat="45.81387" lon="4.63261">
        <ele>434.4068</ele>
        <time>2023-05-14T12:27:48.000Z</time>
      </trkpt>
      <trkpt lat="45.81385" lon="4.63263">
        <ele>434.61737</ele>
        <time>2023-05-14T12:27:49.000Z</time>
      </trkpt>
      <trkpt lat="45.81383" lon="4.63266">
        <ele>434.93671</ele>
        <time>2023-05-14T12:27:50.000Z</time>
      </trkpt>
      <trkpt lat="45.81381" lon="4.63269">
        <ele>435.22467</ele>
        <time>2023-05-14T12:27:51.000Z</time>
      </trkpt>
      <trkpt lat="45.81379" lon="4.63271">
        <ele>435.62012</ele>
        <time>2023-05-14T12:27:52.000Z</time>
      </trkpt>
      <trkpt lat="45.81377" lon="4.63273">
        <ele>436.06219</ele>
        <time>2023-05-14T12:27:53.000Z</time>
      </trkpt>
      <trkpt lat="45.81376" lon="4.63276">
        <ele>436.49829</ele>
        <time>2023-05-14T12:27:54.000Z</time>
      </trkpt>
      <trkpt lat="45.81374" lon="4.63278">
        <ele>436.62103</ele>
        <time>2023-05-14T12:27:55.000Z</time>
      </trkpt>
      <trkpt lat="45.81372" lon="4.63281">
        <ele>437.09131</ele>
        <time>2023-05-14T12:27:56.000Z</time>
      </trkpt>
      <trkpt lat="45.8137" lon="4.63285">
        <ele>437.55524</ele>
        <time>2023-05-14T12:27:58.000Z</time>
      </trkpt>
      <trkpt lat="45.81368" lon="4.63288">
        <ele>438.01083</ele>
        <time>2023-05-14T12:27:59.000Z</time>
      </trkpt>
      <trkpt lat="45.81367" lon="4.6329">
        <ele>438.45575</ele>
        <time>2023-05-14T12:28:00.000Z</time>
      </trkpt>
      <trkpt lat="45.81366" lon="4.63292">
        <ele>438.85693</ele>
        <time>2023-05-14T12:28:01.000Z</time>
      </trkpt>
      <trkpt lat="45.81363" lon="4.63295">
        <ele>439.39063</ele>
        <time>2023-05-14T12:28:03.000Z</time>
      </trkpt>
      <trkpt lat="45.81362" lon="4.63297">
        <ele>439.99139</ele>
        <time>2023-05-14T12:28:04.000Z</time>
      </trkpt>
      <trkpt lat="45.8136" lon="4.633">
        <ele>440.60175</ele>
        <time>2023-05-14T12:28:05.000Z</time>
      </trkpt>
      <trkpt lat="45.81359" lon="4.63303">
        <ele>441.19116</ele>
        <time>2023-05-14T12:28:06.000Z</time>
      </trkpt>
      <trkpt lat="45.81357" lon="4.63305">
        <ele>441.73468</ele>
        <time>2023-05-14T12:28:07.000Z</time>
      </trkpt>
      <trkpt lat="45.81355" lon="4.63306">
        <ele>442.27612</ele>
        <time>2023-05-14T12:28:08.000Z</time>
      </trkpt>
      <trkpt lat="45.81354" lon="4.63308">
        <ele>442.83423</ele>
        <time>2023-05-14T12:28:09.000Z</time>
      </trkpt>
      <trkpt lat="45.81352" lon="4.63308">
        <ele>443.13272</ele>
        <time>2023-05-14T12:28:10.000Z</time>
      </trkpt>
      <trkpt lat="45.8135" lon="4.63308">
        <ele>443.51709</ele>
        <time>2023-05-14T12:28:11.000Z</time>
      </trkpt>
      <trkpt lat="45.81348" lon="4.63305">
        <ele>443.99878</ele>
        <time>2023-05-14T12:28:12.000Z</time>
      </trkpt>
      <trkpt lat="45.81346" lon="4.63302">
        <ele>444.43793</ele>
        <time>2023-05-14T12:28:13.000Z</time>
      </trkpt>
      <trkpt lat="45.81345" lon="4.63298">
        <ele>444.81989</ele>
        <time>2023-05-14T12:28:14.000Z</time>
      </trkpt>
      <trkpt lat="45.81344" lon="4.63295">
        <ele>445.14478</ele>
        <time>2023-05-14T12:28:15.000Z</time>
      </trkpt>
      <trkpt lat="45.81342" lon="4.63293">
        <ele>445.44409</ele>
        <time>2023-05-14T12:28:16.000Z</time>
      </trkpt>
      <trkpt lat="45.81341" lon="4.6329">
        <ele>445.47739</ele>
        <time>2023-05-14T12:28:17.000Z</time>
      </trkpt>
      <trkpt lat="45.8134" lon="4.63287">
        <ele>445.17706</ele>
        <time>2023-05-14T12:28:18.000Z</time>
      </trkpt>
      <trkpt lat="45.81338" lon="4.63285">
        <ele>444.84409</ele>
        <time>2023-05-14T12:28:19.000Z</time>
      </trkpt>
      <trkpt lat="45.81336" lon="4.63281">
        <ele>444.51416</ele>
        <time>2023-05-14T12:28:21.000Z</time>
      </trkpt>
      <trkpt lat="45.81334" lon="4.63278">
        <ele>443.95679</ele>
        <time>2023-05-14T12:28:23.000Z</time>
      </trkpt>
      <trkpt lat="45.81332" lon="4.63277">
        <ele>443.99091</ele>
        <time>2023-05-14T12:28:24.000Z</time>
      </trkpt>
      <trkpt lat="45.8133" lon="4.63277">
        <ele>443.97992</ele>
        <time>2023-05-14T12:28:25.000Z</time>
      </trkpt>
      <trkpt lat="45.81329" lon="4.63279">
        <ele>443.59219</ele>
        <time>2023-05-14T12:28:26.000Z</time>
      </trkpt>
      <trkpt lat="45.81328" lon="4.63281">
        <ele>443.18707</ele>
        <time>2023-05-14T12:28:27.000Z</time>
      </trkpt>
      <trkpt lat="45.81327" lon="4.63285">
        <ele>442.76675</ele>
        <time>2023-05-14T12:28:29.000Z</time>
      </trkpt>
      <trkpt lat="45.81327" lon="4.63287">
        <ele>442.41885</ele>
        <time>2023-05-14T12:28:35.000Z</time>
      </trkpt>
      <trkpt lat="45.81328" lon="4.63289">
        <ele>442.28622</ele>
        <time>2023-05-14T12:28:47.000Z</time>
      </trkpt>
      <trkpt lat="45.81328" lon="4.63286">
        <ele>442.44604</ele>
        <time>2023-05-14T12:29:04.000Z</time>
      </trkpt>
      <trkpt lat="45.8133" lon="4.63284">
        <ele>442.58945</ele>
        <time>2023-05-14T12:29:07.000Z</time>
      </trkpt>
      <trkpt lat="45.81328" lon="4.63286">
        <ele>442.71722</ele>
        <time>2023-05-14T12:29:15.000Z</time>
      </trkpt>
      <trkpt lat="45.81327" lon="4.63288">
        <ele>442.72394</ele>
        <time>2023-05-14T12:29:16.000Z</time>
      </trkpt>
      <trkpt lat="45.81325" lon="4.63292">
        <ele>442.76825</ele>
        <time>2023-05-14T12:29:18.000Z</time>
      </trkpt>
      <trkpt lat="45.81323" lon="4.63296">
        <ele>442.35303</ele>
        <time>2023-05-14T12:29:20.000Z</time>
      </trkpt>
      <trkpt lat="45.81321" lon="4.63299">
        <ele>441.9502</ele>
        <time>2023-05-14T12:29:21.000Z</time>
      </trkpt>
      <trkpt lat="45.8132" lon="4.63301">
        <ele>441.47906</ele>
        <time>2023-05-14T12:29:22.000Z</time>
      </trkpt>
      <trkpt lat="45.81317" lon="4.63303">
        <ele>441.54559</ele>
        <time>2023-05-14T12:29:24.000Z</time>
      </trkpt>
      <trkpt lat="45.81314" lon="4.63304">
        <ele>441.59814</ele>
        <time>2023-05-14T12:29:26.000Z</time>
      </trkpt>
      <trkpt lat="45.81311" lon="4.63306">
        <ele>441.64981</ele>
        <time>2023-05-14T12:29:28.000Z</time>
      </trkpt>
      <trkpt lat="45.8131" lon="4.63309">
        <ele>441.77432</ele>
        <time>2023-05-14T12:29:29.000Z</time>
      </trkpt>
      <trkpt lat="45.81309" lon="4.63311">
        <ele>442.21426</ele>
        <time>2023-05-14T12:29:30.000Z</time>
      </trkpt>
      <trkpt lat="45.81308" lon="4.63315">
        <ele>442.08234</ele>
        <time>2023-05-14T12:29:32.000Z</time>
      </trkpt>
      <trkpt lat="45.81306" lon="4.63319">
        <ele>442.07062</ele>
        <time>2023-05-14T12:29:34.000Z</time>
      </trkpt>
      <trkpt lat="45.81305" lon="4.63321">
        <ele>442.4184</ele>
        <time>2023-05-14T12:29:35.000Z</time>
      </trkpt>
      <trkpt lat="45.81304" lon="4.63323">
        <ele>442.78345</ele>
        <time>2023-05-14T12:29:36.000Z</time>
      </trkpt>
      <trkpt lat="45.81302" lon="4.63326">
        <ele>443.24701</ele>
        <time>2023-05-14T12:29:37.000Z</time>
      </trkpt>
      <trkpt lat="45.81302" lon="4.6333">
        <ele>443.69882</ele>
        <time>2023-05-14T12:29:38.000Z</time>
      </trkpt>
      <trkpt lat="45.81301" lon="4.63333">
        <ele>443.94824</ele>
        <time>2023-05-14T12:29:39.000Z</time>
      </trkpt>
      <trkpt lat="45.813" lon="4.63336">
        <ele>444.2399</ele>
        <time>2023-05-14T12:29:40.000Z</time>
      </trkpt>
      <trkpt lat="45.81299" lon="4.63339">
        <ele>444.53946</ele>
        <time>2023-05-14T12:29:41.000Z</time>
      </trkpt>
      <trkpt lat="45.81297" lon="4.63342">
        <ele>444.84637</ele>
        <time>2023-05-14T12:29:42.000Z</time>
      </trkpt>
      <trkpt lat="45.81296" lon="4.63345">
        <ele>445.17407</ele>
        <time>2023-05-14T12:29:43.000Z</time>
      </trkpt>
      <trkpt lat="45.81295" lon="4.63348">
        <ele>445.51578</ele>
        <time>2023-05-14T12:29:44.000Z</time>
      </trkpt>
      <trkpt lat="45.81294" lon="4.63351">
        <ele>446.31622</ele>
        <time>2023-05-14T12:29:45.000Z</time>
      </trkpt>
      <trkpt lat="45.81293" lon="4.63354">
        <ele>447.09439</ele>
        <time>2023-05-14T12:29:46.000Z</time>
      </trkpt>
      <trkpt lat="45.81292" lon="4.63357">
        <ele>447.96948</ele>
        <time>2023-05-14T12:29:47.000Z</time>
      </trkpt>
      <trkpt lat="45.81291" lon="4.6336">
        <ele>448.61581</ele>
        <time>2023-05-14T12:29:48.000Z</time>
      </trkpt>
      <trkpt lat="45.8129" lon="4.63363">
        <ele>449.30234</ele>
        <time>2023-05-14T12:29:49.000Z</time>
      </trkpt>
      <trkpt lat="45.81289" lon="4.63366">
        <ele>449.99689</ele>
        <time>2023-05-14T12:29:50.000Z</time>
      </trkpt>
      <trkpt lat="45.81287" lon="4.63368">
        <ele>450.63687</ele>
        <time>2023-05-14T12:29:51.000Z</time>
      </trkpt>
      <trkpt lat="45.81286" lon="4.63371">
        <ele>451.1958</ele>
        <time>2023-05-14T12:29:52.000Z</time>
      </trkpt>
      <trkpt lat="45.81285" lon="4.63374">
        <ele>451.7933</ele>
        <time>2023-05-14T12:29:53.000Z</time>
      </trkpt>
      <trkpt lat="45.81284" lon="4.63377">
        <ele>452.01239</ele>
        <time>2023-05-14T12:29:54.000Z</time>
      </trkpt>
      <trkpt lat="45.81283" lon="4.6338">
        <ele>452.27448</ele>
        <time>2023-05-14T12:29:55.000Z</time>
      </trkpt>
      <trkpt lat="45.81282" lon="4.63384">
        <ele>452.5228</ele>
        <time>2023-05-14T12:29:56.000Z</time>
      </trkpt>
      <trkpt lat="45.81281" lon="4.63387">
        <ele>452.71027</ele>
        <time>2023-05-14T12:29:57.000Z</time>
      </trkpt>
      <trkpt lat="45.8128" lon="4.6339">
        <ele>452.85663</ele>
        <time>2023-05-14T12:29:58.000Z</time>
      </trkpt>
      <trkpt lat="45.81279" lon="4.63392">
        <ele>453.47052</ele>
        <time>2023-05-14T12:29:59.000Z</time>
      </trkpt>
      <trkpt lat="45.81278" lon="4.63395">
        <ele>453.72858</ele>
        <time>2023-05-14T12:30:00.000Z</time>
      </trkpt>
      <trkpt lat="45.81277" lon="4.63398">
        <ele>454.00848</ele>
        <time>2023-05-14T12:30:01.000Z</time>
      </trkpt>
      <trkpt lat="45.81276" lon="4.63401">
        <ele>454.1731</ele>
        <time>2023-05-14T12:30:02.000Z</time>
      </trkpt>
      <trkpt lat="45.81274" lon="4.63404">
        <ele>453.96475</ele>
        <time>2023-05-14T12:30:03.000Z</time>
      </trkpt>
      <trkpt lat="45.81273" lon="4.63407">
        <ele>454.05255</ele>
        <time>2023-05-14T12:30:04.000Z</time>
      </trkpt>
      <trkpt lat="45.81272" lon="4.63409">
        <ele>453.83047</ele>
        <time>2023-05-14T12:30:05.000Z</time>
      </trkpt>
      <trkpt lat="45.81271" lon="4.63411">
        <ele>453.63022</ele>
        <time>2023-05-14T12:30:06.000Z</time>
      </trkpt>
      <trkpt lat="45.81269" lon="4.63414">
        <ele>453.4256</ele>
        <time>2023-05-14T12:30:07.000Z</time>
      </trkpt>
      <trkpt lat="45.81268" lon="4.63417">
        <ele>453.53717</ele>
        <time>2023-05-14T12:30:08.000Z</time>
      </trkpt>
      <trkpt lat="45.81266" lon="4.63419">
        <ele>453.65302</ele>
        <time>2023-05-14T12:30:09.000Z</time>
      </trkpt>
      <trkpt lat="45.81265" lon="4.63421">
        <ele>453.44916</ele>
        <time>2023-05-14T12:30:10.000Z</time>
      </trkpt>
      <trkpt lat="45.81264" lon="4.63423">
        <ele>453.2356</ele>
        <time>2023-05-14T12:30:11.000Z</time>
      </trkpt>
      <trkpt lat="45.81262" lon="4.63426">
        <ele>453.02094</ele>
        <time>2023-05-14T12:30:12.000Z</time>
      </trkpt>
      <trkpt lat="45.81261" lon="4.63428">
        <ele>452.61017</ele>
        <time>2023-05-14T12:30:13.000Z</time>
      </trkpt>
      <trkpt lat="45.8126" lon="4.6343">
        <ele>452.50131</ele>
        <time>2023-05-14T12:30:14.000Z</time>
      </trkpt>
      <trkpt lat="45.81259" lon="4.63433">
        <ele>452.38434</ele>
        <time>2023-05-14T12:30:15.000Z</time>
      </trkpt>
      <trkpt lat="45.81258" lon="4.63435">
        <ele>452.27026</ele>
        <time>2023-05-14T12:30:16.000Z</time>
      </trkpt>
      <trkpt lat="45.81257" lon="4.63438">
        <ele>452.14581</ele>
        <time>2023-05-14T12:30:17.000Z</time>
      </trkpt>
      <trkpt lat="45.81256" lon="4.6344">
        <ele>452.02972</ele>
        <time>2023-05-14T12:30:18.000Z</time>
      </trkpt>
      <trkpt lat="45.81255" lon="4.63442">
        <ele>451.39496</ele>
        <time>2023-05-14T12:30:19.000Z</time>
      </trkpt>
      <trkpt lat="45.81252" lon="4.63447">
        <ele>450.79166</ele>
        <time>2023-05-14T12:30:21.000Z</time>
      </trkpt>
      <trkpt lat="45.81251" lon="4.63449">
        <ele>450.17154</ele>
        <time>2023-05-14T12:30:22.000Z</time>
      </trkpt>
      <trkpt lat="45.8125" lon="4.63452">
        <ele>449.52191</ele>
        <time>2023-05-14T12:30:24.000Z</time>
      </trkpt>
      <trkpt lat="45.81247" lon="4.63455">
        <ele>449.58911</ele>
        <time>2023-05-14T12:30:26.000Z</time>
      </trkpt>
      <trkpt lat="45.81245" lon="4.63457">
        <ele>449.34222</ele>
        <time>2023-05-14T12:30:28.000Z</time>
      </trkpt>
      <trkpt lat="45.81242" lon="4.63458">
        <ele>449.43146</ele>
        <time>2023-05-14T12:30:30.000Z</time>
      </trkpt>
      <trkpt lat="45.81239" lon="4.63458">
        <ele>449.59711</ele>
        <time>2023-05-14T12:30:32.000Z</time>
      </trkpt>
      <trkpt lat="45.81236" lon="4.63458">
        <ele>449.58539</ele>
        <time>2023-05-14T12:30:34.000Z</time>
      </trkpt>
      <trkpt lat="45.81234" lon="4.63456">
        <ele>449.28668</ele>
        <time>2023-05-14T12:30:36.000Z</time>
      </trkpt>
      <trkpt lat="45.81231" lon="4.63454">
        <ele>448.91302</ele>
        <time>2023-05-14T12:30:38.000Z</time>
      </trkpt>
      <trkpt lat="45.81229" lon="4.63453">
        <ele>448.88947</ele>
        <time>2023-05-14T12:30:39.000Z</time>
      </trkpt>
      <trkpt lat="45.81227" lon="4.6345">
        <ele>448.85004</ele>
        <time>2023-05-14T12:30:41.000Z</time>
      </trkpt>
      <trkpt lat="45.81225" lon="4.63448">
        <ele>448.8299</ele>
        <time>2023-05-14T12:30:42.000Z</time>
      </trkpt>
      <trkpt lat="45.81224" lon="4.63446">
        <ele>448.98926</ele>
        <time>2023-05-14T12:30:43.000Z</time>
      </trkpt>
      <trkpt lat="45.81222" lon="4.63444">
        <ele>449.15497</ele>
        <time>2023-05-14T12:30:44.000Z</time>
      </trkpt>
      <trkpt lat="45.81221" lon="4.63443">
        <ele>449.3194</ele>
        <time>2023-05-14T12:30:45.000Z</time>
      </trkpt>
      <trkpt lat="45.81219" lon="4.63441">
        <ele>449.48804</ele>
        <time>2023-05-14T12:30:46.000Z</time>
      </trkpt>
      <trkpt lat="45.81218" lon="4.63439">
        <ele>449.6582</ele>
        <time>2023-05-14T12:30:47.000Z</time>
      </trkpt>
      <trkpt lat="45.81216" lon="4.63437">
        <ele>449.84091</ele>
        <time>2023-05-14T12:30:48.000Z</time>
      </trkpt>
      <trkpt lat="45.81215" lon="4.63435">
        <ele>450.07343</ele>
        <time>2023-05-14T12:30:49.000Z</time>
      </trkpt>
      <trkpt lat="45.81213" lon="4.63434">
        <ele>450.27887</ele>
        <time>2023-05-14T12:30:50.000Z</time>
      </trkpt>
      <trkpt lat="45.81211" lon="4.63432">
        <ele>450.32025</ele>
        <time>2023-05-14T12:30:51.000Z</time>
      </trkpt>
      <trkpt lat="45.81209" lon="4.63431">
        <ele>450.94955</ele>
        <time>2023-05-14T12:30:52.000Z</time>
      </trkpt>
      <trkpt lat="45.81207" lon="4.63429">
        <ele>451.10577</ele>
        <time>2023-05-14T12:30:53.000Z</time>
      </trkpt>
      <trkpt lat="45.81205" lon="4.63428">
        <ele>451.27509</ele>
        <time>2023-05-14T12:30:54.000Z</time>
      </trkpt>
      <trkpt lat="45.81203" lon="4.63426">
        <ele>451.44415</ele>
        <time>2023-05-14T12:30:55.000Z</time>
      </trkpt>
      <trkpt lat="45.81202" lon="4.63425">
        <ele>451.56064</ele>
        <time>2023-05-14T12:30:56.000Z</time>
      </trkpt>
      <trkpt lat="45.812" lon="4.63424">
        <ele>451.86621</ele>
        <time>2023-05-14T12:30:57.000Z</time>
      </trkpt>
      <trkpt lat="45.81198" lon="4.63423">
        <ele>452.16528</ele>
        <time>2023-05-14T12:30:58.000Z</time>
      </trkpt>
      <trkpt lat="45.81196" lon="4.63423">
        <ele>452.52011</ele>
        <time>2023-05-14T12:30:59.000Z</time>
      </trkpt>
      <trkpt lat="45.81193" lon="4.63423">
        <ele>452.85474</ele>
        <time>2023-05-14T12:31:01.000Z</time>
      </trkpt>
      <trkpt lat="45.81191" lon="4.63423">
        <ele>453.12134</ele>
        <time>2023-05-14T12:31:02.000Z</time>
      </trkpt>
      <trkpt lat="45.81189" lon="4.63423">
        <ele>453.37183</ele>
        <time>2023-05-14T12:31:03.000Z</time>
      </trkpt>
      <trkpt lat="45.81186" lon="4.63422">
        <ele>453.61172</ele>
        <time>2023-05-14T12:31:04.000Z</time>
      </trkpt>
      <trkpt lat="45.81184" lon="4.6342">
        <ele>453.85553</ele>
        <time>2023-05-14T12:31:05.000Z</time>
      </trkpt>
      <trkpt lat="45.81183" lon="4.63418">
        <ele>454.11411</ele>
        <time>2023-05-14T12:31:06.000Z</time>
      </trkpt>
      <trkpt lat="45.81181" lon="4.63416">
        <ele>454.37036</ele>
        <time>2023-05-14T12:31:07.000Z</time>
      </trkpt>
      <trkpt lat="45.8118" lon="4.63413">
        <ele>454.61176</ele>
        <time>2023-05-14T12:31:08.000Z</time>
      </trkpt>
      <trkpt lat="45.81179" lon="4.63411">
        <ele>454.8187</ele>
        <time>2023-05-14T12:31:09.000Z</time>
      </trkpt>
      <trkpt lat="45.81178" lon="4.63408">
        <ele>455.0123</ele>
        <time>2023-05-14T12:31:10.000Z</time>
      </trkpt>
      <trkpt lat="45.81177" lon="4.63406">
        <ele>455.23975</ele>
        <time>2023-05-14T12:31:11.000Z</time>
      </trkpt>
      <trkpt lat="45.81176" lon="4.63403">
        <ele>455.63535</ele>
        <time>2023-05-14T12:31:12.000Z</time>
      </trkpt>
      <trkpt lat="45.81174" lon="4.63399">
        <ele>455.58282</ele>
        <time>2023-05-14T12:31:14.000Z</time>
      </trkpt>
      <trkpt lat="45.81173" lon="4.63397">
        <ele>455.6622</ele>
        <time>2023-05-14T12:31:15.000Z</time>
      </trkpt>
      <trkpt lat="45.81171" lon="4.63394">
        <ele>455.73935</ele>
        <time>2023-05-14T12:31:17.000Z</time>
      </trkpt>
      <trkpt lat="45.8117" lon="4.63391">
        <ele>455.8688</ele>
        <time>2023-05-14T12:31:18.000Z</time>
      </trkpt>
      <trkpt lat="45.81168" lon="4.6339">
        <ele>455.92871</ele>
        <time>2023-05-14T12:31:19.000Z</time>
      </trkpt>
      <trkpt lat="45.81167" lon="4.63388">
        <ele>456.02557</ele>
        <time>2023-05-14T12:31:20.000Z</time>
      </trkpt>
      <trkpt lat="45.81165" lon="4.63385">
        <ele>456.10675</ele>
        <time>2023-05-14T12:31:21.000Z</time>
      </trkpt>
      <trkpt lat="45.81164" lon="4.63383">
        <ele>456.25397</ele>
        <time>2023-05-14T12:31:22.000Z</time>
      </trkpt>
      <trkpt lat="45.81163" lon="4.63381">
        <ele>456.42548</ele>
        <time>2023-05-14T12:31:23.000Z</time>
      </trkpt>
      <trkpt lat="45.81161" lon="4.63378">
        <ele>456.68539</ele>
        <time>2023-05-14T12:31:24.000Z</time>
      </trkpt>
      <trkpt lat="45.81159" lon="4.63376">
        <ele>456.92682</ele>
        <time>2023-05-14T12:31:25.000Z</time>
      </trkpt>
      <trkpt lat="45.81157" lon="4.63374">
        <ele>457.16528</ele>
        <time>2023-05-14T12:31:26.000Z</time>
      </trkpt>
      <trkpt lat="45.81155" lon="4.63371">
        <ele>457.97427</ele>
        <time>2023-05-14T12:31:27.000Z</time>
      </trkpt>
      <trkpt lat="45.81153" lon="4.63369">
        <ele>458.77563</ele>
        <time>2023-05-14T12:31:28.000Z</time>
      </trkpt>
      <trkpt lat="45.8115" lon="4.63366">
        <ele>459.00415</ele>
        <time>2023-05-14T12:31:29.000Z</time>
      </trkpt>
      <trkpt lat="45.81148" lon="4.63363">
        <ele>459.23135</ele>
        <time>2023-05-14T12:31:30.000Z</time>
      </trkpt>
      <trkpt lat="45.81146" lon="4.63361">
        <ele>459.47348</ele>
        <time>2023-05-14T12:31:31.000Z</time>
      </trkpt>
      <trkpt lat="45.81144" lon="4.63358">
        <ele>459.68344</ele>
        <time>2023-05-14T12:31:32.000Z</time>
      </trkpt>
      <trkpt lat="45.81141" lon="4.63356">
        <ele>459.746</ele>
        <time>2023-05-14T12:31:33.000Z</time>
      </trkpt>
      <trkpt lat="45.81139" lon="4.63354">
        <ele>459.67178</ele>
        <time>2023-05-14T12:31:34.000Z</time>
      </trkpt>
      <trkpt lat="45.81137" lon="4.63351">
        <ele>458.77191</ele>
        <time>2023-05-14T12:31:36.000Z</time>
      </trkpt>
      <trkpt lat="45.81134" lon="4.63348">
        <ele>457.414</ele>
        <time>2023-05-14T12:31:38.000Z</time>
      </trkpt>
      <trkpt lat="45.81132" lon="4.63347">
        <ele>455.98111</ele>
        <time>2023-05-14T12:31:39.000Z</time>
      </trkpt>
      <trkpt lat="45.8113" lon="4.63346">
        <ele>454.41885</ele>
        <time>2023-05-14T12:31:40.000Z</time>
      </trkpt>
      <trkpt lat="45.81127" lon="4.63345">
        <ele>452.81049</ele>
        <time>2023-05-14T12:31:41.000Z</time>
      </trkpt>
      <trkpt lat="45.81124" lon="4.63344">
        <ele>451.3183</ele>
        <time>2023-05-14T12:31:42.000Z</time>
      </trkpt>
      <trkpt lat="45.81122" lon="4.63343">
        <ele>449.81134</ele>
        <time>2023-05-14T12:31:43.000Z</time>
      </trkpt>
      <trkpt lat="45.8112" lon="4.63344">
        <ele>448.28351</ele>
        <time>2023-05-14T12:31:44.000Z</time>
      </trkpt>
      <trkpt lat="45.81117" lon="4.63344">
        <ele>446.88647</ele>
        <time>2023-05-14T12:31:45.000Z</time>
      </trkpt>
      <trkpt lat="45.81115" lon="4.63344">
        <ele>445.44501</ele>
        <time>2023-05-14T12:31:46.000Z</time>
      </trkpt>
      <trkpt lat="45.81112" lon="4.63342">
        <ele>443.84381</ele>
        <time>2023-05-14T12:31:47.000Z</time>
      </trkpt>
      <trkpt lat="45.8111" lon="4.63341">
        <ele>442.37506</ele>
        <time>2023-05-14T12:31:48.000Z</time>
      </trkpt>
      <trkpt lat="45.81108" lon="4.6334">
        <ele>440.2312</ele>
        <time>2023-05-14T12:31:49.000Z</time>
      </trkpt>
      <trkpt lat="45.81106" lon="4.63339">
        <ele>437.68622</ele>
        <time>2023-05-14T12:31:50.000Z</time>
      </trkpt>
      <trkpt lat="45.81104" lon="4.63337">
        <ele>435.75211</ele>
        <time>2023-05-14T12:31:51.000Z</time>
      </trkpt>
      <trkpt lat="45.81102" lon="4.63336">
        <ele>433.75912</ele>
        <time>2023-05-14T12:31:52.000Z</time>
      </trkpt>
      <trkpt lat="45.811" lon="4.63335">
        <ele>431.87958</ele>
        <time>2023-05-14T12:31:53.000Z</time>
      </trkpt>
      <trkpt lat="45.81097" lon="4.63334">
        <ele>429.88193</ele>
        <time>2023-05-14T12:31:54.000Z</time>
      </trkpt>
      <trkpt lat="45.81095" lon="4.63333">
        <ele>427.84512</ele>
        <time>2023-05-14T12:31:55.000Z</time>
      </trkpt>
      <trkpt lat="45.81093" lon="4.63333">
        <ele>425.79388</ele>
        <time>2023-05-14T12:31:56.000Z</time>
      </trkpt>
      <trkpt lat="45.81091" lon="4.63332">
        <ele>424.49692</ele>
        <time>2023-05-14T12:31:57.000Z</time>
      </trkpt>
      <trkpt lat="45.81089" lon="4.63332">
        <ele>423.58798</ele>
        <time>2023-05-14T12:31:58.000Z</time>
      </trkpt>
      <trkpt lat="45.81087" lon="4.63332">
        <ele>422.65204</ele>
        <time>2023-05-14T12:31:59.000Z</time>
      </trkpt>
      <trkpt lat="45.81084" lon="4.6333">
        <ele>421.75586</ele>
        <time>2023-05-14T12:32:00.000Z</time>
      </trkpt>
      <trkpt lat="45.81082" lon="4.63329">
        <ele>420.67514</ele>
        <time>2023-05-14T12:32:01.000Z</time>
      </trkpt>
      <trkpt lat="45.81079" lon="4.63328">
        <ele>419.38965</ele>
        <time>2023-05-14T12:32:02.000Z</time>
      </trkpt>
      <trkpt lat="45.81076" lon="4.63327">
        <ele>418.84064</ele>
        <time>2023-05-14T12:32:03.000Z</time>
      </trkpt>
      <trkpt lat="45.81074" lon="4.63326">
        <ele>418.00153</ele>
        <time>2023-05-14T12:32:04.000Z</time>
      </trkpt>
      <trkpt lat="45.81071" lon="4.63325">
        <ele>417.13275</ele>
        <time>2023-05-14T12:32:05.000Z</time>
      </trkpt>
      <trkpt lat="45.81068" lon="4.63324">
        <ele>416.27618</ele>
        <time>2023-05-14T12:32:06.000Z</time>
      </trkpt>
      <trkpt lat="45.81065" lon="4.63324">
        <ele>415.64801</ele>
        <time>2023-05-14T12:32:07.000Z</time>
      </trkpt>
      <trkpt lat="45.81062" lon="4.63323">
        <ele>414.97397</ele>
        <time>2023-05-14T12:32:08.000Z</time>
      </trkpt>
      <trkpt lat="45.81058" lon="4.63323">
        <ele>414.35156</ele>
        <time>2023-05-14T12:32:09.000Z</time>
      </trkpt>
      <trkpt lat="45.81055" lon="4.63322">
        <ele>414.22525</ele>
        <time>2023-05-14T12:32:10.000Z</time>
      </trkpt>
      <trkpt lat="45.81053" lon="4.63322">
        <ele>414.01294</ele>
        <time>2023-05-14T12:32:11.000Z</time>
      </trkpt>
      <trkpt lat="45.81051" lon="4.63321">
        <ele>414.08734</ele>
        <time>2023-05-14T12:32:12.000Z</time>
      </trkpt>
      <trkpt lat="45.81049" lon="4.63319">
        <ele>414.11093</ele>
        <time>2023-05-14T12:32:13.000Z</time>
      </trkpt>
      <trkpt lat="45.81047" lon="4.63318">
        <ele>413.82965</ele>
        <time>2023-05-14T12:32:14.000Z</time>
      </trkpt>
      <trkpt lat="45.81045" lon="4.63317">
        <ele>413.83975</ele>
        <time>2023-05-14T12:32:15.000Z</time>
      </trkpt>
      <trkpt lat="45.81044" lon="4.63316">
        <ele>413.92694</ele>
        <time>2023-05-14T12:32:16.000Z</time>
      </trkpt>
      <trkpt lat="45.81041" lon="4.63315">
        <ele>414.05875</ele>
        <time>2023-05-14T12:32:17.000Z</time>
      </trkpt>
      <trkpt lat="45.81039" lon="4.63314">
        <ele>414.48593</ele>
        <time>2023-05-14T12:32:18.000Z</time>
      </trkpt>
      <trkpt lat="45.81038" lon="4.63313">
        <ele>415.11392</ele>
        <time>2023-05-14T12:32:19.000Z</time>
      </trkpt>
      <trkpt lat="45.81034" lon="4.63311">
        <ele>415.63916</ele>
        <time>2023-05-14T12:32:21.000Z</time>
      </trkpt>
      <trkpt lat="45.81033" lon="4.6331">
        <ele>416.66934</ele>
        <time>2023-05-14T12:32:24.000Z</time>
      </trkpt>
      <trkpt lat="45.81031" lon="4.63309">
        <ele>419.71396</ele>
        <time>2023-05-14T12:32:31.000Z</time>
      </trkpt>
      <trkpt lat="45.81029" lon="4.63309">
        <ele>422.65048</ele>
        <time>2023-05-14T12:35:44.000Z</time>
      </trkpt>
      <trkpt lat="45.81027" lon="4.63308">
        <ele>423.18979</ele>
        <time>2023-05-14T12:35:46.000Z</time>
      </trkpt>
      <trkpt lat="45.81023" lon="4.63306">
        <ele>423.63687</ele>
        <time>2023-05-14T12:35:48.000Z</time>
      </trkpt>
      <trkpt lat="45.81021" lon="4.63305">
        <ele>424.12061</ele>
        <time>2023-05-14T12:35:49.000Z</time>
      </trkpt>
      <trkpt lat="45.81019" lon="4.63304">
        <ele>427.19336</ele>
        <time>2023-05-14T12:35:50.000Z</time>
      </trkpt>
      <trkpt lat="45.81017" lon="4.63303">
        <ele>427.71835</ele>
        <time>2023-05-14T12:35:51.000Z</time>
      </trkpt>
      <trkpt lat="45.81015" lon="4.63303">
        <ele>428.30469</ele>
        <time>2023-05-14T12:35:52.000Z</time>
      </trkpt>
      <trkpt lat="45.81013" lon="4.63301">
        <ele>428.81094</ele>
        <time>2023-05-14T12:35:53.000Z</time>
      </trkpt>
      <trkpt lat="45.81012" lon="4.633">
        <ele>429.38617</ele>
        <time>2023-05-14T12:35:54.000Z</time>
      </trkpt>
      <trkpt lat="45.81009" lon="4.63298">
        <ele>429.76538</ele>
        <time>2023-05-14T12:35:55.000Z</time>
      </trkpt>
      <trkpt lat="45.81007" lon="4.63298">
        <ele>432.44849</ele>
        <time>2023-05-14T12:35:56.000Z</time>
      </trkpt>
      <trkpt lat="45.81005" lon="4.63296">
        <ele>433.37946</ele>
        <time>2023-05-14T12:35:57.000Z</time>
      </trkpt>
      <trkpt lat="45.81003" lon="4.63295">
        <ele>434.21893</ele>
        <time>2023-05-14T12:35:58.000Z</time>
      </trkpt>
      <trkpt lat="45.81" lon="4.63294">
        <ele>435.16782</ele>
        <time>2023-05-14T12:35:59.000Z</time>
      </trkpt>
      <trkpt lat="45.80998" lon="4.63293">
        <ele>436.17413</ele>
        <time>2023-05-14T12:36:00.000Z</time>
      </trkpt>
      <trkpt lat="45.80996" lon="4.63293">
        <ele>436.99323</ele>
        <time>2023-05-14T12:36:01.000Z</time>
      </trkpt>
      <trkpt lat="45.80994" lon="4.63292">
        <ele>439.76279</ele>
        <time>2023-05-14T12:36:02.000Z</time>
      </trkpt>
      <trkpt lat="45.80992" lon="4.63292">
        <ele>440.77167</ele>
        <time>2023-05-14T12:36:03.000Z</time>
      </trkpt>
      <trkpt lat="45.80989" lon="4.63291">
        <ele>441.62177</ele>
        <time>2023-05-14T12:36:04.000Z</time>
      </trkpt>
      <trkpt lat="45.80987" lon="4.6329">
        <ele>440.53766</ele>
        <time>2023-05-14T12:36:05.000Z</time>
      </trkpt>
      <trkpt lat="45.80984" lon="4.63289">
        <ele>438.7872</ele>
        <time>2023-05-14T12:36:06.000Z</time>
      </trkpt>
      <trkpt lat="45.80981" lon="4.63287">
        <ele>439.15005</ele>
        <time>2023-05-14T12:36:07.000Z</time>
      </trkpt>
      <trkpt lat="45.80978" lon="4.63286">
        <ele>439.47723</ele>
        <time>2023-05-14T12:36:08.000Z</time>
      </trkpt>
      <trkpt lat="45.80976" lon="4.63283">
        <ele>439.78363</ele>
        <time>2023-05-14T12:36:09.000Z</time>
      </trkpt>
      <trkpt lat="45.80974" lon="4.63281">
        <ele>437.05551</ele>
        <time>2023-05-14T12:36:10.000Z</time>
      </trkpt>
      <trkpt lat="45.80972" lon="4.63279">
        <ele>437.54865</ele>
        <time>2023-05-14T12:36:11.000Z</time>
      </trkpt>
      <trkpt lat="45.8097" lon="4.63276">
        <ele>438.04013</ele>
        <time>2023-05-14T12:36:12.000Z</time>
      </trkpt>
      <trkpt lat="45.80968" lon="4.63273">
        <ele>438.52692</ele>
        <time>2023-05-14T12:36:13.000Z</time>
      </trkpt>
      <trkpt lat="45.80966" lon="4.6327">
        <ele>439.01276</ele>
        <time>2023-05-14T12:36:14.000Z</time>
      </trkpt>
      <trkpt lat="45.80964" lon="4.63267">
        <ele>439.49408</ele>
        <time>2023-05-14T12:36:15.000Z</time>
      </trkpt>
      <trkpt lat="45.80962" lon="4.63264">
        <ele>439.53986</ele>
        <time>2023-05-14T12:36:16.000Z</time>
      </trkpt>
      <trkpt lat="45.8096" lon="4.6326">
        <ele>439.89444</ele>
        <time>2023-05-14T12:36:17.000Z</time>
      </trkpt>
      <trkpt lat="45.80958" lon="4.63257">
        <ele>440.22015</ele>
        <time>2023-05-14T12:36:18.000Z</time>
      </trkpt>
      <trkpt lat="45.80956" lon="4.63254">
        <ele>440.5202</ele>
        <time>2023-05-14T12:36:19.000Z</time>
      </trkpt>
      <trkpt lat="45.80954" lon="4.63251">
        <ele>440.78784</ele>
        <time>2023-05-14T12:36:20.000Z</time>
      </trkpt>
      <trkpt lat="45.80952" lon="4.63248">
        <ele>441.01855</ele>
        <time>2023-05-14T12:36:21.000Z</time>
      </trkpt>
      <trkpt lat="45.80951" lon="4.63245">
        <ele>438.72614</ele>
        <time>2023-05-14T12:36:22.000Z</time>
      </trkpt>
      <trkpt lat="45.80949" lon="4.63242">
        <ele>438.31909</ele>
        <time>2023-05-14T12:36:23.000Z</time>
      </trkpt>
      <trkpt lat="45.80948" lon="4.63239">
        <ele>437.8754</ele>
        <time>2023-05-14T12:36:24.000Z</time>
      </trkpt>
      <trkpt lat="45.80946" lon="4.63236">
        <ele>437.39948</ele>
        <time>2023-05-14T12:36:25.000Z</time>
      </trkpt>
      <trkpt lat="45.80944" lon="4.63234">
        <ele>436.99268</ele>
        <time>2023-05-14T12:36:26.000Z</time>
      </trkpt>
      <trkpt lat="45.80942" lon="4.63231">
        <ele>437.1377</ele>
        <time>2023-05-14T12:36:27.000Z</time>
      </trkpt>
      <trkpt lat="45.80939" lon="4.63229">
        <ele>436.91034</ele>
        <time>2023-05-14T12:36:28.000Z</time>
      </trkpt>
      <trkpt lat="45.80937" lon="4.63226">
        <ele>437.26764</ele>
        <time>2023-05-14T12:36:29.000Z</time>
      </trkpt>
      <trkpt lat="45.80935" lon="4.63224">
        <ele>438.02847</ele>
        <time>2023-05-14T12:36:30.000Z</time>
      </trkpt>
      <trkpt lat="45.80933" lon="4.63221">
        <ele>438.07709</ele>
        <time>2023-05-14T12:36:31.000Z</time>
      </trkpt>
      <trkpt lat="45.80931" lon="4.63219">
        <ele>438.2377</ele>
        <time>2023-05-14T12:36:32.000Z</time>
      </trkpt>
      <trkpt lat="45.80929" lon="4.63216">
        <ele>438.95621</ele>
        <time>2023-05-14T12:36:33.000Z</time>
      </trkpt>
      <trkpt lat="45.80927" lon="4.63213">
        <ele>439.63263</ele>
        <time>2023-05-14T12:36:34.000Z</time>
      </trkpt>
      <trkpt lat="45.80924" lon="4.63209">
        <ele>440.30463</ele>
        <time>2023-05-14T12:36:35.000Z</time>
      </trkpt>
      <trkpt lat="45.80922" lon="4.63205">
        <ele>439.04785</ele>
        <time>2023-05-14T12:36:36.000Z</time>
      </trkpt>
      <trkpt lat="45.8092" lon="4.63202">
        <ele>439.69067</ele>
        <time>2023-05-14T12:36:37.000Z</time>
      </trkpt>
      <trkpt lat="45.80919" lon="4.63199">
        <ele>440.36508</ele>
        <time>2023-05-14T12:36:38.000Z</time>
      </trkpt>
      <trkpt lat="45.80917" lon="4.63197">
        <ele>441.02344</ele>
        <time>2023-05-14T12:36:39.000Z</time>
      </trkpt>
      <trkpt lat="45.80915" lon="4.63194">
        <ele>441.69473</ele>
        <time>2023-05-14T12:36:40.000Z</time>
      </trkpt>
      <trkpt lat="45.80914" lon="4.63191">
        <ele>442.37387</ele>
        <time>2023-05-14T12:36:41.000Z</time>
      </trkpt>
      <trkpt lat="45.80912" lon="4.63187">
        <ele>443.22177</ele>
        <time>2023-05-14T12:36:42.000Z</time>
      </trkpt>
      <trkpt lat="45.80909" lon="4.63183">
        <ele>444.92578</ele>
        <time>2023-05-14T12:36:43.000Z</time>
      </trkpt>
      <trkpt lat="45.80907" lon="4.63178">
        <ele>446.44986</ele>
        <time>2023-05-14T12:36:44.000Z</time>
      </trkpt>
      <trkpt lat="45.80905" lon="4.63174">
        <ele>447.96567</ele>
        <time>2023-05-14T12:36:45.000Z</time>
      </trkpt>
      <trkpt lat="45.80902" lon="4.6317">
        <ele>449.4942</ele>
        <time>2023-05-14T12:36:46.000Z</time>
      </trkpt>
      <trkpt lat="45.809" lon="4.63167">
        <ele>450.98169</ele>
        <time>2023-05-14T12:36:47.000Z</time>
      </trkpt>
      <trkpt lat="45.80898" lon="4.63163">
        <ele>452.8251</ele>
        <time>2023-05-14T12:36:48.000Z</time>
      </trkpt>
      <trkpt lat="45.80896" lon="4.6316">
        <ele>454.06787</ele>
        <time>2023-05-14T12:36:49.000Z</time>
      </trkpt>
      <trkpt lat="45.80894" lon="4.63156">
        <ele>455.2973</ele>
        <time>2023-05-14T12:36:50.000Z</time>
      </trkpt>
      <trkpt lat="45.80891" lon="4.63152">
        <ele>456.46548</ele>
        <time>2023-05-14T12:36:51.000Z</time>
      </trkpt>
      <trkpt lat="45.80888" lon="4.63148">
        <ele>457.46649</ele>
        <time>2023-05-14T12:36:52.000Z</time>
      </trkpt>
      <trkpt lat="45.80885" lon="4.63144">
        <ele>457.89093</ele>
        <time>2023-05-14T12:36:53.000Z</time>
      </trkpt>
      <trkpt lat="45.80881" lon="4.6314">
        <ele>458.35675</ele>
        <time>2023-05-14T12:36:54.000Z</time>
      </trkpt>
      <trkpt lat="45.80878" lon="4.63135">
        <ele>458.79694</ele>
        <time>2023-05-14T12:36:55.000Z</time>
      </trkpt>
      <trkpt lat="45.80875" lon="4.6313">
        <ele>459.2272</ele>
        <time>2023-05-14T12:36:56.000Z</time>
      </trkpt>
      <trkpt lat="45.80873" lon="4.63123">
        <ele>459.66461</ele>
        <time>2023-05-14T12:36:57.000Z</time>
      </trkpt>
      <trkpt lat="45.8087" lon="4.63119">
        <ele>460.06558</ele>
        <time>2023-05-14T12:36:58.000Z</time>
      </trkpt>
      <trkpt lat="45.80867" lon="4.63114">
        <ele>460.45181</ele>
        <time>2023-05-14T12:36:59.000Z</time>
      </trkpt>
      <trkpt lat="45.80865" lon="4.6311">
        <ele>460.81744</ele>
        <time>2023-05-14T12:37:00.000Z</time>
      </trkpt>
      <trkpt lat="45.80863" lon="4.63107">
        <ele>461.20575</ele>
        <time>2023-05-14T12:37:01.000Z</time>
      </trkpt>
      <trkpt lat="45.80865" lon="4.63105">
        <ele>461.48541</ele>
        <time>2023-05-14T12:37:03.000Z</time>
      </trkpt>
      <trkpt lat="45.80865" lon="4.63102">
        <ele>460.92365</ele>
        <time>2023-05-14T12:37:08.000Z</time>
      </trkpt>
      <trkpt lat="45.80867" lon="4.63102">
        <ele>460.9581</ele>
        <time>2023-05-14T12:37:14.000Z</time>
      </trkpt>
      <trkpt lat="45.80869" lon="4.63103">
        <ele>461.00024</ele>
        <time>2023-05-14T12:37:15.000Z</time>
      </trkpt>
      <trkpt lat="45.80871" lon="4.63104">
        <ele>461.01505</ele>
        <time>2023-05-14T12:37:16.000Z</time>
      </trkpt>
      <trkpt lat="45.80873" lon="4.63105">
        <ele>461.05664</ele>
        <time>2023-05-14T12:37:17.000Z</time>
      </trkpt>
      <trkpt lat="45.80876" lon="4.63104">
        <ele>461.16479</ele>
        <time>2023-05-14T12:37:19.000Z</time>
      </trkpt>
      <trkpt lat="45.80878" lon="4.63103">
        <ele>461.31964</ele>
        <time>2023-05-14T12:37:20.000Z</time>
      </trkpt>
      <trkpt lat="45.80881" lon="4.63101">
        <ele>461.50531</ele>
        <time>2023-05-14T12:37:22.000Z</time>
      </trkpt>
      <trkpt lat="45.80884" lon="4.63099">
        <ele>462.81851</ele>
        <time>2023-05-14T12:37:24.000Z</time>
      </trkpt>
      <trkpt lat="45.80886" lon="4.63094">
        <ele>464.2038</ele>
        <time>2023-05-14T12:37:26.000Z</time>
      </trkpt>
      <trkpt lat="45.80887" lon="4.63092">
        <ele>465.5856</ele>
        <time>2023-05-14T12:37:27.000Z</time>
      </trkpt>
      <trkpt lat="45.80888" lon="4.6309">
        <ele>466.96533</ele>
        <time>2023-05-14T12:37:28.000Z</time>
      </trkpt>
      <trkpt lat="45.80889" lon="4.63086">
        <ele>468.24838</ele>
        <time>2023-05-14T12:37:29.000Z</time>
      </trkpt>
      <trkpt lat="45.80889" lon="4.63082">
        <ele>469.54865</ele>
        <time>2023-05-14T12:37:30.000Z</time>
      </trkpt>
      <trkpt lat="45.80889" lon="4.63079">
        <ele>470.84039</ele>
        <time>2023-05-14T12:37:31.000Z</time>
      </trkpt>
      <trkpt lat="45.80889" lon="4.63076">
        <ele>472.12247</ele>
        <time>2023-05-14T12:37:32.000Z</time>
      </trkpt>
      <trkpt lat="45.80889" lon="4.63072">
        <ele>473.44379</ele>
        <time>2023-05-14T12:37:33.000Z</time>
      </trkpt>
      <trkpt lat="45.8089" lon="4.63069">
        <ele>474.75571</ele>
        <time>2023-05-14T12:37:34.000Z</time>
      </trkpt>
      <trkpt lat="45.8089" lon="4.63066">
        <ele>476.03589</ele>
        <time>2023-05-14T12:37:35.000Z</time>
      </trkpt>
      <trkpt lat="45.80892" lon="4.63063">
        <ele>477.72275</ele>
        <time>2023-05-14T12:37:36.000Z</time>
      </trkpt>
      <trkpt lat="45.80893" lon="4.63061">
        <ele>479.33258</ele>
        <time>2023-05-14T12:37:37.000Z</time>
      </trkpt>
      <trkpt lat="45.80895" lon="4.63059">
        <ele>480.72516</ele>
        <time>2023-05-14T12:37:38.000Z</time>
      </trkpt>
      <trkpt lat="45.80896" lon="4.63057">
        <ele>482.07672</ele>
        <time>2023-05-14T12:37:39.000Z</time>
      </trkpt>
      <trkpt lat="45.80899" lon="4.63055">
        <ele>483.43106</ele>
        <time>2023-05-14T12:37:41.000Z</time>
      </trkpt>
      <trkpt lat="45.80901" lon="4.63054">
        <ele>484.80347</ele>
        <time>2023-05-14T12:37:42.000Z</time>
      </trkpt>
      <trkpt lat="45.80903" lon="4.63054">
        <ele>486.15298</ele>
        <time>2023-05-14T12:37:43.000Z</time>
      </trkpt>
      <trkpt lat="45.80906" lon="4.63054">
        <ele>487.47501</ele>
        <time>2023-05-14T12:37:45.000Z</time>
      </trkpt>
      <trkpt lat="45.80907" lon="4.6305">
        <ele>488.77179</ele>
        <time>2023-05-14T12:37:47.000Z</time>
      </trkpt>
      <trkpt lat="45.80906" lon="4.63048">
        <ele>488.91425</ele>
        <time>2023-05-14T12:37:49.000Z</time>
      </trkpt>
      <trkpt lat="45.80904" lon="4.6305">
        <ele>489.26913</ele>
        <time>2023-05-14T12:38:02.000Z</time>
      </trkpt>
      <trkpt lat="45.80906" lon="4.63049">
        <ele>489.02838</ele>
        <time>2023-05-14T12:38:21.000Z</time>
      </trkpt>
      <trkpt lat="45.80908" lon="4.63048">
        <ele>488.75018</ele>
        <time>2023-05-14T12:38:23.000Z</time>
      </trkpt>
      <trkpt lat="45.80907" lon="4.63046">
        <ele>488.23688</ele>
        <time>2023-05-14T12:38:34.000Z</time>
      </trkpt>
      <trkpt lat="45.80905" lon="4.63046">
        <ele>487.39355</ele>
        <time>2023-05-14T12:39:01.000Z</time>
      </trkpt>
      <trkpt lat="45.80915" lon="4.6304">
        <ele>486.6944</ele>
        <time>2023-05-14T12:39:37.971Z</time>
      </trkpt>
      <trkpt lat="45.80914" lon="4.63042">
        <ele>485.99307</ele>
        <time>2023-05-14T12:39:40.970Z</time>
      </trkpt>
      <trkpt lat="45.80901" lon="4.63054">
        <ele>485.26752</ele>
        <time>2023-05-14T12:39:45.935Z</time>
      </trkpt>
      <trkpt lat="45.809" lon="4.63049">
        <ele>484.50781</ele>
        <time>2023-05-14T12:39:46.957Z</time>
      </trkpt>
      <trkpt lat="45.80897" lon="4.63053">
        <ele>483.71982</ele>
        <time>2023-05-14T12:39:47.966Z</time>
      </trkpt>
      <trkpt lat="45.80894" lon="4.63062">
        <ele>483.02582</ele>
        <time>2023-05-14T12:39:48.969Z</time>
      </trkpt>
      <trkpt lat="45.80897" lon="4.63062">
        <ele>482.4252</ele>
        <time>2023-05-14T12:39:49.969Z</time>
      </trkpt>
      <trkpt lat="45.809" lon="4.63065">
        <ele>481.57172</ele>
        <time>2023-05-14T12:39:50.968Z</time>
      </trkpt>
      <trkpt lat="45.80904" lon="4.63046">
        <ele>481.11823</ele>
        <time>2023-05-14T12:39:52.000Z</time>
      </trkpt>
      <trkpt lat="45.80903" lon="4.63048">
        <ele>479.21005</ele>
        <time>2023-05-14T12:39:55.000Z</time>
      </trkpt>
      <trkpt lat="45.80905" lon="4.63047">
        <ele>478.00751</ele>
        <time>2023-05-14T12:40:15.000Z</time>
      </trkpt>
      <trkpt lat="45.80906" lon="4.63043">
        <ele>476.07935</ele>
        <time>2023-05-14T12:40:18.000Z</time>
      </trkpt>
      <trkpt lat="45.80904" lon="4.63043">
        <ele>475.86353</ele>
        <time>2023-05-14T12:42:35.000Z</time>
      </trkpt>
      <trkpt lat="45.80902" lon="4.63047">
        <ele>475.65674</ele>
        <time>2023-05-14T12:42:37.000Z</time>
      </trkpt>
      <trkpt lat="45.80901" lon="4.63049">
        <ele>475.49081</ele>
        <time>2023-05-14T12:42:38.000Z</time>
      </trkpt>
      <trkpt lat="45.80899" lon="4.63052">
        <ele>475.00577</ele>
        <time>2023-05-14T12:42:39.000Z</time>
      </trkpt>
      <trkpt lat="45.80896" lon="4.63054">
        <ele>475.05899</ele>
        <time>2023-05-14T12:42:40.000Z</time>
      </trkpt>
      <trkpt lat="45.80894" lon="4.63057">
        <ele>475.09741</ele>
        <time>2023-05-14T12:42:41.000Z</time>
      </trkpt>
      <trkpt lat="45.80893" lon="4.63059">
        <ele>475.66544</ele>
        <time>2023-05-14T12:42:42.000Z</time>
      </trkpt>
      <trkpt lat="45.80891" lon="4.63062">
        <ele>476.52319</ele>
        <time>2023-05-14T12:42:43.000Z</time>
      </trkpt>
      <trkpt lat="45.80889" lon="4.63065">
        <ele>477.21698</ele>
        <time>2023-05-14T12:42:44.000Z</time>
      </trkpt>
      <trkpt lat="45.80887" lon="4.63067">
        <ele>478.06219</ele>
        <time>2023-05-14T12:42:45.000Z</time>
      </trkpt>
      <trkpt lat="45.80885" lon="4.63068">
        <ele>478.87582</ele>
        <time>2023-05-14T12:42:46.000Z</time>
      </trkpt>
      <trkpt lat="45.80883" lon="4.6307">
        <ele>479.78198</ele>
        <time>2023-05-14T12:42:47.000Z</time>
      </trkpt>
      <trkpt lat="45.80882" lon="4.63072">
        <ele>480.73309</ele>
        <time>2023-05-14T12:42:48.000Z</time>
      </trkpt>
      <trkpt lat="45.80879" lon="4.63075">
        <ele>481.56387</ele>
        <time>2023-05-14T12:42:49.000Z</time>
      </trkpt>
      <trkpt lat="45.80877" lon="4.63079">
        <ele>482.33682</ele>
        <time>2023-05-14T12:42:50.000Z</time>
      </trkpt>
      <trkpt lat="45.80875" lon="4.63083">
        <ele>483.14175</ele>
        <time>2023-05-14T12:42:51.000Z</time>
      </trkpt>
      <trkpt lat="45.80872" lon="4.63085">
        <ele>483.56268</ele>
        <time>2023-05-14T12:42:52.000Z</time>
      </trkpt>
      <trkpt lat="45.80869" lon="4.63088">
        <ele>485.43466</ele>
        <time>2023-05-14T12:42:53.000Z</time>
      </trkpt>
      <trkpt lat="45.80868" lon="4.63092">
        <ele>486.55997</ele>
        <time>2023-05-14T12:42:54.000Z</time>
      </trkpt>
      <trkpt lat="45.80867" lon="4.63095">
        <ele>488.39151</ele>
        <time>2023-05-14T12:42:55.000Z</time>
      </trkpt>
      <trkpt lat="45.80864" lon="4.63098">
        <ele>488.45654</ele>
        <time>2023-05-14T12:42:56.000Z</time>
      </trkpt>
      <trkpt lat="45.80862" lon="4.63099">
        <ele>488.49243</ele>
        <time>2023-05-14T12:42:57.000Z</time>
      </trkpt>
      <trkpt lat="45.80859" lon="4.63098">
        <ele>488.54596</ele>
        <time>2023-05-14T12:42:58.000Z</time>
      </trkpt>
      <trkpt lat="45.80857" lon="4.63096">
        <ele>488.66528</ele>
        <time>2023-05-14T12:42:59.000Z</time>
      </trkpt>
      <trkpt lat="45.80856" lon="4.63095">
        <ele>488.82568</ele>
        <time>2023-05-14T12:43:00.000Z</time>
      </trkpt>
      <trkpt lat="45.80854" lon="4.63093">
        <ele>489.01251</ele>
        <time>2023-05-14T12:43:01.000Z</time>
      </trkpt>
      <trkpt lat="45.80852" lon="4.63091">
        <ele>489.01416</ele>
        <time>2023-05-14T12:43:02.000Z</time>
      </trkpt>
      <trkpt lat="45.8085" lon="4.63089">
        <ele>489.05109</ele>
        <time>2023-05-14T12:43:03.000Z</time>
      </trkpt>
      <trkpt lat="45.80848" lon="4.63087">
        <ele>489.10443</ele>
        <time>2023-05-14T12:43:04.000Z</time>
      </trkpt>
      <trkpt lat="45.80846" lon="4.63085">
        <ele>489.00262</ele>
        <time>2023-05-14T12:43:05.000Z</time>
      </trkpt>
      <trkpt lat="45.80843" lon="4.63084">
        <ele>488.89941</ele>
        <time>2023-05-14T12:43:06.000Z</time>
      </trkpt>
      <trkpt lat="45.8084" lon="4.63082">
        <ele>488.7355</ele>
        <time>2023-05-14T12:43:07.000Z</time>
      </trkpt>
      <trkpt lat="45.80838" lon="4.63081">
        <ele>488.52155</ele>
        <time>2023-05-14T12:43:08.000Z</time>
      </trkpt>
      <trkpt lat="45.80836" lon="4.6308">
        <ele>488.4166</ele>
        <time>2023-05-14T12:43:09.000Z</time>
      </trkpt>
      <trkpt lat="45.80834" lon="4.63079">
        <ele>488.33197</ele>
        <time>2023-05-14T12:43:11.000Z</time>
      </trkpt>
      <trkpt lat="45.80836" lon="4.63081">
        <ele>486.63589</ele>
        <time>2023-05-14T12:43:22.000Z</time>
      </trkpt>
      <trkpt lat="45.80833" lon="4.63079">
        <ele>484.8746</ele>
        <time>2023-05-14T12:43:44.000Z</time>
      </trkpt>
      <trkpt lat="45.80831" lon="4.63077">
        <ele>484.63681</ele>
        <time>2023-05-14T12:43:45.000Z</time>
      </trkpt>
      <trkpt lat="45.80828" lon="4.63075">
        <ele>484.40399</ele>
        <time>2023-05-14T12:43:46.000Z</time>
      </trkpt>
      <trkpt lat="45.80825" lon="4.63074">
        <ele>484.16046</ele>
        <time>2023-05-14T12:43:47.000Z</time>
      </trkpt>
      <trkpt lat="45.80823" lon="4.63073">
        <ele>483.9541</ele>
        <time>2023-05-14T12:43:48.000Z</time>
      </trkpt>
      <trkpt lat="45.80821" lon="4.63071">
        <ele>483.74741</ele>
        <time>2023-05-14T12:43:49.000Z</time>
      </trkpt>
      <trkpt lat="45.80819" lon="4.6307">
        <ele>481.35284</ele>
        <time>2023-05-14T12:43:50.000Z</time>
      </trkpt>
      <trkpt lat="45.80817" lon="4.63068">
        <ele>481.00693</ele>
        <time>2023-05-14T12:43:51.000Z</time>
      </trkpt>
      <trkpt lat="45.80814" lon="4.63066">
        <ele>479.42505</ele>
        <time>2023-05-14T12:43:52.000Z</time>
      </trkpt>
      <trkpt lat="45.80811" lon="4.63063">
        <ele>477.66318</ele>
        <time>2023-05-14T12:43:53.000Z</time>
      </trkpt>
      <trkpt lat="45.80808" lon="4.63061">
        <ele>475.87778</ele>
        <time>2023-05-14T12:43:54.000Z</time>
      </trkpt>
      <trkpt lat="45.80804" lon="4.63059">
        <ele>474.06845</ele>
        <time>2023-05-14T12:43:55.000Z</time>
      </trkpt>
      <trkpt lat="45.80799" lon="4.63057">
        <ele>472.27042</ele>
        <time>2023-05-14T12:43:56.000Z</time>
      </trkpt>
      <trkpt lat="45.80793" lon="4.63055">
        <ele>470.47055</ele>
        <time>2023-05-14T12:43:57.000Z</time>
      </trkpt>
      <trkpt lat="45.80785" lon="4.63053">
        <ele>468.6496</ele>
        <time>2023-05-14T12:43:58.000Z</time>
      </trkpt>
      <trkpt lat="45.80777" lon="4.6305">
        <ele>466.82257</ele>
        <time>2023-05-14T12:43:59.000Z</time>
      </trkpt>
      <trkpt lat="45.80769" lon="4.63047">
        <ele>464.98038</ele>
        <time>2023-05-14T12:44:00.000Z</time>
      </trkpt>
      <trkpt lat="45.80761" lon="4.63043">
        <ele>463.02979</ele>
        <time>2023-05-14T12:44:01.000Z</time>
      </trkpt>
      <trkpt lat="45.80752" lon="4.63039">
        <ele>461.05225</ele>
        <time>2023-05-14T12:44:02.000Z</time>
      </trkpt>
      <trkpt lat="45.80743" lon="4.63035">
        <ele>460.33456</ele>
        <time>2023-05-14T12:44:03.000Z</time>
      </trkpt>
      <trkpt lat="45.80734" lon="4.63031">
        <ele>459.94385</ele>
        <time>2023-05-14T12:44:04.000Z</time>
      </trkpt>
      <trkpt lat="45.80726" lon="4.63028">
        <ele>458.02646</ele>
        <time>2023-05-14T12:44:05.000Z</time>
      </trkpt>
      <trkpt lat="45.80717" lon="4.63024">
        <ele>456.12573</ele>
        <time>2023-05-14T12:44:06.000Z</time>
      </trkpt>
      <trkpt lat="45.8071" lon="4.63021">
        <ele>454.19897</ele>
        <time>2023-05-14T12:44:07.000Z</time>
      </trkpt>
      <trkpt lat="45.80704" lon="4.63018">
        <ele>452.27182</ele>
        <time>2023-05-14T12:44:08.000Z</time>
      </trkpt>
      <trkpt lat="45.80699" lon="4.63016">
        <ele>450.35034</ele>
        <time>2023-05-14T12:44:09.000Z</time>
      </trkpt>
      <trkpt lat="45.80696" lon="4.63014">
        <ele>450.03125</ele>
        <time>2023-05-14T12:44:10.000Z</time>
      </trkpt>
      <trkpt lat="45.80694" lon="4.63014">
        <ele>449.74081</ele>
        <time>2023-05-14T12:44:43.000Z</time>
      </trkpt>
      <trkpt lat="45.80692" lon="4.63012">
        <ele>450.68188</ele>
        <time>2023-05-14T12:44:45.000Z</time>
      </trkpt>
      <trkpt lat="45.8069" lon="4.63009">
        <ele>451.77716</ele>
        <time>2023-05-14T12:44:47.000Z</time>
      </trkpt>
      <trkpt lat="45.80689" lon="4.63006">
        <ele>452.88568</ele>
        <time>2023-05-14T12:44:48.000Z</time>
      </trkpt>
      <trkpt lat="45.80687" lon="4.63003">
        <ele>453.98056</ele>
        <time>2023-05-14T12:44:49.000Z</time>
      </trkpt>
      <trkpt lat="45.80685" lon="4.62999">
        <ele>455.07217</ele>
        <time>2023-05-14T12:44:50.000Z</time>
      </trkpt>
      <trkpt lat="45.80683" lon="4.62994">
        <ele>456.17456</ele>
        <time>2023-05-14T12:44:51.000Z</time>
      </trkpt>
      <trkpt lat="45.80681" lon="4.6299">
        <ele>457.33521</ele>
        <time>2023-05-14T12:44:52.000Z</time>
      </trkpt>
      <trkpt lat="45.8068" lon="4.62985">
        <ele>458.48868</ele>
        <time>2023-05-14T12:44:53.000Z</time>
      </trkpt>
      <trkpt lat="45.80678" lon="4.62979">
        <ele>459.64496</ele>
        <time>2023-05-14T12:44:54.000Z</time>
      </trkpt>
      <trkpt lat="45.80677" lon="4.62971">
        <ele>460.81818</ele>
        <time>2023-05-14T12:44:55.000Z</time>
      </trkpt>
      <trkpt lat="45.80675" lon="4.62966">
        <ele>462.00604</ele>
        <time>2023-05-14T12:44:56.000Z</time>
      </trkpt>
      <trkpt lat="45.80673" lon="4.6296">
        <ele>463.54858</ele>
        <time>2023-05-14T12:44:57.000Z</time>
      </trkpt>
      <trkpt lat="45.80671" lon="4.62953">
        <ele>464.81479</ele>
        <time>2023-05-14T12:44:58.000Z</time>
      </trkpt>
      <trkpt lat="45.80669" lon="4.62946">
        <ele>466.07608</ele>
        <time>2023-05-14T12:44:59.000Z</time>
      </trkpt>
      <trkpt lat="45.80667" lon="4.6294">
        <ele>467.3399</ele>
        <time>2023-05-14T12:45:00.000Z</time>
      </trkpt>
      <trkpt lat="45.80665" lon="4.62933">
        <ele>468.61786</ele>
        <time>2023-05-14T12:45:01.000Z</time>
      </trkpt>
      <trkpt lat="45.80664" lon="4.62925">
        <ele>469.89804</ele>
        <time>2023-05-14T12:45:02.000Z</time>
      </trkpt>
      <trkpt lat="45.80662" lon="4.62917">
        <ele>471.17813</ele>
        <time>2023-05-14T12:45:03.000Z</time>
      </trkpt>
      <trkpt lat="45.8066" lon="4.62908">
        <ele>473.03101</ele>
        <time>2023-05-14T12:45:04.000Z</time>
      </trkpt>
      <trkpt lat="45.80659" lon="4.62898">
        <ele>472.49673</ele>
        <time>2023-05-14T12:45:05.000Z</time>
      </trkpt>
      <trkpt lat="45.80658" lon="4.62887">
        <ele>471.95255</ele>
        <time>2023-05-14T12:45:06.000Z</time>
      </trkpt>
      <trkpt lat="45.80656" lon="4.62876">
        <ele>471.40289</ele>
        <time>2023-05-14T12:45:07.000Z</time>
      </trkpt>
      <trkpt lat="45.80654" lon="4.62865">
        <ele>471.24765</ele>
        <time>2023-05-14T12:45:08.000Z</time>
      </trkpt>
      <trkpt lat="45.80652" lon="4.62853">
        <ele>471.11816</ele>
        <time>2023-05-14T12:45:09.000Z</time>
      </trkpt>
      <trkpt lat="45.8065" lon="4.62841">
        <ele>470.98355</ele>
        <time>2023-05-14T12:45:10.000Z</time>
      </trkpt>
      <trkpt lat="45.80648" lon="4.6283">
        <ele>470.83585</ele>
        <time>2023-05-14T12:45:11.000Z</time>
      </trkpt>
      <trkpt lat="45.80645" lon="4.62818">
        <ele>470.67618</ele>
        <time>2023-05-14T12:45:12.000Z</time>
      </trkpt>
      <trkpt lat="45.80643" lon="4.62806">
        <ele>468.62833</ele>
        <time>2023-05-14T12:45:13.000Z</time>
      </trkpt>
      <trkpt lat="45.8064" lon="4.62794">
        <ele>468.40936</ele>
        <time>2023-05-14T12:45:14.000Z</time>
      </trkpt>
      <trkpt lat="45.80637" lon="4.62782">
        <ele>468.18121</ele>
        <time>2023-05-14T12:45:15.000Z</time>
      </trkpt>
      <trkpt lat="45.80635" lon="4.6277">
        <ele>467.95908</ele>
        <time>2023-05-14T12:45:16.000Z</time>
      </trkpt>
      <trkpt lat="45.80633" lon="4.62759">
        <ele>467.7308</ele>
        <time>2023-05-14T12:45:17.000Z</time>
      </trkpt>
      <trkpt lat="45.8063" lon="4.62746">
        <ele>467.52106</ele>
        <time>2023-05-14T12:45:18.000Z</time>
      </trkpt>
      <trkpt lat="45.80627" lon="4.62734">
        <ele>465.35483</ele>
        <time>2023-05-14T12:45:19.000Z</time>
      </trkpt>
      <trkpt lat="45.80625" lon="4.62721">
        <ele>465.02765</ele>
        <time>2023-05-14T12:45:20.000Z</time>
      </trkpt>
      <trkpt lat="45.80622" lon="4.62708">
        <ele>464.70758</ele>
        <time>2023-05-14T12:45:21.000Z</time>
      </trkpt>
      <trkpt lat="45.80618" lon="4.62694">
        <ele>464.38193</ele>
        <time>2023-05-14T12:45:22.000Z</time>
      </trkpt>
      <trkpt lat="45.80614" lon="4.6268">
        <ele>464.04474</ele>
        <time>2023-05-14T12:45:23.000Z</time>
      </trkpt>
      <trkpt lat="45.8061" lon="4.62666">
        <ele>463.69492</ele>
        <time>2023-05-14T12:45:24.000Z</time>
      </trkpt>
      <trkpt lat="45.80606" lon="4.62653">
        <ele>462.39404</ele>
        <time>2023-05-14T12:45:25.000Z</time>
      </trkpt>
      <trkpt lat="45.80602" lon="4.6264">
        <ele>461.07764</ele>
        <time>2023-05-14T12:45:26.000Z</time>
      </trkpt>
      <trkpt lat="45.80596" lon="4.62626">
        <ele>459.51953</ele>
        <time>2023-05-14T12:45:27.000Z</time>
      </trkpt>
      <trkpt lat="45.80589" lon="4.62611">
        <ele>458.66782</ele>
        <time>2023-05-14T12:45:28.000Z</time>
      </trkpt>
      <trkpt lat="45.80583" lon="4.62597">
        <ele>458.11346</ele>
        <time>2023-05-14T12:45:29.000Z</time>
      </trkpt>
      <trkpt lat="45.80577" lon="4.62583">
        <ele>456.14551</ele>
        <time>2023-05-14T12:45:30.000Z</time>
      </trkpt>
      <trkpt lat="45.80573" lon="4.6257">
        <ele>454.11444</ele>
        <time>2023-05-14T12:45:31.000Z</time>
      </trkpt>
      <trkpt lat="45.80568" lon="4.62558">
        <ele>452.04462</ele>
        <time>2023-05-14T12:45:32.000Z</time>
      </trkpt>
      <trkpt lat="45.80563" lon="4.62548">
        <ele>451.8327</ele>
        <time>2023-05-14T12:45:33.000Z</time>
      </trkpt>
      <trkpt lat="45.8056" lon="4.6254">
        <ele>449.77481</ele>
        <time>2023-05-14T12:45:34.000Z</time>
      </trkpt>
      <trkpt lat="45.80556" lon="4.62532">
        <ele>448.6839</ele>
        <time>2023-05-14T12:45:35.000Z</time>
      </trkpt>
      <trkpt lat="45.80553" lon="4.62525">
        <ele>447.6037</ele>
        <time>2023-05-14T12:45:36.000Z</time>
      </trkpt>
      <trkpt lat="45.8055" lon="4.62519">
        <ele>446.48428</ele>
        <time>2023-05-14T12:45:37.000Z</time>
      </trkpt>
      <trkpt lat="45.80548" lon="4.62516">
        <ele>445.34979</ele>
        <time>2023-05-14T12:45:38.000Z</time>
      </trkpt>
      <trkpt lat="45.80546" lon="4.62512">
        <ele>446.431</ele>
        <time>2023-05-14T12:45:39.000Z</time>
      </trkpt>
      <trkpt lat="45.80544" lon="4.62509">
        <ele>445.4848</ele>
        <time>2023-05-14T12:45:40.000Z</time>
      </trkpt>
      <trkpt lat="45.80542" lon="4.62507">
        <ele>444.50766</ele>
        <time>2023-05-14T12:45:41.000Z</time>
      </trkpt>
      <trkpt lat="45.80539" lon="4.62504">
        <ele>443.49765</ele>
        <time>2023-05-14T12:45:43.000Z</time>
      </trkpt>
      <trkpt lat="45.80539" lon="4.62498">
        <ele>440.7851</ele>
        <time>2023-05-14T12:45:45.000Z</time>
      </trkpt>
      <trkpt lat="45.80541" lon="4.62495">
        <ele>439.62213</ele>
        <time>2023-05-14T12:45:46.000Z</time>
      </trkpt>
      <trkpt lat="45.80545" lon="4.62492">
        <ele>439.66119</ele>
        <time>2023-05-14T12:45:47.000Z</time>
      </trkpt>
      <trkpt lat="45.80549" lon="4.6249">
        <ele>439.74609</ele>
        <time>2023-05-14T12:45:48.000Z</time>
      </trkpt>
      <trkpt lat="45.80553" lon="4.62487">
        <ele>439.11612</ele>
        <time>2023-05-14T12:45:49.000Z</time>
      </trkpt>
      <trkpt lat="45.80556" lon="4.62484">
        <ele>437.36694</ele>
        <time>2023-05-14T12:45:50.000Z</time>
      </trkpt>
      <trkpt lat="45.80559" lon="4.62481">
        <ele>435.28745</ele>
        <time>2023-05-14T12:45:51.000Z</time>
      </trkpt>
      <trkpt lat="45.80562" lon="4.62478">
        <ele>435.46387</ele>
        <time>2023-05-14T12:45:52.000Z</time>
      </trkpt>
      <trkpt lat="45.80565" lon="4.62476">
        <ele>435.71893</ele>
        <time>2023-05-14T12:45:53.000Z</time>
      </trkpt>
      <trkpt lat="45.80569" lon="4.62474">
        <ele>436.0329</ele>
        <time>2023-05-14T12:45:54.000Z</time>
      </trkpt>
      <trkpt lat="45.80573" lon="4.62471">
        <ele>436.41055</ele>
        <time>2023-05-14T12:45:55.000Z</time>
      </trkpt>
      <trkpt lat="45.80577" lon="4.62468">
        <ele>436.85757</ele>
        <time>2023-05-14T12:45:56.000Z</time>
      </trkpt>
      <trkpt lat="45.80582" lon="4.62466">
        <ele>434.75195</ele>
        <time>2023-05-14T12:45:57.000Z</time>
      </trkpt>
      <trkpt lat="45.80587" lon="4.62464">
        <ele>434.16064</ele>
        <time>2023-05-14T12:45:58.000Z</time>
      </trkpt>
      <trkpt lat="45.80592" lon="4.62461">
        <ele>433.59015</ele>
        <time>2023-05-14T12:45:59.000Z</time>
      </trkpt>
      <trkpt lat="45.80598" lon="4.62458">
        <ele>433.48788</ele>
        <time>2023-05-14T12:46:00.000Z</time>
      </trkpt>
      <trkpt lat="45.80604" lon="4.62456">
        <ele>432.92734</ele>
        <time>2023-05-14T12:46:01.000Z</time>
      </trkpt>
      <trkpt lat="45.80611" lon="4.62454">
        <ele>432.51642</ele>
        <time>2023-05-14T12:46:02.000Z</time>
      </trkpt>
      <trkpt lat="45.80617" lon="4.62449">
        <ele>431.44711</ele>
        <time>2023-05-14T12:46:03.000Z</time>
      </trkpt>
      <trkpt lat="45.80624" lon="4.62446">
        <ele>430.7941</ele>
        <time>2023-05-14T12:46:04.000Z</time>
      </trkpt>
      <trkpt lat="45.80632" lon="4.62443">
        <ele>431.82724</ele>
        <time>2023-05-14T12:46:05.000Z</time>
      </trkpt>
      <trkpt lat="45.80638" lon="4.6244">
        <ele>431.37933</ele>
        <time>2023-05-14T12:46:06.000Z</time>
      </trkpt>
      <trkpt lat="45.80645" lon="4.62436">
        <ele>431.18246</ele>
        <time>2023-05-14T12:46:07.000Z</time>
      </trkpt>
      <trkpt lat="45.80653" lon="4.62431">
        <ele>429.95184</ele>
        <time>2023-05-14T12:46:08.000Z</time>
      </trkpt>
      <trkpt lat="45.80661" lon="4.62426">
        <ele>429.68671</ele>
        <time>2023-05-14T12:46:09.000Z</time>
      </trkpt>
      <trkpt lat="45.80668" lon="4.62419">
        <ele>429.40704</ele>
        <time>2023-05-14T12:46:10.000Z</time>
      </trkpt>
      <trkpt lat="45.80675" lon="4.62412">
        <ele>429.12704</ele>
        <time>2023-05-14T12:46:11.000Z</time>
      </trkpt>
      <trkpt lat="45.80681" lon="4.62406">
        <ele>427.98862</ele>
        <time>2023-05-14T12:46:12.000Z</time>
      </trkpt>
      <trkpt lat="45.80687" lon="4.624">
        <ele>426.81949</ele>
        <time>2023-05-14T12:46:13.000Z</time>
      </trkpt>
      <trkpt lat="45.80692" lon="4.62395">
        <ele>425.61578</ele>
        <time>2023-05-14T12:46:14.000Z</time>
      </trkpt>
      <trkpt lat="45.80696" lon="4.62391">
        <ele>424.36139</ele>
        <time>2023-05-14T12:46:15.000Z</time>
      </trkpt>
      <trkpt lat="45.80701" lon="4.62387">
        <ele>423.05551</ele>
        <time>2023-05-14T12:46:16.000Z</time>
      </trkpt>
      <trkpt lat="45.80704" lon="4.62384">
        <ele>423.33731</ele>
        <time>2023-05-14T12:46:17.000Z</time>
      </trkpt>
      <trkpt lat="45.80707" lon="4.62382">
        <ele>422.09335</ele>
        <time>2023-05-14T12:46:18.000Z</time>
      </trkpt>
      <trkpt lat="45.80709" lon="4.62381">
        <ele>420.86334</ele>
        <time>2023-05-14T12:46:19.000Z</time>
      </trkpt>
      <trkpt lat="45.80712" lon="4.62377">
        <ele>417.98022</ele>
        <time>2023-05-14T12:46:27.000Z</time>
      </trkpt>
      <trkpt lat="45.80715" lon="4.62374">
        <ele>415.70361</ele>
        <time>2023-05-14T12:46:28.000Z</time>
      </trkpt>
      <trkpt lat="45.80718" lon="4.62371">
        <ele>413.35028</ele>
        <time>2023-05-14T12:46:29.000Z</time>
      </trkpt>
      <trkpt lat="45.80721" lon="4.62367">
        <ele>411.6889</ele>
        <time>2023-05-14T12:46:30.000Z</time>
      </trkpt>
      <trkpt lat="45.80723" lon="4.62358">
        <ele>409.59659</ele>
        <time>2023-05-14T12:46:31.000Z</time>
      </trkpt>
      <trkpt lat="45.80723" lon="4.62349">
        <ele>407.49237</ele>
        <time>2023-05-14T12:46:32.000Z</time>
      </trkpt>
      <trkpt lat="45.80721" lon="4.6234">
        <ele>404.9899</ele>
        <time>2023-05-14T12:46:33.000Z</time>
      </trkpt>
      <trkpt lat="45.80717" lon="4.62331">
        <ele>403.01453</ele>
        <time>2023-05-14T12:46:34.000Z</time>
      </trkpt>
      <trkpt lat="45.80712" lon="4.62321">
        <ele>402.01398</ele>
        <time>2023-05-14T12:46:35.000Z</time>
      </trkpt>
      <trkpt lat="45.80709" lon="4.62312">
        <ele>400.89728</ele>
        <time>2023-05-14T12:46:36.000Z</time>
      </trkpt>
      <trkpt lat="45.80706" lon="4.62304">
        <ele>400.63495</ele>
        <time>2023-05-14T12:46:37.000Z</time>
      </trkpt>
      <trkpt lat="45.80704" lon="4.62295">
        <ele>400.38025</ele>
        <time>2023-05-14T12:46:38.000Z</time>
      </trkpt>
      <trkpt lat="45.80701" lon="4.62288">
        <ele>400.38776</ele>
        <time>2023-05-14T12:46:39.000Z</time>
      </trkpt>
      <trkpt lat="45.807" lon="4.62279">
        <ele>400.79196</ele>
        <time>2023-05-14T12:46:40.000Z</time>
      </trkpt>
      <trkpt lat="45.807" lon="4.6227">
        <ele>401.24496</ele>
        <time>2023-05-14T12:46:41.000Z</time>
      </trkpt>
      <trkpt lat="45.80702" lon="4.62262">
        <ele>401.72617</ele>
        <time>2023-05-14T12:46:42.000Z</time>
      </trkpt>
      <trkpt lat="45.80705" lon="4.62255">
        <ele>400.27704</ele>
        <time>2023-05-14T12:46:43.000Z</time>
      </trkpt>
      <trkpt lat="45.80709" lon="4.62249">
        <ele>398.8038</ele>
        <time>2023-05-14T12:46:44.000Z</time>
      </trkpt>
      <trkpt lat="45.80714" lon="4.62244">
        <ele>397.32446</ele>
        <time>2023-05-14T12:46:45.000Z</time>
      </trkpt>
      <trkpt lat="45.80719" lon="4.6224">
        <ele>396.71271</ele>
        <time>2023-05-14T12:46:46.000Z</time>
      </trkpt>
      <trkpt lat="45.80725" lon="4.62239">
        <ele>398.34753</ele>
        <time>2023-05-14T12:46:47.000Z</time>
      </trkpt>
      <trkpt lat="45.8073" lon="4.62238">
        <ele>399.55963</ele>
        <time>2023-05-14T12:46:48.000Z</time>
      </trkpt>
      <trkpt lat="45.80735" lon="4.62238">
        <ele>400.8638</ele>
        <time>2023-05-14T12:46:49.000Z</time>
      </trkpt>
      <trkpt lat="45.8074" lon="4.62238">
        <ele>402.18262</ele>
        <time>2023-05-14T12:46:50.000Z</time>
      </trkpt>
      <trkpt lat="45.80745" lon="4.62239">
        <ele>401.62958</ele>
        <time>2023-05-14T12:46:51.000Z</time>
      </trkpt>
      <trkpt lat="45.8075" lon="4.6224">
        <ele>401.11411</ele>
        <time>2023-05-14T12:46:52.000Z</time>
      </trkpt>
      <trkpt lat="45.80754" lon="4.62242">
        <ele>400.96075</ele>
        <time>2023-05-14T12:46:53.000Z</time>
      </trkpt>
      <trkpt lat="45.80758" lon="4.62244">
        <ele>400.09137</ele>
        <time>2023-05-14T12:46:54.000Z</time>
      </trkpt>
      <trkpt lat="45.80763" lon="4.62245">
        <ele>399.30933</ele>
        <time>2023-05-14T12:46:55.000Z</time>
      </trkpt>
      <trkpt lat="45.80768" lon="4.62248">
        <ele>398.67377</ele>
        <time>2023-05-14T12:46:56.000Z</time>
      </trkpt>
      <trkpt lat="45.80773" lon="4.62249">
        <ele>397.20679</ele>
        <time>2023-05-14T12:46:57.000Z</time>
      </trkpt>
      <trkpt lat="45.80778" lon="4.6225">
        <ele>395.77774</ele>
        <time>2023-05-14T12:46:58.000Z</time>
      </trkpt>
      <trkpt lat="45.80783" lon="4.62252">
        <ele>394.09814</ele>
        <time>2023-05-14T12:46:59.000Z</time>
      </trkpt>
      <trkpt lat="45.80787" lon="4.62255">
        <ele>392.02927</ele>
        <time>2023-05-14T12:47:00.000Z</time>
      </trkpt>
      <trkpt lat="45.80792" lon="4.62259">
        <ele>389.94379</ele>
        <time>2023-05-14T12:47:01.000Z</time>
      </trkpt>
      <trkpt lat="45.80795" lon="4.62264">
        <ele>387.84903</ele>
        <time>2023-05-14T12:47:02.000Z</time>
      </trkpt>
      <trkpt lat="45.80798" lon="4.6227">
        <ele>387.73029</ele>
        <time>2023-05-14T12:47:03.000Z</time>
      </trkpt>
      <trkpt lat="45.808" lon="4.62273">
        <ele>387.65384</ele>
        <time>2023-05-14T12:47:04.000Z</time>
      </trkpt>
      <trkpt lat="45.80801" lon="4.62277">
        <ele>387.59906</ele>
        <time>2023-05-14T12:47:05.000Z</time>
      </trkpt>
      <trkpt lat="45.80803" lon="4.6228">
        <ele>386.68448</ele>
        <time>2023-05-14T12:47:06.000Z</time>
      </trkpt>
      <trkpt lat="45.80805" lon="4.62283">
        <ele>384.75861</ele>
        <time>2023-05-14T12:47:07.000Z</time>
      </trkpt>
      <trkpt lat="45.80806" lon="4.62286">
        <ele>382.71692</ele>
        <time>2023-05-14T12:47:08.000Z</time>
      </trkpt>
      <trkpt lat="45.80807" lon="4.6229">
        <ele>380.68918</ele>
        <time>2023-05-14T12:47:09.000Z</time>
      </trkpt>
      <trkpt lat="45.80807" lon="4.62293">
        <ele>378.53745</ele>
        <time>2023-05-14T12:47:10.000Z</time>
      </trkpt>
      <trkpt lat="45.80808" lon="4.62297">
        <ele>378.33017</ele>
        <time>2023-05-14T12:47:11.000Z</time>
      </trkpt>
      <trkpt lat="45.8081" lon="4.623">
        <ele>378.4451</ele>
        <time>2023-05-14T12:47:12.000Z</time>
      </trkpt>
      <trkpt lat="45.8081" lon="4.62304">
        <ele>378.49396</ele>
        <time>2023-05-14T12:47:13.000Z</time>
      </trkpt>
      <trkpt lat="45.80811" lon="4.62308">
        <ele>378.53677</ele>
        <time>2023-05-14T12:47:14.000Z</time>
      </trkpt>
      <trkpt lat="45.80811" lon="4.62312">
        <ele>378.56342</ele>
        <time>2023-05-14T12:47:15.000Z</time>
      </trkpt>
      <trkpt lat="45.80811" lon="4.62317">
        <ele>378.59122</ele>
        <time>2023-05-14T12:47:16.000Z</time>
      </trkpt>
      <trkpt lat="45.80811" lon="4.62321">
        <ele>378.6395</ele>
        <time>2023-05-14T12:47:17.000Z</time>
      </trkpt>
      <trkpt lat="45.80811" lon="4.62325">
        <ele>378.66916</ele>
        <time>2023-05-14T12:47:18.000Z</time>
      </trkpt>
      <trkpt lat="45.80811" lon="4.6233">
        <ele>378.71585</ele>
        <time>2023-05-14T12:47:19.000Z</time>
      </trkpt>
      <trkpt lat="45.80811" lon="4.62335">
        <ele>378.77155</ele>
        <time>2023-05-14T12:47:20.000Z</time>
      </trkpt>
      <trkpt lat="45.80813" lon="4.62339">
        <ele>378.82977</ele>
        <time>2023-05-14T12:47:21.000Z</time>
      </trkpt>
      <trkpt lat="45.80814" lon="4.62344">
        <ele>378.93164</ele>
        <time>2023-05-14T12:47:22.000Z</time>
      </trkpt>
      <trkpt lat="45.80816" lon="4.62347">
        <ele>379.00845</ele>
        <time>2023-05-14T12:47:23.000Z</time>
      </trkpt>
      <trkpt lat="45.80818" lon="4.6235">
        <ele>379.08163</ele>
        <time>2023-05-14T12:47:24.000Z</time>
      </trkpt>
      <trkpt lat="45.80821" lon="4.62353">
        <ele>379.16571</ele>
        <time>2023-05-14T12:47:25.000Z</time>
      </trkpt>
      <trkpt lat="45.80824" lon="4.62355">
        <ele>379.27551</ele>
        <time>2023-05-14T12:47:26.000Z</time>
      </trkpt>
      <trkpt lat="45.80827" lon="4.62355">
        <ele>379.36246</ele>
        <time>2023-05-14T12:47:27.000Z</time>
      </trkpt>
      <trkpt lat="45.80831" lon="4.62354">
        <ele>380.0289</ele>
        <time>2023-05-14T12:47:28.000Z</time>
      </trkpt>
      <trkpt lat="45.80835" lon="4.62352">
        <ele>380.68198</ele>
        <time>2023-05-14T12:47:29.000Z</time>
      </trkpt>
      <trkpt lat="45.80839" lon="4.6235">
        <ele>381.44733</ele>
        <time>2023-05-14T12:47:30.000Z</time>
      </trkpt>
      <trkpt lat="45.80843" lon="4.62348">
        <ele>382.13727</ele>
        <time>2023-05-14T12:47:31.000Z</time>
      </trkpt>
      <trkpt lat="45.80847" lon="4.62345">
        <ele>382.62225</ele>
        <time>2023-05-14T12:47:32.000Z</time>
      </trkpt>
      <trkpt lat="45.80851" lon="4.62343">
        <ele>382.68408</ele>
        <time>2023-05-14T12:47:33.000Z</time>
      </trkpt>
      <trkpt lat="45.80854" lon="4.62342">
        <ele>382.75156</ele>
        <time>2023-05-14T12:47:34.000Z</time>
      </trkpt>
      <trkpt lat="45.80858" lon="4.62341">
        <ele>382.82013</ele>
        <time>2023-05-14T12:47:35.000Z</time>
      </trkpt>
      <trkpt lat="45.80862" lon="4.6234">
        <ele>382.8497</ele>
        <time>2023-05-14T12:47:36.000Z</time>
      </trkpt>
      <trkpt lat="45.80865" lon="4.6234">
        <ele>382.86288</ele>
        <time>2023-05-14T12:47:37.000Z</time>
      </trkpt>
      <trkpt lat="45.80868" lon="4.62341">
        <ele>382.87833</ele>
        <time>2023-05-14T12:47:38.000Z</time>
      </trkpt>
      <trkpt lat="45.80871" lon="4.62342">
        <ele>382.8877</ele>
        <time>2023-05-14T12:47:39.000Z</time>
      </trkpt>
      <trkpt lat="45.80875" lon="4.62344">
        <ele>382.8923</ele>
        <time>2023-05-14T12:47:40.000Z</time>
      </trkpt>
      <trkpt lat="45.80878" lon="4.62345">
        <ele>382.88641</ele>
        <time>2023-05-14T12:47:41.000Z</time>
      </trkpt>
      <trkpt lat="45.80881" lon="4.62346">
        <ele>382.84833</ele>
        <time>2023-05-14T12:47:42.000Z</time>
      </trkpt>
      <trkpt lat="45.80884" lon="4.62348">
        <ele>382.8302</ele>
        <time>2023-05-14T12:47:43.000Z</time>
      </trkpt>
      <trkpt lat="45.80887" lon="4.6235">
        <ele>382.80545</ele>
        <time>2023-05-14T12:47:44.000Z</time>
      </trkpt>
      <trkpt lat="45.80889" lon="4.62352">
        <ele>382.78085</ele>
        <time>2023-05-14T12:47:45.000Z</time>
      </trkpt>
      <trkpt lat="45.80892" lon="4.62354">
        <ele>382.72998</ele>
        <time>2023-05-14T12:47:46.000Z</time>
      </trkpt>
      <trkpt lat="45.80895" lon="4.62356">
        <ele>382.67859</ele>
        <time>2023-05-14T12:47:47.000Z</time>
      </trkpt>
      <trkpt lat="45.80898" lon="4.62359">
        <ele>381.95197</ele>
        <time>2023-05-14T12:47:48.000Z</time>
      </trkpt>
      <trkpt lat="45.80901" lon="4.62363">
        <ele>382.08145</ele>
        <time>2023-05-14T12:47:49.000Z</time>
      </trkpt>
      <trkpt lat="45.80904" lon="4.62365">
        <ele>382.20676</ele>
        <time>2023-05-14T12:47:50.000Z</time>
      </trkpt>
      <trkpt lat="45.80907" lon="4.62368">
        <ele>381.79697</ele>
        <time>2023-05-14T12:47:51.000Z</time>
      </trkpt>
      <trkpt lat="45.8091" lon="4.6237">
        <ele>381.28027</ele>
        <time>2023-05-14T12:47:52.000Z</time>
      </trkpt>
      <trkpt lat="45.80914" lon="4.62372">
        <ele>381.22076</ele>
        <time>2023-05-14T12:47:53.000Z</time>
      </trkpt>
      <trkpt lat="45.80917" lon="4.62374">
        <ele>381.17096</ele>
        <time>2023-05-14T12:47:54.000Z</time>
      </trkpt>
      <trkpt lat="45.8092" lon="4.62377">
        <ele>381.11954</ele>
        <time>2023-05-14T12:47:55.000Z</time>
      </trkpt>
      <trkpt lat="45.80924" lon="4.6238">
        <ele>381.11517</ele>
        <time>2023-05-14T12:47:56.000Z</time>
      </trkpt>
      <trkpt lat="45.80928" lon="4.62383">
        <ele>381.12549</ele>
        <time>2023-05-14T12:47:57.000Z</time>
      </trkpt>
      <trkpt lat="45.80932" lon="4.62385">
        <ele>381.1503</ele>
        <time>2023-05-14T12:47:58.000Z</time>
      </trkpt>
      <trkpt lat="45.80935" lon="4.62386">
        <ele>381.2103</ele>
        <time>2023-05-14T12:47:59.000Z</time>
      </trkpt>
      <trkpt lat="45.80939" lon="4.62389">
        <ele>381.27875</ele>
        <time>2023-05-14T12:48:00.000Z</time>
      </trkpt>
      <trkpt lat="45.80942" lon="4.6239">
        <ele>381.19128</ele>
        <time>2023-05-14T12:48:01.000Z</time>
      </trkpt>
      <trkpt lat="45.80945" lon="4.62393">
        <ele>380.98679</ele>
        <time>2023-05-14T12:48:02.000Z</time>
      </trkpt>
      <trkpt lat="45.80948" lon="4.62394">
        <ele>380.80765</ele>
        <time>2023-05-14T12:48:03.000Z</time>
      </trkpt>
      <trkpt lat="45.80951" lon="4.62396">
        <ele>380.63544</ele>
        <time>2023-05-14T12:48:04.000Z</time>
      </trkpt>
      <trkpt lat="45.80955" lon="4.62399">
        <ele>380.82858</ele>
        <time>2023-05-14T12:48:05.000Z</time>
      </trkpt>
      <trkpt lat="45.80958" lon="4.62402">
        <ele>380.94794</ele>
        <time>2023-05-14T12:48:06.000Z</time>
      </trkpt>
      <trkpt lat="45.80961" lon="4.62404">
        <ele>381.07196</ele>
        <time>2023-05-14T12:48:07.000Z</time>
      </trkpt>
      <trkpt lat="45.80965" lon="4.62405">
        <ele>381.46088</ele>
        <time>2023-05-14T12:48:08.000Z</time>
      </trkpt>
      <trkpt lat="45.80969" lon="4.62406">
        <ele>381.92313</ele>
        <time>2023-05-14T12:48:09.000Z</time>
      </trkpt>
      <trkpt lat="45.80972" lon="4.62408">
        <ele>382.40094</ele>
        <time>2023-05-14T12:48:10.000Z</time>
      </trkpt>
      <trkpt lat="45.80975" lon="4.6241">
        <ele>382.59067</ele>
        <time>2023-05-14T12:48:11.000Z</time>
      </trkpt>
      <trkpt lat="45.80978" lon="4.62413">
        <ele>382.74371</ele>
        <time>2023-05-14T12:48:12.000Z</time>
      </trkpt>
      <trkpt lat="45.8098" lon="4.62415">
        <ele>382.94452</ele>
        <time>2023-05-14T12:48:13.000Z</time>
      </trkpt>
      <trkpt lat="45.80983" lon="4.62418">
        <ele>383.12473</ele>
        <time>2023-05-14T12:48:14.000Z</time>
      </trkpt>
      <trkpt lat="45.80986" lon="4.6242">
        <ele>383.31726</ele>
        <time>2023-05-14T12:48:15.000Z</time>
      </trkpt>
      <trkpt lat="45.80989" lon="4.62422">
        <ele>383.48996</ele>
        <time>2023-05-14T12:48:16.000Z</time>
      </trkpt>
      <trkpt lat="45.80992" lon="4.62424">
        <ele>383.66901</ele>
        <time>2023-05-14T12:48:17.000Z</time>
      </trkpt>
      <trkpt lat="45.80995" lon="4.62426">
        <ele>383.85684</ele>
        <time>2023-05-14T12:48:18.000Z</time>
      </trkpt>
      <trkpt lat="45.80998" lon="4.62429">
        <ele>383.99692</ele>
        <time>2023-05-14T12:48:19.000Z</time>
      </trkpt>
      <trkpt lat="45.81001" lon="4.62431">
        <ele>384.13843</ele>
        <time>2023-05-14T12:48:20.000Z</time>
      </trkpt>
      <trkpt lat="45.81005" lon="4.62433">
        <ele>384.40149</ele>
        <time>2023-05-14T12:48:21.000Z</time>
      </trkpt>
      <trkpt lat="45.81008" lon="4.62435">
        <ele>384.79358</ele>
        <time>2023-05-14T12:48:22.000Z</time>
      </trkpt>
      <trkpt lat="45.81011" lon="4.62437">
        <ele>385.17999</ele>
        <time>2023-05-14T12:48:23.000Z</time>
      </trkpt>
      <trkpt lat="45.81014" lon="4.62438">
        <ele>385.54669</ele>
        <time>2023-05-14T12:48:24.000Z</time>
      </trkpt>
      <trkpt lat="45.81017" lon="4.62439">
        <ele>385.56281</ele>
        <time>2023-05-14T12:48:25.000Z</time>
      </trkpt>
      <trkpt lat="45.8102" lon="4.62441">
        <ele>385.52042</ele>
        <time>2023-05-14T12:48:26.000Z</time>
      </trkpt>
      <trkpt lat="45.81024" lon="4.62442">
        <ele>385.38208</ele>
        <time>2023-05-14T12:48:27.000Z</time>
      </trkpt>
      <trkpt lat="45.81027" lon="4.62442">
        <ele>385.20459</ele>
        <time>2023-05-14T12:48:28.000Z</time>
      </trkpt>
      <trkpt lat="45.81031" lon="4.62443">
        <ele>384.52829</ele>
        <time>2023-05-14T12:48:29.000Z</time>
      </trkpt>
      <trkpt lat="45.81034" lon="4.62443">
        <ele>383.74817</ele>
        <time>2023-05-14T12:48:30.000Z</time>
      </trkpt>
      <trkpt lat="45.81038" lon="4.62444">
        <ele>383.88895</ele>
        <time>2023-05-14T12:48:31.000Z</time>
      </trkpt>
      <trkpt lat="45.81041" lon="4.62444">
        <ele>384.0621</ele>
        <time>2023-05-14T12:48:32.000Z</time>
      </trkpt>
      <trkpt lat="45.81044" lon="4.62445">
        <ele>384.20609</ele>
        <time>2023-05-14T12:48:33.000Z</time>
      </trkpt>
      <trkpt lat="45.81047" lon="4.62445">
        <ele>384.36734</ele>
        <time>2023-05-14T12:48:34.000Z</time>
      </trkpt>
      <trkpt lat="45.8105" lon="4.62446">
        <ele>384.37958</ele>
        <time>2023-05-14T12:48:35.000Z</time>
      </trkpt>
      <trkpt lat="45.81053" lon="4.62447">
        <ele>384.3992</ele>
        <time>2023-05-14T12:48:36.000Z</time>
      </trkpt>
      <trkpt lat="45.81056" lon="4.62448">
        <ele>384.40799</ele>
        <time>2023-05-14T12:48:37.000Z</time>
      </trkpt>
      <trkpt lat="45.81059" lon="4.62449">
        <ele>384.40585</ele>
        <time>2023-05-14T12:48:38.000Z</time>
      </trkpt>
      <trkpt lat="45.81061" lon="4.62449">
        <ele>384.41614</ele>
        <time>2023-05-14T12:48:39.000Z</time>
      </trkpt>
      <trkpt lat="45.81064" lon="4.6245">
        <ele>384.67352</ele>
        <time>2023-05-14T12:48:40.000Z</time>
      </trkpt>
      <trkpt lat="45.81066" lon="4.62449">
        <ele>384.99396</ele>
        <time>2023-05-14T12:48:41.000Z</time>
      </trkpt>
      <trkpt lat="45.81069" lon="4.62448">
        <ele>385.32501</ele>
        <time>2023-05-14T12:48:42.000Z</time>
      </trkpt>
      <trkpt lat="45.81072" lon="4.62447">
        <ele>385.67194</ele>
        <time>2023-05-14T12:48:43.000Z</time>
      </trkpt>
      <trkpt lat="45.81075" lon="4.62445">
        <ele>386.05032</ele>
        <time>2023-05-14T12:48:44.000Z</time>
      </trkpt>
      <trkpt lat="45.81078" lon="4.62443">
        <ele>386.392</ele>
        <time>2023-05-14T12:48:45.000Z</time>
      </trkpt>
      <trkpt lat="45.81081" lon="4.62442">
        <ele>386.90201</ele>
        <time>2023-05-14T12:48:46.000Z</time>
      </trkpt>
      <trkpt lat="45.81084" lon="4.62441">
        <ele>387.50415</ele>
        <time>2023-05-14T12:48:47.000Z</time>
      </trkpt>
      <trkpt lat="45.81088" lon="4.6244">
        <ele>388.07407</ele>
        <time>2023-05-14T12:48:48.000Z</time>
      </trkpt>
      <trkpt lat="45.81091" lon="4.6244">
        <ele>388.22086</ele>
        <time>2023-05-14T12:48:49.000Z</time>
      </trkpt>
      <trkpt lat="45.81094" lon="4.62439">
        <ele>388.5108</ele>
        <time>2023-05-14T12:48:50.000Z</time>
      </trkpt>
      <trkpt lat="45.81096" lon="4.62439">
        <ele>388.70984</ele>
        <time>2023-05-14T12:48:51.000Z</time>
      </trkpt>
      <trkpt lat="45.81099" lon="4.62438">
        <ele>388.88446</ele>
        <time>2023-05-14T12:48:52.000Z</time>
      </trkpt>
      <trkpt lat="45.81102" lon="4.62438">
        <ele>389.06769</ele>
        <time>2023-05-14T12:48:53.000Z</time>
      </trkpt>
      <trkpt lat="45.81105" lon="4.62438">
        <ele>389.00186</ele>
        <time>2023-05-14T12:48:54.000Z</time>
      </trkpt>
      <trkpt lat="45.81108" lon="4.62438">
        <ele>389.07562</ele>
        <time>2023-05-14T12:48:55.000Z</time>
      </trkpt>
      <trkpt lat="45.81111" lon="4.62438">
        <ele>389.14224</ele>
        <time>2023-05-14T12:48:56.000Z</time>
      </trkpt>
      <trkpt lat="45.81114" lon="4.62438">
        <ele>389.18805</ele>
        <time>2023-05-14T12:48:57.000Z</time>
      </trkpt>
      <trkpt lat="45.81117" lon="4.62438">
        <ele>389.18204</ele>
        <time>2023-05-14T12:48:58.000Z</time>
      </trkpt>
      <trkpt lat="45.81121" lon="4.62438">
        <ele>389.16785</ele>
        <time>2023-05-14T12:48:59.000Z</time>
      </trkpt>
      <trkpt lat="45.81124" lon="4.62438">
        <ele>389.34735</ele>
        <time>2023-05-14T12:49:00.000Z</time>
      </trkpt>
      <trkpt lat="45.81127" lon="4.62439">
        <ele>389.41681</ele>
        <time>2023-05-14T12:49:01.000Z</time>
      </trkpt>
      <trkpt lat="45.81131" lon="4.62439">
        <ele>389.46973</ele>
        <time>2023-05-14T12:49:02.000Z</time>
      </trkpt>
      <trkpt lat="45.81134" lon="4.62439">
        <ele>389.43463</ele>
        <time>2023-05-14T12:49:03.000Z</time>
      </trkpt>
      <trkpt lat="45.81138" lon="4.6244">
        <ele>389.37531</ele>
        <time>2023-05-14T12:49:04.000Z</time>
      </trkpt>
      <trkpt lat="45.81141" lon="4.62441">
        <ele>389.34528</ele>
        <time>2023-05-14T12:49:05.000Z</time>
      </trkpt>
      <trkpt lat="45.81144" lon="4.62442">
        <ele>388.98218</ele>
        <time>2023-05-14T12:49:06.000Z</time>
      </trkpt>
      <trkpt lat="45.81148" lon="4.62442">
        <ele>388.59958</ele>
        <time>2023-05-14T12:49:07.000Z</time>
      </trkpt>
      <trkpt lat="45.81152" lon="4.62443">
        <ele>388.25754</ele>
        <time>2023-05-14T12:49:08.000Z</time>
      </trkpt>
      <trkpt lat="45.81156" lon="4.62444">
        <ele>387.86969</ele>
        <time>2023-05-14T12:49:09.000Z</time>
      </trkpt>
      <trkpt lat="45.8116" lon="4.62445">
        <ele>387.44452</ele>
        <time>2023-05-14T12:49:10.000Z</time>
      </trkpt>
      <trkpt lat="45.81164" lon="4.62446">
        <ele>387.47729</ele>
        <time>2023-05-14T12:49:11.000Z</time>
      </trkpt>
      <trkpt lat="45.81168" lon="4.62447">
        <ele>387.46271</ele>
        <time>2023-05-14T12:49:12.000Z</time>
      </trkpt>
      <trkpt lat="45.81172" lon="4.62449">
        <ele>387.42526</ele>
        <time>2023-05-14T12:49:13.000Z</time>
      </trkpt>
      <trkpt lat="45.81176" lon="4.6245">
        <ele>387.62823</ele>
        <time>2023-05-14T12:49:14.000Z</time>
      </trkpt>
      <trkpt lat="45.8118" lon="4.62453">
        <ele>387.823</ele>
        <time>2023-05-14T12:49:15.000Z</time>
      </trkpt>
      <trkpt lat="45.81185" lon="4.62455">
        <ele>388.02539</ele>
        <time>2023-05-14T12:49:16.000Z</time>
      </trkpt>
      <trkpt lat="45.81189" lon="4.6246">
        <ele>388.25748</ele>
        <time>2023-05-14T12:49:17.000Z</time>
      </trkpt>
      <trkpt lat="45.81193" lon="4.62463">
        <ele>388.52899</ele>
        <time>2023-05-14T12:49:18.000Z</time>
      </trkpt>
      <trkpt lat="45.81197" lon="4.62467">
        <ele>388.82452</ele>
        <time>2023-05-14T12:49:19.000Z</time>
      </trkpt>
      <trkpt lat="45.81201" lon="4.62471">
        <ele>388.64496</ele>
        <time>2023-05-14T12:49:20.000Z</time>
      </trkpt>
      <trkpt lat="45.81205" lon="4.62474">
        <ele>388.55942</ele>
        <time>2023-05-14T12:49:21.000Z</time>
      </trkpt>
      <trkpt lat="45.8121" lon="4.62478">
        <ele>388.46588</ele>
        <time>2023-05-14T12:49:22.000Z</time>
      </trkpt>
      <trkpt lat="45.81214" lon="4.62481">
        <ele>388.40594</ele>
        <time>2023-05-14T12:49:23.000Z</time>
      </trkpt>
      <trkpt lat="45.81218" lon="4.62485">
        <ele>388.15167</ele>
        <time>2023-05-14T12:49:24.000Z</time>
      </trkpt>
      <trkpt lat="45.81222" lon="4.62488">
        <ele>387.86932</ele>
        <time>2023-05-14T12:49:25.000Z</time>
      </trkpt>
      <trkpt lat="45.81227" lon="4.62491">
        <ele>387.87787</ele>
        <time>2023-05-14T12:49:26.000Z</time>
      </trkpt>
      <trkpt lat="45.81233" lon="4.62494">
        <ele>387.75574</ele>
        <time>2023-05-14T12:49:27.000Z</time>
      </trkpt>
      <trkpt lat="45.81238" lon="4.62497">
        <ele>387.97568</ele>
        <time>2023-05-14T12:49:28.000Z</time>
      </trkpt>
      <trkpt lat="45.81243" lon="4.62502">
        <ele>388.15033</ele>
        <time>2023-05-14T12:49:29.000Z</time>
      </trkpt>
      <trkpt lat="45.81248" lon="4.62508">
        <ele>388.28433</ele>
        <time>2023-05-14T12:49:30.000Z</time>
      </trkpt>
      <trkpt lat="45.8125" lon="4.62514">
        <ele>387.94818</ele>
        <time>2023-05-14T12:49:31.000Z</time>
      </trkpt>
      <trkpt lat="45.81254" lon="4.6252">
        <ele>387.65875</ele>
        <time>2023-05-14T12:49:32.000Z</time>
      </trkpt>
      <trkpt lat="45.81259" lon="4.62528">
        <ele>387.32428</ele>
        <time>2023-05-14T12:49:33.000Z</time>
      </trkpt>
      <trkpt lat="45.81264" lon="4.62535">
        <ele>387.00299</ele>
        <time>2023-05-14T12:49:34.000Z</time>
      </trkpt>
      <trkpt lat="45.81269" lon="4.62542">
        <ele>386.67999</ele>
        <time>2023-05-14T12:49:35.000Z</time>
      </trkpt>
      <trkpt lat="45.81275" lon="4.62549">
        <ele>386.16446</ele>
        <time>2023-05-14T12:49:36.000Z</time>
      </trkpt>
      <trkpt lat="45.8128" lon="4.62557">
        <ele>385.6268</ele>
        <time>2023-05-14T12:49:37.000Z</time>
      </trkpt>
      <trkpt lat="45.81285" lon="4.62566">
        <ele>385.08417</ele>
        <time>2023-05-14T12:49:38.000Z</time>
      </trkpt>
      <trkpt lat="45.81289" lon="4.62574">
        <ele>384.49677</ele>
        <time>2023-05-14T12:49:39.000Z</time>
      </trkpt>
      <trkpt lat="45.81292" lon="4.62581">
        <ele>383.95831</ele>
        <time>2023-05-14T12:49:40.000Z</time>
      </trkpt>
      <trkpt lat="45.81295" lon="4.62588">
        <ele>383.38898</ele>
        <time>2023-05-14T12:49:41.000Z</time>
      </trkpt>
      <trkpt lat="45.81298" lon="4.62594">
        <ele>382.84381</ele>
        <time>2023-05-14T12:49:42.000Z</time>
      </trkpt>
      <trkpt lat="45.81301" lon="4.62601">
        <ele>382.32806</ele>
        <time>2023-05-14T12:49:43.000Z</time>
      </trkpt>
      <trkpt lat="45.81304" lon="4.62606">
        <ele>382.04007</ele>
        <time>2023-05-14T12:49:44.000Z</time>
      </trkpt>
      <trkpt lat="45.81306" lon="4.62612">
        <ele>381.75714</ele>
        <time>2023-05-14T12:49:45.000Z</time>
      </trkpt>
      <trkpt lat="45.81309" lon="4.62616">
        <ele>381.51868</ele>
        <time>2023-05-14T12:49:46.000Z</time>
      </trkpt>
      <trkpt lat="45.81311" lon="4.62622">
        <ele>381.43045</ele>
        <time>2023-05-14T12:49:47.000Z</time>
      </trkpt>
      <trkpt lat="45.81312" lon="4.62627">
        <ele>381.0141</ele>
        <time>2023-05-14T12:49:48.000Z</time>
      </trkpt>
      <trkpt lat="45.81314" lon="4.62632">
        <ele>380.71295</ele>
        <time>2023-05-14T12:49:49.000Z</time>
      </trkpt>
      <trkpt lat="45.81316" lon="4.62638">
        <ele>380.46234</ele>
        <time>2023-05-14T12:49:50.000Z</time>
      </trkpt>
      <trkpt lat="45.81318" lon="4.62642">
        <ele>380.15668</ele>
        <time>2023-05-14T12:49:51.000Z</time>
      </trkpt>
      <trkpt lat="45.81321" lon="4.62646">
        <ele>380.24161</ele>
        <time>2023-05-14T12:49:52.000Z</time>
      </trkpt>
      <trkpt lat="45.81323" lon="4.6265">
        <ele>380.34717</ele>
        <time>2023-05-14T12:49:53.000Z</time>
      </trkpt>
      <trkpt lat="45.81326" lon="4.62654">
        <ele>380.46732</ele>
        <time>2023-05-14T12:49:54.000Z</time>
      </trkpt>
      <trkpt lat="45.81327" lon="4.62658">
        <ele>380.60394</ele>
        <time>2023-05-14T12:49:55.000Z</time>
      </trkpt>
      <trkpt lat="45.8133" lon="4.62662">
        <ele>380.91544</ele>
        <time>2023-05-14T12:49:56.000Z</time>
      </trkpt>
      <trkpt lat="45.81332" lon="4.62667">
        <ele>381.23389</ele>
        <time>2023-05-14T12:49:57.000Z</time>
      </trkpt>
      <trkpt lat="45.81335" lon="4.62671">
        <ele>381.60654</ele>
        <time>2023-05-14T12:49:58.000Z</time>
      </trkpt>
      <trkpt lat="45.81339" lon="4.62675">
        <ele>382.01886</ele>
        <time>2023-05-14T12:49:59.000Z</time>
      </trkpt>
      <trkpt lat="45.81342" lon="4.62679">
        <ele>382.43454</ele>
        <time>2023-05-14T12:50:00.000Z</time>
      </trkpt>
      <trkpt lat="45.81344" lon="4.62684">
        <ele>382.71606</ele>
        <time>2023-05-14T12:50:01.000Z</time>
      </trkpt>
      <trkpt lat="45.81347" lon="4.62688">
        <ele>382.98636</ele>
        <time>2023-05-14T12:50:02.000Z</time>
      </trkpt>
      <trkpt lat="45.81352" lon="4.62694">
        <ele>383.24799</ele>
        <time>2023-05-14T12:50:03.000Z</time>
      </trkpt>
      <trkpt lat="45.81355" lon="4.62699">
        <ele>383.49652</ele>
        <time>2023-05-14T12:50:04.000Z</time>
      </trkpt>
      <trkpt lat="45.81359" lon="4.62704">
        <ele>383.75403</ele>
        <time>2023-05-14T12:50:05.000Z</time>
      </trkpt>
      <trkpt lat="45.81362" lon="4.6271">
        <ele>383.9787</ele>
        <time>2023-05-14T12:50:06.000Z</time>
      </trkpt>
      <trkpt lat="45.81366" lon="4.62716">
        <ele>384.20932</ele>
        <time>2023-05-14T12:50:07.000Z</time>
      </trkpt>
      <trkpt lat="45.81369" lon="4.6272">
        <ele>384.43466</ele>
        <time>2023-05-14T12:50:08.000Z</time>
      </trkpt>
      <trkpt lat="45.81371" lon="4.62725">
        <ele>384.52109</ele>
        <time>2023-05-14T12:50:09.000Z</time>
      </trkpt>
      <trkpt lat="45.81374" lon="4.6273">
        <ele>384.59674</ele>
        <time>2023-05-14T12:50:10.000Z</time>
      </trkpt>
      <trkpt lat="45.81376" lon="4.62734">
        <ele>384.7963</ele>
        <time>2023-05-14T12:50:11.000Z</time>
      </trkpt>
      <trkpt lat="45.81377" lon="4.62737">
        <ele>385.04489</ele>
        <time>2023-05-14T12:50:12.000Z</time>
      </trkpt>
      <trkpt lat="45.81378" lon="4.62739">
        <ele>385.27692</ele>
        <time>2023-05-14T12:50:13.000Z</time>
      </trkpt>
      <trkpt lat="45.8138" lon="4.62741">
        <ele>385.46872</ele>
        <time>2023-05-14T12:50:14.000Z</time>
      </trkpt>
      <trkpt lat="45.81382" lon="4.62744">
        <ele>385.58408</ele>
        <time>2023-05-14T12:50:16.000Z</time>
      </trkpt>
      <trkpt lat="45.81384" lon="4.62748">
        <ele>385.69473</ele>
        <time>2023-05-14T12:50:18.000Z</time>
      </trkpt>
      <trkpt lat="45.81386" lon="4.6275">
        <ele>385.81</ele>
        <time>2023-05-14T12:50:19.000Z</time>
      </trkpt>
      <trkpt lat="45.81389" lon="4.62752">
        <ele>385.86426</ele>
        <time>2023-05-14T12:50:20.000Z</time>
      </trkpt>
      <trkpt lat="45.81392" lon="4.62756">
        <ele>385.90662</ele>
        <time>2023-05-14T12:50:21.000Z</time>
      </trkpt>
      <trkpt lat="45.81396" lon="4.62759">
        <ele>385.91296</ele>
        <time>2023-05-14T12:50:22.000Z</time>
      </trkpt>
      <trkpt lat="45.81401" lon="4.62762">
        <ele>386.05869</ele>
        <time>2023-05-14T12:50:23.000Z</time>
      </trkpt>
      <trkpt lat="45.81404" lon="4.62765">
        <ele>386.17828</ele>
        <time>2023-05-14T12:50:24.000Z</time>
      </trkpt>
      <trkpt lat="45.81407" lon="4.6277">
        <ele>386.27496</ele>
        <time>2023-05-14T12:50:25.000Z</time>
      </trkpt>
      <trkpt lat="45.8141" lon="4.62776">
        <ele>386.36133</ele>
        <time>2023-05-14T12:50:26.000Z</time>
      </trkpt>
      <trkpt lat="45.81412" lon="4.62782">
        <ele>386.44217</ele>
        <time>2023-05-14T12:50:27.000Z</time>
      </trkpt>
      <trkpt lat="45.81414" lon="4.62787">
        <ele>386.50616</ele>
        <time>2023-05-14T12:50:28.000Z</time>
      </trkpt>
      <trkpt lat="45.81416" lon="4.62792">
        <ele>386.55356</ele>
        <time>2023-05-14T12:50:29.000Z</time>
      </trkpt>
      <trkpt lat="45.81419" lon="4.62796">
        <ele>386.60013</ele>
        <time>2023-05-14T12:50:30.000Z</time>
      </trkpt>
      <trkpt lat="45.81421" lon="4.628">
        <ele>386.78375</ele>
        <time>2023-05-14T12:50:31.000Z</time>
      </trkpt>
      <trkpt lat="45.81425" lon="4.62804">
        <ele>386.98843</ele>
        <time>2023-05-14T12:50:32.000Z</time>
      </trkpt>
      <trkpt lat="45.81428" lon="4.62808">
        <ele>387.17609</ele>
        <time>2023-05-14T12:50:33.000Z</time>
      </trkpt>
      <trkpt lat="45.81432" lon="4.62811">
        <ele>386.93835</ele>
        <time>2023-05-14T12:50:34.000Z</time>
      </trkpt>
      <trkpt lat="45.81436" lon="4.62813">
        <ele>386.72446</ele>
        <time>2023-05-14T12:50:35.000Z</time>
      </trkpt>
      <trkpt lat="45.8144" lon="4.62816">
        <ele>386.5206</ele>
        <time>2023-05-14T12:50:36.000Z</time>
      </trkpt>
      <trkpt lat="45.81443" lon="4.62819">
        <ele>386.38855</ele>
        <time>2023-05-14T12:50:37.000Z</time>
      </trkpt>
      <trkpt lat="45.81447" lon="4.62821">
        <ele>386.26764</ele>
        <time>2023-05-14T12:50:38.000Z</time>
      </trkpt>
      <trkpt lat="45.8145" lon="4.62824">
        <ele>386.17996</ele>
        <time>2023-05-14T12:50:39.000Z</time>
      </trkpt>
      <trkpt lat="45.81454" lon="4.62826">
        <ele>385.86725</ele>
        <time>2023-05-14T12:50:40.000Z</time>
      </trkpt>
      <trkpt lat="45.81458" lon="4.62829">
        <ele>385.50156</ele>
        <time>2023-05-14T12:50:41.000Z</time>
      </trkpt>
      <trkpt lat="45.81462" lon="4.62831">
        <ele>385.54059</ele>
        <time>2023-05-14T12:50:42.000Z</time>
      </trkpt>
      <trkpt lat="45.81466" lon="4.62833">
        <ele>385.52295</ele>
        <time>2023-05-14T12:50:43.000Z</time>
      </trkpt>
      <trkpt lat="45.8147" lon="4.62835">
        <ele>385.50482</ele>
        <time>2023-05-14T12:50:44.000Z</time>
      </trkpt>
      <trkpt lat="45.81473" lon="4.62837">
        <ele>385.48038</ele>
        <time>2023-05-14T12:50:45.000Z</time>
      </trkpt>
      <trkpt lat="45.81477" lon="4.62839">
        <ele>385.26822</ele>
        <time>2023-05-14T12:50:46.000Z</time>
      </trkpt>
      <trkpt lat="45.81481" lon="4.62841">
        <ele>384.96677</ele>
        <time>2023-05-14T12:50:47.000Z</time>
      </trkpt>
      <trkpt lat="45.81485" lon="4.62843">
        <ele>384.6673</ele>
        <time>2023-05-14T12:50:48.000Z</time>
      </trkpt>
      <trkpt lat="45.81489" lon="4.62846">
        <ele>384.31851</ele>
        <time>2023-05-14T12:50:49.000Z</time>
      </trkpt>
      <trkpt lat="45.81493" lon="4.62849">
        <ele>383.92447</ele>
        <time>2023-05-14T12:50:50.000Z</time>
      </trkpt>
      <trkpt lat="45.81496" lon="4.62853">
        <ele>383.93698</ele>
        <time>2023-05-14T12:50:51.000Z</time>
      </trkpt>
      <trkpt lat="45.81499" lon="4.62856">
        <ele>383.85681</ele>
        <time>2023-05-14T12:50:52.000Z</time>
      </trkpt>
      <trkpt lat="45.81503" lon="4.62859">
        <ele>383.80829</ele>
        <time>2023-05-14T12:50:53.000Z</time>
      </trkpt>
      <trkpt lat="45.81506" lon="4.62862">
        <ele>383.80283</ele>
        <time>2023-05-14T12:50:54.000Z</time>
      </trkpt>
      <trkpt lat="45.81509" lon="4.62866">
        <ele>383.83493</ele>
        <time>2023-05-14T12:50:55.000Z</time>
      </trkpt>
      <trkpt lat="45.81512" lon="4.62869">
        <ele>383.87408</ele>
        <time>2023-05-14T12:50:56.000Z</time>
      </trkpt>
      <trkpt lat="45.81515" lon="4.62873">
        <ele>383.90326</ele>
        <time>2023-05-14T12:50:57.000Z</time>
      </trkpt>
      <trkpt lat="45.81519" lon="4.62877">
        <ele>383.94049</ele>
        <time>2023-05-14T12:50:58.000Z</time>
      </trkpt>
      <trkpt lat="45.81522" lon="4.62881">
        <ele>383.9201</ele>
        <time>2023-05-14T12:50:59.000Z</time>
      </trkpt>
      <trkpt lat="45.81525" lon="4.62885">
        <ele>384.1781</ele>
        <time>2023-05-14T12:51:00.000Z</time>
      </trkpt>
      <trkpt lat="45.81529" lon="4.62888">
        <ele>384.63629</ele>
        <time>2023-05-14T12:51:01.000Z</time>
      </trkpt>
      <trkpt lat="45.81532" lon="4.62892">
        <ele>384.39642</ele>
        <time>2023-05-14T12:51:02.000Z</time>
      </trkpt>
      <trkpt lat="45.81535" lon="4.62895">
        <ele>384.22491</ele>
        <time>2023-05-14T12:51:03.000Z</time>
      </trkpt>
      <trkpt lat="45.81539" lon="4.62899">
        <ele>384.08307</ele>
        <time>2023-05-14T12:51:04.000Z</time>
      </trkpt>
      <trkpt lat="45.81542" lon="4.62902">
        <ele>383.97754</ele>
        <time>2023-05-14T12:51:05.000Z</time>
      </trkpt>
      <trkpt lat="45.81546" lon="4.62906">
        <ele>384.06363</ele>
        <time>2023-05-14T12:51:06.000Z</time>
      </trkpt>
      <trkpt lat="45.81549" lon="4.62909">
        <ele>384.24512</ele>
        <time>2023-05-14T12:51:07.000Z</time>
      </trkpt>
      <trkpt lat="45.81552" lon="4.62912">
        <ele>384.45416</ele>
        <time>2023-05-14T12:51:08.000Z</time>
      </trkpt>
      <trkpt lat="45.81556" lon="4.62915">
        <ele>384.73917</ele>
        <time>2023-05-14T12:51:09.000Z</time>
      </trkpt>
      <trkpt lat="45.81559" lon="4.62918">
        <ele>385.07455</ele>
        <time>2023-05-14T12:51:10.000Z</time>
      </trkpt>
      <trkpt lat="45.81562" lon="4.62921">
        <ele>385.00146</ele>
        <time>2023-05-14T12:51:11.000Z</time>
      </trkpt>
      <trkpt lat="45.81565" lon="4.62924">
        <ele>385.01263</ele>
        <time>2023-05-14T12:51:12.000Z</time>
      </trkpt>
      <trkpt lat="45.81568" lon="4.62927">
        <ele>385.03436</ele>
        <time>2023-05-14T12:51:13.000Z</time>
      </trkpt>
      <trkpt lat="45.81571" lon="4.6293">
        <ele>385.04428</ele>
        <time>2023-05-14T12:51:14.000Z</time>
      </trkpt>
      <trkpt lat="45.81574" lon="4.62932">
        <ele>385.41379</ele>
        <time>2023-05-14T12:51:15.000Z</time>
      </trkpt>
      <trkpt lat="45.81576" lon="4.62934">
        <ele>385.78192</ele>
        <time>2023-05-14T12:51:16.000Z</time>
      </trkpt>
      <trkpt lat="45.81578" lon="4.62936">
        <ele>386.16547</ele>
        <time>2023-05-14T12:51:17.000Z</time>
      </trkpt>
      <trkpt lat="45.8158" lon="4.62938">
        <ele>386.55682</ele>
        <time>2023-05-14T12:51:18.000Z</time>
      </trkpt>
      <trkpt lat="45.81583" lon="4.6294">
        <ele>386.9697</ele>
        <time>2023-05-14T12:51:19.000Z</time>
      </trkpt>
      <trkpt lat="45.81585" lon="4.62942">
        <ele>387.24451</ele>
        <time>2023-05-14T12:51:20.000Z</time>
      </trkpt>
      <trkpt lat="45.81587" lon="4.62942">
        <ele>387.38446</ele>
        <time>2023-05-14T12:51:21.000Z</time>
      </trkpt>
      <trkpt lat="45.81589" lon="4.62943">
        <ele>387.50287</ele>
        <time>2023-05-14T12:51:22.000Z</time>
      </trkpt>
      <trkpt lat="45.81591" lon="4.62943">
        <ele>388.41852</ele>
        <time>2023-05-14T12:51:23.000Z</time>
      </trkpt>
      <trkpt lat="45.81593" lon="4.62944">
        <ele>389.30603</ele>
        <time>2023-05-14T12:51:24.000Z</time>
      </trkpt>
      <trkpt lat="45.81596" lon="4.62945">
        <ele>390.16498</ele>
        <time>2023-05-14T12:51:25.000Z</time>
      </trkpt>
      <trkpt lat="45.81598" lon="4.62945">
        <ele>391.03082</ele>
        <time>2023-05-14T12:51:26.000Z</time>
      </trkpt>
      <trkpt lat="45.816" lon="4.62946">
        <ele>391.89417</ele>
        <time>2023-05-14T12:51:27.000Z</time>
      </trkpt>
      <trkpt lat="45.81603" lon="4.62947">
        <ele>392.32062</ele>
        <time>2023-05-14T12:51:29.000Z</time>
      </trkpt>
      <trkpt lat="45.81605" lon="4.62948">
        <ele>392.72552</ele>
        <time>2023-05-14T12:51:30.000Z</time>
      </trkpt>
      <trkpt lat="45.81607" lon="4.62949">
        <ele>393.11118</ele>
        <time>2023-05-14T12:51:31.000Z</time>
      </trkpt>
      <trkpt lat="45.81608" lon="4.6295">
        <ele>393.5191</ele>
        <time>2023-05-14T12:51:32.000Z</time>
      </trkpt>
      <trkpt lat="45.8161" lon="4.62952">
        <ele>393.92572</ele>
        <time>2023-05-14T12:51:33.000Z</time>
      </trkpt>
      <trkpt lat="45.81612" lon="4.62955">
        <ele>394.30356</ele>
        <time>2023-05-14T12:51:35.000Z</time>
      </trkpt>
      <trkpt lat="45.81615" lon="4.62958">
        <ele>394.6868</ele>
        <time>2023-05-14T12:51:37.000Z</time>
      </trkpt>
      <trkpt lat="45.81617" lon="4.62958">
        <ele>394.69031</ele>
        <time>2023-05-14T12:51:38.000Z</time>
      </trkpt>
      <trkpt lat="45.81618" lon="4.62956">
        <ele>394.40363</ele>
        <time>2023-05-14T12:51:51.000Z</time>
      </trkpt>
      <trkpt lat="45.81618" lon="4.6296">
        <ele>394.24228</ele>
        <time>2023-05-14T12:52:36.000Z</time>
      </trkpt>
      <trkpt lat="45.81618" lon="4.62964">
        <ele>393.94183</ele>
        <time>2023-05-14T12:52:37.000Z</time>
      </trkpt>
      <trkpt lat="45.81618" lon="4.62968">
        <ele>394.08063</ele>
        <time>2023-05-14T12:52:38.000Z</time>
      </trkpt>
      <trkpt lat="45.81619" lon="4.62971">
        <ele>394.26312</ele>
        <time>2023-05-14T12:52:39.000Z</time>
      </trkpt>
      <trkpt lat="45.81619" lon="4.62975">
        <ele>394.43506</ele>
        <time>2023-05-14T12:52:40.000Z</time>
      </trkpt>
      <trkpt lat="45.81619" lon="4.62979">
        <ele>394.95053</ele>
        <time>2023-05-14T12:52:41.000Z</time>
      </trkpt>
      <trkpt lat="45.8162" lon="4.62982">
        <ele>394.68594</ele>
        <time>2023-05-14T12:52:42.000Z</time>
      </trkpt>
      <trkpt lat="45.8162" lon="4.62986">
        <ele>394.42422</ele>
        <time>2023-05-14T12:52:43.000Z</time>
      </trkpt>
      <trkpt lat="45.8162" lon="4.6299">
        <ele>394.16412</ele>
        <time>2023-05-14T12:52:44.000Z</time>
      </trkpt>
      <trkpt lat="45.81621" lon="4.62994">
        <ele>393.90387</ele>
        <time>2023-05-14T12:52:45.000Z</time>
      </trkpt>
      <trkpt lat="45.81621" lon="4.62998">
        <ele>393.6293</ele>
        <time>2023-05-14T12:52:46.000Z</time>
      </trkpt>
      <trkpt lat="45.81621" lon="4.63001">
        <ele>393.78687</ele>
        <time>2023-05-14T12:52:47.000Z</time>
      </trkpt>
      <trkpt lat="45.81622" lon="4.63005">
        <ele>393.76044</ele>
        <time>2023-05-14T12:52:48.000Z</time>
      </trkpt>
      <trkpt lat="45.81622" lon="4.6301">
        <ele>393.71323</ele>
        <time>2023-05-14T12:52:49.000Z</time>
      </trkpt>
      <trkpt lat="45.81622" lon="4.63014">
        <ele>393.63699</ele>
        <time>2023-05-14T12:52:50.000Z</time>
      </trkpt>
      <trkpt lat="45.81623" lon="4.63019">
        <ele>393.43793</ele>
        <time>2023-05-14T12:52:51.000Z</time>
      </trkpt>
      <trkpt lat="45.81623" lon="4.63023">
        <ele>393.24078</ele>
        <time>2023-05-14T12:52:52.000Z</time>
      </trkpt>
      <trkpt lat="45.81624" lon="4.63027">
        <ele>393.48795</ele>
        <time>2023-05-14T12:52:53.000Z</time>
      </trkpt>
      <trkpt lat="45.81625" lon="4.63031">
        <ele>393.49069</ele>
        <time>2023-05-14T12:52:54.000Z</time>
      </trkpt>
      <trkpt lat="45.81626" lon="4.63034">
        <ele>393.77936</ele>
        <time>2023-05-14T12:52:55.000Z</time>
      </trkpt>
      <trkpt lat="45.81627" lon="4.63037">
        <ele>393.93311</ele>
        <time>2023-05-14T12:52:56.000Z</time>
      </trkpt>
      <trkpt lat="45.81628" lon="4.6304">
        <ele>394.22797</ele>
        <time>2023-05-14T12:52:57.000Z</time>
      </trkpt>
      <trkpt lat="45.81631" lon="4.63041">
        <ele>394.27954</ele>
        <time>2023-05-14T12:52:58.000Z</time>
      </trkpt>
      <trkpt lat="45.81635" lon="4.6304">
        <ele>394.44406</ele>
        <time>2023-05-14T12:52:59.000Z</time>
      </trkpt>
      <trkpt lat="45.81638" lon="4.63038">
        <ele>394.62714</ele>
        <time>2023-05-14T12:53:00.000Z</time>
      </trkpt>
      <trkpt lat="45.81641" lon="4.63037">
        <ele>394.81549</ele>
        <time>2023-05-14T12:53:01.000Z</time>
      </trkpt>
      <trkpt lat="45.81644" lon="4.63037">
        <ele>394.99277</ele>
        <time>2023-05-14T12:53:02.000Z</time>
      </trkpt>
      <trkpt lat="45.81648" lon="4.63037">
        <ele>395.14853</ele>
        <time>2023-05-14T12:53:03.000Z</time>
      </trkpt>
      <trkpt lat="45.81651" lon="4.63038">
        <ele>395.3414</ele>
        <time>2023-05-14T12:53:04.000Z</time>
      </trkpt>
      <trkpt lat="45.81654" lon="4.63039">
        <ele>395.55011</ele>
        <time>2023-05-14T12:53:05.000Z</time>
      </trkpt>
      <trkpt lat="45.81657" lon="4.63039">
        <ele>395.80234</ele>
        <time>2023-05-14T12:53:06.000Z</time>
      </trkpt>
      <trkpt lat="45.8166" lon="4.63039">
        <ele>396.12027</ele>
        <time>2023-05-14T12:53:07.000Z</time>
      </trkpt>
      <trkpt lat="45.81663" lon="4.63039">
        <ele>396.60376</ele>
        <time>2023-05-14T12:53:08.000Z</time>
      </trkpt>
      <trkpt lat="45.81666" lon="4.63039">
        <ele>396.82733</ele>
        <time>2023-05-14T12:53:09.000Z</time>
      </trkpt>
      <trkpt lat="45.81669" lon="4.6304">
        <ele>397.04501</ele>
        <time>2023-05-14T12:53:10.000Z</time>
      </trkpt>
      <trkpt lat="45.81673" lon="4.63041">
        <ele>397.32092</ele>
        <time>2023-05-14T12:53:11.000Z</time>
      </trkpt>
      <trkpt lat="45.81677" lon="4.63042">
        <ele>397.5994</ele>
        <time>2023-05-14T12:53:12.000Z</time>
      </trkpt>
      <trkpt lat="45.8168" lon="4.63042">
        <ele>397.40643</ele>
        <time>2023-05-14T12:53:13.000Z</time>
      </trkpt>
      <trkpt lat="45.81684" lon="4.63042">
        <ele>398.04266</ele>
        <time>2023-05-14T12:53:14.000Z</time>
      </trkpt>
      <trkpt lat="45.81687" lon="4.63042">
        <ele>398.65216</ele>
        <time>2023-05-14T12:53:15.000Z</time>
      </trkpt>
      <trkpt lat="45.8169" lon="4.63043">
        <ele>399.20676</ele>
        <time>2023-05-14T12:53:16.000Z</time>
      </trkpt>
      <trkpt lat="45.81693" lon="4.63043">
        <ele>399.47043</ele>
        <time>2023-05-14T12:53:17.000Z</time>
      </trkpt>
      <trkpt lat="45.81696" lon="4.63044">
        <ele>399.55487</ele>
        <time>2023-05-14T12:53:18.000Z</time>
      </trkpt>
      <trkpt lat="45.817" lon="4.63044">
        <ele>399.59528</ele>
        <time>2023-05-14T12:53:19.000Z</time>
      </trkpt>
      <trkpt lat="45.81703" lon="4.63043">
        <ele>399.94482</ele>
        <time>2023-05-14T12:53:20.000Z</time>
      </trkpt>
      <trkpt lat="45.81706" lon="4.63042">
        <ele>400.2735</ele>
        <time>2023-05-14T12:53:21.000Z</time>
      </trkpt>
      <trkpt lat="45.8171" lon="4.63042">
        <ele>400.6087</ele>
        <time>2023-05-14T12:53:22.000Z</time>
      </trkpt>
      <trkpt lat="45.81713" lon="4.63041">
        <ele>400.97711</ele>
        <time>2023-05-14T12:53:23.000Z</time>
      </trkpt>
      <trkpt lat="45.81717" lon="4.63041">
        <ele>401.31036</ele>
        <time>2023-05-14T12:53:24.000Z</time>
      </trkpt>
      <trkpt lat="45.8172" lon="4.63042">
        <ele>401.6189</ele>
        <time>2023-05-14T12:53:25.000Z</time>
      </trkpt>
      <trkpt lat="45.81724" lon="4.63043">
        <ele>401.896</ele>
        <time>2023-05-14T12:53:26.000Z</time>
      </trkpt>
      <trkpt lat="45.81727" lon="4.63045">
        <ele>402.10861</ele>
        <time>2023-05-14T12:53:27.000Z</time>
      </trkpt>
      <trkpt lat="45.8173" lon="4.63048">
        <ele>402.34369</ele>
        <time>2023-05-14T12:53:28.000Z</time>
      </trkpt>
      <trkpt lat="45.81733" lon="4.6305">
        <ele>402.88318</ele>
        <time>2023-05-14T12:53:29.000Z</time>
      </trkpt>
      <trkpt lat="45.81736" lon="4.63053">
        <ele>403.44016</ele>
        <time>2023-05-14T12:53:30.000Z</time>
      </trkpt>
      <trkpt lat="45.8174" lon="4.63056">
        <ele>404.02045</ele>
        <time>2023-05-14T12:53:31.000Z</time>
      </trkpt>
      <trkpt lat="45.81743" lon="4.63058">
        <ele>404.61697</ele>
        <time>2023-05-14T12:53:32.000Z</time>
      </trkpt>
      <trkpt lat="45.81746" lon="4.63059">
        <ele>405.22217</ele>
        <time>2023-05-14T12:53:33.000Z</time>
      </trkpt>
      <trkpt lat="45.8175" lon="4.63059">
        <ele>405.04547</ele>
        <time>2023-05-14T12:53:34.000Z</time>
      </trkpt>
      <trkpt lat="45.81754" lon="4.63059">
        <ele>404.79059</ele>
        <time>2023-05-14T12:53:35.000Z</time>
      </trkpt>
      <trkpt lat="45.81758" lon="4.63058">
        <ele>404.60385</ele>
        <time>2023-05-14T12:53:36.000Z</time>
      </trkpt>
      <trkpt lat="45.81762" lon="4.63056">
        <ele>404.70206</ele>
        <time>2023-05-14T12:53:37.000Z</time>
      </trkpt>
      <trkpt lat="45.81766" lon="4.63053">
        <ele>404.71991</ele>
        <time>2023-05-14T12:53:38.000Z</time>
      </trkpt>
      <trkpt lat="45.8177" lon="4.63048">
        <ele>405.24127</ele>
        <time>2023-05-14T12:53:39.000Z</time>
      </trkpt>
      <trkpt lat="45.81774" lon="4.63045">
        <ele>405.28494</ele>
        <time>2023-05-14T12:53:40.000Z</time>
      </trkpt>
      <trkpt lat="45.81778" lon="4.63041">
        <ele>405.32755</ele>
        <time>2023-05-14T12:53:41.000Z</time>
      </trkpt>
      <trkpt lat="45.81782" lon="4.63039">
        <ele>405.35101</ele>
        <time>2023-05-14T12:53:42.000Z</time>
      </trkpt>
      <trkpt lat="45.81785" lon="4.63035">
        <ele>405.38019</ele>
        <time>2023-05-14T12:53:43.000Z</time>
      </trkpt>
      <trkpt lat="45.81789" lon="4.63032">
        <ele>405.47437</ele>
        <time>2023-05-14T12:53:44.000Z</time>
      </trkpt>
      <trkpt lat="45.81793" lon="4.63029">
        <ele>405.54654</ele>
        <time>2023-05-14T12:53:45.000Z</time>
      </trkpt>
      <trkpt lat="45.81797" lon="4.63026">
        <ele>405.61273</ele>
        <time>2023-05-14T12:53:46.000Z</time>
      </trkpt>
      <trkpt lat="45.81801" lon="4.63023">
        <ele>405.66058</ele>
        <time>2023-05-14T12:53:47.000Z</time>
      </trkpt>
      <trkpt lat="45.81806" lon="4.6302">
        <ele>405.73901</ele>
        <time>2023-05-14T12:53:48.000Z</time>
      </trkpt>
      <trkpt lat="45.8181" lon="4.63017">
        <ele>405.76294</ele>
        <time>2023-05-14T12:53:49.000Z</time>
      </trkpt>
      <trkpt lat="45.81813" lon="4.63015">
        <ele>405.40326</ele>
        <time>2023-05-14T12:53:50.000Z</time>
      </trkpt>
      <trkpt lat="45.81817" lon="4.63013">
        <ele>404.93155</ele>
        <time>2023-05-14T12:53:51.000Z</time>
      </trkpt>
      <trkpt lat="45.81819" lon="4.63011">
        <ele>405.02383</ele>
        <time>2023-05-14T12:53:52.000Z</time>
      </trkpt>
      <trkpt lat="45.81823" lon="4.63009">
        <ele>405.06708</ele>
        <time>2023-05-14T12:53:53.000Z</time>
      </trkpt>
      <trkpt lat="45.81826" lon="4.63007">
        <ele>405.28644</ele>
        <time>2023-05-14T12:53:54.000Z</time>
      </trkpt>
      <trkpt lat="45.8183" lon="4.63005">
        <ele>405.63092</ele>
        <time>2023-05-14T12:53:55.000Z</time>
      </trkpt>
      <trkpt lat="45.81833" lon="4.63004">
        <ele>405.93643</ele>
        <time>2023-05-14T12:53:56.000Z</time>
      </trkpt>
      <trkpt lat="45.81838" lon="4.63004">
        <ele>406.21146</ele>
        <time>2023-05-14T12:53:57.000Z</time>
      </trkpt>
      <trkpt lat="45.81841" lon="4.63004">
        <ele>406.53522</ele>
        <time>2023-05-14T12:53:58.000Z</time>
      </trkpt>
      <trkpt lat="45.81845" lon="4.63005">
        <ele>406.33423</ele>
        <time>2023-05-14T12:53:59.000Z</time>
      </trkpt>
      <trkpt lat="45.81849" lon="4.63006">
        <ele>406.87463</ele>
        <time>2023-05-14T12:54:00.000Z</time>
      </trkpt>
      <trkpt lat="45.81853" lon="4.63007">
        <ele>407.41122</ele>
        <time>2023-05-14T12:54:01.000Z</time>
      </trkpt>
      <trkpt lat="45.81857" lon="4.6301">
        <ele>407.94479</ele>
        <time>2023-05-14T12:54:02.000Z</time>
      </trkpt>
      <trkpt lat="45.81862" lon="4.63012">
        <ele>408.45929</ele>
        <time>2023-05-14T12:54:03.000Z</time>
      </trkpt>
      <trkpt lat="45.81866" lon="4.63016">
        <ele>407.90692</ele>
        <time>2023-05-14T12:54:04.000Z</time>
      </trkpt>
      <trkpt lat="45.8187" lon="4.63019">
        <ele>407.31458</ele>
        <time>2023-05-14T12:54:05.000Z</time>
      </trkpt>
      <trkpt lat="45.81875" lon="4.63023">
        <ele>407.29401</ele>
        <time>2023-05-14T12:54:06.000Z</time>
      </trkpt>
      <trkpt lat="45.8188" lon="4.63026">
        <ele>407.18951</ele>
        <time>2023-05-14T12:54:07.000Z</time>
      </trkpt>
      <trkpt lat="45.81885" lon="4.6303">
        <ele>407.04385</ele>
        <time>2023-05-14T12:54:08.000Z</time>
      </trkpt>
      <trkpt lat="45.8189" lon="4.63033">
        <ele>406.94168</ele>
        <time>2023-05-14T12:54:09.000Z</time>
      </trkpt>
      <trkpt lat="45.81894" lon="4.63037">
        <ele>407.20987</ele>
        <time>2023-05-14T12:54:10.000Z</time>
      </trkpt>
      <trkpt lat="45.81899" lon="4.6304">
        <ele>407.63254</ele>
        <time>2023-05-14T12:54:11.000Z</time>
      </trkpt>
      <trkpt lat="45.81906" lon="4.6304">
        <ele>407.45816</ele>
        <time>2023-05-14T12:54:12.000Z</time>
      </trkpt>
      <trkpt lat="45.81911" lon="4.63043">
        <ele>407.47931</ele>
        <time>2023-05-14T12:54:13.000Z</time>
      </trkpt>
      <trkpt lat="45.81917" lon="4.63045">
        <ele>407.33365</ele>
        <time>2023-05-14T12:54:14.000Z</time>
      </trkpt>
      <trkpt lat="45.8192" lon="4.63048">
        <ele>407.1525</ele>
        <time>2023-05-14T12:54:15.000Z</time>
      </trkpt>
      <trkpt lat="45.81922" lon="4.63049">
        <ele>407.66675</ele>
        <time>2023-05-14T12:54:16.000Z</time>
      </trkpt>
      <trkpt lat="45.81924" lon="4.63052">
        <ele>408.19751</ele>
        <time>2023-05-14T12:54:17.000Z</time>
      </trkpt>
      <trkpt lat="45.81926" lon="4.63055">
        <ele>408.73029</ele>
        <time>2023-05-14T12:54:18.000Z</time>
      </trkpt>
      <trkpt lat="45.81929" lon="4.63058">
        <ele>409.27142</ele>
        <time>2023-05-14T12:54:19.000Z</time>
      </trkpt>
      <trkpt lat="45.81931" lon="4.63063">
        <ele>409.21161</ele>
        <time>2023-05-14T12:54:20.000Z</time>
      </trkpt>
      <trkpt lat="45.81934" lon="4.63069">
        <ele>409.13657</ele>
        <time>2023-05-14T12:54:21.000Z</time>
      </trkpt>
      <trkpt lat="45.81937" lon="4.63075">
        <ele>409.04318</ele>
        <time>2023-05-14T12:54:22.000Z</time>
      </trkpt>
      <trkpt lat="45.8194" lon="4.63082">
        <ele>408.92941</ele>
        <time>2023-05-14T12:54:23.000Z</time>
      </trkpt>
      <trkpt lat="45.81944" lon="4.6309">
        <ele>409.7796</ele>
        <time>2023-05-14T12:54:24.000Z</time>
      </trkpt>
      <trkpt lat="45.81949" lon="4.63098">
        <ele>410.63315</ele>
        <time>2023-05-14T12:54:25.000Z</time>
      </trkpt>
      <trkpt lat="45.81955" lon="4.63107">
        <ele>410.89932</ele>
        <time>2023-05-14T12:54:26.000Z</time>
      </trkpt>
      <trkpt lat="45.8196" lon="4.63116">
        <ele>411.18832</ele>
        <time>2023-05-14T12:54:27.000Z</time>
      </trkpt>
      <trkpt lat="45.81966" lon="4.63124">
        <ele>411.45502</ele>
        <time>2023-05-14T12:54:28.000Z</time>
      </trkpt>
      <trkpt lat="45.81969" lon="4.63133">
        <ele>411.6236</ele>
        <time>2023-05-14T12:54:29.000Z</time>
      </trkpt>
      <trkpt lat="45.81972" lon="4.63141">
        <ele>411.73965</ele>
        <time>2023-05-14T12:54:30.000Z</time>
      </trkpt>
      <trkpt lat="45.81977" lon="4.63146">
        <ele>411.81146</ele>
        <time>2023-05-14T12:54:31.000Z</time>
      </trkpt>
      <trkpt lat="45.81982" lon="4.63148">
        <ele>411.8667</ele>
        <time>2023-05-14T12:54:32.000Z</time>
      </trkpt>
      <trkpt lat="45.81986" lon="4.63146">
        <ele>411.84186</ele>
        <time>2023-05-14T12:54:33.000Z</time>
      </trkpt>
      <trkpt lat="45.81991" lon="4.63144">
        <ele>412</ele>
        <time>2023-05-14T12:54:34.000Z</time>
      </trkpt>
      <trkpt lat="45.81992" lon="4.63139">
        <ele>412.18658</ele>
        <time>2023-05-14T12:54:35.000Z</time>
      </trkpt>
      <trkpt lat="45.81995" lon="4.63136">
        <ele>411.67593</ele>
        <time>2023-05-14T12:54:36.000Z</time>
      </trkpt>
      <trkpt lat="45.81998" lon="4.63133">
        <ele>411.17862</ele>
        <time>2023-05-14T12:54:37.000Z</time>
      </trkpt>
      <trkpt lat="45.82001" lon="4.63128">
        <ele>410.71075</ele>
        <time>2023-05-14T12:54:38.000Z</time>
      </trkpt>
      <trkpt lat="45.82003" lon="4.63123">
        <ele>410.29083</ele>
        <time>2023-05-14T12:54:39.000Z</time>
      </trkpt>
      <trkpt lat="45.82006" lon="4.63119">
        <ele>409.88428</ele>
        <time>2023-05-14T12:54:40.000Z</time>
      </trkpt>
      <trkpt lat="45.82008" lon="4.63114">
        <ele>409.50766</ele>
        <time>2023-05-14T12:54:41.000Z</time>
      </trkpt>
      <trkpt lat="45.82011" lon="4.6311">
        <ele>409.03546</ele>
        <time>2023-05-14T12:54:42.000Z</time>
      </trkpt>
      <trkpt lat="45.82014" lon="4.63106">
        <ele>408.20224</ele>
        <time>2023-05-14T12:54:43.000Z</time>
      </trkpt>
      <trkpt lat="45.82017" lon="4.63101">
        <ele>407.83206</ele>
        <time>2023-05-14T12:54:44.000Z</time>
      </trkpt>
      <trkpt lat="45.8202" lon="4.63097">
        <ele>407.51382</ele>
        <time>2023-05-14T12:54:45.000Z</time>
      </trkpt>
      <trkpt lat="45.82022" lon="4.63093">
        <ele>407.22183</ele>
        <time>2023-05-14T12:54:46.000Z</time>
      </trkpt>
      <trkpt lat="45.82025" lon="4.63089">
        <ele>406.99332</ele>
        <time>2023-05-14T12:54:47.000Z</time>
      </trkpt>
      <trkpt lat="45.82029" lon="4.63085">
        <ele>406.79303</ele>
        <time>2023-05-14T12:54:48.000Z</time>
      </trkpt>
      <trkpt lat="45.82032" lon="4.63081">
        <ele>406.68341</ele>
        <time>2023-05-14T12:54:49.000Z</time>
      </trkpt>
      <trkpt lat="45.82035" lon="4.63077">
        <ele>406.6326</ele>
        <time>2023-05-14T12:54:50.000Z</time>
      </trkpt>
      <trkpt lat="45.82038" lon="4.63074">
        <ele>406.61423</ele>
        <time>2023-05-14T12:54:51.000Z</time>
      </trkpt>
      <trkpt lat="45.82041" lon="4.63071">
        <ele>406.63461</ele>
        <time>2023-05-14T12:54:52.000Z</time>
      </trkpt>
      <trkpt lat="45.82044" lon="4.63068">
        <ele>406.61032</ele>
        <time>2023-05-14T12:54:53.000Z</time>
      </trkpt>
      <trkpt lat="45.82046" lon="4.63065">
        <ele>406.59866</ele>
        <time>2023-05-14T12:54:54.000Z</time>
      </trkpt>
      <trkpt lat="45.82048" lon="4.63066">
        <ele>406.53192</ele>
        <time>2023-05-14T12:55:04.000Z</time>
      </trkpt>
      <trkpt lat="45.8205" lon="4.63066">
        <ele>406.46625</ele>
        <time>2023-05-14T12:55:05.000Z</time>
      </trkpt>
      <trkpt lat="45.82053" lon="4.63067">
        <ele>406.37445</ele>
        <time>2023-05-14T12:55:06.000Z</time>
      </trkpt>
      <trkpt lat="45.82056" lon="4.63069">
        <ele>406.28397</ele>
        <time>2023-05-14T12:55:07.000Z</time>
      </trkpt>
      <trkpt lat="45.82059" lon="4.63072">
        <ele>406.17316</ele>
        <time>2023-05-14T12:55:08.000Z</time>
      </trkpt>
      <trkpt lat="45.82063" lon="4.63075">
        <ele>406.03323</ele>
        <time>2023-05-14T12:55:09.000Z</time>
      </trkpt>
      <trkpt lat="45.82066" lon="4.63079">
        <ele>405.87198</ele>
        <time>2023-05-14T12:55:10.000Z</time>
      </trkpt>
      <trkpt lat="45.8207" lon="4.63082">
        <ele>405.80548</ele>
        <time>2023-05-14T12:55:11.000Z</time>
      </trkpt>
      <trkpt lat="45.82075" lon="4.63088">
        <ele>406.08578</ele>
        <time>2023-05-14T12:55:12.000Z</time>
      </trkpt>
      <trkpt lat="45.8208" lon="4.63092">
        <ele>405.90167</ele>
        <time>2023-05-14T12:55:13.000Z</time>
      </trkpt>
      <trkpt lat="45.82087" lon="4.63098">
        <ele>405.65436</ele>
        <time>2023-05-14T12:55:14.000Z</time>
      </trkpt>
      <trkpt lat="45.82094" lon="4.63104">
        <ele>405.32141</ele>
        <time>2023-05-14T12:55:15.000Z</time>
      </trkpt>
      <trkpt lat="45.821" lon="4.63111">
        <ele>404.93726</ele>
        <time>2023-05-14T12:55:16.000Z</time>
      </trkpt>
      <trkpt lat="45.82108" lon="4.63118">
        <ele>404.51349</ele>
        <time>2023-05-14T12:55:17.000Z</time>
      </trkpt>
      <trkpt lat="45.82115" lon="4.63123">
        <ele>404.06229</ele>
        <time>2023-05-14T12:55:18.000Z</time>
      </trkpt>
      <trkpt lat="45.82122" lon="4.63129">
        <ele>403.63327</ele>
        <time>2023-05-14T12:55:19.000Z</time>
      </trkpt>
      <trkpt lat="45.82128" lon="4.63135">
        <ele>403.05804</ele>
        <time>2023-05-14T12:55:20.000Z</time>
      </trkpt>
      <trkpt lat="45.82135" lon="4.63141">
        <ele>402.46808</ele>
        <time>2023-05-14T12:55:21.000Z</time>
      </trkpt>
      <trkpt lat="45.82142" lon="4.63148">
        <ele>401.79648</ele>
        <time>2023-05-14T12:55:22.000Z</time>
      </trkpt>
      <trkpt lat="45.82149" lon="4.63155">
        <ele>401.04495</ele>
        <time>2023-05-14T12:55:23.000Z</time>
      </trkpt>
      <trkpt lat="45.82156" lon="4.63162">
        <ele>400.30853</ele>
        <time>2023-05-14T12:55:24.000Z</time>
      </trkpt>
      <trkpt lat="45.82162" lon="4.63168">
        <ele>399.65247</ele>
        <time>2023-05-14T12:55:25.000Z</time>
      </trkpt>
      <trkpt lat="45.82168" lon="4.63169">
        <ele>398.98529</ele>
        <time>2023-05-14T12:55:26.000Z</time>
      </trkpt>
      <trkpt lat="45.82174" lon="4.63168">
        <ele>398.24915</ele>
        <time>2023-05-14T12:55:27.000Z</time>
      </trkpt>
      <trkpt lat="45.82179" lon="4.63164">
        <ele>397.45197</ele>
        <time>2023-05-14T12:55:28.000Z</time>
      </trkpt>
      <trkpt lat="45.82181" lon="4.6316">
        <ele>396.64438</ele>
        <time>2023-05-14T12:55:29.000Z</time>
      </trkpt>
      <trkpt lat="45.82185" lon="4.63154">
        <ele>395.96542</ele>
        <time>2023-05-14T12:55:30.000Z</time>
      </trkpt>
      <trkpt lat="45.82188" lon="4.63147">
        <ele>395.28577</ele>
        <time>2023-05-14T12:55:31.000Z</time>
      </trkpt>
      <trkpt lat="45.8219" lon="4.63143">
        <ele>394.74652</ele>
        <time>2023-05-14T12:55:32.000Z</time>
      </trkpt>
      <trkpt lat="45.82192" lon="4.63139">
        <ele>393.96048</ele>
        <time>2023-05-14T12:55:33.000Z</time>
      </trkpt>
      <trkpt lat="45.82195" lon="4.63137">
        <ele>393.28302</ele>
        <time>2023-05-14T12:55:34.000Z</time>
      </trkpt>
      <trkpt lat="45.82197" lon="4.63135">
        <ele>392.73529</ele>
        <time>2023-05-14T12:55:36.000Z</time>
      </trkpt>
      <trkpt lat="45.82199" lon="4.63139">
        <ele>392.18109</ele>
        <time>2023-05-14T12:55:45.000Z</time>
      </trkpt>
      <trkpt lat="45.82199" lon="4.63142">
        <ele>391.65884</ele>
        <time>2023-05-14T12:55:46.000Z</time>
      </trkpt>
      <trkpt lat="45.82198" lon="4.63145">
        <ele>391.15405</ele>
        <time>2023-05-14T12:55:47.000Z</time>
      </trkpt>
      <trkpt lat="45.82198" lon="4.63148">
        <ele>390.6225</ele>
        <time>2023-05-14T12:55:48.000Z</time>
      </trkpt>
      <trkpt lat="45.82197" lon="4.63151">
        <ele>390.23218</ele>
        <time>2023-05-14T12:55:49.000Z</time>
      </trkpt>
      <trkpt lat="45.82196" lon="4.63154">
        <ele>389.98688</ele>
        <time>2023-05-14T12:55:50.000Z</time>
      </trkpt>
      <trkpt lat="45.82195" lon="4.63158">
        <ele>389.79239</ele>
        <time>2023-05-14T12:55:51.000Z</time>
      </trkpt>
      <trkpt lat="45.82195" lon="4.63162">
        <ele>389.77948</ele>
        <time>2023-05-14T12:55:52.000Z</time>
      </trkpt>
      <trkpt lat="45.82194" lon="4.63166">
        <ele>389.79272</ele>
        <time>2023-05-14T12:55:53.000Z</time>
      </trkpt>
      <trkpt lat="45.82193" lon="4.6317">
        <ele>389.44717</ele>
        <time>2023-05-14T12:55:54.000Z</time>
      </trkpt>
      <trkpt lat="45.82192" lon="4.63174">
        <ele>389.20654</ele>
        <time>2023-05-14T12:55:55.000Z</time>
      </trkpt>
      <trkpt lat="45.82191" lon="4.63178">
        <ele>389.02005</ele>
        <time>2023-05-14T12:55:56.000Z</time>
      </trkpt>
      <trkpt lat="45.8219" lon="4.63183">
        <ele>388.86475</ele>
        <time>2023-05-14T12:55:57.000Z</time>
      </trkpt>
      <trkpt lat="45.82189" lon="4.63188">
        <ele>388.74399</ele>
        <time>2023-05-14T12:55:58.000Z</time>
      </trkpt>
      <trkpt lat="45.82188" lon="4.63192">
        <ele>388.50751</ele>
        <time>2023-05-14T12:55:59.000Z</time>
      </trkpt>
      <trkpt lat="45.82188" lon="4.63198">
        <ele>388.27985</ele>
        <time>2023-05-14T12:56:00.000Z</time>
      </trkpt>
      <trkpt lat="45.82187" lon="4.63203">
        <ele>387.95706</ele>
        <time>2023-05-14T12:56:01.000Z</time>
      </trkpt>
      <trkpt lat="45.82186" lon="4.63208">
        <ele>387.92438</ele>
        <time>2023-05-14T12:56:02.000Z</time>
      </trkpt>
      <trkpt lat="45.82184" lon="4.63213">
        <ele>387.85443</ele>
        <time>2023-05-14T12:56:03.000Z</time>
      </trkpt>
      <trkpt lat="45.82181" lon="4.63218">
        <ele>387.71768</ele>
        <time>2023-05-14T12:56:04.000Z</time>
      </trkpt>
      <trkpt lat="45.82179" lon="4.63223">
        <ele>387.63068</ele>
        <time>2023-05-14T12:56:05.000Z</time>
      </trkpt>
      <trkpt lat="45.82177" lon="4.63228">
        <ele>387.55652</ele>
        <time>2023-05-14T12:56:06.000Z</time>
      </trkpt>
      <trkpt lat="45.82177" lon="4.63234">
        <ele>387.50574</ele>
        <time>2023-05-14T12:56:07.000Z</time>
      </trkpt>
      <trkpt lat="45.82177" lon="4.63238">
        <ele>387.44217</ele>
        <time>2023-05-14T12:56:08.000Z</time>
      </trkpt>
      <trkpt lat="45.82179" lon="4.63242">
        <ele>387.36469</ele>
        <time>2023-05-14T12:56:09.000Z</time>
      </trkpt>
      <trkpt lat="45.82182" lon="4.63244">
        <ele>387.27921</ele>
        <time>2023-05-14T12:56:10.000Z</time>
      </trkpt>
      <trkpt lat="45.82186" lon="4.63246">
        <ele>387.18686</ele>
        <time>2023-05-14T12:56:11.000Z</time>
      </trkpt>
      <trkpt lat="45.8219" lon="4.63248">
        <ele>387.11832</ele>
        <time>2023-05-14T12:56:12.000Z</time>
      </trkpt>
      <trkpt lat="45.82194" lon="4.63251">
        <ele>386.74869</ele>
        <time>2023-05-14T12:56:13.000Z</time>
      </trkpt>
      <trkpt lat="45.82198" lon="4.63254">
        <ele>386.7204</ele>
        <time>2023-05-14T12:56:14.000Z</time>
      </trkpt>
      <trkpt lat="45.82201" lon="4.63257">
        <ele>386.61685</ele>
        <time>2023-05-14T12:56:15.000Z</time>
      </trkpt>
      <trkpt lat="45.82205" lon="4.6326">
        <ele>386.49149</ele>
        <time>2023-05-14T12:56:16.000Z</time>
      </trkpt>
      <trkpt lat="45.82208" lon="4.63263">
        <ele>386.36304</ele>
        <time>2023-05-14T12:56:17.000Z</time>
      </trkpt>
      <trkpt lat="45.82212" lon="4.63266">
        <ele>386.2373</ele>
        <time>2023-05-14T12:56:18.000Z</time>
      </trkpt>
      <trkpt lat="45.82215" lon="4.63269">
        <ele>386.29565</ele>
        <time>2023-05-14T12:56:19.000Z</time>
      </trkpt>
      <trkpt lat="45.82218" lon="4.63272">
        <ele>386.15045</ele>
        <time>2023-05-14T12:56:20.000Z</time>
      </trkpt>
      <trkpt lat="45.82221" lon="4.63275">
        <ele>386.01685</ele>
        <time>2023-05-14T12:56:21.000Z</time>
      </trkpt>
      <trkpt lat="45.82224" lon="4.63279">
        <ele>385.89453</ele>
        <time>2023-05-14T12:56:22.000Z</time>
      </trkpt>
      <trkpt lat="45.82227" lon="4.63282">
        <ele>385.75528</ele>
        <time>2023-05-14T12:56:23.000Z</time>
      </trkpt>
      <trkpt lat="45.82229" lon="4.63285">
        <ele>385.63852</ele>
        <time>2023-05-14T12:56:24.000Z</time>
      </trkpt>
      <trkpt lat="45.82232" lon="4.63287">
        <ele>385.54724</ele>
        <time>2023-05-14T12:56:25.000Z</time>
      </trkpt>
      <trkpt lat="45.82236" lon="4.63289">
        <ele>385.45758</ele>
        <time>2023-05-14T12:56:26.000Z</time>
      </trkpt>
      <trkpt lat="45.8224" lon="4.63291">
        <ele>385.37686</ele>
        <time>2023-05-14T12:56:27.000Z</time>
      </trkpt>
      <trkpt lat="45.82243" lon="4.63295">
        <ele>385.28403</ele>
        <time>2023-05-14T12:56:28.000Z</time>
      </trkpt>
      <trkpt lat="45.82248" lon="4.63298">
        <ele>385.21625</ele>
        <time>2023-05-14T12:56:29.000Z</time>
      </trkpt>
      <trkpt lat="45.82253" lon="4.63301">
        <ele>385.00922</ele>
        <time>2023-05-14T12:56:30.000Z</time>
      </trkpt>
      <trkpt lat="45.82256" lon="4.63305">
        <ele>384.79605</ele>
        <time>2023-05-14T12:56:31.000Z</time>
      </trkpt>
      <trkpt lat="45.8226" lon="4.63308">
        <ele>384.45572</ele>
        <time>2023-05-14T12:56:32.000Z</time>
      </trkpt>
      <trkpt lat="45.82264" lon="4.63311">
        <ele>384.40649</ele>
        <time>2023-05-14T12:56:33.000Z</time>
      </trkpt>
      <trkpt lat="45.82267" lon="4.63314">
        <ele>384.30835</ele>
        <time>2023-05-14T12:56:34.000Z</time>
      </trkpt>
      <trkpt lat="45.82271" lon="4.63317">
        <ele>384.19952</ele>
        <time>2023-05-14T12:56:35.000Z</time>
      </trkpt>
      <trkpt lat="45.82275" lon="4.6332">
        <ele>383.22992</ele>
        <time>2023-05-14T12:56:36.000Z</time>
      </trkpt>
      <trkpt lat="45.82279" lon="4.63322">
        <ele>382.26395</ele>
        <time>2023-05-14T12:56:37.000Z</time>
      </trkpt>
      <trkpt lat="45.82283" lon="4.63325">
        <ele>381.2973</ele>
        <time>2023-05-14T12:56:38.000Z</time>
      </trkpt>
      <trkpt lat="45.82287" lon="4.63329">
        <ele>380.17499</ele>
        <time>2023-05-14T12:56:39.000Z</time>
      </trkpt>
      <trkpt lat="45.8229" lon="4.63332">
        <ele>379.29681</ele>
        <time>2023-05-14T12:56:40.000Z</time>
      </trkpt>
      <trkpt lat="45.82294" lon="4.63334">
        <ele>378.43225</ele>
        <time>2023-05-14T12:56:41.000Z</time>
      </trkpt>
      <trkpt lat="45.82298" lon="4.63337">
        <ele>377.56006</ele>
        <time>2023-05-14T12:56:42.000Z</time>
      </trkpt>
      <trkpt lat="45.82302" lon="4.63339">
        <ele>376.72128</ele>
        <time>2023-05-14T12:56:43.000Z</time>
      </trkpt>
      <trkpt lat="45.82307" lon="4.63342">
        <ele>375.88187</ele>
        <time>2023-05-14T12:56:44.000Z</time>
      </trkpt>
      <trkpt lat="45.8231" lon="4.63344">
        <ele>375.04053</ele>
        <time>2023-05-14T12:56:45.000Z</time>
      </trkpt>
      <trkpt lat="45.82315" lon="4.63346">
        <ele>374.20151</ele>
        <time>2023-05-14T12:56:46.000Z</time>
      </trkpt>
      <trkpt lat="45.82318" lon="4.63348">
        <ele>373.32437</ele>
        <time>2023-05-14T12:56:47.000Z</time>
      </trkpt>
      <trkpt lat="45.82322" lon="4.63351">
        <ele>372.44122</ele>
        <time>2023-05-14T12:56:48.000Z</time>
      </trkpt>
      <trkpt lat="45.82326" lon="4.63353">
        <ele>371.56613</ele>
        <time>2023-05-14T12:56:49.000Z</time>
      </trkpt>
      <trkpt lat="45.8233" lon="4.63355">
        <ele>370.71747</ele>
        <time>2023-05-14T12:56:50.000Z</time>
      </trkpt>
      <trkpt lat="45.82335" lon="4.63357">
        <ele>369.8681</ele>
        <time>2023-05-14T12:56:51.000Z</time>
      </trkpt>
      <trkpt lat="45.8234" lon="4.6336">
        <ele>368.99808</ele>
        <time>2023-05-14T12:56:52.000Z</time>
      </trkpt>
      <trkpt lat="45.82344" lon="4.63362">
        <ele>368.15826</ele>
        <time>2023-05-14T12:56:53.000Z</time>
      </trkpt>
      <trkpt lat="45.82349" lon="4.63364">
        <ele>367.2933</ele>
        <time>2023-05-14T12:56:54.000Z</time>
      </trkpt>
      <trkpt lat="45.82354" lon="4.63365">
        <ele>366.44095</ele>
        <time>2023-05-14T12:56:55.000Z</time>
      </trkpt>
      <trkpt lat="45.82359" lon="4.63367">
        <ele>366.46564</ele>
        <time>2023-05-14T12:56:56.000Z</time>
      </trkpt>
      <trkpt lat="45.82364" lon="4.63368">
        <ele>366.48041</ele>
        <time>2023-05-14T12:56:57.000Z</time>
      </trkpt>
      <trkpt lat="45.82368" lon="4.63369">
        <ele>366.48227</ele>
        <time>2023-05-14T12:56:58.000Z</time>
      </trkpt>
      <trkpt lat="45.82373" lon="4.63371">
        <ele>367.33151</ele>
        <time>2023-05-14T12:56:59.000Z</time>
      </trkpt>
      <trkpt lat="45.82379" lon="4.63372">
        <ele>368.19977</ele>
        <time>2023-05-14T12:57:00.000Z</time>
      </trkpt>
      <trkpt lat="45.82385" lon="4.63375">
        <ele>369.02704</ele>
        <time>2023-05-14T12:57:01.000Z</time>
      </trkpt>
      <trkpt lat="45.8239" lon="4.63378">
        <ele>369.85522</ele>
        <time>2023-05-14T12:57:02.000Z</time>
      </trkpt>
      <trkpt lat="45.82396" lon="4.63382">
        <ele>369.06497</ele>
        <time>2023-05-14T12:57:03.000Z</time>
      </trkpt>
      <trkpt lat="45.82401" lon="4.63385">
        <ele>368.38635</ele>
        <time>2023-05-14T12:57:04.000Z</time>
      </trkpt>
      <trkpt lat="45.82406" lon="4.63388">
        <ele>367.6824</ele>
        <time>2023-05-14T12:57:05.000Z</time>
      </trkpt>
      <trkpt lat="45.82412" lon="4.6339">
        <ele>368.58051</ele>
        <time>2023-05-14T12:57:06.000Z</time>
      </trkpt>
      <trkpt lat="45.82417" lon="4.63392">
        <ele>369.31125</ele>
        <time>2023-05-14T12:57:07.000Z</time>
      </trkpt>
      <trkpt lat="45.82423" lon="4.63395">
        <ele>370.28973</ele>
        <time>2023-05-14T12:57:08.000Z</time>
      </trkpt>
      <trkpt lat="45.8243" lon="4.63398">
        <ele>371.2579</ele>
        <time>2023-05-14T12:57:09.000Z</time>
      </trkpt>
      <trkpt lat="45.82435" lon="4.634">
        <ele>371.91669</ele>
        <time>2023-05-14T12:57:10.000Z</time>
      </trkpt>
      <trkpt lat="45.82441" lon="4.63402">
        <ele>372.64069</ele>
        <time>2023-05-14T12:57:11.000Z</time>
      </trkpt>
      <trkpt lat="45.82447" lon="4.63405">
        <ele>373.34381</ele>
        <time>2023-05-14T12:57:12.000Z</time>
      </trkpt>
      <trkpt lat="45.82453" lon="4.6341">
        <ele>374.02399</ele>
        <time>2023-05-14T12:57:13.000Z</time>
      </trkpt>
      <trkpt lat="45.82459" lon="4.63413">
        <ele>374.70502</ele>
        <time>2023-05-14T12:57:14.000Z</time>
      </trkpt>
      <trkpt lat="45.82464" lon="4.63416">
        <ele>375.38956</ele>
        <time>2023-05-14T12:57:15.000Z</time>
      </trkpt>
      <trkpt lat="45.82469" lon="4.63418">
        <ele>376.32217</ele>
        <time>2023-05-14T12:57:16.000Z</time>
      </trkpt>
      <trkpt lat="45.82473" lon="4.63421">
        <ele>376.02048</ele>
        <time>2023-05-14T12:57:17.000Z</time>
      </trkpt>
      <trkpt lat="45.82477" lon="4.63424">
        <ele>375.73663</ele>
        <time>2023-05-14T12:57:18.000Z</time>
      </trkpt>
      <trkpt lat="45.82481" lon="4.63428">
        <ele>374.47888</ele>
        <time>2023-05-14T12:57:19.000Z</time>
      </trkpt>
      <trkpt lat="45.82486" lon="4.63431">
        <ele>374.02606</ele>
        <time>2023-05-14T12:57:20.000Z</time>
      </trkpt>
      <trkpt lat="45.8249" lon="4.63434">
        <ele>373.57306</ele>
        <time>2023-05-14T12:57:21.000Z</time>
      </trkpt>
      <trkpt lat="45.82494" lon="4.63437">
        <ele>372.33951</ele>
        <time>2023-05-14T12:57:22.000Z</time>
      </trkpt>
      <trkpt lat="45.82498" lon="4.6344">
        <ele>372.67682</ele>
        <time>2023-05-14T12:57:23.000Z</time>
      </trkpt>
      <trkpt lat="45.82502" lon="4.63442">
        <ele>372.88983</ele>
        <time>2023-05-14T12:57:24.000Z</time>
      </trkpt>
      <trkpt lat="45.82506" lon="4.63446">
        <ele>373.11679</ele>
        <time>2023-05-14T12:57:25.000Z</time>
      </trkpt>
      <trkpt lat="45.82509" lon="4.63448">
        <ele>371.94806</ele>
        <time>2023-05-14T12:57:26.000Z</time>
      </trkpt>
      <trkpt lat="45.82513" lon="4.63451">
        <ele>370.95923</ele>
        <time>2023-05-14T12:57:27.000Z</time>
      </trkpt>
      <trkpt lat="45.82517" lon="4.63454">
        <ele>369.74597</ele>
        <time>2023-05-14T12:57:28.000Z</time>
      </trkpt>
      <trkpt lat="45.82522" lon="4.63457">
        <ele>368.51068</ele>
        <time>2023-05-14T12:57:29.000Z</time>
      </trkpt>
      <trkpt lat="45.82526" lon="4.63459">
        <ele>367.5932</ele>
        <time>2023-05-14T12:57:30.000Z</time>
      </trkpt>
      <trkpt lat="45.8253" lon="4.63462">
        <ele>366.61578</ele>
        <time>2023-05-14T12:57:31.000Z</time>
      </trkpt>
      <trkpt lat="45.82533" lon="4.63464">
        <ele>365.70987</ele>
        <time>2023-05-14T12:57:32.000Z</time>
      </trkpt>
      <trkpt lat="45.82538" lon="4.63467">
        <ele>364.8096</ele>
        <time>2023-05-14T12:57:33.000Z</time>
      </trkpt>
      <trkpt lat="45.82542" lon="4.6347">
        <ele>363.92438</ele>
        <time>2023-05-14T12:57:34.000Z</time>
      </trkpt>
      <trkpt lat="45.82546" lon="4.63472">
        <ele>363.02179</ele>
        <time>2023-05-14T12:57:35.000Z</time>
      </trkpt>
      <trkpt lat="45.8255" lon="4.63474">
        <ele>361.88742</ele>
        <time>2023-05-14T12:57:36.000Z</time>
      </trkpt>
      <trkpt lat="45.82554" lon="4.63477">
        <ele>361.88531</ele>
        <time>2023-05-14T12:57:37.000Z</time>
      </trkpt>
      <trkpt lat="45.82558" lon="4.6348">
        <ele>361.8439</ele>
        <time>2023-05-14T12:57:38.000Z</time>
      </trkpt>
      <trkpt lat="45.82562" lon="4.63482">
        <ele>362.16705</ele>
        <time>2023-05-14T12:57:39.000Z</time>
      </trkpt>
      <trkpt lat="45.82566" lon="4.63485">
        <ele>361.61871</ele>
        <time>2023-05-14T12:57:40.000Z</time>
      </trkpt>
      <trkpt lat="45.82571" lon="4.63487">
        <ele>361.07965</ele>
        <time>2023-05-14T12:57:41.000Z</time>
      </trkpt>
      <trkpt lat="45.82575" lon="4.6349">
        <ele>361.33505</ele>
        <time>2023-05-14T12:57:42.000Z</time>
      </trkpt>
      <trkpt lat="45.82579" lon="4.63493">
        <ele>361.61841</ele>
        <time>2023-05-14T12:57:43.000Z</time>
      </trkpt>
      <trkpt lat="45.82583" lon="4.63496">
        <ele>361.90634</ele>
        <time>2023-05-14T12:57:44.000Z</time>
      </trkpt>
      <trkpt lat="45.82586" lon="4.63501">
        <ele>362.18848</ele>
        <time>2023-05-14T12:57:45.000Z</time>
      </trkpt>
      <trkpt lat="45.8259" lon="4.63504">
        <ele>362.26813</ele>
        <time>2023-05-14T12:57:46.000Z</time>
      </trkpt>
      <trkpt lat="45.82593" lon="4.63507">
        <ele>362.37213</ele>
        <time>2023-05-14T12:57:47.000Z</time>
      </trkpt>
      <trkpt lat="45.82598" lon="4.63509">
        <ele>362.4798</ele>
        <time>2023-05-14T12:57:48.000Z</time>
      </trkpt>
      <trkpt lat="45.82601" lon="4.63512">
        <ele>362.63361</ele>
        <time>2023-05-14T12:57:49.000Z</time>
      </trkpt>
      <trkpt lat="45.82605" lon="4.63515">
        <ele>362.75452</ele>
        <time>2023-05-14T12:57:50.000Z</time>
      </trkpt>
      <trkpt lat="45.82608" lon="4.63518">
        <ele>362.88412</ele>
        <time>2023-05-14T12:57:51.000Z</time>
      </trkpt>
      <trkpt lat="45.82612" lon="4.63521">
        <ele>362.99707</ele>
        <time>2023-05-14T12:57:52.000Z</time>
      </trkpt>
      <trkpt lat="45.82616" lon="4.63524">
        <ele>363.10052</ele>
        <time>2023-05-14T12:57:53.000Z</time>
      </trkpt>
      <trkpt lat="45.8262" lon="4.63526">
        <ele>363.2149</ele>
        <time>2023-05-14T12:57:54.000Z</time>
      </trkpt>
      <trkpt lat="45.82624" lon="4.63529">
        <ele>363.34833</ele>
        <time>2023-05-14T12:57:55.000Z</time>
      </trkpt>
      <trkpt lat="45.82628" lon="4.63532">
        <ele>363.49033</ele>
        <time>2023-05-14T12:57:56.000Z</time>
      </trkpt>
      <trkpt lat="45.82633" lon="4.63535">
        <ele>363.79083</ele>
        <time>2023-05-14T12:57:57.000Z</time>
      </trkpt>
      <trkpt lat="45.82637" lon="4.63537">
        <ele>364.09439</ele>
        <time>2023-05-14T12:57:58.000Z</time>
      </trkpt>
      <trkpt lat="45.82641" lon="4.63539">
        <ele>364.16412</ele>
        <time>2023-05-14T12:57:59.000Z</time>
      </trkpt>
      <trkpt lat="45.82645" lon="4.63543">
        <ele>364.28384</ele>
        <time>2023-05-14T12:58:00.000Z</time>
      </trkpt>
      <trkpt lat="45.82649" lon="4.63547">
        <ele>364.41797</ele>
        <time>2023-05-14T12:58:01.000Z</time>
      </trkpt>
      <trkpt lat="45.82653" lon="4.6355">
        <ele>364.58405</ele>
        <time>2023-05-14T12:58:02.000Z</time>
      </trkpt>
      <trkpt lat="45.82656" lon="4.63553">
        <ele>364.74976</ele>
        <time>2023-05-14T12:58:03.000Z</time>
      </trkpt>
      <trkpt lat="45.8266" lon="4.63555">
        <ele>364.91071</ele>
        <time>2023-05-14T12:58:04.000Z</time>
      </trkpt>
      <trkpt lat="45.82665" lon="4.63556">
        <ele>365.10895</ele>
        <time>2023-05-14T12:58:05.000Z</time>
      </trkpt>
      <trkpt lat="45.82669" lon="4.63558">
        <ele>365.13193</ele>
        <time>2023-05-14T12:58:06.000Z</time>
      </trkpt>
      <trkpt lat="45.82672" lon="4.63559">
        <ele>365.14877</ele>
        <time>2023-05-14T12:58:07.000Z</time>
      </trkpt>
      <trkpt lat="45.82676" lon="4.63561">
        <ele>365.16293</ele>
        <time>2023-05-14T12:58:08.000Z</time>
      </trkpt>
      <trkpt lat="45.82679" lon="4.63562">
        <ele>365.10217</ele>
        <time>2023-05-14T12:58:09.000Z</time>
      </trkpt>
      <trkpt lat="45.82683" lon="4.63562">
        <ele>365.04166</ele>
        <time>2023-05-14T12:58:10.000Z</time>
      </trkpt>
      <trkpt lat="45.82686" lon="4.63563">
        <ele>365.25885</ele>
        <time>2023-05-14T12:58:11.000Z</time>
      </trkpt>
      <trkpt lat="45.82689" lon="4.63563">
        <ele>365.45477</ele>
        <time>2023-05-14T12:58:12.000Z</time>
      </trkpt>
      <trkpt lat="45.82692" lon="4.63563">
        <ele>365.65857</ele>
        <time>2023-05-14T12:58:13.000Z</time>
      </trkpt>
      <trkpt lat="45.82696" lon="4.63563">
        <ele>365.85403</ele>
        <time>2023-05-14T12:58:14.000Z</time>
      </trkpt>
      <trkpt lat="45.82699" lon="4.63564">
        <ele>366.07431</ele>
        <time>2023-05-14T12:58:15.000Z</time>
      </trkpt>
      <trkpt lat="45.82702" lon="4.63564">
        <ele>366.30035</ele>
        <time>2023-05-14T12:58:16.000Z</time>
      </trkpt>
      <trkpt lat="45.82705" lon="4.63565">
        <ele>366.47232</ele>
        <time>2023-05-14T12:58:17.000Z</time>
      </trkpt>
      <trkpt lat="45.82708" lon="4.63566">
        <ele>366.67816</ele>
        <time>2023-05-14T12:58:18.000Z</time>
      </trkpt>
      <trkpt lat="45.82711" lon="4.63567">
        <ele>366.83847</ele>
        <time>2023-05-14T12:58:19.000Z</time>
      </trkpt>
      <trkpt lat="45.82714" lon="4.63568">
        <ele>366.98114</ele>
        <time>2023-05-14T12:58:20.000Z</time>
      </trkpt>
      <trkpt lat="45.82717" lon="4.63569">
        <ele>367.11127</ele>
        <time>2023-05-14T12:58:21.000Z</time>
      </trkpt>
      <trkpt lat="45.8272" lon="4.63569">
        <ele>367.19107</ele>
        <time>2023-05-14T12:58:22.000Z</time>
      </trkpt>
      <trkpt lat="45.82723" lon="4.6357">
        <ele>367.27533</ele>
        <time>2023-05-14T12:58:23.000Z</time>
      </trkpt>
      <trkpt lat="45.82726" lon="4.63571">
        <ele>367.3501</ele>
        <time>2023-05-14T12:58:24.000Z</time>
      </trkpt>
      <trkpt lat="45.82729" lon="4.63572">
        <ele>367.39206</ele>
        <time>2023-05-14T12:58:25.000Z</time>
      </trkpt>
      <trkpt lat="45.82732" lon="4.63573">
        <ele>367.62616</ele>
        <time>2023-05-14T12:58:26.000Z</time>
      </trkpt>
      <trkpt lat="45.82735" lon="4.63574">
        <ele>367.84979</ele>
        <time>2023-05-14T12:58:27.000Z</time>
      </trkpt>
      <trkpt lat="45.82738" lon="4.63575">
        <ele>368.11157</ele>
        <time>2023-05-14T12:58:28.000Z</time>
      </trkpt>
      <trkpt lat="45.82741" lon="4.63577">
        <ele>368.40765</ele>
        <time>2023-05-14T12:58:29.000Z</time>
      </trkpt>
      <trkpt lat="45.82744" lon="4.63578">
        <ele>368.5137</ele>
        <time>2023-05-14T12:58:30.000Z</time>
      </trkpt>
      <trkpt lat="45.82747" lon="4.63579">
        <ele>368.35098</ele>
        <time>2023-05-14T12:58:31.000Z</time>
      </trkpt>
      <trkpt lat="45.8275" lon="4.63581">
        <ele>368.16461</ele>
        <time>2023-05-14T12:58:32.000Z</time>
      </trkpt>
      <trkpt lat="45.82753" lon="4.63582">
        <ele>368.26495</ele>
        <time>2023-05-14T12:58:33.000Z</time>
      </trkpt>
      <trkpt lat="45.82757" lon="4.63583">
        <ele>368.34097</ele>
        <time>2023-05-14T12:58:34.000Z</time>
      </trkpt>
      <trkpt lat="45.8276" lon="4.63584">
        <ele>368.40231</ele>
        <time>2023-05-14T12:58:35.000Z</time>
      </trkpt>
      <trkpt lat="45.82763" lon="4.63585">
        <ele>368.44922</ele>
        <time>2023-05-14T12:58:36.000Z</time>
      </trkpt>
      <trkpt lat="45.82767" lon="4.63586">
        <ele>368.53647</ele>
        <time>2023-05-14T12:58:37.000Z</time>
      </trkpt>
      <trkpt lat="45.8277" lon="4.63587">
        <ele>368.66141</ele>
        <time>2023-05-14T12:58:38.000Z</time>
      </trkpt>
      <trkpt lat="45.82774" lon="4.63587">
        <ele>368.79727</ele>
        <time>2023-05-14T12:58:39.000Z</time>
      </trkpt>
      <trkpt lat="45.82778" lon="4.63587">
        <ele>368.96274</ele>
        <time>2023-05-14T12:58:40.000Z</time>
      </trkpt>
      <trkpt lat="45.82781" lon="4.63588">
        <ele>369.12222</ele>
        <time>2023-05-14T12:58:41.000Z</time>
      </trkpt>
      <trkpt lat="45.82785" lon="4.63589">
        <ele>369.104</ele>
        <time>2023-05-14T12:58:42.000Z</time>
      </trkpt>
      <trkpt lat="45.82789" lon="4.6359">
        <ele>369.08719</ele>
        <time>2023-05-14T12:58:43.000Z</time>
      </trkpt>
      <trkpt lat="45.82793" lon="4.6359">
        <ele>369.03513</ele>
        <time>2023-05-14T12:58:44.000Z</time>
      </trkpt>
      <trkpt lat="45.82797" lon="4.63591">
        <ele>369.00848</ele>
        <time>2023-05-14T12:58:45.000Z</time>
      </trkpt>
      <trkpt lat="45.828" lon="4.63592">
        <ele>369.271</ele>
        <time>2023-05-14T12:58:46.000Z</time>
      </trkpt>
      <trkpt lat="45.82803" lon="4.63593">
        <ele>369.49936</ele>
        <time>2023-05-14T12:58:47.000Z</time>
      </trkpt>
      <trkpt lat="45.82806" lon="4.63594">
        <ele>369.69232</ele>
        <time>2023-05-14T12:58:48.000Z</time>
      </trkpt>
      <trkpt lat="45.82808" lon="4.63594">
        <ele>369.92218</ele>
        <time>2023-05-14T12:58:49.000Z</time>
      </trkpt>
      <trkpt lat="45.8281" lon="4.63595">
        <ele>370.38232</ele>
        <time>2023-05-14T12:58:50.000Z</time>
      </trkpt>
      <trkpt lat="45.82812" lon="4.63596">
        <ele>370.82471</ele>
        <time>2023-05-14T12:58:51.000Z</time>
      </trkpt>
      <trkpt lat="45.82814" lon="4.63597">
        <ele>371.31088</ele>
        <time>2023-05-14T12:58:52.000Z</time>
      </trkpt>
      <trkpt lat="45.82816" lon="4.63597">
        <ele>371.51425</ele>
        <time>2023-05-14T12:58:53.000Z</time>
      </trkpt>
      <trkpt lat="45.82818" lon="4.63598">
        <ele>371.75525</ele>
        <time>2023-05-14T12:58:54.000Z</time>
      </trkpt>
      <trkpt lat="45.82821" lon="4.63599">
        <ele>372.03085</ele>
        <time>2023-05-14T12:58:56.000Z</time>
      </trkpt>
      <trkpt lat="45.82823" lon="4.63599">
        <ele>372.29871</ele>
        <time>2023-05-14T12:58:58.000Z</time>
      </trkpt>
      <trkpt lat="45.82826" lon="4.636">
        <ele>372.31757</ele>
        <time>2023-05-14T12:59:00.000Z</time>
      </trkpt>
      <trkpt lat="45.82829" lon="4.63601">
        <ele>371.87897</ele>
        <time>2023-05-14T12:59:01.000Z</time>
      </trkpt>
      <trkpt lat="45.82833" lon="4.63602">
        <ele>371.42865</ele>
        <time>2023-05-14T12:59:02.000Z</time>
      </trkpt>
      <trkpt lat="45.82837" lon="4.63603">
        <ele>370.94376</ele>
        <time>2023-05-14T12:59:03.000Z</time>
      </trkpt>
      <trkpt lat="45.82842" lon="4.63604">
        <ele>370.52246</ele>
        <time>2023-05-14T12:59:04.000Z</time>
      </trkpt>
      <trkpt lat="45.82846" lon="4.63605">
        <ele>370.27307</ele>
        <time>2023-05-14T12:59:05.000Z</time>
      </trkpt>
      <trkpt lat="45.8285" lon="4.63606">
        <ele>369.97272</ele>
        <time>2023-05-14T12:59:06.000Z</time>
      </trkpt>
      <trkpt lat="45.82854" lon="4.63609">
        <ele>369.70306</ele>
        <time>2023-05-14T12:59:07.000Z</time>
      </trkpt>
      <trkpt lat="45.82858" lon="4.63611">
        <ele>369.38763</ele>
        <time>2023-05-14T12:59:08.000Z</time>
      </trkpt>
      <trkpt lat="45.82862" lon="4.6361">
        <ele>368.75665</ele>
        <time>2023-05-14T12:59:09.000Z</time>
      </trkpt>
      <trkpt lat="45.82867" lon="4.6361">
        <ele>368.17371</ele>
        <time>2023-05-14T12:59:10.000Z</time>
      </trkpt>
      <trkpt lat="45.82871" lon="4.6361">
        <ele>367.58569</ele>
        <time>2023-05-14T12:59:11.000Z</time>
      </trkpt>
      <trkpt lat="45.82875" lon="4.63612">
        <ele>366.98145</ele>
        <time>2023-05-14T12:59:12.000Z</time>
      </trkpt>
      <trkpt lat="45.82879" lon="4.63615">
        <ele>366.35516</ele>
        <time>2023-05-14T12:59:13.000Z</time>
      </trkpt>
      <trkpt lat="45.82883" lon="4.63616">
        <ele>365.74445</ele>
        <time>2023-05-14T12:59:14.000Z</time>
      </trkpt>
      <trkpt lat="45.82887" lon="4.63617">
        <ele>365.11588</ele>
        <time>2023-05-14T12:59:15.000Z</time>
      </trkpt>
      <trkpt lat="45.82891" lon="4.63618">
        <ele>364.52899</ele>
        <time>2023-05-14T12:59:16.000Z</time>
      </trkpt>
      <trkpt lat="45.82895" lon="4.63619">
        <ele>363.89862</ele>
        <time>2023-05-14T12:59:17.000Z</time>
      </trkpt>
      <trkpt lat="45.82898" lon="4.6362">
        <ele>363.22589</ele>
        <time>2023-05-14T12:59:18.000Z</time>
      </trkpt>
      <trkpt lat="45.82901" lon="4.63621">
        <ele>362.57794</ele>
        <time>2023-05-14T12:59:19.000Z</time>
      </trkpt>
      <trkpt lat="45.82903" lon="4.63623">
        <ele>362.14471</ele>
        <time>2023-05-14T12:59:20.000Z</time>
      </trkpt>
      <trkpt lat="45.82906" lon="4.63623">
        <ele>362.13361</ele>
        <time>2023-05-14T12:59:21.000Z</time>
      </trkpt>
      <trkpt lat="45.82908" lon="4.63625">
        <ele>362.10944</ele>
        <time>2023-05-14T12:59:22.000Z</time>
      </trkpt>
      <trkpt lat="45.8291" lon="4.63626">
        <ele>362.09848</ele>
        <time>2023-05-14T12:59:23.000Z</time>
      </trkpt>
      <trkpt lat="45.82914" lon="4.63627">
        <ele>362.04083</ele>
        <time>2023-05-14T12:59:25.000Z</time>
      </trkpt>
      <trkpt lat="45.82915" lon="4.63628">
        <ele>361.97012</ele>
        <time>2023-05-14T12:59:26.000Z</time>
      </trkpt>
      <trkpt lat="45.82917" lon="4.63628">
        <ele>361.95749</ele>
        <time>2023-05-14T12:59:27.000Z</time>
      </trkpt>
      <trkpt lat="45.82919" lon="4.63629">
        <ele>361.97653</ele>
        <time>2023-05-14T12:59:28.000Z</time>
      </trkpt>
      <trkpt lat="45.82921" lon="4.6363">
        <ele>362.03864</ele>
        <time>2023-05-14T12:59:29.000Z</time>
      </trkpt>
      <trkpt lat="45.82923" lon="4.6363">
        <ele>361.60965</ele>
        <time>2023-05-14T12:59:30.000Z</time>
      </trkpt>
      <trkpt lat="45.82925" lon="4.63631">
        <ele>361.16553</ele>
        <time>2023-05-14T12:59:31.000Z</time>
      </trkpt>
      <trkpt lat="45.82927" lon="4.63632">
        <ele>360.71643</ele>
        <time>2023-05-14T12:59:32.000Z</time>
      </trkpt>
      <trkpt lat="45.82929" lon="4.63633">
        <ele>360.25845</ele>
        <time>2023-05-14T12:59:33.000Z</time>
      </trkpt>
      <trkpt lat="45.82931" lon="4.63635">
        <ele>359.7706</ele>
        <time>2023-05-14T12:59:34.000Z</time>
      </trkpt>
      <trkpt lat="45.82933" lon="4.63636">
        <ele>359.14484</ele>
        <time>2023-05-14T12:59:35.000Z</time>
      </trkpt>
      <trkpt lat="45.82934" lon="4.63637">
        <ele>359.31226</ele>
        <time>2023-05-14T12:59:36.000Z</time>
      </trkpt>
      <trkpt lat="45.82936" lon="4.63638">
        <ele>359.30432</ele>
        <time>2023-05-14T12:59:37.000Z</time>
      </trkpt>
      <trkpt lat="45.82938" lon="4.63639">
        <ele>359.31488</ele>
        <time>2023-05-14T12:59:38.000Z</time>
      </trkpt>
      <trkpt lat="45.8294" lon="4.63641">
        <ele>359.32318</ele>
        <time>2023-05-14T12:59:40.000Z</time>
      </trkpt>
      <trkpt lat="45.82943" lon="4.63644">
        <ele>359.30499</ele>
        <time>2023-05-14T12:59:42.000Z</time>
      </trkpt>
      <trkpt lat="45.82945" lon="4.63646">
        <ele>359.29767</ele>
        <time>2023-05-14T12:59:43.000Z</time>
      </trkpt>
      <trkpt lat="45.82948" lon="4.63648">
        <ele>359.27863</ele>
        <time>2023-05-14T12:59:44.000Z</time>
      </trkpt>
      <trkpt lat="45.82951" lon="4.63651">
        <ele>359.29245</ele>
        <time>2023-05-14T12:59:45.000Z</time>
      </trkpt>
      <trkpt lat="45.82954" lon="4.63654">
        <ele>359.29706</ele>
        <time>2023-05-14T12:59:46.000Z</time>
      </trkpt>
      <trkpt lat="45.82957" lon="4.63656">
        <ele>359.34738</ele>
        <time>2023-05-14T12:59:47.000Z</time>
      </trkpt>
      <trkpt lat="45.8296" lon="4.63659">
        <ele>359.38205</ele>
        <time>2023-05-14T12:59:48.000Z</time>
      </trkpt>
      <trkpt lat="45.82963" lon="4.63661">
        <ele>359.3891</ele>
        <time>2023-05-14T12:59:49.000Z</time>
      </trkpt>
      <trkpt lat="45.82965" lon="4.63663">
        <ele>359.38602</ele>
        <time>2023-05-14T12:59:50.000Z</time>
      </trkpt>
      <trkpt lat="45.82967" lon="4.63666">
        <ele>359.423</ele>
        <time>2023-05-14T12:59:51.000Z</time>
      </trkpt>
      <trkpt lat="45.8297" lon="4.63669">
        <ele>359.90265</ele>
        <time>2023-05-14T12:59:52.000Z</time>
      </trkpt>
      <trkpt lat="45.82972" lon="4.63672">
        <ele>360.39835</ele>
        <time>2023-05-14T12:59:53.000Z</time>
      </trkpt>
      <trkpt lat="45.82975" lon="4.63675">
        <ele>360.88492</ele>
        <time>2023-05-14T12:59:54.000Z</time>
      </trkpt>
      <trkpt lat="45.82979" lon="4.63677">
        <ele>361.35074</ele>
        <time>2023-05-14T12:59:55.000Z</time>
      </trkpt>
      <trkpt lat="45.82983" lon="4.63679">
        <ele>361.86005</ele>
        <time>2023-05-14T12:59:56.000Z</time>
      </trkpt>
      <trkpt lat="45.82988" lon="4.63682">
        <ele>362.47784</ele>
        <time>2023-05-14T12:59:57.000Z</time>
      </trkpt>
      <trkpt lat="45.82992" lon="4.63684">
        <ele>362.30438</ele>
        <time>2023-05-14T12:59:58.000Z</time>
      </trkpt>
      <trkpt lat="45.82997" lon="4.63688">
        <ele>362.2724</ele>
        <time>2023-05-14T12:59:59.000Z</time>
      </trkpt>
      <trkpt lat="45.83002" lon="4.63691">
        <ele>362.25714</ele>
        <time>2023-05-14T13:00:00.000Z</time>
      </trkpt>
      <trkpt lat="45.83008" lon="4.63695">
        <ele>362.2168</ele>
        <time>2023-05-14T13:00:01.000Z</time>
      </trkpt>
      <trkpt lat="45.83012" lon="4.63699">
        <ele>362.16635</ele>
        <time>2023-05-14T13:00:02.000Z</time>
      </trkpt>
      <trkpt lat="45.83016" lon="4.63703">
        <ele>361.64795</ele>
        <time>2023-05-14T13:00:03.000Z</time>
      </trkpt>
      <trkpt lat="45.83021" lon="4.63707">
        <ele>361.06699</ele>
        <time>2023-05-14T13:00:04.000Z</time>
      </trkpt>
      <trkpt lat="45.83025" lon="4.63711">
        <ele>360.47855</ele>
        <time>2023-05-14T13:00:05.000Z</time>
      </trkpt>
      <trkpt lat="45.8303" lon="4.63714">
        <ele>359.89502</ele>
        <time>2023-05-14T13:00:06.000Z</time>
      </trkpt>
      <trkpt lat="45.83035" lon="4.63718">
        <ele>359.11496</ele>
        <time>2023-05-14T13:00:07.000Z</time>
      </trkpt>
      <trkpt lat="45.8304" lon="4.63721">
        <ele>359.08719</ele>
        <time>2023-05-14T13:00:08.000Z</time>
      </trkpt>
      <trkpt lat="45.83045" lon="4.63724">
        <ele>358.93942</ele>
        <time>2023-05-14T13:00:09.000Z</time>
      </trkpt>
      <trkpt lat="45.8305" lon="4.63726">
        <ele>358.79572</ele>
        <time>2023-05-14T13:00:10.000Z</time>
      </trkpt>
      <trkpt lat="45.83056" lon="4.63729">
        <ele>358.59543</ele>
        <time>2023-05-14T13:00:11.000Z</time>
      </trkpt>
      <trkpt lat="45.8306" lon="4.63733">
        <ele>358.42307</ele>
        <time>2023-05-14T13:00:12.000Z</time>
      </trkpt>
      <trkpt lat="45.83065" lon="4.63738">
        <ele>358.23196</ele>
        <time>2023-05-14T13:00:13.000Z</time>
      </trkpt>
      <trkpt lat="45.8307" lon="4.63745">
        <ele>358.04672</ele>
        <time>2023-05-14T13:00:14.000Z</time>
      </trkpt>
      <trkpt lat="45.83075" lon="4.63749">
        <ele>357.88663</ele>
        <time>2023-05-14T13:00:15.000Z</time>
      </trkpt>
      <trkpt lat="45.8308" lon="4.63754">
        <ele>357.68756</ele>
        <time>2023-05-14T13:00:16.000Z</time>
      </trkpt>
      <trkpt lat="45.83086" lon="4.63758">
        <ele>357.47385</ele>
        <time>2023-05-14T13:00:17.000Z</time>
      </trkpt>
      <trkpt lat="45.83091" lon="4.63763">
        <ele>357.26837</ele>
        <time>2023-05-14T13:00:18.000Z</time>
      </trkpt>
      <trkpt lat="45.83097" lon="4.63768">
        <ele>357.07452</ele>
        <time>2023-05-14T13:00:19.000Z</time>
      </trkpt>
      <trkpt lat="45.83103" lon="4.63771">
        <ele>356.8414</ele>
        <time>2023-05-14T13:00:20.000Z</time>
      </trkpt>
      <trkpt lat="45.8311" lon="4.63773">
        <ele>356.16452</ele>
        <time>2023-05-14T13:00:21.000Z</time>
      </trkpt>
      <trkpt lat="45.83116" lon="4.63776">
        <ele>355.49997</ele>
        <time>2023-05-14T13:00:22.000Z</time>
      </trkpt>
      <trkpt lat="45.83122" lon="4.6378">
        <ele>355.2774</ele>
        <time>2023-05-14T13:00:23.000Z</time>
      </trkpt>
      <trkpt lat="45.83127" lon="4.63783">
        <ele>354.94299</ele>
        <time>2023-05-14T13:00:24.000Z</time>
      </trkpt>
      <trkpt lat="45.83133" lon="4.63786">
        <ele>355.36221</ele>
        <time>2023-05-14T13:00:25.000Z</time>
      </trkpt>
      <trkpt lat="45.83139" lon="4.63788">
        <ele>355.66559</ele>
        <time>2023-05-14T13:00:26.000Z</time>
      </trkpt>
      <trkpt lat="45.83145" lon="4.63792">
        <ele>356.15756</ele>
        <time>2023-05-14T13:00:27.000Z</time>
      </trkpt>
      <trkpt lat="45.83151" lon="4.63796">
        <ele>355.87085</ele>
        <time>2023-05-14T13:00:28.000Z</time>
      </trkpt>
      <trkpt lat="45.83157" lon="4.63799">
        <ele>355.74896</ele>
        <time>2023-05-14T13:00:29.000Z</time>
      </trkpt>
      <trkpt lat="45.83162" lon="4.63803">
        <ele>355.57257</ele>
        <time>2023-05-14T13:00:30.000Z</time>
      </trkpt>
      <trkpt lat="45.83168" lon="4.63807">
        <ele>355.35855</ele>
        <time>2023-05-14T13:00:31.000Z</time>
      </trkpt>
      <trkpt lat="45.83173" lon="4.63811">
        <ele>355.18082</ele>
        <time>2023-05-14T13:00:32.000Z</time>
      </trkpt>
      <trkpt lat="45.83179" lon="4.63817">
        <ele>354.98401</ele>
        <time>2023-05-14T13:00:33.000Z</time>
      </trkpt>
      <trkpt lat="45.83184" lon="4.63821">
        <ele>354.81082</ele>
        <time>2023-05-14T13:00:34.000Z</time>
      </trkpt>
      <trkpt lat="45.83191" lon="4.63823">
        <ele>354.61304</ele>
        <time>2023-05-14T13:00:35.000Z</time>
      </trkpt>
      <trkpt lat="45.83197" lon="4.63828">
        <ele>354.41019</ele>
        <time>2023-05-14T13:00:36.000Z</time>
      </trkpt>
      <trkpt lat="45.83204" lon="4.63831">
        <ele>354.21869</ele>
        <time>2023-05-14T13:00:37.000Z</time>
      </trkpt>
      <trkpt lat="45.83209" lon="4.63835">
        <ele>354.00519</ele>
        <time>2023-05-14T13:00:38.000Z</time>
      </trkpt>
      <trkpt lat="45.83216" lon="4.63839">
        <ele>353.74054</ele>
        <time>2023-05-14T13:00:39.000Z</time>
      </trkpt>
      <trkpt lat="45.83222" lon="4.63844">
        <ele>353.51523</ele>
        <time>2023-05-14T13:00:40.000Z</time>
      </trkpt>
      <trkpt lat="45.83228" lon="4.63848">
        <ele>353.74811</ele>
        <time>2023-05-14T13:00:41.000Z</time>
      </trkpt>
      <trkpt lat="45.83232" lon="4.63852">
        <ele>353.98627</ele>
        <time>2023-05-14T13:00:42.000Z</time>
      </trkpt>
      <trkpt lat="45.83237" lon="4.63856">
        <ele>353.69058</ele>
        <time>2023-05-14T13:00:43.000Z</time>
      </trkpt>
      <trkpt lat="45.83241" lon="4.63859">
        <ele>354.16077</ele>
        <time>2023-05-14T13:00:44.000Z</time>
      </trkpt>
      <trkpt lat="45.83244" lon="4.63862">
        <ele>354.16553</ele>
        <time>2023-05-14T13:00:45.000Z</time>
      </trkpt>
      <trkpt lat="45.83247" lon="4.63865">
        <ele>353.8996</ele>
        <time>2023-05-14T13:00:46.000Z</time>
      </trkpt>
      <trkpt lat="45.83248" lon="4.63868">
        <ele>353.61987</ele>
        <time>2023-05-14T13:01:21.000Z</time>
      </trkpt>
      <trkpt lat="45.83249" lon="4.63872">
        <ele>353.40543</ele>
        <time>2023-05-14T13:01:22.000Z</time>
      </trkpt>
      <trkpt lat="45.83247" lon="4.63878">
        <ele>353.16299</ele>
        <time>2023-05-14T13:01:23.000Z</time>
      </trkpt>
      <trkpt lat="45.83245" lon="4.63883">
        <ele>352.96161</ele>
        <time>2023-05-14T13:01:24.000Z</time>
      </trkpt>
      <trkpt lat="45.83242" lon="4.6389">
        <ele>352.80939</ele>
        <time>2023-05-14T13:01:25.000Z</time>
      </trkpt>
      <trkpt lat="45.83239" lon="4.63896">
        <ele>352.66367</ele>
        <time>2023-05-14T13:01:26.000Z</time>
      </trkpt>
      <trkpt lat="45.83236" lon="4.63903">
        <ele>352.53339</ele>
        <time>2023-05-14T13:01:27.000Z</time>
      </trkpt>
      <trkpt lat="45.83232" lon="4.63909">
        <ele>352.10391</ele>
        <time>2023-05-14T13:01:28.000Z</time>
      </trkpt>
      <trkpt lat="45.83229" lon="4.63916">
        <ele>351.67569</ele>
        <time>2023-05-14T13:01:29.000Z</time>
      </trkpt>
      <trkpt lat="45.83227" lon="4.63922">
        <ele>351.25388</ele>
        <time>2023-05-14T13:01:30.000Z</time>
      </trkpt>
      <trkpt lat="45.83225" lon="4.6393">
        <ele>350.85052</ele>
        <time>2023-05-14T13:01:31.000Z</time>
      </trkpt>
      <trkpt lat="45.83222" lon="4.63937">
        <ele>350.44785</ele>
        <time>2023-05-14T13:01:32.000Z</time>
      </trkpt>
      <trkpt lat="45.83219" lon="4.63945">
        <ele>350.06589</ele>
        <time>2023-05-14T13:01:33.000Z</time>
      </trkpt>
      <trkpt lat="45.83216" lon="4.63952">
        <ele>350.46118</ele>
        <time>2023-05-14T13:01:34.000Z</time>
      </trkpt>
      <trkpt lat="45.83213" lon="4.6396">
        <ele>350.86215</ele>
        <time>2023-05-14T13:01:35.000Z</time>
      </trkpt>
      <trkpt lat="45.8321" lon="4.63967">
        <ele>351.66513</ele>
        <time>2023-05-14T13:01:36.000Z</time>
      </trkpt>
      <trkpt lat="45.83207" lon="4.63975">
        <ele>353.01825</ele>
        <time>2023-05-14T13:01:37.000Z</time>
      </trkpt>
      <trkpt lat="45.83205" lon="4.63982">
        <ele>353.77023</ele>
        <time>2023-05-14T13:01:38.000Z</time>
      </trkpt>
      <trkpt lat="45.83202" lon="4.6399">
        <ele>354.21777</ele>
        <time>2023-05-14T13:01:39.000Z</time>
      </trkpt>
      <trkpt lat="45.83199" lon="4.63996">
        <ele>355.01495</ele>
        <time>2023-05-14T13:01:40.000Z</time>
      </trkpt>
      <trkpt lat="45.83197" lon="4.64002">
        <ele>355.79144</ele>
        <time>2023-05-14T13:01:41.000Z</time>
      </trkpt>
      <trkpt lat="45.83195" lon="4.64008">
        <ele>356.54099</ele>
        <time>2023-05-14T13:01:42.000Z</time>
      </trkpt>
      <trkpt lat="45.83193" lon="4.64014">
        <ele>357.26587</ele>
        <time>2023-05-14T13:01:43.000Z</time>
      </trkpt>
      <trkpt lat="45.83189" lon="4.64017">
        <ele>357.9931</ele>
        <time>2023-05-14T13:01:44.000Z</time>
      </trkpt>
      <trkpt lat="45.83186" lon="4.6402">
        <ele>358.69965</ele>
        <time>2023-05-14T13:01:45.000Z</time>
      </trkpt>
      <trkpt lat="45.83181" lon="4.64023">
        <ele>359.38852</ele>
        <time>2023-05-14T13:01:46.000Z</time>
      </trkpt>
      <trkpt lat="45.83177" lon="4.64025">
        <ele>360.08154</ele>
        <time>2023-05-14T13:01:47.000Z</time>
      </trkpt>
      <trkpt lat="45.83173" lon="4.64028">
        <ele>361.06268</ele>
        <time>2023-05-14T13:01:48.000Z</time>
      </trkpt>
      <trkpt lat="45.83169" lon="4.64031">
        <ele>361.60785</ele>
        <time>2023-05-14T13:01:49.000Z</time>
      </trkpt>
      <trkpt lat="45.83165" lon="4.64035">
        <ele>362.06537</ele>
        <time>2023-05-14T13:01:50.000Z</time>
      </trkpt>
      <trkpt lat="45.83161" lon="4.64038">
        <ele>362.45377</ele>
        <time>2023-05-14T13:01:51.000Z</time>
      </trkpt>
      <trkpt lat="45.83157" lon="4.6404">
        <ele>362.86136</ele>
        <time>2023-05-14T13:01:52.000Z</time>
      </trkpt>
      <trkpt lat="45.83153" lon="4.64043">
        <ele>363.50385</ele>
        <time>2023-05-14T13:01:53.000Z</time>
      </trkpt>
      <trkpt lat="45.83149" lon="4.64046">
        <ele>363.31836</ele>
        <time>2023-05-14T13:01:54.000Z</time>
      </trkpt>
      <trkpt lat="45.83144" lon="4.6405">
        <ele>362.94</ele>
        <time>2023-05-14T13:01:55.000Z</time>
      </trkpt>
      <trkpt lat="45.8314" lon="4.64053">
        <ele>362.78839</ele>
        <time>2023-05-14T13:01:56.000Z</time>
      </trkpt>
      <trkpt lat="45.83136" lon="4.64056">
        <ele>362.66986</ele>
        <time>2023-05-14T13:01:57.000Z</time>
      </trkpt>
      <trkpt lat="45.83132" lon="4.64059">
        <ele>362.57983</ele>
        <time>2023-05-14T13:01:58.000Z</time>
      </trkpt>
      <trkpt lat="45.83127" lon="4.64063">
        <ele>362.50864</ele>
        <time>2023-05-14T13:01:59.000Z</time>
      </trkpt>
      <trkpt lat="45.83123" lon="4.64066">
        <ele>362.45047</ele>
        <time>2023-05-14T13:02:00.000Z</time>
      </trkpt>
      <trkpt lat="45.83119" lon="4.64069">
        <ele>362.36084</ele>
        <time>2023-05-14T13:02:01.000Z</time>
      </trkpt>
      <trkpt lat="45.83115" lon="4.64072">
        <ele>362.3233</ele>
        <time>2023-05-14T13:02:02.000Z</time>
      </trkpt>
      <trkpt lat="45.8311" lon="4.64075">
        <ele>362.29248</ele>
        <time>2023-05-14T13:02:03.000Z</time>
      </trkpt>
      <trkpt lat="45.83107" lon="4.64078">
        <ele>362.25119</ele>
        <time>2023-05-14T13:02:04.000Z</time>
      </trkpt>
      <trkpt lat="45.83102" lon="4.6408">
        <ele>362.2377</ele>
        <time>2023-05-14T13:02:05.000Z</time>
      </trkpt>
      <trkpt lat="45.83098" lon="4.64083">
        <ele>362.17468</ele>
        <time>2023-05-14T13:02:06.000Z</time>
      </trkpt>
      <trkpt lat="45.83094" lon="4.64086">
        <ele>362.117</ele>
        <time>2023-05-14T13:02:07.000Z</time>
      </trkpt>
      <trkpt lat="45.83088" lon="4.64088">
        <ele>362.05707</ele>
        <time>2023-05-14T13:02:08.000Z</time>
      </trkpt>
      <trkpt lat="45.83084" lon="4.64091">
        <ele>362.43985</ele>
        <time>2023-05-14T13:02:09.000Z</time>
      </trkpt>
      <trkpt lat="45.8308" lon="4.64093">
        <ele>362.91681</ele>
        <time>2023-05-14T13:02:10.000Z</time>
      </trkpt>
      <trkpt lat="45.83075" lon="4.64095">
        <ele>363.43964</ele>
        <time>2023-05-14T13:02:11.000Z</time>
      </trkpt>
      <trkpt lat="45.83071" lon="4.64098">
        <ele>363.94592</ele>
        <time>2023-05-14T13:02:12.000Z</time>
      </trkpt>
      <trkpt lat="45.83067" lon="4.64101">
        <ele>364.18787</ele>
        <time>2023-05-14T13:02:13.000Z</time>
      </trkpt>
      <trkpt lat="45.83062" lon="4.64105">
        <ele>364.49622</ele>
        <time>2023-05-14T13:02:14.000Z</time>
      </trkpt>
      <trkpt lat="45.83058" lon="4.64109">
        <ele>364.99741</ele>
        <time>2023-05-14T13:02:15.000Z</time>
      </trkpt>
      <trkpt lat="45.83054" lon="4.64113">
        <ele>364.84161</ele>
        <time>2023-05-14T13:02:16.000Z</time>
      </trkpt>
      <trkpt lat="45.83049" lon="4.64117">
        <ele>364.67499</ele>
        <time>2023-05-14T13:02:17.000Z</time>
      </trkpt>
      <trkpt lat="45.83045" lon="4.6412">
        <ele>364.50342</ele>
        <time>2023-05-14T13:02:18.000Z</time>
      </trkpt>
      <trkpt lat="45.83041" lon="4.64123">
        <ele>364.26019</ele>
        <time>2023-05-14T13:02:19.000Z</time>
      </trkpt>
      <trkpt lat="45.83036" lon="4.64125">
        <ele>364.04822</ele>
        <time>2023-05-14T13:02:20.000Z</time>
      </trkpt>
      <trkpt lat="45.83031" lon="4.64128">
        <ele>363.88144</ele>
        <time>2023-05-14T13:02:21.000Z</time>
      </trkpt>
      <trkpt lat="45.83027" lon="4.6413">
        <ele>363.68011</ele>
        <time>2023-05-14T13:02:22.000Z</time>
      </trkpt>
      <trkpt lat="45.83022" lon="4.64132">
        <ele>363.49161</ele>
        <time>2023-05-14T13:02:23.000Z</time>
      </trkpt>
      <trkpt lat="45.83018" lon="4.64134">
        <ele>363.30267</ele>
        <time>2023-05-14T13:02:24.000Z</time>
      </trkpt>
      <trkpt lat="45.83012" lon="4.64136">
        <ele>363.09491</ele>
        <time>2023-05-14T13:02:25.000Z</time>
      </trkpt>
      <trkpt lat="45.83007" lon="4.6414">
        <ele>362.90839</ele>
        <time>2023-05-14T13:02:26.000Z</time>
      </trkpt>
      <trkpt lat="45.83001" lon="4.64143">
        <ele>362.70715</ele>
        <time>2023-05-14T13:02:27.000Z</time>
      </trkpt>
      <trkpt lat="45.82996" lon="4.64145">
        <ele>362.48471</ele>
        <time>2023-05-14T13:02:28.000Z</time>
      </trkpt>
      <trkpt lat="45.8299" lon="4.64147">
        <ele>362.26352</ele>
        <time>2023-05-14T13:02:29.000Z</time>
      </trkpt>
      <trkpt lat="45.82985" lon="4.6415">
        <ele>362.04736</ele>
        <time>2023-05-14T13:02:30.000Z</time>
      </trkpt>
      <trkpt lat="45.82979" lon="4.64153">
        <ele>361.87711</ele>
        <time>2023-05-14T13:02:31.000Z</time>
      </trkpt>
      <trkpt lat="45.82974" lon="4.64156">
        <ele>361.73886</ele>
        <time>2023-05-14T13:02:32.000Z</time>
      </trkpt>
      <trkpt lat="45.82969" lon="4.64158">
        <ele>361.61664</ele>
        <time>2023-05-14T13:02:33.000Z</time>
      </trkpt>
      <trkpt lat="45.82964" lon="4.64161">
        <ele>361.44119</ele>
        <time>2023-05-14T13:02:34.000Z</time>
      </trkpt>
      <trkpt lat="45.82959" lon="4.64164">
        <ele>361.27155</ele>
        <time>2023-05-14T13:02:35.000Z</time>
      </trkpt>
      <trkpt lat="45.82953" lon="4.64167">
        <ele>361.11618</ele>
        <time>2023-05-14T13:02:36.000Z</time>
      </trkpt>
      <trkpt lat="45.82947" lon="4.64171">
        <ele>361.02637</ele>
        <time>2023-05-14T13:02:37.000Z</time>
      </trkpt>
      <trkpt lat="45.82941" lon="4.64175">
        <ele>360.78418</ele>
        <time>2023-05-14T13:02:38.000Z</time>
      </trkpt>
      <trkpt lat="45.82936" lon="4.64179">
        <ele>360.03848</ele>
        <time>2023-05-14T13:02:39.000Z</time>
      </trkpt>
      <trkpt lat="45.8293" lon="4.64184">
        <ele>359.18277</ele>
        <time>2023-05-14T13:02:40.000Z</time>
      </trkpt>
      <trkpt lat="45.82924" lon="4.6419">
        <ele>358.47568</ele>
        <time>2023-05-14T13:02:41.000Z</time>
      </trkpt>
      <trkpt lat="45.82919" lon="4.64195">
        <ele>357.67093</ele>
        <time>2023-05-14T13:02:42.000Z</time>
      </trkpt>
      <trkpt lat="45.82912" lon="4.642">
        <ele>356.82996</ele>
        <time>2023-05-14T13:02:43.000Z</time>
      </trkpt>
      <trkpt lat="45.82907" lon="4.64206">
        <ele>355.95428</ele>
        <time>2023-05-14T13:02:44.000Z</time>
      </trkpt>
      <trkpt lat="45.82902" lon="4.64213">
        <ele>355.04962</ele>
        <time>2023-05-14T13:02:45.000Z</time>
      </trkpt>
      <trkpt lat="45.82896" lon="4.6422">
        <ele>354.12286</ele>
        <time>2023-05-14T13:02:46.000Z</time>
      </trkpt>
      <trkpt lat="45.82889" lon="4.64227">
        <ele>353.15329</ele>
        <time>2023-05-14T13:02:47.000Z</time>
      </trkpt>
      <trkpt lat="45.82883" lon="4.64236">
        <ele>352.16757</ele>
        <time>2023-05-14T13:02:48.000Z</time>
      </trkpt>
      <trkpt lat="45.82877" lon="4.64243">
        <ele>351.14633</ele>
        <time>2023-05-14T13:02:49.000Z</time>
      </trkpt>
      <trkpt lat="45.8287" lon="4.6425">
        <ele>350.10776</ele>
        <time>2023-05-14T13:02:50.000Z</time>
      </trkpt>
      <trkpt lat="45.82864" lon="4.64258">
        <ele>349.03671</ele>
        <time>2023-05-14T13:02:51.000Z</time>
      </trkpt>
      <trkpt lat="45.82856" lon="4.64266">
        <ele>347.92523</ele>
        <time>2023-05-14T13:02:52.000Z</time>
      </trkpt>
      <trkpt lat="45.8285" lon="4.64274">
        <ele>346.81073</ele>
        <time>2023-05-14T13:02:53.000Z</time>
      </trkpt>
      <trkpt lat="45.82844" lon="4.64284">
        <ele>345.70172</ele>
        <time>2023-05-14T13:02:54.000Z</time>
      </trkpt>
      <trkpt lat="45.8284" lon="4.64288">
        <ele>344.58234</ele>
        <time>2023-05-14T13:02:55.000Z</time>
      </trkpt>
      <trkpt lat="45.82835" lon="4.64293">
        <ele>343.50293</ele>
        <time>2023-05-14T13:02:56.000Z</time>
      </trkpt>
      <trkpt lat="45.82831" lon="4.64298">
        <ele>342.30652</ele>
        <time>2023-05-14T13:02:57.000Z</time>
      </trkpt>
      <trkpt lat="45.82827" lon="4.64302">
        <ele>341.27133</ele>
        <time>2023-05-14T13:02:58.000Z</time>
      </trkpt>
      <trkpt lat="45.82823" lon="4.64307">
        <ele>340.7941</ele>
        <time>2023-05-14T13:02:59.000Z</time>
      </trkpt>
      <trkpt lat="45.8282" lon="4.64311">
        <ele>340.37515</ele>
        <time>2023-05-14T13:03:00.000Z</time>
      </trkpt>
      <trkpt lat="45.82817" lon="4.64314">
        <ele>339.76947</ele>
        <time>2023-05-14T13:03:01.000Z</time>
      </trkpt>
      <trkpt lat="45.82815" lon="4.64317">
        <ele>338.72839</ele>
        <time>2023-05-14T13:03:02.000Z</time>
      </trkpt>
      <trkpt lat="45.82813" lon="4.6432">
        <ele>337.80023</ele>
        <time>2023-05-14T13:03:03.000Z</time>
      </trkpt>
      <trkpt lat="45.82812" lon="4.64322">
        <ele>336.9147</ele>
        <time>2023-05-14T13:03:04.000Z</time>
      </trkpt>
      <trkpt lat="45.82811" lon="4.64325">
        <ele>335.82947</ele>
        <time>2023-05-14T13:03:06.000Z</time>
      </trkpt>
      <trkpt lat="45.82811" lon="4.64322">
        <ele>334.97333</ele>
        <time>2023-05-14T13:03:12.000Z</time>
      </trkpt>
      <trkpt lat="45.8281" lon="4.64325">
        <ele>334.20135</ele>
        <time>2023-05-14T13:03:26.000Z</time>
      </trkpt>
      <trkpt lat="45.82808" lon="4.64329">
        <ele>333.23639</ele>
        <time>2023-05-14T13:03:28.000Z</time>
      </trkpt>
      <trkpt lat="45.82808" lon="4.64333">
        <ele>332.64474</ele>
        <time>2023-05-14T13:03:29.000Z</time>
      </trkpt>
      <trkpt lat="45.82807" lon="4.64336">
        <ele>331.98669</ele>
        <time>2023-05-14T13:03:30.000Z</time>
      </trkpt>
      <trkpt lat="45.82805" lon="4.6434">
        <ele>331.43716</ele>
        <time>2023-05-14T13:03:31.000Z</time>
      </trkpt>
      <trkpt lat="45.82802" lon="4.64345">
        <ele>330.87961</ele>
        <time>2023-05-14T13:03:32.000Z</time>
      </trkpt>
      <trkpt lat="45.828" lon="4.64349">
        <ele>330.33142</ele>
        <time>2023-05-14T13:03:33.000Z</time>
      </trkpt>
      <trkpt lat="45.82795" lon="4.64355">
        <ele>329.79102</ele>
        <time>2023-05-14T13:03:34.000Z</time>
      </trkpt>
      <trkpt lat="45.82791" lon="4.6436">
        <ele>329.2648</ele>
        <time>2023-05-14T13:03:35.000Z</time>
      </trkpt>
      <trkpt lat="45.82785" lon="4.64366">
        <ele>328.68073</ele>
        <time>2023-05-14T13:03:36.000Z</time>
      </trkpt>
      <trkpt lat="45.8278" lon="4.64372">
        <ele>328.1037</ele>
        <time>2023-05-14T13:03:37.000Z</time>
      </trkpt>
      <trkpt lat="45.82775" lon="4.64379">
        <ele>327.49854</ele>
        <time>2023-05-14T13:03:38.000Z</time>
      </trkpt>
      <trkpt lat="45.82769" lon="4.64384">
        <ele>326.65552</ele>
        <time>2023-05-14T13:03:39.000Z</time>
      </trkpt>
      <trkpt lat="45.82764" lon="4.6439">
        <ele>325.86993</ele>
        <time>2023-05-14T13:03:40.000Z</time>
      </trkpt>
      <trkpt lat="45.82758" lon="4.64396">
        <ele>325.07434</ele>
        <time>2023-05-14T13:03:41.000Z</time>
      </trkpt>
      <trkpt lat="45.82753" lon="4.64402">
        <ele>324.81729</ele>
        <time>2023-05-14T13:03:42.000Z</time>
      </trkpt>
      <trkpt lat="45.82749" lon="4.64405">
        <ele>324.45166</ele>
        <time>2023-05-14T13:03:43.000Z</time>
      </trkpt>
      <trkpt lat="45.82744" lon="4.64409">
        <ele>324.08096</ele>
        <time>2023-05-14T13:03:44.000Z</time>
      </trkpt>
      <trkpt lat="45.8274" lon="4.64414">
        <ele>323.93051</ele>
        <time>2023-05-14T13:03:45.000Z</time>
      </trkpt>
      <trkpt lat="45.82738" lon="4.64419">
        <ele>323.61227</ele>
        <time>2023-05-14T13:03:46.000Z</time>
      </trkpt>
      <trkpt lat="45.82734" lon="4.64424">
        <ele>323.24625</ele>
        <time>2023-05-14T13:03:47.000Z</time>
      </trkpt>
      <trkpt lat="45.8273" lon="4.64429">
        <ele>323.09656</ele>
        <time>2023-05-14T13:03:48.000Z</time>
      </trkpt>
      <trkpt lat="45.82726" lon="4.64433">
        <ele>322.83612</ele>
        <time>2023-05-14T13:03:49.000Z</time>
      </trkpt>
      <trkpt lat="45.82721" lon="4.64439">
        <ele>322.61472</ele>
        <time>2023-05-14T13:03:50.000Z</time>
      </trkpt>
      <trkpt lat="45.82716" lon="4.64445">
        <ele>322.16797</ele>
        <time>2023-05-14T13:03:51.000Z</time>
      </trkpt>
      <trkpt lat="45.82714" lon="4.64448">
        <ele>321.74179</ele>
        <time>2023-05-14T13:03:52.000Z</time>
      </trkpt>
      <trkpt lat="45.82712" lon="4.6445">
        <ele>321.3251</ele>
        <time>2023-05-14T13:03:53.000Z</time>
      </trkpt>
      <trkpt lat="45.8271" lon="4.64453">
        <ele>320.94</ele>
        <time>2023-05-14T13:03:54.000Z</time>
      </trkpt>
      <trkpt lat="45.82707" lon="4.64453">
        <ele>320.59518</ele>
        <time>2023-05-14T13:03:56.000Z</time>
      </trkpt>
      <trkpt lat="45.82706" lon="4.64455">
        <ele>320.26572</ele>
        <time>2023-05-14T13:03:57.000Z</time>
      </trkpt>
      <trkpt lat="45.82703" lon="4.64458">
        <ele>319.84869</ele>
        <time>2023-05-14T13:03:59.000Z</time>
      </trkpt>
      <trkpt lat="45.82701" lon="4.6446">
        <ele>319.41656</ele>
        <time>2023-05-14T13:04:00.000Z</time>
      </trkpt>
      <trkpt lat="45.82699" lon="4.64462">
        <ele>319.25345</ele>
        <time>2023-05-14T13:04:01.000Z</time>
      </trkpt>
      <trkpt lat="45.82697" lon="4.64464">
        <ele>319.0647</ele>
        <time>2023-05-14T13:04:02.000Z</time>
      </trkpt>
      <trkpt lat="45.82695" lon="4.64467">
        <ele>318.83502</ele>
        <time>2023-05-14T13:04:03.000Z</time>
      </trkpt>
      <trkpt lat="45.82692" lon="4.64469">
        <ele>318.63623</ele>
        <time>2023-05-14T13:04:04.000Z</time>
      </trkpt>
      <trkpt lat="45.8269" lon="4.64472">
        <ele>318.66583</ele>
        <time>2023-05-14T13:04:05.000Z</time>
      </trkpt>
      <trkpt lat="45.82689" lon="4.64473">
        <ele>318.60098</ele>
        <time>2023-05-14T13:04:06.000Z</time>
      </trkpt>
      <trkpt lat="45.82687" lon="4.64476">
        <ele>318.49176</ele>
        <time>2023-05-14T13:04:07.000Z</time>
      </trkpt>
      <trkpt lat="45.82686" lon="4.64479">
        <ele>318.34689</ele>
        <time>2023-05-14T13:04:08.000Z</time>
      </trkpt>
      <trkpt lat="45.82684" lon="4.64482">
        <ele>318.2027</ele>
        <time>2023-05-14T13:04:09.000Z</time>
      </trkpt>
      <trkpt lat="45.82682" lon="4.64485">
        <ele>318.03732</ele>
        <time>2023-05-14T13:04:10.000Z</time>
      </trkpt>
      <trkpt lat="45.82679" lon="4.64489">
        <ele>317.66644</ele>
        <time>2023-05-14T13:04:11.000Z</time>
      </trkpt>
      <trkpt lat="45.82677" lon="4.64493">
        <ele>317.31772</ele>
        <time>2023-05-14T13:04:12.000Z</time>
      </trkpt>
      <trkpt lat="45.82674" lon="4.64497">
        <ele>317.0878</ele>
        <time>2023-05-14T13:04:13.000Z</time>
      </trkpt>
      <trkpt lat="45.82672" lon="4.64501">
        <ele>316.78448</ele>
        <time>2023-05-14T13:04:14.000Z</time>
      </trkpt>
      <trkpt lat="45.82671" lon="4.64505">
        <ele>316.39056</ele>
        <time>2023-05-14T13:04:15.000Z</time>
      </trkpt>
      <trkpt lat="45.82669" lon="4.64509">
        <ele>315.95667</ele>
        <time>2023-05-14T13:04:16.000Z</time>
      </trkpt>
      <trkpt lat="45.82667" lon="4.64512">
        <ele>315.64609</ele>
        <time>2023-05-14T13:04:17.000Z</time>
      </trkpt>
      <trkpt lat="45.82665" lon="4.64516">
        <ele>315.30545</ele>
        <time>2023-05-14T13:04:18.000Z</time>
      </trkpt>
      <trkpt lat="45.82664" lon="4.64519">
        <ele>315.04797</ele>
        <time>2023-05-14T13:04:19.000Z</time>
      </trkpt>
      <trkpt lat="45.82662" lon="4.64522">
        <ele>314.75943</ele>
        <time>2023-05-14T13:04:20.000Z</time>
      </trkpt>
      <trkpt lat="45.8266" lon="4.64527">
        <ele>314.5177</ele>
        <time>2023-05-14T13:04:21.000Z</time>
      </trkpt>
      <trkpt lat="45.82658" lon="4.64531">
        <ele>314.2916</ele>
        <time>2023-05-14T13:04:22.000Z</time>
      </trkpt>
      <trkpt lat="45.82657" lon="4.64534">
        <ele>314.16309</ele>
        <time>2023-05-14T13:04:23.000Z</time>
      </trkpt>
      <trkpt lat="45.82656" lon="4.64537">
        <ele>313.99893</ele>
        <time>2023-05-14T13:04:24.000Z</time>
      </trkpt>
      <trkpt lat="45.82653" lon="4.64541">
        <ele>313.61383</ele>
        <time>2023-05-14T13:04:25.000Z</time>
      </trkpt>
      <trkpt lat="45.82651" lon="4.64545">
        <ele>313.34351</ele>
        <time>2023-05-14T13:04:26.000Z</time>
      </trkpt>
      <trkpt lat="45.82648" lon="4.64549">
        <ele>313.12994</ele>
        <time>2023-05-14T13:04:27.000Z</time>
      </trkpt>
      <trkpt lat="45.82646" lon="4.64553">
        <ele>312.93948</ele>
        <time>2023-05-14T13:04:28.000Z</time>
      </trkpt>
      <trkpt lat="45.82643" lon="4.64556">
        <ele>312.63922</ele>
        <time>2023-05-14T13:04:29.000Z</time>
      </trkpt>
      <trkpt lat="45.82639" lon="4.6456">
        <ele>312.35419</ele>
        <time>2023-05-14T13:04:30.000Z</time>
      </trkpt>
      <trkpt lat="45.82634" lon="4.64567">
        <ele>312.03799</ele>
        <time>2023-05-14T13:04:31.000Z</time>
      </trkpt>
      <trkpt lat="45.82631" lon="4.64573">
        <ele>311.70288</ele>
        <time>2023-05-14T13:04:32.000Z</time>
      </trkpt>
      <trkpt lat="45.82628" lon="4.64575">
        <ele>311.40656</ele>
        <time>2023-05-14T13:04:33.000Z</time>
      </trkpt>
      <trkpt lat="45.82625" lon="4.64578">
        <ele>311.16837</ele>
        <time>2023-05-14T13:04:34.000Z</time>
      </trkpt>
      <trkpt lat="45.82622" lon="4.64584">
        <ele>311.07861</ele>
        <time>2023-05-14T13:04:35.000Z</time>
      </trkpt>
      <trkpt lat="45.82619" lon="4.64589">
        <ele>310.9816</ele>
        <time>2023-05-14T13:04:36.000Z</time>
      </trkpt>
      <trkpt lat="45.82617" lon="4.64592">
        <ele>310.71283</ele>
        <time>2023-05-14T13:04:37.000Z</time>
      </trkpt>
      <trkpt lat="45.82615" lon="4.64596">
        <ele>310.49341</ele>
        <time>2023-05-14T13:04:38.000Z</time>
      </trkpt>
      <trkpt lat="45.82613" lon="4.646">
        <ele>310.271</ele>
        <time>2023-05-14T13:04:39.000Z</time>
      </trkpt>
      <trkpt lat="45.8261" lon="4.64603">
        <ele>310.06815</ele>
        <time>2023-05-14T13:04:40.000Z</time>
      </trkpt>
      <trkpt lat="45.8261" lon="4.64606">
        <ele>309.70779</ele>
        <time>2023-05-14T13:04:41.000Z</time>
      </trkpt>
      <trkpt lat="45.82608" lon="4.64609">
        <ele>309.82214</ele>
        <time>2023-05-14T13:04:42.000Z</time>
      </trkpt>
      <trkpt lat="45.82607" lon="4.64612">
        <ele>309.87869</ele>
        <time>2023-05-14T13:04:43.000Z</time>
      </trkpt>
      <trkpt lat="45.82606" lon="4.64616">
        <ele>309.93002</ele>
        <time>2023-05-14T13:04:44.000Z</time>
      </trkpt>
      <trkpt lat="45.82604" lon="4.6462">
        <ele>309.95514</ele>
        <time>2023-05-14T13:04:45.000Z</time>
      </trkpt>
      <trkpt lat="45.82602" lon="4.64626">
        <ele>309.94968</ele>
        <time>2023-05-14T13:04:46.000Z</time>
      </trkpt>
      <trkpt lat="45.826" lon="4.64632">
        <ele>309.92047</ele>
        <time>2023-05-14T13:04:47.000Z</time>
      </trkpt>
      <trkpt lat="45.82599" lon="4.64636">
        <ele>309.9278</ele>
        <time>2023-05-14T13:04:48.000Z</time>
      </trkpt>
      <trkpt lat="45.82597" lon="4.64642">
        <ele>310.08713</ele>
        <time>2023-05-14T13:04:49.000Z</time>
      </trkpt>
      <trkpt lat="45.82594" lon="4.64648">
        <ele>310.1965</ele>
        <time>2023-05-14T13:04:50.000Z</time>
      </trkpt>
      <trkpt lat="45.82592" lon="4.64655">
        <ele>310.3486</ele>
        <time>2023-05-14T13:04:51.000Z</time>
      </trkpt>
      <trkpt lat="45.8259" lon="4.64661">
        <ele>310.52444</ele>
        <time>2023-05-14T13:04:52.000Z</time>
      </trkpt>
      <trkpt lat="45.82589" lon="4.64666">
        <ele>310.69623</ele>
        <time>2023-05-14T13:04:53.000Z</time>
      </trkpt>
      <trkpt lat="45.82588" lon="4.64672">
        <ele>310.90039</ele>
        <time>2023-05-14T13:04:54.000Z</time>
      </trkpt>
      <trkpt lat="45.82586" lon="4.64676">
        <ele>311.05856</ele>
        <time>2023-05-14T13:04:55.000Z</time>
      </trkpt>
      <trkpt lat="45.82585" lon="4.6468">
        <ele>311.23877</ele>
        <time>2023-05-14T13:04:56.000Z</time>
      </trkpt>
      <trkpt lat="45.82585" lon="4.64684">
        <ele>311.42026</ele>
        <time>2023-05-14T13:04:57.000Z</time>
      </trkpt>
      <trkpt lat="45.82586" lon="4.64689">
        <ele>311.58527</ele>
        <time>2023-05-14T13:04:58.000Z</time>
      </trkpt>
      <trkpt lat="45.82586" lon="4.64694">
        <ele>311.81873</ele>
        <time>2023-05-14T13:04:59.000Z</time>
      </trkpt>
      <trkpt lat="45.82588" lon="4.64699">
        <ele>312.0751</ele>
        <time>2023-05-14T13:05:00.000Z</time>
      </trkpt>
      <trkpt lat="45.82589" lon="4.64705">
        <ele>312.40244</ele>
        <time>2023-05-14T13:05:01.000Z</time>
      </trkpt>
      <trkpt lat="45.8259" lon="4.6471">
        <ele>312.24609</ele>
        <time>2023-05-14T13:05:02.000Z</time>
      </trkpt>
      <trkpt lat="45.8259" lon="4.64717">
        <ele>312.1228</ele>
        <time>2023-05-14T13:05:03.000Z</time>
      </trkpt>
      <trkpt lat="45.8259" lon="4.64723">
        <ele>311.96664</ele>
        <time>2023-05-14T13:05:04.000Z</time>
      </trkpt>
      <trkpt lat="45.8259" lon="4.64728">
        <ele>311.83771</ele>
        <time>2023-05-14T13:05:05.000Z</time>
      </trkpt>
      <trkpt lat="45.82589" lon="4.64732">
        <ele>311.7001</ele>
        <time>2023-05-14T13:05:06.000Z</time>
      </trkpt>
      <trkpt lat="45.82588" lon="4.64734">
        <ele>311.59381</ele>
        <time>2023-05-14T13:05:07.000Z</time>
      </trkpt>
      <trkpt lat="45.82586" lon="4.64735">
        <ele>311.43402</ele>
        <time>2023-05-14T13:05:08.000Z</time>
      </trkpt>
      <trkpt lat="45.82585" lon="4.64737">
        <ele>311.20621</ele>
        <time>2023-05-14T13:05:09.000Z</time>
      </trkpt>
      <trkpt lat="45.82583" lon="4.64739">
        <ele>311.04031</ele>
        <time>2023-05-14T13:05:10.000Z</time>
      </trkpt>
      <trkpt lat="45.82581" lon="4.6474">
        <ele>310.85297</ele>
        <time>2023-05-14T13:05:11.000Z</time>
      </trkpt>
      <trkpt lat="45.82579" lon="4.64742">
        <ele>310.52396</ele>
        <time>2023-05-14T13:05:12.000Z</time>
      </trkpt>
      <trkpt lat="45.82578" lon="4.64744">
        <ele>310.12823</ele>
        <time>2023-05-14T13:05:13.000Z</time>
      </trkpt>
      <trkpt lat="45.82576" lon="4.64745">
        <ele>309.53238</ele>
        <time>2023-05-14T13:05:14.000Z</time>
      </trkpt>
      <trkpt lat="45.82574" lon="4.64749">
        <ele>308.83878</ele>
        <time>2023-05-14T13:05:16.000Z</time>
      </trkpt>
      <trkpt lat="45.82574" lon="4.64751">
        <ele>308.14722</ele>
        <time>2023-05-14T13:05:17.000Z</time>
      </trkpt>
      <trkpt lat="45.82571" lon="4.64756">
        <ele>307.48935</ele>
        <time>2023-05-14T13:05:19.000Z</time>
      </trkpt>
      <trkpt lat="45.8257" lon="4.64759">
        <ele>306.84613</ele>
        <time>2023-05-14T13:05:20.000Z</time>
      </trkpt>
      <trkpt lat="45.82568" lon="4.64761">
        <ele>306.15985</ele>
        <time>2023-05-14T13:05:21.000Z</time>
      </trkpt>
      <trkpt lat="45.82566" lon="4.64763">
        <ele>305.53778</ele>
        <time>2023-05-14T13:05:23.000Z</time>
      </trkpt>
      <trkpt lat="45.82564" lon="4.64765">
        <ele>304.92291</ele>
        <time>2023-05-14T13:05:24.000Z</time>
      </trkpt>
      <trkpt lat="45.82562" lon="4.64767">
        <ele>304.30692</ele>
        <time>2023-05-14T13:05:25.000Z</time>
      </trkpt>
      <trkpt lat="45.8256" lon="4.64769">
        <ele>303.68777</ele>
        <time>2023-05-14T13:05:26.000Z</time>
      </trkpt>
      <trkpt lat="45.82559" lon="4.64771">
        <ele>303.10736</ele>
        <time>2023-05-14T13:05:27.000Z</time>
      </trkpt>
      <trkpt lat="45.82557" lon="4.64772">
        <ele>302.51938</ele>
        <time>2023-05-14T13:05:28.000Z</time>
      </trkpt>
      <trkpt lat="45.82555" lon="4.64773">
        <ele>301.88995</ele>
        <time>2023-05-14T13:05:29.000Z</time>
      </trkpt>
      <trkpt lat="45.82552" lon="4.64774">
        <ele>301.27475</ele>
        <time>2023-05-14T13:05:31.000Z</time>
      </trkpt>
      <trkpt lat="45.8255" lon="4.64775">
        <ele>300.65363</ele>
        <time>2023-05-14T13:05:33.000Z</time>
      </trkpt>
      <trkpt lat="45.82548" lon="4.64777">
        <ele>300.12311</ele>
        <time>2023-05-14T13:05:35.000Z</time>
      </trkpt>
      <trkpt lat="45.82547" lon="4.6478">
        <ele>300.18204</ele>
        <time>2023-05-14T13:06:44.000Z</time>
      </trkpt>
      <trkpt lat="45.82544" lon="4.64781">
        <ele>300.31122</ele>
        <time>2023-05-14T13:06:46.000Z</time>
      </trkpt>
      <trkpt lat="45.82542" lon="4.64782">
        <ele>300.58276</ele>
        <time>2023-05-14T13:06:48.000Z</time>
      </trkpt>
      <trkpt lat="45.8254" lon="4.64785">
        <ele>300.92004</ele>
        <time>2023-05-14T13:06:50.000Z</time>
      </trkpt>
      <trkpt lat="45.82539" lon="4.64788">
        <ele>301.16766</ele>
        <time>2023-05-14T13:06:53.000Z</time>
      </trkpt>
      <trkpt lat="45.82537" lon="4.64791">
        <ele>301.48657</ele>
        <time>2023-05-14T13:07:28.000Z</time>
      </trkpt>
      <trkpt lat="45.82535" lon="4.64795">
        <ele>301.83038</ele>
        <time>2023-05-14T13:07:30.000Z</time>
      </trkpt>
      <trkpt lat="45.82533" lon="4.64797">
        <ele>302.23239</ele>
        <time>2023-05-14T13:07:32.000Z</time>
      </trkpt>
      <trkpt lat="45.82529" lon="4.64799">
        <ele>302.63547</ele>
        <time>2023-05-14T13:07:34.000Z</time>
      </trkpt>
      <trkpt lat="45.82527" lon="4.64801">
        <ele>302.89459</ele>
        <time>2023-05-14T13:07:35.000Z</time>
      </trkpt>
      <trkpt lat="45.82526" lon="4.64803">
        <ele>303.21371</ele>
        <time>2023-05-14T13:07:36.000Z</time>
      </trkpt>
      <trkpt lat="45.82524" lon="4.64807">
        <ele>303.61539</ele>
        <time>2023-05-14T13:07:38.000Z</time>
      </trkpt>
      <trkpt lat="45.82523" lon="4.64809">
        <ele>304.01736</ele>
        <time>2023-05-14T13:07:39.000Z</time>
      </trkpt>
      <trkpt lat="45.82521" lon="4.64811">
        <ele>304.47891</ele>
        <time>2023-05-14T13:07:40.000Z</time>
      </trkpt>
      <trkpt lat="45.82519" lon="4.64814">
        <ele>304.94366</ele>
        <time>2023-05-14T13:07:41.000Z</time>
      </trkpt>
      <trkpt lat="45.82517" lon="4.64816">
        <ele>305.50983</ele>
        <time>2023-05-14T13:07:42.000Z</time>
      </trkpt>
      <trkpt lat="45.82516" lon="4.64818">
        <ele>306.15094</ele>
        <time>2023-05-14T13:07:43.000Z</time>
      </trkpt>
      <trkpt lat="45.82514" lon="4.6482">
        <ele>306.87732</ele>
        <time>2023-05-14T13:07:45.000Z</time>
      </trkpt>
      <trkpt lat="45.82513" lon="4.64823">
        <ele>307.6871</ele>
        <time>2023-05-14T13:07:53.000Z</time>
      </trkpt>
      <trkpt lat="45.82512" lon="4.64825">
        <ele>308.49112</ele>
        <time>2023-05-14T13:07:56.000Z</time>
      </trkpt>
      <trkpt lat="45.82511" lon="4.64827">
        <ele>308.69162</ele>
        <time>2023-05-14T13:07:58.000Z</time>
      </trkpt>
      <trkpt lat="45.8251" lon="4.64831">
        <ele>308.7955</ele>
        <time>2023-05-14T13:08:00.000Z</time>
      </trkpt>
      <trkpt lat="45.82508" lon="4.64834">
        <ele>308.94684</ele>
        <time>2023-05-14T13:08:02.000Z</time>
      </trkpt>
      <trkpt lat="45.82507" lon="4.64837">
        <ele>309.12491</ele>
        <time>2023-05-14T13:08:04.000Z</time>
      </trkpt>
      <trkpt lat="45.82506" lon="4.6484">
        <ele>309.67499</ele>
        <time>2023-05-14T13:08:06.000Z</time>
      </trkpt>
      <trkpt lat="45.82504" lon="4.64842">
        <ele>310.2569</ele>
        <time>2023-05-14T13:08:08.000Z</time>
      </trkpt>
      <trkpt lat="45.82503" lon="4.64845">
        <ele>310.87524</ele>
        <time>2023-05-14T13:08:12.000Z</time>
      </trkpt>
      <trkpt lat="45.82501" lon="4.64847">
        <ele>311.40454</ele>
        <time>2023-05-14T13:08:14.000Z</time>
      </trkpt>
      <trkpt lat="45.82499" lon="4.6485">
        <ele>311.966</ele>
        <time>2023-05-14T13:08:16.000Z</time>
      </trkpt>
      <trkpt lat="45.82497" lon="4.64852">
        <ele>312.70844</ele>
        <time>2023-05-14T13:08:18.000Z</time>
      </trkpt>
      <trkpt lat="45.82495" lon="4.64854">
        <ele>313.32324</ele>
        <time>2023-05-14T13:08:20.000Z</time>
      </trkpt>
      <trkpt lat="45.82493" lon="4.64858">
        <ele>313.8952</ele>
        <time>2023-05-14T13:08:22.000Z</time>
      </trkpt>
      <trkpt lat="45.82492" lon="4.64861">
        <ele>314.46887</ele>
        <time>2023-05-14T13:08:24.000Z</time>
      </trkpt>
      <trkpt lat="45.8249" lon="4.64863">
        <ele>315.06717</ele>
        <time>2023-05-14T13:08:27.000Z</time>
      </trkpt>
      <trkpt lat="45.82488" lon="4.64865">
        <ele>315.68976</ele>
        <time>2023-05-14T13:08:29.000Z</time>
      </trkpt>
      <trkpt lat="45.82486" lon="4.64866">
        <ele>316.271</ele>
        <time>2023-05-14T13:08:32.000Z</time>
      </trkpt>
      <trkpt lat="45.82484" lon="4.64868">
        <ele>316.82962</ele>
        <time>2023-05-14T13:08:35.000Z</time>
      </trkpt>
      <trkpt lat="45.82483" lon="4.6487">
        <ele>317.32431</ele>
        <time>2023-05-14T13:08:38.000Z</time>
      </trkpt>
      <trkpt lat="45.82482" lon="4.64873">
        <ele>317.80548</ele>
        <time>2023-05-14T13:08:56.000Z</time>
      </trkpt>
      <trkpt lat="45.8248" lon="4.64875">
        <ele>318.23743</ele>
        <time>2023-05-14T13:08:58.000Z</time>
      </trkpt>
      <trkpt lat="45.82478" lon="4.64879">
        <ele>318.6955</ele>
        <time>2023-05-14T13:09:00.000Z</time>
      </trkpt>
      <trkpt lat="45.82476" lon="4.64881">
        <ele>319.15442</ele>
        <time>2023-05-14T13:09:01.000Z</time>
      </trkpt>
      <trkpt lat="45.82475" lon="4.64883">
        <ele>319.58124</ele>
        <time>2023-05-14T13:09:02.000Z</time>
      </trkpt>
      <trkpt lat="45.82474" lon="4.64887">
        <ele>319.92532</ele>
        <time>2023-05-14T13:09:04.000Z</time>
      </trkpt>
      <trkpt lat="45.82473" lon="4.64891">
        <ele>320.21225</ele>
        <time>2023-05-14T13:09:06.000Z</time>
      </trkpt>
      <trkpt lat="45.82472" lon="4.64894">
        <ele>320.38766</ele>
        <time>2023-05-14T13:09:10.000Z</time>
      </trkpt>
      <trkpt lat="45.82471" lon="4.64896">
        <ele>320.50656</ele>
        <time>2023-05-14T13:09:14.000Z</time>
      </trkpt>
      <trkpt lat="45.8247" lon="4.64899">
        <ele>320.59909</ele>
        <time>2023-05-14T13:09:18.000Z</time>
      </trkpt>
      <trkpt lat="45.82467" lon="4.64903">
        <ele>320.56842</ele>
        <time>2023-05-14T13:09:20.000Z</time>
      </trkpt>
      <trkpt lat="45.82466" lon="4.64905">
        <ele>320.55576</ele>
        <time>2023-05-14T13:09:21.000Z</time>
      </trkpt>
      <trkpt lat="45.82465" lon="4.64907">
        <ele>320.52536</ele>
        <time>2023-05-14T13:09:22.000Z</time>
      </trkpt>
      <trkpt lat="45.82463" lon="4.64912">
        <ele>320.44424</ele>
        <time>2023-05-14T13:09:24.000Z</time>
      </trkpt>
      <trkpt lat="45.82461" lon="4.64916">
        <ele>320.3941</ele>
        <time>2023-05-14T13:09:26.000Z</time>
      </trkpt>
      <trkpt lat="45.8246" lon="4.64918">
        <ele>320.26602</ele>
        <time>2023-05-14T13:09:27.000Z</time>
      </trkpt>
      <trkpt lat="45.82459" lon="4.64921">
        <ele>320.146</ele>
        <time>2023-05-14T13:09:28.000Z</time>
      </trkpt>
      <trkpt lat="45.82458" lon="4.64923">
        <ele>320.01736</ele>
        <time>2023-05-14T13:09:29.000Z</time>
      </trkpt>
      <trkpt lat="45.82457" lon="4.64926">
        <ele>319.86456</ele>
        <time>2023-05-14T13:09:30.000Z</time>
      </trkpt>
      <trkpt lat="45.82455" lon="4.64931">
        <ele>319.70874</ele>
        <time>2023-05-14T13:09:32.000Z</time>
      </trkpt>
      <trkpt lat="45.82453" lon="4.64934">
        <ele>319.48169</ele>
        <time>2023-05-14T13:09:33.000Z</time>
      </trkpt>
      <trkpt lat="45.82452" lon="4.64937">
        <ele>319.23712</ele>
        <time>2023-05-14T13:09:34.000Z</time>
      </trkpt>
      <trkpt lat="45.82451" lon="4.64939">
        <ele>318.97299</ele>
        <time>2023-05-14T13:09:35.000Z</time>
      </trkpt>
      <trkpt lat="45.82449" lon="4.64941">
        <ele>318.73819</ele>
        <time>2023-05-14T13:09:36.000Z</time>
      </trkpt>
      <trkpt lat="45.82448" lon="4.64944">
        <ele>318.50861</ele>
        <time>2023-05-14T13:09:37.000Z</time>
      </trkpt>
      <trkpt lat="45.82446" lon="4.64947">
        <ele>318.35626</ele>
        <time>2023-05-14T13:09:38.000Z</time>
      </trkpt>
      <trkpt lat="45.82444" lon="4.6495">
        <ele>318.14536</ele>
        <time>2023-05-14T13:09:39.000Z</time>
      </trkpt>
      <trkpt lat="45.82443" lon="4.64954">
        <ele>318.03461</ele>
        <time>2023-05-14T13:09:40.000Z</time>
      </trkpt>
      <trkpt lat="45.82441" lon="4.64957">
        <ele>317.93848</ele>
        <time>2023-05-14T13:09:41.000Z</time>
      </trkpt>
      <trkpt lat="45.82439" lon="4.64961">
        <ele>317.82278</ele>
        <time>2023-05-14T13:09:42.000Z</time>
      </trkpt>
      <trkpt lat="45.82437" lon="4.64964">
        <ele>317.79474</ele>
        <time>2023-05-14T13:09:43.000Z</time>
      </trkpt>
      <trkpt lat="45.82435" lon="4.64967">
        <ele>317.74124</ele>
        <time>2023-05-14T13:09:44.000Z</time>
      </trkpt>
      <trkpt lat="45.82433" lon="4.6497">
        <ele>317.74017</ele>
        <time>2023-05-14T13:09:45.000Z</time>
      </trkpt>
      <trkpt lat="45.82431" lon="4.64973">
        <ele>317.78302</ele>
        <time>2023-05-14T13:09:46.000Z</time>
      </trkpt>
      <trkpt lat="45.82429" lon="4.64977">
        <ele>317.80209</ele>
        <time>2023-05-14T13:09:47.000Z</time>
      </trkpt>
      <trkpt lat="45.82427" lon="4.6498">
        <ele>317.81342</ele>
        <time>2023-05-14T13:09:48.000Z</time>
      </trkpt>
      <trkpt lat="45.82426" lon="4.64983">
        <ele>317.75739</ele>
        <time>2023-05-14T13:09:49.000Z</time>
      </trkpt>
      <trkpt lat="45.82424" lon="4.64986">
        <ele>317.70901</ele>
        <time>2023-05-14T13:09:50.000Z</time>
      </trkpt>
      <trkpt lat="45.82421" lon="4.64989">
        <ele>317.72461</ele>
        <time>2023-05-14T13:09:51.000Z</time>
      </trkpt>
      <trkpt lat="45.82419" lon="4.64992">
        <ele>317.73132</ele>
        <time>2023-05-14T13:09:52.000Z</time>
      </trkpt>
      <trkpt lat="45.82417" lon="4.64994">
        <ele>317.73294</ele>
        <time>2023-05-14T13:09:53.000Z</time>
      </trkpt>
      <trkpt lat="45.82415" lon="4.64995">
        <ele>317.81384</ele>
        <time>2023-05-14T13:09:54.000Z</time>
      </trkpt>
      <trkpt lat="45.82412" lon="4.64998">
        <ele>317.93533</ele>
        <time>2023-05-14T13:09:56.000Z</time>
      </trkpt>
      <trkpt lat="45.8241" lon="4.65">
        <ele>318.06195</ele>
        <time>2023-05-14T13:09:57.000Z</time>
      </trkpt>
      <trkpt lat="45.82408" lon="4.65003">
        <ele>318.189</ele>
        <time>2023-05-14T13:09:58.000Z</time>
      </trkpt>
      <trkpt lat="45.82406" lon="4.65006">
        <ele>318.28583</ele>
        <time>2023-05-14T13:09:59.000Z</time>
      </trkpt>
      <trkpt lat="45.82405" lon="4.6501">
        <ele>318.43149</ele>
        <time>2023-05-14T13:10:00.000Z</time>
      </trkpt>
      <trkpt lat="45.82404" lon="4.65014">
        <ele>318.58307</ele>
        <time>2023-05-14T13:10:01.000Z</time>
      </trkpt>
      <trkpt lat="45.82402" lon="4.65018">
        <ele>318.7121</ele>
        <time>2023-05-14T13:10:02.000Z</time>
      </trkpt>
      <trkpt lat="45.824" lon="4.65022">
        <ele>318.86093</ele>
        <time>2023-05-14T13:10:03.000Z</time>
      </trkpt>
      <trkpt lat="45.82398" lon="4.65026">
        <ele>319.00845</ele>
        <time>2023-05-14T13:10:04.000Z</time>
      </trkpt>
      <trkpt lat="45.82396" lon="4.6503">
        <ele>319.17682</ele>
        <time>2023-05-14T13:10:05.000Z</time>
      </trkpt>
      <trkpt lat="45.82395" lon="4.65035">
        <ele>319.35217</ele>
        <time>2023-05-14T13:10:06.000Z</time>
      </trkpt>
      <trkpt lat="45.82393" lon="4.6504">
        <ele>319.49847</ele>
        <time>2023-05-14T13:10:07.000Z</time>
      </trkpt>
      <trkpt lat="45.82391" lon="4.65044">
        <ele>319.65717</ele>
        <time>2023-05-14T13:10:08.000Z</time>
      </trkpt>
      <trkpt lat="45.8239" lon="4.65049">
        <ele>319.79672</ele>
        <time>2023-05-14T13:10:09.000Z</time>
      </trkpt>
      <trkpt lat="45.82388" lon="4.65054">
        <ele>319.91028</ele>
        <time>2023-05-14T13:10:10.000Z</time>
      </trkpt>
      <trkpt lat="45.82386" lon="4.65059">
        <ele>320.00052</ele>
        <time>2023-05-14T13:10:11.000Z</time>
      </trkpt>
      <trkpt lat="45.82384" lon="4.65063">
        <ele>320.08417</ele>
        <time>2023-05-14T13:10:12.000Z</time>
      </trkpt>
      <trkpt lat="45.82382" lon="4.65068">
        <ele>320.15631</ele>
        <time>2023-05-14T13:10:13.000Z</time>
      </trkpt>
      <trkpt lat="45.8238" lon="4.65072">
        <ele>320.26407</ele>
        <time>2023-05-14T13:10:14.000Z</time>
      </trkpt>
      <trkpt lat="45.82378" lon="4.65076">
        <ele>320.31308</ele>
        <time>2023-05-14T13:10:15.000Z</time>
      </trkpt>
      <trkpt lat="45.82376" lon="4.65079">
        <ele>320.34225</ele>
        <time>2023-05-14T13:10:16.000Z</time>
      </trkpt>
      <trkpt lat="45.82373" lon="4.65083">
        <ele>320.3782</ele>
        <time>2023-05-14T13:10:17.000Z</time>
      </trkpt>
      <trkpt lat="45.82371" lon="4.65086">
        <ele>320.3703</ele>
        <time>2023-05-14T13:10:18.000Z</time>
      </trkpt>
      <trkpt lat="45.82369" lon="4.6509">
        <ele>320.38742</ele>
        <time>2023-05-14T13:10:19.000Z</time>
      </trkpt>
      <trkpt lat="45.82366" lon="4.65093">
        <ele>320.36954</ele>
        <time>2023-05-14T13:10:20.000Z</time>
      </trkpt>
      <trkpt lat="45.82364" lon="4.65097">
        <ele>320.32721</ele>
        <time>2023-05-14T13:10:21.000Z</time>
      </trkpt>
      <trkpt lat="45.82361" lon="4.651">
        <ele>320.30118</ele>
        <time>2023-05-14T13:10:22.000Z</time>
      </trkpt>
      <trkpt lat="45.82358" lon="4.65103">
        <ele>320.3349</ele>
        <time>2023-05-14T13:10:23.000Z</time>
      </trkpt>
      <trkpt lat="45.82355" lon="4.65106">
        <ele>320.37393</ele>
        <time>2023-05-14T13:10:24.000Z</time>
      </trkpt>
      <trkpt lat="45.82353" lon="4.65109">
        <ele>320.35675</ele>
        <time>2023-05-14T13:10:25.000Z</time>
      </trkpt>
      <trkpt lat="45.8235" lon="4.65112">
        <ele>320.36792</ele>
        <time>2023-05-14T13:10:26.000Z</time>
      </trkpt>
      <trkpt lat="45.82347" lon="4.65115">
        <ele>320.41705</ele>
        <time>2023-05-14T13:10:27.000Z</time>
      </trkpt>
      <trkpt lat="45.82344" lon="4.65117">
        <ele>320.47049</ele>
        <time>2023-05-14T13:10:28.000Z</time>
      </trkpt>
      <trkpt lat="45.82341" lon="4.65121">
        <ele>320.56049</ele>
        <time>2023-05-14T13:10:29.000Z</time>
      </trkpt>
      <trkpt lat="45.82339" lon="4.65124">
        <ele>320.74072</ele>
        <time>2023-05-14T13:10:30.000Z</time>
      </trkpt>
      <trkpt lat="45.82336" lon="4.65128">
        <ele>320.92499</ele>
        <time>2023-05-14T13:10:31.000Z</time>
      </trkpt>
      <trkpt lat="45.82334" lon="4.65131">
        <ele>321.11508</ele>
        <time>2023-05-14T13:10:32.000Z</time>
      </trkpt>
      <trkpt lat="45.82331" lon="4.65135">
        <ele>321.29996</ele>
        <time>2023-05-14T13:10:33.000Z</time>
      </trkpt>
      <trkpt lat="45.82328" lon="4.65139">
        <ele>321.49213</ele>
        <time>2023-05-14T13:10:34.000Z</time>
      </trkpt>
      <trkpt lat="45.82326" lon="4.65143">
        <ele>321.69107</ele>
        <time>2023-05-14T13:10:35.000Z</time>
      </trkpt>
      <trkpt lat="45.82323" lon="4.65147">
        <ele>321.87827</ele>
        <time>2023-05-14T13:10:36.000Z</time>
      </trkpt>
      <trkpt lat="45.82321" lon="4.6515">
        <ele>322.08844</ele>
        <time>2023-05-14T13:10:37.000Z</time>
      </trkpt>
      <trkpt lat="45.82318" lon="4.65155">
        <ele>322.33478</ele>
        <time>2023-05-14T13:10:38.000Z</time>
      </trkpt>
      <trkpt lat="45.82316" lon="4.65159">
        <ele>322.55902</ele>
        <time>2023-05-14T13:10:39.000Z</time>
      </trkpt>
      <trkpt lat="45.82313" lon="4.65164">
        <ele>322.80859</ele>
        <time>2023-05-14T13:10:40.000Z</time>
      </trkpt>
      <trkpt lat="45.82311" lon="4.65169">
        <ele>323.08984</ele>
        <time>2023-05-14T13:10:41.000Z</time>
      </trkpt>
      <trkpt lat="45.82309" lon="4.65173">
        <ele>323.38876</ele>
        <time>2023-05-14T13:10:42.000Z</time>
      </trkpt>
      <trkpt lat="45.82306" lon="4.65178">
        <ele>323.66534</ele>
        <time>2023-05-14T13:10:43.000Z</time>
      </trkpt>
      <trkpt lat="45.82304" lon="4.65183">
        <ele>323.92099</ele>
        <time>2023-05-14T13:10:44.000Z</time>
      </trkpt>
      <trkpt lat="45.82302" lon="4.65188">
        <ele>324.19183</ele>
        <time>2023-05-14T13:10:45.000Z</time>
      </trkpt>
      <trkpt lat="45.82299" lon="4.65192">
        <ele>324.42099</ele>
        <time>2023-05-14T13:10:46.000Z</time>
      </trkpt>
      <trkpt lat="45.82297" lon="4.65199">
        <ele>324.63168</ele>
        <time>2023-05-14T13:10:47.000Z</time>
      </trkpt>
      <trkpt lat="45.82294" lon="4.65204">
        <ele>324.83188</ele>
        <time>2023-05-14T13:10:48.000Z</time>
      </trkpt>
      <trkpt lat="45.82292" lon="4.65209">
        <ele>325.00092</ele>
        <time>2023-05-14T13:10:49.000Z</time>
      </trkpt>
      <trkpt lat="45.82289" lon="4.65214">
        <ele>325.15247</ele>
        <time>2023-05-14T13:10:50.000Z</time>
      </trkpt>
      <trkpt lat="45.82286" lon="4.6522">
        <ele>325.29962</ele>
        <time>2023-05-14T13:10:51.000Z</time>
      </trkpt>
      <trkpt lat="45.82283" lon="4.65225">
        <ele>325.43027</ele>
        <time>2023-05-14T13:10:52.000Z</time>
      </trkpt>
      <trkpt lat="45.8228" lon="4.65231">
        <ele>325.52521</ele>
        <time>2023-05-14T13:10:53.000Z</time>
      </trkpt>
      <trkpt lat="45.82277" lon="4.65236">
        <ele>325.57758</ele>
        <time>2023-05-14T13:10:54.000Z</time>
      </trkpt>
      <trkpt lat="45.82275" lon="4.65242">
        <ele>325.62592</ele>
        <time>2023-05-14T13:10:55.000Z</time>
      </trkpt>
      <trkpt lat="45.82272" lon="4.65248">
        <ele>325.68155</ele>
        <time>2023-05-14T13:10:56.000Z</time>
      </trkpt>
      <trkpt lat="45.82269" lon="4.65254">
        <ele>325.69489</ele>
        <time>2023-05-14T13:10:57.000Z</time>
      </trkpt>
      <trkpt lat="45.82266" lon="4.65259">
        <ele>325.71655</ele>
        <time>2023-05-14T13:10:58.000Z</time>
      </trkpt>
      <trkpt lat="45.82263" lon="4.65265">
        <ele>325.72299</ele>
        <time>2023-05-14T13:10:59.000Z</time>
      </trkpt>
      <trkpt lat="45.8226" lon="4.65272">
        <ele>325.70334</ele>
        <time>2023-05-14T13:11:00.000Z</time>
      </trkpt>
      <trkpt lat="45.82257" lon="4.65279">
        <ele>325.63602</ele>
        <time>2023-05-14T13:11:01.000Z</time>
      </trkpt>
      <trkpt lat="45.82255" lon="4.65285">
        <ele>325.54901</ele>
        <time>2023-05-14T13:11:02.000Z</time>
      </trkpt>
      <trkpt lat="45.82252" lon="4.65291">
        <ele>325.45419</ele>
        <time>2023-05-14T13:11:03.000Z</time>
      </trkpt>
      <trkpt lat="45.82249" lon="4.65297">
        <ele>325.3598</ele>
        <time>2023-05-14T13:11:04.000Z</time>
      </trkpt>
      <trkpt lat="45.82246" lon="4.65304">
        <ele>325.25278</ele>
        <time>2023-05-14T13:11:05.000Z</time>
      </trkpt>
      <trkpt lat="45.82243" lon="4.65311">
        <ele>325.1131</ele>
        <time>2023-05-14T13:11:06.000Z</time>
      </trkpt>
      <trkpt lat="45.8224" lon="4.65318">
        <ele>324.94794</ele>
        <time>2023-05-14T13:11:07.000Z</time>
      </trkpt>
      <trkpt lat="45.82238" lon="4.65325">
        <ele>324.75894</ele>
        <time>2023-05-14T13:11:08.000Z</time>
      </trkpt>
      <trkpt lat="45.82235" lon="4.65334">
        <ele>324.59036</ele>
        <time>2023-05-14T13:11:09.000Z</time>
      </trkpt>
      <trkpt lat="45.82232" lon="4.65341">
        <ele>324.36688</ele>
        <time>2023-05-14T13:11:10.000Z</time>
      </trkpt>
      <trkpt lat="45.82228" lon="4.65347">
        <ele>324.14658</ele>
        <time>2023-05-14T13:11:11.000Z</time>
      </trkpt>
      <trkpt lat="45.82225" lon="4.65351">
        <ele>323.89746</ele>
        <time>2023-05-14T13:11:12.000Z</time>
      </trkpt>
      <trkpt lat="45.82222" lon="4.65356">
        <ele>323.6972</ele>
        <time>2023-05-14T13:11:13.000Z</time>
      </trkpt>
      <trkpt lat="45.82221" lon="4.65358">
        <ele>323.55194</ele>
        <time>2023-05-14T13:11:14.000Z</time>
      </trkpt>
      <trkpt lat="45.82219" lon="4.65361">
        <ele>323.42828</ele>
        <time>2023-05-14T13:11:15.000Z</time>
      </trkpt>
      <trkpt lat="45.82218" lon="4.65365">
        <ele>323.27399</ele>
        <time>2023-05-14T13:11:16.000Z</time>
      </trkpt>
      <trkpt lat="45.82218" lon="4.6537">
        <ele>323.12045</ele>
        <time>2023-05-14T13:11:17.000Z</time>
      </trkpt>
      <trkpt lat="45.82219" lon="4.65376">
        <ele>322.94913</ele>
        <time>2023-05-14T13:11:18.000Z</time>
      </trkpt>
      <trkpt lat="45.8222" lon="4.65381">
        <ele>322.77325</ele>
        <time>2023-05-14T13:11:19.000Z</time>
      </trkpt>
      <trkpt lat="45.82224" lon="4.65387">
        <ele>322.61151</ele>
        <time>2023-05-14T13:11:20.000Z</time>
      </trkpt>
      <trkpt lat="45.82228" lon="4.65392">
        <ele>322.4747</ele>
        <time>2023-05-14T13:11:21.000Z</time>
      </trkpt>
      <trkpt lat="45.82231" lon="4.65397">
        <ele>322.32745</ele>
        <time>2023-05-14T13:11:22.000Z</time>
      </trkpt>
      <trkpt lat="45.82236" lon="4.65401">
        <ele>322.12433</ele>
        <time>2023-05-14T13:11:23.000Z</time>
      </trkpt>
      <trkpt lat="45.82241" lon="4.65404">
        <ele>321.92493</ele>
        <time>2023-05-14T13:11:24.000Z</time>
      </trkpt>
      <trkpt lat="45.82247" lon="4.65406">
        <ele>321.74481</ele>
        <time>2023-05-14T13:11:25.000Z</time>
      </trkpt>
      <trkpt lat="45.82253" lon="4.65407">
        <ele>321.57831</ele>
        <time>2023-05-14T13:11:26.000Z</time>
      </trkpt>
      <trkpt lat="45.82258" lon="4.65409">
        <ele>321.44174</ele>
        <time>2023-05-14T13:11:27.000Z</time>
      </trkpt>
      <trkpt lat="45.82264" lon="4.65409">
        <ele>321.2504</ele>
        <time>2023-05-14T13:11:28.000Z</time>
      </trkpt>
      <trkpt lat="45.8227" lon="4.65411">
        <ele>321.04327</ele>
        <time>2023-05-14T13:11:29.000Z</time>
      </trkpt>
      <trkpt lat="45.82276" lon="4.65413">
        <ele>320.86041</ele>
        <time>2023-05-14T13:11:30.000Z</time>
      </trkpt>
      <trkpt lat="45.82282" lon="4.65414">
        <ele>320.67194</ele>
        <time>2023-05-14T13:11:31.000Z</time>
      </trkpt>
      <trkpt lat="45.82287" lon="4.65417">
        <ele>320.51123</ele>
        <time>2023-05-14T13:11:32.000Z</time>
      </trkpt>
      <trkpt lat="45.82293" lon="4.65419">
        <ele>320.31213</ele>
        <time>2023-05-14T13:11:33.000Z</time>
      </trkpt>
      <trkpt lat="45.82299" lon="4.65421">
        <ele>320.05002</ele>
        <time>2023-05-14T13:11:34.000Z</time>
      </trkpt>
      <trkpt lat="45.82305" lon="4.65423">
        <ele>319.77499</ele>
        <time>2023-05-14T13:11:35.000Z</time>
      </trkpt>
      <trkpt lat="45.82312" lon="4.65423">
        <ele>319.54224</ele>
        <time>2023-05-14T13:11:36.000Z</time>
      </trkpt>
      <trkpt lat="45.82317" lon="4.65424">
        <ele>319.30768</ele>
        <time>2023-05-14T13:11:37.000Z</time>
      </trkpt>
      <trkpt lat="45.82324" lon="4.65425">
        <ele>319.13324</ele>
        <time>2023-05-14T13:11:38.000Z</time>
      </trkpt>
      <trkpt lat="45.8233" lon="4.65425">
        <ele>318.96246</ele>
        <time>2023-05-14T13:11:39.000Z</time>
      </trkpt>
      <trkpt lat="45.82337" lon="4.65425">
        <ele>318.77155</ele>
        <time>2023-05-14T13:11:40.000Z</time>
      </trkpt>
      <trkpt lat="45.82343" lon="4.65425">
        <ele>318.51526</ele>
        <time>2023-05-14T13:11:41.000Z</time>
      </trkpt>
      <trkpt lat="45.8235" lon="4.65423">
        <ele>318.26517</ele>
        <time>2023-05-14T13:11:42.000Z</time>
      </trkpt>
      <trkpt lat="45.82358" lon="4.65421">
        <ele>318.01611</ele>
        <time>2023-05-14T13:11:43.000Z</time>
      </trkpt>
      <trkpt lat="45.82364" lon="4.6542">
        <ele>317.76538</ele>
        <time>2023-05-14T13:11:44.000Z</time>
      </trkpt>
      <trkpt lat="45.82371" lon="4.65418">
        <ele>317.52069</ele>
        <time>2023-05-14T13:11:45.000Z</time>
      </trkpt>
      <trkpt lat="45.82378" lon="4.65417">
        <ele>317.27713</ele>
        <time>2023-05-14T13:11:46.000Z</time>
      </trkpt>
      <trkpt lat="45.82385" lon="4.65416">
        <ele>317.00586</ele>
        <time>2023-05-14T13:11:47.000Z</time>
      </trkpt>
      <trkpt lat="45.82392" lon="4.65416">
        <ele>316.77686</ele>
        <time>2023-05-14T13:11:48.000Z</time>
      </trkpt>
      <trkpt lat="45.82399" lon="4.65416">
        <ele>316.5563</ele>
        <time>2023-05-14T13:11:49.000Z</time>
      </trkpt>
      <trkpt lat="45.82406" lon="4.65419">
        <ele>316.32495</ele>
        <time>2023-05-14T13:11:50.000Z</time>
      </trkpt>
      <trkpt lat="45.82413" lon="4.65423">
        <ele>316.069</ele>
        <time>2023-05-14T13:11:51.000Z</time>
      </trkpt>
      <trkpt lat="45.82419" lon="4.65429">
        <ele>315.7995</ele>
        <time>2023-05-14T13:11:52.000Z</time>
      </trkpt>
      <trkpt lat="45.82425" lon="4.65434">
        <ele>315.54395</ele>
        <time>2023-05-14T13:11:53.000Z</time>
      </trkpt>
      <trkpt lat="45.8243" lon="4.65444">
        <ele>315.25766</ele>
        <time>2023-05-14T13:11:54.000Z</time>
      </trkpt>
      <trkpt lat="45.82434" lon="4.65454">
        <ele>314.94818</ele>
        <time>2023-05-14T13:11:55.000Z</time>
      </trkpt>
      <trkpt lat="45.82438" lon="4.65463">
        <ele>314.62744</ele>
        <time>2023-05-14T13:11:56.000Z</time>
      </trkpt>
      <trkpt lat="45.82439" lon="4.65473">
        <ele>314.2973</ele>
        <time>2023-05-14T13:11:57.000Z</time>
      </trkpt>
      <trkpt lat="45.8244" lon="4.65483">
        <ele>313.86478</ele>
        <time>2023-05-14T13:11:58.000Z</time>
      </trkpt>
      <trkpt lat="45.8244" lon="4.65488">
        <ele>313.41916</ele>
        <time>2023-05-14T13:11:59.000Z</time>
      </trkpt>
      <trkpt lat="45.82441" lon="4.65494">
        <ele>313.01147</ele>
        <time>2023-05-14T13:12:00.000Z</time>
      </trkpt>
      <trkpt lat="45.82442" lon="4.65499">
        <ele>312.62555</ele>
        <time>2023-05-14T13:12:01.000Z</time>
      </trkpt>
      <trkpt lat="45.82444" lon="4.65502">
        <ele>312.22964</ele>
        <time>2023-05-14T13:12:02.000Z</time>
      </trkpt>
      <trkpt lat="45.82447" lon="4.65505">
        <ele>311.87204</ele>
        <time>2023-05-14T13:12:03.000Z</time>
      </trkpt>
      <trkpt lat="45.82447" lon="4.65507">
        <ele>311.50128</ele>
        <time>2023-05-14T13:12:04.000Z</time>
      </trkpt>
      <trkpt lat="45.82449" lon="4.65511">
        <ele>311.09613</ele>
        <time>2023-05-14T13:12:05.000Z</time>
      </trkpt>
      <trkpt lat="45.8245" lon="4.65515">
        <ele>310.68506</ele>
        <time>2023-05-14T13:12:06.000Z</time>
      </trkpt>
      <trkpt lat="45.82449" lon="4.65519">
        <ele>310.3045</ele>
        <time>2023-05-14T13:12:07.000Z</time>
      </trkpt>
      <trkpt lat="45.82449" lon="4.65522">
        <ele>309.9339</ele>
        <time>2023-05-14T13:12:08.000Z</time>
      </trkpt>
      <trkpt lat="45.82448" lon="4.65526">
        <ele>309.6171</ele>
        <time>2023-05-14T13:12:10.000Z</time>
      </trkpt>
      <trkpt lat="45.8245" lon="4.65527">
        <ele>309.32104</ele>
        <time>2023-05-14T13:12:15.000Z</time>
      </trkpt>
      <trkpt lat="45.82448" lon="4.65527">
        <ele>309.08252</ele>
        <time>2023-05-14T13:15:10.000Z</time>
      </trkpt>
      <trkpt lat="45.82448" lon="4.65524">
        <ele>308.85327</ele>
        <time>2023-05-14T13:15:12.000Z</time>
      </trkpt>
      <trkpt lat="45.82448" lon="4.65521">
        <ele>308.60541</ele>
        <time>2023-05-14T13:15:13.000Z</time>
      </trkpt>
      <trkpt lat="45.82449" lon="4.65518">
        <ele>308.42398</ele>
        <time>2023-05-14T13:15:14.000Z</time>
      </trkpt>
      <trkpt lat="45.82449" lon="4.65514">
        <ele>308.23764</ele>
        <time>2023-05-14T13:15:15.000Z</time>
      </trkpt>
      <trkpt lat="45.8245" lon="4.65511">
        <ele>308.06384</ele>
        <time>2023-05-14T13:15:16.000Z</time>
      </trkpt>
      <trkpt lat="45.8245" lon="4.65507">
        <ele>307.90536</ele>
        <time>2023-05-14T13:15:17.000Z</time>
      </trkpt>
      <trkpt lat="45.82449" lon="4.65505">
        <ele>307.89917</ele>
        <time>2023-05-14T13:15:18.000Z</time>
      </trkpt>
      <trkpt lat="45.82447" lon="4.65503">
        <ele>307.92413</ele>
        <time>2023-05-14T13:15:19.000Z</time>
      </trkpt>
      <trkpt lat="45.82445" lon="4.65504">
        <ele>308.00659</ele>
        <time>2023-05-14T13:15:20.000Z</time>
      </trkpt>
      <trkpt lat="45.82443" lon="4.65505">
        <ele>307.99811</ele>
        <time>2023-05-14T13:15:21.000Z</time>
      </trkpt>
      <trkpt lat="45.82442" lon="4.65507">
        <ele>308.03067</ele>
        <time>2023-05-14T13:15:22.000Z</time>
      </trkpt>
      <trkpt lat="45.82441" lon="4.6551">
        <ele>308.07983</ele>
        <time>2023-05-14T13:15:23.000Z</time>
      </trkpt>
      <trkpt lat="45.8244" lon="4.65514">
        <ele>308.12485</ele>
        <time>2023-05-14T13:15:24.000Z</time>
      </trkpt>
      <trkpt lat="45.82439" lon="4.65519">
        <ele>308.19415</ele>
        <time>2023-05-14T13:15:25.000Z</time>
      </trkpt>
      <trkpt lat="45.82438" lon="4.65524">
        <ele>308.25186</ele>
        <time>2023-05-14T13:15:26.000Z</time>
      </trkpt>
      <trkpt lat="45.82437" lon="4.6553">
        <ele>308.2933</ele>
        <time>2023-05-14T13:15:27.000Z</time>
      </trkpt>
      <trkpt lat="45.82436" lon="4.65535">
        <ele>308.32663</ele>
        <time>2023-05-14T13:15:28.000Z</time>
      </trkpt>
      <trkpt lat="45.82433" lon="4.65542">
        <ele>308.29962</ele>
        <time>2023-05-14T13:15:29.000Z</time>
      </trkpt>
      <trkpt lat="45.8243" lon="4.65548">
        <ele>308.23068</ele>
        <time>2023-05-14T13:15:30.000Z</time>
      </trkpt>
      <trkpt lat="45.82426" lon="4.65554">
        <ele>308.09973</ele>
        <time>2023-05-14T13:15:31.000Z</time>
      </trkpt>
      <trkpt lat="45.82421" lon="4.6556">
        <ele>307.94562</ele>
        <time>2023-05-14T13:15:32.000Z</time>
      </trkpt>
      <trkpt lat="45.82416" lon="4.65565">
        <ele>307.77997</ele>
        <time>2023-05-14T13:15:33.000Z</time>
      </trkpt>
      <trkpt lat="45.82411" lon="4.6557">
        <ele>307.55722</ele>
        <time>2023-05-14T13:15:34.000Z</time>
      </trkpt>
      <trkpt lat="45.82406" lon="4.65573">
        <ele>307.3168</ele>
        <time>2023-05-14T13:15:35.000Z</time>
      </trkpt>
      <trkpt lat="45.82402" lon="4.65577">
        <ele>307.03946</ele>
        <time>2023-05-14T13:15:36.000Z</time>
      </trkpt>
      <trkpt lat="45.82398" lon="4.65581">
        <ele>306.74091</ele>
        <time>2023-05-14T13:15:37.000Z</time>
      </trkpt>
      <trkpt lat="45.82393" lon="4.65585">
        <ele>306.34796</ele>
        <time>2023-05-14T13:15:38.000Z</time>
      </trkpt>
      <trkpt lat="45.82389" lon="4.65588">
        <ele>305.90436</ele>
        <time>2023-05-14T13:15:39.000Z</time>
      </trkpt>
      <trkpt lat="45.82383" lon="4.65592">
        <ele>305.37982</ele>
        <time>2023-05-14T13:15:40.000Z</time>
      </trkpt>
      <trkpt lat="45.82378" lon="4.65596">
        <ele>304.96597</ele>
        <time>2023-05-14T13:15:41.000Z</time>
      </trkpt>
      <trkpt lat="45.82372" lon="4.656">
        <ele>304.48502</ele>
        <time>2023-05-14T13:15:42.000Z</time>
      </trkpt>
      <trkpt lat="45.82366" lon="4.65606">
        <ele>303.95547</ele>
        <time>2023-05-14T13:15:43.000Z</time>
      </trkpt>
      <trkpt lat="45.82358" lon="4.65611">
        <ele>303.43985</ele>
        <time>2023-05-14T13:15:44.000Z</time>
      </trkpt>
      <trkpt lat="45.82351" lon="4.65616">
        <ele>302.87784</ele>
        <time>2023-05-14T13:15:45.000Z</time>
      </trkpt>
      <trkpt lat="45.82342" lon="4.6562">
        <ele>302.27612</ele>
        <time>2023-05-14T13:15:46.000Z</time>
      </trkpt>
      <trkpt lat="45.82333" lon="4.65623">
        <ele>301.63528</ele>
        <time>2023-05-14T13:15:47.000Z</time>
      </trkpt>
      <trkpt lat="45.82323" lon="4.65626">
        <ele>300.97379</ele>
        <time>2023-05-14T13:15:48.000Z</time>
      </trkpt>
      <trkpt lat="45.82313" lon="4.65629">
        <ele>300.25742</ele>
        <time>2023-05-14T13:15:49.000Z</time>
      </trkpt>
      <trkpt lat="45.82303" lon="4.65632">
        <ele>299.61508</ele>
        <time>2023-05-14T13:15:50.000Z</time>
      </trkpt>
      <trkpt lat="45.82294" lon="4.65636">
        <ele>299.0209</ele>
        <time>2023-05-14T13:15:51.000Z</time>
      </trkpt>
      <trkpt lat="45.82287" lon="4.65641">
        <ele>298.47446</ele>
        <time>2023-05-14T13:15:52.000Z</time>
      </trkpt>
      <trkpt lat="45.8228" lon="4.65647">
        <ele>297.95447</ele>
        <time>2023-05-14T13:15:53.000Z</time>
      </trkpt>
      <trkpt lat="45.82275" lon="4.65652">
        <ele>297.51581</ele>
        <time>2023-05-14T13:15:54.000Z</time>
      </trkpt>
      <trkpt lat="45.8227" lon="4.65657">
        <ele>297.11557</ele>
        <time>2023-05-14T13:15:55.000Z</time>
      </trkpt>
      <trkpt lat="45.82266" lon="4.6566">
        <ele>296.75299</ele>
        <time>2023-05-14T13:15:56.000Z</time>
      </trkpt>
      <trkpt lat="45.82262" lon="4.65662">
        <ele>296.41391</ele>
        <time>2023-05-14T13:15:57.000Z</time>
      </trkpt>
      <trkpt lat="45.82258" lon="4.65666">
        <ele>296.0596</ele>
        <time>2023-05-14T13:15:58.000Z</time>
      </trkpt>
      <trkpt lat="45.82255" lon="4.65669">
        <ele>295.75397</ele>
        <time>2023-05-14T13:15:59.000Z</time>
      </trkpt>
      <trkpt lat="45.82251" lon="4.65671">
        <ele>295.46613</ele>
        <time>2023-05-14T13:16:00.000Z</time>
      </trkpt>
      <trkpt lat="45.82248" lon="4.65673">
        <ele>295.14401</ele>
        <time>2023-05-14T13:16:01.000Z</time>
      </trkpt>
      <trkpt lat="45.82244" lon="4.65676">
        <ele>294.90079</ele>
        <time>2023-05-14T13:16:02.000Z</time>
      </trkpt>
      <trkpt lat="45.8224" lon="4.65679">
        <ele>294.71057</ele>
        <time>2023-05-14T13:16:03.000Z</time>
      </trkpt>
      <trkpt lat="45.82237" lon="4.65682">
        <ele>294.54761</ele>
        <time>2023-05-14T13:16:04.000Z</time>
      </trkpt>
      <trkpt lat="45.82233" lon="4.65683">
        <ele>294.46054</ele>
        <time>2023-05-14T13:16:05.000Z</time>
      </trkpt>
      <trkpt lat="45.82229" lon="4.65685">
        <ele>294.47043</ele>
        <time>2023-05-14T13:16:06.000Z</time>
      </trkpt>
      <trkpt lat="45.82224" lon="4.65687">
        <ele>294.55936</ele>
        <time>2023-05-14T13:16:07.000Z</time>
      </trkpt>
      <trkpt lat="45.82219" lon="4.65688">
        <ele>294.7207</ele>
        <time>2023-05-14T13:16:08.000Z</time>
      </trkpt>
      <trkpt lat="45.82213" lon="4.65689">
        <ele>294.98993</ele>
        <time>2023-05-14T13:16:09.000Z</time>
      </trkpt>
      <trkpt lat="45.82209" lon="4.65688">
        <ele>295.25836</ele>
        <time>2023-05-14T13:16:10.000Z</time>
      </trkpt>
      <trkpt lat="45.82204" lon="4.65687">
        <ele>295.70279</ele>
        <time>2023-05-14T13:16:11.000Z</time>
      </trkpt>
      <trkpt lat="45.82199" lon="4.65687">
        <ele>296.13263</ele>
        <time>2023-05-14T13:16:12.000Z</time>
      </trkpt>
      <trkpt lat="45.82195" lon="4.65687">
        <ele>296.57391</ele>
        <time>2023-05-14T13:16:13.000Z</time>
      </trkpt>
      <trkpt lat="45.8219" lon="4.65688">
        <ele>297.00201</ele>
        <time>2023-05-14T13:16:14.000Z</time>
      </trkpt>
      <trkpt lat="45.82186" lon="4.65688">
        <ele>297.45184</ele>
        <time>2023-05-14T13:16:15.000Z</time>
      </trkpt>
      <trkpt lat="45.82181" lon="4.65688">
        <ele>297.90735</ele>
        <time>2023-05-14T13:16:16.000Z</time>
      </trkpt>
      <trkpt lat="45.82176" lon="4.65688">
        <ele>298.36322</ele>
        <time>2023-05-14T13:16:17.000Z</time>
      </trkpt>
      <trkpt lat="45.82172" lon="4.65689">
        <ele>298.85349</ele>
        <time>2023-05-14T13:16:18.000Z</time>
      </trkpt>
      <trkpt lat="45.82167" lon="4.65689">
        <ele>299.3266</ele>
        <time>2023-05-14T13:16:19.000Z</time>
      </trkpt>
      <trkpt lat="45.82163" lon="4.6569">
        <ele>299.6424</ele>
        <time>2023-05-14T13:16:20.000Z</time>
      </trkpt>
      <trkpt lat="45.82158" lon="4.65691">
        <ele>300.04294</ele>
        <time>2023-05-14T13:16:21.000Z</time>
      </trkpt>
      <trkpt lat="45.82154" lon="4.65691">
        <ele>300.48029</ele>
        <time>2023-05-14T13:16:22.000Z</time>
      </trkpt>
      <trkpt lat="45.8215" lon="4.65691">
        <ele>300.89487</ele>
        <time>2023-05-14T13:16:23.000Z</time>
      </trkpt>
      <trkpt lat="45.82146" lon="4.65691">
        <ele>301.29739</ele>
        <time>2023-05-14T13:16:24.000Z</time>
      </trkpt>
      <trkpt lat="45.82142" lon="4.65691">
        <ele>301.80023</ele>
        <time>2023-05-14T13:16:25.000Z</time>
      </trkpt>
      <trkpt lat="45.82137" lon="4.65692">
        <ele>302.36356</ele>
        <time>2023-05-14T13:16:26.000Z</time>
      </trkpt>
      <trkpt lat="45.82134" lon="4.65692">
        <ele>302.88455</ele>
        <time>2023-05-14T13:16:27.000Z</time>
      </trkpt>
      <trkpt lat="45.82131" lon="4.65692">
        <ele>303.18927</ele>
        <time>2023-05-14T13:16:28.000Z</time>
      </trkpt>
      <trkpt lat="45.82128" lon="4.65693">
        <ele>303.50189</ele>
        <time>2023-05-14T13:16:29.000Z</time>
      </trkpt>
      <trkpt lat="45.82124" lon="4.65694">
        <ele>303.81647</ele>
        <time>2023-05-14T13:16:30.000Z</time>
      </trkpt>
      <trkpt lat="45.82121" lon="4.65695">
        <ele>303.9621</ele>
        <time>2023-05-14T13:16:31.000Z</time>
      </trkpt>
      <trkpt lat="45.82118" lon="4.65695">
        <ele>304.12848</ele>
        <time>2023-05-14T13:16:32.000Z</time>
      </trkpt>
      <trkpt lat="45.82115" lon="4.65695">
        <ele>304.38104</ele>
        <time>2023-05-14T13:16:33.000Z</time>
      </trkpt>
      <trkpt lat="45.82112" lon="4.65696">
        <ele>304.69791</ele>
        <time>2023-05-14T13:16:34.000Z</time>
      </trkpt>
      <trkpt lat="45.82108" lon="4.65696">
        <ele>304.9715</ele>
        <time>2023-05-14T13:16:35.000Z</time>
      </trkpt>
      <trkpt lat="45.82105" lon="4.65698">
        <ele>305.02426</ele>
        <time>2023-05-14T13:16:36.000Z</time>
      </trkpt>
      <trkpt lat="45.82099" lon="4.657">
        <ele>305.06757</ele>
        <time>2023-05-14T13:16:37.000Z</time>
      </trkpt>
      <trkpt lat="45.82095" lon="4.65703">
        <ele>305.11786</ele>
        <time>2023-05-14T13:16:38.000Z</time>
      </trkpt>
      <trkpt lat="45.82092" lon="4.65706">
        <ele>305.18719</ele>
        <time>2023-05-14T13:16:39.000Z</time>
      </trkpt>
      <trkpt lat="45.82088" lon="4.65708">
        <ele>305.42889</ele>
        <time>2023-05-14T13:16:40.000Z</time>
      </trkpt>
      <trkpt lat="45.82085" lon="4.65711">
        <ele>305.69208</ele>
        <time>2023-05-14T13:16:41.000Z</time>
      </trkpt>
      <trkpt lat="45.82082" lon="4.65713">
        <ele>305.85242</ele>
        <time>2023-05-14T13:16:42.000Z</time>
      </trkpt>
      <trkpt lat="45.82078" lon="4.65716">
        <ele>306.04419</ele>
        <time>2023-05-14T13:16:43.000Z</time>
      </trkpt>
      <trkpt lat="45.82077" lon="4.65722">
        <ele>306.23676</ele>
        <time>2023-05-14T13:16:44.000Z</time>
      </trkpt>
      <trkpt lat="45.82076" lon="4.65726">
        <ele>306.31848</ele>
        <time>2023-05-14T13:16:45.000Z</time>
      </trkpt>
      <trkpt lat="45.82076" lon="4.65731">
        <ele>306.32278</ele>
        <time>2023-05-14T13:16:46.000Z</time>
      </trkpt>
      <trkpt lat="45.82076" lon="4.65737">
        <ele>306.3045</ele>
        <time>2023-05-14T13:16:47.000Z</time>
      </trkpt>
      <trkpt lat="45.82076" lon="4.65743">
        <ele>306.47153</ele>
        <time>2023-05-14T13:16:48.000Z</time>
      </trkpt>
      <trkpt lat="45.82076" lon="4.65749">
        <ele>306.58926</ele>
        <time>2023-05-14T13:16:49.000Z</time>
      </trkpt>
      <trkpt lat="45.82077" lon="4.65755">
        <ele>306.67883</ele>
        <time>2023-05-14T13:16:50.000Z</time>
      </trkpt>
      <trkpt lat="45.82077" lon="4.6576">
        <ele>306.74292</ele>
        <time>2023-05-14T13:16:51.000Z</time>
      </trkpt>
      <trkpt lat="45.82077" lon="4.65766">
        <ele>306.75848</ele>
        <time>2023-05-14T13:16:52.000Z</time>
      </trkpt>
      <trkpt lat="45.82076" lon="4.65772">
        <ele>306.67133</ele>
        <time>2023-05-14T13:16:53.000Z</time>
      </trkpt>
      <trkpt lat="45.82076" lon="4.65778">
        <ele>306.49689</ele>
        <time>2023-05-14T13:16:54.000Z</time>
      </trkpt>
      <trkpt lat="45.82076" lon="4.65785">
        <ele>306.32422</ele>
        <time>2023-05-14T13:16:55.000Z</time>
      </trkpt>
      <trkpt lat="45.82077" lon="4.65791">
        <ele>306.36612</ele>
        <time>2023-05-14T13:16:56.000Z</time>
      </trkpt>
      <trkpt lat="45.82076" lon="4.65797">
        <ele>306.4231</ele>
        <time>2023-05-14T13:16:57.000Z</time>
      </trkpt>
      <trkpt lat="45.82077" lon="4.65804">
        <ele>306.55219</ele>
        <time>2023-05-14T13:16:58.000Z</time>
      </trkpt>
      <trkpt lat="45.82077" lon="4.65811">
        <ele>306.70563</ele>
        <time>2023-05-14T13:16:59.000Z</time>
      </trkpt>
      <trkpt lat="45.82077" lon="4.65818">
        <ele>306.84351</ele>
        <time>2023-05-14T13:17:00.000Z</time>
      </trkpt>
      <trkpt lat="45.82077" lon="4.65825">
        <ele>306.75735</ele>
        <time>2023-05-14T13:17:01.000Z</time>
      </trkpt>
      <trkpt lat="45.82078" lon="4.65831">
        <ele>306.73734</ele>
        <time>2023-05-14T13:17:02.000Z</time>
      </trkpt>
      <trkpt lat="45.82081" lon="4.65839">
        <ele>306.69592</ele>
        <time>2023-05-14T13:17:03.000Z</time>
      </trkpt>
      <trkpt lat="45.82083" lon="4.65845">
        <ele>306.67114</ele>
        <time>2023-05-14T13:17:04.000Z</time>
      </trkpt>
      <trkpt lat="45.82084" lon="4.65851">
        <ele>306.62482</ele>
        <time>2023-05-14T13:17:05.000Z</time>
      </trkpt>
      <trkpt lat="45.82085" lon="4.65857">
        <ele>306.57562</ele>
        <time>2023-05-14T13:17:06.000Z</time>
      </trkpt>
      <trkpt lat="45.82086" lon="4.65863">
        <ele>306.63922</ele>
        <time>2023-05-14T13:17:07.000Z</time>
      </trkpt>
      <trkpt lat="45.82088" lon="4.6587">
        <ele>306.70816</ele>
        <time>2023-05-14T13:17:08.000Z</time>
      </trkpt>
      <trkpt lat="45.8209" lon="4.65877">
        <ele>306.81747</ele>
        <time>2023-05-14T13:17:09.000Z</time>
      </trkpt>
      <trkpt lat="45.82092" lon="4.65883">
        <ele>306.99701</ele>
        <time>2023-05-14T13:17:10.000Z</time>
      </trkpt>
      <trkpt lat="45.82093" lon="4.6589">
        <ele>307.03183</ele>
        <time>2023-05-14T13:17:11.000Z</time>
      </trkpt>
      <trkpt lat="45.82094" lon="4.65897">
        <ele>307.13989</ele>
        <time>2023-05-14T13:17:12.000Z</time>
      </trkpt>
      <trkpt lat="45.82095" lon="4.65903">
        <ele>307.26462</ele>
        <time>2023-05-14T13:17:13.000Z</time>
      </trkpt>
      <trkpt lat="45.82096" lon="4.65909">
        <ele>307.41635</ele>
        <time>2023-05-14T13:17:14.000Z</time>
      </trkpt>
      <trkpt lat="45.82097" lon="4.65916">
        <ele>307.60443</ele>
        <time>2023-05-14T13:17:15.000Z</time>
      </trkpt>
      <trkpt lat="45.82098" lon="4.65923">
        <ele>307.76544</ele>
        <time>2023-05-14T13:17:16.000Z</time>
      </trkpt>
      <trkpt lat="45.82099" lon="4.65929">
        <ele>307.99725</ele>
        <time>2023-05-14T13:17:17.000Z</time>
      </trkpt>
      <trkpt lat="45.821" lon="4.65936">
        <ele>308.18011</ele>
        <time>2023-05-14T13:17:18.000Z</time>
      </trkpt>
      <trkpt lat="45.821" lon="4.65942">
        <ele>308.33917</ele>
        <time>2023-05-14T13:17:19.000Z</time>
      </trkpt>
      <trkpt lat="45.82101" lon="4.65949">
        <ele>308.50702</ele>
        <time>2023-05-14T13:17:20.000Z</time>
      </trkpt>
      <trkpt lat="45.821" lon="4.65956">
        <ele>308.72754</ele>
        <time>2023-05-14T13:17:21.000Z</time>
      </trkpt>
      <trkpt lat="45.82101" lon="4.65963">
        <ele>308.94806</ele>
        <time>2023-05-14T13:17:22.000Z</time>
      </trkpt>
      <trkpt lat="45.82103" lon="4.65971">
        <ele>309.18405</ele>
        <time>2023-05-14T13:17:23.000Z</time>
      </trkpt>
      <trkpt lat="45.82103" lon="4.65979">
        <ele>309.43768</ele>
        <time>2023-05-14T13:17:24.000Z</time>
      </trkpt>
      <trkpt lat="45.82104" lon="4.65986">
        <ele>309.78293</ele>
        <time>2023-05-14T13:17:25.000Z</time>
      </trkpt>
      <trkpt lat="45.82104" lon="4.65993">
        <ele>310.17093</ele>
        <time>2023-05-14T13:17:26.000Z</time>
      </trkpt>
      <trkpt lat="45.82105" lon="4.66001">
        <ele>310.50171</ele>
        <time>2023-05-14T13:17:27.000Z</time>
      </trkpt>
      <trkpt lat="45.82106" lon="4.66009">
        <ele>310.74323</ele>
        <time>2023-05-14T13:17:28.000Z</time>
      </trkpt>
      <trkpt lat="45.82107" lon="4.66016">
        <ele>310.99011</ele>
        <time>2023-05-14T13:17:29.000Z</time>
      </trkpt>
      <trkpt lat="45.82108" lon="4.66023">
        <ele>311.20001</ele>
        <time>2023-05-14T13:17:30.000Z</time>
      </trkpt>
      <trkpt lat="45.82109" lon="4.6603">
        <ele>311.58527</ele>
        <time>2023-05-14T13:17:31.000Z</time>
      </trkpt>
      <trkpt lat="45.8211" lon="4.66038">
        <ele>311.9328</ele>
        <time>2023-05-14T13:17:32.000Z</time>
      </trkpt>
      <trkpt lat="45.8211" lon="4.66046">
        <ele>312.29208</ele>
        <time>2023-05-14T13:17:33.000Z</time>
      </trkpt>
      <trkpt lat="45.82111" lon="4.66052">
        <ele>312.65717</ele>
        <time>2023-05-14T13:17:34.000Z</time>
      </trkpt>
      <trkpt lat="45.82113" lon="4.6606">
        <ele>313.04971</ele>
        <time>2023-05-14T13:17:35.000Z</time>
      </trkpt>
      <trkpt lat="45.82114" lon="4.66067">
        <ele>313.483</ele>
        <time>2023-05-14T13:17:36.000Z</time>
      </trkpt>
      <trkpt lat="45.82114" lon="4.66075">
        <ele>313.90601</ele>
        <time>2023-05-14T13:17:37.000Z</time>
      </trkpt>
      <trkpt lat="45.82115" lon="4.66082">
        <ele>314.33017</ele>
        <time>2023-05-14T13:17:38.000Z</time>
      </trkpt>
      <trkpt lat="45.82116" lon="4.66089">
        <ele>314.71997</ele>
        <time>2023-05-14T13:17:39.000Z</time>
      </trkpt>
      <trkpt lat="45.82118" lon="4.66095">
        <ele>315.12253</ele>
        <time>2023-05-14T13:17:40.000Z</time>
      </trkpt>
      <trkpt lat="45.82119" lon="4.661">
        <ele>315.69308</ele>
        <time>2023-05-14T13:17:41.000Z</time>
      </trkpt>
      <trkpt lat="45.8212" lon="4.66104">
        <ele>316.23834</ele>
        <time>2023-05-14T13:17:42.000Z</time>
      </trkpt>
      <trkpt lat="45.82121" lon="4.66109">
        <ele>316.72961</ele>
        <time>2023-05-14T13:17:43.000Z</time>
      </trkpt>
      <trkpt lat="45.82121" lon="4.66113">
        <ele>317.18753</ele>
        <time>2023-05-14T13:17:44.000Z</time>
      </trkpt>
      <trkpt lat="45.82123" lon="4.66116">
        <ele>317.55994</ele>
        <time>2023-05-14T13:17:45.000Z</time>
      </trkpt>
      <trkpt lat="45.82124" lon="4.66117">
        <ele>317.88174</ele>
        <time>2023-05-14T13:17:46.000Z</time>
      </trkpt>
      <trkpt lat="45.82126" lon="4.66118">
        <ele>318.19449</ele>
        <time>2023-05-14T13:17:47.000Z</time>
      </trkpt>
      <trkpt lat="45.8213" lon="4.66117">
        <ele>318.56464</ele>
        <time>2023-05-14T13:17:49.000Z</time>
      </trkpt>
      <trkpt lat="45.82132" lon="4.66116">
        <ele>318.90753</ele>
        <time>2023-05-14T13:17:51.000Z</time>
      </trkpt>
      <trkpt lat="45.82132" lon="4.66119">
        <ele>319.20416</ele>
        <time>2023-05-14T13:18:21.000Z</time>
      </trkpt>
      <trkpt lat="45.82132" lon="4.66122">
        <ele>319.50162</ele>
        <time>2023-05-14T13:18:22.000Z</time>
      </trkpt>
      <trkpt lat="45.82132" lon="4.66126">
        <ele>319.77792</ele>
        <time>2023-05-14T13:18:23.000Z</time>
      </trkpt>
      <trkpt lat="45.82131" lon="4.66131">
        <ele>320.03815</ele>
        <time>2023-05-14T13:18:24.000Z</time>
      </trkpt>
      <trkpt lat="45.82131" lon="4.66135">
        <ele>320.26566</ele>
        <time>2023-05-14T13:18:25.000Z</time>
      </trkpt>
      <trkpt lat="45.82131" lon="4.66139">
        <ele>320.45135</ele>
        <time>2023-05-14T13:18:26.000Z</time>
      </trkpt>
      <trkpt lat="45.82131" lon="4.66144">
        <ele>320.61725</ele>
        <time>2023-05-14T13:18:27.000Z</time>
      </trkpt>
      <trkpt lat="45.82131" lon="4.66148">
        <ele>320.68536</ele>
        <time>2023-05-14T13:18:28.000Z</time>
      </trkpt>
      <trkpt lat="45.82132" lon="4.66153">
        <ele>320.72882</ele>
        <time>2023-05-14T13:18:29.000Z</time>
      </trkpt>
      <trkpt lat="45.82134" lon="4.66158">
        <ele>320.79352</ele>
        <time>2023-05-14T13:18:30.000Z</time>
      </trkpt>
      <trkpt lat="45.82135" lon="4.66163">
        <ele>320.78421</ele>
        <time>2023-05-14T13:18:31.000Z</time>
      </trkpt>
      <trkpt lat="45.82136" lon="4.66168">
        <ele>320.74301</ele>
        <time>2023-05-14T13:18:32.000Z</time>
      </trkpt>
      <trkpt lat="45.82137" lon="4.66173">
        <ele>320.67572</ele>
        <time>2023-05-14T13:18:33.000Z</time>
      </trkpt>
      <trkpt lat="45.82138" lon="4.66179">
        <ele>320.63943</ele>
        <time>2023-05-14T13:18:34.000Z</time>
      </trkpt>
      <trkpt lat="45.82139" lon="4.66186">
        <ele>320.59393</ele>
        <time>2023-05-14T13:18:35.000Z</time>
      </trkpt>
      <trkpt lat="45.8214" lon="4.66193">
        <ele>320.53143</ele>
        <time>2023-05-14T13:18:36.000Z</time>
      </trkpt>
      <trkpt lat="45.82141" lon="4.662">
        <ele>320.47836</ele>
        <time>2023-05-14T13:18:37.000Z</time>
      </trkpt>
      <trkpt lat="45.82142" lon="4.66208">
        <ele>320.39697</ele>
        <time>2023-05-14T13:18:38.000Z</time>
      </trkpt>
      <trkpt lat="45.82143" lon="4.66215">
        <ele>320.33731</ele>
        <time>2023-05-14T13:18:39.000Z</time>
      </trkpt>
      <trkpt lat="45.82143" lon="4.66223">
        <ele>320.25198</ele>
        <time>2023-05-14T13:18:40.000Z</time>
      </trkpt>
      <trkpt lat="45.82144" lon="4.6623">
        <ele>320.18536</ele>
        <time>2023-05-14T13:18:41.000Z</time>
      </trkpt>
      <trkpt lat="45.82145" lon="4.66237">
        <ele>320.07971</ele>
        <time>2023-05-14T13:18:42.000Z</time>
      </trkpt>
      <trkpt lat="45.82146" lon="4.66244">
        <ele>319.90955</ele>
        <time>2023-05-14T13:18:43.000Z</time>
      </trkpt>
      <trkpt lat="45.82147" lon="4.66251">
        <ele>319.73627</ele>
        <time>2023-05-14T13:18:44.000Z</time>
      </trkpt>
      <trkpt lat="45.82148" lon="4.66258">
        <ele>319.5835</ele>
        <time>2023-05-14T13:18:45.000Z</time>
      </trkpt>
      <trkpt lat="45.82148" lon="4.66266">
        <ele>319.41156</ele>
        <time>2023-05-14T13:18:46.000Z</time>
      </trkpt>
      <trkpt lat="45.82149" lon="4.66275">
        <ele>319.22125</ele>
        <time>2023-05-14T13:18:47.000Z</time>
      </trkpt>
      <trkpt lat="45.82149" lon="4.66283">
        <ele>319.04712</ele>
        <time>2023-05-14T13:18:48.000Z</time>
      </trkpt>
      <trkpt lat="45.82148" lon="4.66292">
        <ele>318.84711</ele>
        <time>2023-05-14T13:18:49.000Z</time>
      </trkpt>
      <trkpt lat="45.82147" lon="4.66303">
        <ele>318.61932</ele>
        <time>2023-05-14T13:18:50.000Z</time>
      </trkpt>
      <trkpt lat="45.82146" lon="4.66314">
        <ele>318.40509</ele>
        <time>2023-05-14T13:18:51.000Z</time>
      </trkpt>
      <trkpt lat="45.82144" lon="4.66323">
        <ele>318.17902</ele>
        <time>2023-05-14T13:18:52.000Z</time>
      </trkpt>
      <trkpt lat="45.82141" lon="4.66334">
        <ele>317.91779</ele>
        <time>2023-05-14T13:18:53.000Z</time>
      </trkpt>
      <trkpt lat="45.8214" lon="4.66345">
        <ele>317.64352</ele>
        <time>2023-05-14T13:18:54.000Z</time>
      </trkpt>
      <trkpt lat="45.82139" lon="4.66356">
        <ele>317.37042</ele>
        <time>2023-05-14T13:18:55.000Z</time>
      </trkpt>
      <trkpt lat="45.82139" lon="4.66366">
        <ele>317.0871</ele>
        <time>2023-05-14T13:18:56.000Z</time>
      </trkpt>
      <trkpt lat="45.82138" lon="4.66377">
        <ele>316.76544</ele>
        <time>2023-05-14T13:18:57.000Z</time>
      </trkpt>
      <trkpt lat="45.82137" lon="4.66388">
        <ele>316.45105</ele>
        <time>2023-05-14T13:18:58.000Z</time>
      </trkpt>
      <trkpt lat="45.82137" lon="4.66399">
        <ele>316.11603</ele>
        <time>2023-05-14T13:18:59.000Z</time>
      </trkpt>
      <trkpt lat="45.82137" lon="4.6641">
        <ele>315.77872</ele>
        <time>2023-05-14T13:19:00.000Z</time>
      </trkpt>
      <trkpt lat="45.82137" lon="4.66421">
        <ele>315.4332</ele>
        <time>2023-05-14T13:19:01.000Z</time>
      </trkpt>
      <trkpt lat="45.82137" lon="4.66432">
        <ele>315.0932</ele>
        <time>2023-05-14T13:19:02.000Z</time>
      </trkpt>
      <trkpt lat="45.82138" lon="4.66444">
        <ele>314.79874</ele>
        <time>2023-05-14T13:19:03.000Z</time>
      </trkpt>
      <trkpt lat="45.82138" lon="4.66454">
        <ele>314.50165</ele>
        <time>2023-05-14T13:19:04.000Z</time>
      </trkpt>
      <trkpt lat="45.82137" lon="4.66465">
        <ele>314.19891</ele>
        <time>2023-05-14T13:19:05.000Z</time>
      </trkpt>
      <trkpt lat="45.82137" lon="4.66475">
        <ele>313.92163</ele>
        <time>2023-05-14T13:19:06.000Z</time>
      </trkpt>
      <trkpt lat="45.82137" lon="4.66484">
        <ele>313.6745</ele>
        <time>2023-05-14T13:19:07.000Z</time>
      </trkpt>
      <trkpt lat="45.82138" lon="4.66493">
        <ele>313.44955</ele>
        <time>2023-05-14T13:19:08.000Z</time>
      </trkpt>
      <trkpt lat="45.82137" lon="4.66501">
        <ele>313.21976</ele>
        <time>2023-05-14T13:19:09.000Z</time>
      </trkpt>
      <trkpt lat="45.82137" lon="4.66509">
        <ele>313.02277</ele>
        <time>2023-05-14T13:19:10.000Z</time>
      </trkpt>
      <trkpt lat="45.82136" lon="4.66517">
        <ele>312.83856</ele>
        <time>2023-05-14T13:19:11.000Z</time>
      </trkpt>
      <trkpt lat="45.82134" lon="4.66525">
        <ele>312.61465</ele>
        <time>2023-05-14T13:19:12.000Z</time>
      </trkpt>
      <trkpt lat="45.82133" lon="4.66532">
        <ele>312.46454</ele>
        <time>2023-05-14T13:19:13.000Z</time>
      </trkpt>
      <trkpt lat="45.82132" lon="4.66539">
        <ele>312.34091</ele>
        <time>2023-05-14T13:19:14.000Z</time>
      </trkpt>
      <trkpt lat="45.82132" lon="4.66546">
        <ele>312.22662</ele>
        <time>2023-05-14T13:19:15.000Z</time>
      </trkpt>
      <trkpt lat="45.82132" lon="4.66553">
        <ele>312.10834</ele>
        <time>2023-05-14T13:19:16.000Z</time>
      </trkpt>
      <trkpt lat="45.82132" lon="4.6656">
        <ele>312.00995</ele>
        <time>2023-05-14T13:19:17.000Z</time>
      </trkpt>
      <trkpt lat="45.82133" lon="4.66567">
        <ele>311.90762</ele>
        <time>2023-05-14T13:19:18.000Z</time>
      </trkpt>
      <trkpt lat="45.82133" lon="4.66574">
        <ele>311.8302</ele>
        <time>2023-05-14T13:19:19.000Z</time>
      </trkpt>
      <trkpt lat="45.82133" lon="4.66582">
        <ele>311.75003</ele>
        <time>2023-05-14T13:19:20.000Z</time>
      </trkpt>
      <trkpt lat="45.82133" lon="4.6659">
        <ele>311.68488</ele>
        <time>2023-05-14T13:19:21.000Z</time>
      </trkpt>
      <trkpt lat="45.82133" lon="4.66598">
        <ele>311.66907</ele>
        <time>2023-05-14T13:19:22.000Z</time>
      </trkpt>
      <trkpt lat="45.82133" lon="4.66606">
        <ele>311.68204</ele>
        <time>2023-05-14T13:19:23.000Z</time>
      </trkpt>
      <trkpt lat="45.82134" lon="4.66613">
        <ele>311.71783</ele>
        <time>2023-05-14T13:19:24.000Z</time>
      </trkpt>
      <trkpt lat="45.82135" lon="4.66622">
        <ele>311.74789</ele>
        <time>2023-05-14T13:19:25.000Z</time>
      </trkpt>
      <trkpt lat="45.82135" lon="4.66631">
        <ele>311.61685</ele>
        <time>2023-05-14T13:19:26.000Z</time>
      </trkpt>
      <trkpt lat="45.82134" lon="4.6664">
        <ele>311.48108</ele>
        <time>2023-05-14T13:19:27.000Z</time>
      </trkpt>
      <trkpt lat="45.82134" lon="4.66648">
        <ele>311.31683</ele>
        <time>2023-05-14T13:19:28.000Z</time>
      </trkpt>
      <trkpt lat="45.82134" lon="4.66658">
        <ele>311.14969</ele>
        <time>2023-05-14T13:19:29.000Z</time>
      </trkpt>
      <trkpt lat="45.82135" lon="4.66668">
        <ele>310.95358</ele>
        <time>2023-05-14T13:19:30.000Z</time>
      </trkpt>
      <trkpt lat="45.82137" lon="4.66677">
        <ele>310.76154</ele>
        <time>2023-05-14T13:19:31.000Z</time>
      </trkpt>
      <trkpt lat="45.82141" lon="4.66685">
        <ele>310.59082</ele>
        <time>2023-05-14T13:19:32.000Z</time>
      </trkpt>
      <trkpt lat="45.82145" lon="4.66691">
        <ele>310.36639</ele>
        <time>2023-05-14T13:19:33.000Z</time>
      </trkpt>
      <trkpt lat="45.82149" lon="4.66698">
        <ele>310.11746</ele>
        <time>2023-05-14T13:19:34.000Z</time>
      </trkpt>
      <trkpt lat="45.82151" lon="4.66706">
        <ele>309.82098</ele>
        <time>2023-05-14T13:19:35.000Z</time>
      </trkpt>
      <trkpt lat="45.8215" lon="4.66714">
        <ele>309.53101</ele>
        <time>2023-05-14T13:19:36.000Z</time>
      </trkpt>
      <trkpt lat="45.82147" lon="4.66722">
        <ele>309.22339</ele>
        <time>2023-05-14T13:19:37.000Z</time>
      </trkpt>
      <trkpt lat="45.82144" lon="4.6673">
        <ele>308.91629</ele>
        <time>2023-05-14T13:19:38.000Z</time>
      </trkpt>
      <trkpt lat="45.8214" lon="4.66738">
        <ele>308.59241</ele>
        <time>2023-05-14T13:19:39.000Z</time>
      </trkpt>
      <trkpt lat="45.82137" lon="4.66746">
        <ele>308.2746</ele>
        <time>2023-05-14T13:19:40.000Z</time>
      </trkpt>
      <trkpt lat="45.82133" lon="4.66754">
        <ele>307.9325</ele>
        <time>2023-05-14T13:19:41.000Z</time>
      </trkpt>
      <trkpt lat="45.82129" lon="4.66762">
        <ele>307.53375</ele>
        <time>2023-05-14T13:19:42.000Z</time>
      </trkpt>
      <trkpt lat="45.82125" lon="4.66769">
        <ele>307.12653</ele>
        <time>2023-05-14T13:19:43.000Z</time>
      </trkpt>
      <trkpt lat="45.82121" lon="4.66774">
        <ele>306.68439</ele>
        <time>2023-05-14T13:19:44.000Z</time>
      </trkpt>
      <trkpt lat="45.82118" lon="4.66779">
        <ele>306.34601</ele>
        <time>2023-05-14T13:19:45.000Z</time>
      </trkpt>
      <trkpt lat="45.82115" lon="4.66781">
        <ele>306.21991</ele>
        <time>2023-05-14T13:19:46.000Z</time>
      </trkpt>
      <trkpt lat="45.82112" lon="4.66782">
        <ele>306.08301</ele>
        <time>2023-05-14T13:19:47.000Z</time>
      </trkpt>
      <trkpt lat="45.82109" lon="4.66783">
        <ele>305.74225</ele>
        <time>2023-05-14T13:19:48.000Z</time>
      </trkpt>
      <trkpt lat="45.82105" lon="4.66783">
        <ele>305.42999</ele>
        <time>2023-05-14T13:19:49.000Z</time>
      </trkpt>
      <trkpt lat="45.82102" lon="4.66782">
        <ele>305.14316</ele>
        <time>2023-05-14T13:19:50.000Z</time>
      </trkpt>
      <trkpt lat="45.82099" lon="4.66779">
        <ele>304.87054</ele>
        <time>2023-05-14T13:19:51.000Z</time>
      </trkpt>
      <trkpt lat="45.82096" lon="4.66777">
        <ele>304.6481</ele>
        <time>2023-05-14T13:19:52.000Z</time>
      </trkpt>
      <trkpt lat="45.82093" lon="4.66774">
        <ele>304.42725</ele>
        <time>2023-05-14T13:19:53.000Z</time>
      </trkpt>
      <trkpt lat="45.8209" lon="4.66773">
        <ele>304.24374</ele>
        <time>2023-05-14T13:19:54.000Z</time>
      </trkpt>
      <trkpt lat="45.82087" lon="4.66774">
        <ele>304.1048</ele>
        <time>2023-05-14T13:19:55.000Z</time>
      </trkpt>
      <trkpt lat="45.82084" lon="4.66775">
        <ele>303.98999</ele>
        <time>2023-05-14T13:19:56.000Z</time>
      </trkpt>
      <trkpt lat="45.82082" lon="4.66776">
        <ele>304.05206</ele>
        <time>2023-05-14T13:19:57.000Z</time>
      </trkpt>
      <trkpt lat="45.82081" lon="4.66779">
        <ele>304.13208</ele>
        <time>2023-05-14T13:19:58.000Z</time>
      </trkpt>
      <trkpt lat="45.82082" lon="4.66782">
        <ele>304.05173</ele>
        <time>2023-05-14T13:19:59.000Z</time>
      </trkpt>
      <trkpt lat="45.82083" lon="4.66786">
        <ele>304.02261</ele>
        <time>2023-05-14T13:20:00.000Z</time>
      </trkpt>
      <trkpt lat="45.82083" lon="4.6679">
        <ele>303.98273</ele>
        <time>2023-05-14T13:20:01.000Z</time>
      </trkpt>
      <trkpt lat="45.82082" lon="4.66794">
        <ele>303.992</ele>
        <time>2023-05-14T13:20:02.000Z</time>
      </trkpt>
      <trkpt lat="45.82081" lon="4.66798">
        <ele>303.98477</ele>
        <time>2023-05-14T13:20:03.000Z</time>
      </trkpt>
      <trkpt lat="45.82079" lon="4.66803">
        <ele>303.97064</ele>
        <time>2023-05-14T13:20:04.000Z</time>
      </trkpt>
      <trkpt lat="45.82076" lon="4.66805">
        <ele>303.84091</ele>
        <time>2023-05-14T13:20:05.000Z</time>
      </trkpt>
      <trkpt lat="45.82072" lon="4.66806">
        <ele>303.64166</ele>
        <time>2023-05-14T13:20:06.000Z</time>
      </trkpt>
      <trkpt lat="45.82069" lon="4.66805">
        <ele>303.44147</ele>
        <time>2023-05-14T13:20:07.000Z</time>
      </trkpt>
      <trkpt lat="45.82066" lon="4.66804">
        <ele>303.4776</ele>
        <time>2023-05-14T13:20:08.000Z</time>
      </trkpt>
      <trkpt lat="45.82064" lon="4.66804">
        <ele>303.47235</ele>
        <time>2023-05-14T13:20:09.000Z</time>
      </trkpt>
      <trkpt lat="45.82061" lon="4.66805">
        <ele>303.44614</ele>
        <time>2023-05-14T13:20:10.000Z</time>
      </trkpt>
      <trkpt lat="45.82059" lon="4.66806">
        <ele>303.41068</ele>
        <time>2023-05-14T13:20:11.000Z</time>
      </trkpt>
      <trkpt lat="45.82058" lon="4.6681">
        <ele>303.3465</ele>
        <time>2023-05-14T13:20:12.000Z</time>
      </trkpt>
      <trkpt lat="45.82058" lon="4.66813">
        <ele>303.36102</ele>
        <time>2023-05-14T13:20:13.000Z</time>
      </trkpt>
      <trkpt lat="45.8206" lon="4.66815">
        <ele>303.36877</ele>
        <time>2023-05-14T13:20:14.000Z</time>
      </trkpt>
      <trkpt lat="45.82063" lon="4.66814">
        <ele>303.35968</ele>
        <time>2023-05-14T13:20:15.000Z</time>
      </trkpt>
      <trkpt lat="45.82066" lon="4.66812">
        <ele>303.35419</ele>
        <time>2023-05-14T13:20:16.000Z</time>
      </trkpt>
      <trkpt lat="45.82072" lon="4.66813">
        <ele>303.21246</ele>
        <time>2023-05-14T13:20:17.000Z</time>
      </trkpt>
      <trkpt lat="45.82076" lon="4.66817">
        <ele>303.04474</ele>
        <time>2023-05-14T13:20:18.000Z</time>
      </trkpt>
      <trkpt lat="45.8208" lon="4.66822">
        <ele>303.06155</ele>
        <time>2023-05-14T13:20:19.000Z</time>
      </trkpt>
      <trkpt lat="45.82085" lon="4.66826">
        <ele>303.02673</ele>
        <time>2023-05-14T13:20:20.000Z</time>
      </trkpt>
      <trkpt lat="45.82089" lon="4.6683">
        <ele>303.01248</ele>
        <time>2023-05-14T13:20:21.000Z</time>
      </trkpt>
      <trkpt lat="45.82092" lon="4.66835">
        <ele>302.94659</ele>
        <time>2023-05-14T13:20:22.000Z</time>
      </trkpt>
      <trkpt lat="45.82096" lon="4.6684">
        <ele>302.92114</ele>
        <time>2023-05-14T13:20:23.000Z</time>
      </trkpt>
      <trkpt lat="45.821" lon="4.66844">
        <ele>302.89252</ele>
        <time>2023-05-14T13:20:24.000Z</time>
      </trkpt>
      <trkpt lat="45.82103" lon="4.66849">
        <ele>302.88257</ele>
        <time>2023-05-14T13:20:25.000Z</time>
      </trkpt>
      <trkpt lat="45.82106" lon="4.66852">
        <ele>302.86179</ele>
        <time>2023-05-14T13:20:26.000Z</time>
      </trkpt>
      <trkpt lat="45.8211" lon="4.66857">
        <ele>302.83633</ele>
        <time>2023-05-14T13:20:27.000Z</time>
      </trkpt>
      <trkpt lat="45.82114" lon="4.66861">
        <ele>302.79401</ele>
        <time>2023-05-14T13:20:28.000Z</time>
      </trkpt>
      <trkpt lat="45.82118" lon="4.66864">
        <ele>302.88449</ele>
        <time>2023-05-14T13:20:29.000Z</time>
      </trkpt>
      <trkpt lat="45.82121" lon="4.66869">
        <ele>303.06473</ele>
        <time>2023-05-14T13:20:30.000Z</time>
      </trkpt>
      <trkpt lat="45.82123" lon="4.66875">
        <ele>303.18549</ele>
        <time>2023-05-14T13:20:31.000Z</time>
      </trkpt>
      <trkpt lat="45.82125" lon="4.66881">
        <ele>303.29092</ele>
        <time>2023-05-14T13:20:32.000Z</time>
      </trkpt>
      <trkpt lat="45.82128" lon="4.66886">
        <ele>303.1369</ele>
        <time>2023-05-14T13:20:33.000Z</time>
      </trkpt>
      <trkpt lat="45.8213" lon="4.66892">
        <ele>303.01782</ele>
        <time>2023-05-14T13:20:34.000Z</time>
      </trkpt>
      <trkpt lat="45.82133" lon="4.66896">
        <ele>302.9313</ele>
        <time>2023-05-14T13:20:35.000Z</time>
      </trkpt>
      <trkpt lat="45.82137" lon="4.66897">
        <ele>302.85089</ele>
        <time>2023-05-14T13:20:36.000Z</time>
      </trkpt>
      <trkpt lat="45.82141" lon="4.66895">
        <ele>302.77377</ele>
        <time>2023-05-14T13:20:37.000Z</time>
      </trkpt>
      <trkpt lat="45.82145" lon="4.6689">
        <ele>302.71985</ele>
        <time>2023-05-14T13:20:38.000Z</time>
      </trkpt>
      <trkpt lat="45.8215" lon="4.66888">
        <ele>302.62717</ele>
        <time>2023-05-14T13:20:39.000Z</time>
      </trkpt>
      <trkpt lat="45.82154" lon="4.66888">
        <ele>302.55127</ele>
        <time>2023-05-14T13:20:40.000Z</time>
      </trkpt>
      <trkpt lat="45.82159" lon="4.66889">
        <ele>302.49738</ele>
        <time>2023-05-14T13:20:41.000Z</time>
      </trkpt>
      <trkpt lat="45.82164" lon="4.6689">
        <ele>302.46527</ele>
        <time>2023-05-14T13:20:42.000Z</time>
      </trkpt>
      <trkpt lat="45.8217" lon="4.6689">
        <ele>302.42838</ele>
        <time>2023-05-14T13:20:43.000Z</time>
      </trkpt>
      <trkpt lat="45.82175" lon="4.6689">
        <ele>302.39471</ele>
        <time>2023-05-14T13:20:44.000Z</time>
      </trkpt>
      <trkpt lat="45.8218" lon="4.6689">
        <ele>302.46112</ele>
        <time>2023-05-14T13:20:45.000Z</time>
      </trkpt>
      <trkpt lat="45.82186" lon="4.66889">
        <ele>302.54205</ele>
        <time>2023-05-14T13:20:46.000Z</time>
      </trkpt>
      <trkpt lat="45.82191" lon="4.66888">
        <ele>302.63586</ele>
        <time>2023-05-14T13:20:47.000Z</time>
      </trkpt>
      <trkpt lat="45.82196" lon="4.66888">
        <ele>302.76395</ele>
        <time>2023-05-14T13:20:48.000Z</time>
      </trkpt>
      <trkpt lat="45.82201" lon="4.66887">
        <ele>302.79364</ele>
        <time>2023-05-14T13:20:49.000Z</time>
      </trkpt>
      <trkpt lat="45.82205" lon="4.66886">
        <ele>302.74829</ele>
        <time>2023-05-14T13:20:50.000Z</time>
      </trkpt>
      <trkpt lat="45.8221" lon="4.66884">
        <ele>302.76883</ele>
        <time>2023-05-14T13:20:51.000Z</time>
      </trkpt>
      <trkpt lat="45.82214" lon="4.66883">
        <ele>302.82755</ele>
        <time>2023-05-14T13:20:52.000Z</time>
      </trkpt>
      <trkpt lat="45.82219" lon="4.66882">
        <ele>303.10846</ele>
        <time>2023-05-14T13:20:53.000Z</time>
      </trkpt>
      <trkpt lat="45.82223" lon="4.66881">
        <ele>303.15894</ele>
        <time>2023-05-14T13:20:54.000Z</time>
      </trkpt>
      <trkpt lat="45.82228" lon="4.6688">
        <ele>303.24832</ele>
        <time>2023-05-14T13:20:55.000Z</time>
      </trkpt>
      <trkpt lat="45.82232" lon="4.66878">
        <ele>303.33575</ele>
        <time>2023-05-14T13:20:56.000Z</time>
      </trkpt>
      <trkpt lat="45.82237" lon="4.66877">
        <ele>303.39175</ele>
        <time>2023-05-14T13:20:57.000Z</time>
      </trkpt>
      <trkpt lat="45.82241" lon="4.66876">
        <ele>303.45892</ele>
        <time>2023-05-14T13:20:58.000Z</time>
      </trkpt>
      <trkpt lat="45.82245" lon="4.66875">
        <ele>303.55243</ele>
        <time>2023-05-14T13:20:59.000Z</time>
      </trkpt>
      <trkpt lat="45.8225" lon="4.66874">
        <ele>303.65598</ele>
        <time>2023-05-14T13:21:00.000Z</time>
      </trkpt>
      <trkpt lat="45.82254" lon="4.66873">
        <ele>303.76227</ele>
        <time>2023-05-14T13:21:01.000Z</time>
      </trkpt>
      <trkpt lat="45.82259" lon="4.66871">
        <ele>303.81912</ele>
        <time>2023-05-14T13:21:02.000Z</time>
      </trkpt>
      <trkpt lat="45.82264" lon="4.6687">
        <ele>303.88397</ele>
        <time>2023-05-14T13:21:03.000Z</time>
      </trkpt>
      <trkpt lat="45.82268" lon="4.66868">
        <ele>303.94031</ele>
        <time>2023-05-14T13:21:04.000Z</time>
      </trkpt>
      <trkpt lat="45.82272" lon="4.66868">
        <ele>303.89191</ele>
        <time>2023-05-14T13:21:05.000Z</time>
      </trkpt>
      <trkpt lat="45.82276" lon="4.66868">
        <ele>303.87775</ele>
        <time>2023-05-14T13:21:06.000Z</time>
      </trkpt>
      <trkpt lat="45.82281" lon="4.66868">
        <ele>303.85849</ele>
        <time>2023-05-14T13:21:07.000Z</time>
      </trkpt>
      <trkpt lat="45.82285" lon="4.6687">
        <ele>303.79544</ele>
        <time>2023-05-14T13:21:08.000Z</time>
      </trkpt>
      <trkpt lat="45.82289" lon="4.6687">
        <ele>303.74704</ele>
        <time>2023-05-14T13:21:09.000Z</time>
      </trkpt>
      <trkpt lat="45.82293" lon="4.66871">
        <ele>303.67438</ele>
        <time>2023-05-14T13:21:10.000Z</time>
      </trkpt>
      <trkpt lat="45.82297" lon="4.66871">
        <ele>303.60962</ele>
        <time>2023-05-14T13:21:11.000Z</time>
      </trkpt>
      <trkpt lat="45.82301" lon="4.66871">
        <ele>303.53781</ele>
        <time>2023-05-14T13:21:12.000Z</time>
      </trkpt>
      <trkpt lat="45.82305" lon="4.66871">
        <ele>303.46933</ele>
        <time>2023-05-14T13:21:13.000Z</time>
      </trkpt>
      <trkpt lat="45.82308" lon="4.66872">
        <ele>303.60663</ele>
        <time>2023-05-14T13:21:14.000Z</time>
      </trkpt>
      <trkpt lat="45.82311" lon="4.66872">
        <ele>303.69</ele>
        <time>2023-05-14T13:21:15.000Z</time>
      </trkpt>
      <trkpt lat="45.82315" lon="4.66872">
        <ele>303.75906</ele>
        <time>2023-05-14T13:21:16.000Z</time>
      </trkpt>
      <trkpt lat="45.82319" lon="4.66873">
        <ele>303.81863</ele>
        <time>2023-05-14T13:21:17.000Z</time>
      </trkpt>
      <trkpt lat="45.82322" lon="4.66873">
        <ele>303.86945</ele>
        <time>2023-05-14T13:21:18.000Z</time>
      </trkpt>
      <trkpt lat="45.82326" lon="4.66875">
        <ele>303.9259</ele>
        <time>2023-05-14T13:21:19.000Z</time>
      </trkpt>
      <trkpt lat="45.8233" lon="4.66877">
        <ele>303.97253</ele>
        <time>2023-05-14T13:21:20.000Z</time>
      </trkpt>
      <trkpt lat="45.82333" lon="4.6688">
        <ele>303.98376</ele>
        <time>2023-05-14T13:21:21.000Z</time>
      </trkpt>
      <trkpt lat="45.82337" lon="4.66883">
        <ele>304.04791</ele>
        <time>2023-05-14T13:21:22.000Z</time>
      </trkpt>
      <trkpt lat="45.8234" lon="4.66886">
        <ele>304.086</ele>
        <time>2023-05-14T13:21:23.000Z</time>
      </trkpt>
      <trkpt lat="45.82344" lon="4.66889">
        <ele>304.15674</ele>
        <time>2023-05-14T13:21:24.000Z</time>
      </trkpt>
      <trkpt lat="45.82348" lon="4.66892">
        <ele>304.2338</ele>
        <time>2023-05-14T13:21:25.000Z</time>
      </trkpt>
      <trkpt lat="45.82351" lon="4.66895">
        <ele>304.30133</ele>
        <time>2023-05-14T13:21:26.000Z</time>
      </trkpt>
      <trkpt lat="45.82354" lon="4.66898">
        <ele>304.37625</ele>
        <time>2023-05-14T13:21:27.000Z</time>
      </trkpt>
      <trkpt lat="45.82358" lon="4.66903">
        <ele>304.4632</ele>
        <time>2023-05-14T13:21:28.000Z</time>
      </trkpt>
      <trkpt lat="45.82361" lon="4.66906">
        <ele>304.5481</ele>
        <time>2023-05-14T13:21:29.000Z</time>
      </trkpt>
      <trkpt lat="45.82365" lon="4.6691">
        <ele>304.66397</ele>
        <time>2023-05-14T13:21:30.000Z</time>
      </trkpt>
      <trkpt lat="45.82368" lon="4.66913">
        <ele>304.79865</ele>
        <time>2023-05-14T13:21:31.000Z</time>
      </trkpt>
      <trkpt lat="45.82371" lon="4.66918">
        <ele>304.91577</ele>
        <time>2023-05-14T13:21:32.000Z</time>
      </trkpt>
      <trkpt lat="45.82374" lon="4.66922">
        <ele>305.11676</ele>
        <time>2023-05-14T13:21:33.000Z</time>
      </trkpt>
      <trkpt lat="45.82376" lon="4.66927">
        <ele>305.3634</ele>
        <time>2023-05-14T13:21:34.000Z</time>
      </trkpt>
      <trkpt lat="45.82379" lon="4.66932">
        <ele>305.60754</ele>
        <time>2023-05-14T13:21:35.000Z</time>
      </trkpt>
      <trkpt lat="45.82381" lon="4.66937">
        <ele>305.71417</ele>
        <time>2023-05-14T13:21:36.000Z</time>
      </trkpt>
      <trkpt lat="45.82384" lon="4.66941">
        <ele>305.87848</ele>
        <time>2023-05-14T13:21:37.000Z</time>
      </trkpt>
      <trkpt lat="45.82387" lon="4.66946">
        <ele>306.05426</ele>
        <time>2023-05-14T13:21:38.000Z</time>
      </trkpt>
      <trkpt lat="45.8239" lon="4.66951">
        <ele>306.22412</ele>
        <time>2023-05-14T13:21:39.000Z</time>
      </trkpt>
      <trkpt lat="45.82393" lon="4.66955">
        <ele>306.38559</ele>
        <time>2023-05-14T13:21:40.000Z</time>
      </trkpt>
      <trkpt lat="45.82395" lon="4.66959">
        <ele>306.56573</ele>
        <time>2023-05-14T13:21:41.000Z</time>
      </trkpt>
      <trkpt lat="45.82399" lon="4.66965">
        <ele>306.72729</ele>
        <time>2023-05-14T13:21:42.000Z</time>
      </trkpt>
      <trkpt lat="45.82402" lon="4.6697">
        <ele>306.90039</ele>
        <time>2023-05-14T13:21:43.000Z</time>
      </trkpt>
      <trkpt lat="45.82405" lon="4.66975">
        <ele>307.08295</ele>
        <time>2023-05-14T13:21:44.000Z</time>
      </trkpt>
      <trkpt lat="45.82408" lon="4.6698">
        <ele>307.26935</ele>
        <time>2023-05-14T13:21:45.000Z</time>
      </trkpt>
      <trkpt lat="45.8241" lon="4.66985">
        <ele>307.44061</ele>
        <time>2023-05-14T13:21:46.000Z</time>
      </trkpt>
      <trkpt lat="45.82413" lon="4.66991">
        <ele>307.59271</ele>
        <time>2023-05-14T13:21:47.000Z</time>
      </trkpt>
      <trkpt lat="45.82415" lon="4.66996">
        <ele>307.77072</ele>
        <time>2023-05-14T13:21:48.000Z</time>
      </trkpt>
      <trkpt lat="45.82418" lon="4.67001">
        <ele>307.94043</ele>
        <time>2023-05-14T13:21:49.000Z</time>
      </trkpt>
      <trkpt lat="45.82421" lon="4.67006">
        <ele>308.13916</ele>
        <time>2023-05-14T13:21:50.000Z</time>
      </trkpt>
      <trkpt lat="45.82423" lon="4.6701">
        <ele>308.38852</ele>
        <time>2023-05-14T13:21:51.000Z</time>
      </trkpt>
      <trkpt lat="45.82426" lon="4.67016">
        <ele>308.67853</ele>
        <time>2023-05-14T13:21:52.000Z</time>
      </trkpt>
      <trkpt lat="45.82429" lon="4.67021">
        <ele>308.68915</ele>
        <time>2023-05-14T13:21:53.000Z</time>
      </trkpt>
      <trkpt lat="45.82429" lon="4.67028">
        <ele>308.66226</ele>
        <time>2023-05-14T13:21:54.000Z</time>
      </trkpt>
      <trkpt lat="45.82428" lon="4.67033">
        <ele>308.63995</ele>
        <time>2023-05-14T13:21:55.000Z</time>
      </trkpt>
      <trkpt lat="45.82426" lon="4.67037">
        <ele>308.54218</ele>
        <time>2023-05-14T13:21:56.000Z</time>
      </trkpt>
      <trkpt lat="45.82424" lon="4.6704">
        <ele>308.39359</ele>
        <time>2023-05-14T13:21:57.000Z</time>
      </trkpt>
      <trkpt lat="45.82421" lon="4.67041">
        <ele>308.20126</ele>
        <time>2023-05-14T13:21:58.000Z</time>
      </trkpt>
      <trkpt lat="45.8242" lon="4.67044">
        <ele>308.04016</ele>
        <time>2023-05-14T13:21:59.000Z</time>
      </trkpt>
      <trkpt lat="45.82419" lon="4.67048">
        <ele>307.87927</ele>
        <time>2023-05-14T13:22:00.000Z</time>
      </trkpt>
      <trkpt lat="45.82421" lon="4.67051">
        <ele>307.72812</ele>
        <time>2023-05-14T13:22:01.000Z</time>
      </trkpt>
      <trkpt lat="45.82422" lon="4.67055">
        <ele>307.60541</ele>
        <time>2023-05-14T13:22:02.000Z</time>
      </trkpt>
      <trkpt lat="45.82422" lon="4.67059">
        <ele>307.461</ele>
        <time>2023-05-14T13:22:03.000Z</time>
      </trkpt>
      <trkpt lat="45.82421" lon="4.67064">
        <ele>307.30695</ele>
        <time>2023-05-14T13:22:04.000Z</time>
      </trkpt>
      <trkpt lat="45.8242" lon="4.6707">
        <ele>307.13339</ele>
        <time>2023-05-14T13:22:05.000Z</time>
      </trkpt>
      <trkpt lat="45.82419" lon="4.67075">
        <ele>306.96222</ele>
        <time>2023-05-14T13:22:06.000Z</time>
      </trkpt>
      <trkpt lat="45.82418" lon="4.6708">
        <ele>306.81021</ele>
        <time>2023-05-14T13:22:07.000Z</time>
      </trkpt>
      <trkpt lat="45.82417" lon="4.67085">
        <ele>306.64996</ele>
        <time>2023-05-14T13:22:08.000Z</time>
      </trkpt>
      <trkpt lat="45.82417" lon="4.6709">
        <ele>306.49432</ele>
        <time>2023-05-14T13:22:09.000Z</time>
      </trkpt>
      <trkpt lat="45.82416" lon="4.67096">
        <ele>306.30338</ele>
        <time>2023-05-14T13:22:10.000Z</time>
      </trkpt>
      <trkpt lat="45.82416" lon="4.67102">
        <ele>306.07831</ele>
        <time>2023-05-14T13:22:11.000Z</time>
      </trkpt>
      <trkpt lat="45.82415" lon="4.67106">
        <ele>305.85168</ele>
        <time>2023-05-14T13:22:12.000Z</time>
      </trkpt>
      <trkpt lat="45.82414" lon="4.6711">
        <ele>305.80066</ele>
        <time>2023-05-14T13:22:13.000Z</time>
      </trkpt>
      <trkpt lat="45.82414" lon="4.67114">
        <ele>305.72928</ele>
        <time>2023-05-14T13:22:15.000Z</time>
      </trkpt>
      <trkpt lat="45.82413" lon="4.67117">
        <ele>305.6828</ele>
        <time>2023-05-14T13:22:17.000Z</time>
      </trkpt>
      <trkpt lat="45.82413" lon="4.67114">
        <ele>305.80115</ele>
        <time>2023-05-14T13:22:21.000Z</time>
      </trkpt>
      <trkpt lat="45.82414" lon="4.6711">
        <ele>305.93924</ele>
        <time>2023-05-14T13:22:22.000Z</time>
      </trkpt>
      <trkpt lat="45.82414" lon="4.67106">
        <ele>306.09</ele>
        <time>2023-05-14T13:22:23.000Z</time>
      </trkpt>
      <trkpt lat="45.82415" lon="4.67102">
        <ele>306.19849</ele>
        <time>2023-05-14T13:22:24.000Z</time>
      </trkpt>
      <trkpt lat="45.82415" lon="4.67097">
        <ele>306.29388</ele>
        <time>2023-05-14T13:22:25.000Z</time>
      </trkpt>
      <trkpt lat="45.82416" lon="4.67091">
        <ele>306.37048</ele>
        <time>2023-05-14T13:22:26.000Z</time>
      </trkpt>
      <trkpt lat="45.82418" lon="4.67083">
        <ele>306.44662</ele>
        <time>2023-05-14T13:22:27.000Z</time>
      </trkpt>
      <trkpt lat="45.82419" lon="4.67076">
        <ele>306.50537</ele>
        <time>2023-05-14T13:22:28.000Z</time>
      </trkpt>
      <trkpt lat="45.82419" lon="4.6707">
        <ele>306.57547</ele>
        <time>2023-05-14T13:22:29.000Z</time>
      </trkpt>
      <trkpt lat="45.8242" lon="4.67064">
        <ele>306.6452</ele>
        <time>2023-05-14T13:22:30.000Z</time>
      </trkpt>
      <trkpt lat="45.82421" lon="4.67057">
        <ele>306.7226</ele>
        <time>2023-05-14T13:22:31.000Z</time>
      </trkpt>
      <trkpt lat="45.82422" lon="4.67053">
        <ele>306.75027</ele>
        <time>2023-05-14T13:22:32.000Z</time>
      </trkpt>
      <trkpt lat="45.82424" lon="4.6705">
        <ele>306.74005</ele>
        <time>2023-05-14T13:22:33.000Z</time>
      </trkpt>
      <trkpt lat="45.82427" lon="4.67048">
        <ele>306.71259</ele>
        <time>2023-05-14T13:22:34.000Z</time>
      </trkpt>
      <trkpt lat="45.82429" lon="4.67044">
        <ele>306.69153</ele>
        <time>2023-05-14T13:22:35.000Z</time>
      </trkpt>
      <trkpt lat="45.82432" lon="4.67041">
        <ele>306.60226</ele>
        <time>2023-05-14T13:22:36.000Z</time>
      </trkpt>
      <trkpt lat="45.82435" lon="4.67038">
        <ele>306.46844</ele>
        <time>2023-05-14T13:22:37.000Z</time>
      </trkpt>
      <trkpt lat="45.82439" lon="4.67039">
        <ele>306.33667</ele>
        <time>2023-05-14T13:22:38.000Z</time>
      </trkpt>
      <trkpt lat="45.82441" lon="4.67038">
        <ele>306.20248</ele>
        <time>2023-05-14T13:22:39.000Z</time>
      </trkpt>
      <trkpt lat="45.82443" lon="4.67038">
        <ele>306.03128</ele>
        <time>2023-05-14T13:22:40.000Z</time>
      </trkpt>
      <trkpt lat="45.82445" lon="4.67039">
        <ele>305.90802</ele>
        <time>2023-05-14T13:22:42.000Z</time>
      </trkpt>
      <trkpt lat="45.82446" lon="4.67041">
        <ele>305.78925</ele>
        <time>2023-05-14T13:22:43.000Z</time>
      </trkpt>
      <trkpt lat="45.82446" lon="4.67044">
        <ele>305.71265</ele>
        <time>2023-05-14T13:22:44.000Z</time>
      </trkpt>
      <trkpt lat="45.82445" lon="4.67047">
        <ele>305.64966</ele>
        <time>2023-05-14T13:22:45.000Z</time>
      </trkpt>
      <trkpt lat="45.82442" lon="4.67051">
        <ele>305.59082</ele>
        <time>2023-05-14T13:22:46.000Z</time>
      </trkpt>
      <trkpt lat="45.8244" lon="4.67056">
        <ele>305.54114</ele>
        <time>2023-05-14T13:22:47.000Z</time>
      </trkpt>
      <trkpt lat="45.82438" lon="4.67061">
        <ele>305.42606</ele>
        <time>2023-05-14T13:22:48.000Z</time>
      </trkpt>
      <trkpt lat="45.82436" lon="4.67066">
        <ele>305.37872</ele>
        <time>2023-05-14T13:22:49.000Z</time>
      </trkpt>
      <trkpt lat="45.82434" lon="4.67071">
        <ele>305.31476</ele>
        <time>2023-05-14T13:22:50.000Z</time>
      </trkpt>
      <trkpt lat="45.82432" lon="4.67076">
        <ele>305.2738</ele>
        <time>2023-05-14T13:22:51.000Z</time>
      </trkpt>
      <trkpt lat="45.82431" lon="4.67082">
        <ele>305.22147</ele>
        <time>2023-05-14T13:22:52.000Z</time>
      </trkpt>
      <trkpt lat="45.8243" lon="4.67087">
        <ele>305.22968</ele>
        <time>2023-05-14T13:22:53.000Z</time>
      </trkpt>
      <trkpt lat="45.82429" lon="4.67093">
        <ele>305.2637</ele>
        <time>2023-05-14T13:22:54.000Z</time>
      </trkpt>
      <trkpt lat="45.82427" lon="4.67098">
        <ele>305.31171</ele>
        <time>2023-05-14T13:22:55.000Z</time>
      </trkpt>
      <trkpt lat="45.82425" lon="4.67103">
        <ele>305.36136</ele>
        <time>2023-05-14T13:22:56.000Z</time>
      </trkpt>
      <trkpt lat="45.82422" lon="4.67109">
        <ele>305.4393</ele>
        <time>2023-05-14T13:22:57.000Z</time>
      </trkpt>
      <trkpt lat="45.82419" lon="4.67113">
        <ele>305.52023</ele>
        <time>2023-05-14T13:22:58.000Z</time>
      </trkpt>
      <trkpt lat="45.82417" lon="4.67118">
        <ele>305.6077</ele>
        <time>2023-05-14T13:22:59.000Z</time>
      </trkpt>
      <trkpt lat="45.82415" lon="4.67123">
        <ele>305.67438</ele>
        <time>2023-05-14T13:23:00.000Z</time>
      </trkpt>
      <trkpt lat="45.82412" lon="4.67128">
        <ele>305.7579</ele>
        <time>2023-05-14T13:23:01.000Z</time>
      </trkpt>
      <trkpt lat="45.82411" lon="4.67134">
        <ele>305.83731</ele>
        <time>2023-05-14T13:23:02.000Z</time>
      </trkpt>
      <trkpt lat="45.82409" lon="4.67139">
        <ele>305.91895</ele>
        <time>2023-05-14T13:23:03.000Z</time>
      </trkpt>
      <trkpt lat="45.82407" lon="4.67145">
        <ele>305.98102</ele>
        <time>2023-05-14T13:23:04.000Z</time>
      </trkpt>
      <trkpt lat="45.82405" lon="4.67151">
        <ele>306.03479</ele>
        <time>2023-05-14T13:23:05.000Z</time>
      </trkpt>
      <trkpt lat="45.82403" lon="4.67157">
        <ele>306.11499</ele>
        <time>2023-05-14T13:23:06.000Z</time>
      </trkpt>
      <trkpt lat="45.82401" lon="4.67163">
        <ele>306.19009</ele>
        <time>2023-05-14T13:23:07.000Z</time>
      </trkpt>
      <trkpt lat="45.82399" lon="4.67168">
        <ele>306.29086</ele>
        <time>2023-05-14T13:23:08.000Z</time>
      </trkpt>
      <trkpt lat="45.82398" lon="4.67175">
        <ele>306.35764</ele>
        <time>2023-05-14T13:23:09.000Z</time>
      </trkpt>
      <trkpt lat="45.82396" lon="4.67181">
        <ele>306.43619</ele>
        <time>2023-05-14T13:23:10.000Z</time>
      </trkpt>
      <trkpt lat="45.82394" lon="4.67187">
        <ele>306.49957</ele>
        <time>2023-05-14T13:23:11.000Z</time>
      </trkpt>
      <trkpt lat="45.82392" lon="4.67193">
        <ele>306.5683</ele>
        <time>2023-05-14T13:23:12.000Z</time>
      </trkpt>
      <trkpt lat="45.82391" lon="4.67199">
        <ele>306.62051</ele>
        <time>2023-05-14T13:23:13.000Z</time>
      </trkpt>
      <trkpt lat="45.82389" lon="4.67205">
        <ele>306.67349</ele>
        <time>2023-05-14T13:23:14.000Z</time>
      </trkpt>
      <trkpt lat="45.82387" lon="4.67211">
        <ele>306.71185</ele>
        <time>2023-05-14T13:23:15.000Z</time>
      </trkpt>
      <trkpt lat="45.82385" lon="4.67217">
        <ele>306.74359</ele>
        <time>2023-05-14T13:23:16.000Z</time>
      </trkpt>
      <trkpt lat="45.82383" lon="4.67222">
        <ele>306.78751</ele>
        <time>2023-05-14T13:23:17.000Z</time>
      </trkpt>
      <trkpt lat="45.8238" lon="4.67228">
        <ele>306.85803</ele>
        <time>2023-05-14T13:23:18.000Z</time>
      </trkpt>
      <trkpt lat="45.82378" lon="4.67235">
        <ele>306.96533</ele>
        <time>2023-05-14T13:23:19.000Z</time>
      </trkpt>
      <trkpt lat="45.82376" lon="4.67241">
        <ele>307.09732</ele>
        <time>2023-05-14T13:23:20.000Z</time>
      </trkpt>
      <trkpt lat="45.82374" lon="4.67248">
        <ele>307.24194</ele>
        <time>2023-05-14T13:23:21.000Z</time>
      </trkpt>
      <trkpt lat="45.82371" lon="4.67254">
        <ele>307.40533</ele>
        <time>2023-05-14T13:23:22.000Z</time>
      </trkpt>
      <trkpt lat="45.82369" lon="4.67259">
        <ele>307.50397</ele>
        <time>2023-05-14T13:23:23.000Z</time>
      </trkpt>
      <trkpt lat="45.82366" lon="4.67265">
        <ele>307.60077</ele>
        <time>2023-05-14T13:23:24.000Z</time>
      </trkpt>
      <trkpt lat="45.82364" lon="4.67271">
        <ele>307.70837</ele>
        <time>2023-05-14T13:23:25.000Z</time>
      </trkpt>
      <trkpt lat="45.82362" lon="4.67278">
        <ele>307.7901</ele>
        <time>2023-05-14T13:23:26.000Z</time>
      </trkpt>
      <trkpt lat="45.8236" lon="4.67283">
        <ele>307.88577</ele>
        <time>2023-05-14T13:23:27.000Z</time>
      </trkpt>
      <trkpt lat="45.82357" lon="4.67289">
        <ele>307.99036</ele>
        <time>2023-05-14T13:23:28.000Z</time>
      </trkpt>
      <trkpt lat="45.82356" lon="4.67296">
        <ele>308.09457</ele>
        <time>2023-05-14T13:23:29.000Z</time>
      </trkpt>
      <trkpt lat="45.82352" lon="4.67302">
        <ele>308.19064</ele>
        <time>2023-05-14T13:23:30.000Z</time>
      </trkpt>
      <trkpt lat="45.8235" lon="4.67309">
        <ele>308.30185</ele>
        <time>2023-05-14T13:23:31.000Z</time>
      </trkpt>
      <trkpt lat="45.82348" lon="4.67316">
        <ele>308.39932</ele>
        <time>2023-05-14T13:23:32.000Z</time>
      </trkpt>
      <trkpt lat="45.82346" lon="4.67322">
        <ele>308.48993</ele>
        <time>2023-05-14T13:23:33.000Z</time>
      </trkpt>
      <trkpt lat="45.82344" lon="4.67329">
        <ele>308.62524</ele>
        <time>2023-05-14T13:23:34.000Z</time>
      </trkpt>
      <trkpt lat="45.82342" lon="4.67336">
        <ele>308.77972</ele>
        <time>2023-05-14T13:23:35.000Z</time>
      </trkpt>
      <trkpt lat="45.8234" lon="4.67341">
        <ele>308.97137</ele>
        <time>2023-05-14T13:23:36.000Z</time>
      </trkpt>
      <trkpt lat="45.82337" lon="4.67348">
        <ele>309.16776</ele>
        <time>2023-05-14T13:23:37.000Z</time>
      </trkpt>
      <trkpt lat="45.82336" lon="4.67354">
        <ele>309.36191</ele>
        <time>2023-05-14T13:23:38.000Z</time>
      </trkpt>
      <trkpt lat="45.82334" lon="4.6736">
        <ele>309.53418</ele>
        <time>2023-05-14T13:23:39.000Z</time>
      </trkpt>
      <trkpt lat="45.82332" lon="4.67367">
        <ele>309.70184</ele>
        <time>2023-05-14T13:23:40.000Z</time>
      </trkpt>
      <trkpt lat="45.8233" lon="4.67373">
        <ele>309.85202</ele>
        <time>2023-05-14T13:23:41.000Z</time>
      </trkpt>
      <trkpt lat="45.82328" lon="4.67379">
        <ele>310.00299</ele>
        <time>2023-05-14T13:23:42.000Z</time>
      </trkpt>
      <trkpt lat="45.82325" lon="4.67385">
        <ele>310.20786</ele>
        <time>2023-05-14T13:23:43.000Z</time>
      </trkpt>
      <trkpt lat="45.82323" lon="4.67391">
        <ele>310.4187</ele>
        <time>2023-05-14T13:23:44.000Z</time>
      </trkpt>
      <trkpt lat="45.82322" lon="4.67398">
        <ele>310.64798</ele>
        <time>2023-05-14T13:23:45.000Z</time>
      </trkpt>
      <trkpt lat="45.82319" lon="4.67404">
        <ele>310.90601</ele>
        <time>2023-05-14T13:23:46.000Z</time>
      </trkpt>
      <trkpt lat="45.82317" lon="4.67411">
        <ele>311.16449</ele>
        <time>2023-05-14T13:23:47.000Z</time>
      </trkpt>
      <trkpt lat="45.82315" lon="4.67417">
        <ele>311.4375</ele>
        <time>2023-05-14T13:23:48.000Z</time>
      </trkpt>
      <trkpt lat="45.82313" lon="4.67422">
        <ele>311.67877</ele>
        <time>2023-05-14T13:23:49.000Z</time>
      </trkpt>
      <trkpt lat="45.82312" lon="4.6743">
        <ele>311.92999</ele>
        <time>2023-05-14T13:23:50.000Z</time>
      </trkpt>
      <trkpt lat="45.8231" lon="4.67437">
        <ele>312.1748</ele>
        <time>2023-05-14T13:23:51.000Z</time>
      </trkpt>
      <trkpt lat="45.82307" lon="4.67444">
        <ele>312.4155</ele>
        <time>2023-05-14T13:23:52.000Z</time>
      </trkpt>
      <trkpt lat="45.82305" lon="4.6745">
        <ele>312.67194</ele>
        <time>2023-05-14T13:23:53.000Z</time>
      </trkpt>
      <trkpt lat="45.82302" lon="4.67457">
        <ele>312.88342</ele>
        <time>2023-05-14T13:23:54.000Z</time>
      </trkpt>
      <trkpt lat="45.823" lon="4.67463">
        <ele>313.08145</ele>
        <time>2023-05-14T13:23:55.000Z</time>
      </trkpt>
      <trkpt lat="45.82297" lon="4.67469">
        <ele>313.22632</ele>
        <time>2023-05-14T13:23:56.000Z</time>
      </trkpt>
      <trkpt lat="45.82294" lon="4.67476">
        <ele>313.35901</ele>
        <time>2023-05-14T13:23:57.000Z</time>
      </trkpt>
      <trkpt lat="45.82292" lon="4.67482">
        <ele>313.47809</ele>
        <time>2023-05-14T13:23:58.000Z</time>
      </trkpt>
      <trkpt lat="45.8229" lon="4.67488">
        <ele>313.54181</ele>
        <time>2023-05-14T13:23:59.000Z</time>
      </trkpt>
      <trkpt lat="45.82287" lon="4.67495">
        <ele>313.59683</ele>
        <time>2023-05-14T13:24:00.000Z</time>
      </trkpt>
      <trkpt lat="45.82284" lon="4.675">
        <ele>313.60059</ele>
        <time>2023-05-14T13:24:01.000Z</time>
      </trkpt>
      <trkpt lat="45.82281" lon="4.67506">
        <ele>313.5787</ele>
        <time>2023-05-14T13:24:02.000Z</time>
      </trkpt>
      <trkpt lat="45.82279" lon="4.67513">
        <ele>313.55316</ele>
        <time>2023-05-14T13:24:03.000Z</time>
      </trkpt>
      <trkpt lat="45.82276" lon="4.67519">
        <ele>313.61118</ele>
        <time>2023-05-14T13:24:04.000Z</time>
      </trkpt>
      <trkpt lat="45.82274" lon="4.67526">
        <ele>313.65054</ele>
        <time>2023-05-14T13:24:05.000Z</time>
      </trkpt>
      <trkpt lat="45.82272" lon="4.67533">
        <ele>313.67828</ele>
        <time>2023-05-14T13:24:06.000Z</time>
      </trkpt>
      <trkpt lat="45.8227" lon="4.67539">
        <ele>313.71945</ele>
        <time>2023-05-14T13:24:07.000Z</time>
      </trkpt>
      <trkpt lat="45.82268" lon="4.67546">
        <ele>313.76294</ele>
        <time>2023-05-14T13:24:08.000Z</time>
      </trkpt>
      <trkpt lat="45.82266" lon="4.67552">
        <ele>313.83954</ele>
        <time>2023-05-14T13:24:09.000Z</time>
      </trkpt>
      <trkpt lat="45.82264" lon="4.67558">
        <ele>313.9191</ele>
        <time>2023-05-14T13:24:10.000Z</time>
      </trkpt>
      <trkpt lat="45.82262" lon="4.67563">
        <ele>313.95752</ele>
        <time>2023-05-14T13:24:11.000Z</time>
      </trkpt>
      <trkpt lat="45.82261" lon="4.67571">
        <ele>314.00815</ele>
        <time>2023-05-14T13:24:12.000Z</time>
      </trkpt>
      <trkpt lat="45.82259" lon="4.67577">
        <ele>314.07474</ele>
        <time>2023-05-14T13:24:13.000Z</time>
      </trkpt>
      <trkpt lat="45.82256" lon="4.67583">
        <ele>314.11789</ele>
        <time>2023-05-14T13:24:14.000Z</time>
      </trkpt>
      <trkpt lat="45.82254" lon="4.67589">
        <ele>314.18341</ele>
        <time>2023-05-14T13:24:15.000Z</time>
      </trkpt>
      <trkpt lat="45.82252" lon="4.67596">
        <ele>314.29645</ele>
        <time>2023-05-14T13:24:16.000Z</time>
      </trkpt>
      <trkpt lat="45.8225" lon="4.67603">
        <ele>314.43353</ele>
        <time>2023-05-14T13:24:17.000Z</time>
      </trkpt>
      <trkpt lat="45.82248" lon="4.6761">
        <ele>314.60056</ele>
        <time>2023-05-14T13:24:18.000Z</time>
      </trkpt>
      <trkpt lat="45.82246" lon="4.67617">
        <ele>314.81784</ele>
        <time>2023-05-14T13:24:19.000Z</time>
      </trkpt>
      <trkpt lat="45.82244" lon="4.67623">
        <ele>315.065</ele>
        <time>2023-05-14T13:24:20.000Z</time>
      </trkpt>
      <trkpt lat="45.82242" lon="4.67629">
        <ele>315.38849</ele>
        <time>2023-05-14T13:24:21.000Z</time>
      </trkpt>
      <trkpt lat="45.8224" lon="4.67635">
        <ele>315.75836</ele>
        <time>2023-05-14T13:24:22.000Z</time>
      </trkpt>
      <trkpt lat="45.82239" lon="4.6764">
        <ele>316.12576</ele>
        <time>2023-05-14T13:24:23.000Z</time>
      </trkpt>
      <trkpt lat="45.82236" lon="4.67644">
        <ele>316.39893</ele>
        <time>2023-05-14T13:24:24.000Z</time>
      </trkpt>
      <trkpt lat="45.82235" lon="4.67648">
        <ele>316.65964</ele>
        <time>2023-05-14T13:24:25.000Z</time>
      </trkpt>
      <trkpt lat="45.82233" lon="4.67653">
        <ele>316.92801</ele>
        <time>2023-05-14T13:24:26.000Z</time>
      </trkpt>
      <trkpt lat="45.82232" lon="4.67657">
        <ele>317.20261</ele>
        <time>2023-05-14T13:24:27.000Z</time>
      </trkpt>
      <trkpt lat="45.82232" lon="4.67662">
        <ele>317.4729</ele>
        <time>2023-05-14T13:24:28.000Z</time>
      </trkpt>
      <trkpt lat="45.82231" lon="4.67668">
        <ele>317.75854</ele>
        <time>2023-05-14T13:24:29.000Z</time>
      </trkpt>
      <trkpt lat="45.82229" lon="4.67673">
        <ele>318.02722</ele>
        <time>2023-05-14T13:24:30.000Z</time>
      </trkpt>
      <trkpt lat="45.82228" lon="4.67677">
        <ele>318.34448</ele>
        <time>2023-05-14T13:24:31.000Z</time>
      </trkpt>
      <trkpt lat="45.82226" lon="4.67682">
        <ele>318.67365</ele>
        <time>2023-05-14T13:24:32.000Z</time>
      </trkpt>
      <trkpt lat="45.82225" lon="4.67688">
        <ele>318.96713</ele>
        <time>2023-05-14T13:24:33.000Z</time>
      </trkpt>
      <trkpt lat="45.82224" lon="4.67693">
        <ele>319.27948</ele>
        <time>2023-05-14T13:24:34.000Z</time>
      </trkpt>
      <trkpt lat="45.82222" lon="4.67699">
        <ele>319.58075</ele>
        <time>2023-05-14T13:24:35.000Z</time>
      </trkpt>
      <trkpt lat="45.82221" lon="4.67705">
        <ele>319.87936</ele>
        <time>2023-05-14T13:24:36.000Z</time>
      </trkpt>
      <trkpt lat="45.8222" lon="4.67712">
        <ele>320.13989</ele>
        <time>2023-05-14T13:24:37.000Z</time>
      </trkpt>
      <trkpt lat="45.82219" lon="4.67718">
        <ele>320.3681</ele>
        <time>2023-05-14T13:24:38.000Z</time>
      </trkpt>
      <trkpt lat="45.82218" lon="4.67725">
        <ele>320.59943</ele>
        <time>2023-05-14T13:24:39.000Z</time>
      </trkpt>
      <trkpt lat="45.82216" lon="4.67731">
        <ele>320.81293</ele>
        <time>2023-05-14T13:24:40.000Z</time>
      </trkpt>
      <trkpt lat="45.82215" lon="4.67737">
        <ele>321.00983</ele>
        <time>2023-05-14T13:24:41.000Z</time>
      </trkpt>
      <trkpt lat="45.82214" lon="4.67743">
        <ele>321.18228</ele>
        <time>2023-05-14T13:24:42.000Z</time>
      </trkpt>
      <trkpt lat="45.82212" lon="4.6775">
        <ele>321.34869</ele>
        <time>2023-05-14T13:24:43.000Z</time>
      </trkpt>
      <trkpt lat="45.82211" lon="4.67756">
        <ele>321.5321</ele>
        <time>2023-05-14T13:24:44.000Z</time>
      </trkpt>
      <trkpt lat="45.8221" lon="4.67763">
        <ele>321.72931</ele>
        <time>2023-05-14T13:24:45.000Z</time>
      </trkpt>
      <trkpt lat="45.82209" lon="4.67769">
        <ele>321.91168</ele>
        <time>2023-05-14T13:24:46.000Z</time>
      </trkpt>
      <trkpt lat="45.82207" lon="4.67775">
        <ele>322.06927</ele>
        <time>2023-05-14T13:24:47.000Z</time>
      </trkpt>
      <trkpt lat="45.82206" lon="4.67781">
        <ele>322.21323</ele>
        <time>2023-05-14T13:24:48.000Z</time>
      </trkpt>
      <trkpt lat="45.82204" lon="4.67788">
        <ele>322.34076</ele>
        <time>2023-05-14T13:24:49.000Z</time>
      </trkpt>
      <trkpt lat="45.82203" lon="4.67793">
        <ele>322.45261</ele>
        <time>2023-05-14T13:24:50.000Z</time>
      </trkpt>
      <trkpt lat="45.82202" lon="4.678">
        <ele>322.56442</ele>
        <time>2023-05-14T13:24:51.000Z</time>
      </trkpt>
      <trkpt lat="45.822" lon="4.67806">
        <ele>322.67816</ele>
        <time>2023-05-14T13:24:52.000Z</time>
      </trkpt>
      <trkpt lat="45.82199" lon="4.67813">
        <ele>322.81516</ele>
        <time>2023-05-14T13:24:53.000Z</time>
      </trkpt>
      <trkpt lat="45.82198" lon="4.67819">
        <ele>322.95151</ele>
        <time>2023-05-14T13:24:54.000Z</time>
      </trkpt>
      <trkpt lat="45.82197" lon="4.67826">
        <ele>323.05582</ele>
        <time>2023-05-14T13:24:55.000Z</time>
      </trkpt>
      <trkpt lat="45.82195" lon="4.67835">
        <ele>323.11343</ele>
        <time>2023-05-14T13:24:56.000Z</time>
      </trkpt>
      <trkpt lat="45.82194" lon="4.67843">
        <ele>323.12994</ele>
        <time>2023-05-14T13:24:57.000Z</time>
      </trkpt>
      <trkpt lat="45.82193" lon="4.6785">
        <ele>323.13867</ele>
        <time>2023-05-14T13:24:58.000Z</time>
      </trkpt>
      <trkpt lat="45.82192" lon="4.67857">
        <ele>323.06979</ele>
        <time>2023-05-14T13:24:59.000Z</time>
      </trkpt>
      <trkpt lat="45.82191" lon="4.67864">
        <ele>322.98029</ele>
        <time>2023-05-14T13:25:00.000Z</time>
      </trkpt>
      <trkpt lat="45.82189" lon="4.6787">
        <ele>322.8588</ele>
        <time>2023-05-14T13:25:01.000Z</time>
      </trkpt>
      <trkpt lat="45.82188" lon="4.67876">
        <ele>322.72641</ele>
        <time>2023-05-14T13:25:02.000Z</time>
      </trkpt>
      <trkpt lat="45.82186" lon="4.67884">
        <ele>322.80667</ele>
        <time>2023-05-14T13:25:03.000Z</time>
      </trkpt>
      <trkpt lat="45.82184" lon="4.67891">
        <ele>322.82343</ele>
        <time>2023-05-14T13:25:04.000Z</time>
      </trkpt>
      <trkpt lat="45.82182" lon="4.67898">
        <ele>322.82834</ele>
        <time>2023-05-14T13:25:05.000Z</time>
      </trkpt>
      <trkpt lat="45.8218" lon="4.67907">
        <ele>322.84021</ele>
        <time>2023-05-14T13:25:06.000Z</time>
      </trkpt>
      <trkpt lat="45.82179" lon="4.67914">
        <ele>322.84222</ele>
        <time>2023-05-14T13:25:07.000Z</time>
      </trkpt>
      <trkpt lat="45.82178" lon="4.67921">
        <ele>322.85144</ele>
        <time>2023-05-14T13:25:08.000Z</time>
      </trkpt>
      <trkpt lat="45.82176" lon="4.67928">
        <ele>322.82755</ele>
        <time>2023-05-14T13:25:09.000Z</time>
      </trkpt>
      <trkpt lat="45.82173" lon="4.67937">
        <ele>322.78619</ele>
        <time>2023-05-14T13:25:10.000Z</time>
      </trkpt>
      <trkpt lat="45.82172" lon="4.67946">
        <ele>322.71051</ele>
        <time>2023-05-14T13:25:11.000Z</time>
      </trkpt>
      <trkpt lat="45.8217" lon="4.67954">
        <ele>322.6225</ele>
        <time>2023-05-14T13:25:12.000Z</time>
      </trkpt>
      <trkpt lat="45.82169" lon="4.67961">
        <ele>322.52863</ele>
        <time>2023-05-14T13:25:13.000Z</time>
      </trkpt>
      <trkpt lat="45.82167" lon="4.67968">
        <ele>322.40179</ele>
        <time>2023-05-14T13:25:14.000Z</time>
      </trkpt>
      <trkpt lat="45.82165" lon="4.67976">
        <ele>322.45279</ele>
        <time>2023-05-14T13:25:15.000Z</time>
      </trkpt>
      <trkpt lat="45.82164" lon="4.67984">
        <ele>322.51981</ele>
        <time>2023-05-14T13:25:16.000Z</time>
      </trkpt>
      <trkpt lat="45.82163" lon="4.67991">
        <ele>322.64859</ele>
        <time>2023-05-14T13:25:17.000Z</time>
      </trkpt>
      <trkpt lat="45.82161" lon="4.67998">
        <ele>322.77322</ele>
        <time>2023-05-14T13:25:18.000Z</time>
      </trkpt>
      <trkpt lat="45.8216" lon="4.68006">
        <ele>322.9899</ele>
        <time>2023-05-14T13:25:19.000Z</time>
      </trkpt>
      <trkpt lat="45.82159" lon="4.68015">
        <ele>323.22498</ele>
        <time>2023-05-14T13:25:20.000Z</time>
      </trkpt>
      <trkpt lat="45.82157" lon="4.68023">
        <ele>323.47998</ele>
        <time>2023-05-14T13:25:21.000Z</time>
      </trkpt>
      <trkpt lat="45.82156" lon="4.68032">
        <ele>323.7334</ele>
        <time>2023-05-14T13:25:22.000Z</time>
      </trkpt>
      <trkpt lat="45.82154" lon="4.6804">
        <ele>323.75906</ele>
        <time>2023-05-14T13:25:23.000Z</time>
      </trkpt>
      <trkpt lat="45.82152" lon="4.68049">
        <ele>323.81833</ele>
        <time>2023-05-14T13:25:24.000Z</time>
      </trkpt>
      <trkpt lat="45.8215" lon="4.68058">
        <ele>323.86551</ele>
        <time>2023-05-14T13:25:25.000Z</time>
      </trkpt>
      <trkpt lat="45.82149" lon="4.68066">
        <ele>323.90271</ele>
        <time>2023-05-14T13:25:26.000Z</time>
      </trkpt>
      <trkpt lat="45.82148" lon="4.68075">
        <ele>323.95114</ele>
        <time>2023-05-14T13:25:27.000Z</time>
      </trkpt>
      <trkpt lat="45.82146" lon="4.68083">
        <ele>323.97559</ele>
        <time>2023-05-14T13:25:28.000Z</time>
      </trkpt>
      <trkpt lat="45.82145" lon="4.68092">
        <ele>324.00897</ele>
        <time>2023-05-14T13:25:29.000Z</time>
      </trkpt>
      <trkpt lat="45.82144" lon="4.68101">
        <ele>324.04407</ele>
        <time>2023-05-14T13:25:30.000Z</time>
      </trkpt>
      <trkpt lat="45.82142" lon="4.68111">
        <ele>324.10919</ele>
        <time>2023-05-14T13:25:31.000Z</time>
      </trkpt>
      <trkpt lat="45.8214" lon="4.6812">
        <ele>324.14896</ele>
        <time>2023-05-14T13:25:32.000Z</time>
      </trkpt>
      <trkpt lat="45.82138" lon="4.68129">
        <ele>324.14038</ele>
        <time>2023-05-14T13:25:33.000Z</time>
      </trkpt>
      <trkpt lat="45.82136" lon="4.68139">
        <ele>324.16293</ele>
        <time>2023-05-14T13:25:34.000Z</time>
      </trkpt>
      <trkpt lat="45.82134" lon="4.68149">
        <ele>323.99802</ele>
        <time>2023-05-14T13:25:35.000Z</time>
      </trkpt>
      <trkpt lat="45.82132" lon="4.68158">
        <ele>323.83426</ele>
        <time>2023-05-14T13:25:36.000Z</time>
      </trkpt>
      <trkpt lat="45.82131" lon="4.68167">
        <ele>323.66711</ele>
        <time>2023-05-14T13:25:37.000Z</time>
      </trkpt>
      <trkpt lat="45.82128" lon="4.68177">
        <ele>323.47479</ele>
        <time>2023-05-14T13:25:38.000Z</time>
      </trkpt>
      <trkpt lat="45.82126" lon="4.68188">
        <ele>323.21985</ele>
        <time>2023-05-14T13:25:39.000Z</time>
      </trkpt>
      <trkpt lat="45.82124" lon="4.68198">
        <ele>322.92923</ele>
        <time>2023-05-14T13:25:40.000Z</time>
      </trkpt>
      <trkpt lat="45.82123" lon="4.68208">
        <ele>322.61749</ele>
        <time>2023-05-14T13:25:41.000Z</time>
      </trkpt>
      <trkpt lat="45.82121" lon="4.68218">
        <ele>322.30807</ele>
        <time>2023-05-14T13:25:42.000Z</time>
      </trkpt>
      <trkpt lat="45.82119" lon="4.68229">
        <ele>321.98367</ele>
        <time>2023-05-14T13:25:43.000Z</time>
      </trkpt>
      <trkpt lat="45.82118" lon="4.68239">
        <ele>321.65527</ele>
        <time>2023-05-14T13:25:44.000Z</time>
      </trkpt>
      <trkpt lat="45.82116" lon="4.68249">
        <ele>321.34882</ele>
        <time>2023-05-14T13:25:45.000Z</time>
      </trkpt>
      <trkpt lat="45.82114" lon="4.68258">
        <ele>321.03961</ele>
        <time>2023-05-14T13:25:46.000Z</time>
      </trkpt>
      <trkpt lat="45.82112" lon="4.68267">
        <ele>320.92218</ele>
        <time>2023-05-14T13:25:47.000Z</time>
      </trkpt>
      <trkpt lat="45.82109" lon="4.68273">
        <ele>320.79071</ele>
        <time>2023-05-14T13:25:48.000Z</time>
      </trkpt>
      <trkpt lat="45.82105" lon="4.68276">
        <ele>320.6709</ele>
        <time>2023-05-14T13:25:49.000Z</time>
      </trkpt>
      <trkpt lat="45.821" lon="4.68278">
        <ele>320.58301</ele>
        <time>2023-05-14T13:25:50.000Z</time>
      </trkpt>
      <trkpt lat="45.82097" lon="4.68281">
        <ele>320.53024</ele>
        <time>2023-05-14T13:25:51.000Z</time>
      </trkpt>
      <trkpt lat="45.82094" lon="4.68286">
        <ele>320.29108</ele>
        <time>2023-05-14T13:25:52.000Z</time>
      </trkpt>
      <trkpt lat="45.82093" lon="4.68291">
        <ele>320.38348</ele>
        <time>2023-05-14T13:25:53.000Z</time>
      </trkpt>
      <trkpt lat="45.82093" lon="4.68297">
        <ele>320.19376</ele>
        <time>2023-05-14T13:25:54.000Z</time>
      </trkpt>
      <trkpt lat="45.82094" lon="4.68305">
        <ele>320.03076</ele>
        <time>2023-05-14T13:25:55.000Z</time>
      </trkpt>
      <trkpt lat="45.82095" lon="4.68313">
        <ele>319.90137</ele>
        <time>2023-05-14T13:25:56.000Z</time>
      </trkpt>
      <trkpt lat="45.82096" lon="4.6832">
        <ele>319.75266</ele>
        <time>2023-05-14T13:25:57.000Z</time>
      </trkpt>
      <trkpt lat="45.82095" lon="4.68327">
        <ele>319.61566</ele>
        <time>2023-05-14T13:25:58.000Z</time>
      </trkpt>
      <trkpt lat="45.82094" lon="4.68336">
        <ele>319.48505</ele>
        <time>2023-05-14T13:25:59.000Z</time>
      </trkpt>
      <trkpt lat="45.82093" lon="4.68346">
        <ele>319.37146</ele>
        <time>2023-05-14T13:26:00.000Z</time>
      </trkpt>
      <trkpt lat="45.82092" lon="4.68355">
        <ele>319.27203</ele>
        <time>2023-05-14T13:26:01.000Z</time>
      </trkpt>
      <trkpt lat="45.82091" lon="4.68364">
        <ele>319.15869</ele>
        <time>2023-05-14T13:26:02.000Z</time>
      </trkpt>
      <trkpt lat="45.82089" lon="4.68373">
        <ele>319.08017</ele>
        <time>2023-05-14T13:26:03.000Z</time>
      </trkpt>
      <trkpt lat="45.82087" lon="4.68383">
        <ele>318.97272</ele>
        <time>2023-05-14T13:26:04.000Z</time>
      </trkpt>
      <trkpt lat="45.82087" lon="4.68392">
        <ele>318.86676</ele>
        <time>2023-05-14T13:26:05.000Z</time>
      </trkpt>
      <trkpt lat="45.82085" lon="4.68401">
        <ele>318.73383</ele>
        <time>2023-05-14T13:26:06.000Z</time>
      </trkpt>
      <trkpt lat="45.82084" lon="4.68411">
        <ele>318.38092</ele>
        <time>2023-05-14T13:26:07.000Z</time>
      </trkpt>
      <trkpt lat="45.82083" lon="4.68421">
        <ele>317.90399</ele>
        <time>2023-05-14T13:26:08.000Z</time>
      </trkpt>
      <trkpt lat="45.82081" lon="4.6843">
        <ele>317.38165</ele>
        <time>2023-05-14T13:26:09.000Z</time>
      </trkpt>
      <trkpt lat="45.8208" lon="4.6844">
        <ele>316.85895</ele>
        <time>2023-05-14T13:26:10.000Z</time>
      </trkpt>
      <trkpt lat="45.82078" lon="4.68449">
        <ele>316.2796</ele>
        <time>2023-05-14T13:26:11.000Z</time>
      </trkpt>
      <trkpt lat="45.82076" lon="4.68458">
        <ele>315.9133</ele>
        <time>2023-05-14T13:26:12.000Z</time>
      </trkpt>
      <trkpt lat="45.82074" lon="4.68468">
        <ele>315.24515</ele>
        <time>2023-05-14T13:26:13.000Z</time>
      </trkpt>
      <trkpt lat="45.82073" lon="4.68478">
        <ele>315.53641</ele>
        <time>2023-05-14T13:26:14.000Z</time>
      </trkpt>
      <trkpt lat="45.82071" lon="4.68486">
        <ele>316.22116</ele>
        <time>2023-05-14T13:26:15.000Z</time>
      </trkpt>
      <trkpt lat="45.82069" lon="4.68496">
        <ele>316.8927</ele>
        <time>2023-05-14T13:26:16.000Z</time>
      </trkpt>
      <trkpt lat="45.82068" lon="4.68505">
        <ele>317.57123</ele>
        <time>2023-05-14T13:26:17.000Z</time>
      </trkpt>
      <trkpt lat="45.82066" lon="4.68515">
        <ele>318.28946</ele>
        <time>2023-05-14T13:26:18.000Z</time>
      </trkpt>
      <trkpt lat="45.82065" lon="4.68524">
        <ele>319.04819</ele>
        <time>2023-05-14T13:26:19.000Z</time>
      </trkpt>
      <trkpt lat="45.82064" lon="4.68533">
        <ele>319.82416</ele>
        <time>2023-05-14T13:26:20.000Z</time>
      </trkpt>
      <trkpt lat="45.82062" lon="4.68543">
        <ele>320.62808</ele>
        <time>2023-05-14T13:26:21.000Z</time>
      </trkpt>
      <trkpt lat="45.82061" lon="4.68553">
        <ele>321.4498</ele>
        <time>2023-05-14T13:26:22.000Z</time>
      </trkpt>
      <trkpt lat="45.8206" lon="4.68562">
        <ele>322.29596</ele>
        <time>2023-05-14T13:26:23.000Z</time>
      </trkpt>
      <trkpt lat="45.82058" lon="4.68571">
        <ele>323.17621</ele>
        <time>2023-05-14T13:26:24.000Z</time>
      </trkpt>
      <trkpt lat="45.82057" lon="4.68579">
        <ele>324.04828</ele>
        <time>2023-05-14T13:26:25.000Z</time>
      </trkpt>
      <trkpt lat="45.82056" lon="4.68588">
        <ele>324.9491</ele>
        <time>2023-05-14T13:26:26.000Z</time>
      </trkpt>
      <trkpt lat="45.82053" lon="4.68597">
        <ele>325.85822</ele>
        <time>2023-05-14T13:26:27.000Z</time>
      </trkpt>
      <trkpt lat="45.82051" lon="4.68605">
        <ele>326.95523</ele>
        <time>2023-05-14T13:26:28.000Z</time>
      </trkpt>
      <trkpt lat="45.82048" lon="4.68613">
        <ele>328.0592</ele>
        <time>2023-05-14T13:26:29.000Z</time>
      </trkpt>
      <trkpt lat="45.82045" lon="4.68621">
        <ele>329.16699</ele>
        <time>2023-05-14T13:26:30.000Z</time>
      </trkpt>
      <trkpt lat="45.82041" lon="4.6863">
        <ele>330.31033</ele>
        <time>2023-05-14T13:26:31.000Z</time>
      </trkpt>
      <trkpt lat="45.82038" lon="4.68637">
        <ele>331.47964</ele>
        <time>2023-05-14T13:26:32.000Z</time>
      </trkpt>
      <trkpt lat="45.82034" lon="4.68645">
        <ele>332.63007</ele>
        <time>2023-05-14T13:26:33.000Z</time>
      </trkpt>
      <trkpt lat="45.82031" lon="4.6865">
        <ele>333.08212</ele>
        <time>2023-05-14T13:26:34.000Z</time>
      </trkpt>
      <trkpt lat="45.82027" lon="4.68657">
        <ele>333.13959</ele>
        <time>2023-05-14T13:26:35.000Z</time>
      </trkpt>
      <trkpt lat="45.82024" lon="4.68665">
        <ele>333.17999</ele>
        <time>2023-05-14T13:26:36.000Z</time>
      </trkpt>
      <trkpt lat="45.8202" lon="4.68674">
        <ele>333.23062</ele>
        <time>2023-05-14T13:26:37.000Z</time>
      </trkpt>
      <trkpt lat="45.82018" lon="4.68683">
        <ele>333.24622</ele>
        <time>2023-05-14T13:26:38.000Z</time>
      </trkpt>
      <trkpt lat="45.82015" lon="4.68692">
        <ele>333.24774</ele>
        <time>2023-05-14T13:26:39.000Z</time>
      </trkpt>
      <trkpt lat="45.82013" lon="4.68701">
        <ele>333.27786</ele>
        <time>2023-05-14T13:26:40.000Z</time>
      </trkpt>
      <trkpt lat="45.82011" lon="4.6871">
        <ele>333.27838</ele>
        <time>2023-05-14T13:26:41.000Z</time>
      </trkpt>
      <trkpt lat="45.82009" lon="4.68719">
        <ele>333.24789</ele>
        <time>2023-05-14T13:26:42.000Z</time>
      </trkpt>
      <trkpt lat="45.82008" lon="4.68728">
        <ele>333.20416</ele>
        <time>2023-05-14T13:26:43.000Z</time>
      </trkpt>
      <trkpt lat="45.82006" lon="4.68736">
        <ele>333.16937</ele>
        <time>2023-05-14T13:26:44.000Z</time>
      </trkpt>
      <trkpt lat="45.82005" lon="4.68745">
        <ele>333.12396</ele>
        <time>2023-05-14T13:26:45.000Z</time>
      </trkpt>
      <trkpt lat="45.82003" lon="4.68754">
        <ele>333.08368</ele>
        <time>2023-05-14T13:26:46.000Z</time>
      </trkpt>
      <trkpt lat="45.82002" lon="4.68763">
        <ele>333.04681</ele>
        <time>2023-05-14T13:26:47.000Z</time>
      </trkpt>
      <trkpt lat="45.82001" lon="4.68772">
        <ele>332.97635</ele>
        <time>2023-05-14T13:26:48.000Z</time>
      </trkpt>
      <trkpt lat="45.81998" lon="4.68782">
        <ele>332.92764</ele>
        <time>2023-05-14T13:26:49.000Z</time>
      </trkpt>
      <trkpt lat="45.81995" lon="4.68792">
        <ele>332.85214</ele>
        <time>2023-05-14T13:26:50.000Z</time>
      </trkpt>
      <trkpt lat="45.81993" lon="4.68801">
        <ele>332.74261</ele>
        <time>2023-05-14T13:26:51.000Z</time>
      </trkpt>
      <trkpt lat="45.81991" lon="4.68811">
        <ele>332.60248</ele>
        <time>2023-05-14T13:26:52.000Z</time>
      </trkpt>
      <trkpt lat="45.8199" lon="4.6882">
        <ele>332.49384</ele>
        <time>2023-05-14T13:26:53.000Z</time>
      </trkpt>
      <trkpt lat="45.81988" lon="4.6883">
        <ele>332.38394</ele>
        <time>2023-05-14T13:26:54.000Z</time>
      </trkpt>
      <trkpt lat="45.81987" lon="4.6884">
        <ele>332.27765</ele>
        <time>2023-05-14T13:26:55.000Z</time>
      </trkpt>
      <trkpt lat="45.81984" lon="4.6885">
        <ele>332.18317</ele>
        <time>2023-05-14T13:26:56.000Z</time>
      </trkpt>
      <trkpt lat="45.81982" lon="4.68859">
        <ele>332.06342</ele>
        <time>2023-05-14T13:26:57.000Z</time>
      </trkpt>
      <trkpt lat="45.81981" lon="4.68868">
        <ele>331.97549</ele>
        <time>2023-05-14T13:26:58.000Z</time>
      </trkpt>
      <trkpt lat="45.81979" lon="4.68877">
        <ele>331.89526</ele>
        <time>2023-05-14T13:26:59.000Z</time>
      </trkpt>
      <trkpt lat="45.81977" lon="4.68886">
        <ele>331.7934</ele>
        <time>2023-05-14T13:27:00.000Z</time>
      </trkpt>
      <trkpt lat="45.81974" lon="4.68896">
        <ele>331.67056</ele>
        <time>2023-05-14T13:27:01.000Z</time>
      </trkpt>
      <trkpt lat="45.81973" lon="4.68905">
        <ele>331.57526</ele>
        <time>2023-05-14T13:27:02.000Z</time>
      </trkpt>
      <trkpt lat="45.81972" lon="4.68914">
        <ele>331.46997</ele>
        <time>2023-05-14T13:27:03.000Z</time>
      </trkpt>
      <trkpt lat="45.81969" lon="4.68923">
        <ele>331.33441</ele>
        <time>2023-05-14T13:27:04.000Z</time>
      </trkpt>
      <trkpt lat="45.81968" lon="4.68933">
        <ele>331.21429</ele>
        <time>2023-05-14T13:27:05.000Z</time>
      </trkpt>
      <trkpt lat="45.81967" lon="4.68942">
        <ele>331.08881</ele>
        <time>2023-05-14T13:27:06.000Z</time>
      </trkpt>
      <trkpt lat="45.81965" lon="4.68951">
        <ele>330.97495</ele>
        <time>2023-05-14T13:27:07.000Z</time>
      </trkpt>
      <trkpt lat="45.81963" lon="4.6896">
        <ele>330.84473</ele>
        <time>2023-05-14T13:27:08.000Z</time>
      </trkpt>
      <trkpt lat="45.81962" lon="4.68969">
        <ele>330.73837</ele>
        <time>2023-05-14T13:27:09.000Z</time>
      </trkpt>
      <trkpt lat="45.81961" lon="4.68979">
        <ele>330.66879</ele>
        <time>2023-05-14T13:27:10.000Z</time>
      </trkpt>
      <trkpt lat="45.81959" lon="4.68989">
        <ele>331.06311</ele>
        <time>2023-05-14T13:27:11.000Z</time>
      </trkpt>
      <trkpt lat="45.81956" lon="4.68998">
        <ele>331.52112</ele>
        <time>2023-05-14T13:27:12.000Z</time>
      </trkpt>
      <trkpt lat="45.81954" lon="4.69008">
        <ele>331.30963</ele>
        <time>2023-05-14T13:27:13.000Z</time>
      </trkpt>
      <trkpt lat="45.81952" lon="4.69018">
        <ele>331.21539</ele>
        <time>2023-05-14T13:27:14.000Z</time>
      </trkpt>
      <trkpt lat="45.8195" lon="4.69027">
        <ele>331.14529</ele>
        <time>2023-05-14T13:27:15.000Z</time>
      </trkpt>
      <trkpt lat="45.81948" lon="4.69037">
        <ele>331.06229</ele>
        <time>2023-05-14T13:27:16.000Z</time>
      </trkpt>
      <trkpt lat="45.81946" lon="4.69047">
        <ele>330.96478</ele>
        <time>2023-05-14T13:27:17.000Z</time>
      </trkpt>
      <trkpt lat="45.81944" lon="4.69057">
        <ele>330.86929</ele>
        <time>2023-05-14T13:27:18.000Z</time>
      </trkpt>
      <trkpt lat="45.81942" lon="4.69066">
        <ele>330.70758</ele>
        <time>2023-05-14T13:27:19.000Z</time>
      </trkpt>
      <trkpt lat="45.8194" lon="4.69077">
        <ele>330.56622</ele>
        <time>2023-05-14T13:27:20.000Z</time>
      </trkpt>
      <trkpt lat="45.81938" lon="4.69087">
        <ele>330.4346</ele>
        <time>2023-05-14T13:27:21.000Z</time>
      </trkpt>
      <trkpt lat="45.81936" lon="4.69096">
        <ele>330.30893</ele>
        <time>2023-05-14T13:27:22.000Z</time>
      </trkpt>
      <trkpt lat="45.81933" lon="4.69105">
        <ele>330.20044</ele>
        <time>2023-05-14T13:27:23.000Z</time>
      </trkpt>
      <trkpt lat="45.81932" lon="4.69114">
        <ele>330.13144</ele>
        <time>2023-05-14T13:27:24.000Z</time>
      </trkpt>
      <trkpt lat="45.81931" lon="4.69123">
        <ele>330.07016</ele>
        <time>2023-05-14T13:27:25.000Z</time>
      </trkpt>
      <trkpt lat="45.81931" lon="4.69131">
        <ele>330.03003</ele>
        <time>2023-05-14T13:27:26.000Z</time>
      </trkpt>
      <trkpt lat="45.81929" lon="4.69139">
        <ele>330.0152</ele>
        <time>2023-05-14T13:27:27.000Z</time>
      </trkpt>
      <trkpt lat="45.81928" lon="4.69148">
        <ele>330.05621</ele>
        <time>2023-05-14T13:27:28.000Z</time>
      </trkpt>
      <trkpt lat="45.81928" lon="4.69156">
        <ele>330.10565</ele>
        <time>2023-05-14T13:27:29.000Z</time>
      </trkpt>
      <trkpt lat="45.81928" lon="4.69164">
        <ele>330.17035</ele>
        <time>2023-05-14T13:27:30.000Z</time>
      </trkpt>
      <trkpt lat="45.81928" lon="4.69173">
        <ele>329.79889</ele>
        <time>2023-05-14T13:27:31.000Z</time>
      </trkpt>
      <trkpt lat="45.81928" lon="4.69181">
        <ele>329.38287</ele>
        <time>2023-05-14T13:27:32.000Z</time>
      </trkpt>
      <trkpt lat="45.81928" lon="4.6919">
        <ele>329.65839</ele>
        <time>2023-05-14T13:27:33.000Z</time>
      </trkpt>
      <trkpt lat="45.81929" lon="4.69199">
        <ele>329.86093</ele>
        <time>2023-05-14T13:27:34.000Z</time>
      </trkpt>
      <trkpt lat="45.81928" lon="4.69208">
        <ele>330.02579</ele>
        <time>2023-05-14T13:27:35.000Z</time>
      </trkpt>
      <trkpt lat="45.8193" lon="4.69217">
        <ele>330.2438</ele>
        <time>2023-05-14T13:27:36.000Z</time>
      </trkpt>
      <trkpt lat="45.8193" lon="4.69226">
        <ele>330.51675</ele>
        <time>2023-05-14T13:27:37.000Z</time>
      </trkpt>
      <trkpt lat="45.81931" lon="4.69235">
        <ele>330.76447</ele>
        <time>2023-05-14T13:27:38.000Z</time>
      </trkpt>
      <trkpt lat="45.81931" lon="4.69244">
        <ele>331.3649</ele>
        <time>2023-05-14T13:27:39.000Z</time>
      </trkpt>
      <trkpt lat="45.81931" lon="4.69253">
        <ele>330.36453</ele>
        <time>2023-05-14T13:27:40.000Z</time>
      </trkpt>
      <trkpt lat="45.8193" lon="4.69262">
        <ele>329.39117</ele>
        <time>2023-05-14T13:27:41.000Z</time>
      </trkpt>
      <trkpt lat="45.81928" lon="4.69271">
        <ele>328.40659</ele>
        <time>2023-05-14T13:27:42.000Z</time>
      </trkpt>
      <trkpt lat="45.81926" lon="4.69278">
        <ele>327.36212</ele>
        <time>2023-05-14T13:27:43.000Z</time>
      </trkpt>
      <trkpt lat="45.81925" lon="4.69287">
        <ele>326.51483</ele>
        <time>2023-05-14T13:27:44.000Z</time>
      </trkpt>
      <trkpt lat="45.81924" lon="4.69295">
        <ele>325.6189</ele>
        <time>2023-05-14T13:27:45.000Z</time>
      </trkpt>
      <trkpt lat="45.81922" lon="4.69304">
        <ele>324.7189</ele>
        <time>2023-05-14T13:27:46.000Z</time>
      </trkpt>
      <trkpt lat="45.81921" lon="4.69311">
        <ele>323.79071</ele>
        <time>2023-05-14T13:27:47.000Z</time>
      </trkpt>
      <trkpt lat="45.81919" lon="4.6932">
        <ele>322.81223</ele>
        <time>2023-05-14T13:27:48.000Z</time>
      </trkpt>
      <trkpt lat="45.81917" lon="4.69327">
        <ele>321.85138</ele>
        <time>2023-05-14T13:27:49.000Z</time>
      </trkpt>
      <trkpt lat="45.81916" lon="4.69335">
        <ele>320.85223</ele>
        <time>2023-05-14T13:27:50.000Z</time>
      </trkpt>
      <trkpt lat="45.81915" lon="4.69343">
        <ele>319.8475</ele>
        <time>2023-05-14T13:27:51.000Z</time>
      </trkpt>
      <trkpt lat="45.81913" lon="4.69351">
        <ele>318.83746</ele>
        <time>2023-05-14T13:27:52.000Z</time>
      </trkpt>
      <trkpt lat="45.81912" lon="4.69359">
        <ele>317.81937</ele>
        <time>2023-05-14T13:27:53.000Z</time>
      </trkpt>
      <trkpt lat="45.81911" lon="4.69367">
        <ele>316.80551</ele>
        <time>2023-05-14T13:27:54.000Z</time>
      </trkpt>
      <trkpt lat="45.81909" lon="4.69375">
        <ele>315.82468</ele>
        <time>2023-05-14T13:27:55.000Z</time>
      </trkpt>
      <trkpt lat="45.81908" lon="4.69383">
        <ele>314.80402</ele>
        <time>2023-05-14T13:27:56.000Z</time>
      </trkpt>
      <trkpt lat="45.81907" lon="4.6939">
        <ele>313.79324</ele>
        <time>2023-05-14T13:27:57.000Z</time>
      </trkpt>
      <trkpt lat="45.81905" lon="4.69399">
        <ele>312.79614</ele>
        <time>2023-05-14T13:27:58.000Z</time>
      </trkpt>
      <trkpt lat="45.81904" lon="4.69406">
        <ele>311.5314</ele>
        <time>2023-05-14T13:27:59.000Z</time>
      </trkpt>
      <trkpt lat="45.81902" lon="4.69413">
        <ele>311.85248</ele>
        <time>2023-05-14T13:28:00.000Z</time>
      </trkpt>
      <trkpt lat="45.81901" lon="4.69421">
        <ele>312.18921</ele>
        <time>2023-05-14T13:28:01.000Z</time>
      </trkpt>
      <trkpt lat="45.819" lon="4.69428">
        <ele>312.52948</ele>
        <time>2023-05-14T13:28:02.000Z</time>
      </trkpt>
      <trkpt lat="45.81899" lon="4.69435">
        <ele>312.92969</ele>
        <time>2023-05-14T13:28:03.000Z</time>
      </trkpt>
      <trkpt lat="45.81897" lon="4.69442">
        <ele>313.14096</ele>
        <time>2023-05-14T13:28:04.000Z</time>
      </trkpt>
      <trkpt lat="45.81897" lon="4.69448">
        <ele>313.40778</ele>
        <time>2023-05-14T13:28:05.000Z</time>
      </trkpt>
      <trkpt lat="45.81896" lon="4.69455">
        <ele>313.67389</ele>
        <time>2023-05-14T13:28:06.000Z</time>
      </trkpt>
      <trkpt lat="45.81895" lon="4.69462">
        <ele>313.92978</ele>
        <time>2023-05-14T13:28:07.000Z</time>
      </trkpt>
      <trkpt lat="45.81894" lon="4.69468">
        <ele>315.41412</ele>
        <time>2023-05-14T13:28:08.000Z</time>
      </trkpt>
      <trkpt lat="45.81893" lon="4.69474">
        <ele>316.8891</ele>
        <time>2023-05-14T13:28:09.000Z</time>
      </trkpt>
      <trkpt lat="45.81892" lon="4.6948">
        <ele>318.39014</ele>
        <time>2023-05-14T13:28:10.000Z</time>
      </trkpt>
      <trkpt lat="45.81891" lon="4.69485">
        <ele>319.85092</ele>
        <time>2023-05-14T13:28:11.000Z</time>
      </trkpt>
      <trkpt lat="45.8189" lon="4.69491">
        <ele>321.29022</ele>
        <time>2023-05-14T13:28:12.000Z</time>
      </trkpt>
      <trkpt lat="45.81889" lon="4.69497">
        <ele>322.76596</ele>
        <time>2023-05-14T13:28:13.000Z</time>
      </trkpt>
      <trkpt lat="45.81888" lon="4.69501">
        <ele>324.17868</ele>
        <time>2023-05-14T13:28:14.000Z</time>
      </trkpt>
      <trkpt lat="45.81888" lon="4.69505">
        <ele>325.56885</ele>
        <time>2023-05-14T13:28:15.000Z</time>
      </trkpt>
      <trkpt lat="45.81887" lon="4.69508">
        <ele>326.9512</ele>
        <time>2023-05-14T13:28:20.000Z</time>
      </trkpt>
      <trkpt lat="45.81886" lon="4.69511">
        <ele>328.32068</ele>
        <time>2023-05-14T13:28:59.000Z</time>
      </trkpt>
      <trkpt lat="45.81885" lon="4.69513">
        <ele>329.65704</ele>
        <time>2023-05-14T13:29:00.000Z</time>
      </trkpt>
      <trkpt lat="45.81884" lon="4.69516">
        <ele>329.70834</ele>
        <time>2023-05-14T13:29:01.000Z</time>
      </trkpt>
      <trkpt lat="45.81883" lon="4.6952">
        <ele>330.18988</ele>
        <time>2023-05-14T13:29:02.000Z</time>
      </trkpt>
      <trkpt lat="45.81882" lon="4.69525">
        <ele>330.6142</ele>
        <time>2023-05-14T13:29:03.000Z</time>
      </trkpt>
      <trkpt lat="45.81881" lon="4.69529">
        <ele>331.04431</ele>
        <time>2023-05-14T13:29:04.000Z</time>
      </trkpt>
      <trkpt lat="45.8188" lon="4.69534">
        <ele>331.45483</ele>
        <time>2023-05-14T13:29:05.000Z</time>
      </trkpt>
      <trkpt lat="45.81879" lon="4.69539">
        <ele>331.38458</ele>
        <time>2023-05-14T13:29:06.000Z</time>
      </trkpt>
      <trkpt lat="45.81878" lon="4.69544">
        <ele>331.28726</ele>
        <time>2023-05-14T13:29:07.000Z</time>
      </trkpt>
      <trkpt lat="45.81877" lon="4.69549">
        <ele>331.17075</ele>
        <time>2023-05-14T13:29:08.000Z</time>
      </trkpt>
      <trkpt lat="45.81876" lon="4.69554">
        <ele>331.10443</ele>
        <time>2023-05-14T13:29:09.000Z</time>
      </trkpt>
      <trkpt lat="45.81875" lon="4.6956">
        <ele>329.81561</ele>
        <time>2023-05-14T13:29:10.000Z</time>
      </trkpt>
      <trkpt lat="45.81873" lon="4.69566">
        <ele>328.50839</ele>
        <time>2023-05-14T13:29:11.000Z</time>
      </trkpt>
      <trkpt lat="45.81872" lon="4.69573">
        <ele>327.17487</ele>
        <time>2023-05-14T13:29:12.000Z</time>
      </trkpt>
      <trkpt lat="45.81871" lon="4.69579">
        <ele>327.09695</ele>
        <time>2023-05-14T13:29:13.000Z</time>
      </trkpt>
      <trkpt lat="45.8187" lon="4.69586">
        <ele>327.47916</ele>
        <time>2023-05-14T13:29:14.000Z</time>
      </trkpt>
      <trkpt lat="45.81869" lon="4.69593">
        <ele>327.2587</ele>
        <time>2023-05-14T13:29:15.000Z</time>
      </trkpt>
      <trkpt lat="45.81868" lon="4.69601">
        <ele>326.57895</ele>
        <time>2023-05-14T13:29:16.000Z</time>
      </trkpt>
      <trkpt lat="45.81867" lon="4.69608">
        <ele>325.91949</ele>
        <time>2023-05-14T13:29:17.000Z</time>
      </trkpt>
      <trkpt lat="45.81866" lon="4.69616">
        <ele>325.24493</ele>
        <time>2023-05-14T13:29:18.000Z</time>
      </trkpt>
      <trkpt lat="45.81864" lon="4.69623">
        <ele>324.65686</ele>
        <time>2023-05-14T13:29:19.000Z</time>
      </trkpt>
      <trkpt lat="45.81863" lon="4.6963">
        <ele>323.98654</ele>
        <time>2023-05-14T13:29:20.000Z</time>
      </trkpt>
      <trkpt lat="45.81861" lon="4.69637">
        <ele>324.01007</ele>
        <time>2023-05-14T13:29:21.000Z</time>
      </trkpt>
      <trkpt lat="45.8186" lon="4.69645">
        <ele>323.59735</ele>
        <time>2023-05-14T13:29:22.000Z</time>
      </trkpt>
      <trkpt lat="45.81859" lon="4.69652">
        <ele>323.22687</ele>
        <time>2023-05-14T13:29:23.000Z</time>
      </trkpt>
      <trkpt lat="45.81857" lon="4.6966">
        <ele>322.85516</ele>
        <time>2023-05-14T13:29:24.000Z</time>
      </trkpt>
      <trkpt lat="45.81856" lon="4.69668">
        <ele>322.49036</ele>
        <time>2023-05-14T13:29:25.000Z</time>
      </trkpt>
      <trkpt lat="45.81854" lon="4.69676">
        <ele>322.57153</ele>
        <time>2023-05-14T13:29:26.000Z</time>
      </trkpt>
      <trkpt lat="45.81853" lon="4.69684">
        <ele>322.66913</ele>
        <time>2023-05-14T13:29:27.000Z</time>
      </trkpt>
      <trkpt lat="45.81851" lon="4.69692">
        <ele>322.77716</ele>
        <time>2023-05-14T13:29:28.000Z</time>
      </trkpt>
      <trkpt lat="45.8185" lon="4.69699">
        <ele>322.83612</ele>
        <time>2023-05-14T13:29:29.000Z</time>
      </trkpt>
      <trkpt lat="45.81849" lon="4.69706">
        <ele>322.91202</ele>
        <time>2023-05-14T13:29:30.000Z</time>
      </trkpt>
      <trkpt lat="45.81849" lon="4.69713">
        <ele>322.98511</ele>
        <time>2023-05-14T13:29:31.000Z</time>
      </trkpt>
      <trkpt lat="45.8185" lon="4.69719">
        <ele>323.08618</ele>
        <time>2023-05-14T13:29:32.000Z</time>
      </trkpt>
      <trkpt lat="45.81851" lon="4.69726">
        <ele>321.97052</ele>
        <time>2023-05-14T13:29:33.000Z</time>
      </trkpt>
      <trkpt lat="45.81852" lon="4.69733">
        <ele>320.409</ele>
        <time>2023-05-14T13:29:34.000Z</time>
      </trkpt>
      <trkpt lat="45.81853" lon="4.6974">
        <ele>319.41196</ele>
        <time>2023-05-14T13:29:35.000Z</time>
      </trkpt>
      <trkpt lat="45.81853" lon="4.69747">
        <ele>318.93231</ele>
        <time>2023-05-14T13:29:36.000Z</time>
      </trkpt>
      <trkpt lat="45.81853" lon="4.69755">
        <ele>318.44135</ele>
        <time>2023-05-14T13:29:37.000Z</time>
      </trkpt>
      <trkpt lat="45.81851" lon="4.69762">
        <ele>317.93423</ele>
        <time>2023-05-14T13:29:38.000Z</time>
      </trkpt>
      <trkpt lat="45.81848" lon="4.69768">
        <ele>317.31149</ele>
        <time>2023-05-14T13:29:39.000Z</time>
      </trkpt>
      <trkpt lat="45.81845" lon="4.69775">
        <ele>316.81363</ele>
        <time>2023-05-14T13:29:40.000Z</time>
      </trkpt>
      <trkpt lat="45.81843" lon="4.69783">
        <ele>316.87866</ele>
        <time>2023-05-14T13:29:41.000Z</time>
      </trkpt>
      <trkpt lat="45.8184" lon="4.6979">
        <ele>316.94904</ele>
        <time>2023-05-14T13:29:42.000Z</time>
      </trkpt>
      <trkpt lat="45.81837" lon="4.69797">
        <ele>316.99103</ele>
        <time>2023-05-14T13:29:43.000Z</time>
      </trkpt>
      <trkpt lat="45.81834" lon="4.69804">
        <ele>317.04965</ele>
        <time>2023-05-14T13:29:44.000Z</time>
      </trkpt>
      <trkpt lat="45.81832" lon="4.69811">
        <ele>317.12646</ele>
        <time>2023-05-14T13:29:45.000Z</time>
      </trkpt>
      <trkpt lat="45.8183" lon="4.69819">
        <ele>317.20837</ele>
        <time>2023-05-14T13:29:46.000Z</time>
      </trkpt>
      <trkpt lat="45.81828" lon="4.69827">
        <ele>317.2941</ele>
        <time>2023-05-14T13:29:47.000Z</time>
      </trkpt>
      <trkpt lat="45.81826" lon="4.69835">
        <ele>317.38446</ele>
        <time>2023-05-14T13:29:48.000Z</time>
      </trkpt>
      <trkpt lat="45.81825" lon="4.69844">
        <ele>317.50787</ele>
        <time>2023-05-14T13:29:49.000Z</time>
      </trkpt>
      <trkpt lat="45.81823" lon="4.69851">
        <ele>317.62003</ele>
        <time>2023-05-14T13:29:50.000Z</time>
      </trkpt>
      <trkpt lat="45.8182" lon="4.69859">
        <ele>317.71866</ele>
        <time>2023-05-14T13:29:51.000Z</time>
      </trkpt>
      <trkpt lat="45.81819" lon="4.69868">
        <ele>317.8129</ele>
        <time>2023-05-14T13:29:52.000Z</time>
      </trkpt>
      <trkpt lat="45.81818" lon="4.69875">
        <ele>317.88959</ele>
        <time>2023-05-14T13:29:53.000Z</time>
      </trkpt>
      <trkpt lat="45.81816" lon="4.69883">
        <ele>318.12866</ele>
        <time>2023-05-14T13:29:54.000Z</time>
      </trkpt>
      <trkpt lat="45.81815" lon="4.69892">
        <ele>318.36389</ele>
        <time>2023-05-14T13:29:55.000Z</time>
      </trkpt>
      <trkpt lat="45.81814" lon="4.69899">
        <ele>318.58569</ele>
        <time>2023-05-14T13:29:56.000Z</time>
      </trkpt>
      <trkpt lat="45.81811" lon="4.69907">
        <ele>318.82553</ele>
        <time>2023-05-14T13:29:57.000Z</time>
      </trkpt>
      <trkpt lat="45.8181" lon="4.69916">
        <ele>319.11694</ele>
        <time>2023-05-14T13:29:58.000Z</time>
      </trkpt>
      <trkpt lat="45.81809" lon="4.69924">
        <ele>319.4498</ele>
        <time>2023-05-14T13:29:59.000Z</time>
      </trkpt>
      <trkpt lat="45.81807" lon="4.69932">
        <ele>319.79889</ele>
        <time>2023-05-14T13:30:00.000Z</time>
      </trkpt>
      <trkpt lat="45.81806" lon="4.6994">
        <ele>320.15567</ele>
        <time>2023-05-14T13:30:01.000Z</time>
      </trkpt>
      <trkpt lat="45.81804" lon="4.69948">
        <ele>320.51114</ele>
        <time>2023-05-14T13:30:02.000Z</time>
      </trkpt>
      <trkpt lat="45.81803" lon="4.69956">
        <ele>320.88208</ele>
        <time>2023-05-14T13:30:03.000Z</time>
      </trkpt>
      <trkpt lat="45.81802" lon="4.69965">
        <ele>321.2594</ele>
        <time>2023-05-14T13:30:04.000Z</time>
      </trkpt>
      <trkpt lat="45.81801" lon="4.69973">
        <ele>321.63474</ele>
        <time>2023-05-14T13:30:05.000Z</time>
      </trkpt>
      <trkpt lat="45.81799" lon="4.69982">
        <ele>322.05038</ele>
        <time>2023-05-14T13:30:06.000Z</time>
      </trkpt>
      <trkpt lat="45.81797" lon="4.6999">
        <ele>322.46893</ele>
        <time>2023-05-14T13:30:07.000Z</time>
      </trkpt>
      <trkpt lat="45.81795" lon="4.69999">
        <ele>322.90521</ele>
        <time>2023-05-14T13:30:08.000Z</time>
      </trkpt>
      <trkpt lat="45.81794" lon="4.70006">
        <ele>323.32251</ele>
        <time>2023-05-14T13:30:09.000Z</time>
      </trkpt>
      <trkpt lat="45.81791" lon="4.70014">
        <ele>323.75873</ele>
        <time>2023-05-14T13:30:10.000Z</time>
      </trkpt>
      <trkpt lat="45.81789" lon="4.70022">
        <ele>324.23569</ele>
        <time>2023-05-14T13:30:11.000Z</time>
      </trkpt>
      <trkpt lat="45.81788" lon="4.70029">
        <ele>324.71646</ele>
        <time>2023-05-14T13:30:12.000Z</time>
      </trkpt>
      <trkpt lat="45.81786" lon="4.70038">
        <ele>325.2359</ele>
        <time>2023-05-14T13:30:13.000Z</time>
      </trkpt>
      <trkpt lat="45.81785" lon="4.70045">
        <ele>325.58075</ele>
        <time>2023-05-14T13:30:14.000Z</time>
      </trkpt>
      <trkpt lat="45.81784" lon="4.70054">
        <ele>325.91766</ele>
        <time>2023-05-14T13:30:15.000Z</time>
      </trkpt>
      <trkpt lat="45.81782" lon="4.70062">
        <ele>326.28238</ele>
        <time>2023-05-14T13:30:16.000Z</time>
      </trkpt>
      <trkpt lat="45.81781" lon="4.7007">
        <ele>326.64243</ele>
        <time>2023-05-14T13:30:17.000Z</time>
      </trkpt>
      <trkpt lat="45.81779" lon="4.70078">
        <ele>326.97748</ele>
        <time>2023-05-14T13:30:18.000Z</time>
      </trkpt>
      <trkpt lat="45.81778" lon="4.70087">
        <ele>327.16815</ele>
        <time>2023-05-14T13:30:19.000Z</time>
      </trkpt>
      <trkpt lat="45.81773" lon="4.70096">
        <ele>327.2392</ele>
        <time>2023-05-14T13:30:20.000Z</time>
      </trkpt>
      <trkpt lat="45.81771" lon="4.70104">
        <ele>327.24048</ele>
        <time>2023-05-14T13:30:21.000Z</time>
      </trkpt>
      <trkpt lat="45.81769" lon="4.70112">
        <ele>327.51459</ele>
        <time>2023-05-14T13:30:22.000Z</time>
      </trkpt>
      <trkpt lat="45.81769" lon="4.7012">
        <ele>327.79437</ele>
        <time>2023-05-14T13:30:23.000Z</time>
      </trkpt>
      <trkpt lat="45.81768" lon="4.70128">
        <ele>328.06198</ele>
        <time>2023-05-14T13:30:24.000Z</time>
      </trkpt>
      <trkpt lat="45.81767" lon="4.70137">
        <ele>328.32785</ele>
        <time>2023-05-14T13:30:25.000Z</time>
      </trkpt>
      <trkpt lat="45.81765" lon="4.70146">
        <ele>328.57092</ele>
        <time>2023-05-14T13:30:26.000Z</time>
      </trkpt>
      <trkpt lat="45.81764" lon="4.70155">
        <ele>328.82132</ele>
        <time>2023-05-14T13:30:27.000Z</time>
      </trkpt>
      <trkpt lat="45.81763" lon="4.70163">
        <ele>329.0697</ele>
        <time>2023-05-14T13:30:28.000Z</time>
      </trkpt>
      <trkpt lat="45.81761" lon="4.70172">
        <ele>329.34052</ele>
        <time>2023-05-14T13:30:29.000Z</time>
      </trkpt>
      <trkpt lat="45.81759" lon="4.7018">
        <ele>329.57352</ele>
        <time>2023-05-14T13:30:30.000Z</time>
      </trkpt>
      <trkpt lat="45.81758" lon="4.70189">
        <ele>329.78287</ele>
        <time>2023-05-14T13:30:31.000Z</time>
      </trkpt>
      <trkpt lat="45.81756" lon="4.70197">
        <ele>329.98331</ele>
        <time>2023-05-14T13:30:32.000Z</time>
      </trkpt>
      <trkpt lat="45.81756" lon="4.70206">
        <ele>330.1564</ele>
        <time>2023-05-14T13:30:33.000Z</time>
      </trkpt>
      <trkpt lat="45.81755" lon="4.70214">
        <ele>331.3707</ele>
        <time>2023-05-14T13:30:34.000Z</time>
      </trkpt>
      <trkpt lat="45.81754" lon="4.70223">
        <ele>332.76114</ele>
        <time>2023-05-14T13:30:35.000Z</time>
      </trkpt>
      <trkpt lat="45.81752" lon="4.70231">
        <ele>334.0975</ele>
        <time>2023-05-14T13:30:36.000Z</time>
      </trkpt>
      <trkpt lat="45.81751" lon="4.70239">
        <ele>335.41403</ele>
        <time>2023-05-14T13:30:37.000Z</time>
      </trkpt>
      <trkpt lat="45.81749" lon="4.70248">
        <ele>335.39932</ele>
        <time>2023-05-14T13:30:38.000Z</time>
      </trkpt>
      <trkpt lat="45.81748" lon="4.70257">
        <ele>335.40979</ele>
        <time>2023-05-14T13:30:39.000Z</time>
      </trkpt>
      <trkpt lat="45.81746" lon="4.70264">
        <ele>335.46872</ele>
        <time>2023-05-14T13:30:40.000Z</time>
      </trkpt>
      <trkpt lat="45.81745" lon="4.70272">
        <ele>335.86493</ele>
        <time>2023-05-14T13:30:41.000Z</time>
      </trkpt>
      <trkpt lat="45.81743" lon="4.7028">
        <ele>335.92548</ele>
        <time>2023-05-14T13:30:42.000Z</time>
      </trkpt>
      <trkpt lat="45.81741" lon="4.70288">
        <ele>336.01178</ele>
        <time>2023-05-14T13:30:43.000Z</time>
      </trkpt>
      <trkpt lat="45.8174" lon="4.70297">
        <ele>336.07281</ele>
        <time>2023-05-14T13:30:44.000Z</time>
      </trkpt>
      <trkpt lat="45.81738" lon="4.70306">
        <ele>336.13849</ele>
        <time>2023-05-14T13:30:45.000Z</time>
      </trkpt>
      <trkpt lat="45.81737" lon="4.70313">
        <ele>336.2005</ele>
        <time>2023-05-14T13:30:46.000Z</time>
      </trkpt>
      <trkpt lat="45.81735" lon="4.70321">
        <ele>336.25677</ele>
        <time>2023-05-14T13:30:47.000Z</time>
      </trkpt>
      <trkpt lat="45.81733" lon="4.70329">
        <ele>336.29669</ele>
        <time>2023-05-14T13:30:48.000Z</time>
      </trkpt>
      <trkpt lat="45.8173" lon="4.70337">
        <ele>336.32867</ele>
        <time>2023-05-14T13:30:49.000Z</time>
      </trkpt>
      <trkpt lat="45.81729" lon="4.70345">
        <ele>336.38971</ele>
        <time>2023-05-14T13:30:50.000Z</time>
      </trkpt>
      <trkpt lat="45.81728" lon="4.70353">
        <ele>336.47458</ele>
        <time>2023-05-14T13:30:51.000Z</time>
      </trkpt>
      <trkpt lat="45.81727" lon="4.70361">
        <ele>336.53967</ele>
        <time>2023-05-14T13:30:52.000Z</time>
      </trkpt>
      <trkpt lat="45.81725" lon="4.70369">
        <ele>336.61349</ele>
        <time>2023-05-14T13:30:53.000Z</time>
      </trkpt>
      <trkpt lat="45.81724" lon="4.70376">
        <ele>335.63617</ele>
        <time>2023-05-14T13:30:54.000Z</time>
      </trkpt>
      <trkpt lat="45.81721" lon="4.70384">
        <ele>334.48349</ele>
        <time>2023-05-14T13:30:55.000Z</time>
      </trkpt>
      <trkpt lat="45.8172" lon="4.70392">
        <ele>333.36322</ele>
        <time>2023-05-14T13:30:56.000Z</time>
      </trkpt>
      <trkpt lat="45.81719" lon="4.704">
        <ele>332.24469</ele>
        <time>2023-05-14T13:30:57.000Z</time>
      </trkpt>
      <trkpt lat="45.81717" lon="4.70407">
        <ele>332.48047</ele>
        <time>2023-05-14T13:30:58.000Z</time>
      </trkpt>
      <trkpt lat="45.81715" lon="4.70415">
        <ele>332.79941</ele>
        <time>2023-05-14T13:30:59.000Z</time>
      </trkpt>
      <trkpt lat="45.81714" lon="4.70423">
        <ele>333.17584</ele>
        <time>2023-05-14T13:31:00.000Z</time>
      </trkpt>
      <trkpt lat="45.81713" lon="4.70431">
        <ele>333.29266</ele>
        <time>2023-05-14T13:31:01.000Z</time>
      </trkpt>
      <trkpt lat="45.81711" lon="4.70438">
        <ele>333.44382</ele>
        <time>2023-05-14T13:31:02.000Z</time>
      </trkpt>
      <trkpt lat="45.81709" lon="4.70445">
        <ele>333.59695</ele>
        <time>2023-05-14T13:31:03.000Z</time>
      </trkpt>
      <trkpt lat="45.81707" lon="4.70453">
        <ele>333.75128</ele>
        <time>2023-05-14T13:31:04.000Z</time>
      </trkpt>
      <trkpt lat="45.81706" lon="4.70461">
        <ele>333.89203</ele>
        <time>2023-05-14T13:31:05.000Z</time>
      </trkpt>
      <trkpt lat="45.81705" lon="4.70469">
        <ele>334.02362</ele>
        <time>2023-05-14T13:31:06.000Z</time>
      </trkpt>
      <trkpt lat="45.81704" lon="4.70476">
        <ele>333.88858</ele>
        <time>2023-05-14T13:31:07.000Z</time>
      </trkpt>
      <trkpt lat="45.81702" lon="4.70483">
        <ele>334.39587</ele>
        <time>2023-05-14T13:31:08.000Z</time>
      </trkpt>
      <trkpt lat="45.817" lon="4.7049">
        <ele>334.89679</ele>
        <time>2023-05-14T13:31:09.000Z</time>
      </trkpt>
      <trkpt lat="45.81699" lon="4.70498">
        <ele>335.40137</ele>
        <time>2023-05-14T13:31:10.000Z</time>
      </trkpt>
      <trkpt lat="45.81697" lon="4.70505">
        <ele>335.88452</ele>
        <time>2023-05-14T13:31:11.000Z</time>
      </trkpt>
      <trkpt lat="45.81695" lon="4.70512">
        <ele>336.38013</ele>
        <time>2023-05-14T13:31:12.000Z</time>
      </trkpt>
      <trkpt lat="45.81693" lon="4.7052">
        <ele>336.85654</ele>
        <time>2023-05-14T13:31:13.000Z</time>
      </trkpt>
      <trkpt lat="45.81692" lon="4.70527">
        <ele>337.34195</ele>
        <time>2023-05-14T13:31:14.000Z</time>
      </trkpt>
      <trkpt lat="45.81691" lon="4.70535">
        <ele>337.83267</ele>
        <time>2023-05-14T13:31:15.000Z</time>
      </trkpt>
      <trkpt lat="45.8169" lon="4.70543">
        <ele>338.31607</ele>
        <time>2023-05-14T13:31:16.000Z</time>
      </trkpt>
      <trkpt lat="45.81689" lon="4.70551">
        <ele>338.75983</ele>
        <time>2023-05-14T13:31:17.000Z</time>
      </trkpt>
      <trkpt lat="45.81687" lon="4.7056">
        <ele>339.81342</ele>
        <time>2023-05-14T13:31:18.000Z</time>
      </trkpt>
      <trkpt lat="45.81686" lon="4.70567">
        <ele>340.89233</ele>
        <time>2023-05-14T13:31:19.000Z</time>
      </trkpt>
      <trkpt lat="45.81685" lon="4.70575">
        <ele>341.98724</ele>
        <time>2023-05-14T13:31:20.000Z</time>
      </trkpt>
      <trkpt lat="45.81684" lon="4.70583">
        <ele>343.05527</ele>
        <time>2023-05-14T13:31:21.000Z</time>
      </trkpt>
      <trkpt lat="45.81686" lon="4.70589">
        <ele>344.10864</ele>
        <time>2023-05-14T13:31:22.000Z</time>
      </trkpt>
      <trkpt lat="45.81686" lon="4.70596">
        <ele>345.1416</ele>
        <time>2023-05-14T13:31:23.000Z</time>
      </trkpt>
      <trkpt lat="45.81684" lon="4.70603">
        <ele>346.18497</ele>
        <time>2023-05-14T13:31:24.000Z</time>
      </trkpt>
      <trkpt lat="45.81682" lon="4.70609">
        <ele>347.23117</ele>
        <time>2023-05-14T13:31:25.000Z</time>
      </trkpt>
      <trkpt lat="45.81681" lon="4.70616">
        <ele>348.27704</ele>
        <time>2023-05-14T13:31:26.000Z</time>
      </trkpt>
      <trkpt lat="45.81679" lon="4.70624">
        <ele>349.54785</ele>
        <time>2023-05-14T13:31:27.000Z</time>
      </trkpt>
      <trkpt lat="45.81678" lon="4.70632">
        <ele>350.19766</ele>
        <time>2023-05-14T13:31:28.000Z</time>
      </trkpt>
      <trkpt lat="45.81676" lon="4.7064">
        <ele>350.81503</ele>
        <time>2023-05-14T13:31:29.000Z</time>
      </trkpt>
      <trkpt lat="45.81675" lon="4.70648">
        <ele>351.4371</ele>
        <time>2023-05-14T13:31:30.000Z</time>
      </trkpt>
      <trkpt lat="45.81674" lon="4.70656">
        <ele>352.04218</ele>
        <time>2023-05-14T13:31:31.000Z</time>
      </trkpt>
      <trkpt lat="45.81673" lon="4.70664">
        <ele>352.64465</ele>
        <time>2023-05-14T13:31:32.000Z</time>
      </trkpt>
      <trkpt lat="45.81671" lon="4.70672">
        <ele>353.27005</ele>
        <time>2023-05-14T13:31:33.000Z</time>
      </trkpt>
      <trkpt lat="45.81669" lon="4.70679">
        <ele>353.83646</ele>
        <time>2023-05-14T13:31:34.000Z</time>
      </trkpt>
      <trkpt lat="45.81668" lon="4.70687">
        <ele>354.39838</ele>
        <time>2023-05-14T13:31:35.000Z</time>
      </trkpt>
      <trkpt lat="45.81666" lon="4.70695">
        <ele>354.91837</ele>
        <time>2023-05-14T13:31:36.000Z</time>
      </trkpt>
      <trkpt lat="45.81665" lon="4.70702">
        <ele>355.45847</ele>
        <time>2023-05-14T13:31:37.000Z</time>
      </trkpt>
      <trkpt lat="45.81663" lon="4.7071">
        <ele>355.36011</ele>
        <time>2023-05-14T13:31:38.000Z</time>
      </trkpt>
      <trkpt lat="45.81661" lon="4.70718">
        <ele>355.40585</ele>
        <time>2023-05-14T13:31:39.000Z</time>
      </trkpt>
      <trkpt lat="45.8166" lon="4.70726">
        <ele>355.41446</ele>
        <time>2023-05-14T13:31:40.000Z</time>
      </trkpt>
      <trkpt lat="45.81658" lon="4.70734">
        <ele>355.43103</ele>
        <time>2023-05-14T13:31:41.000Z</time>
      </trkpt>
      <trkpt lat="45.81656" lon="4.70743">
        <ele>355.47562</ele>
        <time>2023-05-14T13:31:42.000Z</time>
      </trkpt>
      <trkpt lat="45.81655" lon="4.70751">
        <ele>355.59277</ele>
        <time>2023-05-14T13:31:43.000Z</time>
      </trkpt>
      <trkpt lat="45.81653" lon="4.7076">
        <ele>355.7193</ele>
        <time>2023-05-14T13:31:44.000Z</time>
      </trkpt>
      <trkpt lat="45.81651" lon="4.70769">
        <ele>355.93997</ele>
        <time>2023-05-14T13:31:45.000Z</time>
      </trkpt>
      <trkpt lat="45.81649" lon="4.70778">
        <ele>355.75742</ele>
        <time>2023-05-14T13:31:46.000Z</time>
      </trkpt>
      <trkpt lat="45.81648" lon="4.70786">
        <ele>355.61111</ele>
        <time>2023-05-14T13:31:47.000Z</time>
      </trkpt>
      <trkpt lat="45.81646" lon="4.70795">
        <ele>355.44122</ele>
        <time>2023-05-14T13:31:48.000Z</time>
      </trkpt>
      <trkpt lat="45.81645" lon="4.70804">
        <ele>355.2934</ele>
        <time>2023-05-14T13:31:49.000Z</time>
      </trkpt>
      <trkpt lat="45.81643" lon="4.70812">
        <ele>355.10757</ele>
        <time>2023-05-14T13:31:50.000Z</time>
      </trkpt>
      <trkpt lat="45.81642" lon="4.70821">
        <ele>354.94968</ele>
        <time>2023-05-14T13:31:51.000Z</time>
      </trkpt>
      <trkpt lat="45.81639" lon="4.7083">
        <ele>354.78522</ele>
        <time>2023-05-14T13:31:52.000Z</time>
      </trkpt>
      <trkpt lat="45.81639" lon="4.70838">
        <ele>354.60873</ele>
        <time>2023-05-14T13:31:53.000Z</time>
      </trkpt>
      <trkpt lat="45.81638" lon="4.70846">
        <ele>354.49371</ele>
        <time>2023-05-14T13:31:54.000Z</time>
      </trkpt>
      <trkpt lat="45.81636" lon="4.70855">
        <ele>354.36166</ele>
        <time>2023-05-14T13:31:55.000Z</time>
      </trkpt>
      <trkpt lat="45.81635" lon="4.70864">
        <ele>354.24506</ele>
        <time>2023-05-14T13:31:56.000Z</time>
      </trkpt>
      <trkpt lat="45.81634" lon="4.70871">
        <ele>354.14398</ele>
        <time>2023-05-14T13:31:57.000Z</time>
      </trkpt>
      <trkpt lat="45.81632" lon="4.70877">
        <ele>354.00482</ele>
        <time>2023-05-14T13:31:58.000Z</time>
      </trkpt>
      <trkpt lat="45.8163" lon="4.70882">
        <ele>353.71896</ele>
        <time>2023-05-14T13:31:59.000Z</time>
      </trkpt>
      <trkpt lat="45.81629" lon="4.70885">
        <ele>353.452</ele>
        <time>2023-05-14T13:32:00.000Z</time>
      </trkpt>
      <trkpt lat="45.81628" lon="4.70888">
        <ele>352.74551</ele>
        <time>2023-05-14T13:32:01.000Z</time>
      </trkpt>
      <trkpt lat="45.81626" lon="4.70891">
        <ele>352.02899</ele>
        <time>2023-05-14T13:32:02.000Z</time>
      </trkpt>
      <trkpt lat="45.81628" lon="4.70892">
        <ele>351.34073</ele>
        <time>2023-05-14T13:32:11.000Z</time>
      </trkpt>
      <trkpt lat="45.81626" lon="4.70893">
        <ele>350.49493</ele>
        <time>2023-05-14T13:32:14.000Z</time>
      </trkpt>
      <trkpt lat="45.81625" lon="4.70895">
        <ele>349.52704</ele>
        <time>2023-05-14T13:32:15.000Z</time>
      </trkpt>
      <trkpt lat="45.81622" lon="4.70901">
        <ele>348.92276</ele>
        <time>2023-05-14T13:32:17.000Z</time>
      </trkpt>
      <trkpt lat="45.8162" lon="4.70905">
        <ele>348.29391</ele>
        <time>2023-05-14T13:32:18.000Z</time>
      </trkpt>
      <trkpt lat="45.81618" lon="4.70909">
        <ele>347.64874</ele>
        <time>2023-05-14T13:32:19.000Z</time>
      </trkpt>
      <trkpt lat="45.81617" lon="4.70913">
        <ele>346.99863</ele>
        <time>2023-05-14T13:32:20.000Z</time>
      </trkpt>
      <trkpt lat="45.81618" lon="4.70918">
        <ele>346.37265</ele>
        <time>2023-05-14T13:32:21.000Z</time>
      </trkpt>
      <trkpt lat="45.81618" lon="4.70924">
        <ele>345.72675</ele>
        <time>2023-05-14T13:32:22.000Z</time>
      </trkpt>
      <trkpt lat="45.81619" lon="4.7093">
        <ele>345.086</ele>
        <time>2023-05-14T13:32:23.000Z</time>
      </trkpt>
      <trkpt lat="45.81621" lon="4.70936">
        <ele>345.04254</ele>
        <time>2023-05-14T13:32:24.000Z</time>
      </trkpt>
      <trkpt lat="45.81621" lon="4.70943">
        <ele>344.98846</ele>
        <time>2023-05-14T13:32:25.000Z</time>
      </trkpt>
      <trkpt lat="45.81621" lon="4.7095">
        <ele>345.11816</ele>
        <time>2023-05-14T13:32:26.000Z</time>
      </trkpt>
      <trkpt lat="45.8162" lon="4.70958">
        <ele>345.26999</ele>
        <time>2023-05-14T13:32:27.000Z</time>
      </trkpt>
      <trkpt lat="45.81618" lon="4.70965">
        <ele>345.38947</ele>
        <time>2023-05-14T13:32:28.000Z</time>
      </trkpt>
      <trkpt lat="45.81617" lon="4.70972">
        <ele>345.5575</ele>
        <time>2023-05-14T13:32:29.000Z</time>
      </trkpt>
      <trkpt lat="45.81616" lon="4.70981">
        <ele>345.71176</ele>
        <time>2023-05-14T13:32:30.000Z</time>
      </trkpt>
      <trkpt lat="45.81615" lon="4.70989">
        <ele>345.85397</ele>
        <time>2023-05-14T13:32:31.000Z</time>
      </trkpt>
      <trkpt lat="45.81614" lon="4.70997">
        <ele>346.4093</ele>
        <time>2023-05-14T13:32:32.000Z</time>
      </trkpt>
      <trkpt lat="45.81612" lon="4.71006">
        <ele>346.97598</ele>
        <time>2023-05-14T13:32:33.000Z</time>
      </trkpt>
      <trkpt lat="45.8161" lon="4.71015">
        <ele>347.41458</ele>
        <time>2023-05-14T13:32:34.000Z</time>
      </trkpt>
      <trkpt lat="45.81609" lon="4.71023">
        <ele>348.10236</ele>
        <time>2023-05-14T13:32:35.000Z</time>
      </trkpt>
      <trkpt lat="45.81607" lon="4.71031">
        <ele>348.84332</ele>
        <time>2023-05-14T13:32:36.000Z</time>
      </trkpt>
      <trkpt lat="45.81605" lon="4.71038">
        <ele>349.2081</ele>
        <time>2023-05-14T13:32:37.000Z</time>
      </trkpt>
      <trkpt lat="45.81603" lon="4.71047">
        <ele>349.70752</ele>
        <time>2023-05-14T13:32:38.000Z</time>
      </trkpt>
      <trkpt lat="45.81602" lon="4.71056">
        <ele>350.216</ele>
        <time>2023-05-14T13:32:39.000Z</time>
      </trkpt>
      <trkpt lat="45.816" lon="4.71064">
        <ele>350.70963</ele>
        <time>2023-05-14T13:32:40.000Z</time>
      </trkpt>
      <trkpt lat="45.81599" lon="4.71072">
        <ele>351.22675</ele>
        <time>2023-05-14T13:32:41.000Z</time>
      </trkpt>
      <trkpt lat="45.81597" lon="4.7108">
        <ele>351.68402</ele>
        <time>2023-05-14T13:32:42.000Z</time>
      </trkpt>
      <trkpt lat="45.81596" lon="4.71089">
        <ele>352.17725</ele>
        <time>2023-05-14T13:32:43.000Z</time>
      </trkpt>
      <trkpt lat="45.81594" lon="4.71097">
        <ele>352.06366</ele>
        <time>2023-05-14T13:32:44.000Z</time>
      </trkpt>
      <trkpt lat="45.81592" lon="4.71105">
        <ele>351.95938</ele>
        <time>2023-05-14T13:32:45.000Z</time>
      </trkpt>
      <trkpt lat="45.8159" lon="4.71113">
        <ele>351.68839</ele>
        <time>2023-05-14T13:32:46.000Z</time>
      </trkpt>
      <trkpt lat="45.81588" lon="4.71122">
        <ele>351.42157</ele>
        <time>2023-05-14T13:32:47.000Z</time>
      </trkpt>
      <trkpt lat="45.81587" lon="4.7113">
        <ele>351.17316</ele>
        <time>2023-05-14T13:32:48.000Z</time>
      </trkpt>
      <trkpt lat="45.81585" lon="4.71138">
        <ele>350.9212</ele>
        <time>2023-05-14T13:32:49.000Z</time>
      </trkpt>
      <trkpt lat="45.81583" lon="4.71146">
        <ele>350.66992</ele>
        <time>2023-05-14T13:32:50.000Z</time>
      </trkpt>
      <trkpt lat="45.81582" lon="4.71155">
        <ele>350.40958</ele>
        <time>2023-05-14T13:32:51.000Z</time>
      </trkpt>
      <trkpt lat="45.81581" lon="4.71163">
        <ele>350.15741</ele>
        <time>2023-05-14T13:32:52.000Z</time>
      </trkpt>
      <trkpt lat="45.81579" lon="4.71171">
        <ele>349.92603</ele>
        <time>2023-05-14T13:32:53.000Z</time>
      </trkpt>
      <trkpt lat="45.81578" lon="4.71179">
        <ele>349.06967</ele>
        <time>2023-05-14T13:32:54.000Z</time>
      </trkpt>
      <trkpt lat="45.81576" lon="4.71188">
        <ele>348.13058</ele>
        <time>2023-05-14T13:32:55.000Z</time>
      </trkpt>
      <trkpt lat="45.81575" lon="4.71196">
        <ele>347.12811</ele>
        <time>2023-05-14T13:32:56.000Z</time>
      </trkpt>
      <trkpt lat="45.81573" lon="4.71205">
        <ele>346.5553</ele>
        <time>2023-05-14T13:32:57.000Z</time>
      </trkpt>
      <trkpt lat="45.81572" lon="4.71213">
        <ele>345.85141</ele>
        <time>2023-05-14T13:32:58.000Z</time>
      </trkpt>
      <trkpt lat="45.81571" lon="4.71221">
        <ele>345.13739</ele>
        <time>2023-05-14T13:32:59.000Z</time>
      </trkpt>
      <trkpt lat="45.8157" lon="4.71229">
        <ele>344.44537</ele>
        <time>2023-05-14T13:33:00.000Z</time>
      </trkpt>
      <trkpt lat="45.81569" lon="4.71238">
        <ele>343.74054</ele>
        <time>2023-05-14T13:33:01.000Z</time>
      </trkpt>
      <trkpt lat="45.81568" lon="4.71245">
        <ele>343.10995</ele>
        <time>2023-05-14T13:33:02.000Z</time>
      </trkpt>
      <trkpt lat="45.81566" lon="4.71254">
        <ele>342.42715</ele>
        <time>2023-05-14T13:33:03.000Z</time>
      </trkpt>
      <trkpt lat="45.81565" lon="4.71262">
        <ele>341.72528</ele>
        <time>2023-05-14T13:33:04.000Z</time>
      </trkpt>
      <trkpt lat="45.81564" lon="4.7127">
        <ele>341.03516</ele>
        <time>2023-05-14T13:33:05.000Z</time>
      </trkpt>
      <trkpt lat="45.81562" lon="4.71278">
        <ele>340.33102</ele>
        <time>2023-05-14T13:33:06.000Z</time>
      </trkpt>
      <trkpt lat="45.8156" lon="4.71286">
        <ele>339.64511</ele>
        <time>2023-05-14T13:33:07.000Z</time>
      </trkpt>
      <trkpt lat="45.81559" lon="4.71294">
        <ele>338.96381</ele>
        <time>2023-05-14T13:33:08.000Z</time>
      </trkpt>
      <trkpt lat="45.81557" lon="4.71301">
        <ele>338.31177</ele>
        <time>2023-05-14T13:33:09.000Z</time>
      </trkpt>
      <trkpt lat="45.81555" lon="4.71308">
        <ele>337.66058</ele>
        <time>2023-05-14T13:33:10.000Z</time>
      </trkpt>
      <trkpt lat="45.81554" lon="4.71312">
        <ele>337.02466</ele>
        <time>2023-05-14T13:33:11.000Z</time>
      </trkpt>
      <trkpt lat="45.81553" lon="4.71315">
        <ele>336.43463</ele>
        <time>2023-05-14T13:33:12.000Z</time>
      </trkpt>
      <trkpt lat="45.81553" lon="4.7132">
        <ele>335.83588</ele>
        <time>2023-05-14T13:33:13.000Z</time>
      </trkpt>
      <trkpt lat="45.81552" lon="4.71326">
        <ele>335.89288</ele>
        <time>2023-05-14T13:33:14.000Z</time>
      </trkpt>
      <trkpt lat="45.81551" lon="4.71332">
        <ele>335.92279</ele>
        <time>2023-05-14T13:33:15.000Z</time>
      </trkpt>
      <trkpt lat="45.81549" lon="4.71338">
        <ele>335.9917</ele>
        <time>2023-05-14T13:33:16.000Z</time>
      </trkpt>
      <trkpt lat="45.81549" lon="4.71344">
        <ele>336.05316</ele>
        <time>2023-05-14T13:33:17.000Z</time>
      </trkpt>
      <trkpt lat="45.81549" lon="4.71351">
        <ele>336.12396</ele>
        <time>2023-05-14T13:33:18.000Z</time>
      </trkpt>
      <trkpt lat="45.81546" lon="4.71357">
        <ele>336.22168</ele>
        <time>2023-05-14T13:33:19.000Z</time>
      </trkpt>
      <trkpt lat="45.81544" lon="4.71362">
        <ele>336.32391</ele>
        <time>2023-05-14T13:33:20.000Z</time>
      </trkpt>
      <trkpt lat="45.81545" lon="4.71368">
        <ele>336.44379</ele>
        <time>2023-05-14T13:33:21.000Z</time>
      </trkpt>
      <trkpt lat="45.81543" lon="4.71374">
        <ele>336.56354</ele>
        <time>2023-05-14T13:33:22.000Z</time>
      </trkpt>
      <trkpt lat="45.81542" lon="4.7138">
        <ele>336.67935</ele>
        <time>2023-05-14T13:33:23.000Z</time>
      </trkpt>
      <trkpt lat="45.81543" lon="4.71388">
        <ele>336.81641</ele>
        <time>2023-05-14T13:33:24.000Z</time>
      </trkpt>
      <trkpt lat="45.81544" lon="4.71395">
        <ele>336.9389</ele>
        <time>2023-05-14T13:33:25.000Z</time>
      </trkpt>
      <trkpt lat="45.81545" lon="4.71402">
        <ele>337.0788</ele>
        <time>2023-05-14T13:33:26.000Z</time>
      </trkpt>
      <trkpt lat="45.81546" lon="4.71409">
        <ele>337.20889</ele>
        <time>2023-05-14T13:33:27.000Z</time>
      </trkpt>
      <trkpt lat="45.81547" lon="4.71416">
        <ele>337.39072</ele>
        <time>2023-05-14T13:33:28.000Z</time>
      </trkpt>
      <trkpt lat="45.81547" lon="4.71422">
        <ele>337.52878</ele>
        <time>2023-05-14T13:33:29.000Z</time>
      </trkpt>
      <trkpt lat="45.81548" lon="4.71429">
        <ele>337.67792</ele>
        <time>2023-05-14T13:33:30.000Z</time>
      </trkpt>
      <trkpt lat="45.81549" lon="4.71436">
        <ele>337.8266</ele>
        <time>2023-05-14T13:33:31.000Z</time>
      </trkpt>
      <trkpt lat="45.81549" lon="4.71443">
        <ele>337.93964</ele>
        <time>2023-05-14T13:33:32.000Z</time>
      </trkpt>
      <trkpt lat="45.81549" lon="4.7145">
        <ele>338.05121</ele>
        <time>2023-05-14T13:33:33.000Z</time>
      </trkpt>
      <trkpt lat="45.81548" lon="4.71457">
        <ele>338.14563</ele>
        <time>2023-05-14T13:33:34.000Z</time>
      </trkpt>
      <trkpt lat="45.81547" lon="4.71464">
        <ele>338.2489</ele>
        <time>2023-05-14T13:33:35.000Z</time>
      </trkpt>
      <trkpt lat="45.81546" lon="4.71472">
        <ele>338.35266</ele>
        <time>2023-05-14T13:33:36.000Z</time>
      </trkpt>
      <trkpt lat="45.81545" lon="4.71479">
        <ele>338.46713</ele>
        <time>2023-05-14T13:33:37.000Z</time>
      </trkpt>
      <trkpt lat="45.81544" lon="4.71487">
        <ele>338.59973</ele>
        <time>2023-05-14T13:33:38.000Z</time>
      </trkpt>
      <trkpt lat="45.81543" lon="4.71494">
        <ele>338.71014</ele>
        <time>2023-05-14T13:33:39.000Z</time>
      </trkpt>
      <trkpt lat="45.81542" lon="4.71501">
        <ele>338.80933</ele>
        <time>2023-05-14T13:33:40.000Z</time>
      </trkpt>
      <trkpt lat="45.81542" lon="4.71508">
        <ele>338.90411</ele>
        <time>2023-05-14T13:33:41.000Z</time>
      </trkpt>
      <trkpt lat="45.81541" lon="4.71515">
        <ele>338.98114</ele>
        <time>2023-05-14T13:33:42.000Z</time>
      </trkpt>
      <trkpt lat="45.8154" lon="4.71522">
        <ele>339.09299</ele>
        <time>2023-05-14T13:33:43.000Z</time>
      </trkpt>
      <trkpt lat="45.8154" lon="4.71529">
        <ele>339.2128</ele>
        <time>2023-05-14T13:33:44.000Z</time>
      </trkpt>
      <trkpt lat="45.81539" lon="4.71537">
        <ele>339.35043</ele>
        <time>2023-05-14T13:33:45.000Z</time>
      </trkpt>
      <trkpt lat="45.81539" lon="4.71544">
        <ele>339.5036</ele>
        <time>2023-05-14T13:33:46.000Z</time>
      </trkpt>
      <trkpt lat="45.81538" lon="4.71551">
        <ele>339.64804</ele>
        <time>2023-05-14T13:33:47.000Z</time>
      </trkpt>
      <trkpt lat="45.81537" lon="4.71558">
        <ele>339.73749</ele>
        <time>2023-05-14T13:33:48.000Z</time>
      </trkpt>
      <trkpt lat="45.81536" lon="4.71566">
        <ele>339.85141</ele>
        <time>2023-05-14T13:33:49.000Z</time>
      </trkpt>
      <trkpt lat="45.81536" lon="4.71573">
        <ele>339.94083</ele>
        <time>2023-05-14T13:33:50.000Z</time>
      </trkpt>
      <trkpt lat="45.81535" lon="4.71581">
        <ele>340.04105</ele>
        <time>2023-05-14T13:33:51.000Z</time>
      </trkpt>
      <trkpt lat="45.81534" lon="4.71588">
        <ele>340.19031</ele>
        <time>2023-05-14T13:33:52.000Z</time>
      </trkpt>
      <trkpt lat="45.81533" lon="4.71596">
        <ele>340.34573</ele>
        <time>2023-05-14T13:33:53.000Z</time>
      </trkpt>
      <trkpt lat="45.81532" lon="4.71602">
        <ele>340.49591</ele>
        <time>2023-05-14T13:33:54.000Z</time>
      </trkpt>
      <trkpt lat="45.81531" lon="4.71608">
        <ele>340.69174</ele>
        <time>2023-05-14T13:33:55.000Z</time>
      </trkpt>
      <trkpt lat="45.81531" lon="4.71615">
        <ele>340.8913</ele>
        <time>2023-05-14T13:33:56.000Z</time>
      </trkpt>
      <trkpt lat="45.81531" lon="4.71622">
        <ele>341.09686</ele>
        <time>2023-05-14T13:33:57.000Z</time>
      </trkpt>
      <trkpt lat="45.8153" lon="4.71628">
        <ele>341.29187</ele>
        <time>2023-05-14T13:33:58.000Z</time>
      </trkpt>
      <trkpt lat="45.81529" lon="4.71636">
        <ele>341.4967</ele>
        <time>2023-05-14T13:33:59.000Z</time>
      </trkpt>
      <trkpt lat="45.81529" lon="4.71642">
        <ele>341.6702</ele>
        <time>2023-05-14T13:34:00.000Z</time>
      </trkpt>
      <trkpt lat="45.81528" lon="4.7165">
        <ele>341.83286</ele>
        <time>2023-05-14T13:34:01.000Z</time>
      </trkpt>
      <trkpt lat="45.81527" lon="4.71656">
        <ele>342.02524</ele>
        <time>2023-05-14T13:34:02.000Z</time>
      </trkpt>
      <trkpt lat="45.81526" lon="4.71662">
        <ele>342.18741</ele>
        <time>2023-05-14T13:34:03.000Z</time>
      </trkpt>
      <trkpt lat="45.81523" lon="4.7167">
        <ele>342.33188</ele>
        <time>2023-05-14T13:34:04.000Z</time>
      </trkpt>
      <trkpt lat="45.81523" lon="4.71677">
        <ele>342.48428</ele>
        <time>2023-05-14T13:34:05.000Z</time>
      </trkpt>
      <trkpt lat="45.81523" lon="4.71684">
        <ele>342.62891</ele>
        <time>2023-05-14T13:34:06.000Z</time>
      </trkpt>
      <trkpt lat="45.81523" lon="4.71691">
        <ele>342.87283</ele>
        <time>2023-05-14T13:34:07.000Z</time>
      </trkpt>
      <trkpt lat="45.81523" lon="4.71697">
        <ele>343.14059</ele>
        <time>2023-05-14T13:34:08.000Z</time>
      </trkpt>
      <trkpt lat="45.81521" lon="4.71705">
        <ele>343.51227</ele>
        <time>2023-05-14T13:34:09.000Z</time>
      </trkpt>
      <trkpt lat="45.81519" lon="4.71711">
        <ele>343.90094</ele>
        <time>2023-05-14T13:34:10.000Z</time>
      </trkpt>
      <trkpt lat="45.81515" lon="4.71716">
        <ele>344.26202</ele>
        <time>2023-05-14T13:34:11.000Z</time>
      </trkpt>
      <trkpt lat="45.81512" lon="4.7172">
        <ele>344.58289</ele>
        <time>2023-05-14T13:34:12.000Z</time>
      </trkpt>
      <trkpt lat="45.81511" lon="4.71727">
        <ele>344.88309</ele>
        <time>2023-05-14T13:34:13.000Z</time>
      </trkpt>
      <trkpt lat="45.81512" lon="4.71734">
        <ele>345.19867</ele>
        <time>2023-05-14T13:34:14.000Z</time>
      </trkpt>
      <trkpt lat="45.81514" lon="4.71739">
        <ele>345.42899</ele>
        <time>2023-05-14T13:34:15.000Z</time>
      </trkpt>
      <trkpt lat="45.81518" lon="4.71743">
        <ele>345.64294</ele>
        <time>2023-05-14T13:34:16.000Z</time>
      </trkpt>
      <trkpt lat="45.81522" lon="4.71745">
        <ele>345.84247</ele>
        <time>2023-05-14T13:34:17.000Z</time>
      </trkpt>
      <trkpt lat="45.81526" lon="4.71747">
        <ele>346.02692</ele>
        <time>2023-05-14T13:34:18.000Z</time>
      </trkpt>
      <trkpt lat="45.8153" lon="4.71748">
        <ele>346.21646</ele>
        <time>2023-05-14T13:34:19.000Z</time>
      </trkpt>
      <trkpt lat="45.81534" lon="4.7175">
        <ele>346.46597</ele>
        <time>2023-05-14T13:34:20.000Z</time>
      </trkpt>
      <trkpt lat="45.81537" lon="4.71754">
        <ele>346.6131</ele>
        <time>2023-05-14T13:34:21.000Z</time>
      </trkpt>
      <trkpt lat="45.8154" lon="4.71758">
        <ele>346.73407</ele>
        <time>2023-05-14T13:34:22.000Z</time>
      </trkpt>
      <trkpt lat="45.81542" lon="4.71765">
        <ele>346.0914</ele>
        <time>2023-05-14T13:34:23.000Z</time>
      </trkpt>
      <trkpt lat="45.81545" lon="4.71771">
        <ele>345.81348</ele>
        <time>2023-05-14T13:34:24.000Z</time>
      </trkpt>
      <trkpt lat="45.81547" lon="4.71776">
        <ele>345.44904</ele>
        <time>2023-05-14T13:34:25.000Z</time>
      </trkpt>
      <trkpt lat="45.8155" lon="4.71782">
        <ele>345.6387</ele>
        <time>2023-05-14T13:34:26.000Z</time>
      </trkpt>
      <trkpt lat="45.81552" lon="4.71787">
        <ele>345.7049</ele>
        <time>2023-05-14T13:34:27.000Z</time>
      </trkpt>
      <trkpt lat="45.81554" lon="4.71794">
        <ele>345.7562</ele>
        <time>2023-05-14T13:34:28.000Z</time>
      </trkpt>
      <trkpt lat="45.81557" lon="4.71801">
        <ele>345.70755</ele>
        <time>2023-05-14T13:34:29.000Z</time>
      </trkpt>
      <trkpt lat="45.81559" lon="4.71807">
        <ele>345.6528</ele>
        <time>2023-05-14T13:34:30.000Z</time>
      </trkpt>
      <trkpt lat="45.81561" lon="4.71814">
        <ele>345.61264</ele>
        <time>2023-05-14T13:34:31.000Z</time>
      </trkpt>
      <trkpt lat="45.81564" lon="4.71821">
        <ele>345.59402</ele>
        <time>2023-05-14T13:34:32.000Z</time>
      </trkpt>
      <trkpt lat="45.81566" lon="4.71827">
        <ele>345.57245</ele>
        <time>2023-05-14T13:34:33.000Z</time>
      </trkpt>
      <trkpt lat="45.81568" lon="4.71834">
        <ele>345.53165</ele>
        <time>2023-05-14T13:34:34.000Z</time>
      </trkpt>
      <trkpt lat="45.81571" lon="4.71841">
        <ele>345.5166</ele>
        <time>2023-05-14T13:34:35.000Z</time>
      </trkpt>
      <trkpt lat="45.81574" lon="4.71847">
        <ele>345.47867</ele>
        <time>2023-05-14T13:34:36.000Z</time>
      </trkpt>
      <trkpt lat="45.81577" lon="4.71853">
        <ele>345.44308</ele>
        <time>2023-05-14T13:34:37.000Z</time>
      </trkpt>
      <trkpt lat="45.81579" lon="4.7186">
        <ele>345.41583</ele>
        <time>2023-05-14T13:34:38.000Z</time>
      </trkpt>
      <trkpt lat="45.81582" lon="4.71868">
        <ele>345.35602</ele>
        <time>2023-05-14T13:34:39.000Z</time>
      </trkpt>
      <trkpt lat="45.81584" lon="4.71874">
        <ele>345.23859</ele>
        <time>2023-05-14T13:34:40.000Z</time>
      </trkpt>
      <trkpt lat="45.81587" lon="4.7188">
        <ele>345.20026</ele>
        <time>2023-05-14T13:34:41.000Z</time>
      </trkpt>
      <trkpt lat="45.8159" lon="4.71886">
        <ele>345.16852</ele>
        <time>2023-05-14T13:34:42.000Z</time>
      </trkpt>
      <trkpt lat="45.81593" lon="4.71892">
        <ele>345.92935</ele>
        <time>2023-05-14T13:34:43.000Z</time>
      </trkpt>
      <trkpt lat="45.81596" lon="4.71898">
        <ele>346.34137</ele>
        <time>2023-05-14T13:34:44.000Z</time>
      </trkpt>
      <trkpt lat="45.81599" lon="4.71904">
        <ele>346.80902</ele>
        <time>2023-05-14T13:34:45.000Z</time>
      </trkpt>
      <trkpt lat="45.81602" lon="4.71911">
        <ele>346.69336</ele>
        <time>2023-05-14T13:34:46.000Z</time>
      </trkpt>
      <trkpt lat="45.81605" lon="4.71917">
        <ele>346.60172</ele>
        <time>2023-05-14T13:34:47.000Z</time>
      </trkpt>
      <trkpt lat="45.81608" lon="4.71923">
        <ele>346.34531</ele>
        <time>2023-05-14T13:34:48.000Z</time>
      </trkpt>
      <trkpt lat="45.81612" lon="4.7193">
        <ele>346.1076</ele>
        <time>2023-05-14T13:34:49.000Z</time>
      </trkpt>
      <trkpt lat="45.81614" lon="4.71937">
        <ele>345.89001</ele>
        <time>2023-05-14T13:34:50.000Z</time>
      </trkpt>
      <trkpt lat="45.81617" lon="4.71945">
        <ele>345.67157</ele>
        <time>2023-05-14T13:34:51.000Z</time>
      </trkpt>
      <trkpt lat="45.81621" lon="4.71951">
        <ele>345.4458</ele>
        <time>2023-05-14T13:34:52.000Z</time>
      </trkpt>
      <trkpt lat="45.81625" lon="4.71959">
        <ele>345.22958</ele>
        <time>2023-05-14T13:34:53.000Z</time>
      </trkpt>
      <trkpt lat="45.81629" lon="4.71967">
        <ele>345.03348</ele>
        <time>2023-05-14T13:34:54.000Z</time>
      </trkpt>
      <trkpt lat="45.81633" lon="4.71974">
        <ele>344.86676</ele>
        <time>2023-05-14T13:34:55.000Z</time>
      </trkpt>
      <trkpt lat="45.81637" lon="4.71981">
        <ele>344.68604</ele>
        <time>2023-05-14T13:34:56.000Z</time>
      </trkpt>
      <trkpt lat="45.81641" lon="4.71988">
        <ele>344.4823</ele>
        <time>2023-05-14T13:34:57.000Z</time>
      </trkpt>
      <trkpt lat="45.81644" lon="4.71995">
        <ele>344.24399</ele>
        <time>2023-05-14T13:34:58.000Z</time>
      </trkpt>
      <trkpt lat="45.81647" lon="4.72003">
        <ele>344.11319</ele>
        <time>2023-05-14T13:34:59.000Z</time>
      </trkpt>
      <trkpt lat="45.81651" lon="4.72009">
        <ele>344.01196</ele>
        <time>2023-05-14T13:35:00.000Z</time>
      </trkpt>
      <trkpt lat="45.81654" lon="4.72015">
        <ele>343.91473</ele>
        <time>2023-05-14T13:35:01.000Z</time>
      </trkpt>
      <trkpt lat="45.81656" lon="4.72023">
        <ele>343.80026</ele>
        <time>2023-05-14T13:35:02.000Z</time>
      </trkpt>
      <trkpt lat="45.8166" lon="4.72029">
        <ele>343.6622</ele>
        <time>2023-05-14T13:35:03.000Z</time>
      </trkpt>
      <trkpt lat="45.81663" lon="4.72036">
        <ele>343.54477</ele>
        <time>2023-05-14T13:35:04.000Z</time>
      </trkpt>
      <trkpt lat="45.81666" lon="4.72043">
        <ele>343.4549</ele>
        <time>2023-05-14T13:35:05.000Z</time>
      </trkpt>
      <trkpt lat="45.81669" lon="4.72049">
        <ele>343.37305</ele>
        <time>2023-05-14T13:35:06.000Z</time>
      </trkpt>
      <trkpt lat="45.81672" lon="4.72055">
        <ele>343.29672</ele>
        <time>2023-05-14T13:35:07.000Z</time>
      </trkpt>
      <trkpt lat="45.81675" lon="4.72062">
        <ele>343.40854</ele>
        <time>2023-05-14T13:35:08.000Z</time>
      </trkpt>
      <trkpt lat="45.81679" lon="4.72069">
        <ele>343.49377</ele>
        <time>2023-05-14T13:35:09.000Z</time>
      </trkpt>
      <trkpt lat="45.81682" lon="4.72075">
        <ele>343.56506</ele>
        <time>2023-05-14T13:35:10.000Z</time>
      </trkpt>
      <trkpt lat="45.81684" lon="4.72081">
        <ele>343.61713</ele>
        <time>2023-05-14T13:35:11.000Z</time>
      </trkpt>
      <trkpt lat="45.81688" lon="4.72087">
        <ele>343.6369</ele>
        <time>2023-05-14T13:35:12.000Z</time>
      </trkpt>
      <trkpt lat="45.81691" lon="4.72093">
        <ele>343.65762</ele>
        <time>2023-05-14T13:35:13.000Z</time>
      </trkpt>
      <trkpt lat="45.81694" lon="4.72099">
        <ele>343.66705</ele>
        <time>2023-05-14T13:35:14.000Z</time>
      </trkpt>
      <trkpt lat="45.81697" lon="4.72106">
        <ele>343.68652</ele>
        <time>2023-05-14T13:35:15.000Z</time>
      </trkpt>
      <trkpt lat="45.817" lon="4.72113">
        <ele>343.69977</ele>
        <time>2023-05-14T13:35:16.000Z</time>
      </trkpt>
      <trkpt lat="45.81703" lon="4.72119">
        <ele>343.7204</ele>
        <time>2023-05-14T13:35:17.000Z</time>
      </trkpt>
      <trkpt lat="45.81706" lon="4.72126">
        <ele>343.74097</ele>
        <time>2023-05-14T13:35:18.000Z</time>
      </trkpt>
      <trkpt lat="45.81709" lon="4.72132">
        <ele>343.68286</ele>
        <time>2023-05-14T13:35:19.000Z</time>
      </trkpt>
      <trkpt lat="45.81712" lon="4.72139">
        <ele>343.02383</ele>
        <time>2023-05-14T13:35:20.000Z</time>
      </trkpt>
      <trkpt lat="45.81716" lon="4.72146">
        <ele>342.3215</ele>
        <time>2023-05-14T13:35:21.000Z</time>
      </trkpt>
      <trkpt lat="45.81719" lon="4.72152">
        <ele>341.63803</ele>
        <time>2023-05-14T13:35:22.000Z</time>
      </trkpt>
      <trkpt lat="45.81722" lon="4.72158">
        <ele>341.27286</ele>
        <time>2023-05-14T13:35:23.000Z</time>
      </trkpt>
      <trkpt lat="45.81726" lon="4.72165">
        <ele>340.79684</ele>
        <time>2023-05-14T13:35:24.000Z</time>
      </trkpt>
      <trkpt lat="45.81728" lon="4.72173">
        <ele>340.25293</ele>
        <time>2023-05-14T13:35:25.000Z</time>
      </trkpt>
      <trkpt lat="45.81731" lon="4.72179">
        <ele>339.69742</ele>
        <time>2023-05-14T13:35:26.000Z</time>
      </trkpt>
      <trkpt lat="45.81733" lon="4.72187">
        <ele>339.13239</ele>
        <time>2023-05-14T13:35:27.000Z</time>
      </trkpt>
      <trkpt lat="45.81736" lon="4.72194">
        <ele>338.53009</ele>
        <time>2023-05-14T13:35:28.000Z</time>
      </trkpt>
      <trkpt lat="45.81739" lon="4.72203">
        <ele>337.91815</ele>
        <time>2023-05-14T13:35:29.000Z</time>
      </trkpt>
      <trkpt lat="45.81741" lon="4.72212">
        <ele>337.29044</ele>
        <time>2023-05-14T13:35:30.000Z</time>
      </trkpt>
      <trkpt lat="45.81744" lon="4.72221">
        <ele>336.68085</ele>
        <time>2023-05-14T13:35:31.000Z</time>
      </trkpt>
      <trkpt lat="45.81748" lon="4.7223">
        <ele>336.08643</ele>
        <time>2023-05-14T13:35:32.000Z</time>
      </trkpt>
      <trkpt lat="45.81751" lon="4.7224">
        <ele>335.47726</ele>
        <time>2023-05-14T13:35:33.000Z</time>
      </trkpt>
      <trkpt lat="45.81753" lon="4.7225">
        <ele>334.83597</ele>
        <time>2023-05-14T13:35:34.000Z</time>
      </trkpt>
      <trkpt lat="45.81756" lon="4.7226">
        <ele>334.18265</ele>
        <time>2023-05-14T13:35:35.000Z</time>
      </trkpt>
      <trkpt lat="45.81758" lon="4.72269">
        <ele>333.5752</ele>
        <time>2023-05-14T13:35:36.000Z</time>
      </trkpt>
      <trkpt lat="45.81761" lon="4.72279">
        <ele>332.98514</ele>
        <time>2023-05-14T13:35:37.000Z</time>
      </trkpt>
      <trkpt lat="45.81764" lon="4.72289">
        <ele>332.42154</ele>
        <time>2023-05-14T13:35:38.000Z</time>
      </trkpt>
      <trkpt lat="45.81766" lon="4.723">
        <ele>331.85306</ele>
        <time>2023-05-14T13:35:39.000Z</time>
      </trkpt>
      <trkpt lat="45.81768" lon="4.72309">
        <ele>331.86713</ele>
        <time>2023-05-14T13:35:40.000Z</time>
      </trkpt>
      <trkpt lat="45.81771" lon="4.72319">
        <ele>331.92944</ele>
        <time>2023-05-14T13:35:41.000Z</time>
      </trkpt>
      <trkpt lat="45.81774" lon="4.7233">
        <ele>331.96606</ele>
        <time>2023-05-14T13:35:42.000Z</time>
      </trkpt>
      <trkpt lat="45.81777" lon="4.7234">
        <ele>331.67673</ele>
        <time>2023-05-14T13:35:43.000Z</time>
      </trkpt>
      <trkpt lat="45.8178" lon="4.72352">
        <ele>331.46869</ele>
        <time>2023-05-14T13:35:44.000Z</time>
      </trkpt>
      <trkpt lat="45.81782" lon="4.72362">
        <ele>331.30695</ele>
        <time>2023-05-14T13:35:45.000Z</time>
      </trkpt>
      <trkpt lat="45.81784" lon="4.72372">
        <ele>331.02289</ele>
        <time>2023-05-14T13:35:46.000Z</time>
      </trkpt>
      <trkpt lat="45.81788" lon="4.72382">
        <ele>330.75131</ele>
        <time>2023-05-14T13:35:47.000Z</time>
      </trkpt>
      <trkpt lat="45.81791" lon="4.72392">
        <ele>330.42465</ele>
        <time>2023-05-14T13:35:48.000Z</time>
      </trkpt>
      <trkpt lat="45.81794" lon="4.72401">
        <ele>330.07379</ele>
        <time>2023-05-14T13:35:49.000Z</time>
      </trkpt>
      <trkpt lat="45.81797" lon="4.7241">
        <ele>330.01346</ele>
        <time>2023-05-14T13:35:50.000Z</time>
      </trkpt>
      <trkpt lat="45.818" lon="4.72418">
        <ele>329.88559</ele>
        <time>2023-05-14T13:35:51.000Z</time>
      </trkpt>
      <trkpt lat="45.81803" lon="4.72427">
        <ele>329.77628</ele>
        <time>2023-05-14T13:35:52.000Z</time>
      </trkpt>
      <trkpt lat="45.81806" lon="4.72437">
        <ele>329.64737</ele>
        <time>2023-05-14T13:35:53.000Z</time>
      </trkpt>
      <trkpt lat="45.81807" lon="4.72446">
        <ele>329.55963</ele>
        <time>2023-05-14T13:35:54.000Z</time>
      </trkpt>
      <trkpt lat="45.81807" lon="4.72455">
        <ele>329.44193</ele>
        <time>2023-05-14T13:35:55.000Z</time>
      </trkpt>
      <trkpt lat="45.81804" lon="4.72465">
        <ele>329.08984</ele>
        <time>2023-05-14T13:35:56.000Z</time>
      </trkpt>
      <trkpt lat="45.818" lon="4.72472">
        <ele>328.67804</ele>
        <time>2023-05-14T13:35:57.000Z</time>
      </trkpt>
      <trkpt lat="45.81795" lon="4.72479">
        <ele>328.55276</ele>
        <time>2023-05-14T13:35:58.000Z</time>
      </trkpt>
      <trkpt lat="45.81789" lon="4.72485">
        <ele>328.42691</ele>
        <time>2023-05-14T13:35:59.000Z</time>
      </trkpt>
      <trkpt lat="45.81783" lon="4.7249">
        <ele>328.3194</ele>
        <time>2023-05-14T13:36:00.000Z</time>
      </trkpt>
      <trkpt lat="45.81777" lon="4.72497">
        <ele>328.19327</ele>
        <time>2023-05-14T13:36:01.000Z</time>
      </trkpt>
      <trkpt lat="45.81773" lon="4.72505">
        <ele>328.09869</ele>
        <time>2023-05-14T13:36:02.000Z</time>
      </trkpt>
      <trkpt lat="45.81769" lon="4.72515">
        <ele>327.98413</ele>
        <time>2023-05-14T13:36:03.000Z</time>
      </trkpt>
      <trkpt lat="45.81767" lon="4.72525">
        <ele>327.84564</ele>
        <time>2023-05-14T13:36:04.000Z</time>
      </trkpt>
      <trkpt lat="45.81766" lon="4.72537">
        <ele>327.69522</ele>
        <time>2023-05-14T13:36:05.000Z</time>
      </trkpt>
      <trkpt lat="45.81767" lon="4.72549">
        <ele>327.65353</ele>
        <time>2023-05-14T13:36:06.000Z</time>
      </trkpt>
      <trkpt lat="45.81771" lon="4.7256">
        <ele>327.59894</ele>
        <time>2023-05-14T13:36:07.000Z</time>
      </trkpt>
      <trkpt lat="45.81776" lon="4.72571">
        <ele>327.60074</ele>
        <time>2023-05-14T13:36:08.000Z</time>
      </trkpt>
      <trkpt lat="45.8178" lon="4.72581">
        <ele>327.62457</ele>
        <time>2023-05-14T13:36:09.000Z</time>
      </trkpt>
      <trkpt lat="45.81786" lon="4.72593">
        <ele>327.31085</ele>
        <time>2023-05-14T13:36:10.000Z</time>
      </trkpt>
      <trkpt lat="45.8179" lon="4.72605">
        <ele>327.0582</ele>
        <time>2023-05-14T13:36:11.000Z</time>
      </trkpt>
      <trkpt lat="45.81791" lon="4.72617">
        <ele>326.80829</ele>
        <time>2023-05-14T13:36:12.000Z</time>
      </trkpt>
      <trkpt lat="45.81791" lon="4.72629">
        <ele>326.58237</ele>
        <time>2023-05-14T13:36:13.000Z</time>
      </trkpt>
      <trkpt lat="45.81791" lon="4.72639">
        <ele>326.32373</ele>
        <time>2023-05-14T13:36:14.000Z</time>
      </trkpt>
      <trkpt lat="45.81789" lon="4.7265">
        <ele>326.71613</ele>
        <time>2023-05-14T13:36:15.000Z</time>
      </trkpt>
      <trkpt lat="45.81786" lon="4.72659">
        <ele>327.34476</ele>
        <time>2023-05-14T13:36:16.000Z</time>
      </trkpt>
      <trkpt lat="45.81786" lon="4.72668">
        <ele>327.85165</ele>
        <time>2023-05-14T13:36:17.000Z</time>
      </trkpt>
      <trkpt lat="45.81784" lon="4.72675">
        <ele>328.10989</ele>
        <time>2023-05-14T13:36:18.000Z</time>
      </trkpt>
      <trkpt lat="45.81783" lon="4.72682">
        <ele>328.37146</ele>
        <time>2023-05-14T13:36:19.000Z</time>
      </trkpt>
      <trkpt lat="45.81782" lon="4.72686">
        <ele>328.6431</ele>
        <time>2023-05-14T13:36:20.000Z</time>
      </trkpt>
      <trkpt lat="45.81783" lon="4.72689">
        <ele>328.94586</ele>
        <time>2023-05-14T13:36:21.000Z</time>
      </trkpt>
      <trkpt lat="45.81782" lon="4.72693">
        <ele>329.24475</ele>
        <time>2023-05-14T13:36:22.000Z</time>
      </trkpt>
      <trkpt lat="45.81782" lon="4.72697">
        <ele>329.57068</ele>
        <time>2023-05-14T13:36:23.000Z</time>
      </trkpt>
      <trkpt lat="45.81782" lon="4.72702">
        <ele>329.92828</ele>
        <time>2023-05-14T13:36:24.000Z</time>
      </trkpt>
      <trkpt lat="45.81782" lon="4.72707">
        <ele>330.28818</ele>
        <time>2023-05-14T13:36:25.000Z</time>
      </trkpt>
      <trkpt lat="45.81781" lon="4.72713">
        <ele>330.69379</ele>
        <time>2023-05-14T13:36:26.000Z</time>
      </trkpt>
      <trkpt lat="45.81782" lon="4.72717">
        <ele>331.09219</ele>
        <time>2023-05-14T13:36:27.000Z</time>
      </trkpt>
      <trkpt lat="45.81782" lon="4.7272">
        <ele>331.50137</ele>
        <time>2023-05-14T13:36:29.000Z</time>
      </trkpt>
      <trkpt lat="45.81782" lon="4.72725">
        <ele>332.07196</ele>
        <time>2023-05-14T13:36:31.000Z</time>
      </trkpt>
      <trkpt lat="45.81781" lon="4.72729">
        <ele>332.70731</ele>
        <time>2023-05-14T13:36:32.000Z</time>
      </trkpt>
      <trkpt lat="45.81778" lon="4.72732">
        <ele>333.3429</ele>
        <time>2023-05-14T13:36:33.000Z</time>
      </trkpt>
      <trkpt lat="45.81775" lon="4.72738">
        <ele>333.97061</ele>
        <time>2023-05-14T13:36:34.000Z</time>
      </trkpt>
      <trkpt lat="45.81772" lon="4.72744">
        <ele>334.60498</ele>
        <time>2023-05-14T13:36:35.000Z</time>
      </trkpt>
      <trkpt lat="45.81768" lon="4.72751">
        <ele>335.12091</ele>
        <time>2023-05-14T13:36:36.000Z</time>
      </trkpt>
      <trkpt lat="45.81764" lon="4.72758">
        <ele>334.99347</ele>
        <time>2023-05-14T13:36:37.000Z</time>
      </trkpt>
      <trkpt lat="45.8176" lon="4.72765">
        <ele>334.82568</ele>
        <time>2023-05-14T13:36:38.000Z</time>
      </trkpt>
      <trkpt lat="45.81756" lon="4.72773">
        <ele>334.84589</ele>
        <time>2023-05-14T13:36:39.000Z</time>
      </trkpt>
      <trkpt lat="45.81752" lon="4.72781">
        <ele>334.85147</ele>
        <time>2023-05-14T13:36:40.000Z</time>
      </trkpt>
      <trkpt lat="45.81749" lon="4.72789">
        <ele>334.83771</ele>
        <time>2023-05-14T13:36:41.000Z</time>
      </trkpt>
      <trkpt lat="45.81746" lon="4.72797">
        <ele>334.8074</ele>
        <time>2023-05-14T13:36:42.000Z</time>
      </trkpt>
      <trkpt lat="45.81742" lon="4.72806">
        <ele>334.76593</ele>
        <time>2023-05-14T13:36:43.000Z</time>
      </trkpt>
      <trkpt lat="45.81739" lon="4.72814">
        <ele>334.71283</ele>
        <time>2023-05-14T13:36:44.000Z</time>
      </trkpt>
      <trkpt lat="45.81736" lon="4.72823">
        <ele>334.68637</ele>
        <time>2023-05-14T13:36:45.000Z</time>
      </trkpt>
      <trkpt lat="45.81732" lon="4.7283">
        <ele>334.65262</ele>
        <time>2023-05-14T13:36:46.000Z</time>
      </trkpt>
      <trkpt lat="45.81729" lon="4.72838">
        <ele>334.64276</ele>
        <time>2023-05-14T13:36:47.000Z</time>
      </trkpt>
      <trkpt lat="45.81726" lon="4.72846">
        <ele>334.63043</ele>
        <time>2023-05-14T13:36:48.000Z</time>
      </trkpt>
      <trkpt lat="45.81722" lon="4.72854">
        <ele>334.60715</ele>
        <time>2023-05-14T13:36:49.000Z</time>
      </trkpt>
      <trkpt lat="45.81719" lon="4.72862">
        <ele>334.74249</ele>
        <time>2023-05-14T13:36:50.000Z</time>
      </trkpt>
      <trkpt lat="45.81716" lon="4.72871">
        <ele>334.71472</ele>
        <time>2023-05-14T13:36:51.000Z</time>
      </trkpt>
      <trkpt lat="45.81714" lon="4.72875">
        <ele>334.63556</ele>
        <time>2023-05-14T13:36:52.000Z</time>
      </trkpt>
      <trkpt lat="45.81712" lon="4.72878">
        <ele>334.5639</ele>
        <time>2023-05-14T13:36:53.000Z</time>
      </trkpt>
      <trkpt lat="45.81709" lon="4.7288">
        <ele>334.48929</ele>
        <time>2023-05-14T13:36:54.000Z</time>
      </trkpt>
      <trkpt lat="45.81708" lon="4.72881">
        <ele>334.4274</ele>
        <time>2023-05-14T13:36:55.000Z</time>
      </trkpt>
      <trkpt lat="45.81707" lon="4.72886">
        <ele>334.38773</ele>
        <time>2023-05-14T13:36:57.000Z</time>
      </trkpt>
      <trkpt lat="45.81707" lon="4.72889">
        <ele>334.35248</ele>
        <time>2023-05-14T13:36:58.000Z</time>
      </trkpt>
      <trkpt lat="45.8171" lon="4.72892">
        <ele>334.63309</ele>
        <time>2023-05-14T13:36:59.000Z</time>
      </trkpt>
      <trkpt lat="45.81713" lon="4.72892">
        <ele>334.69681</ele>
        <time>2023-05-14T13:37:00.000Z</time>
      </trkpt>
      <trkpt lat="45.81716" lon="4.72892">
        <ele>334.79758</ele>
        <time>2023-05-14T13:37:01.000Z</time>
      </trkpt>
      <trkpt lat="45.8172" lon="4.72893">
        <ele>334.88742</ele>
        <time>2023-05-14T13:37:02.000Z</time>
      </trkpt>
      <trkpt lat="45.81724" lon="4.72893">
        <ele>334.98392</ele>
        <time>2023-05-14T13:37:03.000Z</time>
      </trkpt>
      <trkpt lat="45.81728" lon="4.72893">
        <ele>335.08185</ele>
        <time>2023-05-14T13:37:04.000Z</time>
      </trkpt>
      <trkpt lat="45.81731" lon="4.72891">
        <ele>335.20288</ele>
        <time>2023-05-14T13:37:05.000Z</time>
      </trkpt>
      <trkpt lat="45.81736" lon="4.7289">
        <ele>335.25891</ele>
        <time>2023-05-14T13:37:06.000Z</time>
      </trkpt>
      <trkpt lat="45.81739" lon="4.72891">
        <ele>335.27832</ele>
        <time>2023-05-14T13:37:07.000Z</time>
      </trkpt>
      <trkpt lat="45.81745" lon="4.72891">
        <ele>335.30682</ele>
        <time>2023-05-14T13:37:08.000Z</time>
      </trkpt>
      <trkpt lat="45.8175" lon="4.7289">
        <ele>335.33173</ele>
        <time>2023-05-14T13:37:09.000Z</time>
      </trkpt>
      <trkpt lat="45.81756" lon="4.72889">
        <ele>335.37753</ele>
        <time>2023-05-14T13:37:10.000Z</time>
      </trkpt>
      <trkpt lat="45.81761" lon="4.72889">
        <ele>335.27521</ele>
        <time>2023-05-14T13:37:11.000Z</time>
      </trkpt>
      <trkpt lat="45.81766" lon="4.72888">
        <ele>335.18814</ele>
        <time>2023-05-14T13:37:12.000Z</time>
      </trkpt>
      <trkpt lat="45.81772" lon="4.72887">
        <ele>335.15891</ele>
        <time>2023-05-14T13:37:13.000Z</time>
      </trkpt>
      <trkpt lat="45.81778" lon="4.72886">
        <ele>335.11856</ele>
        <time>2023-05-14T13:37:14.000Z</time>
      </trkpt>
      <trkpt lat="45.81783" lon="4.72886">
        <ele>335.07309</ele>
        <time>2023-05-14T13:37:15.000Z</time>
      </trkpt>
      <trkpt lat="45.81789" lon="4.72886">
        <ele>335.01913</ele>
        <time>2023-05-14T13:37:16.000Z</time>
      </trkpt>
      <trkpt lat="45.81795" lon="4.72885">
        <ele>335.08823</ele>
        <time>2023-05-14T13:37:17.000Z</time>
      </trkpt>
      <trkpt lat="45.81801" lon="4.72884">
        <ele>335.18637</ele>
        <time>2023-05-14T13:37:18.000Z</time>
      </trkpt>
      <trkpt lat="45.81807" lon="4.72883">
        <ele>335.12787</ele>
        <time>2023-05-14T13:37:19.000Z</time>
      </trkpt>
      <trkpt lat="45.81813" lon="4.72883">
        <ele>335.27246</ele>
        <time>2023-05-14T13:37:20.000Z</time>
      </trkpt>
      <trkpt lat="45.81819" lon="4.72882">
        <ele>335.38727</ele>
        <time>2023-05-14T13:37:21.000Z</time>
      </trkpt>
      <trkpt lat="45.81826" lon="4.7288">
        <ele>335.54773</ele>
        <time>2023-05-14T13:37:22.000Z</time>
      </trkpt>
      <trkpt lat="45.81831" lon="4.7288">
        <ele>335.51962</ele>
        <time>2023-05-14T13:37:23.000Z</time>
      </trkpt>
      <trkpt lat="45.81838" lon="4.72879">
        <ele>335.53107</ele>
        <time>2023-05-14T13:37:24.000Z</time>
      </trkpt>
      <trkpt lat="45.81844" lon="4.72878">
        <ele>335.49969</ele>
        <time>2023-05-14T13:37:25.000Z</time>
      </trkpt>
      <trkpt lat="45.8185" lon="4.72877">
        <ele>335.52679</ele>
        <time>2023-05-14T13:37:26.000Z</time>
      </trkpt>
      <trkpt lat="45.81856" lon="4.72877">
        <ele>335.60858</ele>
        <time>2023-05-14T13:37:27.000Z</time>
      </trkpt>
      <trkpt lat="45.81863" lon="4.72876">
        <ele>335.0365</ele>
        <time>2023-05-14T13:37:28.000Z</time>
      </trkpt>
      <trkpt lat="45.81868" lon="4.72875">
        <ele>334.45343</ele>
        <time>2023-05-14T13:37:29.000Z</time>
      </trkpt>
      <trkpt lat="45.81875" lon="4.72874">
        <ele>333.87143</ele>
        <time>2023-05-14T13:37:30.000Z</time>
      </trkpt>
      <trkpt lat="45.81882" lon="4.72874">
        <ele>333.29645</ele>
        <time>2023-05-14T13:37:31.000Z</time>
      </trkpt>
      <trkpt lat="45.81888" lon="4.72872">
        <ele>332.71793</ele>
        <time>2023-05-14T13:37:32.000Z</time>
      </trkpt>
      <trkpt lat="45.81894" lon="4.72872">
        <ele>331.96478</ele>
        <time>2023-05-14T13:37:33.000Z</time>
      </trkpt>
      <trkpt lat="45.819" lon="4.72871">
        <ele>331.46423</ele>
        <time>2023-05-14T13:37:34.000Z</time>
      </trkpt>
      <trkpt lat="45.81906" lon="4.72871">
        <ele>331.26364</ele>
        <time>2023-05-14T13:37:35.000Z</time>
      </trkpt>
      <trkpt lat="45.81911" lon="4.7287">
        <ele>331.05597</ele>
        <time>2023-05-14T13:37:36.000Z</time>
      </trkpt>
      <trkpt lat="45.81917" lon="4.72869">
        <ele>330.8663</ele>
        <time>2023-05-14T13:37:37.000Z</time>
      </trkpt>
      <trkpt lat="45.81924" lon="4.72869">
        <ele>330.62115</ele>
        <time>2023-05-14T13:37:38.000Z</time>
      </trkpt>
      <trkpt lat="45.8193" lon="4.72868">
        <ele>330.26666</ele>
        <time>2023-05-14T13:37:39.000Z</time>
      </trkpt>
      <trkpt lat="45.81936" lon="4.72867">
        <ele>329.9241</ele>
        <time>2023-05-14T13:37:40.000Z</time>
      </trkpt>
      <trkpt lat="45.81944" lon="4.72865">
        <ele>329.54053</ele>
        <time>2023-05-14T13:37:41.000Z</time>
      </trkpt>
      <trkpt lat="45.8195" lon="4.72864">
        <ele>329.15494</ele>
        <time>2023-05-14T13:37:42.000Z</time>
      </trkpt>
      <trkpt lat="45.81956" lon="4.72863">
        <ele>328.97211</ele>
        <time>2023-05-14T13:37:43.000Z</time>
      </trkpt>
      <trkpt lat="45.81962" lon="4.72863">
        <ele>328.74542</ele>
        <time>2023-05-14T13:37:44.000Z</time>
      </trkpt>
      <trkpt lat="45.81968" lon="4.72862">
        <ele>328.53302</ele>
        <time>2023-05-14T13:37:45.000Z</time>
      </trkpt>
      <trkpt lat="45.81974" lon="4.72862">
        <ele>327.97601</ele>
        <time>2023-05-14T13:37:46.000Z</time>
      </trkpt>
      <trkpt lat="45.8198" lon="4.7286">
        <ele>327.42136</ele>
        <time>2023-05-14T13:37:47.000Z</time>
      </trkpt>
      <trkpt lat="45.81986" lon="4.72859">
        <ele>327.52655</ele>
        <time>2023-05-14T13:37:48.000Z</time>
      </trkpt>
      <trkpt lat="45.81993" lon="4.72858">
        <ele>327.638</ele>
        <time>2023-05-14T13:37:49.000Z</time>
      </trkpt>
      <trkpt lat="45.81999" lon="4.72858">
        <ele>327.72375</ele>
        <time>2023-05-14T13:37:50.000Z</time>
      </trkpt>
      <trkpt lat="45.82005" lon="4.72857">
        <ele>327.78882</ele>
        <time>2023-05-14T13:37:51.000Z</time>
      </trkpt>
      <trkpt lat="45.82011" lon="4.72855">
        <ele>327.8479</ele>
        <time>2023-05-14T13:37:52.000Z</time>
      </trkpt>
      <trkpt lat="45.82017" lon="4.72854">
        <ele>328.09506</ele>
        <time>2023-05-14T13:37:53.000Z</time>
      </trkpt>
      <trkpt lat="45.82023" lon="4.72853">
        <ele>328.09662</ele>
        <time>2023-05-14T13:37:54.000Z</time>
      </trkpt>
      <trkpt lat="45.82028" lon="4.72851">
        <ele>327.82205</ele>
        <time>2023-05-14T13:37:55.000Z</time>
      </trkpt>
      <trkpt lat="45.82035" lon="4.72851">
        <ele>327.42691</ele>
        <time>2023-05-14T13:37:56.000Z</time>
      </trkpt>
      <trkpt lat="45.82041" lon="4.7285">
        <ele>327.01324</ele>
        <time>2023-05-14T13:37:57.000Z</time>
      </trkpt>
      <trkpt lat="45.82047" lon="4.72849">
        <ele>326.61639</ele>
        <time>2023-05-14T13:37:58.000Z</time>
      </trkpt>
      <trkpt lat="45.82052" lon="4.72848">
        <ele>326.13028</ele>
        <time>2023-05-14T13:37:59.000Z</time>
      </trkpt>
      <trkpt lat="45.82058" lon="4.72849">
        <ele>325.61832</ele>
        <time>2023-05-14T13:38:00.000Z</time>
      </trkpt>
      <trkpt lat="45.82064" lon="4.7285">
        <ele>325.37708</ele>
        <time>2023-05-14T13:38:01.000Z</time>
      </trkpt>
      <trkpt lat="45.82069" lon="4.72851">
        <ele>325.10028</ele>
        <time>2023-05-14T13:38:02.000Z</time>
      </trkpt>
      <trkpt lat="45.82074" lon="4.72853">
        <ele>324.83115</ele>
        <time>2023-05-14T13:38:03.000Z</time>
      </trkpt>
      <trkpt lat="45.82078" lon="4.72857">
        <ele>324.58014</ele>
        <time>2023-05-14T13:38:04.000Z</time>
      </trkpt>
      <trkpt lat="45.82082" lon="4.72862">
        <ele>324.38348</ele>
        <time>2023-05-14T13:38:05.000Z</time>
      </trkpt>
      <trkpt lat="45.82086" lon="4.72867">
        <ele>324.53012</ele>
        <time>2023-05-14T13:38:06.000Z</time>
      </trkpt>
      <trkpt lat="45.82089" lon="4.72872">
        <ele>324.69299</ele>
        <time>2023-05-14T13:38:07.000Z</time>
      </trkpt>
      <trkpt lat="45.82094" lon="4.72877">
        <ele>324.8418</ele>
        <time>2023-05-14T13:38:08.000Z</time>
      </trkpt>
      <trkpt lat="45.82098" lon="4.72881">
        <ele>324.9859</ele>
        <time>2023-05-14T13:38:09.000Z</time>
      </trkpt>
      <trkpt lat="45.82102" lon="4.72887">
        <ele>325.15289</ele>
        <time>2023-05-14T13:38:10.000Z</time>
      </trkpt>
      <trkpt lat="45.82106" lon="4.72892">
        <ele>325.33087</ele>
        <time>2023-05-14T13:38:11.000Z</time>
      </trkpt>
      <trkpt lat="45.8211" lon="4.72898">
        <ele>325.50449</ele>
        <time>2023-05-14T13:38:12.000Z</time>
      </trkpt>
      <trkpt lat="45.82115" lon="4.72903">
        <ele>325.63867</ele>
        <time>2023-05-14T13:38:13.000Z</time>
      </trkpt>
      <trkpt lat="45.82119" lon="4.72909">
        <ele>325.78082</ele>
        <time>2023-05-14T13:38:14.000Z</time>
      </trkpt>
      <trkpt lat="45.82124" lon="4.72916">
        <ele>325.88559</ele>
        <time>2023-05-14T13:38:15.000Z</time>
      </trkpt>
      <trkpt lat="45.82128" lon="4.72921">
        <ele>326.1098</ele>
        <time>2023-05-14T13:38:16.000Z</time>
      </trkpt>
      <trkpt lat="45.82133" lon="4.72928">
        <ele>326.33255</ele>
        <time>2023-05-14T13:38:17.000Z</time>
      </trkpt>
      <trkpt lat="45.82137" lon="4.72934">
        <ele>326.57333</ele>
        <time>2023-05-14T13:38:18.000Z</time>
      </trkpt>
      <trkpt lat="45.82142" lon="4.72941">
        <ele>326.79095</ele>
        <time>2023-05-14T13:38:19.000Z</time>
      </trkpt>
      <trkpt lat="45.82146" lon="4.72947">
        <ele>327.0195</ele>
        <time>2023-05-14T13:38:20.000Z</time>
      </trkpt>
      <trkpt lat="45.8215" lon="4.72955">
        <ele>326.91107</ele>
        <time>2023-05-14T13:38:21.000Z</time>
      </trkpt>
      <trkpt lat="45.82153" lon="4.72962">
        <ele>326.7753</ele>
        <time>2023-05-14T13:38:22.000Z</time>
      </trkpt>
      <trkpt lat="45.82157" lon="4.7297">
        <ele>326.89438</ele>
        <time>2023-05-14T13:38:23.000Z</time>
      </trkpt>
      <trkpt lat="45.8216" lon="4.72977">
        <ele>326.92892</ele>
        <time>2023-05-14T13:38:24.000Z</time>
      </trkpt>
      <trkpt lat="45.82164" lon="4.72985">
        <ele>326.91476</ele>
        <time>2023-05-14T13:38:25.000Z</time>
      </trkpt>
      <trkpt lat="45.82168" lon="4.72993">
        <ele>326.90152</ele>
        <time>2023-05-14T13:38:26.000Z</time>
      </trkpt>
      <trkpt lat="45.82171" lon="4.73001">
        <ele>326.85471</ele>
        <time>2023-05-14T13:38:27.000Z</time>
      </trkpt>
      <trkpt lat="45.82175" lon="4.7301">
        <ele>326.78864</ele>
        <time>2023-05-14T13:38:28.000Z</time>
      </trkpt>
      <trkpt lat="45.82178" lon="4.7302">
        <ele>326.72479</ele>
        <time>2023-05-14T13:38:29.000Z</time>
      </trkpt>
      <trkpt lat="45.82182" lon="4.73029">
        <ele>326.64691</ele>
        <time>2023-05-14T13:38:30.000Z</time>
      </trkpt>
      <trkpt lat="45.82186" lon="4.73038">
        <ele>326.56598</ele>
        <time>2023-05-14T13:38:31.000Z</time>
      </trkpt>
      <trkpt lat="45.82189" lon="4.73049">
        <ele>326.27789</ele>
        <time>2023-05-14T13:38:32.000Z</time>
      </trkpt>
      <trkpt lat="45.82193" lon="4.73059">
        <ele>326.61798</ele>
        <time>2023-05-14T13:38:33.000Z</time>
      </trkpt>
      <trkpt lat="45.82197" lon="4.7307">
        <ele>326.91409</ele>
        <time>2023-05-14T13:38:34.000Z</time>
      </trkpt>
      <trkpt lat="45.82201" lon="4.73081">
        <ele>327.20911</ele>
        <time>2023-05-14T13:38:35.000Z</time>
      </trkpt>
      <trkpt lat="45.82205" lon="4.73092">
        <ele>327.51663</ele>
        <time>2023-05-14T13:38:36.000Z</time>
      </trkpt>
      <trkpt lat="45.82209" lon="4.73101">
        <ele>327.79718</ele>
        <time>2023-05-14T13:38:37.000Z</time>
      </trkpt>
      <trkpt lat="45.82213" lon="4.7311">
        <ele>328.08206</ele>
        <time>2023-05-14T13:38:38.000Z</time>
      </trkpt>
      <trkpt lat="45.82217" lon="4.73117">
        <ele>328.49155</ele>
        <time>2023-05-14T13:38:39.000Z</time>
      </trkpt>
      <trkpt lat="45.82221" lon="4.73124">
        <ele>328.93433</ele>
        <time>2023-05-14T13:38:40.000Z</time>
      </trkpt>
      <trkpt lat="45.82225" lon="4.73131">
        <ele>329.4975</ele>
        <time>2023-05-14T13:38:41.000Z</time>
      </trkpt>
      <trkpt lat="45.82228" lon="4.73137">
        <ele>330.43561</ele>
        <time>2023-05-14T13:38:42.000Z</time>
      </trkpt>
      <trkpt lat="45.82231" lon="4.73142">
        <ele>330.99796</ele>
        <time>2023-05-14T13:38:43.000Z</time>
      </trkpt>
      <trkpt lat="45.82234" lon="4.73147">
        <ele>331.65701</ele>
        <time>2023-05-14T13:38:44.000Z</time>
      </trkpt>
      <trkpt lat="45.82236" lon="4.73152">
        <ele>332.34613</ele>
        <time>2023-05-14T13:38:45.000Z</time>
      </trkpt>
      <trkpt lat="45.82239" lon="4.73156">
        <ele>333.04599</ele>
        <time>2023-05-14T13:38:46.000Z</time>
      </trkpt>
      <trkpt lat="45.82242" lon="4.7316">
        <ele>333.76785</ele>
        <time>2023-05-14T13:38:47.000Z</time>
      </trkpt>
      <trkpt lat="45.82244" lon="4.73165">
        <ele>334.5264</ele>
        <time>2023-05-14T13:38:48.000Z</time>
      </trkpt>
      <trkpt lat="45.82246" lon="4.73172">
        <ele>335.30865</ele>
        <time>2023-05-14T13:38:49.000Z</time>
      </trkpt>
      <trkpt lat="45.82249" lon="4.73177">
        <ele>336.12823</ele>
        <time>2023-05-14T13:38:50.000Z</time>
      </trkpt>
      <trkpt lat="45.82251" lon="4.73183">
        <ele>336.9823</ele>
        <time>2023-05-14T13:38:51.000Z</time>
      </trkpt>
      <trkpt lat="45.82254" lon="4.73188">
        <ele>338.06219</ele>
        <time>2023-05-14T13:38:52.000Z</time>
      </trkpt>
      <trkpt lat="45.82256" lon="4.73193">
        <ele>338.53021</ele>
        <time>2023-05-14T13:38:53.000Z</time>
      </trkpt>
      <trkpt lat="45.82258" lon="4.73198">
        <ele>339.0502</ele>
        <time>2023-05-14T13:38:54.000Z</time>
      </trkpt>
      <trkpt lat="45.82259" lon="4.73202">
        <ele>339.59537</ele>
        <time>2023-05-14T13:38:55.000Z</time>
      </trkpt>
      <trkpt lat="45.82262" lon="4.73208">
        <ele>339.55267</ele>
        <time>2023-05-14T13:38:56.000Z</time>
      </trkpt>
      <trkpt lat="45.82262" lon="4.73213">
        <ele>339.5434</ele>
        <time>2023-05-14T13:38:57.000Z</time>
      </trkpt>
      <trkpt lat="45.82264" lon="4.73219">
        <ele>339.57135</ele>
        <time>2023-05-14T13:38:58.000Z</time>
      </trkpt>
      <trkpt lat="45.82266" lon="4.73225">
        <ele>339.5979</ele>
        <time>2023-05-14T13:38:59.000Z</time>
      </trkpt>
      <trkpt lat="45.82268" lon="4.7323">
        <ele>339.61429</ele>
        <time>2023-05-14T13:39:00.000Z</time>
      </trkpt>
      <trkpt lat="45.8227" lon="4.73235">
        <ele>339.60065</ele>
        <time>2023-05-14T13:39:01.000Z</time>
      </trkpt>
      <trkpt lat="45.82272" lon="4.7324">
        <ele>339.26413</ele>
        <time>2023-05-14T13:39:02.000Z</time>
      </trkpt>
      <trkpt lat="45.82274" lon="4.73246">
        <ele>339.01901</ele>
        <time>2023-05-14T13:39:03.000Z</time>
      </trkpt>
      <trkpt lat="45.82277" lon="4.73252">
        <ele>338.73309</ele>
        <time>2023-05-14T13:39:04.000Z</time>
      </trkpt>
      <trkpt lat="45.82279" lon="4.73258">
        <ele>338.44659</ele>
        <time>2023-05-14T13:39:05.000Z</time>
      </trkpt>
      <trkpt lat="45.82282" lon="4.73264">
        <ele>338.16763</ele>
        <time>2023-05-14T13:39:06.000Z</time>
      </trkpt>
      <trkpt lat="45.82284" lon="4.73271">
        <ele>337.66278</ele>
        <time>2023-05-14T13:39:07.000Z</time>
      </trkpt>
      <trkpt lat="45.82286" lon="4.73277">
        <ele>337.14154</ele>
        <time>2023-05-14T13:39:08.000Z</time>
      </trkpt>
      <trkpt lat="45.82287" lon="4.73283">
        <ele>336.6015</ele>
        <time>2023-05-14T13:39:09.000Z</time>
      </trkpt>
      <trkpt lat="45.8229" lon="4.7329">
        <ele>335.98727</ele>
        <time>2023-05-14T13:39:10.000Z</time>
      </trkpt>
      <trkpt lat="45.82291" lon="4.73296">
        <ele>335.67441</ele>
        <time>2023-05-14T13:39:11.000Z</time>
      </trkpt>
      <trkpt lat="45.82293" lon="4.73303">
        <ele>335.28448</ele>
        <time>2023-05-14T13:39:12.000Z</time>
      </trkpt>
      <trkpt lat="45.82295" lon="4.73309">
        <ele>334.89618</ele>
        <time>2023-05-14T13:39:13.000Z</time>
      </trkpt>
      <trkpt lat="45.82297" lon="4.73316">
        <ele>334.49103</ele>
        <time>2023-05-14T13:39:14.000Z</time>
      </trkpt>
      <trkpt lat="45.82299" lon="4.73322">
        <ele>334.07471</ele>
        <time>2023-05-14T13:39:15.000Z</time>
      </trkpt>
      <trkpt lat="45.823" lon="4.73329">
        <ele>334.18381</ele>
        <time>2023-05-14T13:39:16.000Z</time>
      </trkpt>
      <trkpt lat="45.82302" lon="4.73334">
        <ele>334.31174</ele>
        <time>2023-05-14T13:39:17.000Z</time>
      </trkpt>
      <trkpt lat="45.82304" lon="4.73341">
        <ele>334.41269</ele>
        <time>2023-05-14T13:39:18.000Z</time>
      </trkpt>
      <trkpt lat="45.82306" lon="4.73348">
        <ele>334.51303</ele>
        <time>2023-05-14T13:39:19.000Z</time>
      </trkpt>
      <trkpt lat="45.82307" lon="4.73355">
        <ele>334.37128</ele>
        <time>2023-05-14T13:39:20.000Z</time>
      </trkpt>
      <trkpt lat="45.8231" lon="4.73363">
        <ele>334.22299</ele>
        <time>2023-05-14T13:39:21.000Z</time>
      </trkpt>
      <trkpt lat="45.82313" lon="4.7337">
        <ele>334.02313</ele>
        <time>2023-05-14T13:39:22.000Z</time>
      </trkpt>
      <trkpt lat="45.82315" lon="4.73376">
        <ele>334.15106</ele>
        <time>2023-05-14T13:39:23.000Z</time>
      </trkpt>
      <trkpt lat="45.82318" lon="4.73383">
        <ele>334.23242</ele>
        <time>2023-05-14T13:39:24.000Z</time>
      </trkpt>
      <trkpt lat="45.82321" lon="4.73389">
        <ele>334.25983</ele>
        <time>2023-05-14T13:39:25.000Z</time>
      </trkpt>
      <trkpt lat="45.82325" lon="4.73396">
        <ele>334.27008</ele>
        <time>2023-05-14T13:39:26.000Z</time>
      </trkpt>
      <trkpt lat="45.82328" lon="4.73403">
        <ele>334.47333</ele>
        <time>2023-05-14T13:39:27.000Z</time>
      </trkpt>
      <trkpt lat="45.82332" lon="4.7341">
        <ele>334.68387</ele>
        <time>2023-05-14T13:39:28.000Z</time>
      </trkpt>
      <trkpt lat="45.82336" lon="4.73416">
        <ele>334.87296</ele>
        <time>2023-05-14T13:39:29.000Z</time>
      </trkpt>
      <trkpt lat="45.8234" lon="4.73422">
        <ele>335.08359</ele>
        <time>2023-05-14T13:39:30.000Z</time>
      </trkpt>
      <trkpt lat="45.82344" lon="4.73429">
        <ele>334.95038</ele>
        <time>2023-05-14T13:39:31.000Z</time>
      </trkpt>
      <trkpt lat="45.82347" lon="4.73436">
        <ele>334.8609</ele>
        <time>2023-05-14T13:39:32.000Z</time>
      </trkpt>
      <trkpt lat="45.82351" lon="4.73445">
        <ele>334.74982</ele>
        <time>2023-05-14T13:39:33.000Z</time>
      </trkpt>
      <trkpt lat="45.82354" lon="4.73452">
        <ele>334.60382</ele>
        <time>2023-05-14T13:39:34.000Z</time>
      </trkpt>
      <trkpt lat="45.82357" lon="4.73459">
        <ele>334.4549</ele>
        <time>2023-05-14T13:39:35.000Z</time>
      </trkpt>
      <trkpt lat="45.8236" lon="4.73466">
        <ele>334.37115</ele>
        <time>2023-05-14T13:39:36.000Z</time>
      </trkpt>
      <trkpt lat="45.82364" lon="4.73474">
        <ele>334.28046</ele>
        <time>2023-05-14T13:39:37.000Z</time>
      </trkpt>
      <trkpt lat="45.82367" lon="4.73482">
        <ele>334.19186</ele>
        <time>2023-05-14T13:39:38.000Z</time>
      </trkpt>
      <trkpt lat="45.82371" lon="4.7349">
        <ele>334.09219</ele>
        <time>2023-05-14T13:39:39.000Z</time>
      </trkpt>
      <trkpt lat="45.82374" lon="4.73498">
        <ele>334.20111</ele>
        <time>2023-05-14T13:39:40.000Z</time>
      </trkpt>
      <trkpt lat="45.82378" lon="4.73505">
        <ele>334.32162</ele>
        <time>2023-05-14T13:39:41.000Z</time>
      </trkpt>
      <trkpt lat="45.82381" lon="4.73513">
        <ele>334.47217</ele>
        <time>2023-05-14T13:39:42.000Z</time>
      </trkpt>
      <trkpt lat="45.82384" lon="4.73521">
        <ele>334.29791</ele>
        <time>2023-05-14T13:39:43.000Z</time>
      </trkpt>
      <trkpt lat="45.82387" lon="4.73529">
        <ele>334.19073</ele>
        <time>2023-05-14T13:39:44.000Z</time>
      </trkpt>
      <trkpt lat="45.82391" lon="4.73537">
        <ele>334.09814</ele>
        <time>2023-05-14T13:39:45.000Z</time>
      </trkpt>
      <trkpt lat="45.82394" lon="4.73544">
        <ele>333.9787</ele>
        <time>2023-05-14T13:39:46.000Z</time>
      </trkpt>
      <trkpt lat="45.82398" lon="4.73551">
        <ele>333.86227</ele>
        <time>2023-05-14T13:39:47.000Z</time>
      </trkpt>
      <trkpt lat="45.82402" lon="4.73559">
        <ele>333.71704</ele>
        <time>2023-05-14T13:39:48.000Z</time>
      </trkpt>
      <trkpt lat="45.82405" lon="4.73566">
        <ele>333.58316</ele>
        <time>2023-05-14T13:39:49.000Z</time>
      </trkpt>
      <trkpt lat="45.82408" lon="4.73574">
        <ele>333.48224</ele>
        <time>2023-05-14T13:39:50.000Z</time>
      </trkpt>
      <trkpt lat="45.82412" lon="4.73581">
        <ele>333.37186</ele>
        <time>2023-05-14T13:39:51.000Z</time>
      </trkpt>
      <trkpt lat="45.82416" lon="4.73588">
        <ele>333.12811</ele>
        <time>2023-05-14T13:39:52.000Z</time>
      </trkpt>
      <trkpt lat="45.8242" lon="4.73595">
        <ele>332.79901</ele>
        <time>2023-05-14T13:39:53.000Z</time>
      </trkpt>
      <trkpt lat="45.82424" lon="4.73603">
        <ele>332.44598</ele>
        <time>2023-05-14T13:39:54.000Z</time>
      </trkpt>
      <trkpt lat="45.82429" lon="4.73611">
        <ele>332.06271</ele>
        <time>2023-05-14T13:39:55.000Z</time>
      </trkpt>
      <trkpt lat="45.82433" lon="4.73619">
        <ele>331.97501</ele>
        <time>2023-05-14T13:39:56.000Z</time>
      </trkpt>
      <trkpt lat="45.82437" lon="4.73627">
        <ele>331.84491</ele>
        <time>2023-05-14T13:39:57.000Z</time>
      </trkpt>
      <trkpt lat="45.82441" lon="4.73636">
        <ele>331.65936</ele>
        <time>2023-05-14T13:39:58.000Z</time>
      </trkpt>
      <trkpt lat="45.82445" lon="4.73644">
        <ele>331.45657</ele>
        <time>2023-05-14T13:39:59.000Z</time>
      </trkpt>
      <trkpt lat="45.8245" lon="4.73652">
        <ele>331.24774</ele>
        <time>2023-05-14T13:40:00.000Z</time>
      </trkpt>
      <trkpt lat="45.82454" lon="4.7366">
        <ele>331.02411</ele>
        <time>2023-05-14T13:40:01.000Z</time>
      </trkpt>
      <trkpt lat="45.82458" lon="4.73667">
        <ele>330.80286</ele>
        <time>2023-05-14T13:40:02.000Z</time>
      </trkpt>
      <trkpt lat="45.82462" lon="4.73676">
        <ele>330.5824</ele>
        <time>2023-05-14T13:40:03.000Z</time>
      </trkpt>
      <trkpt lat="45.82465" lon="4.73684">
        <ele>330.19675</ele>
        <time>2023-05-14T13:40:04.000Z</time>
      </trkpt>
      <trkpt lat="45.82469" lon="4.73692">
        <ele>329.72467</ele>
        <time>2023-05-14T13:40:05.000Z</time>
      </trkpt>
      <trkpt lat="45.82473" lon="4.737">
        <ele>329.52606</ele>
        <time>2023-05-14T13:40:06.000Z</time>
      </trkpt>
      <trkpt lat="45.82478" lon="4.73707">
        <ele>329.30508</ele>
        <time>2023-05-14T13:40:07.000Z</time>
      </trkpt>
      <trkpt lat="45.82482" lon="4.73714">
        <ele>329.0791</ele>
        <time>2023-05-14T13:40:08.000Z</time>
      </trkpt>
      <trkpt lat="45.82486" lon="4.73721">
        <ele>328.85959</ele>
        <time>2023-05-14T13:40:09.000Z</time>
      </trkpt>
      <trkpt lat="45.82491" lon="4.73729">
        <ele>328.61035</ele>
        <time>2023-05-14T13:40:10.000Z</time>
      </trkpt>
      <trkpt lat="45.82496" lon="4.73736">
        <ele>328.36661</ele>
        <time>2023-05-14T13:40:11.000Z</time>
      </trkpt>
      <trkpt lat="45.825" lon="4.73744">
        <ele>328.27277</ele>
        <time>2023-05-14T13:40:12.000Z</time>
      </trkpt>
      <trkpt lat="45.82504" lon="4.73751">
        <ele>328.25027</ele>
        <time>2023-05-14T13:40:13.000Z</time>
      </trkpt>
      <trkpt lat="45.82509" lon="4.73759">
        <ele>328.28702</ele>
        <time>2023-05-14T13:40:14.000Z</time>
      </trkpt>
      <trkpt lat="45.82512" lon="4.73767">
        <ele>328.34955</ele>
        <time>2023-05-14T13:40:15.000Z</time>
      </trkpt>
      <trkpt lat="45.82516" lon="4.73775">
        <ele>328.09799</ele>
        <time>2023-05-14T13:40:16.000Z</time>
      </trkpt>
      <trkpt lat="45.82519" lon="4.73784">
        <ele>327.88312</ele>
        <time>2023-05-14T13:40:17.000Z</time>
      </trkpt>
      <trkpt lat="45.82523" lon="4.73792">
        <ele>327.70566</ele>
        <time>2023-05-14T13:40:18.000Z</time>
      </trkpt>
      <trkpt lat="45.82525" lon="4.738">
        <ele>327.51788</ele>
        <time>2023-05-14T13:40:19.000Z</time>
      </trkpt>
      <trkpt lat="45.82528" lon="4.73808">
        <ele>327.19141</ele>
        <time>2023-05-14T13:40:20.000Z</time>
      </trkpt>
      <trkpt lat="45.82529" lon="4.73817">
        <ele>326.84256</ele>
        <time>2023-05-14T13:40:21.000Z</time>
      </trkpt>
      <trkpt lat="45.8253" lon="4.73826">
        <ele>326.49017</ele>
        <time>2023-05-14T13:40:22.000Z</time>
      </trkpt>
      <trkpt lat="45.82529" lon="4.73834">
        <ele>326.38998</ele>
        <time>2023-05-14T13:40:23.000Z</time>
      </trkpt>
      <trkpt lat="45.82528" lon="4.73843">
        <ele>326.41202</ele>
        <time>2023-05-14T13:40:24.000Z</time>
      </trkpt>
      <trkpt lat="45.82526" lon="4.7385">
        <ele>326.54065</ele>
        <time>2023-05-14T13:40:25.000Z</time>
      </trkpt>
      <trkpt lat="45.82524" lon="4.73857">
        <ele>326.41269</ele>
        <time>2023-05-14T13:40:26.000Z</time>
      </trkpt>
      <trkpt lat="45.82522" lon="4.73864">
        <ele>326.3374</ele>
        <time>2023-05-14T13:40:27.000Z</time>
      </trkpt>
      <trkpt lat="45.82518" lon="4.7387">
        <ele>326.25024</ele>
        <time>2023-05-14T13:40:28.000Z</time>
      </trkpt>
      <trkpt lat="45.82514" lon="4.73875">
        <ele>326.14825</ele>
        <time>2023-05-14T13:40:29.000Z</time>
      </trkpt>
      <trkpt lat="45.8251" lon="4.73881">
        <ele>326.08578</ele>
        <time>2023-05-14T13:40:30.000Z</time>
      </trkpt>
      <trkpt lat="45.82507" lon="4.73886">
        <ele>326.00815</ele>
        <time>2023-05-14T13:40:31.000Z</time>
      </trkpt>
      <trkpt lat="45.82503" lon="4.73891">
        <ele>325.94531</ele>
        <time>2023-05-14T13:40:32.000Z</time>
      </trkpt>
      <trkpt lat="45.82499" lon="4.73897">
        <ele>325.90567</ele>
        <time>2023-05-14T13:40:33.000Z</time>
      </trkpt>
      <trkpt lat="45.82496" lon="4.73904">
        <ele>325.87247</ele>
        <time>2023-05-14T13:40:34.000Z</time>
      </trkpt>
      <trkpt lat="45.82495" lon="4.73911">
        <ele>325.87064</ele>
        <time>2023-05-14T13:40:35.000Z</time>
      </trkpt>
      <trkpt lat="45.82496" lon="4.73918">
        <ele>325.89178</ele>
        <time>2023-05-14T13:40:36.000Z</time>
      </trkpt>
      <trkpt lat="45.82496" lon="4.73923">
        <ele>325.93451</ele>
        <time>2023-05-14T13:40:37.000Z</time>
      </trkpt>
      <trkpt lat="45.82498" lon="4.73928">
        <ele>325.97443</ele>
        <time>2023-05-14T13:40:38.000Z</time>
      </trkpt>
      <trkpt lat="45.82499" lon="4.7393">
        <ele>326.02737</ele>
        <time>2023-05-14T13:40:39.000Z</time>
      </trkpt>
      <trkpt lat="45.82503" lon="4.73932">
        <ele>326.08746</ele>
        <time>2023-05-14T13:40:41.000Z</time>
      </trkpt>
      <trkpt lat="45.82505" lon="4.73931">
        <ele>326.15268</ele>
        <time>2023-05-14T13:40:42.000Z</time>
      </trkpt>
      <trkpt lat="45.82506" lon="4.7393">
        <ele>326.16571</ele>
        <time>2023-05-14T13:40:43.000Z</time>
      </trkpt>
      <trkpt lat="45.82509" lon="4.7393">
        <ele>326.22321</ele>
        <time>2023-05-14T13:40:44.000Z</time>
      </trkpt>
      <trkpt lat="45.82512" lon="4.73927">
        <ele>326.28351</ele>
        <time>2023-05-14T13:40:45.000Z</time>
      </trkpt>
      <trkpt lat="45.82514" lon="4.73924">
        <ele>326.36871</ele>
        <time>2023-05-14T13:40:46.000Z</time>
      </trkpt>
      <trkpt lat="45.82516" lon="4.73919">
        <ele>326.4584</ele>
        <time>2023-05-14T13:40:47.000Z</time>
      </trkpt>
      <trkpt lat="45.82518" lon="4.73914">
        <ele>326.51367</ele>
        <time>2023-05-14T13:40:48.000Z</time>
      </trkpt>
      <trkpt lat="45.8252" lon="4.73908">
        <ele>326.59952</ele>
        <time>2023-05-14T13:40:49.000Z</time>
      </trkpt>
      <trkpt lat="45.82523" lon="4.73903">
        <ele>326.69598</ele>
        <time>2023-05-14T13:40:50.000Z</time>
      </trkpt>
      <trkpt lat="45.82526" lon="4.73897">
        <ele>326.75629</ele>
        <time>2023-05-14T13:40:51.000Z</time>
      </trkpt>
      <trkpt lat="45.82529" lon="4.73892">
        <ele>326.83969</ele>
        <time>2023-05-14T13:40:52.000Z</time>
      </trkpt>
      <trkpt lat="45.82531" lon="4.73885">
        <ele>326.89499</ele>
        <time>2023-05-14T13:40:53.000Z</time>
      </trkpt>
      <trkpt lat="45.82533" lon="4.73879">
        <ele>326.94025</ele>
        <time>2023-05-14T13:40:54.000Z</time>
      </trkpt>
      <trkpt lat="45.82536" lon="4.73873">
        <ele>326.95035</ele>
        <time>2023-05-14T13:40:55.000Z</time>
      </trkpt>
      <trkpt lat="45.82539" lon="4.73866">
        <ele>326.93335</ele>
        <time>2023-05-14T13:40:56.000Z</time>
      </trkpt>
      <trkpt lat="45.82543" lon="4.73859">
        <ele>326.87936</ele>
        <time>2023-05-14T13:40:57.000Z</time>
      </trkpt>
      <trkpt lat="45.82545" lon="4.73852">
        <ele>326.76355</ele>
        <time>2023-05-14T13:40:58.000Z</time>
      </trkpt>
      <trkpt lat="45.82548" lon="4.73844">
        <ele>326.65021</ele>
        <time>2023-05-14T13:40:59.000Z</time>
      </trkpt>
      <trkpt lat="45.8255" lon="4.73837">
        <ele>326.51776</ele>
        <time>2023-05-14T13:41:00.000Z</time>
      </trkpt>
      <trkpt lat="45.82553" lon="4.7383">
        <ele>326.60455</ele>
        <time>2023-05-14T13:41:01.000Z</time>
      </trkpt>
      <trkpt lat="45.82556" lon="4.73822">
        <ele>326.70688</ele>
        <time>2023-05-14T13:41:02.000Z</time>
      </trkpt>
      <trkpt lat="45.82558" lon="4.73815">
        <ele>326.87531</ele>
        <time>2023-05-14T13:41:03.000Z</time>
      </trkpt>
      <trkpt lat="45.8256" lon="4.73808">
        <ele>326.74362</ele>
        <time>2023-05-14T13:41:04.000Z</time>
      </trkpt>
      <trkpt lat="45.82563" lon="4.73801">
        <ele>326.66003</ele>
        <time>2023-05-14T13:41:05.000Z</time>
      </trkpt>
      <trkpt lat="45.82565" lon="4.73794">
        <ele>326.56976</ele>
        <time>2023-05-14T13:41:06.000Z</time>
      </trkpt>
      <trkpt lat="45.82567" lon="4.73788">
        <ele>326.47629</ele>
        <time>2023-05-14T13:41:07.000Z</time>
      </trkpt>
      <trkpt lat="45.82569" lon="4.73781">
        <ele>326.40195</ele>
        <time>2023-05-14T13:41:08.000Z</time>
      </trkpt>
      <trkpt lat="45.82571" lon="4.73775">
        <ele>326.32965</ele>
        <time>2023-05-14T13:41:09.000Z</time>
      </trkpt>
      <trkpt lat="45.82569" lon="4.73765">
        <ele>326.30151</ele>
        <time>2023-05-14T13:41:10.000Z</time>
      </trkpt>
      <trkpt lat="45.8257" lon="4.73759">
        <ele>326.29672</ele>
        <time>2023-05-14T13:41:11.000Z</time>
      </trkpt>
      <trkpt lat="45.82575" lon="4.73755">
        <ele>326.29623</ele>
        <time>2023-05-14T13:41:12.000Z</time>
      </trkpt>
      <trkpt lat="45.82579" lon="4.7375">
        <ele>326.31522</ele>
        <time>2023-05-14T13:41:13.000Z</time>
      </trkpt>
      <trkpt lat="45.82582" lon="4.73744">
        <ele>326.36789</ele>
        <time>2023-05-14T13:41:14.000Z</time>
      </trkpt>
      <trkpt lat="45.82585" lon="4.73739">
        <ele>326.45264</ele>
        <time>2023-05-14T13:41:15.000Z</time>
      </trkpt>
      <trkpt lat="45.82589" lon="4.73735">
        <ele>326.5538</ele>
        <time>2023-05-14T13:41:16.000Z</time>
      </trkpt>
      <trkpt lat="45.82592" lon="4.73732">
        <ele>326.67682</ele>
        <time>2023-05-14T13:41:17.000Z</time>
      </trkpt>
      <trkpt lat="45.82595" lon="4.7373">
        <ele>326.82758</ele>
        <time>2023-05-14T13:41:18.000Z</time>
      </trkpt>
      <trkpt lat="45.82598" lon="4.73727">
        <ele>327.0011</ele>
        <time>2023-05-14T13:41:19.000Z</time>
      </trkpt>
      <trkpt lat="45.82601" lon="4.73724">
        <ele>327.207</ele>
        <time>2023-05-14T13:41:20.000Z</time>
      </trkpt>
      <trkpt lat="45.82603" lon="4.73721">
        <ele>327.36368</ele>
        <time>2023-05-14T13:41:21.000Z</time>
      </trkpt>
      <trkpt lat="45.82606" lon="4.7372">
        <ele>327.53522</ele>
        <time>2023-05-14T13:41:22.000Z</time>
      </trkpt>
      <trkpt lat="45.82609" lon="4.7372">
        <ele>327.73505</ele>
        <time>2023-05-14T13:41:23.000Z</time>
      </trkpt>
      <trkpt lat="45.82612" lon="4.7372">
        <ele>327.96844</ele>
        <time>2023-05-14T13:41:24.000Z</time>
      </trkpt>
      <trkpt lat="45.82615" lon="4.73718">
        <ele>328.0834</ele>
        <time>2023-05-14T13:41:25.000Z</time>
      </trkpt>
      <trkpt lat="45.82618" lon="4.73717">
        <ele>328.16495</ele>
        <time>2023-05-14T13:41:26.000Z</time>
      </trkpt>
      <trkpt lat="45.82621" lon="4.73716">
        <ele>328.24704</ele>
        <time>2023-05-14T13:41:27.000Z</time>
      </trkpt>
      <trkpt lat="45.82623" lon="4.73715">
        <ele>328.34961</ele>
        <time>2023-05-14T13:41:28.000Z</time>
      </trkpt>
      <trkpt lat="45.82626" lon="4.73715">
        <ele>328.431</ele>
        <time>2023-05-14T13:41:29.000Z</time>
      </trkpt>
      <trkpt lat="45.8263" lon="4.73715">
        <ele>328.49054</ele>
        <time>2023-05-14T13:41:30.000Z</time>
      </trkpt>
      <trkpt lat="45.82633" lon="4.73715">
        <ele>328.5502</ele>
        <time>2023-05-14T13:41:31.000Z</time>
      </trkpt>
      <trkpt lat="45.82636" lon="4.73716">
        <ele>328.62067</ele>
        <time>2023-05-14T13:41:32.000Z</time>
      </trkpt>
      <trkpt lat="45.8264" lon="4.73716">
        <ele>328.65967</ele>
        <time>2023-05-14T13:41:33.000Z</time>
      </trkpt>
      <trkpt lat="45.82643" lon="4.73716">
        <ele>328.50079</ele>
        <time>2023-05-14T13:41:34.000Z</time>
      </trkpt>
      <trkpt lat="45.82646" lon="4.73716">
        <ele>328.35004</ele>
        <time>2023-05-14T13:41:35.000Z</time>
      </trkpt>
      <trkpt lat="45.82649" lon="4.73716">
        <ele>328.13004</ele>
        <time>2023-05-14T13:41:36.000Z</time>
      </trkpt>
      <trkpt lat="45.82653" lon="4.73716">
        <ele>328.15552</ele>
        <time>2023-05-14T13:41:37.000Z</time>
      </trkpt>
      <trkpt lat="45.82656" lon="4.73715">
        <ele>328.11502</ele>
        <time>2023-05-14T13:41:38.000Z</time>
      </trkpt>
      <trkpt lat="45.82659" lon="4.73714">
        <ele>328.0556</ele>
        <time>2023-05-14T13:41:39.000Z</time>
      </trkpt>
      <trkpt lat="45.82663" lon="4.73713">
        <ele>327.99564</ele>
        <time>2023-05-14T13:41:40.000Z</time>
      </trkpt>
      <trkpt lat="45.82666" lon="4.7371">
        <ele>327.92245</ele>
        <time>2023-05-14T13:41:41.000Z</time>
      </trkpt>
      <trkpt lat="45.82668" lon="4.73708">
        <ele>327.83078</ele>
        <time>2023-05-14T13:41:42.000Z</time>
      </trkpt>
      <trkpt lat="45.82671" lon="4.73706">
        <ele>327.74161</ele>
        <time>2023-05-14T13:41:43.000Z</time>
      </trkpt>
      <trkpt lat="45.82674" lon="4.73703">
        <ele>327.6366</ele>
        <time>2023-05-14T13:41:44.000Z</time>
      </trkpt>
      <trkpt lat="45.82677" lon="4.73701">
        <ele>327.612</ele>
        <time>2023-05-14T13:41:45.000Z</time>
      </trkpt>
      <trkpt lat="45.82679" lon="4.73699">
        <ele>327.61829</ele>
        <time>2023-05-14T13:41:46.000Z</time>
      </trkpt>
      <trkpt lat="45.82682" lon="4.73696">
        <ele>327.61932</ele>
        <time>2023-05-14T13:41:47.000Z</time>
      </trkpt>
      <trkpt lat="45.82685" lon="4.73694">
        <ele>327.60287</ele>
        <time>2023-05-14T13:41:48.000Z</time>
      </trkpt>
      <trkpt lat="45.82688" lon="4.73692">
        <ele>327.62729</ele>
        <time>2023-05-14T13:41:49.000Z</time>
      </trkpt>
      <trkpt lat="45.8269" lon="4.73689">
        <ele>327.59741</ele>
        <time>2023-05-14T13:41:50.000Z</time>
      </trkpt>
      <trkpt lat="45.82693" lon="4.73687">
        <ele>327.5838</ele>
        <time>2023-05-14T13:41:51.000Z</time>
      </trkpt>
      <trkpt lat="45.82696" lon="4.73684">
        <ele>327.35297</ele>
        <time>2023-05-14T13:41:52.000Z</time>
      </trkpt>
      <trkpt lat="45.82699" lon="4.73682">
        <ele>327.12848</ele>
        <time>2023-05-14T13:41:53.000Z</time>
      </trkpt>
      <trkpt lat="45.82702" lon="4.73679">
        <ele>327.03079</ele>
        <time>2023-05-14T13:41:54.000Z</time>
      </trkpt>
      <trkpt lat="45.82705" lon="4.73677">
        <ele>326.90546</ele>
        <time>2023-05-14T13:41:55.000Z</time>
      </trkpt>
      <trkpt lat="45.82707" lon="4.73674">
        <ele>327.1261</ele>
        <time>2023-05-14T13:41:56.000Z</time>
      </trkpt>
      <trkpt lat="45.8271" lon="4.73671">
        <ele>327.05731</ele>
        <time>2023-05-14T13:41:57.000Z</time>
      </trkpt>
      <trkpt lat="45.82713" lon="4.73668">
        <ele>327.07452</ele>
        <time>2023-05-14T13:41:58.000Z</time>
      </trkpt>
      <trkpt lat="45.82716" lon="4.73665">
        <ele>327.08649</ele>
        <time>2023-05-14T13:41:59.000Z</time>
      </trkpt>
      <trkpt lat="45.82719" lon="4.73662">
        <ele>327.09317</ele>
        <time>2023-05-14T13:42:00.000Z</time>
      </trkpt>
      <trkpt lat="45.82722" lon="4.7366">
        <ele>327.57843</ele>
        <time>2023-05-14T13:42:01.000Z</time>
      </trkpt>
      <trkpt lat="45.82726" lon="4.73656">
        <ele>328.06226</ele>
        <time>2023-05-14T13:42:02.000Z</time>
      </trkpt>
      <trkpt lat="45.82729" lon="4.73653">
        <ele>328.51117</ele>
        <time>2023-05-14T13:42:03.000Z</time>
      </trkpt>
      <trkpt lat="45.82732" lon="4.7365">
        <ele>328.95538</ele>
        <time>2023-05-14T13:42:04.000Z</time>
      </trkpt>
      <trkpt lat="45.82736" lon="4.73647">
        <ele>329.40833</ele>
        <time>2023-05-14T13:42:05.000Z</time>
      </trkpt>
      <trkpt lat="45.82739" lon="4.73644">
        <ele>329.84528</ele>
        <time>2023-05-14T13:42:06.000Z</time>
      </trkpt>
      <trkpt lat="45.82742" lon="4.73641">
        <ele>330.30209</ele>
        <time>2023-05-14T13:42:07.000Z</time>
      </trkpt>
      <trkpt lat="45.82745" lon="4.73638">
        <ele>330.75305</ele>
        <time>2023-05-14T13:42:08.000Z</time>
      </trkpt>
      <trkpt lat="45.82748" lon="4.73635">
        <ele>331.15567</ele>
        <time>2023-05-14T13:42:09.000Z</time>
      </trkpt>
      <trkpt lat="45.82751" lon="4.73633">
        <ele>331.60379</ele>
        <time>2023-05-14T13:42:10.000Z</time>
      </trkpt>
      <trkpt lat="45.82754" lon="4.7363">
        <ele>332.02765</ele>
        <time>2023-05-14T13:42:11.000Z</time>
      </trkpt>
      <trkpt lat="45.82758" lon="4.73627">
        <ele>332.65411</ele>
        <time>2023-05-14T13:42:12.000Z</time>
      </trkpt>
      <trkpt lat="45.8276" lon="4.73624">
        <ele>333.28052</ele>
        <time>2023-05-14T13:42:13.000Z</time>
      </trkpt>
      <trkpt lat="45.82765" lon="4.7362">
        <ele>333.9024</ele>
        <time>2023-05-14T13:42:14.000Z</time>
      </trkpt>
      <trkpt lat="45.82769" lon="4.73615">
        <ele>334.54584</ele>
        <time>2023-05-14T13:42:15.000Z</time>
      </trkpt>
      <trkpt lat="45.82772" lon="4.7361">
        <ele>334.89389</ele>
        <time>2023-05-14T13:42:16.000Z</time>
      </trkpt>
      <trkpt lat="45.82777" lon="4.73605">
        <ele>335.30142</ele>
        <time>2023-05-14T13:42:17.000Z</time>
      </trkpt>
      <trkpt lat="45.82781" lon="4.736">
        <ele>335.67413</ele>
        <time>2023-05-14T13:42:18.000Z</time>
      </trkpt>
      <trkpt lat="45.82786" lon="4.73596">
        <ele>336.05194</ele>
        <time>2023-05-14T13:42:19.000Z</time>
      </trkpt>
      <trkpt lat="45.8279" lon="4.73591">
        <ele>336.4097</ele>
        <time>2023-05-14T13:42:20.000Z</time>
      </trkpt>
      <trkpt lat="45.82797" lon="4.73585">
        <ele>336.27499</ele>
        <time>2023-05-14T13:42:21.000Z</time>
      </trkpt>
      <trkpt lat="45.82802" lon="4.73578">
        <ele>336.1662</ele>
        <time>2023-05-14T13:42:22.000Z</time>
      </trkpt>
      <trkpt lat="45.82806" lon="4.73571">
        <ele>336.04483</ele>
        <time>2023-05-14T13:42:23.000Z</time>
      </trkpt>
      <trkpt lat="45.8281" lon="4.73565">
        <ele>335.97189</ele>
        <time>2023-05-14T13:42:24.000Z</time>
      </trkpt>
      <trkpt lat="45.82816" lon="4.73561">
        <ele>335.91132</ele>
        <time>2023-05-14T13:42:25.000Z</time>
      </trkpt>
      <trkpt lat="45.82821" lon="4.73557">
        <ele>335.86835</ele>
        <time>2023-05-14T13:42:26.000Z</time>
      </trkpt>
      <trkpt lat="45.82826" lon="4.73551">
        <ele>335.78183</ele>
        <time>2023-05-14T13:42:27.000Z</time>
      </trkpt>
      <trkpt lat="45.82831" lon="4.73545">
        <ele>335.65326</ele>
        <time>2023-05-14T13:42:28.000Z</time>
      </trkpt>
      <trkpt lat="45.82835" lon="4.73539">
        <ele>335.52173</ele>
        <time>2023-05-14T13:42:29.000Z</time>
      </trkpt>
      <trkpt lat="45.82841" lon="4.73532">
        <ele>335.30746</ele>
        <time>2023-05-14T13:42:30.000Z</time>
      </trkpt>
      <trkpt lat="45.82846" lon="4.73527">
        <ele>335.07773</ele>
        <time>2023-05-14T13:42:31.000Z</time>
      </trkpt>
      <trkpt lat="45.82853" lon="4.73522">
        <ele>334.82843</ele>
        <time>2023-05-14T13:42:32.000Z</time>
      </trkpt>
      <trkpt lat="45.82857" lon="4.73514">
        <ele>334.56024</ele>
        <time>2023-05-14T13:42:33.000Z</time>
      </trkpt>
      <trkpt lat="45.82862" lon="4.73507">
        <ele>334.32977</ele>
        <time>2023-05-14T13:42:34.000Z</time>
      </trkpt>
      <trkpt lat="45.82867" lon="4.73503">
        <ele>334.08783</ele>
        <time>2023-05-14T13:42:35.000Z</time>
      </trkpt>
      <trkpt lat="45.82872" lon="4.73497">
        <ele>333.93317</ele>
        <time>2023-05-14T13:42:36.000Z</time>
      </trkpt>
      <trkpt lat="45.82877" lon="4.73492">
        <ele>333.75079</ele>
        <time>2023-05-14T13:42:37.000Z</time>
      </trkpt>
      <trkpt lat="45.82882" lon="4.73486">
        <ele>333.57153</ele>
        <time>2023-05-14T13:42:38.000Z</time>
      </trkpt>
      <trkpt lat="45.82887" lon="4.73482">
        <ele>333.34491</ele>
        <time>2023-05-14T13:42:39.000Z</time>
      </trkpt>
      <trkpt lat="45.82892" lon="4.73476">
        <ele>333.12885</ele>
        <time>2023-05-14T13:42:40.000Z</time>
      </trkpt>
      <trkpt lat="45.82899" lon="4.73472">
        <ele>332.8894</ele>
        <time>2023-05-14T13:42:41.000Z</time>
      </trkpt>
      <trkpt lat="45.82905" lon="4.73467">
        <ele>332.63754</ele>
        <time>2023-05-14T13:42:42.000Z</time>
      </trkpt>
      <trkpt lat="45.82909" lon="4.73461">
        <ele>332.40021</ele>
        <time>2023-05-14T13:42:43.000Z</time>
      </trkpt>
      <trkpt lat="45.82914" lon="4.73455">
        <ele>332.10379</ele>
        <time>2023-05-14T13:42:44.000Z</time>
      </trkpt>
      <trkpt lat="45.82919" lon="4.73452">
        <ele>331.83847</ele>
        <time>2023-05-14T13:42:45.000Z</time>
      </trkpt>
      <trkpt lat="45.82924" lon="4.73447">
        <ele>331.54077</ele>
        <time>2023-05-14T13:42:46.000Z</time>
      </trkpt>
      <trkpt lat="45.82928" lon="4.73442">
        <ele>331.24286</ele>
        <time>2023-05-14T13:42:47.000Z</time>
      </trkpt>
      <trkpt lat="45.82933" lon="4.73436">
        <ele>330.96164</ele>
        <time>2023-05-14T13:42:48.000Z</time>
      </trkpt>
      <trkpt lat="45.82936" lon="4.73434">
        <ele>330.7254</ele>
        <time>2023-05-14T13:42:49.000Z</time>
      </trkpt>
      <trkpt lat="45.82941" lon="4.73429">
        <ele>330.52789</ele>
        <time>2023-05-14T13:42:50.000Z</time>
      </trkpt>
      <trkpt lat="45.82944" lon="4.73427">
        <ele>330.36212</ele>
        <time>2023-05-14T13:42:51.000Z</time>
      </trkpt>
      <trkpt lat="45.8295" lon="4.73421">
        <ele>330.18314</ele>
        <time>2023-05-14T13:42:52.000Z</time>
      </trkpt>
      <trkpt lat="45.82956" lon="4.73416">
        <ele>330.0069</ele>
        <time>2023-05-14T13:42:53.000Z</time>
      </trkpt>
      <trkpt lat="45.82958" lon="4.73412">
        <ele>329.73862</ele>
        <time>2023-05-14T13:42:54.000Z</time>
      </trkpt>
      <trkpt lat="45.82962" lon="4.7341">
        <ele>329.47565</ele>
        <time>2023-05-14T13:42:55.000Z</time>
      </trkpt>
      <trkpt lat="45.82968" lon="4.73405">
        <ele>329.09335</ele>
        <time>2023-05-14T13:42:56.000Z</time>
      </trkpt>
      <trkpt lat="45.82973" lon="4.73401">
        <ele>328.75317</ele>
        <time>2023-05-14T13:42:57.000Z</time>
      </trkpt>
      <trkpt lat="45.82978" lon="4.73396">
        <ele>328.44174</ele>
        <time>2023-05-14T13:42:58.000Z</time>
      </trkpt>
      <trkpt lat="45.82982" lon="4.73393">
        <ele>328.15091</ele>
        <time>2023-05-14T13:42:59.000Z</time>
      </trkpt>
      <trkpt lat="45.82986" lon="4.73389">
        <ele>327.83197</ele>
        <time>2023-05-14T13:43:00.000Z</time>
      </trkpt>
      <trkpt lat="45.82991" lon="4.73385">
        <ele>327.53766</ele>
        <time>2023-05-14T13:43:01.000Z</time>
      </trkpt>
      <trkpt lat="45.82995" lon="4.73381">
        <ele>327.22958</ele>
        <time>2023-05-14T13:43:02.000Z</time>
      </trkpt>
      <trkpt lat="45.83" lon="4.73377">
        <ele>326.88815</ele>
        <time>2023-05-14T13:43:03.000Z</time>
      </trkpt>
      <trkpt lat="45.83006" lon="4.73375">
        <ele>326.52118</ele>
        <time>2023-05-14T13:43:04.000Z</time>
      </trkpt>
      <trkpt lat="45.8301" lon="4.73371">
        <ele>326.11664</ele>
        <time>2023-05-14T13:43:05.000Z</time>
      </trkpt>
      <trkpt lat="45.83015" lon="4.73367">
        <ele>325.7189</ele>
        <time>2023-05-14T13:43:06.000Z</time>
      </trkpt>
      <trkpt lat="45.83021" lon="4.73362">
        <ele>325.30704</ele>
        <time>2023-05-14T13:43:07.000Z</time>
      </trkpt>
      <trkpt lat="45.83025" lon="4.73357">
        <ele>324.90277</ele>
        <time>2023-05-14T13:43:08.000Z</time>
      </trkpt>
      <trkpt lat="45.8303" lon="4.73351">
        <ele>324.47202</ele>
        <time>2023-05-14T13:43:09.000Z</time>
      </trkpt>
      <trkpt lat="45.83035" lon="4.73345">
        <ele>324.08124</ele>
        <time>2023-05-14T13:43:10.000Z</time>
      </trkpt>
      <trkpt lat="45.8304" lon="4.73341">
        <ele>323.65295</ele>
        <time>2023-05-14T13:43:11.000Z</time>
      </trkpt>
      <trkpt lat="45.83046" lon="4.73337">
        <ele>323.23138</ele>
        <time>2023-05-14T13:43:12.000Z</time>
      </trkpt>
      <trkpt lat="45.83052" lon="4.73332">
        <ele>322.8287</ele>
        <time>2023-05-14T13:43:13.000Z</time>
      </trkpt>
      <trkpt lat="45.83056" lon="4.73327">
        <ele>322.522</ele>
        <time>2023-05-14T13:43:14.000Z</time>
      </trkpt>
      <trkpt lat="45.83062" lon="4.73321">
        <ele>322.1911</ele>
        <time>2023-05-14T13:43:15.000Z</time>
      </trkpt>
      <trkpt lat="45.83067" lon="4.73315">
        <ele>321.86829</ele>
        <time>2023-05-14T13:43:16.000Z</time>
      </trkpt>
      <trkpt lat="45.83072" lon="4.7331">
        <ele>321.50616</ele>
        <time>2023-05-14T13:43:17.000Z</time>
      </trkpt>
      <trkpt lat="45.83077" lon="4.73306">
        <ele>321.08954</ele>
        <time>2023-05-14T13:43:18.000Z</time>
      </trkpt>
      <trkpt lat="45.83082" lon="4.73298">
        <ele>320.6969</ele>
        <time>2023-05-14T13:43:19.000Z</time>
      </trkpt>
      <trkpt lat="45.83087" lon="4.73292">
        <ele>320.27191</ele>
        <time>2023-05-14T13:43:20.000Z</time>
      </trkpt>
      <trkpt lat="45.83094" lon="4.73285">
        <ele>319.92474</ele>
        <time>2023-05-14T13:43:21.000Z</time>
      </trkpt>
      <trkpt lat="45.831" lon="4.73278">
        <ele>319.27313</ele>
        <time>2023-05-14T13:43:22.000Z</time>
      </trkpt>
      <trkpt lat="45.83106" lon="4.73272">
        <ele>318.69232</ele>
        <time>2023-05-14T13:43:23.000Z</time>
      </trkpt>
      <trkpt lat="45.8311" lon="4.73265">
        <ele>318.14896</ele>
        <time>2023-05-14T13:43:24.000Z</time>
      </trkpt>
      <trkpt lat="45.83115" lon="4.73259">
        <ele>317.6098</ele>
        <time>2023-05-14T13:43:25.000Z</time>
      </trkpt>
      <trkpt lat="45.83119" lon="4.73253">
        <ele>317.08716</ele>
        <time>2023-05-14T13:43:26.000Z</time>
      </trkpt>
      <trkpt lat="45.83124" lon="4.73247">
        <ele>316.60684</ele>
        <time>2023-05-14T13:43:27.000Z</time>
      </trkpt>
      <trkpt lat="45.83129" lon="4.73242">
        <ele>316.16742</ele>
        <time>2023-05-14T13:43:28.000Z</time>
      </trkpt>
      <trkpt lat="45.83135" lon="4.73238">
        <ele>315.69647</ele>
        <time>2023-05-14T13:43:29.000Z</time>
      </trkpt>
      <trkpt lat="45.8314" lon="4.73234">
        <ele>315.2066</ele>
        <time>2023-05-14T13:43:30.000Z</time>
      </trkpt>
      <trkpt lat="45.83143" lon="4.73228">
        <ele>314.73749</ele>
        <time>2023-05-14T13:43:31.000Z</time>
      </trkpt>
      <trkpt lat="45.83149" lon="4.73223">
        <ele>314.26047</ele>
        <time>2023-05-14T13:43:32.000Z</time>
      </trkpt>
      <trkpt lat="45.83153" lon="4.7322">
        <ele>313.78595</ele>
        <time>2023-05-14T13:43:33.000Z</time>
      </trkpt>
      <trkpt lat="45.83159" lon="4.73215">
        <ele>313.31531</ele>
        <time>2023-05-14T13:43:34.000Z</time>
      </trkpt>
      <trkpt lat="45.83162" lon="4.73211">
        <ele>312.89084</ele>
        <time>2023-05-14T13:43:35.000Z</time>
      </trkpt>
      <trkpt lat="45.83168" lon="4.73207">
        <ele>312.45935</ele>
        <time>2023-05-14T13:43:36.000Z</time>
      </trkpt>
      <trkpt lat="45.83171" lon="4.73204">
        <ele>311.51059</ele>
        <time>2023-05-14T13:43:37.000Z</time>
      </trkpt>
      <trkpt lat="45.83176" lon="4.732">
        <ele>310.57895</ele>
        <time>2023-05-14T13:43:38.000Z</time>
      </trkpt>
      <trkpt lat="45.8318" lon="4.73196">
        <ele>309.6319</ele>
        <time>2023-05-14T13:43:39.000Z</time>
      </trkpt>
      <trkpt lat="45.83185" lon="4.73192">
        <ele>308.73523</ele>
        <time>2023-05-14T13:43:40.000Z</time>
      </trkpt>
      <trkpt lat="45.83189" lon="4.73188">
        <ele>307.76776</ele>
        <time>2023-05-14T13:43:41.000Z</time>
      </trkpt>
      <trkpt lat="45.83193" lon="4.73182">
        <ele>307.12717</ele>
        <time>2023-05-14T13:43:42.000Z</time>
      </trkpt>
      <trkpt lat="45.83196" lon="4.73177">
        <ele>306.41321</ele>
        <time>2023-05-14T13:43:43.000Z</time>
      </trkpt>
      <trkpt lat="45.83197" lon="4.73171">
        <ele>305.67889</ele>
        <time>2023-05-14T13:43:44.000Z</time>
      </trkpt>
      <trkpt lat="45.83198" lon="4.73165">
        <ele>304.95932</ele>
        <time>2023-05-14T13:43:45.000Z</time>
      </trkpt>
      <trkpt lat="45.83201" lon="4.73159">
        <ele>304.24356</ele>
        <time>2023-05-14T13:43:46.000Z</time>
      </trkpt>
      <trkpt lat="45.83202" lon="4.73153">
        <ele>303.54703</ele>
        <time>2023-05-14T13:43:47.000Z</time>
      </trkpt>
      <trkpt lat="45.83203" lon="4.73148">
        <ele>302.81421</ele>
        <time>2023-05-14T13:43:48.000Z</time>
      </trkpt>
      <trkpt lat="45.83205" lon="4.73143">
        <ele>302.06094</ele>
        <time>2023-05-14T13:43:49.000Z</time>
      </trkpt>
      <trkpt lat="45.83207" lon="4.73135">
        <ele>301.30649</ele>
        <time>2023-05-14T13:43:50.000Z</time>
      </trkpt>
      <trkpt lat="45.83206" lon="4.73128">
        <ele>300.57318</ele>
        <time>2023-05-14T13:43:51.000Z</time>
      </trkpt>
      <trkpt lat="45.83207" lon="4.7312">
        <ele>299.87723</ele>
        <time>2023-05-14T13:43:52.000Z</time>
      </trkpt>
      <trkpt lat="45.83208" lon="4.73112">
        <ele>299.23218</ele>
        <time>2023-05-14T13:43:53.000Z</time>
      </trkpt>
      <trkpt lat="45.83209" lon="4.73106">
        <ele>298.62695</ele>
        <time>2023-05-14T13:43:54.000Z</time>
      </trkpt>
      <trkpt lat="45.83211" lon="4.73101">
        <ele>297.94168</ele>
        <time>2023-05-14T13:43:55.000Z</time>
      </trkpt>
      <trkpt lat="45.83212" lon="4.73098">
        <ele>297.23141</ele>
        <time>2023-05-14T13:43:56.000Z</time>
      </trkpt>
      <trkpt lat="45.83214" lon="4.73093">
        <ele>297.06238</ele>
        <time>2023-05-14T13:43:57.000Z</time>
      </trkpt>
      <trkpt lat="45.83213" lon="4.7309">
        <ele>296.83121</ele>
        <time>2023-05-14T13:43:58.000Z</time>
      </trkpt>
      <trkpt lat="45.83215" lon="4.73084">
        <ele>296.63098</ele>
        <time>2023-05-14T13:43:59.000Z</time>
      </trkpt>
      <trkpt lat="45.83217" lon="4.7308">
        <ele>296.46204</ele>
        <time>2023-05-14T13:44:00.000Z</time>
      </trkpt>
      <trkpt lat="45.83219" lon="4.73078">
        <ele>297.00473</ele>
        <time>2023-05-14T13:44:01.000Z</time>
      </trkpt>
      <trkpt lat="45.83222" lon="4.73074">
        <ele>297.49469</ele>
        <time>2023-05-14T13:44:02.000Z</time>
      </trkpt>
      <trkpt lat="45.83224" lon="4.7307">
        <ele>297.16306</ele>
        <time>2023-05-14T13:44:03.000Z</time>
      </trkpt>
      <trkpt lat="45.83226" lon="4.73066">
        <ele>296.84723</ele>
        <time>2023-05-14T13:44:04.000Z</time>
      </trkpt>
      <trkpt lat="45.83229" lon="4.73061">
        <ele>296.50201</ele>
        <time>2023-05-14T13:44:05.000Z</time>
      </trkpt>
      <trkpt lat="45.83232" lon="4.73056">
        <ele>296.13696</ele>
        <time>2023-05-14T13:44:06.000Z</time>
      </trkpt>
      <trkpt lat="45.83234" lon="4.73052">
        <ele>295.74664</ele>
        <time>2023-05-14T13:44:07.000Z</time>
      </trkpt>
      <trkpt lat="45.83237" lon="4.73047">
        <ele>295.38693</ele>
        <time>2023-05-14T13:44:08.000Z</time>
      </trkpt>
      <trkpt lat="45.83239" lon="4.73042">
        <ele>295.10358</ele>
        <time>2023-05-14T13:44:09.000Z</time>
      </trkpt>
      <trkpt lat="45.83241" lon="4.73038">
        <ele>294.78647</ele>
        <time>2023-05-14T13:44:10.000Z</time>
      </trkpt>
      <trkpt lat="45.83243" lon="4.73034">
        <ele>295.13367</ele>
        <time>2023-05-14T13:44:11.000Z</time>
      </trkpt>
      <trkpt lat="45.83244" lon="4.7303">
        <ele>295.48041</ele>
        <time>2023-05-14T13:44:12.000Z</time>
      </trkpt>
      <trkpt lat="45.83246" lon="4.73027">
        <ele>295.66879</ele>
        <time>2023-05-14T13:44:13.000Z</time>
      </trkpt>
      <trkpt lat="45.83247" lon="4.73023">
        <ele>295.8262</ele>
        <time>2023-05-14T13:44:14.000Z</time>
      </trkpt>
      <trkpt lat="45.83249" lon="4.73024">
        <ele>295.61566</ele>
        <time>2023-05-14T13:45:05.000Z</time>
      </trkpt>
      <trkpt lat="45.8325" lon="4.73023">
        <ele>295.37079</ele>
        <time>2023-05-14T13:45:17.000Z</time>
      </trkpt>
      <trkpt lat="45.83251" lon="4.73019">
        <ele>295.11053</ele>
        <time>2023-05-14T13:45:22.000Z</time>
      </trkpt>
      <trkpt lat="45.83252" lon="4.73016">
        <ele>294.91968</ele>
        <time>2023-05-14T13:45:23.000Z</time>
      </trkpt>
      <trkpt lat="45.83253" lon="4.73012">
        <ele>294.71048</ele>
        <time>2023-05-14T13:45:24.000Z</time>
      </trkpt>
      <trkpt lat="45.83255" lon="4.73008">
        <ele>294.49414</ele>
        <time>2023-05-14T13:45:25.000Z</time>
      </trkpt>
      <trkpt lat="45.83256" lon="4.73004">
        <ele>293.54996</ele>
        <time>2023-05-14T13:45:26.000Z</time>
      </trkpt>
      <trkpt lat="45.83258" lon="4.73">
        <ele>292.63062</ele>
        <time>2023-05-14T13:45:27.000Z</time>
      </trkpt>
      <trkpt lat="45.83261" lon="4.72995">
        <ele>292.59637</ele>
        <time>2023-05-14T13:45:28.000Z</time>
      </trkpt>
      <trkpt lat="45.83263" lon="4.7299">
        <ele>292.58997</ele>
        <time>2023-05-14T13:45:29.000Z</time>
      </trkpt>
      <trkpt lat="45.83265" lon="4.72985">
        <ele>292.6214</ele>
        <time>2023-05-14T13:45:30.000Z</time>
      </trkpt>
      <trkpt lat="45.83267" lon="4.72979">
        <ele>292.62408</ele>
        <time>2023-05-14T13:45:31.000Z</time>
      </trkpt>
      <trkpt lat="45.8327" lon="4.72974">
        <ele>293.0235</ele>
        <time>2023-05-14T13:45:32.000Z</time>
      </trkpt>
      <trkpt lat="45.83273" lon="4.72965">
        <ele>293.50186</ele>
        <time>2023-05-14T13:45:33.000Z</time>
      </trkpt>
      <trkpt lat="45.83276" lon="4.72959">
        <ele>294.48053</ele>
        <time>2023-05-14T13:45:34.000Z</time>
      </trkpt>
      <trkpt lat="45.83278" lon="4.72952">
        <ele>295.46539</ele>
        <time>2023-05-14T13:45:35.000Z</time>
      </trkpt>
      <trkpt lat="45.8328" lon="4.72945">
        <ele>295.74176</ele>
        <time>2023-05-14T13:45:36.000Z</time>
      </trkpt>
      <trkpt lat="45.83283" lon="4.72936">
        <ele>295.9223</ele>
        <time>2023-05-14T13:45:37.000Z</time>
      </trkpt>
      <trkpt lat="45.83286" lon="4.72927">
        <ele>296.21948</ele>
        <time>2023-05-14T13:45:38.000Z</time>
      </trkpt>
      <trkpt lat="45.8329" lon="4.72919">
        <ele>296.48666</ele>
        <time>2023-05-14T13:45:39.000Z</time>
      </trkpt>
      <trkpt lat="45.83293" lon="4.7291">
        <ele>297.35687</ele>
        <time>2023-05-14T13:45:40.000Z</time>
      </trkpt>
      <trkpt lat="45.83296" lon="4.72904">
        <ele>297.6857</ele>
        <time>2023-05-14T13:45:41.000Z</time>
      </trkpt>
      <trkpt lat="45.83299" lon="4.72898">
        <ele>298.13715</ele>
        <time>2023-05-14T13:45:42.000Z</time>
      </trkpt>
      <trkpt lat="45.833" lon="4.72893">
        <ele>298.61249</ele>
        <time>2023-05-14T13:45:43.000Z</time>
      </trkpt>
      <trkpt lat="45.83303" lon="4.72888">
        <ele>299.14078</ele>
        <time>2023-05-14T13:45:44.000Z</time>
      </trkpt>
      <trkpt lat="45.83305" lon="4.72886">
        <ele>299.73676</ele>
        <time>2023-05-14T13:45:45.000Z</time>
      </trkpt>
      <trkpt lat="45.83311" lon="4.72884">
        <ele>300.21259</ele>
        <time>2023-05-14T13:45:46.000Z</time>
      </trkpt>
      <trkpt lat="45.83314" lon="4.72882">
        <ele>300.81509</ele>
        <time>2023-05-14T13:45:47.000Z</time>
      </trkpt>
      <trkpt lat="45.83318" lon="4.7288">
        <ele>301.43402</ele>
        <time>2023-05-14T13:45:48.000Z</time>
      </trkpt>
      <trkpt lat="45.83321" lon="4.7288">
        <ele>301.88361</ele>
        <time>2023-05-14T13:45:49.000Z</time>
      </trkpt>
      <trkpt lat="45.83325" lon="4.72879">
        <ele>302.25531</ele>
        <time>2023-05-14T13:45:50.000Z</time>
      </trkpt>
      <trkpt lat="45.8333" lon="4.72878">
        <ele>302.65033</ele>
        <time>2023-05-14T13:45:51.000Z</time>
      </trkpt>
      <trkpt lat="45.83336" lon="4.72879">
        <ele>301.94989</ele>
        <time>2023-05-14T13:45:52.000Z</time>
      </trkpt>
      <trkpt lat="45.83343" lon="4.72879">
        <ele>301.06131</ele>
        <time>2023-05-14T13:45:53.000Z</time>
      </trkpt>
      <trkpt lat="45.8335" lon="4.72878">
        <ele>299.64383</ele>
        <time>2023-05-14T13:45:54.000Z</time>
      </trkpt>
      <trkpt lat="45.83357" lon="4.72878">
        <ele>298.17166</ele>
        <time>2023-05-14T13:45:55.000Z</time>
      </trkpt>
      <trkpt lat="45.83363" lon="4.72877">
        <ele>296.7515</ele>
        <time>2023-05-14T13:45:56.000Z</time>
      </trkpt>
      <trkpt lat="45.83368" lon="4.72879">
        <ele>295.47275</ele>
        <time>2023-05-14T13:45:57.000Z</time>
      </trkpt>
      <trkpt lat="45.83372" lon="4.72882">
        <ele>294.20767</ele>
        <time>2023-05-14T13:45:58.000Z</time>
      </trkpt>
      <trkpt lat="45.83378" lon="4.72882">
        <ele>292.93811</ele>
        <time>2023-05-14T13:45:59.000Z</time>
      </trkpt>
      <trkpt lat="45.83384" lon="4.72884">
        <ele>291.57413</ele>
        <time>2023-05-14T13:46:00.000Z</time>
      </trkpt>
      <trkpt lat="45.83391" lon="4.72883">
        <ele>292.08636</ele>
        <time>2023-05-14T13:46:01.000Z</time>
      </trkpt>
      <trkpt lat="45.83396" lon="4.72878">
        <ele>292.53131</ele>
        <time>2023-05-14T13:46:02.000Z</time>
      </trkpt>
      <trkpt lat="45.83402" lon="4.72875">
        <ele>292.30521</ele>
        <time>2023-05-14T13:46:03.000Z</time>
      </trkpt>
      <trkpt lat="45.83408" lon="4.72868">
        <ele>292.11636</ele>
        <time>2023-05-14T13:46:04.000Z</time>
      </trkpt>
      <trkpt lat="45.83421" lon="4.72863">
        <ele>291.8143</ele>
        <time>2023-05-14T13:46:05.000Z</time>
      </trkpt>
      <trkpt lat="45.83426" lon="4.72855">
        <ele>291.62793</ele>
        <time>2023-05-14T13:46:06.000Z</time>
      </trkpt>
      <trkpt lat="45.8343" lon="4.72848">
        <ele>291.91571</ele>
        <time>2023-05-14T13:46:07.000Z</time>
      </trkpt>
      <trkpt lat="45.83432" lon="4.7284">
        <ele>292.10611</ele>
        <time>2023-05-14T13:46:08.000Z</time>
      </trkpt>
      <trkpt lat="45.83432" lon="4.7283">
        <ele>292.59958</ele>
        <time>2023-05-14T13:46:09.000Z</time>
      </trkpt>
      <trkpt lat="45.83433" lon="4.72821">
        <ele>293.10593</ele>
        <time>2023-05-14T13:46:10.000Z</time>
      </trkpt>
      <trkpt lat="45.83432" lon="4.72814">
        <ele>292.75415</ele>
        <time>2023-05-14T13:46:11.000Z</time>
      </trkpt>
      <trkpt lat="45.83432" lon="4.72807">
        <ele>293.13867</ele>
        <time>2023-05-14T13:46:12.000Z</time>
      </trkpt>
      <trkpt lat="45.83432" lon="4.72802">
        <ele>293.74579</ele>
        <time>2023-05-14T13:46:13.000Z</time>
      </trkpt>
      <trkpt lat="45.8343" lon="4.72797">
        <ele>294.47147</ele>
        <time>2023-05-14T13:46:14.000Z</time>
      </trkpt>
      <trkpt lat="45.8343" lon="4.72791">
        <ele>295.39026</ele>
        <time>2023-05-14T13:46:15.000Z</time>
      </trkpt>
      <trkpt lat="45.83432" lon="4.72786">
        <ele>296.22919</ele>
        <time>2023-05-14T13:46:16.000Z</time>
      </trkpt>
      <trkpt lat="45.83435" lon="4.72783">
        <ele>296.77194</ele>
        <time>2023-05-14T13:46:17.000Z</time>
      </trkpt>
      <trkpt lat="45.83438" lon="4.7278">
        <ele>297.23477</ele>
        <time>2023-05-14T13:46:18.000Z</time>
      </trkpt>
      <trkpt lat="45.83442" lon="4.72777">
        <ele>297.61453</ele>
        <time>2023-05-14T13:46:19.000Z</time>
      </trkpt>
      <trkpt lat="45.83446" lon="4.72775">
        <ele>298.21613</ele>
        <time>2023-05-14T13:46:20.000Z</time>
      </trkpt>
      <trkpt lat="45.8345" lon="4.72774">
        <ele>297.72012</ele>
        <time>2023-05-14T13:46:21.000Z</time>
      </trkpt>
      <trkpt lat="45.83454" lon="4.72773">
        <ele>297.37979</ele>
        <time>2023-05-14T13:46:22.000Z</time>
      </trkpt>
      <trkpt lat="45.83458" lon="4.72771">
        <ele>296.93127</ele>
        <time>2023-05-14T13:46:23.000Z</time>
      </trkpt>
      <trkpt lat="45.83462" lon="4.72769">
        <ele>296.48984</ele>
        <time>2023-05-14T13:46:24.000Z</time>
      </trkpt>
      <trkpt lat="45.83466" lon="4.72768">
        <ele>296.0864</ele>
        <time>2023-05-14T13:46:25.000Z</time>
      </trkpt>
      <trkpt lat="45.8347" lon="4.72767">
        <ele>295.64664</ele>
        <time>2023-05-14T13:46:26.000Z</time>
      </trkpt>
      <trkpt lat="45.83473" lon="4.72766">
        <ele>294.65753</ele>
        <time>2023-05-14T13:46:27.000Z</time>
      </trkpt>
      <trkpt lat="45.83478" lon="4.72765">
        <ele>293.73309</ele>
        <time>2023-05-14T13:46:28.000Z</time>
      </trkpt>
      <trkpt lat="45.83482" lon="4.72765">
        <ele>292.92987</ele>
        <time>2023-05-14T13:46:29.000Z</time>
      </trkpt>
      <trkpt lat="45.83485" lon="4.72762">
        <ele>292.30243</ele>
        <time>2023-05-14T13:46:30.000Z</time>
      </trkpt>
      <trkpt lat="45.83489" lon="4.72761">
        <ele>292.92694</ele>
        <time>2023-05-14T13:46:31.000Z</time>
      </trkpt>
      <trkpt lat="45.83495" lon="4.72758">
        <ele>293.71173</ele>
        <time>2023-05-14T13:46:32.000Z</time>
      </trkpt>
      <trkpt lat="45.83497" lon="4.72757">
        <ele>293.65945</ele>
        <time>2023-05-14T13:46:33.000Z</time>
      </trkpt>
      <trkpt lat="45.83502" lon="4.72754">
        <ele>293.55215</ele>
        <time>2023-05-14T13:46:34.000Z</time>
      </trkpt>
      <trkpt lat="45.83509" lon="4.72752">
        <ele>293.43536</ele>
        <time>2023-05-14T13:46:35.000Z</time>
      </trkpt>
      <trkpt lat="45.83517" lon="4.7275">
        <ele>293.45038</ele>
        <time>2023-05-14T13:46:36.000Z</time>
      </trkpt>
      <trkpt lat="45.83521" lon="4.72749">
        <ele>293.6239</ele>
        <time>2023-05-14T13:46:37.000Z</time>
      </trkpt>
      <trkpt lat="45.83527" lon="4.72748">
        <ele>293.73749</ele>
        <time>2023-05-14T13:46:38.000Z</time>
      </trkpt>
      <trkpt lat="45.83535" lon="4.72747">
        <ele>293.03607</ele>
        <time>2023-05-14T13:46:39.000Z</time>
      </trkpt>
      <trkpt lat="45.8354" lon="4.72744">
        <ele>292.1842</ele>
        <time>2023-05-14T13:46:40.000Z</time>
      </trkpt>
      <trkpt lat="45.83545" lon="4.72743">
        <ele>291.1701</ele>
        <time>2023-05-14T13:46:41.000Z</time>
      </trkpt>
      <trkpt lat="45.8355" lon="4.7274">
        <ele>290.02197</ele>
        <time>2023-05-14T13:46:42.000Z</time>
      </trkpt>
      <trkpt lat="45.83553" lon="4.72739">
        <ele>289.67657</ele>
        <time>2023-05-14T13:46:43.000Z</time>
      </trkpt>
      <trkpt lat="45.83558" lon="4.72738">
        <ele>289.20959</ele>
        <time>2023-05-14T13:46:44.000Z</time>
      </trkpt>
      <trkpt lat="45.83564" lon="4.72736">
        <ele>288.71906</ele>
        <time>2023-05-14T13:46:45.000Z</time>
      </trkpt>
      <trkpt lat="45.83567" lon="4.72734">
        <ele>287.99796</ele>
        <time>2023-05-14T13:46:46.000Z</time>
      </trkpt>
      <trkpt lat="45.83572" lon="4.72731">
        <ele>287.29965</ele>
        <time>2023-05-14T13:46:47.000Z</time>
      </trkpt>
      <trkpt lat="45.83576" lon="4.72729">
        <ele>286.65802</ele>
        <time>2023-05-14T13:46:48.000Z</time>
      </trkpt>
      <trkpt lat="45.83579" lon="4.72726">
        <ele>285.78461</ele>
        <time>2023-05-14T13:46:49.000Z</time>
      </trkpt>
      <trkpt lat="45.83582" lon="4.72722">
        <ele>284.77155</ele>
        <time>2023-05-14T13:46:50.000Z</time>
      </trkpt>
      <trkpt lat="45.83588" lon="4.72719">
        <ele>283.33759</ele>
        <time>2023-05-14T13:46:51.000Z</time>
      </trkpt>
      <trkpt lat="45.83592" lon="4.72717">
        <ele>281.71344</ele>
        <time>2023-05-14T13:46:52.000Z</time>
      </trkpt>
      <trkpt lat="45.83596" lon="4.72713">
        <ele>280.48898</ele>
        <time>2023-05-14T13:46:53.000Z</time>
      </trkpt>
      <trkpt lat="45.83602" lon="4.72712">
        <ele>279.15906</ele>
        <time>2023-05-14T13:46:54.000Z</time>
      </trkpt>
      <trkpt lat="45.83607" lon="4.7271">
        <ele>277.7352</ele>
        <time>2023-05-14T13:46:55.000Z</time>
      </trkpt>
      <trkpt lat="45.83611" lon="4.72709">
        <ele>276.21631</ele>
        <time>2023-05-14T13:46:56.000Z</time>
      </trkpt>
      <trkpt lat="45.83615" lon="4.72705">
        <ele>274.78503</ele>
        <time>2023-05-14T13:46:57.000Z</time>
      </trkpt>
      <trkpt lat="45.83619" lon="4.72699">
        <ele>273.47961</ele>
        <time>2023-05-14T13:46:58.000Z</time>
      </trkpt>
      <trkpt lat="45.83623" lon="4.72693">
        <ele>273.12689</ele>
        <time>2023-05-14T13:46:59.000Z</time>
      </trkpt>
      <trkpt lat="45.83626" lon="4.7269">
        <ele>272.62885</ele>
        <time>2023-05-14T13:47:00.000Z</time>
      </trkpt>
      <trkpt lat="45.83633" lon="4.72686">
        <ele>272.065</ele>
        <time>2023-05-14T13:47:01.000Z</time>
      </trkpt>
      <trkpt lat="45.83638" lon="4.72684">
        <ele>271.46014</ele>
        <time>2023-05-14T13:47:02.000Z</time>
      </trkpt>
      <trkpt lat="45.83642" lon="4.7268">
        <ele>270.77426</ele>
        <time>2023-05-14T13:47:03.000Z</time>
      </trkpt>
      <trkpt lat="45.83648" lon="4.72676">
        <ele>270.09</ele>
        <time>2023-05-14T13:47:04.000Z</time>
      </trkpt>
      <trkpt lat="45.83653" lon="4.72673">
        <ele>269.46368</ele>
        <time>2023-05-14T13:47:05.000Z</time>
      </trkpt>
      <trkpt lat="45.83657" lon="4.72672">
        <ele>269.10376</ele>
        <time>2023-05-14T13:47:06.000Z</time>
      </trkpt>
      <trkpt lat="45.83664" lon="4.7267">
        <ele>268.68124</ele>
        <time>2023-05-14T13:47:07.000Z</time>
      </trkpt>
      <trkpt lat="45.83669" lon="4.72668">
        <ele>268.21378</ele>
        <time>2023-05-14T13:47:08.000Z</time>
      </trkpt>
      <trkpt lat="45.83674" lon="4.72666">
        <ele>267.67462</ele>
        <time>2023-05-14T13:47:09.000Z</time>
      </trkpt>
      <trkpt lat="45.83677" lon="4.72665">
        <ele>267.1124</ele>
        <time>2023-05-14T13:47:10.000Z</time>
      </trkpt>
      <trkpt lat="45.8368" lon="4.72664">
        <ele>266.60138</ele>
        <time>2023-05-14T13:47:11.000Z</time>
      </trkpt>
      <trkpt lat="45.83684" lon="4.72661">
        <ele>266.04132</ele>
        <time>2023-05-14T13:47:12.000Z</time>
      </trkpt>
      <trkpt lat="45.8369" lon="4.72659">
        <ele>265.85101</ele>
        <time>2023-05-14T13:47:13.000Z</time>
      </trkpt>
      <trkpt lat="45.83694" lon="4.72658">
        <ele>266.88739</ele>
        <time>2023-05-14T13:47:14.000Z</time>
      </trkpt>
      <trkpt lat="45.83698" lon="4.72657">
        <ele>267.84296</ele>
        <time>2023-05-14T13:47:15.000Z</time>
      </trkpt>
      <trkpt lat="45.83702" lon="4.72654">
        <ele>268.79218</ele>
        <time>2023-05-14T13:47:16.000Z</time>
      </trkpt>
      <trkpt lat="45.83706" lon="4.72653">
        <ele>269.9256</ele>
        <time>2023-05-14T13:47:17.000Z</time>
      </trkpt>
      <trkpt lat="45.8371" lon="4.7265">
        <ele>271.20721</ele>
        <time>2023-05-14T13:47:18.000Z</time>
      </trkpt>
      <trkpt lat="45.83713" lon="4.72648">
        <ele>272.55478</ele>
        <time>2023-05-14T13:47:19.000Z</time>
      </trkpt>
      <trkpt lat="45.83716" lon="4.72644">
        <ele>273.82605</ele>
        <time>2023-05-14T13:47:20.000Z</time>
      </trkpt>
      <trkpt lat="45.83719" lon="4.72643">
        <ele>274.54193</ele>
        <time>2023-05-14T13:47:21.000Z</time>
      </trkpt>
      <trkpt lat="45.83724" lon="4.7264">
        <ele>275.49445</ele>
        <time>2023-05-14T13:47:22.000Z</time>
      </trkpt>
      <trkpt lat="45.8373" lon="4.72639">
        <ele>276.39716</ele>
        <time>2023-05-14T13:47:23.000Z</time>
      </trkpt>
      <trkpt lat="45.83736" lon="4.72638">
        <ele>277.49152</ele>
        <time>2023-05-14T13:47:24.000Z</time>
      </trkpt>
      <trkpt lat="45.83741" lon="4.72636">
        <ele>278.64099</ele>
        <time>2023-05-14T13:47:25.000Z</time>
      </trkpt>
      <trkpt lat="45.83746" lon="4.72633">
        <ele>279.70792</ele>
        <time>2023-05-14T13:47:26.000Z</time>
      </trkpt>
      <trkpt lat="45.8375" lon="4.72632">
        <ele>280.79916</ele>
        <time>2023-05-14T13:47:27.000Z</time>
      </trkpt>
      <trkpt lat="45.83756" lon="4.72629">
        <ele>281.83301</ele>
        <time>2023-05-14T13:47:28.000Z</time>
      </trkpt>
      <trkpt lat="45.83762" lon="4.72627">
        <ele>282.81985</ele>
        <time>2023-05-14T13:47:29.000Z</time>
      </trkpt>
      <trkpt lat="45.83767" lon="4.72625">
        <ele>283.82306</ele>
        <time>2023-05-14T13:47:30.000Z</time>
      </trkpt>
      <trkpt lat="45.83771" lon="4.72625">
        <ele>284.94885</ele>
        <time>2023-05-14T13:47:31.000Z</time>
      </trkpt>
      <trkpt lat="45.83776" lon="4.72624">
        <ele>286.06573</ele>
        <time>2023-05-14T13:47:32.000Z</time>
      </trkpt>
      <trkpt lat="45.83783" lon="4.72622">
        <ele>287.52963</ele>
        <time>2023-05-14T13:47:33.000Z</time>
      </trkpt>
      <trkpt lat="45.83786" lon="4.72621">
        <ele>287.92926</ele>
        <time>2023-05-14T13:47:34.000Z</time>
      </trkpt>
      <trkpt lat="45.83792" lon="4.72618">
        <ele>288.70944</ele>
        <time>2023-05-14T13:47:35.000Z</time>
      </trkpt>
      <trkpt lat="45.83798" lon="4.72617">
        <ele>288.52994</ele>
        <time>2023-05-14T13:47:36.000Z</time>
      </trkpt>
      <trkpt lat="45.83801" lon="4.72618">
        <ele>288.21417</ele>
        <time>2023-05-14T13:47:37.000Z</time>
      </trkpt>
      <trkpt lat="45.83805" lon="4.72615">
        <ele>287.76105</ele>
        <time>2023-05-14T13:47:38.000Z</time>
      </trkpt>
      <trkpt lat="45.83809" lon="4.72611">
        <ele>287.17181</ele>
        <time>2023-05-14T13:47:39.000Z</time>
      </trkpt>
      <trkpt lat="45.83813" lon="4.72608">
        <ele>286.72232</ele>
        <time>2023-05-14T13:47:40.000Z</time>
      </trkpt>
      <trkpt lat="45.83817" lon="4.72604">
        <ele>286.72034</ele>
        <time>2023-05-14T13:47:41.000Z</time>
      </trkpt>
      <trkpt lat="45.83822" lon="4.726">
        <ele>286.57437</ele>
        <time>2023-05-14T13:47:42.000Z</time>
      </trkpt>
      <trkpt lat="45.83823" lon="4.72597">
        <ele>286.5961</ele>
        <time>2023-05-14T13:47:43.000Z</time>
      </trkpt>
      <trkpt lat="45.83825" lon="4.72592">
        <ele>285.6962</ele>
        <time>2023-05-14T13:47:44.000Z</time>
      </trkpt>
      <trkpt lat="45.83826" lon="4.72586">
        <ele>284.62119</ele>
        <time>2023-05-14T13:47:45.000Z</time>
      </trkpt>
      <trkpt lat="45.83828" lon="4.7258">
        <ele>283.27396</ele>
        <time>2023-05-14T13:47:46.000Z</time>
      </trkpt>
      <trkpt lat="45.83829" lon="4.72575">
        <ele>282.01825</ele>
        <time>2023-05-14T13:47:47.000Z</time>
      </trkpt>
      <trkpt lat="45.8383" lon="4.7257">
        <ele>280.81161</ele>
        <time>2023-05-14T13:47:48.000Z</time>
      </trkpt>
      <trkpt lat="45.83832" lon="4.72564">
        <ele>280.07047</ele>
        <time>2023-05-14T13:47:49.000Z</time>
      </trkpt>
      <trkpt lat="45.83835" lon="4.72554">
        <ele>278.93558</ele>
        <time>2023-05-14T13:47:50.000Z</time>
      </trkpt>
      <trkpt lat="45.83836" lon="4.72549">
        <ele>277.72681</ele>
        <time>2023-05-14T13:47:51.000Z</time>
      </trkpt>
      <trkpt lat="45.83836" lon="4.72543">
        <ele>276.61908</ele>
        <time>2023-05-14T13:47:52.000Z</time>
      </trkpt>
      <trkpt lat="45.83837" lon="4.72537">
        <ele>274.70062</ele>
        <time>2023-05-14T13:47:53.000Z</time>
      </trkpt>
      <trkpt lat="45.83838" lon="4.72531">
        <ele>272.80228</ele>
        <time>2023-05-14T13:47:54.000Z</time>
      </trkpt>
      <trkpt lat="45.83838" lon="4.72526">
        <ele>270.62277</ele>
        <time>2023-05-14T13:47:55.000Z</time>
      </trkpt>
      <trkpt lat="45.8384" lon="4.72518">
        <ele>269.42865</ele>
        <time>2023-05-14T13:47:56.000Z</time>
      </trkpt>
      <trkpt lat="45.83841" lon="4.72511">
        <ele>268.21524</ele>
        <time>2023-05-14T13:47:57.000Z</time>
      </trkpt>
      <trkpt lat="45.83841" lon="4.72507">
        <ele>267.03323</ele>
        <time>2023-05-14T13:47:58.000Z</time>
      </trkpt>
      <trkpt lat="45.83841" lon="4.72502">
        <ele>265.89496</ele>
        <time>2023-05-14T13:47:59.000Z</time>
      </trkpt>
      <trkpt lat="45.83842" lon="4.72498">
        <ele>264.63806</ele>
        <time>2023-05-14T13:48:00.000Z</time>
      </trkpt>
      <trkpt lat="45.83841" lon="4.72494">
        <ele>263.89191</ele>
        <time>2023-05-14T13:48:01.000Z</time>
      </trkpt>
      <trkpt lat="45.83841" lon="4.72491">
        <ele>263.06512</ele>
        <time>2023-05-14T13:48:02.000Z</time>
      </trkpt>
      <trkpt lat="45.83841" lon="4.72488">
        <ele>262.17789</ele>
        <time>2023-05-14T13:48:03.000Z</time>
      </trkpt>
      <trkpt lat="45.83841" lon="4.72484">
        <ele>262.0351</ele>
        <time>2023-05-14T13:48:04.000Z</time>
      </trkpt>
      <trkpt lat="45.8384" lon="4.7248">
        <ele>262.00656</ele>
        <time>2023-05-14T13:48:05.000Z</time>
      </trkpt>
      <trkpt lat="45.83839" lon="4.72477">
        <ele>262.27896</ele>
        <time>2023-05-14T13:48:06.000Z</time>
      </trkpt>
      <trkpt lat="45.83839" lon="4.72475">
        <ele>262.56973</ele>
        <time>2023-05-14T13:48:07.000Z</time>
      </trkpt>
      <trkpt lat="45.83839" lon="4.72472">
        <ele>262.87549</ele>
        <time>2023-05-14T13:48:08.000Z</time>
      </trkpt>
      <trkpt lat="45.83839" lon="4.72468">
        <ele>262.94055</ele>
        <time>2023-05-14T13:48:09.000Z</time>
      </trkpt>
      <trkpt lat="45.83838" lon="4.72464">
        <ele>263.37244</ele>
        <time>2023-05-14T13:48:10.000Z</time>
      </trkpt>
      <trkpt lat="45.83838" lon="4.7246">
        <ele>263.93045</ele>
        <time>2023-05-14T13:48:11.000Z</time>
      </trkpt>
      <trkpt lat="45.83838" lon="4.72456">
        <ele>264.3233</ele>
        <time>2023-05-14T13:48:12.000Z</time>
      </trkpt>
      <trkpt lat="45.83838" lon="4.72452">
        <ele>264.74475</ele>
        <time>2023-05-14T13:48:13.000Z</time>
      </trkpt>
      <trkpt lat="45.83839" lon="4.72448">
        <ele>265.16956</ele>
        <time>2023-05-14T13:48:14.000Z</time>
      </trkpt>
      <trkpt lat="45.83841" lon="4.72444">
        <ele>265.57065</ele>
        <time>2023-05-14T13:48:15.000Z</time>
      </trkpt>
      <trkpt lat="45.83843" lon="4.7244">
        <ele>265.83792</ele>
        <time>2023-05-14T13:48:16.000Z</time>
      </trkpt>
      <trkpt lat="45.83846" lon="4.72435">
        <ele>266.12857</ele>
        <time>2023-05-14T13:48:17.000Z</time>
      </trkpt>
      <trkpt lat="45.8385" lon="4.72432">
        <ele>266.05643</ele>
        <time>2023-05-14T13:48:18.000Z</time>
      </trkpt>
      <trkpt lat="45.83853" lon="4.7243">
        <ele>266.00497</ele>
        <time>2023-05-14T13:48:19.000Z</time>
      </trkpt>
      <trkpt lat="45.83856" lon="4.72427">
        <ele>266.04785</ele>
        <time>2023-05-14T13:48:20.000Z</time>
      </trkpt>
      <trkpt lat="45.83859" lon="4.72425">
        <ele>266.96796</ele>
        <time>2023-05-14T13:48:21.000Z</time>
      </trkpt>
      <trkpt lat="45.83862" lon="4.72423">
        <ele>267.83252</ele>
        <time>2023-05-14T13:48:22.000Z</time>
      </trkpt>
      <trkpt lat="45.83865" lon="4.7242">
        <ele>268.78912</ele>
        <time>2023-05-14T13:48:23.000Z</time>
      </trkpt>
      <trkpt lat="45.83868" lon="4.72418">
        <ele>269.49188</ele>
        <time>2023-05-14T13:48:24.000Z</time>
      </trkpt>
      <trkpt lat="45.83871" lon="4.72415">
        <ele>270.09488</ele>
        <time>2023-05-14T13:48:25.000Z</time>
      </trkpt>
      <trkpt lat="45.83874" lon="4.72413">
        <ele>270.66699</ele>
        <time>2023-05-14T13:48:26.000Z</time>
      </trkpt>
      <trkpt lat="45.83878" lon="4.72411">
        <ele>271.47003</ele>
        <time>2023-05-14T13:48:27.000Z</time>
      </trkpt>
      <trkpt lat="45.83881" lon="4.72409">
        <ele>271.43146</ele>
        <time>2023-05-14T13:48:28.000Z</time>
      </trkpt>
      <trkpt lat="45.83884" lon="4.72408">
        <ele>271.40323</ele>
        <time>2023-05-14T13:48:29.000Z</time>
      </trkpt>
      <trkpt lat="45.83887" lon="4.72407">
        <ele>272.20157</ele>
        <time>2023-05-14T13:48:30.000Z</time>
      </trkpt>
      <trkpt lat="45.8389" lon="4.72406">
        <ele>272.77731</ele>
        <time>2023-05-14T13:48:31.000Z</time>
      </trkpt>
      <trkpt lat="45.83892" lon="4.72404">
        <ele>273.63605</ele>
        <time>2023-05-14T13:48:32.000Z</time>
      </trkpt>
      <trkpt lat="45.83895" lon="4.72402">
        <ele>275.14886</ele>
        <time>2023-05-14T13:48:33.000Z</time>
      </trkpt>
      <trkpt lat="45.83898" lon="4.724">
        <ele>276.29663</ele>
        <time>2023-05-14T13:48:34.000Z</time>
      </trkpt>
      <trkpt lat="45.839" lon="4.72398">
        <ele>277.38812</ele>
        <time>2023-05-14T13:48:35.000Z</time>
      </trkpt>
      <trkpt lat="45.83903" lon="4.72397">
        <ele>278.73248</ele>
        <time>2023-05-14T13:48:36.000Z</time>
      </trkpt>
      <trkpt lat="45.83906" lon="4.72396">
        <ele>279.9588</ele>
        <time>2023-05-14T13:48:37.000Z</time>
      </trkpt>
      <trkpt lat="45.83908" lon="4.72395">
        <ele>280.76532</ele>
        <time>2023-05-14T13:48:38.000Z</time>
      </trkpt>
      <trkpt lat="45.8391" lon="4.72393">
        <ele>281.7291</ele>
        <time>2023-05-14T13:48:39.000Z</time>
      </trkpt>
      <trkpt lat="45.83912" lon="4.72392">
        <ele>282.65869</ele>
        <time>2023-05-14T13:48:40.000Z</time>
      </trkpt>
      <trkpt lat="45.83914" lon="4.72391">
        <ele>283.00824</ele>
        <time>2023-05-14T13:48:41.000Z</time>
      </trkpt>
      <trkpt lat="45.83916" lon="4.7239">
        <ele>282.67267</ele>
        <time>2023-05-14T13:48:42.000Z</time>
      </trkpt>
      <trkpt lat="45.83917" lon="4.72389">
        <ele>281.75061</ele>
        <time>2023-05-14T13:48:43.000Z</time>
      </trkpt>
      <trkpt lat="45.83919" lon="4.72389">
        <ele>281.17398</ele>
        <time>2023-05-14T13:48:44.000Z</time>
      </trkpt>
      <trkpt lat="45.83922" lon="4.72389">
        <ele>280.69235</ele>
        <time>2023-05-14T13:48:45.000Z</time>
      </trkpt>
      <trkpt lat="45.83924" lon="4.72388">
        <ele>280.28351</ele>
        <time>2023-05-14T13:48:46.000Z</time>
      </trkpt>
      <trkpt lat="45.83926" lon="4.72387">
        <ele>279.83441</ele>
        <time>2023-05-14T13:48:47.000Z</time>
      </trkpt>
      <trkpt lat="45.8393" lon="4.72386">
        <ele>279.97424</ele>
        <time>2023-05-14T13:48:49.000Z</time>
      </trkpt>
      <trkpt lat="45.83932" lon="4.72385">
        <ele>279.8678</ele>
        <time>2023-05-14T13:48:50.000Z</time>
      </trkpt>
      <trkpt lat="45.83935" lon="4.72383">
        <ele>279.0163</ele>
        <time>2023-05-14T13:48:51.000Z</time>
      </trkpt>
      <trkpt lat="45.83937" lon="4.72381">
        <ele>278.23312</ele>
        <time>2023-05-14T13:48:52.000Z</time>
      </trkpt>
      <trkpt lat="45.83939" lon="4.7238">
        <ele>278.00641</ele>
        <time>2023-05-14T13:48:53.000Z</time>
      </trkpt>
      <trkpt lat="45.83942" lon="4.72379">
        <ele>277.57318</ele>
        <time>2023-05-14T13:48:54.000Z</time>
      </trkpt>
      <trkpt lat="45.83945" lon="4.72378">
        <ele>276.73648</ele>
        <time>2023-05-14T13:48:55.000Z</time>
      </trkpt>
      <trkpt lat="45.83947" lon="4.72377">
        <ele>275.98468</ele>
        <time>2023-05-14T13:48:56.000Z</time>
      </trkpt>
      <trkpt lat="45.83949" lon="4.72376">
        <ele>275.06824</ele>
        <time>2023-05-14T13:48:57.000Z</time>
      </trkpt>
      <trkpt lat="45.83951" lon="4.72375">
        <ele>274.17676</ele>
        <time>2023-05-14T13:48:58.000Z</time>
      </trkpt>
      <trkpt lat="45.83953" lon="4.72373">
        <ele>274.07199</ele>
        <time>2023-05-14T13:48:59.000Z</time>
      </trkpt>
      <trkpt lat="45.83955" lon="4.72371">
        <ele>273.79651</ele>
        <time>2023-05-14T13:49:00.000Z</time>
      </trkpt>
      <trkpt lat="45.83958" lon="4.72367">
        <ele>273.28653</ele>
        <time>2023-05-14T13:49:02.000Z</time>
      </trkpt>
      <trkpt lat="45.83959" lon="4.72366">
        <ele>272.17386</ele>
        <time>2023-05-14T13:49:03.000Z</time>
      </trkpt>
      <trkpt lat="45.83961" lon="4.72364">
        <ele>271.7659</ele>
        <time>2023-05-14T13:49:04.000Z</time>
      </trkpt>
      <trkpt lat="45.83963" lon="4.72363">
        <ele>271.85419</ele>
        <time>2023-05-14T13:49:05.000Z</time>
      </trkpt>
      <trkpt lat="45.83964" lon="4.72361">
        <ele>271.64072</ele>
        <time>2023-05-14T13:49:06.000Z</time>
      </trkpt>
      <trkpt lat="45.83966" lon="4.72359">
        <ele>271.43005</ele>
        <time>2023-05-14T13:49:07.000Z</time>
      </trkpt>
      <trkpt lat="45.83968" lon="4.72358">
        <ele>271.2583</ele>
        <time>2023-05-14T13:49:08.000Z</time>
      </trkpt>
      <trkpt lat="45.8397" lon="4.72356">
        <ele>270.80939</ele>
        <time>2023-05-14T13:49:09.000Z</time>
      </trkpt>
      <trkpt lat="45.83972" lon="4.72355">
        <ele>270.59308</ele>
        <time>2023-05-14T13:49:10.000Z</time>
      </trkpt>
      <trkpt lat="45.83974" lon="4.72353">
        <ele>270.45096</ele>
        <time>2023-05-14T13:49:11.000Z</time>
      </trkpt>
      <trkpt lat="45.83976" lon="4.72351">
        <ele>270.27423</ele>
        <time>2023-05-14T13:49:12.000Z</time>
      </trkpt>
      <trkpt lat="45.83978" lon="4.72349">
        <ele>270.06015</ele>
        <time>2023-05-14T13:49:13.000Z</time>
      </trkpt>
      <trkpt lat="45.8398" lon="4.72346">
        <ele>269.14606</ele>
        <time>2023-05-14T13:49:14.000Z</time>
      </trkpt>
      <trkpt lat="45.83982" lon="4.72344">
        <ele>268.19489</ele>
        <time>2023-05-14T13:49:15.000Z</time>
      </trkpt>
      <trkpt lat="45.83985" lon="4.72342">
        <ele>267.88696</ele>
        <time>2023-05-14T13:49:16.000Z</time>
      </trkpt>
      <trkpt lat="45.83987" lon="4.7234">
        <ele>267.54221</ele>
        <time>2023-05-14T13:49:17.000Z</time>
      </trkpt>
      <trkpt lat="45.83989" lon="4.72339">
        <ele>267.23007</ele>
        <time>2023-05-14T13:49:18.000Z</time>
      </trkpt>
      <trkpt lat="45.83991" lon="4.72337">
        <ele>267.0069</ele>
        <time>2023-05-14T13:49:19.000Z</time>
      </trkpt>
      <trkpt lat="45.83992" lon="4.72335">
        <ele>267.09937</ele>
        <time>2023-05-14T13:49:20.000Z</time>
      </trkpt>
      <trkpt lat="45.83994" lon="4.72333">
        <ele>266.94849</ele>
        <time>2023-05-14T13:49:21.000Z</time>
      </trkpt>
      <trkpt lat="45.83996" lon="4.72331">
        <ele>267.04535</ele>
        <time>2023-05-14T13:49:22.000Z</time>
      </trkpt>
      <trkpt lat="45.83997" lon="4.72329">
        <ele>267.13098</ele>
        <time>2023-05-14T13:49:23.000Z</time>
      </trkpt>
      <trkpt lat="45.83999" lon="4.72327">
        <ele>266.96924</ele>
        <time>2023-05-14T13:49:24.000Z</time>
      </trkpt>
      <trkpt lat="45.84" lon="4.72325">
        <ele>266.79633</ele>
        <time>2023-05-14T13:49:25.000Z</time>
      </trkpt>
      <trkpt lat="45.84002" lon="4.72322">
        <ele>266.86057</ele>
        <time>2023-05-14T13:49:26.000Z</time>
      </trkpt>
      <trkpt lat="45.84004" lon="4.7232">
        <ele>266.92813</ele>
        <time>2023-05-14T13:49:27.000Z</time>
      </trkpt>
      <trkpt lat="45.84006" lon="4.72318">
        <ele>266.96942</ele>
        <time>2023-05-14T13:49:28.000Z</time>
      </trkpt>
      <trkpt lat="45.84007" lon="4.72316">
        <ele>266.99023</ele>
        <time>2023-05-14T13:49:29.000Z</time>
      </trkpt>
      <trkpt lat="45.84009" lon="4.72313">
        <ele>267.03693</ele>
        <time>2023-05-14T13:49:30.000Z</time>
      </trkpt>
      <trkpt lat="45.8401" lon="4.7231">
        <ele>267.09808</ele>
        <time>2023-05-14T13:49:31.000Z</time>
      </trkpt>
      <trkpt lat="45.84011" lon="4.72308">
        <ele>267.48077</ele>
        <time>2023-05-14T13:49:32.000Z</time>
      </trkpt>
      <trkpt lat="45.84011" lon="4.72305">
        <ele>267.94754</ele>
        <time>2023-05-14T13:49:33.000Z</time>
      </trkpt>
      <trkpt lat="45.84011" lon="4.72301">
        <ele>268.40341</ele>
        <time>2023-05-14T13:49:34.000Z</time>
      </trkpt>
      <trkpt lat="45.84011" lon="4.72298">
        <ele>268.59625</ele>
        <time>2023-05-14T13:49:35.000Z</time>
      </trkpt>
      <trkpt lat="45.8401" lon="4.72294">
        <ele>268.83453</ele>
        <time>2023-05-14T13:49:36.000Z</time>
      </trkpt>
      <trkpt lat="45.84009" lon="4.72291">
        <ele>269.10931</ele>
        <time>2023-05-14T13:49:37.000Z</time>
      </trkpt>
      <trkpt lat="45.84008" lon="4.72288">
        <ele>269.38477</ele>
        <time>2023-05-14T13:49:38.000Z</time>
      </trkpt>
      <trkpt lat="45.84007" lon="4.72286">
        <ele>269.62915</ele>
        <time>2023-05-14T13:49:39.000Z</time>
      </trkpt>
      <trkpt lat="45.84005" lon="4.72283">
        <ele>269.54642</ele>
        <time>2023-05-14T13:49:40.000Z</time>
      </trkpt>
      <trkpt lat="45.84004" lon="4.7228">
        <ele>269.70453</ele>
        <time>2023-05-14T13:49:41.000Z</time>
      </trkpt>
      <trkpt lat="45.84002" lon="4.72277">
        <ele>269.80984</ele>
        <time>2023-05-14T13:49:42.000Z</time>
      </trkpt>
      <trkpt lat="45.84001" lon="4.72274">
        <ele>269.68661</ele>
        <time>2023-05-14T13:49:43.000Z</time>
      </trkpt>
      <trkpt lat="45.83999" lon="4.72271">
        <ele>269.79465</ele>
        <time>2023-05-14T13:49:44.000Z</time>
      </trkpt>
      <trkpt lat="45.83998" lon="4.72269">
        <ele>269.92267</ele>
        <time>2023-05-14T13:49:45.000Z</time>
      </trkpt>
      <trkpt lat="45.83996" lon="4.72266">
        <ele>270.02887</ele>
        <time>2023-05-14T13:49:46.000Z</time>
      </trkpt>
      <trkpt lat="45.83994" lon="4.72263">
        <ele>270.11316</ele>
        <time>2023-05-14T13:49:47.000Z</time>
      </trkpt>
      <trkpt lat="45.83993" lon="4.7226">
        <ele>270.23505</ele>
        <time>2023-05-14T13:49:48.000Z</time>
      </trkpt>
      <trkpt lat="45.83991" lon="4.72256">
        <ele>270.33234</ele>
        <time>2023-05-14T13:49:49.000Z</time>
      </trkpt>
      <trkpt lat="45.8399" lon="4.72253">
        <ele>270.39758</ele>
        <time>2023-05-14T13:49:50.000Z</time>
      </trkpt>
      <trkpt lat="45.83988" lon="4.7225">
        <ele>270.45624</ele>
        <time>2023-05-14T13:49:51.000Z</time>
      </trkpt>
      <trkpt lat="45.83987" lon="4.72247">
        <ele>270.19424</ele>
        <time>2023-05-14T13:49:52.000Z</time>
      </trkpt>
      <trkpt lat="45.83985" lon="4.72244">
        <ele>269.85956</ele>
        <time>2023-05-14T13:49:53.000Z</time>
      </trkpt>
      <trkpt lat="45.83983" lon="4.7224">
        <ele>269.51642</ele>
        <time>2023-05-14T13:49:54.000Z</time>
      </trkpt>
      <trkpt lat="45.8398" lon="4.72237">
        <ele>269.40738</ele>
        <time>2023-05-14T13:49:55.000Z</time>
      </trkpt>
      <trkpt lat="45.83978" lon="4.72233">
        <ele>269.24646</ele>
        <time>2023-05-14T13:49:56.000Z</time>
      </trkpt>
      <trkpt lat="45.83976" lon="4.72229">
        <ele>269.36261</ele>
        <time>2023-05-14T13:49:57.000Z</time>
      </trkpt>
      <trkpt lat="45.83974" lon="4.72225">
        <ele>269.48236</ele>
        <time>2023-05-14T13:49:58.000Z</time>
      </trkpt>
      <trkpt lat="45.83972" lon="4.72221">
        <ele>269.57983</ele>
        <time>2023-05-14T13:49:59.000Z</time>
      </trkpt>
      <trkpt lat="45.8397" lon="4.72217">
        <ele>269.65811</ele>
        <time>2023-05-14T13:50:00.000Z</time>
      </trkpt>
      <trkpt lat="45.83968" lon="4.72213">
        <ele>269.73853</ele>
        <time>2023-05-14T13:50:01.000Z</time>
      </trkpt>
      <trkpt lat="45.83966" lon="4.72209">
        <ele>269.86124</ele>
        <time>2023-05-14T13:50:02.000Z</time>
      </trkpt>
      <trkpt lat="45.83964" lon="4.72205">
        <ele>270.22626</ele>
        <time>2023-05-14T13:50:03.000Z</time>
      </trkpt>
      <trkpt lat="45.83963" lon="4.72201">
        <ele>270.60028</ele>
        <time>2023-05-14T13:50:04.000Z</time>
      </trkpt>
      <trkpt lat="45.83961" lon="4.72196">
        <ele>270.93829</ele>
        <time>2023-05-14T13:50:05.000Z</time>
      </trkpt>
      <trkpt lat="45.83959" lon="4.72192">
        <ele>271.28299</ele>
        <time>2023-05-14T13:50:06.000Z</time>
      </trkpt>
      <trkpt lat="45.83958" lon="4.72188">
        <ele>271.58932</ele>
        <time>2023-05-14T13:50:07.000Z</time>
      </trkpt>
      <trkpt lat="45.83955" lon="4.72184">
        <ele>271.89069</ele>
        <time>2023-05-14T13:50:08.000Z</time>
      </trkpt>
      <trkpt lat="45.83953" lon="4.7218">
        <ele>272.18961</ele>
        <time>2023-05-14T13:50:09.000Z</time>
      </trkpt>
      <trkpt lat="45.83951" lon="4.72177">
        <ele>272.49713</ele>
        <time>2023-05-14T13:50:10.000Z</time>
      </trkpt>
      <trkpt lat="45.83948" lon="4.72174">
        <ele>272.80975</ele>
        <time>2023-05-14T13:50:11.000Z</time>
      </trkpt>
      <trkpt lat="45.83946" lon="4.7217">
        <ele>273.11887</ele>
        <time>2023-05-14T13:50:12.000Z</time>
      </trkpt>
      <trkpt lat="45.83944" lon="4.72167">
        <ele>273.43555</ele>
        <time>2023-05-14T13:50:13.000Z</time>
      </trkpt>
      <trkpt lat="45.83942" lon="4.72164">
        <ele>273.7558</ele>
        <time>2023-05-14T13:50:14.000Z</time>
      </trkpt>
      <trkpt lat="45.83942" lon="4.7216">
        <ele>274.06042</ele>
        <time>2023-05-14T13:50:15.000Z</time>
      </trkpt>
      <trkpt lat="45.83943" lon="4.72157">
        <ele>274.46625</ele>
        <time>2023-05-14T13:50:16.000Z</time>
      </trkpt>
      <trkpt lat="45.83946" lon="4.72156">
        <ele>274.64719</ele>
        <time>2023-05-14T13:50:17.000Z</time>
      </trkpt>
      <trkpt lat="45.8395" lon="4.72156">
        <ele>274.75943</ele>
        <time>2023-05-14T13:50:18.000Z</time>
      </trkpt>
      <trkpt lat="45.83953" lon="4.72157">
        <ele>274.90967</ele>
        <time>2023-05-14T13:50:19.000Z</time>
      </trkpt>
      <trkpt lat="45.83957" lon="4.72158">
        <ele>274.83392</ele>
        <time>2023-05-14T13:50:20.000Z</time>
      </trkpt>
      <trkpt lat="45.8396" lon="4.7216">
        <ele>274.78766</ele>
        <time>2023-05-14T13:50:21.000Z</time>
      </trkpt>
      <trkpt lat="45.83963" lon="4.7216">
        <ele>274.74854</ele>
        <time>2023-05-14T13:50:22.000Z</time>
      </trkpt>
      <trkpt lat="45.83966" lon="4.72161">
        <ele>274.72415</ele>
        <time>2023-05-14T13:50:23.000Z</time>
      </trkpt>
      <trkpt lat="45.8397" lon="4.72162">
        <ele>274.69977</ele>
        <time>2023-05-14T13:50:24.000Z</time>
      </trkpt>
      <trkpt lat="45.83973" lon="4.72163">
        <ele>274.71869</ele>
        <time>2023-05-14T13:50:25.000Z</time>
      </trkpt>
      <trkpt lat="45.83976" lon="4.72164">
        <ele>274.74911</ele>
        <time>2023-05-14T13:50:26.000Z</time>
      </trkpt>
      <trkpt lat="45.83979" lon="4.72166">
        <ele>274.76538</ele>
        <time>2023-05-14T13:50:27.000Z</time>
      </trkpt>
      <trkpt lat="45.83982" lon="4.72167">
        <ele>274.78897</ele>
        <time>2023-05-14T13:50:28.000Z</time>
      </trkpt>
      <trkpt lat="45.83986" lon="4.72168">
        <ele>274.89713</ele>
        <time>2023-05-14T13:50:29.000Z</time>
      </trkpt>
      <trkpt lat="45.8399" lon="4.72169">
        <ele>274.81393</ele>
        <time>2023-05-14T13:50:30.000Z</time>
      </trkpt>
      <trkpt lat="45.83994" lon="4.7217">
        <ele>274.68179</ele>
        <time>2023-05-14T13:50:31.000Z</time>
      </trkpt>
      <trkpt lat="45.83998" lon="4.7217">
        <ele>274.58624</ele>
        <time>2023-05-14T13:50:32.000Z</time>
      </trkpt>
      <trkpt lat="45.84001" lon="4.72169">
        <ele>274.5022</ele>
        <time>2023-05-14T13:50:33.000Z</time>
      </trkpt>
      <trkpt lat="45.84005" lon="4.72168">
        <ele>274.41254</ele>
        <time>2023-05-14T13:50:34.000Z</time>
      </trkpt>
      <trkpt lat="45.84009" lon="4.72167">
        <ele>274.33557</ele>
        <time>2023-05-14T13:50:35.000Z</time>
      </trkpt>
      <trkpt lat="45.84013" lon="4.72165">
        <ele>274.16052</ele>
        <time>2023-05-14T13:50:36.000Z</time>
      </trkpt>
      <trkpt lat="45.84017" lon="4.72163">
        <ele>273.92072</ele>
        <time>2023-05-14T13:50:37.000Z</time>
      </trkpt>
      <trkpt lat="45.8402" lon="4.72158">
        <ele>273.745</ele>
        <time>2023-05-14T13:50:38.000Z</time>
      </trkpt>
      <trkpt lat="45.84022" lon="4.72153">
        <ele>273.53229</ele>
        <time>2023-05-14T13:50:39.000Z</time>
      </trkpt>
      <trkpt lat="45.84023" lon="4.72147">
        <ele>273.6398</ele>
        <time>2023-05-14T13:50:40.000Z</time>
      </trkpt>
      <trkpt lat="45.84023" lon="4.72138">
        <ele>273.71576</ele>
        <time>2023-05-14T13:50:41.000Z</time>
      </trkpt>
      <trkpt lat="45.84022" lon="4.72132">
        <ele>273.81488</ele>
        <time>2023-05-14T13:50:42.000Z</time>
      </trkpt>
      <trkpt lat="45.84022" lon="4.72124">
        <ele>273.87314</ele>
        <time>2023-05-14T13:50:43.000Z</time>
      </trkpt>
      <trkpt lat="45.84021" lon="4.72117">
        <ele>273.91016</ele>
        <time>2023-05-14T13:50:44.000Z</time>
      </trkpt>
      <trkpt lat="45.8402" lon="4.7211">
        <ele>273.92896</ele>
        <time>2023-05-14T13:50:45.000Z</time>
      </trkpt>
      <trkpt lat="45.8402" lon="4.72103">
        <ele>273.94528</ele>
        <time>2023-05-14T13:50:46.000Z</time>
      </trkpt>
      <trkpt lat="45.84019" lon="4.72096">
        <ele>273.99615</ele>
        <time>2023-05-14T13:50:47.000Z</time>
      </trkpt>
      <trkpt lat="45.84019" lon="4.72088">
        <ele>274.02356</ele>
        <time>2023-05-14T13:50:48.000Z</time>
      </trkpt>
      <trkpt lat="45.84019" lon="4.72081">
        <ele>273.98395</ele>
        <time>2023-05-14T13:50:49.000Z</time>
      </trkpt>
      <trkpt lat="45.84018" lon="4.72074">
        <ele>273.93378</ele>
        <time>2023-05-14T13:50:50.000Z</time>
      </trkpt>
      <trkpt lat="45.84018" lon="4.72067">
        <ele>273.96091</ele>
        <time>2023-05-14T13:50:51.000Z</time>
      </trkpt>
      <trkpt lat="45.84017" lon="4.7206">
        <ele>273.9689</ele>
        <time>2023-05-14T13:50:52.000Z</time>
      </trkpt>
      <trkpt lat="45.84016" lon="4.72054">
        <ele>274.17218</ele>
        <time>2023-05-14T13:50:53.000Z</time>
      </trkpt>
      <trkpt lat="45.84016" lon="4.72046">
        <ele>274.17349</ele>
        <time>2023-05-14T13:50:54.000Z</time>
      </trkpt>
      <trkpt lat="45.84016" lon="4.72039">
        <ele>274.16711</ele>
        <time>2023-05-14T13:50:55.000Z</time>
      </trkpt>
      <trkpt lat="45.84015" lon="4.72032">
        <ele>274.13593</ele>
        <time>2023-05-14T13:50:56.000Z</time>
      </trkpt>
      <trkpt lat="45.84015" lon="4.72026">
        <ele>274.10645</ele>
        <time>2023-05-14T13:50:57.000Z</time>
      </trkpt>
      <trkpt lat="45.84015" lon="4.72019">
        <ele>274.07684</ele>
        <time>2023-05-14T13:50:58.000Z</time>
      </trkpt>
      <trkpt lat="45.84014" lon="4.72013">
        <ele>274.0788</ele>
        <time>2023-05-14T13:50:59.000Z</time>
      </trkpt>
      <trkpt lat="45.84014" lon="4.72007">
        <ele>273.96164</ele>
        <time>2023-05-14T13:51:00.000Z</time>
      </trkpt>
      <trkpt lat="45.84013" lon="4.72001">
        <ele>273.86514</ele>
        <time>2023-05-14T13:51:01.000Z</time>
      </trkpt>
      <trkpt lat="45.84013" lon="4.71994">
        <ele>273.71378</ele>
        <time>2023-05-14T13:51:02.000Z</time>
      </trkpt>
      <trkpt lat="45.84013" lon="4.71987">
        <ele>273.56848</ele>
        <time>2023-05-14T13:51:03.000Z</time>
      </trkpt>
      <trkpt lat="45.84012" lon="4.7198">
        <ele>273.42474</ele>
        <time>2023-05-14T13:51:04.000Z</time>
      </trkpt>
      <trkpt lat="45.84012" lon="4.71973">
        <ele>273.31216</ele>
        <time>2023-05-14T13:51:05.000Z</time>
      </trkpt>
      <trkpt lat="45.84012" lon="4.71966">
        <ele>273.21051</ele>
        <time>2023-05-14T13:51:06.000Z</time>
      </trkpt>
      <trkpt lat="45.84011" lon="4.71959">
        <ele>273.11008</ele>
        <time>2023-05-14T13:51:07.000Z</time>
      </trkpt>
      <trkpt lat="45.84011" lon="4.71952">
        <ele>273.01569</ele>
        <time>2023-05-14T13:51:08.000Z</time>
      </trkpt>
      <trkpt lat="45.84009" lon="4.71946">
        <ele>272.95599</ele>
        <time>2023-05-14T13:51:09.000Z</time>
      </trkpt>
      <trkpt lat="45.84009" lon="4.71941">
        <ele>273.26865</ele>
        <time>2023-05-14T13:51:10.000Z</time>
      </trkpt>
      <trkpt lat="45.84009" lon="4.71934">
        <ele>273.56509</ele>
        <time>2023-05-14T13:51:11.000Z</time>
      </trkpt>
      <trkpt lat="45.84008" lon="4.71928">
        <ele>273.86273</ele>
        <time>2023-05-14T13:51:12.000Z</time>
      </trkpt>
      <trkpt lat="45.84008" lon="4.71922">
        <ele>273.96844</ele>
        <time>2023-05-14T13:51:13.000Z</time>
      </trkpt>
      <trkpt lat="45.84007" lon="4.71917">
        <ele>274.30255</ele>
        <time>2023-05-14T13:51:14.000Z</time>
      </trkpt>
      <trkpt lat="45.84007" lon="4.71911">
        <ele>274.47617</ele>
        <time>2023-05-14T13:51:15.000Z</time>
      </trkpt>
      <trkpt lat="45.84009" lon="4.71906">
        <ele>274.65451</ele>
        <time>2023-05-14T13:51:16.000Z</time>
      </trkpt>
      <trkpt lat="45.84008" lon="4.71901">
        <ele>274.82013</ele>
        <time>2023-05-14T13:51:17.000Z</time>
      </trkpt>
      <trkpt lat="45.84007" lon="4.71895">
        <ele>275.00586</ele>
        <time>2023-05-14T13:51:18.000Z</time>
      </trkpt>
      <trkpt lat="45.84006" lon="4.7189">
        <ele>275.15924</ele>
        <time>2023-05-14T13:51:19.000Z</time>
      </trkpt>
      <trkpt lat="45.84004" lon="4.71885">
        <ele>275.42688</ele>
        <time>2023-05-14T13:51:20.000Z</time>
      </trkpt>
      <trkpt lat="45.84001" lon="4.7188">
        <ele>275.73355</ele>
        <time>2023-05-14T13:51:21.000Z</time>
      </trkpt>
      <trkpt lat="45.83999" lon="4.71877">
        <ele>276.08344</ele>
        <time>2023-05-14T13:51:22.000Z</time>
      </trkpt>
      <trkpt lat="45.83996" lon="4.71873">
        <ele>276.25888</ele>
        <time>2023-05-14T13:51:23.000Z</time>
      </trkpt>
      <trkpt lat="45.83994" lon="4.71869">
        <ele>276.48218</ele>
        <time>2023-05-14T13:51:24.000Z</time>
      </trkpt>
      <trkpt lat="45.83992" lon="4.71866">
        <ele>276.69794</ele>
        <time>2023-05-14T13:51:25.000Z</time>
      </trkpt>
      <trkpt lat="45.8399" lon="4.71862">
        <ele>276.87177</ele>
        <time>2023-05-14T13:51:26.000Z</time>
      </trkpt>
      <trkpt lat="45.83988" lon="4.71859">
        <ele>277.0253</ele>
        <time>2023-05-14T13:51:27.000Z</time>
      </trkpt>
      <trkpt lat="45.83985" lon="4.71855">
        <ele>277.27728</ele>
        <time>2023-05-14T13:51:28.000Z</time>
      </trkpt>
      <trkpt lat="45.83983" lon="4.71851">
        <ele>277.53671</ele>
        <time>2023-05-14T13:51:29.000Z</time>
      </trkpt>
      <trkpt lat="45.83981" lon="4.71847">
        <ele>277.61688</ele>
        <time>2023-05-14T13:51:30.000Z</time>
      </trkpt>
      <trkpt lat="45.83979" lon="4.71844">
        <ele>277.46027</ele>
        <time>2023-05-14T13:51:31.000Z</time>
      </trkpt>
      <trkpt lat="45.83977" lon="4.71841">
        <ele>277.29153</ele>
        <time>2023-05-14T13:51:32.000Z</time>
      </trkpt>
      <trkpt lat="45.83975" lon="4.71839">
        <ele>277.10294</ele>
        <time>2023-05-14T13:51:33.000Z</time>
      </trkpt>
      <trkpt lat="45.83973" lon="4.71836">
        <ele>276.89639</ele>
        <time>2023-05-14T13:51:35.000Z</time>
      </trkpt>
      <trkpt lat="45.83971" lon="4.71833">
        <ele>276.86066</ele>
        <time>2023-05-14T13:51:36.000Z</time>
      </trkpt>
      <trkpt lat="45.8397" lon="4.7183">
        <ele>276.78671</ele>
        <time>2023-05-14T13:51:37.000Z</time>
      </trkpt>
      <trkpt lat="45.83968" lon="4.71827">
        <ele>276.77823</ele>
        <time>2023-05-14T13:51:38.000Z</time>
      </trkpt>
      <trkpt lat="45.83966" lon="4.71824">
        <ele>276.84067</ele>
        <time>2023-05-14T13:51:39.000Z</time>
      </trkpt>
      <trkpt lat="45.83964" lon="4.71821">
        <ele>276.91971</ele>
        <time>2023-05-14T13:51:40.000Z</time>
      </trkpt>
      <trkpt lat="45.83961" lon="4.71817">
        <ele>276.71506</ele>
        <time>2023-05-14T13:51:41.000Z</time>
      </trkpt>
      <trkpt lat="45.83958" lon="4.71813">
        <ele>276.49792</ele>
        <time>2023-05-14T13:51:42.000Z</time>
      </trkpt>
      <trkpt lat="45.83956" lon="4.71809">
        <ele>276.26385</ele>
        <time>2023-05-14T13:51:43.000Z</time>
      </trkpt>
      <trkpt lat="45.83954" lon="4.71805">
        <ele>276.18533</ele>
        <time>2023-05-14T13:51:44.000Z</time>
      </trkpt>
      <trkpt lat="45.83952" lon="4.718">
        <ele>276.06998</ele>
        <time>2023-05-14T13:51:45.000Z</time>
      </trkpt>
      <trkpt lat="45.83951" lon="4.71796">
        <ele>275.94046</ele>
        <time>2023-05-14T13:51:46.000Z</time>
      </trkpt>
      <trkpt lat="45.8395" lon="4.71791">
        <ele>275.83408</ele>
        <time>2023-05-14T13:51:47.000Z</time>
      </trkpt>
      <trkpt lat="45.83949" lon="4.71786">
        <ele>275.74921</ele>
        <time>2023-05-14T13:51:48.000Z</time>
      </trkpt>
      <trkpt lat="45.83948" lon="4.71781">
        <ele>275.56796</ele>
        <time>2023-05-14T13:51:49.000Z</time>
      </trkpt>
      <trkpt lat="45.83947" lon="4.71776">
        <ele>275.36557</ele>
        <time>2023-05-14T13:51:50.000Z</time>
      </trkpt>
      <trkpt lat="45.83945" lon="4.71771">
        <ele>275.12619</ele>
        <time>2023-05-14T13:51:51.000Z</time>
      </trkpt>
      <trkpt lat="45.83943" lon="4.71766">
        <ele>275.11359</ele>
        <time>2023-05-14T13:51:52.000Z</time>
      </trkpt>
      <trkpt lat="45.83941" lon="4.71762">
        <ele>275.05634</ele>
        <time>2023-05-14T13:51:53.000Z</time>
      </trkpt>
      <trkpt lat="45.83938" lon="4.71758">
        <ele>275.00604</ele>
        <time>2023-05-14T13:51:54.000Z</time>
      </trkpt>
      <trkpt lat="45.83935" lon="4.71756">
        <ele>274.95169</ele>
        <time>2023-05-14T13:51:55.000Z</time>
      </trkpt>
      <trkpt lat="45.83932" lon="4.71754">
        <ele>274.9837</ele>
        <time>2023-05-14T13:51:56.000Z</time>
      </trkpt>
      <trkpt lat="45.83928" lon="4.71752">
        <ele>275.12949</ele>
        <time>2023-05-14T13:51:57.000Z</time>
      </trkpt>
      <trkpt lat="45.83925" lon="4.71751">
        <ele>275.18948</ele>
        <time>2023-05-14T13:51:58.000Z</time>
      </trkpt>
      <trkpt lat="45.83922" lon="4.7175">
        <ele>275.15567</ele>
        <time>2023-05-14T13:51:59.000Z</time>
      </trkpt>
      <trkpt lat="45.83919" lon="4.71749">
        <ele>275.60397</ele>
        <time>2023-05-14T13:52:00.000Z</time>
      </trkpt>
      <trkpt lat="45.83917" lon="4.71748">
        <ele>276.20868</ele>
        <time>2023-05-14T13:52:01.000Z</time>
      </trkpt>
      <trkpt lat="45.83913" lon="4.71746">
        <ele>276.73755</ele>
        <time>2023-05-14T13:52:02.000Z</time>
      </trkpt>
      <trkpt lat="45.8391" lon="4.71745">
        <ele>277.27487</ele>
        <time>2023-05-14T13:52:03.000Z</time>
      </trkpt>
      <trkpt lat="45.83906" lon="4.71743">
        <ele>277.86469</ele>
        <time>2023-05-14T13:52:04.000Z</time>
      </trkpt>
      <trkpt lat="45.83903" lon="4.71742">
        <ele>278.44855</ele>
        <time>2023-05-14T13:52:05.000Z</time>
      </trkpt>
      <trkpt lat="45.83899" lon="4.7174">
        <ele>279.01385</ele>
        <time>2023-05-14T13:52:06.000Z</time>
      </trkpt>
      <trkpt lat="45.83895" lon="4.71737">
        <ele>279.56818</ele>
        <time>2023-05-14T13:52:07.000Z</time>
      </trkpt>
      <trkpt lat="45.83891" lon="4.71735">
        <ele>280.13141</ele>
        <time>2023-05-14T13:52:08.000Z</time>
      </trkpt>
      <trkpt lat="45.83884" lon="4.71735">
        <ele>280.6507</ele>
        <time>2023-05-14T13:52:09.000Z</time>
      </trkpt>
      <trkpt lat="45.83878" lon="4.71732">
        <ele>281.25037</ele>
        <time>2023-05-14T13:52:10.000Z</time>
      </trkpt>
      <trkpt lat="45.83873" lon="4.71731">
        <ele>281.89572</ele>
        <time>2023-05-14T13:52:11.000Z</time>
      </trkpt>
      <trkpt lat="45.83869" lon="4.71728">
        <ele>282.44662</ele>
        <time>2023-05-14T13:52:12.000Z</time>
      </trkpt>
      <trkpt lat="45.83865" lon="4.71726">
        <ele>283.09708</ele>
        <time>2023-05-14T13:52:13.000Z</time>
      </trkpt>
      <trkpt lat="45.83859" lon="4.71724">
        <ele>283.76996</ele>
        <time>2023-05-14T13:52:14.000Z</time>
      </trkpt>
      <trkpt lat="45.83856" lon="4.71721">
        <ele>284.51227</ele>
        <time>2023-05-14T13:52:15.000Z</time>
      </trkpt>
      <trkpt lat="45.83852" lon="4.71719">
        <ele>285.04379</ele>
        <time>2023-05-14T13:52:16.000Z</time>
      </trkpt>
      <trkpt lat="45.8385" lon="4.71717">
        <ele>285.39276</ele>
        <time>2023-05-14T13:52:17.000Z</time>
      </trkpt>
      <trkpt lat="45.83843" lon="4.71717">
        <ele>285.87994</ele>
        <time>2023-05-14T13:52:18.000Z</time>
      </trkpt>
      <trkpt lat="45.83838" lon="4.71719">
        <ele>286.41339</ele>
        <time>2023-05-14T13:52:19.000Z</time>
      </trkpt>
      <trkpt lat="45.83834" lon="4.71718">
        <ele>287.01685</ele>
        <time>2023-05-14T13:52:20.000Z</time>
      </trkpt>
      <trkpt lat="45.8383" lon="4.71715">
        <ele>287.664</ele>
        <time>2023-05-14T13:52:21.000Z</time>
      </trkpt>
      <trkpt lat="45.83824" lon="4.71713">
        <ele>288.38544</ele>
        <time>2023-05-14T13:52:22.000Z</time>
      </trkpt>
      <trkpt lat="45.83821" lon="4.71711">
        <ele>289.10101</ele>
        <time>2023-05-14T13:52:23.000Z</time>
      </trkpt>
      <trkpt lat="45.83817" lon="4.71709">
        <ele>289.89594</ele>
        <time>2023-05-14T13:52:24.000Z</time>
      </trkpt>
      <trkpt lat="45.83811" lon="4.71709">
        <ele>290.72513</ele>
        <time>2023-05-14T13:52:25.000Z</time>
      </trkpt>
      <trkpt lat="45.83806" lon="4.71708">
        <ele>291.46408</ele>
        <time>2023-05-14T13:52:26.000Z</time>
      </trkpt>
      <trkpt lat="45.83801" lon="4.71709">
        <ele>292.18628</ele>
        <time>2023-05-14T13:52:27.000Z</time>
      </trkpt>
      <trkpt lat="45.83794" lon="4.7171">
        <ele>292.95703</ele>
        <time>2023-05-14T13:52:28.000Z</time>
      </trkpt>
      <trkpt lat="45.83791" lon="4.71708">
        <ele>293.87018</ele>
        <time>2023-05-14T13:52:29.000Z</time>
      </trkpt>
      <trkpt lat="45.83784" lon="4.71706">
        <ele>294.67276</ele>
        <time>2023-05-14T13:52:30.000Z</time>
      </trkpt>
      <trkpt lat="45.83776" lon="4.71706">
        <ele>295.41425</ele>
        <time>2023-05-14T13:52:31.000Z</time>
      </trkpt>
      <trkpt lat="45.83767" lon="4.71705">
        <ele>296.22479</ele>
        <time>2023-05-14T13:52:32.000Z</time>
      </trkpt>
      <trkpt lat="45.8376" lon="4.71704">
        <ele>297.08401</ele>
        <time>2023-05-14T13:52:33.000Z</time>
      </trkpt>
      <trkpt lat="45.83752" lon="4.71705">
        <ele>297.77234</ele>
        <time>2023-05-14T13:52:34.000Z</time>
      </trkpt>
      <trkpt lat="45.83745" lon="4.71704">
        <ele>298.37421</ele>
        <time>2023-05-14T13:52:35.000Z</time>
      </trkpt>
      <trkpt lat="45.83738" lon="4.71703">
        <ele>299.00958</ele>
        <time>2023-05-14T13:52:36.000Z</time>
      </trkpt>
      <trkpt lat="45.83734" lon="4.71701">
        <ele>299.7421</ele>
        <time>2023-05-14T13:52:37.000Z</time>
      </trkpt>
      <trkpt lat="45.83729" lon="4.71699">
        <ele>300.16403</ele>
        <time>2023-05-14T13:52:38.000Z</time>
      </trkpt>
      <trkpt lat="45.83727" lon="4.71694">
        <ele>300.59564</ele>
        <time>2023-05-14T13:52:39.000Z</time>
      </trkpt>
      <trkpt lat="45.83724" lon="4.71689">
        <ele>300.70758</ele>
        <time>2023-05-14T13:52:40.000Z</time>
      </trkpt>
      <trkpt lat="45.8372" lon="4.71683">
        <ele>300.11191</ele>
        <time>2023-05-14T13:52:41.000Z</time>
      </trkpt>
      <trkpt lat="45.83717" lon="4.7168">
        <ele>299.84717</ele>
        <time>2023-05-14T13:52:42.000Z</time>
      </trkpt>
      <trkpt lat="45.83715" lon="4.71676">
        <ele>299.48773</ele>
        <time>2023-05-14T13:52:43.000Z</time>
      </trkpt>
      <trkpt lat="45.83713" lon="4.71674">
        <ele>299.10318</ele>
        <time>2023-05-14T13:52:44.000Z</time>
      </trkpt>
      <trkpt lat="45.83711" lon="4.71672">
        <ele>298.4939</ele>
        <time>2023-05-14T13:52:45.000Z</time>
      </trkpt>
      <trkpt lat="45.83709" lon="4.71667">
        <ele>297.95712</ele>
        <time>2023-05-14T13:52:46.000Z</time>
      </trkpt>
      <trkpt lat="45.83706" lon="4.71662">
        <ele>297.39105</ele>
        <time>2023-05-14T13:52:47.000Z</time>
      </trkpt>
      <trkpt lat="45.83705" lon="4.71658">
        <ele>296.68237</ele>
        <time>2023-05-14T13:52:48.000Z</time>
      </trkpt>
      <trkpt lat="45.83704" lon="4.71654">
        <ele>295.94791</ele>
        <time>2023-05-14T13:52:49.000Z</time>
      </trkpt>
      <trkpt lat="45.83702" lon="4.71651">
        <ele>295.23111</ele>
        <time>2023-05-14T13:52:50.000Z</time>
      </trkpt>
      <trkpt lat="45.837" lon="4.71649">
        <ele>294.39877</ele>
        <time>2023-05-14T13:52:51.000Z</time>
      </trkpt>
      <trkpt lat="45.83698" lon="4.71649">
        <ele>293.68207</ele>
        <time>2023-05-14T13:52:52.000Z</time>
      </trkpt>
      <trkpt lat="45.83695" lon="4.71649">
        <ele>292.71204</ele>
        <time>2023-05-14T13:52:53.000Z</time>
      </trkpt>
      <trkpt lat="45.83692" lon="4.7165">
        <ele>291.93332</ele>
        <time>2023-05-14T13:52:54.000Z</time>
      </trkpt>
      <trkpt lat="45.83689" lon="4.71651">
        <ele>291.21503</ele>
        <time>2023-05-14T13:52:55.000Z</time>
      </trkpt>
      <trkpt lat="45.83686" lon="4.71652">
        <ele>290.54535</ele>
        <time>2023-05-14T13:52:56.000Z</time>
      </trkpt>
      <trkpt lat="45.83683" lon="4.71652">
        <ele>289.90277</ele>
        <time>2023-05-14T13:52:57.000Z</time>
      </trkpt>
      <trkpt lat="45.83679" lon="4.71653">
        <ele>289.40829</ele>
        <time>2023-05-14T13:52:58.000Z</time>
      </trkpt>
      <trkpt lat="45.83676" lon="4.71654">
        <ele>288.71201</ele>
        <time>2023-05-14T13:52:59.000Z</time>
      </trkpt>
      <trkpt lat="45.83673" lon="4.71655">
        <ele>288.06866</ele>
        <time>2023-05-14T13:53:00.000Z</time>
      </trkpt>
      <trkpt lat="45.83669" lon="4.71656">
        <ele>288.16336</ele>
        <time>2023-05-14T13:53:01.000Z</time>
      </trkpt>
      <trkpt lat="45.83666" lon="4.71656">
        <ele>287.85861</ele>
        <time>2023-05-14T13:53:02.000Z</time>
      </trkpt>
      <trkpt lat="45.83663" lon="4.71656">
        <ele>287.66351</ele>
        <time>2023-05-14T13:53:03.000Z</time>
      </trkpt>
      <trkpt lat="45.8366" lon="4.71655">
        <ele>287.49655</ele>
        <time>2023-05-14T13:53:04.000Z</time>
      </trkpt>
      <trkpt lat="45.83657" lon="4.71655">
        <ele>287.59735</ele>
        <time>2023-05-14T13:53:05.000Z</time>
      </trkpt>
      <trkpt lat="45.83654" lon="4.71654">
        <ele>287.8288</ele>
        <time>2023-05-14T13:53:06.000Z</time>
      </trkpt>
      <trkpt lat="45.8365" lon="4.71653">
        <ele>288.02371</ele>
        <time>2023-05-14T13:53:07.000Z</time>
      </trkpt>
      <trkpt lat="45.83647" lon="4.71652">
        <ele>288.1987</ele>
        <time>2023-05-14T13:53:08.000Z</time>
      </trkpt>
      <trkpt lat="45.83644" lon="4.7165">
        <ele>288.38095</ele>
        <time>2023-05-14T13:53:09.000Z</time>
      </trkpt>
      <trkpt lat="45.83642" lon="4.71648">
        <ele>288.58459</ele>
        <time>2023-05-14T13:53:10.000Z</time>
      </trkpt>
      <trkpt lat="45.8364" lon="4.71646">
        <ele>288.99286</ele>
        <time>2023-05-14T13:53:11.000Z</time>
      </trkpt>
      <trkpt lat="45.83638" lon="4.71643">
        <ele>289.18985</ele>
        <time>2023-05-14T13:53:12.000Z</time>
      </trkpt>
      <trkpt lat="45.83636" lon="4.71641">
        <ele>289.50464</ele>
        <time>2023-05-14T13:53:13.000Z</time>
      </trkpt>
      <trkpt lat="45.83634" lon="4.71638">
        <ele>289.77386</ele>
        <time>2023-05-14T13:53:14.000Z</time>
      </trkpt>
      <trkpt lat="45.83632" lon="4.71635">
        <ele>290.02094</ele>
        <time>2023-05-14T13:53:15.000Z</time>
      </trkpt>
      <trkpt lat="45.8363" lon="4.71631">
        <ele>290.33844</ele>
        <time>2023-05-14T13:53:16.000Z</time>
      </trkpt>
      <trkpt lat="45.83629" lon="4.71628">
        <ele>289.85718</ele>
        <time>2023-05-14T13:53:17.000Z</time>
      </trkpt>
      <trkpt lat="45.83628" lon="4.71624">
        <ele>289.42291</ele>
        <time>2023-05-14T13:53:18.000Z</time>
      </trkpt>
      <trkpt lat="45.83627" lon="4.71619">
        <ele>289.19965</ele>
        <time>2023-05-14T13:53:19.000Z</time>
      </trkpt>
      <trkpt lat="45.83626" lon="4.71615">
        <ele>288.78726</ele>
        <time>2023-05-14T13:53:20.000Z</time>
      </trkpt>
      <trkpt lat="45.83625" lon="4.71611">
        <ele>288.38641</ele>
        <time>2023-05-14T13:53:21.000Z</time>
      </trkpt>
      <trkpt lat="45.83624" lon="4.71607">
        <ele>288.05444</ele>
        <time>2023-05-14T13:53:22.000Z</time>
      </trkpt>
      <trkpt lat="45.83623" lon="4.71604">
        <ele>287.71057</ele>
        <time>2023-05-14T13:53:23.000Z</time>
      </trkpt>
      <trkpt lat="45.83621" lon="4.716">
        <ele>287.2959</ele>
        <time>2023-05-14T13:53:24.000Z</time>
      </trkpt>
      <trkpt lat="45.8362" lon="4.71596">
        <ele>286.8338</ele>
        <time>2023-05-14T13:53:25.000Z</time>
      </trkpt>
      <trkpt lat="45.8362" lon="4.71593">
        <ele>286.15045</ele>
        <time>2023-05-14T13:53:26.000Z</time>
      </trkpt>
      <trkpt lat="45.83619" lon="4.7159">
        <ele>285.57941</ele>
        <time>2023-05-14T13:53:27.000Z</time>
      </trkpt>
      <trkpt lat="45.83619" lon="4.71587">
        <ele>285.11517</ele>
        <time>2023-05-14T13:53:28.000Z</time>
      </trkpt>
      <trkpt lat="45.8362" lon="4.71583">
        <ele>284.58093</ele>
        <time>2023-05-14T13:53:29.000Z</time>
      </trkpt>
      <trkpt lat="45.8362" lon="4.71579">
        <ele>284.03339</ele>
        <time>2023-05-14T13:53:30.000Z</time>
      </trkpt>
      <trkpt lat="45.8362" lon="4.71575">
        <ele>283.42172</ele>
        <time>2023-05-14T13:53:31.000Z</time>
      </trkpt>
      <trkpt lat="45.8362" lon="4.71571">
        <ele>282.96213</ele>
        <time>2023-05-14T13:53:32.000Z</time>
      </trkpt>
      <trkpt lat="45.83621" lon="4.71567">
        <ele>282.54767</ele>
        <time>2023-05-14T13:53:33.000Z</time>
      </trkpt>
      <trkpt lat="45.83621" lon="4.71562">
        <ele>282.19049</ele>
        <time>2023-05-14T13:53:34.000Z</time>
      </trkpt>
      <trkpt lat="45.83621" lon="4.71557">
        <ele>282.28314</ele>
        <time>2023-05-14T13:53:35.000Z</time>
      </trkpt>
      <trkpt lat="45.83621" lon="4.71553">
        <ele>282.35034</ele>
        <time>2023-05-14T13:53:36.000Z</time>
      </trkpt>
      <trkpt lat="45.83621" lon="4.71549">
        <ele>283.25165</ele>
        <time>2023-05-14T13:53:37.000Z</time>
      </trkpt>
      <trkpt lat="45.83621" lon="4.71546">
        <ele>284.1806</ele>
        <time>2023-05-14T13:53:38.000Z</time>
      </trkpt>
      <trkpt lat="45.83622" lon="4.71542">
        <ele>285.09003</ele>
        <time>2023-05-14T13:53:39.000Z</time>
      </trkpt>
      <trkpt lat="45.83621" lon="4.71539">
        <ele>285.89706</ele>
        <time>2023-05-14T13:53:40.000Z</time>
      </trkpt>
      <trkpt lat="45.8362" lon="4.71535">
        <ele>286.67209</ele>
        <time>2023-05-14T13:53:41.000Z</time>
      </trkpt>
      <trkpt lat="45.83618" lon="4.71532">
        <ele>287.40762</ele>
        <time>2023-05-14T13:53:42.000Z</time>
      </trkpt>
      <trkpt lat="45.83617" lon="4.71529">
        <ele>288.12982</ele>
        <time>2023-05-14T13:53:43.000Z</time>
      </trkpt>
      <trkpt lat="45.83615" lon="4.71526">
        <ele>288.82657</ele>
        <time>2023-05-14T13:53:44.000Z</time>
      </trkpt>
      <trkpt lat="45.83614" lon="4.71523">
        <ele>289.51291</ele>
        <time>2023-05-14T13:53:45.000Z</time>
      </trkpt>
      <trkpt lat="45.83612" lon="4.7152">
        <ele>290.32874</ele>
        <time>2023-05-14T13:53:46.000Z</time>
      </trkpt>
      <trkpt lat="45.83611" lon="4.71516">
        <ele>291.13425</ele>
        <time>2023-05-14T13:53:47.000Z</time>
      </trkpt>
      <trkpt lat="45.8361" lon="4.71513">
        <ele>291.96786</ele>
        <time>2023-05-14T13:53:48.000Z</time>
      </trkpt>
      <trkpt lat="45.83609" lon="4.7151">
        <ele>292.80753</ele>
        <time>2023-05-14T13:53:49.000Z</time>
      </trkpt>
      <trkpt lat="45.83608" lon="4.71506">
        <ele>293.6301</ele>
        <time>2023-05-14T13:53:50.000Z</time>
      </trkpt>
      <trkpt lat="45.83606" lon="4.71503">
        <ele>294.49268</ele>
        <time>2023-05-14T13:53:51.000Z</time>
      </trkpt>
      <trkpt lat="45.83605" lon="4.715">
        <ele>295.45502</ele>
        <time>2023-05-14T13:53:52.000Z</time>
      </trkpt>
      <trkpt lat="45.83604" lon="4.71498">
        <ele>296.38437</ele>
        <time>2023-05-14T13:53:53.000Z</time>
      </trkpt>
      <trkpt lat="45.83602" lon="4.71496">
        <ele>297.27814</ele>
        <time>2023-05-14T13:53:54.000Z</time>
      </trkpt>
      <trkpt lat="45.836" lon="4.71496">
        <ele>297.72833</ele>
        <time>2023-05-14T13:53:55.000Z</time>
      </trkpt>
      <trkpt lat="45.83597" lon="4.71495">
        <ele>298.14819</ele>
        <time>2023-05-14T13:53:57.000Z</time>
      </trkpt>
      <trkpt lat="45.83595" lon="4.71494">
        <ele>298.8714</ele>
        <time>2023-05-14T13:53:58.000Z</time>
      </trkpt>
      <trkpt lat="45.83592" lon="4.71494">
        <ele>299.12946</ele>
        <time>2023-05-14T13:53:59.000Z</time>
      </trkpt>
      <trkpt lat="45.83588" lon="4.71495">
        <ele>298.86539</ele>
        <time>2023-05-14T13:54:00.000Z</time>
      </trkpt>
      <trkpt lat="45.83585" lon="4.71497">
        <ele>298.57458</ele>
        <time>2023-05-14T13:54:01.000Z</time>
      </trkpt>
      <trkpt lat="45.83582" lon="4.71498">
        <ele>298.27423</ele>
        <time>2023-05-14T13:54:02.000Z</time>
      </trkpt>
      <trkpt lat="45.8358" lon="4.71499">
        <ele>297.9848</ele>
        <time>2023-05-14T13:54:03.000Z</time>
      </trkpt>
      <trkpt lat="45.83577" lon="4.71499">
        <ele>298.26321</ele>
        <time>2023-05-14T13:54:04.000Z</time>
      </trkpt>
      <trkpt lat="45.83574" lon="4.71499">
        <ele>298.53778</ele>
        <time>2023-05-14T13:54:05.000Z</time>
      </trkpt>
      <trkpt lat="45.8357" lon="4.715">
        <ele>298.79474</ele>
        <time>2023-05-14T13:54:06.000Z</time>
      </trkpt>
      <trkpt lat="45.83567" lon="4.71501">
        <ele>299.03693</ele>
        <time>2023-05-14T13:54:07.000Z</time>
      </trkpt>
      <trkpt lat="45.83564" lon="4.71503">
        <ele>299.23624</ele>
        <time>2023-05-14T13:54:08.000Z</time>
      </trkpt>
      <trkpt lat="45.83561" lon="4.71505">
        <ele>299.40781</ele>
        <time>2023-05-14T13:54:09.000Z</time>
      </trkpt>
      <trkpt lat="45.83558" lon="4.71506">
        <ele>299.56409</ele>
        <time>2023-05-14T13:54:10.000Z</time>
      </trkpt>
      <trkpt lat="45.83555" lon="4.71507">
        <ele>299.73593</ele>
        <time>2023-05-14T13:54:11.000Z</time>
      </trkpt>
      <trkpt lat="45.83551" lon="4.71507">
        <ele>299.88187</ele>
        <time>2023-05-14T13:54:12.000Z</time>
      </trkpt>
      <trkpt lat="45.83548" lon="4.71508">
        <ele>299.88541</ele>
        <time>2023-05-14T13:54:13.000Z</time>
      </trkpt>
      <trkpt lat="45.83546" lon="4.7151">
        <ele>300.08557</ele>
        <time>2023-05-14T13:54:14.000Z</time>
      </trkpt>
      <trkpt lat="45.83544" lon="4.71511">
        <ele>300.23608</ele>
        <time>2023-05-14T13:54:15.000Z</time>
      </trkpt>
      <trkpt lat="45.8354" lon="4.71512">
        <ele>300.32492</ele>
        <time>2023-05-14T13:54:17.000Z</time>
      </trkpt>
      <trkpt lat="45.83538" lon="4.71512">
        <ele>300.44788</ele>
        <time>2023-05-14T13:54:18.000Z</time>
      </trkpt>
      <trkpt lat="45.83535" lon="4.71511">
        <ele>300.30035</ele>
        <time>2023-05-14T13:54:19.000Z</time>
      </trkpt>
      <trkpt lat="45.83532" lon="4.7151">
        <ele>300.57413</ele>
        <time>2023-05-14T13:54:20.000Z</time>
      </trkpt>
      <trkpt lat="45.83529" lon="4.71509">
        <ele>301.33582</ele>
        <time>2023-05-14T13:54:21.000Z</time>
      </trkpt>
      <trkpt lat="45.83526" lon="4.71508">
        <ele>302.08813</ele>
        <time>2023-05-14T13:54:22.000Z</time>
      </trkpt>
      <trkpt lat="45.83522" lon="4.71507">
        <ele>302.79388</ele>
        <time>2023-05-14T13:54:23.000Z</time>
      </trkpt>
      <trkpt lat="45.83519" lon="4.71505">
        <ele>303.65417</ele>
        <time>2023-05-14T13:54:24.000Z</time>
      </trkpt>
      <trkpt lat="45.83515" lon="4.71503">
        <ele>303.47403</ele>
        <time>2023-05-14T13:54:25.000Z</time>
      </trkpt>
      <trkpt lat="45.83512" lon="4.71501">
        <ele>303.36768</ele>
        <time>2023-05-14T13:54:26.000Z</time>
      </trkpt>
      <trkpt lat="45.83508" lon="4.71501">
        <ele>303.31641</ele>
        <time>2023-05-14T13:54:27.000Z</time>
      </trkpt>
      <trkpt lat="45.83504" lon="4.715">
        <ele>303.27164</ele>
        <time>2023-05-14T13:54:28.000Z</time>
      </trkpt>
      <trkpt lat="45.83501" lon="4.715">
        <ele>303.27579</ele>
        <time>2023-05-14T13:54:29.000Z</time>
      </trkpt>
      <trkpt lat="45.83498" lon="4.71499">
        <ele>303.26117</ele>
        <time>2023-05-14T13:54:30.000Z</time>
      </trkpt>
      <trkpt lat="45.83494" lon="4.71499">
        <ele>303.27765</ele>
        <time>2023-05-14T13:54:31.000Z</time>
      </trkpt>
      <trkpt lat="45.83491" lon="4.71499">
        <ele>303.30048</ele>
        <time>2023-05-14T13:54:32.000Z</time>
      </trkpt>
      <trkpt lat="45.83489" lon="4.71499">
        <ele>303.29291</ele>
        <time>2023-05-14T13:54:33.000Z</time>
      </trkpt>
      <trkpt lat="45.83486" lon="4.71498">
        <ele>303.27945</ele>
        <time>2023-05-14T13:54:34.000Z</time>
      </trkpt>
      <trkpt lat="45.83483" lon="4.71498">
        <ele>303.06088</ele>
        <time>2023-05-14T13:54:35.000Z</time>
      </trkpt>
      <trkpt lat="45.83479" lon="4.71496">
        <ele>302.85699</ele>
        <time>2023-05-14T13:54:36.000Z</time>
      </trkpt>
      <trkpt lat="45.83476" lon="4.71495">
        <ele>302.72839</ele>
        <time>2023-05-14T13:54:37.000Z</time>
      </trkpt>
      <trkpt lat="45.83472" lon="4.71492">
        <ele>302.61963</ele>
        <time>2023-05-14T13:54:38.000Z</time>
      </trkpt>
      <trkpt lat="45.83469" lon="4.7149">
        <ele>302.45197</ele>
        <time>2023-05-14T13:54:39.000Z</time>
      </trkpt>
      <trkpt lat="45.83466" lon="4.71488">
        <ele>302.24948</ele>
        <time>2023-05-14T13:54:40.000Z</time>
      </trkpt>
      <trkpt lat="45.83462" lon="4.71486">
        <ele>302.08789</ele>
        <time>2023-05-14T13:54:41.000Z</time>
      </trkpt>
      <trkpt lat="45.83459" lon="4.71485">
        <ele>302.37341</ele>
        <time>2023-05-14T13:54:42.000Z</time>
      </trkpt>
      <trkpt lat="45.83456" lon="4.71483">
        <ele>302.23224</ele>
        <time>2023-05-14T13:54:43.000Z</time>
      </trkpt>
      <trkpt lat="45.83452" lon="4.71481">
        <ele>301.38361</ele>
        <time>2023-05-14T13:54:44.000Z</time>
      </trkpt>
      <trkpt lat="45.83449" lon="4.71479">
        <ele>301.02216</ele>
        <time>2023-05-14T13:54:45.000Z</time>
      </trkpt>
      <trkpt lat="45.83446" lon="4.71477">
        <ele>300.59647</ele>
        <time>2023-05-14T13:54:46.000Z</time>
      </trkpt>
      <trkpt lat="45.83443" lon="4.71474">
        <ele>300.12643</ele>
        <time>2023-05-14T13:54:47.000Z</time>
      </trkpt>
      <trkpt lat="45.83439" lon="4.71472">
        <ele>299.65939</ele>
        <time>2023-05-14T13:54:48.000Z</time>
      </trkpt>
      <trkpt lat="45.83436" lon="4.7147">
        <ele>299.19733</ele>
        <time>2023-05-14T13:54:49.000Z</time>
      </trkpt>
      <trkpt lat="45.83432" lon="4.71468">
        <ele>298.79327</ele>
        <time>2023-05-14T13:54:50.000Z</time>
      </trkpt>
      <trkpt lat="45.83429" lon="4.71466">
        <ele>298.89716</ele>
        <time>2023-05-14T13:54:51.000Z</time>
      </trkpt>
      <trkpt lat="45.83426" lon="4.71464">
        <ele>298.98856</ele>
        <time>2023-05-14T13:54:52.000Z</time>
      </trkpt>
      <trkpt lat="45.83422" lon="4.71461">
        <ele>299.13953</ele>
        <time>2023-05-14T13:54:53.000Z</time>
      </trkpt>
      <trkpt lat="45.83419" lon="4.71459">
        <ele>299.30573</ele>
        <time>2023-05-14T13:54:54.000Z</time>
      </trkpt>
      <trkpt lat="45.83415" lon="4.71457">
        <ele>299.49686</ele>
        <time>2023-05-14T13:54:55.000Z</time>
      </trkpt>
      <trkpt lat="45.83412" lon="4.71454">
        <ele>299.10767</ele>
        <time>2023-05-14T13:54:56.000Z</time>
      </trkpt>
      <trkpt lat="45.83409" lon="4.71451">
        <ele>298.67758</ele>
        <time>2023-05-14T13:54:57.000Z</time>
      </trkpt>
      <trkpt lat="45.83406" lon="4.71448">
        <ele>298.24228</ele>
        <time>2023-05-14T13:54:58.000Z</time>
      </trkpt>
      <trkpt lat="45.83404" lon="4.71444">
        <ele>298.35464</ele>
        <time>2023-05-14T13:54:59.000Z</time>
      </trkpt>
      <trkpt lat="45.83401" lon="4.71439">
        <ele>298.5488</ele>
        <time>2023-05-14T13:55:00.000Z</time>
      </trkpt>
      <trkpt lat="45.83399" lon="4.71435">
        <ele>298.71854</ele>
        <time>2023-05-14T13:55:01.000Z</time>
      </trkpt>
      <trkpt lat="45.83396" lon="4.7143">
        <ele>298.46542</ele>
        <time>2023-05-14T13:55:02.000Z</time>
      </trkpt>
      <trkpt lat="45.83394" lon="4.71425">
        <ele>298.69714</ele>
        <time>2023-05-14T13:55:03.000Z</time>
      </trkpt>
      <trkpt lat="45.83392" lon="4.71421">
        <ele>299.4588</ele>
        <time>2023-05-14T13:55:04.000Z</time>
      </trkpt>
      <trkpt lat="45.83389" lon="4.71416">
        <ele>299.63947</ele>
        <time>2023-05-14T13:55:05.000Z</time>
      </trkpt>
      <trkpt lat="45.83387" lon="4.71412">
        <ele>299.77386</ele>
        <time>2023-05-14T13:55:06.000Z</time>
      </trkpt>
      <trkpt lat="45.83385" lon="4.71408">
        <ele>300.46948</ele>
        <time>2023-05-14T13:55:07.000Z</time>
      </trkpt>
      <trkpt lat="45.83383" lon="4.71403">
        <ele>301.14023</ele>
        <time>2023-05-14T13:55:08.000Z</time>
      </trkpt>
      <trkpt lat="45.8338" lon="4.71399">
        <ele>301.78629</ele>
        <time>2023-05-14T13:55:09.000Z</time>
      </trkpt>
      <trkpt lat="45.83378" lon="4.71394">
        <ele>302.40561</ele>
        <time>2023-05-14T13:55:10.000Z</time>
      </trkpt>
      <trkpt lat="45.83376" lon="4.7139">
        <ele>302.46832</ele>
        <time>2023-05-14T13:55:11.000Z</time>
      </trkpt>
      <trkpt lat="45.83373" lon="4.71386">
        <ele>302.5253</ele>
        <time>2023-05-14T13:55:12.000Z</time>
      </trkpt>
      <trkpt lat="45.83371" lon="4.71382">
        <ele>302.53143</ele>
        <time>2023-05-14T13:55:13.000Z</time>
      </trkpt>
      <trkpt lat="45.83369" lon="4.71378">
        <ele>302.54648</ele>
        <time>2023-05-14T13:55:14.000Z</time>
      </trkpt>
      <trkpt lat="45.83366" lon="4.71373">
        <ele>302.53601</ele>
        <time>2023-05-14T13:55:15.000Z</time>
      </trkpt>
      <trkpt lat="45.83364" lon="4.71369">
        <ele>303.13007</ele>
        <time>2023-05-14T13:55:16.000Z</time>
      </trkpt>
      <trkpt lat="45.83361" lon="4.71364">
        <ele>303.70325</ele>
        <time>2023-05-14T13:55:17.000Z</time>
      </trkpt>
      <trkpt lat="45.83359" lon="4.71359">
        <ele>304.22116</ele>
        <time>2023-05-14T13:55:18.000Z</time>
      </trkpt>
      <trkpt lat="45.83356" lon="4.71354">
        <ele>304.20984</ele>
        <time>2023-05-14T13:55:19.000Z</time>
      </trkpt>
      <trkpt lat="45.83353" lon="4.71348">
        <ele>304.12604</ele>
        <time>2023-05-14T13:55:20.000Z</time>
      </trkpt>
      <trkpt lat="45.8335" lon="4.71343">
        <ele>304.0293</ele>
        <time>2023-05-14T13:55:21.000Z</time>
      </trkpt>
      <trkpt lat="45.83347" lon="4.71339">
        <ele>303.94757</ele>
        <time>2023-05-14T13:55:22.000Z</time>
      </trkpt>
      <trkpt lat="45.83344" lon="4.71335">
        <ele>303.82794</ele>
        <time>2023-05-14T13:55:23.000Z</time>
      </trkpt>
      <trkpt lat="45.83341" lon="4.71331">
        <ele>303.69141</ele>
        <time>2023-05-14T13:55:24.000Z</time>
      </trkpt>
      <trkpt lat="45.83338" lon="4.71328">
        <ele>304.13095</ele>
        <time>2023-05-14T13:55:25.000Z</time>
      </trkpt>
      <trkpt lat="45.83335" lon="4.71324">
        <ele>304.62555</ele>
        <time>2023-05-14T13:55:26.000Z</time>
      </trkpt>
      <trkpt lat="45.83332" lon="4.7132">
        <ele>304.54938</ele>
        <time>2023-05-14T13:55:27.000Z</time>
      </trkpt>
      <trkpt lat="45.83329" lon="4.71316">
        <ele>304.49066</ele>
        <time>2023-05-14T13:55:28.000Z</time>
      </trkpt>
      <trkpt lat="45.83326" lon="4.71311">
        <ele>304.41962</ele>
        <time>2023-05-14T13:55:29.000Z</time>
      </trkpt>
      <trkpt lat="45.83323" lon="4.71307">
        <ele>304.35175</ele>
        <time>2023-05-14T13:55:30.000Z</time>
      </trkpt>
      <trkpt lat="45.8332" lon="4.71303">
        <ele>304.29919</ele>
        <time>2023-05-14T13:55:31.000Z</time>
      </trkpt>
      <trkpt lat="45.83317" lon="4.71299">
        <ele>304.23798</ele>
        <time>2023-05-14T13:55:32.000Z</time>
      </trkpt>
      <trkpt lat="45.83315" lon="4.71294">
        <ele>304.21942</ele>
        <time>2023-05-14T13:55:33.000Z</time>
      </trkpt>
      <trkpt lat="45.83312" lon="4.7129">
        <ele>304.19153</ele>
        <time>2023-05-14T13:55:34.000Z</time>
      </trkpt>
      <trkpt lat="45.83309" lon="4.71286">
        <ele>304.19394</ele>
        <time>2023-05-14T13:55:35.000Z</time>
      </trkpt>
      <trkpt lat="45.83306" lon="4.71282">
        <ele>304.19717</ele>
        <time>2023-05-14T13:55:36.000Z</time>
      </trkpt>
      <trkpt lat="45.83304" lon="4.71278">
        <ele>304.22818</ele>
        <time>2023-05-14T13:55:37.000Z</time>
      </trkpt>
      <trkpt lat="45.83302" lon="4.71273">
        <ele>304.26419</ele>
        <time>2023-05-14T13:55:38.000Z</time>
      </trkpt>
      <trkpt lat="45.833" lon="4.71268">
        <ele>304.29697</ele>
        <time>2023-05-14T13:55:39.000Z</time>
      </trkpt>
      <trkpt lat="45.83299" lon="4.71263">
        <ele>304.36438</ele>
        <time>2023-05-14T13:55:40.000Z</time>
      </trkpt>
      <trkpt lat="45.83297" lon="4.71258">
        <ele>304.4404</ele>
        <time>2023-05-14T13:55:41.000Z</time>
      </trkpt>
      <trkpt lat="45.83296" lon="4.71253">
        <ele>304.47314</ele>
        <time>2023-05-14T13:55:42.000Z</time>
      </trkpt>
      <trkpt lat="45.83295" lon="4.71247">
        <ele>304.52774</ele>
        <time>2023-05-14T13:55:43.000Z</time>
      </trkpt>
      <trkpt lat="45.83294" lon="4.71242">
        <ele>304.60703</ele>
        <time>2023-05-14T13:55:44.000Z</time>
      </trkpt>
      <trkpt lat="45.83293" lon="4.71236">
        <ele>304.68866</ele>
        <time>2023-05-14T13:55:45.000Z</time>
      </trkpt>
      <trkpt lat="45.83293" lon="4.71231">
        <ele>304.74893</ele>
        <time>2023-05-14T13:55:46.000Z</time>
      </trkpt>
      <trkpt lat="45.83292" lon="4.71225">
        <ele>304.81927</ele>
        <time>2023-05-14T13:55:47.000Z</time>
      </trkpt>
      <trkpt lat="45.83291" lon="4.71219">
        <ele>304.88055</ele>
        <time>2023-05-14T13:55:48.000Z</time>
      </trkpt>
      <trkpt lat="45.8329" lon="4.71214">
        <ele>304.94528</ele>
        <time>2023-05-14T13:55:49.000Z</time>
      </trkpt>
      <trkpt lat="45.8329" lon="4.71209">
        <ele>304.99707</ele>
        <time>2023-05-14T13:55:50.000Z</time>
      </trkpt>
      <trkpt lat="45.83289" lon="4.71204">
        <ele>305.05881</ele>
        <time>2023-05-14T13:55:51.000Z</time>
      </trkpt>
      <trkpt lat="45.83288" lon="4.71198">
        <ele>305.13486</ele>
        <time>2023-05-14T13:55:52.000Z</time>
      </trkpt>
      <trkpt lat="45.83288" lon="4.71193">
        <ele>305.2121</ele>
        <time>2023-05-14T13:55:53.000Z</time>
      </trkpt>
      <trkpt lat="45.83287" lon="4.71188">
        <ele>305.28619</ele>
        <time>2023-05-14T13:55:54.000Z</time>
      </trkpt>
      <trkpt lat="45.83286" lon="4.71184">
        <ele>305.35547</ele>
        <time>2023-05-14T13:55:55.000Z</time>
      </trkpt>
      <trkpt lat="45.83285" lon="4.71178">
        <ele>305.42957</ele>
        <time>2023-05-14T13:55:56.000Z</time>
      </trkpt>
      <trkpt lat="45.83284" lon="4.71172">
        <ele>305.52435</ele>
        <time>2023-05-14T13:55:57.000Z</time>
      </trkpt>
      <trkpt lat="45.83283" lon="4.71166">
        <ele>305.83115</ele>
        <time>2023-05-14T13:55:58.000Z</time>
      </trkpt>
      <trkpt lat="45.83283" lon="4.7116">
        <ele>306.11298</ele>
        <time>2023-05-14T13:55:59.000Z</time>
      </trkpt>
      <trkpt lat="45.83282" lon="4.71154">
        <ele>306.43073</ele>
        <time>2023-05-14T13:56:00.000Z</time>
      </trkpt>
      <trkpt lat="45.83282" lon="4.71148">
        <ele>306.87637</ele>
        <time>2023-05-14T13:56:01.000Z</time>
      </trkpt>
      <trkpt lat="45.83281" lon="4.71142">
        <ele>307.37262</ele>
        <time>2023-05-14T13:56:02.000Z</time>
      </trkpt>
      <trkpt lat="45.83281" lon="4.71137">
        <ele>307.50458</ele>
        <time>2023-05-14T13:56:03.000Z</time>
      </trkpt>
      <trkpt lat="45.83281" lon="4.71131">
        <ele>307.6824</ele>
        <time>2023-05-14T13:56:04.000Z</time>
      </trkpt>
      <trkpt lat="45.8328" lon="4.71125">
        <ele>307.84552</ele>
        <time>2023-05-14T13:56:05.000Z</time>
      </trkpt>
      <trkpt lat="45.8328" lon="4.71119">
        <ele>308.00372</ele>
        <time>2023-05-14T13:56:06.000Z</time>
      </trkpt>
      <trkpt lat="45.83279" lon="4.71113">
        <ele>308.17401</ele>
        <time>2023-05-14T13:56:07.000Z</time>
      </trkpt>
      <trkpt lat="45.83279" lon="4.71107">
        <ele>308.3526</ele>
        <time>2023-05-14T13:56:08.000Z</time>
      </trkpt>
      <trkpt lat="45.83279" lon="4.71102">
        <ele>308.61713</ele>
        <time>2023-05-14T13:56:09.000Z</time>
      </trkpt>
      <trkpt lat="45.83279" lon="4.71096">
        <ele>309.03278</ele>
        <time>2023-05-14T13:56:10.000Z</time>
      </trkpt>
      <trkpt lat="45.83279" lon="4.7109">
        <ele>309.45062</ele>
        <time>2023-05-14T13:56:11.000Z</time>
      </trkpt>
      <trkpt lat="45.83281" lon="4.71085">
        <ele>309.85419</ele>
        <time>2023-05-14T13:56:12.000Z</time>
      </trkpt>
      <trkpt lat="45.83283" lon="4.71079">
        <ele>310.26501</ele>
        <time>2023-05-14T13:56:13.000Z</time>
      </trkpt>
      <trkpt lat="45.83285" lon="4.71075">
        <ele>310.68192</ele>
        <time>2023-05-14T13:56:14.000Z</time>
      </trkpt>
      <trkpt lat="45.83287" lon="4.7107">
        <ele>311.11255</ele>
        <time>2023-05-14T13:56:15.000Z</time>
      </trkpt>
      <trkpt lat="45.83289" lon="4.71065">
        <ele>311.51483</ele>
        <time>2023-05-14T13:56:16.000Z</time>
      </trkpt>
      <trkpt lat="45.83291" lon="4.7106">
        <ele>311.22635</ele>
        <time>2023-05-14T13:56:17.000Z</time>
      </trkpt>
      <trkpt lat="45.83293" lon="4.71055">
        <ele>310.73602</ele>
        <time>2023-05-14T13:56:18.000Z</time>
      </trkpt>
      <trkpt lat="45.83294" lon="4.71049">
        <ele>310.25705</ele>
        <time>2023-05-14T13:56:19.000Z</time>
      </trkpt>
      <trkpt lat="45.83296" lon="4.71044">
        <ele>309.73428</ele>
        <time>2023-05-14T13:56:20.000Z</time>
      </trkpt>
      <trkpt lat="45.83298" lon="4.71039">
        <ele>309.07043</ele>
        <time>2023-05-14T13:56:21.000Z</time>
      </trkpt>
      <trkpt lat="45.83299" lon="4.71034">
        <ele>309.06329</ele>
        <time>2023-05-14T13:56:22.000Z</time>
      </trkpt>
      <trkpt lat="45.83301" lon="4.71029">
        <ele>309.40317</ele>
        <time>2023-05-14T13:56:23.000Z</time>
      </trkpt>
      <trkpt lat="45.83303" lon="4.71024">
        <ele>309.70013</ele>
        <time>2023-05-14T13:56:24.000Z</time>
      </trkpt>
      <trkpt lat="45.83304" lon="4.71019">
        <ele>310.01077</ele>
        <time>2023-05-14T13:56:25.000Z</time>
      </trkpt>
      <trkpt lat="45.83305" lon="4.71014">
        <ele>310.32416</ele>
        <time>2023-05-14T13:56:26.000Z</time>
      </trkpt>
      <trkpt lat="45.83307" lon="4.71008">
        <ele>310.63715</ele>
        <time>2023-05-14T13:56:27.000Z</time>
      </trkpt>
      <trkpt lat="45.83308" lon="4.71003">
        <ele>310.95987</ele>
        <time>2023-05-14T13:56:28.000Z</time>
      </trkpt>
    </trkseg>
  </trk>
</gpx>